
Distance (Route):
Temperature : 18.8°C
Humidity : 0%
Pressure : 0hPa| Receiver | Frames | First received | Last received |
|---|---|---|---|
| BIOWL1-15 | 729 | 2026-09-04 03:48:01 | 2026-09-04 05:56:22 |
| DL1XH-west | 687 | 2026-09-04 03:51:45 | 2026-09-04 05:53:54 |
| DM0DOS-11 | 598 | 2026-09-04 03:46:11 | 2026-09-04 05:56:27 |
| DO2JMG | 539 | 2026-09-04 03:58:50 | 2026-09-04 05:46:57 |
| AA1-15 | 489 | 2026-09-04 04:04:30 | 2026-09-04 05:49:53 |
| DL1XH1-15 | 466 | 2026-09-04 03:52:43 | 2026-09-04 05:53:45 |
| DF8AY | 405 | 2026-09-04 04:17:35 | 2026-09-04 05:53:02 |
| HSKMA3-T | 306 | 2026-09-04 04:16:26 | 2026-09-04 05:45:24 |
| DL1XH-15 | 290 | 2026-09-04 03:59:50 | 2026-09-04 05:47:48 |
| DB0DAN | 278 | 2026-09-04 03:59:10 | 2026-09-04 05:56:25 |
| DO2SHX-10 | 238 | 2026-09-04 04:14:57 | 2026-09-04 05:46:47 |
| DD8BA-10 | 205 | 2026-09-04 03:47:48 | 2026-09-04 05:52:49 |
| GOEST3-10 | 160 | 2026-09-04 03:50:56 | 2026-09-04 05:46:58 |
| DL1NUX | 157 | 2026-09-04 04:24:46 | 2026-09-04 05:43:50 |
| DF5WG-10 | 137 | 2026-09-04 03:56:19 | 2026-09-04 05:46:19 |
| DJ2DS-15 | 125 | 2026-09-04 03:47:36 | 2026-09-04 05:53:12 |
| DL3AQ-11 | 96 | 2026-09-04 04:01:36 | 2026-09-04 05:52:56 |
| DL4BBY-15 | 68 | 2026-09-04 03:47:58 | 2026-09-04 05:52:38 |
| DO3DL | 42 | 2026-09-04 04:04:00 | 2026-09-04 05:33:56 |
| DL4XJ-10 | 41 | 2026-09-04 04:22:45 | 2026-09-04 05:57:04 |
| DO9LL-15 | 36 | 2026-09-04 03:47:55 | 2026-09-04 05:44:42 |
| DO3MHA-12 | 32 | 2026-09-04 04:59:43 | 2026-09-04 05:31:38 |
| BIOWL9-15 | 30 | 2026-09-04 03:48:33 | 2026-09-04 05:55:21 |
| DF2AP-13 | 28 | 2026-09-04 04:23:47 | 2026-09-04 05:41:48 |
| DD1CC8 | 27 | 2026-09-04 04:06:27 | 2026-09-04 05:39:38 |
| DF8AY-15 | 25 | 2026-09-04 04:32:41 | 2026-09-04 05:52:45 |
| DL1LOL-11 | 23 | 2026-09-04 03:46:19 | 2026-09-04 05:51:11 |
| DC6BW-12 | 23 | 2026-09-04 03:48:08 | 2026-09-04 05:47:28 |
| HTAHTA | 23 | 2026-09-04 03:58:42 | 2026-09-04 05:47:58 |
| DO3MHA-11 | 23 | 2026-09-04 04:54:38 | 2026-09-04 05:32:26 |
| BIOWL7-15 | 22 | 2026-09-04 03:50:31 | 2026-09-04 05:55:26 |
| SO1NDE-10 | 22 | 2026-09-04 04:24:54 | 2026-09-04 05:43:57 |
| DK5PH-5 | 22 | 2026-09-04 04:52:32 | 2026-09-04 05:37:28 |
| BUE01 | 20 | 2026-09-04 04:01:53 | 2026-09-04 05:54:13 |
| SONCRA | 19 | 2026-09-04 04:02:56 | 2026-09-04 05:52:09 |
| D01LWL | 19 | 2026-09-04 04:15:07 | 2026-09-04 05:47:15 |
| SONDE2-11 | 19 | 2026-09-04 04:25:54 | 2026-09-04 05:47:39 |
| DF4FW | 18 | 2026-09-04 03:52:14 | 2026-09-04 04:35:01 |
| EDDB2-11 | 18 | 2026-09-04 04:36:02 | 2026-09-04 05:47:56 |
| DK9SH | 17 | 2026-09-04 03:51:52 | 2026-09-04 05:47:11 |
| DB0UT-7 | 17 | 2026-09-04 03:58:49 | 2026-09-04 05:43:36 |
| DB0NH | 17 | 2026-09-04 04:16:57 | 2026-09-04 05:48:42 |
| EDDB2-12 | 15 | 2026-09-04 04:22:55 | 2026-09-04 05:47:14 |
| DD1CC3-15 | 14 | 2026-09-04 03:53:09 | 2026-09-04 05:51:42 |
| DL1ZP-14 | 14 | 2026-09-04 04:32:38 | 2026-09-04 05:46:09 |
| SMARD9-15 | 13 | 2026-09-04 04:23:27 | 2026-09-04 05:45:16 |
| DL1CLM-18 | 12 | 2026-09-04 03:47:50 | 2026-09-04 05:48:11 |
| DL8OAI-8 | 11 | 2026-09-04 04:21:07 | 2026-09-04 05:54:35 |
| DJ8HS-15 | 11 | 2026-09-04 04:52:23 | 2026-09-04 05:30:08 |
| SMARD9-10 | 9 | 2026-09-04 04:04:53 | 2026-09-04 05:51:26 |
| S3001 | 7 | 2026-09-04 05:05:42 | 2026-09-04 05:21:45 |
| DL8DAS-14 | 6 | 2026-09-04 04:34:46 | 2026-09-04 05:36:49 |
| DF7PN | 6 | 2026-09-04 05:00:42 | 2026-09-04 05:27:37 |
| AU51GT2 | 6 | 2026-09-04 05:07:25 | 2026-09-04 05:36:54 |
| DB0ND-19 | 6 | 2026-09-04 05:12:56 | 2026-09-04 05:44:29 |
| DO2KSM | 5 | 2026-09-04 04:19:17 | 2026-09-04 05:21:11 |
| DL3OBA | 5 | 2026-09-04 04:21:17 | 2026-09-04 05:15:04 |
| DJ2KF-10 | 4 | 2026-09-04 04:35:09 | 2026-09-04 05:32:37 |
| DO2LYB-13 | 4 | 2026-09-04 04:35:59 | 2026-09-04 05:50:44 |
| DL8DAS-15 | 3 | 2026-09-04 04:35:00 | 2026-09-04 05:24:47 |
| DD1CC1-15 | 3 | 2026-09-04 04:47:50 | 2026-09-04 04:52:20 |
| SP3BTT-10 | 3 | 2026-09-04 04:57:37 | 2026-09-04 05:15:58 |
| DO1YAY-16 | 3 | 2026-09-04 05:08:56 | 2026-09-04 05:18:46 |
| WEDDY | 1 | 2026-09-04 04:24:11 | 2026-09-04 04:24:11 |
| AP2371 | 1 | 2026-09-04 04:29:30 | 2026-09-04 04:29:30 |
| DJTTGO | 1 | 2026-09-04 05:27:23 | 2026-09-04 05:27:23 |
| MET0W-2 | 1 | 2026-09-04 05:31:08 | 2026-09-04 05:31:08 |
| AM1SDL-15 | 1 | 2026-09-04 05:47:18 | 2026-09-04 05:47:18 |
| Receiver | Date | Latitude | Longitude | Direction | Speed | Altitude | Climb | Temperature | Humidity | Pressure | Voltage | Killtimer | Uptime | BKT | XDATA |
|---|---|---|---|---|---|---|---|---|---|---|---|---|---|---|---|
| DL4XJ-10 | 2026-09-04 05:57:04 | 52.47656 | 9.70943 | 59° | 29km/h | 170m | -5.8m/s | 18.8°C | 0% | 0hPa | 2.7V | 00:00:00 | 00:00:00 | 00:00:00 | |
| DL4XJ-10 | 2026-09-04 05:56:54 | 52.47616 | 9.70841 | 56° | 38km/h | 240m | -7.0m/s | 18.2°C | 0% | 0hPa | 2.7V | 00:00:00 | 00:00:00 | 00:00:00 | |
| DL4XJ-10 | 2026-09-04 05:56:44 | 52.47556 | 9.70712 | 58° | 49km/h | 317m | -8.9m/s | 17.6°C | 0% | 0hPa | 2.7V | 00:00:00 | 00:00:00 | 00:00:00 | |
| DL4XJ-10 | 2026-09-04 05:56:34 | 52.47492 | 9.70534 | 62° | 51km/h | 401m | -7.2m/s | 16.8°C | 0% | 0hPa | 2.7V | 00:00:00 | 00:00:00 | 00:00:00 | |
| DM0DOS-11 | 2026-09-04 05:56:27 | 52.47413 | 9.70316 | 58° | 51km/h | 491m | -8.2m/s | 17.2°C | 91.4% | 957.6hPa | 2.7V | 08:03:14 | 02:25:10 | 00:00:00 | |
| DB0DAN | 2026-09-04 05:56:25 | 52.47433 | 9.70371 | 60° | 49km/h | 466m | -8.2m/s | 17.4°C | 90.2% | 960.61hPa | 2.6V | 00:00:00 | 00:00:00 | 00:00:00 | |
| BIOWL1-15 | 2026-09-04 05:56:22 | 52.47392 | 9.70261 | 58° | 55km/h | 516m | -8.4m/s | 17°C | 96.8% | 954.9hPa | 2.6V | 08:03:54 | 02:25:07 | 00:00:00 | |
| BIOWL1-15 | 2026-09-04 05:56:22 | 52.47384 | 9.70242 | 58° | 55km/h | 524m | -7.9m/s | 17°C | 96.8% | 954hPa | 2.7V | 08:03:54 | 02:25:06 | 00:00:00 | |
| DM0DOS-11 | 2026-09-04 05:56:21 | 52.47384 | 9.70242 | 58° | 55km/h | 524m | -7.9m/s | 16.9°C | 92.2% | 954hPa | 2.7V | 08:03:18 | 02:25:06 | 00:00:00 | |
| BIOWL1-15 | 2026-09-04 05:56:16 | 52.47362 | 9.70182 | 60° | 57km/h | 547m | -7.1m/s | 16.7°C | 96.8% | 951.6hPa | 2.7V | 08:03:54 | 02:25:03 | 00:00:00 | |
| BIOWL1-15 | 2026-09-04 05:56:16 | 52.47355 | 9.70161 | 60° | 57km/h | 554m | -7.2m/s | 16.7°C | 97.6% | 950.9hPa | 2.7V | 08:03:54 | 02:25:02 | 00:00:00 | |
| DM0DOS-11 | 2026-09-04 05:56:14 | 52.47348 | 9.70141 | 59° | 57km/h | 561m | -8.4m/s | 16.6°C | 93.2% | 949.8hPa | 2.6V | 08:03:23 | 02:25:01 | 00:00:00 | |
| DM0DOS-11 | 2026-09-04 05:56:14 | 52.47315 | 9.70060 | 54° | 60km/h | 591m | -6.8m/s | 16.2°C | 95.7% | 946.5hPa | 2.7V | 08:03:27 | 02:24:57 | 00:00:00 | |
| BIOWL1-15 | 2026-09-04 05:56:13 | 52.47332 | 9.70101 | 56° | 58km/h | 578m | -7.2m/s | 16.4°C | 99.5% | 948.2hPa | 2.7V | 08:03:54 | 02:24:59 | 00:00:00 | |
| BIOWL1-15 | 2026-09-04 05:56:12 | 52.47323 | 9.70081 | 55° | 60km/h | 585m | -6.9m/s | 16.3°C | 99.8% | 947.3hPa | 2.7V | 08:03:54 | 02:24:58 | 00:00:00 | |
| DB0DAN | 2026-09-04 05:56:10 | 52.47323 | 9.70081 | 55° | 57km/h | 585m | -6.9m/s | 16.3°C | 94.9% | 947.32hPa | 2.7V | 00:00:00 | 00:00:00 | 00:00:00 | |
| DM0DOS-11 | 2026-09-04 05:56:08 | 52.47268 | 9.69930 | 60° | 62km/h | 637m | -7.4m/s | 15.8°C | 98.1% | 941.5hPa | 2.7V | 08:03:33 | 02:24:51 | 00:00:00 | |
| BIOWL1-15 | 2026-09-04 05:56:08 | 52.47306 | 9.70040 | 56° | 60km/h | 599m | -7.5m/s | 16.2°C | 100% | 945.8hPa | 2.7V | 08:03:54 | 02:24:56 | 00:00:00 | |
| BIOWL1-15 | 2026-09-04 05:56:06 | 52.47283 | 9.69975 | 61° | 62km/h | 621m | -7.8m/s | 15.9°C | 100% | 943.2hPa | 2.7V | 08:03:54 | 02:24:53 | 00:00:00 | |
| BIOWL1-15 | 2026-09-04 05:56:06 | 52.47275 | 9.69953 | 61° | 62km/h | 629m | -7.9m/s | 15.8°C | 100% | 942.5hPa | 2.7V | 08:03:54 | 02:24:52 | 00:00:00 | |
| BIOWL1-15 | 2026-09-04 05:56:02 | 52.47252 | 9.69885 | 62° | 62km/h | 652m | -7.4m/s | 15.7°C | 100% | 940.2hPa | 2.6V | 08:03:54 | 02:24:49 | 00:00:00 | |
| BIOWL1-15 | 2026-09-04 05:56:02 | 52.47245 | 9.69862 | 61° | 64km/h | 660m | -7.9m/s | 15.6°C | 100% | 939.2hPa | 2.7V | 08:03:54 | 02:24:48 | 00:00:00 | |
| BIOWL1-15 | 2026-09-04 05:55:59 | 52.47237 | 9.69839 | 62° | 64km/h | 668m | -7.6m/s | 15.5°C | 100% | 938.3hPa | 2.7V | 08:03:54 | 02:24:47 | 00:00:00 | |
| BIOWL1-15 | 2026-09-04 05:55:56 | 52.47207 | 9.69744 | 65° | 66km/h | 698m | -8.2m/s | 15.3°C | 100% | 935.1hPa | 2.6V | 08:03:54 | 02:24:43 | 00:00:00 | |
| BIOWL1-15 | 2026-09-04 05:55:56 | 52.47201 | 9.69719 | 66° | 64km/h | 707m | -8m/s | 15.3°C | 100% | 934.2hPa | 2.7V | 08:03:54 | 02:24:42 | 00:00:00 | |
| DB0DAN | 2026-09-04 05:55:55 | 52.47207 | 9.69744 | 65° | 62km/h | 698m | -8.2m/s | 15.3°C | 99.1% | 935.13hPa | 2.6V | 00:00:00 | 00:00:00 | 00:00:00 | |
| BIOWL1-15 | 2026-09-04 05:55:52 | 52.47181 | 9.69645 | 68° | 66km/h | 731m | -8.3m/s | 15.2°C | 100% | 931.4hPa | 2.7V | 08:03:54 | 02:24:39 | 00:00:00 | |
| BIOWL1-15 | 2026-09-04 05:55:52 | 52.47175 | 9.69619 | 68° | 68km/h | 740m | -8.3m/s | 15.1°C | 100% | 930.5hPa | 2.6V | 08:03:54 | 02:24:38 | 00:00:00 | |
| DM0DOS-11 | 2026-09-04 05:55:50 | 52.47168 | 9.69593 | 67° | 69km/h | 748m | -8.3m/s | 15°C | 0% | 929.5hPa | 2.7V | 08:03:47 | 02:24:37 | 00:00:00 | |
| DM0DOS-11 | 2026-09-04 05:55:50 | 52.47142 | 9.69489 | 69° | 68km/h | 781m | -8.3m/s | 14.9°C | 99.6% | 925.9hPa | 2.7V | 08:03:51 | 02:24:33 | 00:00:00 | |
| BIOWL1-15 | 2026-09-04 05:55:49 | 52.47168 | 9.69593 | 67° | 69km/h | 748m | -8.3m/s | 15°C | 100% | 929.5hPa | 2.7V | 08:03:54 | 02:24:37 | 00:00:00 | |
| BIOWL1-15 | 2026-09-04 05:55:47 | 52.47148 | 9.69515 | 69° | 66km/h | 773m | -8.3m/s | 14.9°C | 100% | 927.1hPa | 2.7V | 08:03:54 | 02:24:34 | 00:00:00 | |
| BIOWL1-15 | 2026-09-04 05:55:47 | 52.47142 | 9.69489 | 69° | 68km/h | 782m | -8.4m/s | 14.9°C | 100% | 925.9hPa | 2.7V | 08:03:54 | 02:24:33 | 00:00:00 | |
| DM0DOS-11 | 2026-09-04 05:55:44 | 52.47119 | 9.69382 | 72° | 69km/h | 814m | -8.4m/s | 14.7°C | 0% | 922.4hPa | 2.6V | 08:03:55 | 02:24:29 | 00:00:00 | |
| DM0DOS-11 | 2026-09-04 05:55:44 | 52.47108 | 9.69326 | 71° | 71km/h | 831m | -8m/s | 14.6°C | 0% | 920.4hPa | 2.7V | 08:03:57 | 02:24:27 | 00:00:00 | |
| BIOWL1-15 | 2026-09-04 05:55:43 | 52.47130 | 9.69437 | 71° | 68km/h | 798m | -8.2m/s | 14.8°C | 100% | 924.1hPa | 2.7V | 08:03:54 | 02:24:31 | 00:00:00 | |
| BIOWL1-15 | 2026-09-04 05:55:41 | 52.47119 | 9.69382 | 72° | 69km/h | 814m | -8.4m/s | 14.7°C | 100% | 922.4hPa | 2.6V | 08:04:45 | 02:24:29 | 00:00:00 | |
| DB0DAN | 2026-09-04 05:55:40 | 52.47113 | 9.69354 | 72° | 68km/h | 823m | -8.4m/s | 14.6°C | 99.7% | 921.36hPa | 2.6V | 00:00:00 | 00:00:00 | 00:00:00 | |
| BIOWL1-15 | 2026-09-04 05:55:39 | 52.47108 | 9.69326 | 71° | 71km/h | 831m | -8m/s | 14.6°C | 100% | 920.4hPa | 2.7V | 08:04:45 | 02:24:27 | 00:00:00 | |
| DM0DOS-11 | 2026-09-04 05:55:38 | 52.47074 | 9.69158 | 72° | 73km/h | 878m | -7.9m/s | 14.4°C | 99.7% | 915.3hPa | 2.7V | 08:04:03 | 02:24:21 | 00:00:00 | |
| BIOWL1-15 | 2026-09-04 05:55:37 | 52.47096 | 9.69271 | 72° | 71km/h | 847m | -8.1m/s | 14.5°C | 100% | 918.5hPa | 2.7V | 08:04:45 | 02:24:25 | 00:00:00 | |
| BIOWL1-15 | 2026-09-04 05:55:35 | 52.47085 | 9.69215 | 72° | 71km/h | 863m | -7.7m/s | 14.5°C | 100% | 916.8hPa | 2.7V | 08:04:45 | 02:24:23 | 00:00:00 | |
| BIOWL1-15 | 2026-09-04 05:55:34 | 52.47080 | 9.69187 | 72° | 71km/h | 871m | -7.8m/s | 14.5°C | 100% | 916.1hPa | 2.7V | 08:04:45 | 02:24:22 | 00:00:00 | |
| BIOWL1-15 | 2026-09-04 05:55:32 | 52.47064 | 9.69101 | 75° | 71km/h | 895m | -8m/s | 14.5°C | 100% | 913.5hPa | 2.6V | 08:04:45 | 02:24:19 | 00:00:00 | |
| DM0DOS-11 | 2026-09-04 05:55:32 | 52.47046 | 9.68988 | 75° | 71km/h | 926m | -7.7m/s | 14.5°C | 96% | 910.1hPa | 2.7V | 08:04:09 | 02:24:15 | 00:00:00 | |
| BIOWL1-15 | 2026-09-04 05:55:32 | 52.47060 | 9.69073 | 75° | 71km/h | 903m | -7.9m/s | 14.6°C | 98.3% | 912.6hPa | 2.6V | 08:04:45 | 02:24:18 | 00:00:00 | |
| BIOWL1-15 | 2026-09-04 05:55:28 | 52.47051 | 9.69017 | 75° | 71km/h | 918m | -8.2m/s | 14.5°C | 98.6% | 910.9hPa | 2.7V | 08:04:45 | 02:24:16 | 00:00:00 | |
| BIOWL1-15 | 2026-09-04 05:55:27 | 52.47046 | 9.68988 | 76° | 71km/h | 926m | -7.7m/s | 14.5°C | 98.9% | 910.1hPa | 2.7V | 08:04:45 | 02:24:15 | 00:00:00 | |
| BIOWL7-15 | 2026-09-04 05:55:26 | 52.47046 | 9.68988 | 76° | 71km/h | 926m | -7.7m/s | 14.5°C | 95.5% | 910.1hPa | 2.7V | 00:00:00 | 00:00:00 | 00:00:00 | |
| DM0DOS-11 | 2026-09-04 05:55:26 | 52.47038 | 9.68932 | 76° | 69km/h | 942m | -7.8m/s | 14.4°C | 95.9% | 908.4hPa | 2.7V | 08:04:11 | 02:24:13 | 00:00:00 | |
| DM0DOS-11 | 2026-09-04 05:55:26 | 52.47029 | 9.68876 | 76° | 69km/h | 957m | -7.7m/s | 14.3°C | 95.5% | 906.7hPa | 2.7V | 08:04:13 | 02:24:11 | 00:00:00 | |
| DB0DAN | 2026-09-04 05:55:25 | 52.47038 | 9.68932 | 76° | 66km/h | 942m | -7.8m/s | 14.4°C | 95.3% | 908.39hPa | 2.7V | 00:00:00 | 00:00:00 | 00:00:00 | |
| BIOWL1-15 | 2026-09-04 05:55:25 | 52.47025 | 9.68847 | 76° | 69km/h | 965m | -8.1m/s | 14.3°C | 97.9% | 905.7hPa | 2.7V | 08:04:45 | 02:24:10 | 00:00:00 | |
| BIOWL1-15 | 2026-09-04 05:55:25 | 52.47021 | 9.68819 | 76° | 69km/h | 972m | -7.2m/s | 14.2°C | 97.8% | 905.1hPa | 2.7V | 08:04:45 | 02:24:09 | 00:00:00 | |
| DL4XJ-10 | 2026-09-04 05:55:24 | 52.47034 | 9.68904 | 77° | 69km/h | 949m | -7.5m/s | 13.1°C | 0% | 0hPa | 2.6V | 00:00:00 | 00:00:00 | 00:00:00 | |
| BIOWL9-15 | 2026-09-04 05:55:21 | 52.47021 | 9.68819 | 76° | 68km/h | 972m | -7.2m/s | 14.2°C | 95.1% | 905.1hPa | 2.6V | 00:00:00 | 00:00:00 | 00:00:00 | |
| DM0DOS-11 | 2026-09-04 05:55:20 | 52.47013 | 9.68764 | 76° | 69km/h | 988m | -8.3m/s | 14.2°C | 94.2% | 903.3hPa | 2.6V | 08:04:17 | 02:24:07 | 00:00:00 | |
| DM0DOS-11 | 2026-09-04 05:55:20 | 52.47005 | 9.68709 | 76° | 68km/h | 1003m | -8.3m/s | 14.6°C | 89.2% | 901.7hPa | 2.7V | 08:04:19 | 02:24:05 | 00:00:00 | |
| BIOWL1-15 | 2026-09-04 05:55:19 | 52.47013 | 9.68764 | 77° | 69km/h | 988m | -8.3m/s | 14.3°C | 96.3% | 903.3hPa | 2.6V | 08:04:45 | 02:24:07 | 00:00:00 | |
| BIOWL1-15 | 2026-09-04 05:55:17 | 52.47002 | 9.68682 | 77° | 68km/h | 1011m | -8.5m/s | 14.5°C | 93.2% | 900.8hPa | 2.7V | 08:04:45 | 02:24:04 | 00:00:00 | |
| BIOWL1-15 | 2026-09-04 05:55:17 | 52.46998 | 9.68655 | 77° | 66km/h | 1020m | -7.9m/s | 14.5°C | 93.2% | 900.2hPa | 2.7V | 08:04:45 | 02:24:03 | 00:00:00 | |
| DM0DOS-11 | 2026-09-04 05:55:14 | 52.46975 | 9.68492 | 77° | 68km/h | 1067m | -8.4m/s | 14.1°C | 90.3% | 895.1hPa | 2.7V | 08:04:27 | 02:23:57 | 00:00:00 | |
| BIOWL1-15 | 2026-09-04 05:55:13 | 52.46990 | 9.68601 | 76° | 68km/h | 1035m | -8.2m/s | 14.3°C | 93.5% | 898.1hPa | 2.7V | 08:04:45 | 02:24:01 | 00:00:00 | |
| BIOWL1-15 | 2026-09-04 05:55:11 | 52.46960 | 9.68385 | 78° | 66km/h | 1100m | -8.4m/s | 13.9°C | 93.3% | 891.4hPa | 2.6V | 08:04:45 | 02:23:53 | 00:00:00 | |
| DB0DAN | 2026-09-04 05:55:10 | 52.46979 | 9.68519 | 76° | 64km/h | 1059m | -8.1m/s | 14.2°C | 89.6% | 895.78hPa | 2.7V | 00:00:00 | 00:00:00 | 00:00:00 | |
| DM0DOS-11 | 2026-09-04 05:55:08 | 52.46960 | 9.68385 | 78° | 66km/h | 1100m | -8.4m/s | 13.9°C | 90.1% | 891.4hPa | 2.6V | 08:04:31 | 02:23:53 | 00:00:00 | |
| BIOWL1-15 | 2026-09-04 05:55:04 | 52.46956 | 9.68358 | 77° | 66km/h | 1109m | -8.7m/s | 13.8°C | 93.1% | 890.5hPa | 2.7V | 08:04:45 | 02:23:52 | 00:00:00 | |
| DL4XJ-10 | 2026-09-04 05:55:04 | 52.46956 | 9.68358 | 78° | 66km/h | 1108m | -8.6m/s | 12.7°C | 0% | 0hPa | 2.7V | 00:00:00 | 00:00:00 | 00:00:00 | |
| BIOWL7-15 | 2026-09-04 05:55:03 | 52.46956 | 9.68358 | 78° | 66km/h | 1109m | -8.7m/s | 13.9°C | 89.7% | 890.5hPa | 2.7V | 00:00:00 | 00:00:00 | 00:00:00 | |
| DM0DOS-11 | 2026-09-04 05:55:02 | 52.46946 | 9.68278 | 78° | 66km/h | 1133m | -8.1m/s | 13.6°C | 91.2% | 887.9hPa | 2.7V | 08:04:35 | 02:23:49 | 00:00:00 | |
| DM0DOS-11 | 2026-09-04 05:55:02 | 52.46939 | 9.68225 | 77° | 66km/h | 1149m | -8.3m/s | 13.5°C | 92.1% | 886.2hPa | 2.7V | 08:04:37 | 02:23:47 | 00:00:00 | |
| BIOWL1-15 | 2026-09-04 05:55:02 | 52.46950 | 9.68305 | 79° | 66km/h | 1125m | -7.8m/s | 13.8°C | 92.8% | 888.6hPa | 2.7V | 08:04:45 | 02:23:50 | 00:00:00 | |
| BIOWL1-15 | 2026-09-04 05:55:00 | 52.46943 | 9.68252 | 78° | 66km/h | 1141m | -7.9m/s | 13.5°C | 94.2% | 887hPa | 2.7V | 08:04:45 | 02:23:48 | 00:00:00 | |
| BIOWL1-15 | 2026-09-04 05:54:59 | 52.46939 | 9.68225 | 78° | 66km/h | 1149m | -8.3m/s | 13.5°C | 94.6% | 886.2hPa | 2.7V | 08:04:45 | 02:23:47 | 00:00:00 | |
| BIOWL1-15 | 2026-09-04 05:54:57 | 52.46932 | 9.68172 | 78° | 66km/h | 1166m | -8.6m/s | 13.4°C | 95.5% | 884.4hPa | 2.6V | 08:04:45 | 02:23:45 | 00:00:00 | |
| DM0DOS-11 | 2026-09-04 05:54:57 | 52.46925 | 9.68118 | 78° | 68km/h | 1183m | -8.6m/s | 13.2°C | 92.5% | 882.9hPa | 2.7V | 08:04:41 | 02:23:43 | 00:00:00 | |
| DM0DOS-11 | 2026-09-04 05:54:57 | 52.46918 | 9.68063 | 79° | 68km/h | 1200m | -8.6m/s | 13.2°C | 92.2% | 881.1hPa | 2.7V | 08:04:43 | 02:23:41 | 00:00:00 | |
| DM0DOS-11 | 2026-09-04 05:54:57 | 52.46909 | 9.67981 | 79° | 68km/h | 1225m | -8.2m/s | 13.4°C | 89.1% | 878.4hPa | 2.7V | 08:04:46 | 02:23:38 | 00:00:00 | |
| BIOWL1-15 | 2026-09-04 05:54:56 | 52.46929 | 9.68145 | 78° | 68km/h | 1174m | -8.3m/s | 13.3°C | 95.8% | 883.6hPa | 2.6V | 08:04:45 | 02:23:44 | 00:00:00 | |
| DB0DAN | 2026-09-04 05:54:55 | 52.46925 | 9.68118 | 78° | 64km/h | 1183m | -8.6m/s | 13.2°C | 92% | 882.88hPa | 2.7V | 00:00:00 | 00:00:00 | 00:00:00 | |
| BIOWL1-15 | 2026-09-04 05:54:55 | 52.46925 | 9.68118 | 78° | 68km/h | 1183m | -8.6m/s | 13.2°C | 95.8% | 882.9hPa | 2.7V | 08:04:45 | 02:23:43 | 00:00:00 | |
| BIOWL1-15 | 2026-09-04 05:54:54 | 52.46915 | 9.68035 | 79° | 68km/h | 1208m | -8.6m/s | 13.4°C | 93.6% | 880.2hPa | 2.7V | 08:04:45 | 02:23:40 | 00:00:00 | |
| BIOWL1-15 | 2026-09-04 05:54:53 | 52.46912 | 9.68008 | 80° | 68km/h | 1217m | -8.4m/s | 13.4°C | 93.2% | 879.3hPa | 2.7V | 08:04:45 | 02:23:39 | 00:00:00 | |
| DM0DOS-11 | 2026-09-04 05:54:50 | 52.46906 | 9.67953 | 79° | 68km/h | 1233m | -8.1m/s | 13.3°C | 88.7% | 877.5hPa | 2.7V | 08:04:47 | 02:23:37 | 00:00:00 | |
| BIOWL1-15 | 2026-09-04 05:54:50 | 52.46909 | 9.67981 | 79° | 68km/h | 1225m | -8.2m/s | 13.4°C | 93% | 878.4hPa | 2.7V | 08:05:36 | 02:23:38 | 00:00:00 | |
| BIOWL1-15 | 2026-09-04 05:54:49 | 52.46899 | 9.67899 | 78° | 68km/h | 1250m | -8.1m/s | 13.2°C | 92.7% | 876hPa | 2.6V | 08:05:36 | 02:23:35 | 00:00:00 | |
| BIOWL1-15 | 2026-09-04 05:54:48 | 52.46896 | 9.67871 | 79° | 68km/h | 1258m | -8.1m/s | 13.3°C | 91.9% | 874.9hPa | 2.7V | 08:05:36 | 02:23:34 | 00:00:00 | |
| BIOWL1-15 | 2026-09-04 05:54:44 | 52.46884 | 9.67762 | 80° | 68km/h | 1291m | -8.2m/s | 13.3°C | 89.8% | 871.7hPa | 2.7V | 08:05:36 | 02:23:30 | 00:00:00 | |
| DM0DOS-11 | 2026-09-04 05:54:44 | 52.46886 | 9.67789 | 80° | 68km/h | 1283m | -7.9m/s | 13.3°C | 85.8% | 872.5hPa | 2.7V | 08:04:53 | 02:23:31 | 00:00:00 | |
| BIOWL1-15 | 2026-09-04 05:54:41 | 52.46880 | 9.67734 | 79° | 68km/h | 1299m | -8.4m/s | 13.2°C | 90% | 870.6hPa | 2.7V | 08:05:36 | 02:23:29 | 00:00:00 | |
| DB0DAN | 2026-09-04 05:54:40 | 52.46877 | 9.67706 | 79° | 66km/h | 1307m | -8.3m/s | 13.2°C | 85.1% | 869.92hPa | 2.7V | 00:00:00 | 00:00:00 | 00:00:00 | |
| BIOWL1-15 | 2026-09-04 05:54:40 | 52.46877 | 9.67706 | 79° | 69km/h | 1307m | -8.3m/s | 13.2°C | 89.9% | 869.9hPa | 2.7V | 08:05:36 | 02:23:28 | 00:00:00 | |
| BIOWL1-15 | 2026-09-04 05:54:38 | 52.46852 | 9.67482 | 80° | 69km/h | 1372m | -8.1m/s | 12.8°C | 90.8% | 863.4hPa | 2.7V | 08:05:36 | 02:23:20 | 00:00:00 | |
| DM0DOS-11 | 2026-09-04 05:54:38 | 52.46867 | 9.67622 | 79° | 69km/h | 1332m | -8.2m/s | 13.1°C | 85.4% | 867.3hPa | 2.7V | 08:04:59 | 02:23:25 | 00:00:00 | |
| BIOWL1-15 | 2026-09-04 05:54:38 | 52.46849 | 9.67454 | 80° | 69km/h | 1380m | -7.9m/s | 12.8°C | 91.2% | 862.4hPa | 2.7V | 08:05:36 | 02:23:19 | 00:00:00 | |
| BIOWL1-15 | 2026-09-04 05:54:35 | 52.46846 | 9.67425 | 80° | 71km/h | 1388m | -8.1m/s | 12.7°C | 91.4% | 861.6hPa | 2.6V | 08:05:36 | 02:23:18 | 00:00:00 | |
| DL8OAI-8 | 2026-09-04 05:54:35 | 52.46864 | 9.67593 | 81° | 69km/h | 1340m | -7.9m/s | 13.0°C | 85.2% | 866.4hPa | 2.7V | 08:05:00 | 00:00:00 | 00:00:00 | |
| DL4XJ-10 | 2026-09-04 05:54:34 | 52.46858 | 9.67538 | 80° | 71km/h | 1355m | -8.2m/s | 11.7°C | 0% | 0hPa | 2.7V | 00:00:00 | 00:00:00 | 00:00:00 | |
| DM0DOS-11 | 2026-09-04 05:54:33 | 52.46849 | 9.67454 | 80° | 69km/h | 1380m | -7.9m/s | 12.8°C | 86.8% | 862.4hPa | 2.7V | 08:05:05 | 02:23:19 | 00:00:00 | |
| DM0DOS-11 | 2026-09-04 05:54:33 | 52.46842 | 9.67396 | 79° | 71km/h | 1396m | -7.7m/s | 12.6°C | 87.6% | 860.8hPa | 2.6V | 08:05:07 | 02:23:17 | 00:00:00 | |
| BIOWL1-15 | 2026-09-04 05:54:31 | 52.46842 | 9.67396 | 79° | 71km/h | 1396m | -7.7m/s | 12.6°C | 91.5% | 860.8hPa | 2.6V | 08:05:36 | 02:23:17 | 00:00:00 | |
| DM0DOS-11 | 2026-09-04 05:54:28 | 52.46829 | 9.67279 | 80° | 71km/h | 1426m | -7.6m/s | 12.3°C | 89.4% | 857.7hPa | 2.7V | 08:05:11 | 02:23:13 | 00:00:00 | |
| BIOWL1-15 | 2026-09-04 05:54:27 | 52.46832 | 9.67308 | 80° | 71km/h | 1419m | -7.1m/s | 12.4°C | 92.5% | 858.4hPa | 2.7V | 08:05:36 | 02:23:14 | 00:00:00 | |
| BIOWL1-15 | 2026-09-04 05:54:27 | 52.46829 | 9.67279 | 81° | 71km/h | 1426m | -7.6m/s | 12.3°C | 93.2% | 857.7hPa | 2.7V | 08:05:36 | 02:23:13 | 00:00:00 | |
| DB0DAN | 2026-09-04 05:54:25 | 52.46829 | 9.67279 | 81° | 68km/h | 1426m | -7.6m/s | 12.3°C | 88.8% | 857.69hPa | 2.7V | 00:00:00 | 00:00:00 | 00:00:00 | |
| BIOWL1-15 | 2026-09-04 05:54:23 | 52.46823 | 9.67220 | 80° | 71km/h | 1442m | -7.8m/s | 12.1°C | 93.3% | 856.1hPa | 2.7V | 08:05:36 | 02:23:11 | 00:00:00 | |
| DM0DOS-11 | 2026-09-04 05:54:22 | 52.46816 | 9.67163 | 80° | 71km/h | 1457m | -7.7m/s | 12.2°C | 89.1% | 854.4hPa | 2.6V | 08:05:15 | 02:23:09 | 00:00:00 | |
| DM0DOS-11 | 2026-09-04 05:54:22 | 52.46810 | 9.67104 | 79° | 71km/h | 1473m | -8.1m/s | 12.2°C | 88.5% | 852.8hPa | 2.7V | 08:05:17 | 02:23:07 | 00:00:00 | |
| BIOWL1-15 | 2026-09-04 05:54:22 | 52.46819 | 9.67191 | 79° | 71km/h | 1450m | -7.4m/s | 12.2°C | 93.1% | 855.4hPa | 2.6V | 08:05:36 | 02:23:10 | 00:00:00 | |
| BIOWL1-15 | 2026-09-04 05:54:20 | 52.46813 | 9.67133 | 80° | 71km/h | 1465m | -8m/s | 12.2°C | 92.3% | 853.6hPa | 2.7V | 08:05:36 | 02:23:08 | 00:00:00 | |
| BIOWL1-15 | 2026-09-04 05:54:19 | 52.46810 | 9.67104 | 80° | 71km/h | 1473m | -8.1m/s | 12.2°C | 92.4% | 852.8hPa | 2.7V | 08:05:36 | 02:23:07 | 00:00:00 | |
| BIOWL1-15 | 2026-09-04 05:54:17 | 52.46804 | 9.67045 | 80° | 73km/h | 1488m | -7.6m/s | 12.1°C | 92.5% | 851.4hPa | 2.7V | 08:05:36 | 02:23:05 | 00:00:00 | |
| BIOWL1-15 | 2026-09-04 05:54:16 | 52.46788 | 9.66901 | 79° | 71km/h | 1527m | -7.7m/s | 11.9°C | 92.5% | 847.5hPa | 2.6V | 08:05:36 | 02:23:00 | 00:00:00 | |
| BIOWL1-15 | 2026-09-04 05:54:15 | 52.46784 | 9.66872 | 79° | 71km/h | 1535m | -7.5m/s | 11.8°C | 93.1% | 846.7hPa | 2.7V | 08:05:36 | 02:22:59 | 00:00:00 | |
| DL4XJ-10 | 2026-09-04 05:54:14 | 52.46794 | 9.66958 | 80° | 69km/h | 1512m | -7.8m/s | 10.8°C | 0% | 0hPa | 2.7V | 00:00:00 | 00:00:00 | 00:00:00 | |
| BUE01 | 2026-09-04 05:54:13 | 52.46791 | 9.66929 | 79° | 69km/h | 1519m | -7.7m/s | 11.9°C | 88.3% | 848.3hPa | 2.7V | 00:00:00 | 00:00:00 | 00:00:00 | |
| DL8OAI-8 | 2026-09-04 05:54:12 | 52.46791 | 9.66929 | 81° | 71km/h | 1520m | -7.7m/s | 11.9°C | 88.3% | 848.3hPa | 2.7V | 08:05:00 | 00:00:00 | 00:00:00 | |
| DM0DOS-11 | 2026-09-04 05:54:12 | 52.46784 | 9.66872 | 79° | 71km/h | 1535m | -7.5m/s | 11.8°C | 89.4% | 846.7hPa | 2.7V | 08:05:25 | 02:22:59 | 00:00:00 | |
| DM0DOS-11 | 2026-09-04 05:54:12 | 52.46778 | 9.66815 | 79° | 69km/h | 1550m | -7.5m/s | 11.6°C | 90.3% | 845.1hPa | 2.7V | 08:05:27 | 02:22:57 | 00:00:00 | |
| DB0DAN | 2026-09-04 05:54:10 | 52.46781 | 9.66844 | 79° | 66km/h | 1543m | -7.3m/s | 11.7°C | 89.5% | 845.98hPa | 2.7V | 00:00:00 | 00:00:00 | 00:00:00 | |
| BIOWL1-15 | 2026-09-04 05:54:10 | 52.46774 | 9.66787 | 79° | 71km/h | 1558m | -7.7m/s | 11.6°C | 94% | 844.3hPa | 2.7V | 08:05:36 | 02:22:56 | 00:00:00 | |
| BIOWL1-15 | 2026-09-04 05:54:09 | 52.46771 | 9.66759 | 79° | 69km/h | 1565m | -7.9m/s | 11.5°C | 94.2% | 843.6hPa | 2.7V | 08:05:36 | 02:22:55 | 00:00:00 | |
| BIOWL1-15 | 2026-09-04 05:54:05 | 52.46754 | 9.66618 | 78° | 69km/h | 1605m | -8.4m/s | 11.3°C | 93.8% | 839.5hPa | 2.7V | 08:05:36 | 02:22:50 | 00:00:00 | |
| BIOWL1-15 | 2026-09-04 05:54:05 | 52.46750 | 9.66590 | 78° | 68km/h | 1613m | -8m/s | 11.3°C | 93.4% | 838.8hPa | 2.7V | 08:05:36 | 02:22:49 | 00:00:00 | |
| DL4XJ-10 | 2026-09-04 05:54:04 | 52.46760 | 9.66674 | 79° | 69km/h | 1589m | -8.0m/s | 10.2°C | 0% | 0hPa | 2.7V | 00:00:00 | 00:00:00 | 00:00:00 | |
| DM0DOS-11 | 2026-09-04 05:54:00 | 52.46743 | 9.66535 | 78° | 69km/h | 1629m | -8.7m/s | 11.2°C | 89.9% | 837.2hPa | 2.7V | 08:05:37 | 02:22:47 | 00:00:00 | |
| DM0DOS-11 | 2026-09-04 05:54:00 | 52.46737 | 9.66479 | 79° | 68km/h | 1647m | -8.5m/s | 11.1°C | 90.1% | 835.5hPa | 2.6V | 08:05:39 | 02:22:45 | 00:00:00 | |
| BIOWL1-15 | 2026-09-04 05:53:59 | 52.46743 | 9.66535 | 78° | 69km/h | 1629m | -8.7m/s | 11.2°C | 93.1% | 837.2hPa | 2.7V | 08:06:27 | 02:22:47 | 00:00:00 | |
| BIOWL1-15 | 2026-09-04 05:53:57 | 52.46737 | 9.66479 | 80° | 68km/h | 1647m | -8.5m/s | 11.1°C | 92.8% | 835.5hPa | 2.6V | 08:06:27 | 02:22:45 | 00:00:00 | |
| BIOWL1-15 | 2026-09-04 05:53:56 | 52.46733 | 9.66451 | 80° | 68km/h | 1655m | -8.5m/s | 11°C | 92.7% | 834.6hPa | 2.6V | 08:06:27 | 02:22:44 | 00:00:00 | |
| DB0DAN | 2026-09-04 05:53:55 | 52.46730 | 9.66423 | 79° | 66km/h | 1663m | -8.4m/s | 10.9°C | 89.9% | 833.77hPa | 2.7V | 00:00:00 | 00:00:00 | 00:00:00 | |
| DL1XH-west | 2026-09-04 05:53:54 | 52.46727 | 9.66396 | 80° | 68km/h | 1672m | -8m/s | 10.9°C | 92.1% | 832.9hPa | 2.7V | 08:06:27 | 02:22:42 | 00:00:00 | |
| BIOWL1-15 | 2026-09-04 05:53:54 | 52.46717 | 9.66284 | 83° | 68km/h | 1703m | -7.7m/s | 10.7°C | 92.8% | 829.6hPa | 2.6V | 08:06:27 | 02:22:38 | 00:00:00 | |
| DL4XJ-10 | 2026-09-04 05:53:54 | 52.46727 | 9.66395 | 81° | 68km/h | 1671m | -8.0m/s | 9.7°C | 0% | 0hPa | 2.6V | 00:00:00 | 00:00:00 | 00:00:00 | |
| DM0DOS-11 | 2026-09-04 05:53:53 | 52.46716 | 9.66256 | 84° | 68km/h | 1711m | -7.9m/s | 10.6°C | 92.1% | 829hPa | 2.6V | 08:05:47 | 02:22:37 | 00:00:00 | |
| DL1XH-west | 2026-09-04 05:53:51 | 52.46720 | 9.66312 | 83° | 69km/h | 1695m | -8m/s | 10.7°C | 92.5% | 830.4hPa | 2.7V | 08:06:27 | 02:22:39 | 00:00:00 | |
| DL1XH-west | 2026-09-04 05:53:49 | 52.46716 | 9.66256 | 84° | 68km/h | 1711m | -7.9m/s | 10.6°C | 93.1% | 829hPa | 2.6V | 08:06:27 | 02:22:37 | 00:00:00 | |
| BIOWL1-15 | 2026-09-04 05:53:48 | 52.46711 | 9.66172 | 85° | 68km/h | 1734m | -7.9m/s | 10.4°C | 93.4% | 826.7hPa | 2.7V | 08:06:27 | 02:22:34 | 00:00:00 | |
| DL1XH-west | 2026-09-04 05:53:47 | 52.46712 | 9.66200 | 84° | 68km/h | 1726m | -7.9m/s | 10.5°C | 93.4% | 827.2hPa | 2.7V | 08:06:27 | 02:22:35 | 00:00:00 | |
| DL1XH1-15 | 2026-09-04 05:53:45 | 52.46705 | 9.66000 | 91° | 69km/h | 1781m | -8m/s | 10.9°C | 85.1% | 821.9hPa | 2.6V | 08:05:56 | 02:22:28 | 00:00:00 | |
| DL1XH-west | 2026-09-04 05:53:45 | 52.46709 | 9.66144 | 85° | 68km/h | 1742m | -7.7m/s | 10.4°C | 93.2% | 825.8hPa | 2.7V | 08:06:27 | 02:22:33 | 00:00:00 | |
| DL1XH-west | 2026-09-04 05:53:44 | 52.46708 | 9.66116 | 86° | 68km/h | 1750m | -7.8m/s | 10.3°C | 93.3% | 825.1hPa | 2.7V | 08:06:27 | 02:22:32 | 00:00:00 | |
| BIOWL1-15 | 2026-09-04 05:53:43 | 52.46705 | 9.65971 | 94° | 69km/h | 1789m | -7.9m/s | 11.1°C | 85.4% | 821.2hPa | 2.7V | 08:06:27 | 02:22:27 | 00:00:00 | |
| DL1XH-west | 2026-09-04 05:53:42 | 52.46705 | 9.66059 | 87° | 71km/h | 1765m | -7.8m/s | 10.3°C | 92.2% | 823.4hPa | 2.7V | 08:06:27 | 02:22:30 | 00:00:00 | |
| BUE01 | 2026-09-04 05:53:42 | 52.46705 | 9.66059 | 87° | 69km/h | 1765m | -7.8m/s | 10.3°C | 91.6% | 823.4hPa | 2.6V | 00:00:00 | 00:00:00 | 00:00:00 | |
| DB0DAN | 2026-09-04 05:53:40 | 52.46705 | 9.66000 | 91° | 68km/h | 1781m | -8m/s | 10.9°C | 84.5% | 821.85hPa | 2.6V | 00:00:00 | 00:00:00 | 00:00:00 | |
| DL1XH-west | 2026-09-04 05:53:40 | 52.46705 | 9.66000 | 91° | 69km/h | 1781m | -8m/s | 10.9°C | 87.7% | 821.9hPa | 2.6V | 08:06:27 | 02:22:28 | 00:00:00 | |
| DL1XH-west | 2026-09-04 05:53:38 | 52.46707 | 9.65942 | 94° | 69km/h | 1796m | -8m/s | 11.1°C | 85.6% | 820.2hPa | 2.7V | 08:06:27 | 02:22:26 | 00:00:00 | |
| BIOWL1-15 | 2026-09-04 05:53:37 | 52.46708 | 9.65913 | 95° | 69km/h | 1805m | -8.4m/s | 11.1°C | 85.6% | 819.6hPa | 2.7V | 08:06:27 | 02:22:25 | 00:00:00 | |
| DM0DOS-11 | 2026-09-04 05:53:37 | 52.46711 | 9.65856 | 95° | 69km/h | 1821m | -8.4m/s | 11.2°C | 80.1% | 818.1hPa | 2.7V | 08:06:01 | 02:22:23 | 00:00:00 | |
| BIOWL1-15 | 2026-09-04 05:53:36 | 52.46711 | 9.65856 | 95° | 69km/h | 1821m | -8.4m/s | 11.2°C | 84.9% | 818.1hPa | 2.7V | 08:06:27 | 02:22:23 | 00:00:00 | |
| DL1XH-west | 2026-09-04 05:53:36 | 52.46710 | 9.65885 | 96° | 69km/h | 1813m | -7.8m/s | 11.1°C | 85.4% | 818.9hPa | 2.7V | 08:06:27 | 02:22:24 | 00:00:00 | |
| DL1XH-west | 2026-09-04 05:53:34 | 52.46713 | 9.65827 | 95° | 71km/h | 1829m | -8m/s | 11.1°C | 84.6% | 817.3hPa | 2.6V | 08:06:27 | 02:22:22 | 00:00:00 | |
| DL1XH-west | 2026-09-04 05:53:32 | 52.46716 | 9.65768 | 96° | 73km/h | 1845m | -7.8m/s | 11°C | 84.8% | 815.9hPa | 2.7V | 08:06:27 | 02:22:20 | 00:00:00 | |
| BIOWL1-15 | 2026-09-04 05:53:31 | 52.46718 | 9.65738 | 97° | 73km/h | 1853m | -7.9m/s | 11.1°C | 83.3% | 814.9hPa | 2.7V | 08:06:27 | 02:22:19 | 00:00:00 | |
| DL1XH1-15 | 2026-09-04 05:53:30 | 52.46729 | 9.65616 | 97° | 75km/h | 1884m | -8.2m/s | 11°C | 77.1% | 811.9hPa | 2.7V | 08:06:09 | 02:22:15 | 00:00:00 | |
| DL1XH-west | 2026-09-04 05:53:30 | 52.46721 | 9.65708 | 97° | 75km/h | 1860m | -7.9m/s | 11.1°C | 82.5% | 814.3hPa | 2.7V | 08:06:27 | 02:22:18 | 00:00:00 | |
| BIOWL1-15 | 2026-09-04 05:53:29 | 52.46723 | 9.65677 | 98° | 75km/h | 1868m | -8.2m/s | 11.2°C | 81.3% | 813.4hPa | 2.7V | 08:06:27 | 02:22:17 | 00:00:00 | |
| DL1XH-west | 2026-09-04 05:53:28 | 52.46726 | 9.65647 | 97° | 75km/h | 1876m | -8.2m/s | 11.1°C | 82.1% | 812.7hPa | 2.7V | 08:06:27 | 02:22:16 | 00:00:00 | |
| DL1XH-west | 2026-09-04 05:53:27 | 52.46728 | 9.65616 | 98° | 75km/h | 1885m | -8.2m/s | 11°C | 82.6% | 811.9hPa | 2.7V | 08:06:27 | 02:22:15 | 00:00:00 | |
| DM0DOS-11 | 2026-09-04 05:53:26 | 52.46733 | 9.65554 | 97° | 75km/h | 1900m | -8.4m/s | 10.8°C | 77.6% | 810.3hPa | 2.6V | 08:06:11 | 02:22:13 | 00:00:00 | |
| BIOWL1-15 | 2026-09-04 05:53:26 | 52.46731 | 9.65585 | 98° | 75km/h | 1893m | -8m/s | 10.9°C | 83% | 811.2hPa | 2.6V | 08:06:27 | 02:22:14 | 00:00:00 | |
| DB0DAN | 2026-09-04 05:53:25 | 52.46733 | 9.65554 | 97° | 71km/h | 1901m | -8.4m/s | 10.8°C | 77% | 810.31hPa | 2.6V | 00:00:00 | 00:00:00 | 00:00:00 | |
| DL1XH-west | 2026-09-04 05:53:25 | 52.46733 | 9.65554 | 97° | 75km/h | 1901m | -8.4m/s | 10.8°C | 82.9% | 810.3hPa | 2.6V | 08:06:27 | 02:22:13 | 00:00:00 | |
| DL1XH1-15 | 2026-09-04 05:53:24 | 52.46738 | 9.65492 | 97° | 77km/h | 1917m | -8m/s | 10.7°C | 78.2% | 808.6hPa | 2.7V | 08:06:13 | 02:22:11 | 00:00:00 | |
| DL1XH1-15 | 2026-09-04 05:53:24 | 52.46743 | 9.65429 | 97° | 78km/h | 1933m | -8.5m/s | 10.6°C | 78.3% | 807hPa | 2.7V | 08:06:15 | 02:22:09 | 00:00:00 | |
| DL1XH-west | 2026-09-04 05:53:23 | 52.46738 | 9.65492 | 98° | 77km/h | 1917m | -8m/s | 10.7°C | 83.3% | 808.6hPa | 2.7V | 08:06:27 | 02:22:11 | 00:00:00 | |
| DL1XH-west | 2026-09-04 05:53:21 | 52.46743 | 9.65429 | 97° | 78km/h | 1933m | -8.5m/s | 10.6°C | 83.5% | 807hPa | 2.7V | 08:06:27 | 02:22:09 | 00:00:00 | |
| DM0DOS-11 | 2026-09-04 05:53:20 | 52.46749 | 9.65364 | 98° | 78km/h | 1950m | -7.9m/s | 10.5°C | 77.4% | 805.4hPa | 2.6V | 08:06:17 | 02:22:07 | 00:00:00 | |
| DL1XH-west | 2026-09-04 05:53:20 | 52.46746 | 9.65397 | 97° | 78km/h | 1942m | -8.4m/s | 10.5°C | 83.4% | 806.4hPa | 2.7V | 08:06:27 | 02:22:08 | 00:00:00 | |
| BIOWL1-15 | 2026-09-04 05:53:19 | 52.46755 | 9.65300 | 98° | 78km/h | 1966m | -8.3m/s | 10.4°C | 83% | 804hPa | 2.7V | 08:06:27 | 02:22:05 | 00:00:00 | |
| DL1XH1-15 | 2026-09-04 05:53:18 | 52.46754 | 9.65300 | 97° | 78km/h | 1966m | -8.3m/s | 10.4°C | 77.4% | 804hPa | 2.7V | 08:06:19 | 02:22:05 | 00:00:00 | |
| DL1XH-west | 2026-09-04 05:53:18 | 52.46752 | 9.65332 | 99° | 78km/h | 1958m | -7.9m/s | 10.4°C | 83.2% | 804.8hPa | 2.6V | 08:06:27 | 02:22:06 | 00:00:00 | |
| DL1XH-west | 2026-09-04 05:53:16 | 52.46757 | 9.65268 | 98° | 78km/h | 1974m | -8.6m/s | 10.3°C | 83.1% | 803.1hPa | 2.7V | 08:06:27 | 02:22:04 | 00:00:00 | |
| BIOWL1-15 | 2026-09-04 05:53:16 | 52.46762 | 9.65203 | 97° | 78km/h | 1991m | -8.8m/s | 10.2°C | 83.8% | 801.6hPa | 2.7V | 08:06:27 | 02:22:02 | 00:00:00 | |
| DL1XH-west | 2026-09-04 05:53:15 | 52.46760 | 9.65235 | 98° | 78km/h | 1983m | -8.4m/s | 10.2°C | 83.5% | 802.5hPa | 2.7V | 08:06:27 | 02:22:03 | 00:00:00 | |
| DM0DOS-11 | 2026-09-04 05:53:14 | 52.46765 | 9.65170 | 97° | 80km/h | 2000m | -8.6m/s | 10.1°C | 78.3% | 800.7hPa | 2.7V | 08:06:23 | 02:22:01 | 00:00:00 | |
| DM0DOS-11 | 2026-09-04 05:53:14 | 52.46775 | 9.65041 | 97° | 78km/h | 2034m | -8.8m/s | 10.1°C | 76.6% | 797.5hPa | 2.7V | 08:06:27 | 02:21:57 | 00:00:00 | |
| DL1XH-west | 2026-09-04 05:53:13 | 52.46765 | 9.65170 | 97° | 80km/h | 2000m | -8.6m/s | 10.1°C | 83.9% | 800.7hPa | 2.7V | 08:06:27 | 02:22:01 | 00:00:00 | |
| BIOWL1-15 | 2026-09-04 05:53:12 | 52.46773 | 9.65073 | 97° | 78km/h | 2025m | -9m/s | 10.1°C | 82.7% | 798.3hPa | 2.6V | 08:06:27 | 02:21:58 | 00:00:00 | |
| DJ2DS-15 | 2026-09-04 05:53:12 | 52.46768 | 9.65138 | 97° | 80km/h | 2008m | -7.9m/s | 10.1°C | 77.4% | 799.9hPa | 2.6V | 00:00:00 | 02:22:00 | 00:00:00 | |
| DB0DAN | 2026-09-04 05:53:10 | 52.46773 | 9.65073 | 97° | 75km/h | 2025m | -9m/s | 10.1°C | 75.8% | 798.31hPa | 2.6V | 00:00:00 | 00:00:00 | 00:00:00 | |
| DL1XH1-15 | 2026-09-04 05:53:08 | 52.46778 | 9.65008 | 97° | 78km/h | 2043m | -8.5m/s | 10°C | 76.4% | 796.6hPa | 2.7V | 08:06:28 | 02:21:56 | 00:00:00 | |
| DL1XH1-15 | 2026-09-04 05:53:08 | 52.46790 | 9.64847 | 97° | 80km/h | 2086m | -8.8m/s | 9.7°C | 78.1% | 792.3hPa | 2.6V | 08:06:33 | 02:21:51 | 00:00:00 | |
| DL1XH-west | 2026-09-04 05:53:08 | 52.46778 | 9.65008 | 98° | 78km/h | 2043m | -8.5m/s | 10°C | 82.8% | 796.6hPa | 2.7V | 08:07:18 | 02:21:56 | 00:00:00 | |
| DJ2DS-15 | 2026-09-04 05:53:07 | 52.46780 | 9.64976 | 96° | 77km/h | 2051m | -9.0m/s | 10.0°C | 76.2% | 795.8hPa | 2.7V | 00:00:00 | 00:00:00 | 00:00:00 | |
| DM0DOS-11 | 2026-09-04 05:53:04 | 52.46801 | 9.64716 | 97° | 80km/h | 2122m | -9m/s | 9.3°C | 79.6% | 789hPa | 2.7V | 08:06:37 | 02:21:47 | 00:00:00 | |
| DL1XH1-15 | 2026-09-04 05:53:03 | 52.46803 | 9.64684 | 97° | 80km/h | 2131m | -8.6m/s | 9.2°C | 80.1% | 788.1hPa | 2.7V | 08:06:38 | 02:21:46 | 00:00:00 | |
| DF8AY | 2026-09-04 05:53:02 | 52.46793 | 9.64814 | 97° | 80km/h | 2096m | -9.4m/s | 9.6°C | 85% | 791.6hPa | 2.7V | 08:07:18 | 02:21:50 | 00:00:00 | |
| BIOWL1-15 | 2026-09-04 05:52:59 | 52.46801 | 9.64716 | 97° | 80km/h | 2122m | -9m/s | 9.3°C | 86.1% | 789.1hPa | 2.7V | 08:07:18 | 02:21:47 | 00:00:00 | |
| DL1XH1-15 | 2026-09-04 05:52:58 | 52.46817 | 9.64517 | 96° | 82km/h | 2174m | -8.7m/s | 8.9°C | 80.3% | 784hPa | 2.7V | 08:06:43 | 02:21:41 | 00:00:00 | |
| DL1XH-west | 2026-09-04 05:52:58 | 52.46803 | 9.64684 | 98° | 80km/h | 2131m | -8.6m/s | 9.2°C | 86.3% | 788.1hPa | 2.7V | 08:07:18 | 02:21:46 | 00:00:00 | |
| DL3AQ-11 | 2026-09-04 05:52:56 | 52.46824 | 9.64416 | 96° | 82km/h | 2200m | -8.8m/s | 8.7°C | 80.7% | 781.5hPa | 2.7V | 00:00:00 | 00:00:00 | 00:00:00 | |
| DB0DAN | 2026-09-04 05:52:55 | 52.46812 | 9.64584 | 98° | 77km/h | 2157m | -8.8m/s | 9.1°C | 79.6% | 785.65hPa | 2.7V | 00:00:00 | 00:00:00 | 00:00:00 | |
| DM0DOS-11 | 2026-09-04 05:52:54 | 52.46827 | 9.64382 | 97° | 82km/h | 2209m | -8.7m/s | 8.6°C | 81.8% | 780.8hPa | 2.6V | 08:06:47 | 02:21:37 | 00:00:00 | |
| DL1XH1-15 | 2026-09-04 05:52:53 | 52.46829 | 9.64348 | 97° | 82km/h | 2217m | -8.2m/s | 8.6°C | 82.1% | 779.9hPa | 2.7V | 08:06:48 | 02:21:36 | 00:00:00 | |
| DF8AY | 2026-09-04 05:52:51 | 52.46822 | 9.64450 | 96° | 82km/h | 2192m | -8.8m/s | 8.8°C | 87.6% | 782.5hPa | 2.6V | 08:07:18 | 02:21:39 | 00:00:00 | |
| DL8OAI-8 | 2026-09-04 05:52:50 | 52.46821 | 9.64450 | 97° | 82km/h | 2192m | -8.8m/s | 8.8°C | 80.5% | 782.5hPa | 2.6V | 08:07:00 | 00:00:00 | 00:00:00 | |
| DD8BA-10 | 2026-09-04 05:52:49 | 52.46827 | 9.64382 | 98° | 84km/h | 2209m | -8.6m/s | 8.6°C | 81.8% | 780.7hPa | 2.6V | 00:00:00 | 00:00:00 | 00:00:00 | |
| DL1XH1-15 | 2026-09-04 05:52:48 | 52.46840 | 9.64178 | 95° | 84km/h | 2258m | -8.5m/s | 8.2°C | 83.8% | 776hPa | 2.6V | 08:06:53 | 02:21:31 | 00:00:00 | |
| DL1XH-west | 2026-09-04 05:52:48 | 52.46829 | 9.64348 | 97° | 82km/h | 2217m | -8.3m/s | 8.6°C | 88% | 779.9hPa | 2.7V | 08:07:18 | 02:21:36 | 00:00:00 | |
| BIOWL9-15 | 2026-09-04 05:52:46 | 52.46834 | 9.64281 | 95° | 82km/h | 2233m | -7.9m/s | 8.4°C | 82.0% | 778.2hPa | 2.7V | 00:00:00 | 00:00:00 | 00:00:00 | |
| DF8AY-15 | 2026-09-04 05:52:45 | 52.46836 | 9.64247 | 96° | 84km/h | 2241m | -8.2m/s | 8.3°C | 83.1% | 777.8hPa | 2.7V | 00:00:00 | 02:21:33 | 00:00:00 | |
| DM0DOS-11 | 2026-09-04 05:52:44 | 52.46849 | 9.64042 | 96° | 84km/h | 2291m | -8.3m/s | 7.9°C | 85.2% | 773.1hPa | 2.7V | 08:06:57 | 02:21:27 | 00:00:00 | |
| DL1XH1-15 | 2026-09-04 05:52:43 | 52.46852 | 9.64007 | 95° | 84km/h | 2300m | -8.1m/s | 7.8°C | 85.7% | 772.2hPa | 2.7V | 08:06:58 | 02:21:26 | 00:00:00 | |
| DL4XJ-10 | 2026-09-04 05:52:43 | 52.46840 | 9.64179 | 96° | 84km/h | 2257m | -8.4m/s | 7.0°C | 0% | 0hPa | 2.6V | 00:00:00 | 00:00:00 | 00:00:00 | |
| DB0DAN | 2026-09-04 05:52:40 | 52.46847 | 9.64076 | 96° | 80km/h | 2283m | -8.6m/s | 8°C | 84.1% | 773.86hPa | 2.6V | 00:00:00 | 00:00:00 | 00:00:00 | |
| DF8AY | 2026-09-04 05:52:40 | 52.46847 | 9.64076 | 96° | 84km/h | 2283m | -8.6m/s | 8°C | 90.8% | 773.9hPa | 2.6V | 08:07:18 | 02:21:28 | 00:00:00 | |
| DM0DOS-11 | 2026-09-04 05:52:39 | 52.46861 | 9.63868 | 96° | 84km/h | 2333m | -8.5m/s | 7.5°C | 87.1% | 769hPa | 2.6V | 08:07:02 | 02:21:22 | 00:00:00 | |
| BIOWL1-15 | 2026-09-04 05:52:38 | 52.46852 | 9.64007 | 96° | 84km/h | 2300m | -8.1m/s | 7.8°C | 91.1% | 772.2hPa | 2.7V | 08:07:18 | 02:21:26 | 00:00:00 | |
| DL4BBY-15 | 2026-09-04 05:52:38 | 52.46851 | 9.64007 | 96° | 86km/h | 2300m | -8.1m/s | 6.6°C | 0% | 0hPa | 2.6V | 00:00:00 | 00:00:00 | 00:00:00 | |
| DD8BA-10 | 2026-09-04 05:52:37 | 52.46854 | 9.63973 | 96° | 84km/h | 2308m | -8.6m/s | 7.7°C | 86.0% | 771.5hPa | 2.6V | 08:06:00 | 00:00:00 | 00:00:00 | |
| DM0DOS-11 | 2026-09-04 05:52:34 | 52.46873 | 9.63695 | 96° | 86km/h | 2375m | -8.6m/s | 7.1°C | 89.2% | 765.4hPa | 2.6V | 08:07:07 | 02:21:17 | 00:00:00 | |
| DL1XH1-15 | 2026-09-04 05:52:33 | 52.46875 | 9.63660 | 96° | 84km/h | 2384m | -8.8m/s | 7°C | 89.6% | 764.5hPa | 2.6V | 08:07:08 | 02:21:16 | 00:00:00 | |
| DF8AY | 2026-09-04 05:52:30 | 52.46870 | 9.63730 | 97° | 84km/h | 2366m | -8.6m/s | 7.1°C | 93.4% | 766.1hPa | 2.6V | 08:07:18 | 02:21:18 | 00:00:00 | |
| DM0DOS-11 | 2026-09-04 05:52:29 | 52.46885 | 9.63521 | 96° | 86km/h | 2419m | -9.1m/s | 6.6°C | 91.2% | 761.3hPa | 2.6V | 08:07:12 | 02:21:12 | 00:00:00 | |
| DL1XH-west | 2026-09-04 05:52:28 | 52.46875 | 9.63660 | 96° | 84km/h | 2384m | -8.8m/s | 7°C | 94.1% | 764.5hPa | 2.6V | 08:07:18 | 02:21:16 | 00:00:00 | |
| BIOWL1-15 | 2026-09-04 05:52:27 | 52.46880 | 9.63591 | 97° | 84km/h | 2401m | -8.5m/s | 6.8°C | 94.7% | 763.1hPa | 2.7V | 08:07:18 | 02:21:14 | 00:00:00 | |
| DD8BA-10 | 2026-09-04 05:52:27 | 52.46878 | 9.63625 | 97° | 86km/h | 2392m | -8.6m/s | 6.8°C | 89.9% | 763.6hPa | 2.6V | 00:00:00 | 00:00:00 | 00:00:00 | |
| DB0DAN | 2026-09-04 05:52:25 | 52.46883 | 9.63556 | 97° | 82km/h | 2409m | -9m/s | 6.7°C | 89.8% | 762.14hPa | 2.6V | 00:00:00 | 00:00:00 | 00:00:00 | |
| DM0DOS-11 | 2026-09-04 05:52:24 | 52.46899 | 9.63346 | 97° | 84km/h | 2462m | -8.4m/s | 6.2°C | 93.3% | 757.5hPa | 2.6V | 08:07:17 | 02:21:07 | 00:00:00 | |
| DL1XH1-15 | 2026-09-04 05:52:23 | 52.46888 | 9.63486 | 96° | 84km/h | 2427m | -8.8m/s | 6.5°C | 91.7% | 760.6hPa | 2.6V | 08:07:13 | 02:21:11 | 00:00:00 | |
| DL1XH1-15 | 2026-09-04 05:52:23 | 52.46902 | 9.63311 | 97° | 84km/h | 2471m | -8.5m/s | 6.1°C | 93.8% | 756.5hPa | 2.6V | 08:07:18 | 02:21:06 | 00:00:00 | |
| DF8AY | 2026-09-04 05:52:19 | 52.46899 | 9.63346 | 97° | 84km/h | 2462m | -8.4m/s | 6.2°C | 94.3% | 757.5hPa | 2.6V | 08:07:18 | 02:21:07 | 00:00:00 | |
| DL1XH1-15 | 2026-09-04 05:52:18 | 52.46916 | 9.63137 | 97° | 86km/h | 2514m | -8.6m/s | 5.7°C | 96% | 752.6hPa | 2.6V | 08:07:23 | 02:21:01 | 00:00:00 | |
| DL1XH-west | 2026-09-04 05:52:17 | 52.46904 | 9.63276 | 97° | 84km/h | 2480m | -8.5m/s | 6°C | 94% | 755.9hPa | 2.6V | 08:08:09 | 02:21:05 | 00:00:00 | |
| BIOWL1-15 | 2026-09-04 05:52:16 | 52.46907 | 9.63242 | 98° | 84km/h | 2488m | -8.4m/s | 6°C | 93.8% | 754.9hPa | 2.6V | 08:08:09 | 02:21:04 | 00:00:00 | |
| DL3AQ-11 | 2026-09-04 05:52:16 | 52.46910 | 9.63207 | 97° | 84km/h | 2496m | -8.6m/s | 5.9°C | 94.3% | 754.2hPa | 2.5V | 00:00:00 | 00:00:00 | 00:00:00 | |
| BIOWL9-15 | 2026-09-04 05:52:15 | 52.46910 | 9.63207 | 97° | 84km/h | 2496m | -8.6m/s | 5.9°C | 94.3% | 754.2hPa | 2.5V | 00:00:00 | 00:00:00 | 00:00:00 | |
| DM0DOS-11 | 2026-09-04 05:52:14 | 52.46927 | 9.62990 | 97° | 91km/h | 2549m | -8.8m/s | 5.4°C | 97.9% | 749.4hPa | 2.5V | 08:07:27 | 02:20:57 | 00:00:00 | |
| DL1XH1-15 | 2026-09-04 05:52:13 | 52.46930 | 9.62953 | 96° | 91km/h | 2558m | -8.7m/s | 5.3°C | 98.3% | 748.5hPa | 2.6V | 08:07:28 | 02:20:56 | 00:00:00 | |
| DB0DAN | 2026-09-04 05:52:10 | 52.46924 | 9.63027 | 97° | 86km/h | 2540m | -9.3m/s | 5.5°C | 96.4% | 750.1hPa | 2.6V | 00:00:00 | 00:00:00 | 00:00:00 | |
| DF8AY | 2026-09-04 05:52:10 | 52.46927 | 9.62990 | 97° | 91km/h | 2549m | -8.8m/s | 5.4°C | 95.3% | 749.4hPa | 2.5V | 08:08:09 | 02:20:57 | 00:00:00 | |
| SONCRA | 2026-09-04 05:52:09 | 52.46927 | 9.62990 | 97° | 89km/h | 2549m | -8.8m/s | 5.4°C | 96.8% | 749.4hPa | 2.5V | 00:00:00 | 00:00:00 | 00:00:00 | |
| DL1XH1-15 | 2026-09-04 05:52:08 | 52.46944 | 9.62764 | 97° | 95km/h | 2602m | -8.6m/s | 5.3°C | 96.6% | 744.6hPa | 2.5V | 08:07:33 | 02:20:51 | 00:00:00 | |
| BIOWL1-15 | 2026-09-04 05:52:06 | 52.46936 | 9.62878 | 97° | 91km/h | 2576m | -8.7m/s | 5.2°C | 95.7% | 747hPa | 2.6V | 08:08:09 | 02:20:54 | 00:00:00 | |
| DM0DOS-11 | 2026-09-04 05:52:04 | 52.46956 | 9.62604 | 96° | 99km/h | 2637m | -8.4m/s | 6.6°C | 76.6% | 741.4hPa | 2.6V | 08:07:37 | 02:20:47 | 00:00:00 | |
| DL3AQ-11 | 2026-09-04 05:52:03 | 52.46947 | 9.62724 | 97° | 95km/h | 2610m | -8.7m/s | 6.0°C | 83.1% | 743.8hPa | 2.6V | 00:00:00 | 00:00:00 | 00:00:00 | |
| DM0DOS-11 | 2026-09-04 05:51:59 | 52.46970 | 9.62393 | 95° | 104km/h | 2679m | -8.6m/s | 7.1°C | 69.2% | 737.4hPa | 2.6V | 08:07:42 | 02:20:42 | 00:00:00 | |
| DF8AY | 2026-09-04 05:51:58 | 52.46959 | 9.62562 | 96° | 102km/h | 2645m | -8.6m/s | 6.8°C | 76.5% | 740.6hPa | 2.6V | 08:08:09 | 02:20:46 | 00:00:00 | |
| DL1XH1-15 | 2026-09-04 05:51:58 | 52.46959 | 9.62562 | 96° | 102km/h | 2645m | -8.6m/s | 6.8°C | 73.8% | 740.5hPa | 2.6V | 08:07:38 | 02:20:46 | 00:00:00 | |
| BIOWL1-15 | 2026-09-04 05:51:57 | 52.46967 | 9.62435 | 96° | 104km/h | 2671m | -8.2m/s | 7°C | 74.2% | 738.3hPa | 2.6V | 08:08:09 | 02:20:43 | 00:00:00 | |
| DL1XH-west | 2026-09-04 05:51:56 | 52.46964 | 9.62478 | 96° | 102km/h | 2662m | -8.8m/s | 6.9°C | 75.3% | 739hPa | 2.6V | 08:08:09 | 02:20:44 | 00:00:00 | |
| DJ2DS-15 | 2026-09-04 05:51:55 | 52.46967 | 9.62435 | 95° | 102km/h | 2671m | -8.2m/s | 7.0°C | 69.9% | 738.3hPa | 2.6V | 00:00:00 | 00:00:00 | 00:00:00 | |
| DB0DAN | 2026-09-04 05:51:55 | 52.46967 | 9.62435 | 96° | 99km/h | 2671m | -8.2m/s | 7°C | 69.9% | 738.31hPa | 2.6V | 00:00:00 | 00:00:00 | 00:00:00 | |
| DM0DOS-11 | 2026-09-04 05:51:54 | 52.46984 | 9.62174 | 95° | 108km/h | 2723m | -9.2m/s | 7.3°C | 65.7% | 733.7hPa | 2.6V | 08:07:47 | 02:20:37 | 00:00:00 | |
| DJ2DS-15 | 2026-09-04 05:51:51 | 52.46978 | 9.62262 | 97° | 108km/h | 2705m | -8.7m/s | 7.1°C | 68.3% | 735.1hPa | 2.6V | 00:00:00 | 02:20:39 | 00:00:00 | |
| DM0DOS-11 | 2026-09-04 05:51:49 | 52.47001 | 9.61907 | 95° | 108km/h | 2776m | -8.6m/s | 7.1°C | 69.4% | 728.8hPa | 2.6V | 08:07:53 | 02:20:31 | 00:00:00 | |
| DL1XH1-15 | 2026-09-04 05:51:48 | 52.46987 | 9.62130 | 96° | 108km/h | 2732m | -9m/s | 7.3°C | 64.9% | 732.8hPa | 2.6V | 08:07:48 | 02:20:36 | 00:00:00 | |
| DF8AY | 2026-09-04 05:51:48 | 52.46987 | 9.62130 | 96° | 108km/h | 2732m | -9m/s | 7.3°C | 70.5% | 732.8hPa | 2.6V | 08:08:09 | 02:20:36 | 00:00:00 | |
| DL1XH-west | 2026-09-04 05:51:46 | 52.46992 | 9.62041 | 96° | 108km/h | 2749m | -8.8m/s | 7.3°C | 70% | 731.2hPa | 2.6V | 08:08:09 | 02:20:34 | 00:00:00 | |
| BIOWL1-15 | 2026-09-04 05:51:46 | 52.46998 | 9.61952 | 96° | 108km/h | 2767m | -8.5m/s | 7.2°C | 73.4% | 729.6hPa | 2.6V | 08:08:09 | 02:20:32 | 00:00:00 | |
| BIOWL9-15 | 2026-09-04 05:51:44 | 52.46998 | 9.61952 | 96° | 108km/h | 2767m | -8.5m/s | 7.2°C | 66.7% | 729.6hPa | 2.5V | 00:00:00 | 00:00:00 | 00:00:00 | |
| DL1XH1-15 | 2026-09-04 05:51:43 | 52.47015 | 9.61684 | 95° | 108km/h | 2820m | -8.3m/s | 6.9°C | 70.7% | 725hPa | 2.5V | 08:07:58 | 02:20:26 | 00:00:00 | |
| DL4XJ-10 | 2026-09-04 05:51:43 | 52.47001 | 9.61907 | 96° | 108km/h | 2776m | -8.6m/s | 6.0°C | 0% | 0hPa | 2.6V | 00:00:00 | 00:00:00 | 00:00:00 | |
| DD1CC3-15 | 2026-09-04 05:51:42 | 52.47001 | 9.61907 | 97° | 108km/h | 2776m | -8.6m/s | 7.1°C | 68.7% | 728.8hPa | 2.6V | 08:08:00 | 00:00:00 | 00:00:00 | |
| DB0DAN | 2026-09-04 05:51:40 | 52.47009 | 9.61773 | 96° | 104km/h | 2802m | -8.7m/s | 7°C | 71% | 726.63hPa | 2.6V | 00:00:00 | 00:00:00 | 00:00:00 | |
| DF8AY | 2026-09-04 05:51:37 | 52.47018 | 9.61639 | 96° | 106km/h | 2828m | -8.4m/s | 6.8°C | 76.7% | 724.4hPa | 2.6V | 08:08:09 | 02:20:25 | 00:00:00 | |
| DL1XH-west | 2026-09-04 05:51:35 | 52.47023 | 9.61551 | 96° | 108km/h | 2846m | -9.1m/s | 6.7°C | 82.7% | 722.8hPa | 2.6V | 08:08:09 | 02:20:23 | 00:00:00 | |
| BIOWL1-15 | 2026-09-04 05:51:34 | 52.47026 | 9.61507 | 96° | 108km/h | 2854m | -8.3m/s | 6.7°C | 83% | 721.9hPa | 2.6V | 08:08:09 | 02:20:22 | 00:00:00 | |
| DL1XH1-15 | 2026-09-04 05:51:33 | 52.47042 | 9.61242 | 95° | 108km/h | 2906m | -9m/s | 6.4°C | 80% | 717.4hPa | 2.6V | 08:08:08 | 02:20:16 | 00:00:00 | |
| DJ2DS-15 | 2026-09-04 05:51:31 | 52.47034 | 9.61375 | 96° | 106km/h | 2879m | -8.5m/s | 6.4°C | 77.7% | 719.6hPa | 2.6V | 00:00:00 | 02:20:19 | 00:00:00 | |
| DL1XH1-15 | 2026-09-04 05:51:28 | 52.47055 | 9.61022 | 95° | 106km/h | 2948m | -8.6m/s | 6°C | 80.9% | 713.4hPa | 2.6V | 08:08:13 | 02:20:11 | 00:00:00 | |
| DF8AY | 2026-09-04 05:51:27 | 52.47045 | 9.61198 | 96° | 108km/h | 2915m | -8.4m/s | 6.3°C | 85.4% | 716.7hPa | 2.6V | 08:08:09 | 02:20:15 | 00:00:00 | |
| SMARD9-10 | 2026-09-04 05:51:26 | 52.47045 | 9.61197 | 97° | 108km/h | 2915m | -8.4m/s | 6.3°C | 78.8% | 716.7hPa | 2.6V | 08:08:00 | 00:00:00 | 00:00:00 | |
| DB0DAN | 2026-09-04 05:51:25 | 52.47050 | 9.61110 | 96° | 102km/h | 2931m | -8.6m/s | 6.2°C | 79.2% | 715.16hPa | 2.6V | 00:00:00 | 00:00:00 | 00:00:00 | |
| DL1XH-west | 2026-09-04 05:51:25 | 52.47050 | 9.61110 | 96° | 106km/h | 2931m | -8.6m/s | 6.2°C | 85.8% | 715.2hPa | 2.6V | 08:09:00 | 02:20:13 | 00:00:00 | |
| BIOWL1-15 | 2026-09-04 05:51:23 | 52.47055 | 9.61022 | 96° | 106km/h | 2948m | -8.6m/s | 6°C | 86.6% | 713.4hPa | 2.6V | 08:09:00 | 02:20:11 | 00:00:00 | |
| DL3AQ-11 | 2026-09-04 05:51:23 | 52.47058 | 9.60978 | 95° | 106km/h | 2957m | -8.9m/s | 5.9°C | 80.9% | 712.9hPa | 2.6V | 00:00:00 | 00:00:00 | 00:00:00 | |
| DL1XH1-15 | 2026-09-04 05:51:18 | 52.47068 | 9.60804 | 95° | 106km/h | 2990m | -8.7m/s | 5.7°C | 82.8% | 709.8hPa | 2.6V | 08:08:18 | 02:20:06 | 00:00:00 | |
| DF8AY | 2026-09-04 05:51:17 | 52.47070 | 9.60760 | 95° | 106km/h | 2999m | -8.8m/s | 5.6°C | 87.2% | 709.2hPa | 2.6V | 08:09:00 | 02:20:05 | 00:00:00 | |
| DL1XH-west | 2026-09-04 05:51:14 | 52.47076 | 9.60628 | 94° | 108km/h | 3025m | -8.9m/s | 5.4°C | 86.2% | 707hPa | 2.5V | 08:09:00 | 02:20:02 | 00:00:00 | |
| DM0DOS-11 | 2026-09-04 05:51:13 | 52.47078 | 9.60584 | 93° | 108km/h | 3034m | -9m/s | 5.3°C | 83.2% | 706.1hPa | 2.6V | 08:08:23 | 02:20:01 | 00:00:00 | |
| DL1LOL-11 | 2026-09-04 05:51:11 | 52.47080 | 9.60539 | 94° | 108km/h | 3043m | -8.7m/s | 5.3°C | 82.9% | 705.4hPa | 2.6V | 00:00:00 | 00:00:00 | 00:00:00 | |
| DB0DAN | 2026-09-04 05:51:10 | 52.47083 | 9.60450 | 93° | 102km/h | 3060m | -8.7m/s | 5.2°C | 82.8% | 703.94hPa | 2.6V | 00:00:00 | 00:00:00 | 00:00:00 | |
| DL1XH1-15 | 2026-09-04 05:51:08 | 52.47086 | 9.60361 | 92° | 106km/h | 3076m | -9m/s | 5.1°C | 84.6% | 702.6hPa | 2.5V | 08:08:28 | 02:19:56 | 00:00:00 | |
| DF8AY | 2026-09-04 05:51:06 | 52.47088 | 9.60273 | 93° | 106km/h | 3100m | -13.1m/s | 5°C | 88.9% | 700.8hPa | 2.6V | 08:09:00 | 02:19:54 | 00:00:00 | |
| DD8BA-10 | 2026-09-04 05:51:06 | 52.47088 | 9.60273 | 93° | 108km/h | 3100m | -13.0m/s | 4.9°C | 83.2% | 700.8hPa | 2.6V | 08:08:00 | 00:00:00 | 00:00:00 | |
| DM0DOS-11 | 2026-09-04 05:51:04 | 52.47092 | 9.60141 | 92° | 108km/h | 3140m | -14.1m/s | 4.7°C | 84.9% | 697.1hPa | 2.5V | 08:08:33 | 02:19:51 | 00:00:00 | |
| BIOWL1-15 | 2026-09-04 05:51:03 | 52.47095 | 9.60052 | 93° | 108km/h | 3168m | -14.3m/s | 4.6°C | 88.7% | 694.9hPa | 2.6V | 08:09:00 | 02:19:49 | 00:00:00 | |
| DL1XH-west | 2026-09-04 05:51:03 | 52.47092 | 9.60141 | 93° | 108km/h | 3141m | -14.1m/s | 4.7°C | 90.4% | 697.1hPa | 2.5V | 08:09:00 | 02:19:51 | 00:00:00 | |
| DL4XJ-10 | 2026-09-04 05:51:03 | 52.47092 | 9.60141 | 93° | 108km/h | 3141m | -14.1m/s | 3.6°C | 0% | 0hPa | 2.6V | 00:00:00 | 00:00:00 | 00:00:00 | |
| DL1XH1-15 | 2026-09-04 05:50:58 | 52.47110 | 9.59696 | 95° | 108km/h | 3281m | -14.8m/s | 3.9°C | 85.9% | 685.5hPa | 2.6V | 08:08:43 | 02:19:41 | 00:00:00 | |
| DF8AY | 2026-09-04 05:50:58 | 52.47105 | 9.59785 | 95° | 108km/h | 3252m | -14.4m/s | 4.1°C | 84.8% | 687.8hPa | 2.6V | 08:09:00 | 02:19:43 | 00:00:00 | |
| DL3AQ-11 | 2026-09-04 05:50:56 | 52.47105 | 9.59785 | 95° | 106km/h | 3252m | -14.4m/s | 4.1°C | 78.1% | 687.8hPa | 2.6V | 00:00:00 | 00:00:00 | 00:00:00 | |
| DB0DAN | 2026-09-04 05:50:55 | 52.47105 | 9.59785 | 95° | 102km/h | 3252m | -14.4m/s | 4.1°C | 78.1% | 687.76hPa | 2.6V | 00:00:00 | 00:00:00 | 00:00:00 | |
| DL1XH1-15 | 2026-09-04 05:50:53 | 52.47124 | 9.59473 | 96° | 108km/h | 3351m | -14.4m/s | 3.5°C | 82.8% | 679.8hPa | 2.6V | 08:08:48 | 02:19:36 | 00:00:00 | |
| DL1XH-west | 2026-09-04 05:50:53 | 52.47110 | 9.59696 | 96° | 108km/h | 3281m | -14.8m/s | 3.9°C | 90.8% | 685.5hPa | 2.6V | 08:09:00 | 02:19:41 | 00:00:00 | |
| BIOWL1-15 | 2026-09-04 05:50:50 | 52.47118 | 9.59562 | 96° | 108km/h | 3324m | -13.9m/s | 3.7°C | 86.6% | 682.1hPa | 2.6V | 08:09:00 | 02:19:38 | 00:00:00 | |
| DF8AY | 2026-09-04 05:50:49 | 52.47135 | 9.59295 | 94° | 110km/h | 3408m | -14.3m/s | 3.2°C | 88.7% | 674.9hPa | 2.6V | 08:09:00 | 02:19:32 | 00:00:00 | |
| DD8BA-10 | 2026-09-04 05:50:46 | 52.47130 | 9.59385 | 96° | 110km/h | 3380m | -14.9m/s | 3.3°C | 82.4% | 677.4hPa | 2.6V | 00:00:00 | 00:00:00 | 00:00:00 | |
| BIOWL7-15 | 2026-09-04 05:50:45 | 52.47129 | 9.59385 | 96° | 108km/h | 3380m | -14.9m/s | 3.4°C | 81.3% | 677.5hPa | 2.6V | 00:00:00 | 00:00:00 | 00:00:00 | |
| DO2LYB-13 | 2026-09-04 05:50:44 | 52.47132 | 9.59340 | 96° | 110km/h | 3394m | -14.3m/s | 3.3°C | 81.8% | 676.1hPa | 2.6V | 00:00:00 | 00:00:00 | 00:00:00 | |
| DL1XH1-15 | 2026-09-04 05:50:43 | 52.47137 | 9.59250 | 94° | 110km/h | 3422m | -14.5m/s | 3°C | 83.9% | 673.8hPa | 2.6V | 08:08:53 | 02:19:31 | 00:00:00 | |
| DM0DOS-11 | 2026-09-04 05:50:43 | 52.47151 | 9.59023 | 95° | 110km/h | 3491m | -13.7m/s | 2.6°C | 85.5% | 668.1hPa | 2.6V | 08:08:58 | 02:19:26 | 00:00:00 | |
| DL1XH-west | 2026-09-04 05:50:42 | 52.47140 | 9.59205 | 95° | 111km/h | 3437m | -14.1m/s | 2.9°C | 89.3% | 672.7hPa | 2.6V | 08:09:00 | 02:19:30 | 00:00:00 | |
| BIOWL1-15 | 2026-09-04 05:50:41 | 52.47148 | 9.59068 | 95° | 110km/h | 3478m | -13.8m/s | 2.6°C | 90.8% | 669.4hPa | 2.6V | 08:09:00 | 02:19:27 | 00:00:00 | |
| DB0DAN | 2026-09-04 05:50:40 | 52.47145 | 9.59114 | 95° | 104km/h | 3464m | -13.4m/s | 2.7°C | 84.2% | 670.39hPa | 2.5V | 00:00:00 | 00:00:00 | 00:00:00 | |
| DF8AY | 2026-09-04 05:50:34 | 52.47165 | 9.58840 | 98° | 111km/h | 3546m | -13.6m/s | 2.5°C | 79.6% | 663.6hPa | 2.5V | 08:09:51 | 02:19:22 | 00:00:00 | |
| DL1XH1-15 | 2026-09-04 05:50:33 | 52.47169 | 9.58793 | 97° | 113km/h | 3559m | -13.5m/s | 2.4°C | 74% | 662.5hPa | 2.6V | 08:09:03 | 02:19:21 | 00:00:00 | |
| DL1XH-west | 2026-09-04 05:50:31 | 52.47177 | 9.58700 | 98° | 111km/h | 3586m | -13m/s | 2.4°C | 78.5% | 660.3hPa | 2.6V | 08:09:51 | 02:19:19 | 00:00:00 | |
| BIOWL1-15 | 2026-09-04 05:50:28 | 52.47207 | 9.58372 | 98° | 115km/h | 3680m | -14m/s | 1.9°C | 71.8% | 652.6hPa | 2.5V | 08:09:51 | 02:19:12 | 00:00:00 | |
| DM0DOS-11 | 2026-09-04 05:50:28 | 52.47190 | 9.58560 | 97° | 115km/h | 3625m | -13.3m/s | 2.2°C | 68.3% | 657.1hPa | 2.6V | 08:09:08 | 02:19:16 | 00:00:00 | |
| DB0DAN | 2026-09-04 05:50:25 | 52.47203 | 9.58419 | 98° | 108km/h | 3666m | -13.9m/s | 2°C | 63.3% | 653.76hPa | 2.6V | 00:00:00 | 00:00:00 | 00:00:00 | |
| DF8AY | 2026-09-04 05:50:23 | 52.47211 | 9.58325 | 98° | 113km/h | 3694m | -14.3m/s | 1.8°C | 71.3% | 651.5hPa | 2.5V | 08:09:51 | 02:19:11 | 00:00:00 | |
| DL1XH1-15 | 2026-09-04 05:50:23 | 52.47211 | 9.58325 | 98° | 113km/h | 3694m | -14.3m/s | 1.8°C | 64.8% | 651.5hPa | 2.5V | 08:09:13 | 02:19:11 | 00:00:00 | |
| DL1XH-west | 2026-09-04 05:50:20 | 52.47224 | 9.58182 | 98° | 115km/h | 3736m | -14m/s | 1.6°C | 66.4% | 648hPa | 2.6V | 08:09:51 | 02:19:08 | 00:00:00 | |
| DM0DOS-11 | 2026-09-04 05:50:18 | 52.47252 | 9.57841 | 96° | 120km/h | 3833m | -14m/s | 1°C | 63.9% | 640.3hPa | 2.5V | 08:09:23 | 02:19:01 | 00:00:00 | |
| DF8AY | 2026-09-04 05:50:13 | 52.47252 | 9.57841 | 96° | 120km/h | 3834m | -14m/s | 1°C | 70.1% | 640.3hPa | 2.5V | 08:09:51 | 02:19:01 | 00:00:00 | |
| DB0DAN | 2026-09-04 05:50:10 | 52.47261 | 9.57691 | 96° | 115km/h | 3874m | -13.5m/s | 0.7°C | 61.8% | 636.98hPa | 2.6V | 00:00:00 | 00:00:00 | 00:00:00 | |
| DL1XH-west | 2026-09-04 05:50:10 | 52.47261 | 9.57691 | 96° | 120km/h | 3874m | -13.5m/s | 0.7°C | 68.9% | 637hPa | 2.6V | 08:09:51 | 02:18:58 | 00:00:00 | |
| DF8AY | 2026-09-04 05:50:07 | 52.47292 | 9.57294 | 98° | 124km/h | 3982m | -14.2m/s | 0.3°C | 45.2% | 628.6hPa | 2.5V | 08:09:51 | 02:18:50 | 00:00:00 | |
| BIOWL1-15 | 2026-09-04 05:50:06 | 52.47275 | 9.57493 | 97° | 119km/h | 3927m | -13.6m/s | 0.4°C | 73.7% | 632.8hPa | 2.6V | 08:09:51 | 02:18:54 | 00:00:00 | |
| DD8BA-10 | 2026-09-04 05:50:06 | 52.47275 | 9.57493 | 98° | 124km/h | 3927m | -13.5m/s | 0.4°C | 67.4% | 632.8hPa | 2.6V | 00:00:00 | 00:00:00 | 00:00:00 | |
| SONCRA | 2026-09-04 05:50:05 | 52.47279 | 9.57444 | 97° | 120km/h | 3940m | -13.9m/s | 0.3°C | 63.9% | 631.8hPa | 2.5V | 00:00:00 | 00:00:00 | 00:00:00 | |
| DM0DOS-11 | 2026-09-04 05:50:04 | 52.47288 | 9.57344 | 98° | 122km/h | 3968m | -14.2m/s | 0.3°C | 51.1% | 629.6hPa | 2.5V | 08:09:33 | 02:18:51 | 00:00:00 | |
| DL1XH-west | 2026-09-04 05:49:59 | 52.47304 | 9.57140 | 97° | 126km/h | 4023m | -13.6m/s | 0.2°C | 45.5% | 625.4hPa | 2.6V | 08:09:51 | 02:18:47 | 00:00:00 | |
| DL1XH1-15 | 2026-09-04 05:49:58 | 52.47327 | 9.56837 | 98° | 122km/h | 4102m | -13.9m/s | -0.3°C | 34.3% | 619.1hPa | 2.5V | 08:09:43 | 02:18:41 | 00:00:00 | |
| BIOWL1-15 | 2026-09-04 05:49:56 | 52.47315 | 9.56987 | 97° | 122km/h | 4062m | -13m/s | 0°C | 35.2% | 622.3hPa | 2.6V | 08:09:51 | 02:18:44 | 00:00:00 | |
| DB0DAN | 2026-09-04 05:49:55 | 52.47319 | 9.56937 | 98° | 115km/h | 4075m | -13.5m/s | -0.1°C | 28.2% | 621.2hPa | 2.6V | 00:00:00 | 00:00:00 | 00:00:00 | |
| AA1-15 | 2026-09-04 05:49:53 | 52.47327 | 9.56837 | 99° | 122km/h | 4102m | -13.9m/s | -0.3°C | 40.7% | 619.2hPa | 2.5V | 08:09:51 | 02:18:41 | 00:00:00 | |
| DF8AY | 2026-09-04 05:49:52 | 52.47332 | 9.56787 | 100° | 124km/h | 4116m | -14.2m/s | -0.4°C | 41.5% | 618.2hPa | 2.5V | 08:09:51 | 02:18:40 | 00:00:00 | |
| DL1XH-west | 2026-09-04 05:49:48 | 52.47351 | 9.56585 | 99° | 120km/h | 4172m | -13.2m/s | -0.9°C | 33.7% | 613.6hPa | 2.5V | 08:09:51 | 02:18:36 | 00:00:00 | |
| BIOWL1-15 | 2026-09-04 05:49:48 | 52.47361 | 9.56486 | 99° | 122km/h | 4199m | -14m/s | -1°C | 24.4% | 611.7hPa | 2.6V | 08:09:51 | 02:18:34 | 00:00:00 | |
| AA1-15 | 2026-09-04 05:49:42 | 52.47379 | 9.56285 | 98° | 122km/h | 4253m | -13.9m/s | -1.2°C | 23.5% | 607.6hPa | 2.5V | 08:10:42 | 02:18:30 | 00:00:00 | |
| DF8AY | 2026-09-04 05:49:41 | 52.47383 | 9.56235 | 98° | 122km/h | 4266m | -14.2m/s | -1.3°C | 23.6% | 606.5hPa | 2.6V | 08:10:42 | 02:18:29 | 00:00:00 | |
| DB0DAN | 2026-09-04 05:49:40 | 52.47388 | 9.56185 | 98° | 117km/h | 4280m | -13.9m/s | -1.4°C | 19.2% | 605.48hPa | 2.6V | 00:00:00 | 00:00:00 | 00:00:00 | |
| BIOWL9-15 | 2026-09-04 05:49:40 | 52.47388 | 9.56185 | 98° | 120km/h | 4280m | -13.9m/s | -1.4°C | 19.2% | 605.5hPa | 2.5V | 00:00:00 | 00:00:00 | 00:00:00 | |
| DL1XH1-15 | 2026-09-04 05:49:38 | 52.47396 | 9.56086 | 98° | 120km/h | 4307m | -13.7m/s | -1.7°C | 19.8% | 603.5hPa | 2.5V | 08:09:58 | 02:18:26 | 00:00:00 | |
| DL1XH1-15 | 2026-09-04 05:49:38 | 52.47420 | 9.55845 | 99° | 117km/h | 4373m | -13.5m/s | -2.3°C | 20.5% | 598.3hPa | 2.5V | 08:10:03 | 02:18:21 | 00:00:00 | |
| DL1XH-west | 2026-09-04 05:49:38 | 52.47397 | 9.56086 | 98° | 120km/h | 4307m | -13.7m/s | -1.7°C | 24% | 603.5hPa | 2.5V | 08:10:42 | 02:18:26 | 00:00:00 | |
| BIOWL1-15 | 2026-09-04 05:49:35 | 52.47410 | 9.55940 | 99° | 117km/h | 4346m | -13.3m/s | -2°C | 24.4% | 600.4hPa | 2.6V | 08:10:42 | 02:18:23 | 00:00:00 | |
| AA1-15 | 2026-09-04 05:49:32 | 52.47425 | 9.55798 | 100° | 117km/h | 4386m | -14m/s | -2.4°C | 25.1% | 597.3hPa | 2.5V | 08:10:42 | 02:18:20 | 00:00:00 | |
| DF8AY | 2026-09-04 05:49:31 | 52.47431 | 9.55750 | 100° | 119km/h | 4400m | -14.4m/s | -2.6°C | 25.3% | 596.4hPa | 2.6V | 08:10:42 | 02:18:19 | 00:00:00 | |
| DJ2DS-15 | 2026-09-04 05:49:31 | 52.47436 | 9.55701 | 99° | 119km/h | 4414m | -14.5m/s | -2.7°C | 20.6% | 595.2hPa | 2.5V | 00:00:00 | 00:00:00 | 00:00:00 | |
| DL1XH1-15 | 2026-09-04 05:49:28 | 52.47447 | 9.55604 | 100° | 119km/h | 4443m | -13.6m/s | -2.9°C | 21.8% | 593.4hPa | 2.5V | 08:10:08 | 02:18:16 | 00:00:00 | |
| DL1XH1-15 | 2026-09-04 05:49:28 | 52.47477 | 9.55366 | 102° | 115km/h | 4510m | -13.6m/s | -3.5°C | 28.2% | 588.2hPa | 2.6V | 08:10:13 | 02:18:11 | 00:00:00 | |
| DL1XH-west | 2026-09-04 05:49:27 | 52.47453 | 9.55556 | 101° | 119km/h | 4456m | -13.6m/s | -3°C | 27.9% | 592.2hPa | 2.5V | 08:10:42 | 02:18:15 | 00:00:00 | |
| SMARD9-10 | 2026-09-04 05:49:26 | 52.47453 | 9.55556 | 102° | 119km/h | 4456m | -13.6m/s | -3.0°C | 22.5% | 592.2hPa | 2.6V | 08:10:00 | 00:00:00 | 00:00:00 | |
| DB0DAN | 2026-09-04 05:49:25 | 52.47464 | 9.55460 | 101° | 113km/h | 4483m | -13m/s | -3.3°C | 22.9% | 590.13hPa | 2.6V | 00:00:00 | 00:00:00 | 00:00:00 | |
| BIOWL1-15 | 2026-09-04 05:49:24 | 52.47470 | 9.55412 | 102° | 115km/h | 4496m | -13.3m/s | -3.4°C | 29.5% | 589.2hPa | 2.6V | 08:10:42 | 02:18:12 | 00:00:00 | |
| DL1XH1-15 | 2026-09-04 05:49:23 | 52.47509 | 9.55130 | 103° | 120km/h | 4578m | -14m/s | -4.2°C | 40.1% | 583.2hPa | 2.6V | 08:10:18 | 02:18:06 | 00:00:00 | |
| AA1-15 | 2026-09-04 05:49:21 | 52.47489 | 9.55272 | 103° | 117km/h | 4536m | -14.1m/s | -3.8°C | 36.8% | 586.2hPa | 2.5V | 08:10:42 | 02:18:09 | 00:00:00 | |
| DF8AY | 2026-09-04 05:49:20 | 52.47496 | 9.55226 | 103° | 119km/h | 4550m | -14m/s | -3.9°C | 40.5% | 585.2hPa | 2.5V | 08:10:42 | 02:18:08 | 00:00:00 | |
| BIOWL1-15 | 2026-09-04 05:49:16 | 52.47535 | 9.54934 | 101° | 122km/h | 4634m | -14.1m/s | -4.7°C | 55.2% | 579hPa | 2.6V | 08:10:42 | 02:18:02 | 00:00:00 | |
| DL1XH-west | 2026-09-04 05:49:16 | 52.47523 | 9.55033 | 102° | 122km/h | 4607m | -14.9m/s | -4.4°C | 51.5% | 581.1hPa | 2.5V | 08:10:42 | 02:18:04 | 00:00:00 | |
| DL1XH1-15 | 2026-09-04 05:49:13 | 52.47541 | 9.54884 | 100° | 122km/h | 4648m | -13.3m/s | -4.8°C | 49.9% | 577.9hPa | 2.6V | 08:10:23 | 02:18:01 | 00:00:00 | |
| DM0DOS-11 | 2026-09-04 05:49:13 | 52.47570 | 9.54637 | 101° | 120km/h | 4716m | -13.6m/s | -5.4°C | 61.7% | 573.1hPa | 2.5V | 08:10:28 | 02:17:56 | 00:00:00 | |
| DF8AY-15 | 2026-09-04 05:49:12 | 52.47547 | 9.54834 | 101° | 122km/h | 4662m | -13.7m/s | -4.9°C | 51.3% | 577.0hPa | 2.5V | 00:00:00 | 02:18:00 | 00:00:00 | |
| DD1CC3-15 | 2026-09-04 05:49:11 | 52.47547 | 9.54834 | 102° | 122km/h | 4662m | -13.7m/s | -4.9°C | 50.2% | 577.1hPa | 2.5V | 08:10:00 | 00:00:00 | 00:00:00 | |
| DB0DAN | 2026-09-04 05:49:10 | 52.47559 | 9.54735 | 101° | 115km/h | 4689m | -14.1m/s | -5.1°C | 55% | 575.1hPa | 2.5V | 00:00:00 | 00:00:00 | 00:00:00 | |
| AA1-15 | 2026-09-04 05:49:10 | 52.47559 | 9.54735 | 101° | 120km/h | 4689m | -14.1m/s | -5.1°C | 62.4% | 575.1hPa | 2.5V | 08:10:42 | 02:17:58 | 00:00:00 | |
| DF8AY | 2026-09-04 05:49:09 | 52.47564 | 9.54686 | 101° | 120km/h | 4702m | -13.5m/s | -5.3°C | 64.5% | 574.1hPa | 2.5V | 08:10:42 | 02:17:57 | 00:00:00 | |
| DL1XH-west | 2026-09-04 05:49:06 | 52.47582 | 9.54539 | 102° | 122km/h | 4742m | -13.6m/s | -5.6°C | 71.7% | 571.1hPa | 2.6V | 08:10:42 | 02:17:54 | 00:00:00 | |
| BIOWL1-15 | 2026-09-04 05:49:03 | 52.47601 | 9.54389 | 102° | 124km/h | 4783m | -14.1m/s | -5.8°C | 75.1% | 568.4hPa | 2.5V | 08:10:42 | 02:17:51 | 00:00:00 | |
| DL1XH1-15 | 2026-09-04 05:49:03 | 52.47630 | 9.54138 | 99° | 120km/h | 4851m | -13.3m/s | -6.2°C | 64.5% | 563.2hPa | 2.6V | 08:10:38 | 02:17:46 | 00:00:00 | |
| AA1-15 | 2026-09-04 05:49:00 | 52.47619 | 9.54237 | 100° | 122km/h | 4824m | -13.4m/s | -6.1°C | 78.1% | 565.2hPa | 2.6V | 08:10:42 | 02:17:48 | 00:00:00 | |
| DF8AY | 2026-09-04 05:48:58 | 52.47630 | 9.54138 | 100° | 120km/h | 4851m | -13.3m/s | -6.2°C | 70.5% | 563.2hPa | 2.6V | 08:10:42 | 02:17:46 | 00:00:00 | |
| DL1XH-west | 2026-09-04 05:48:56 | 52.47640 | 9.54039 | 100° | 122km/h | 4878m | -14.5m/s | -6.1°C | 60.8% | 561.4hPa | 2.5V | 08:10:42 | 02:17:44 | 00:00:00 | |
| DL3AQ-11 | 2026-09-04 05:48:56 | 52.47646 | 9.53989 | 99° | 122km/h | 4892m | -14.3m/s | -6.2°C | 53.8% | 560.3hPa | 2.5V | 00:00:00 | 00:00:00 | 00:00:00 | |
| DB0DAN | 2026-09-04 05:48:55 | 52.47646 | 9.53989 | 100° | 117km/h | 4892m | -14.3m/s | -6.2°C | 53.8% | 560.27hPa | 2.5V | 00:00:00 | 00:00:00 | 00:00:00 | |
| DL1XH1-15 | 2026-09-04 05:48:53 | 52.47655 | 9.53887 | 98° | 126km/h | 4920m | -14.6m/s | -6.5°C | 56.6% | 558.4hPa | 2.6V | 08:10:43 | 02:17:41 | 00:00:00 | |
| DL1XH1-15 | 2026-09-04 05:48:53 | 52.47680 | 9.53633 | 99° | 124km/h | 4990m | -13.7m/s | -7°C | 86.6% | 553.3hPa | 2.5V | 08:10:48 | 02:17:36 | 00:00:00 | |
| BIOWL1-15 | 2026-09-04 05:48:53 | 52.47655 | 9.53887 | 98° | 126km/h | 4920m | -14.6m/s | -6.5°C | 63.4% | 558.4hPa | 2.6V | 08:11:33 | 02:17:41 | 00:00:00 | |
| AA1-15 | 2026-09-04 05:48:49 | 52.47674 | 9.53684 | 99° | 124km/h | 4977m | -14m/s | -6.9°C | 88.8% | 554.2hPa | 2.5V | 08:11:33 | 02:17:37 | 00:00:00 | |
| DF8AY | 2026-09-04 05:48:47 | 52.47685 | 9.53582 | 100° | 128km/h | 5005m | -14.4m/s | -7.1°C | 90.4% | 552.4hPa | 2.5V | 08:11:33 | 02:17:35 | 00:00:00 | |
| DL1XH1-15 | 2026-09-04 05:48:46 | 52.47716 | 9.53265 | 97° | 130km/h | 5088m | -13.5m/s | -7.7°C | 78% | 546.5hPa | 2.5V | 08:10:55 | 02:17:29 | 00:00:00 | |
| DL1XH-west | 2026-09-04 05:48:45 | 52.47696 | 9.53477 | 99° | 130km/h | 5033m | -14.3m/s | -7.4°C | 91.4% | 550.4hPa | 2.6V | 08:11:33 | 02:17:33 | 00:00:00 | |
| BIOWL1-15 | 2026-09-04 05:48:43 | 52.47707 | 9.53371 | 99° | 130km/h | 5061m | -14.1m/s | -7.6°C | 87.5% | 548.3hPa | 2.6V | 08:11:33 | 02:17:31 | 00:00:00 | |
| DL4XJ-10 | 2026-09-04 05:48:43 | 52.47707 | 9.53371 | 99° | 130km/h | 5061m | -14.0m/s | -8.6°C | 0% | 0hPa | 2.5V | 00:00:00 | 00:00:00 | 00:00:00 | |
| DB0NH | 2026-09-04 05:48:42 | 52.47711 | 9.53318 | 98° | 130km/h | 5075m | -13.8m/s | -7.6°C | 77.6% | 547.3hPa | 2.5V | 00:00:00 | 02:17:30 | 00:00:00 | |
| DB0DAN | 2026-09-04 05:48:40 | 52.47720 | 9.53212 | 98° | 122km/h | 5102m | -13.7m/s | -7.8°C | 76.6% | 545.53hPa | 2.5V | 00:00:00 | 00:00:00 | 00:00:00 | |
| AA1-15 | 2026-09-04 05:48:39 | 52.47725 | 9.53159 | 98° | 130km/h | 5115m | -13.7m/s | -7.9°C | 82.8% | 544.6hPa | 2.6V | 08:11:33 | 02:17:27 | 00:00:00 | |
| DF8AY | 2026-09-04 05:48:36 | 52.47737 | 9.52998 | 97° | 131km/h | 5157m | -14.3m/s | -8.2°C | 84.2% | 541.8hPa | 2.5V | 08:11:33 | 02:17:24 | 00:00:00 | |
| DD8BA-10 | 2026-09-04 05:48:36 | 52.47737 | 9.52997 | 97° | 130km/h | 5157m | -14.2m/s | -8.1°C | 78.0% | 541.7hPa | 2.5V | 00:00:00 | 00:00:00 | 00:00:00 | |
| DM0DOS-11 | 2026-09-04 05:48:34 | 52.47751 | 9.52782 | 96° | 128km/h | 5214m | -14.8m/s | -8.4°C | 69.6% | 537.8hPa | 2.6V | 08:11:04 | 02:17:20 | 00:00:00 | |
| DL1XH-west | 2026-09-04 05:48:34 | 52.47744 | 9.52889 | 96° | 131km/h | 5185m | -14.2m/s | -8.4°C | 86.4% | 539.8hPa | 2.6V | 08:11:33 | 02:17:22 | 00:00:00 | |
| BIOWL1-15 | 2026-09-04 05:48:32 | 52.47760 | 9.52623 | 96° | 130km/h | 5256m | -14.7m/s | -8.7°C | 77.5% | 534.8hPa | 2.5V | 08:11:33 | 02:17:17 | 00:00:00 | |
| AA1-15 | 2026-09-04 05:48:28 | 52.47764 | 9.52569 | 96° | 130km/h | 5271m | -14.3m/s | -8.8°C | 77.3% | 533.9hPa | 2.6V | 08:11:33 | 02:17:16 | 00:00:00 | |
| DF8AY | 2026-09-04 05:48:26 | 52.47770 | 9.52463 | 95° | 128km/h | 5299m | -13.9m/s | -9°C | 77.7% | 532hPa | 2.6V | 08:11:33 | 02:17:14 | 00:00:00 | |
| DB0DAN | 2026-09-04 05:48:25 | 52.47773 | 9.52410 | 95° | 122km/h | 5312m | -13.8m/s | -9.1°C | 70.1% | 531.01hPa | 2.6V | 00:00:00 | 00:00:00 | 00:00:00 | |
| DM0DOS-11 | 2026-09-04 05:48:24 | 52.47781 | 9.52252 | 96° | 130km/h | 5353m | -13.9m/s | -9.4°C | 81% | 528.2hPa | 2.5V | 08:11:14 | 02:17:10 | 00:00:00 | |
| DL1XH-west | 2026-09-04 05:48:23 | 52.47778 | 9.52305 | 96° | 126km/h | 5340m | -13.7m/s | -9.3°C | 84.7% | 529hPa | 2.5V | 08:11:33 | 02:17:11 | 00:00:00 | |
| BIOWL1-15 | 2026-09-04 05:48:20 | 52.47793 | 9.52039 | 95° | 128km/h | 5410m | -14.1m/s | -10°C | 88.2% | 524.3hPa | 2.5V | 08:11:33 | 02:17:06 | 00:00:00 | |
| DF8AY-15 | 2026-09-04 05:48:20 | 52.47788 | 9.52145 | 96° | 128km/h | 5381m | -13.9m/s | -9.7°C | 81.2% | 526.2hPa | 2.5V | 00:00:00 | 02:17:08 | 00:00:00 | |
| DJ2DS-15 | 2026-09-04 05:48:18 | 52.47793 | 9.52039 | 94° | 128km/h | 5410m | -14.1m/s | -10.0°C | 81.3% | 524.3hPa | 2.5V | 00:00:00 | 00:00:00 | 00:00:00 | |
| DD1CC3-15 | 2026-09-04 05:48:17 | 52.47793 | 9.52038 | 96° | 128km/h | 5410m | -14.1m/s | -10.0°C | 81.3% | 524.3hPa | 2.5V | 08:11:00 | 00:00:00 | 00:00:00 | |
| DL1XH1-15 | 2026-09-04 05:48:16 | 52.47819 | 9.51670 | 95° | 130km/h | 5507m | -13.6m/s | -10.8°C | 88.4% | 517.8hPa | 2.5V | 08:11:25 | 02:16:59 | 00:00:00 | |
| DF8AY | 2026-09-04 05:48:15 | 52.47803 | 9.51882 | 97° | 128km/h | 5452m | -14.1m/s | -10.3°C | 90.5% | 521.5hPa | 2.6V | 08:11:33 | 02:17:03 | 00:00:00 | |
| DM0DOS-11 | 2026-09-04 05:48:14 | 52.47815 | 9.51724 | 95° | 130km/h | 5493m | -14.4m/s | -10.7°C | 88.6% | 518.8hPa | 2.5V | 08:11:24 | 02:17:00 | 00:00:00 | |
| AA1-15 | 2026-09-04 05:48:14 | 52.47807 | 9.51829 | 97° | 130km/h | 5466m | -14.2m/s | -10.5°C | 90.8% | 520.5hPa | 2.6V | 08:11:33 | 02:17:02 | 00:00:00 | |
| DL1XH-west | 2026-09-04 05:48:13 | 52.47811 | 9.51777 | 97° | 130km/h | 5479m | -13.8m/s | -10.6°C | 91.7% | 519.6hPa | 2.5V | 08:11:33 | 02:17:01 | 00:00:00 | |
| DB0NH | 2026-09-04 05:48:12 | 52.47815 | 9.51723 | 96° | 126km/h | 5493m | -14.3m/s | -10.7°C | 88.6% | 518.7hPa | 2.6V | 00:00:00 | 02:17:00 | 00:00:00 | |
| DL1CLM-18 | 2026-09-04 05:48:11 | 52.47815 | 9.51723 | 97° | 130km/h | 5493m | -14.4m/s | -10.7°C | 86.5% | 518.8hPa | 2.6V | 08:11:00 | 00:00:00 | 00:00:00 | |
| DB0DAN | 2026-09-04 05:48:10 | 52.47822 | 9.51618 | 96° | 120km/h | 5521m | -13.7m/s | -11°C | 84.5% | 516.92hPa | 2.6V | 00:00:00 | 00:00:00 | 00:00:00 | |
| BIOWL1-15 | 2026-09-04 05:48:09 | 52.47834 | 9.51461 | 96° | 131km/h | 5564m | -14.6m/s | -11.3°C | 91.4% | 514.1hPa | 2.5V | 08:11:33 | 02:16:55 | 00:00:00 | |
| DL4BBY-15 | 2026-09-04 05:48:08 | 52.47830 | 9.51514 | 97° | 124km/h | 5549m | -14.7m/s | -12.2°C | 0% | 0hPa | 2.5V | 00:00:00 | 00:00:00 | 00:00:00 | |
| BIOWL9-15 | 2026-09-04 05:48:07 | 52.47837 | 9.51407 | 96° | 130km/h | 5578m | -13.9m/s | -11.5°C | 88.7% | 513.1hPa | 2.5V | 00:00:00 | 00:00:00 | 00:00:00 | |
| DL1XH1-15 | 2026-09-04 05:48:06 | 52.47856 | 9.51144 | 97° | 128km/h | 5642m | -13.2m/s | -12°C | 96.6% | 508.6hPa | 2.5V | 08:11:35 | 02:16:49 | 00:00:00 | |
| DF8AY | 2026-09-04 05:48:05 | 52.47841 | 9.51354 | 96° | 130km/h | 5591m | -13.3m/s | -11.6°C | 91.7% | 512.2hPa | 2.6V | 08:11:33 | 02:16:53 | 00:00:00 | |
| AA1-15 | 2026-09-04 05:48:03 | 52.47848 | 9.51248 | 96° | 128km/h | 5617m | -12.9m/s | -11.9°C | 91.7% | 510.3hPa | 2.6V | 08:11:33 | 02:16:51 | 00:00:00 | |
| DL1XH-west | 2026-09-04 05:48:02 | 52.47851 | 9.51196 | 97° | 126km/h | 5630m | -12.5m/s | -12°C | 92.8% | 509.6hPa | 2.5V | 08:12:24 | 02:16:50 | 00:00:00 | |
| BIOWL1-15 | 2026-09-04 05:47:59 | 52.47872 | 9.50935 | 97° | 124km/h | 5694m | -12.9m/s | -12.3°C | 92.2% | 505.2hPa | 2.6V | 08:12:24 | 02:16:45 | 00:00:00 | |
| HTAHTA | 2026-09-04 05:47:58 | 52.47868 | 9.50986 | 97° | 124km/h | 5681m | -13.1m/s | -12.2°C | 93.4% | 506.1hPa | 2.5V | 00:00:00 | 00:00:00 | 00:00:00 | |
| DL1LOL-11 | 2026-09-04 05:47:57 | 52.47868 | 9.50986 | 98° | 124km/h | 5681m | -13.1m/s | -12.2°C | 93.4% | 506.1hPa | 2.5V | 00:00:00 | 00:00:00 | 00:00:00 | |
| DL1XH1-15 | 2026-09-04 05:47:56 | 52.47893 | 9.50624 | 95° | 122km/h | 5770m | -12.7m/s | -12.7°C | 84.6% | 500.2hPa | 2.5V | 08:11:45 | 02:16:39 | 00:00:00 | |
| EDDB2-11 | 2026-09-04 05:47:56 | 52.47880 | 9.50831 | 96° | 126km/h | 5720m | -13.3m/s | -12.5°C | 93.4% | 503.6hPa | 2.5V | 00:00:00 | 00:00:00 | 00:00:00 | |
| DB0DAN | 2026-09-04 05:47:55 | 52.47880 | 9.50831 | 97° | 122km/h | 5720m | -13.3m/s | -12.5°C | 93.4% | 503.56hPa | 2.5V | 00:00:00 | 00:00:00 | 00:00:00 | |
| DF8AY | 2026-09-04 05:47:54 | 52.47900 | 9.50524 | 96° | 122km/h | 5795m | -13.4m/s | -12.5°C | 63% | 498.5hPa | 2.5V | 08:12:24 | 02:16:37 | 00:00:00 | |
| AA1-15 | 2026-09-04 05:47:54 | 52.47887 | 9.50727 | 96° | 126km/h | 5745m | -12.5m/s | -12.7°C | 90.7% | 501.8hPa | 2.6V | 08:12:24 | 02:16:41 | 00:00:00 | |
| DL1XH-west | 2026-09-04 05:47:51 | 52.47893 | 9.50624 | 96° | 122km/h | 5770m | -12.7m/s | -12.7°C | 82.6% | 500.2hPa | 2.5V | 08:12:24 | 02:16:39 | 00:00:00 | |
| DJ2DS-15 | 2026-09-04 05:47:50 | 52.47896 | 9.50574 | 96° | 119km/h | 5782m | -12.5m/s | -12.6°C | 76.8% | 499.2hPa | 2.5V | 08:11:00 | 02:16:38 | 00:00:00 | |
| DL1XH-15 | 2026-09-04 05:47:48 | 52.47915 | 9.50226 | 94° | 120km/h | 5872m | -13.6m/s | -12°C | 20.7% | 493.5hPa | 2.6V | 08:11:53 | 02:16:31 | 00:00:00 | |
| BIOWL1-15 | 2026-09-04 05:47:46 | 52.47908 | 9.50372 | 94° | 119km/h | 5834m | -12.9m/s | -12.5°C | 49.7% | 496hPa | 2.6V | 08:12:24 | 02:16:34 | 00:00:00 | |
| DL1XH1-15 | 2026-09-04 05:47:46 | 52.47918 | 9.50128 | 93° | 119km/h | 5898m | -13m/s | -12°C | 18.1% | 491.8hPa | 2.5V | 08:11:55 | 02:16:29 | 00:00:00 | |
| DF8AY | 2026-09-04 05:47:44 | 52.47912 | 9.50275 | 95° | 119km/h | 5859m | -13.7m/s | -12.1°C | 27.2% | 494.2hPa | 2.5V | 08:12:24 | 02:16:32 | 00:00:00 | |
| AA1-15 | 2026-09-04 05:47:42 | 52.47916 | 9.50176 | 93° | 120km/h | 5885m | -12.9m/s | -12°C | 22.2% | 492.6hPa | 2.6V | 08:12:24 | 02:16:30 | 00:00:00 | |
| DB0NH | 2026-09-04 05:47:42 | 52.47916 | 9.50176 | 94° | 120km/h | 5886m | -12.9m/s | -12.0°C | 19.3% | 492.5hPa | 2.6V | 08:11:00 | 02:16:30 | 00:00:00 | |
| DL8OAI-8 | 2026-09-04 05:47:41 | 52.47916 | 9.50177 | 94° | 120km/h | 5886m | -12.9m/s | -12.0°C | 18.6% | 492.6hPa | 2.5V | 08:12:00 | 00:00:00 | 00:00:00 | |
| DB0DAN | 2026-09-04 05:47:40 | 52.47920 | 9.50079 | 95° | 113km/h | 5911m | -13.5m/s | -11.8°C | 13.6% | 490.89hPa | 2.5V | 00:00:00 | 00:00:00 | 00:00:00 | |
| DL1XH-west | 2026-09-04 05:47:40 | 52.47920 | 9.50079 | 95° | 119km/h | 5911m | -13.5m/s | -11.8°C | 16.4% | 490.9hPa | 2.5V | 08:12:24 | 02:16:28 | 00:00:00 | |
| DF8AY-15 | 2026-09-04 05:47:40 | 52.47920 | 9.50079 | 95° | 119km/h | 5911m | -13.4m/s | -11.8°C | 14.2% | 490.8hPa | 2.5V | 00:00:00 | 02:16:28 | 00:00:00 | |
| SONDE2-11 | 2026-09-04 05:47:39 | 52.47925 | 9.49981 | 93° | 117km/h | 5937m | -13.1m/s | -12.0°C | 12.8% | 489.4hPa | 2.6V | 00:00:00 | 00:00:00 | 00:00:00 | |
| DL4BBY-15 | 2026-09-04 05:47:38 | 52.47925 | 9.49981 | 94° | 122km/h | 5937m | -13.1m/s | -12.9°C | 0% | 0hPa | 2.6V | 00:00:00 | 00:00:00 | 00:00:00 | |
| BIOWL7-15 | 2026-09-04 05:47:37 | 52.47925 | 9.49981 | 95° | 119km/h | 5937m | -13.1m/s | -12.0°C | 12.8% | 489.4hPa | 2.6V | 08:12:00 | 00:00:00 | 00:00:00 | |
| DL1XH1-15 | 2026-09-04 05:47:36 | 52.47943 | 9.49646 | 96° | 115km/h | 6026m | -13.4m/s | -12.3°C | 9.9% | 483.6hPa | 2.6V | 08:12:05 | 02:16:19 | 00:00:00 | |
| BIOWL1-15 | 2026-09-04 05:47:36 | 52.47929 | 9.49886 | 95° | 115km/h | 5962m | -12.7m/s | -12°C | 12.7% | 487.5hPa | 2.5V | 08:12:24 | 02:16:24 | 00:00:00 | |
| DF8AY | 2026-09-04 05:47:34 | 52.47935 | 9.49790 | 96° | 119km/h | 5987m | -13.6m/s | -12.1°C | 11.2% | 486hPa | 2.5V | 08:12:24 | 02:16:22 | 00:00:00 | |
| DM0DOS-11 | 2026-09-04 05:47:32 | 52.47940 | 9.49693 | 95° | 117km/h | 6013m | -13m/s | -12.2°C | 9.9% | 484.4hPa | 2.6V | 08:12:04 | 02:16:20 | 00:00:00 | |
| AA1-15 | 2026-09-04 05:47:31 | 52.47943 | 9.49646 | 96° | 115km/h | 6027m | -13.5m/s | -12.3°C | 10.9% | 483.6hPa | 2.6V | 08:12:24 | 02:16:19 | 00:00:00 | |
| DL1XH-west | 2026-09-04 05:47:29 | 52.47950 | 9.49549 | 97° | 119km/h | 6054m | -14m/s | -12.2°C | 17.3% | 481.9hPa | 2.5V | 08:12:24 | 02:16:17 | 00:00:00 | |
| DC6BW-12 | 2026-09-04 05:47:28 | 52.47950 | 9.49549 | 98° | 119km/h | 6054m | -14.0m/s | -12.2°C | 14.2% | 481.8hPa | 2.6V | 08:12:00 | 00:00:00 | 00:00:00 | |
| DM0DOS-11 | 2026-09-04 05:47:27 | 52.47972 | 9.49201 | 95° | 122km/h | 6151m | -14m/s | -12.8°C | 30% | 475.7hPa | 2.6V | 08:12:14 | 02:16:10 | 00:00:00 | |
| DL1XH1-15 | 2026-09-04 05:47:26 | 52.47976 | 9.49151 | 96° | 120km/h | 6165m | -14.3m/s | -13°C | 32.6% | 474.8hPa | 2.6V | 08:12:15 | 02:16:09 | 00:00:00 | |
| BIOWL1-15 | 2026-09-04 05:47:26 | 52.47960 | 9.49402 | 97° | 120km/h | 6094m | -14.2m/s | -12.3°C | 30.3% | 479.2hPa | 2.6V | 08:12:24 | 02:16:14 | 00:00:00 | |
| DB0DAN | 2026-09-04 05:47:25 | 52.47963 | 9.49352 | 97° | 117km/h | 6108m | -14.8m/s | -12.5°C | 23.3% | 478.45hPa | 2.6V | 00:00:00 | 00:00:00 | 00:00:00 | |
| DF8AY | 2026-09-04 05:47:24 | 52.47967 | 9.49302 | 96° | 122km/h | 6123m | -15m/s | -12.6°C | 29.5% | 477.5hPa | 2.5V | 08:12:24 | 02:16:12 | 00:00:00 | |
| AA1-15 | 2026-09-04 05:47:20 | 52.47979 | 9.49102 | 97° | 122km/h | 6180m | -14.8m/s | -13°C | 37.6% | 474hPa | 2.5V | 08:12:24 | 02:16:08 | 00:00:00 | |
| DL1XH-west | 2026-09-04 05:47:19 | 52.47983 | 9.49051 | 97° | 124km/h | 6194m | -15.1m/s | -13.1°C | 41.5% | 473hPa | 2.5V | 08:12:24 | 02:16:07 | 00:00:00 | |
| AM1SDL-15 | 2026-09-04 05:47:18 | 52.47987 | 9.49000 | 98° | 126km/h | 6209m | -14.2m/s | 0°C | 0% | 0hPa | 2.6V | 00:00:00 | 02:16:06 | 00:00:00 | |
| DL1XH-15 | 2026-09-04 05:47:17 | 52.48015 | 9.48687 | 99° | 130km/h | 6294m | -14.8m/s | -13.7°C | 56% | 466.9hPa | 2.6V | 08:12:24 | 02:16:00 | 00:00:00 | |
| DL1XH1-15 | 2026-09-04 05:47:16 | 52.48020 | 9.48633 | 99° | 131km/h | 6309m | -14.7m/s | -13.6°C | 64.2% | 466.2hPa | 2.6V | 08:12:25 | 02:15:59 | 00:00:00 | |
| BIOWL1-15 | 2026-09-04 05:47:15 | 52.48010 | 9.48740 | 99° | 130km/h | 6280m | -14.8m/s | -13.6°C | 57.6% | 467.8hPa | 2.5V | 08:12:24 | 02:16:01 | 00:00:00 | |
| D01LWL | 2026-09-04 05:47:15 | 52.48005 | 9.48793 | 98° | 128km/h | 6266m | -14.4m/s | -13.6°C | 42.7% | 468.6hPa | 2.6V | 00:00:00 | 00:00:00 | 00:00:00 | |
| EDDB2-12 | 2026-09-04 05:47:14 | 52.48005 | 9.48793 | 98° | 128km/h | 6266m | -14.4m/s | -13.6°C | 42.7% | 468.6hPa | 2.6V | 00:00:00 | 00:00:00 | 00:00:00 | |
| DF8AY | 2026-09-04 05:47:14 | 52.48005 | 9.48793 | 99° | 130km/h | 6266m | -14.4m/s | -13.6°C | 48.7% | 468.6hPa | 2.5V | 08:12:24 | 02:16:02 | 00:00:00 | |
| DB0NH | 2026-09-04 05:47:12 | 52.48015 | 9.48686 | 100° | 130km/h | 6295m | -14.7m/s | -13.6°C | 56.0% | 466.9hPa | 2.6V | 00:00:00 | 02:16:00 | 00:00:00 | |
| DK9SH | 2026-09-04 05:47:11 | 52.48015 | 9.48686 | 100° | 130km/h | 6295m | -14.8m/s | -13.7°C | 54.3% | 466.9hPa | 2.6V | 08:12:00 | 00:00:00 | 00:00:00 | |
| DB0DAN | 2026-09-04 05:47:10 | 52.48026 | 9.48579 | 100° | 124km/h | 6324m | -14.3m/s | -13.6°C | 55.2% | 465.1hPa | 2.6V | 00:00:00 | 00:00:00 | 00:00:00 | |
| AA1-15 | 2026-09-04 05:47:09 | 52.48031 | 9.48526 | 100° | 130km/h | 6338m | -14.2m/s | -13.4°C | 47.4% | 464.3hPa | 2.5V | 08:13:15 | 02:15:57 | 00:00:00 | |
| DL1XH-west | 2026-09-04 05:47:08 | 52.48037 | 9.48474 | 101° | 130km/h | 6353m | -14.5m/s | -13.4°C | 46.9% | 463.5hPa | 2.5V | 08:13:15 | 02:15:56 | 00:00:00 | |
| SONDE2-11 | 2026-09-04 05:47:08 | 52.48044 | 9.48421 | 101° | 130km/h | 6367m | -14.3m/s | -13.5°C | 41.6% | 462.6hPa | 2.5V | 00:00:00 | 00:00:00 | 00:00:00 | |
| DL1XH-15 | 2026-09-04 05:47:07 | 52.48074 | 9.48156 | 101° | 128km/h | 6438m | -14.3m/s | -14.1°C | 46.4% | 458.2hPa | 2.5V | 08:12:34 | 02:15:50 | 00:00:00 | |
| DL1XH1-15 | 2026-09-04 05:47:06 | 52.48081 | 9.48104 | 101° | 128km/h | 6452m | -15.1m/s | -14.2°C | 44.6% | 457.4hPa | 2.5V | 08:12:35 | 02:15:49 | 00:00:00 | |
| BIOWL1-15 | 2026-09-04 05:47:05 | 52.48074 | 9.48156 | 101° | 128km/h | 6438m | -14.3m/s | -14.1°C | 52.4% | 458.2hPa | 2.5V | 08:13:15 | 02:15:50 | 00:00:00 | |
| DF8AY | 2026-09-04 05:47:03 | 52.48068 | 9.48208 | 100° | 130km/h | 6424m | -14m/s | -14°C | 54.2% | 459.1hPa | 2.5V | 08:13:15 | 02:15:51 | 00:00:00 | |
| AA1-15 | 2026-09-04 05:46:59 | 52.48094 | 9.47999 | 101° | 131km/h | 6480m | -13.9m/s | -14.5°C | 55.3% | 455.7hPa | 2.6V | 08:13:15 | 02:15:47 | 00:00:00 | |
| DL1XH-west | 2026-09-04 05:46:58 | 52.48100 | 9.47946 | 101° | 130km/h | 6494m | -13.6m/s | -14.6°C | 58.3% | 454.9hPa | 2.6V | 08:13:15 | 02:15:46 | 00:00:00 | |
| GOEST3-10 | 2026-09-04 05:46:58 | 52.48100 | 9.47946 | 101° | 130km/h | 6494m | -13.6m/s | -14.6°C | 53.3% | 454.9hPa | 2.6V | 00:00:00 | 02:15:46 | 00:00:00 | |
| DM0DOS-11 | 2026-09-04 05:46:57 | 52.48137 | 9.47630 | 100° | 131km/h | 6575m | -13m/s | -15.3°C | 69.1% | 449.9hPa | 2.6V | 08:12:44 | 02:15:40 | 00:00:00 | |
| DO2JMG | 2026-09-04 05:46:57 | 52.48106 | 9.47894 | 100° | 128km/h | 6507m | -13.8m/s | -14.7°C | 62.8% | 454hPa | 2.5V | 08:14:57 | 02:15:45 | 00:00:00 | |
| DL1XH1-15 | 2026-09-04 05:46:56 | 52.48143 | 9.47577 | 100° | 130km/h | 6587m | -12.6m/s | -15.4°C | 70.7% | 449.2hPa | 2.5V | 08:12:45 | 02:15:39 | 00:00:00 | |
| DL3AQ-11 | 2026-09-04 05:46:56 | 52.48112 | 9.47841 | 100° | 126km/h | 6520m | -13.4m/s | -14.8°C | 59.8% | 453.2hPa | 2.5V | 00:00:00 | 00:00:00 | 00:00:00 | |
| DB0DAN | 2026-09-04 05:46:55 | 52.48119 | 9.47789 | 101° | 122km/h | 6534m | -13.9m/s | -14.9°C | 62.6% | 452.41hPa | 2.5V | 00:00:00 | 00:00:00 | 00:00:00 | |
| BIOWL1-15 | 2026-09-04 05:46:53 | 52.48137 | 9.47630 | 100° | 131km/h | 6575m | -13m/s | -15.3°C | 72.4% | 449.9hPa | 2.6V | 08:13:15 | 02:15:40 | 00:00:00 | |
| DF8AY | 2026-09-04 05:46:53 | 52.48131 | 9.47684 | 101° | 131km/h | 6561m | -13.9m/s | -15.2°C | 71.5% | 450.8hPa | 2.6V | 08:13:15 | 02:15:41 | 00:00:00 | |
| DL1XH-west | 2026-09-04 05:46:48 | 52.48163 | 9.47419 | 101° | 131km/h | 6626m | -12.6m/s | -15.6°C | 80.2% | 447hPa | 2.6V | 08:13:15 | 02:15:36 | 00:00:00 | |
| DL1XH-15 | 2026-09-04 05:46:47 | 52.48200 | 9.47103 | 101° | 128km/h | 6705m | -14m/s | -16.2°C | 82.1% | 442.3hPa | 2.6V | 08:12:54 | 02:15:30 | 00:00:00 | |
| DO2SHX-10 | 2026-09-04 05:46:47 | 52.48169 | 9.47366 | 101° | 130km/h | 6639m | -12.4m/s | -15.7°C | 79.3% | 446.2hPa | 2.6V | 00:00:00 | 02:15:35 | 00:00:00 | |
| DL1XH1-15 | 2026-09-04 05:46:46 | 52.48207 | 9.47052 | 102° | 130km/h | 6719m | -13.9m/s | -16.3°C | 82% | 441.5hPa | 2.6V | 08:12:55 | 02:15:29 | 00:00:00 | |
| BIOWL1-15 | 2026-09-04 05:46:43 | 52.48194 | 9.47155 | 101° | 130km/h | 6691m | -13.5m/s | -16.1°C | 83.8% | 443.2hPa | 2.5V | 08:13:15 | 02:15:31 | 00:00:00 | |
| DF8AY | 2026-09-04 05:46:42 | 52.48200 | 9.47103 | 102° | 128km/h | 6705m | -14m/s | -16.2°C | 83.8% | 442.3hPa | 2.6V | 08:13:15 | 02:15:30 | 00:00:00 | |
| DO2JMG | 2026-09-04 05:46:41 | 52.48207 | 9.47052 | 103° | 130km/h | 6719m | -13.9m/s | -16.3°C | 83.4% | 441.5hPa | 2.6V | 08:14:57 | 02:15:29 | 00:00:00 | |
| AA1-15 | 2026-09-04 05:46:38 | 52.48228 | 9.46892 | 102° | 131km/h | 6760m | -13.5m/s | -16.5°C | 85.7% | 439.1hPa | 2.5V | 08:13:15 | 02:15:26 | 00:00:00 | |
| DL1XH-west | 2026-09-04 05:46:37 | 52.48235 | 9.46839 | 102° | 130km/h | 6774m | -13.9m/s | -16.6°C | 86.1% | 438.3hPa | 2.5V | 08:13:15 | 02:15:25 | 00:00:00 | |
| DL1XH1-15 | 2026-09-04 05:46:36 | 52.48272 | 9.46515 | 100° | 131km/h | 6858m | -14.8m/s | -17.2°C | 85.2% | 433.5hPa | 2.5V | 08:13:05 | 02:15:19 | 00:00:00 | |
| BIOWL1-15 | 2026-09-04 05:46:33 | 52.48261 | 9.46623 | 100° | 135km/h | 6830m | -14m/s | -17°C | 85.3% | 435.1hPa | 2.5V | 08:13:15 | 02:15:21 | 00:00:00 | |
| DF8AY | 2026-09-04 05:46:32 | 52.48266 | 9.46569 | 100° | 131km/h | 6844m | -14.4m/s | -17.1°C | 85.9% | 434.2hPa | 2.5V | 08:13:15 | 02:15:20 | 00:00:00 | |
| DO2SHX-10 | 2026-09-04 05:46:32 | 52.48266 | 9.46569 | 100° | 131km/h | 6844m | -14.4m/s | -17.0°C | 85.2% | 434.2hPa | 2.6V | 00:00:00 | 02:15:20 | 00:00:00 | |
| DL3AQ-11 | 2026-09-04 05:46:31 | 52.48272 | 9.46515 | 100° | 131km/h | 6858m | -14.9m/s | -17.2°C | 82.5% | 433.5hPa | 2.6V | 00:00:00 | 00:00:00 | 00:00:00 | |
| DJ2DS-15 | 2026-09-04 05:46:30 | 52.48278 | 9.46461 | 101° | 131km/h | 6873m | -14.8m/s | -17.2°C | 85.6% | 432.6hPa | 2.6V | 00:00:00 | 02:15:18 | 00:00:00 | |
| DO2SHX-10 | 2026-09-04 05:46:29 | 52.48284 | 9.46406 | 100° | 133km/h | 6887m | -14.9m/s | -17.3°C | 86.0% | 431.6hPa | 2.6V | 00:00:00 | 02:15:17 | 00:00:00 | |
| GOEST3-10 | 2026-09-04 05:46:28 | 52.48290 | 9.46351 | 100° | 133km/h | 6902m | -14.7m/s | -17.4°C | 86.1% | 431.0hPa | 2.6V | 00:00:00 | 02:15:16 | 00:00:00 | |
| DM0DOS-11 | 2026-09-04 05:46:27 | 52.48329 | 9.46027 | 102° | 133km/h | 6987m | -15.3m/s | -18°C | 83.1% | 426.1hPa | 2.5V | 08:13:14 | 02:15:10 | 00:00:00 | |
| DL1XH-west | 2026-09-04 05:46:27 | 52.48296 | 9.46297 | 100° | 131km/h | 6917m | -14.4m/s | -17.6°C | 85.9% | 430.2hPa | 2.5V | 08:13:15 | 02:15:15 | 00:00:00 | |
| DB0DAN | 2026-09-04 05:46:25 | 52.48308 | 9.46189 | 101° | 128km/h | 6944m | -13.6m/s | -17.6°C | 85.6% | 428.47hPa | 2.5V | 00:00:00 | 00:00:00 | 00:00:00 | |
| BIOWL1-15 | 2026-09-04 05:46:24 | 52.48349 | 9.45865 | 101° | 130km/h | 7029m | -14m/s | -18.3°C | 83.6% | 423.7hPa | 2.6V | 08:14:06 | 02:15:07 | 00:00:00 | |
| DL1XH-15 | 2026-09-04 05:46:24 | 52.48349 | 9.45865 | 101° | 130km/h | 7029m | -14m/s | -18.3°C | 84.2% | 423.7hPa | 2.6V | 08:13:17 | 02:15:07 | 00:00:00 | |
| DF8AY | 2026-09-04 05:46:21 | 52.48336 | 9.45973 | 102° | 133km/h | 7001m | -14.7m/s | -18.2°C | 81.7% | 425.3hPa | 2.5V | 08:13:15 | 02:15:09 | 00:00:00 | |
| DO2SHX-10 | 2026-09-04 05:46:20 | 52.48343 | 9.45919 | 102° | 130km/h | 7015m | -14.0m/s | -18.2°C | 82.1% | 424.5hPa | 2.6V | 00:00:00 | 02:15:08 | 00:00:00 | |
| DF5WG-10 | 2026-09-04 05:46:19 | 52.48349 | 9.45865 | 102° | 128km/h | 7029m | -13.9m/s | -18.2°C | 84.2% | 423.7hPa | 2.6V | 00:00:00 | 02:15:07 | 00:00:00 | |
| GOEST3-10 | 2026-09-04 05:46:18 | 52.48355 | 9.45814 | 103° | 128km/h | 7043m | -14.4m/s | -18.2°C | 85.2% | 422.9hPa | 2.6V | 00:00:00 | 02:15:06 | 00:00:00 | |
| DO2SHX-10 | 2026-09-04 05:46:17 | 52.48362 | 9.45762 | 103° | 128km/h | 7057m | -14.9m/s | -18.2°C | 86.8% | 422.1hPa | 2.6V | 00:00:00 | 02:15:05 | 00:00:00 | |
| DL1XH1-15 | 2026-09-04 05:46:16 | 52.48405 | 9.45455 | 103° | 126km/h | 7142m | -14.3m/s | -18.6°C | 93.5% | 417.2hPa | 2.6V | 08:13:25 | 02:14:59 | 00:00:00 | |
| DL1XH-west | 2026-09-04 05:46:16 | 52.48369 | 9.45711 | 103° | 130km/h | 7071m | -14.7m/s | -18.3°C | 87.4% | 421.4hPa | 2.6V | 08:14:06 | 02:15:04 | 00:00:00 | |
| DD8BA-10 | 2026-09-04 05:46:15 | 52.48377 | 9.45659 | 103° | 126km/h | 7086m | -14.5m/s | -18.4°C | 88.3% | 420.4hPa | 2.6V | 00:00:00 | 00:00:00 | 00:00:00 | |
| DL1XH-15 | 2026-09-04 05:46:14 | 52.48418 | 9.45354 | 102° | 124km/h | 7170m | -14.6m/s | -18.7°C | 96.6% | 415.6hPa | 2.6V | 08:13:27 | 02:14:57 | 00:00:00 | |
| DO2SHX-10 | 2026-09-04 05:46:14 | 52.48384 | 9.45607 | 102° | 126km/h | 7100m | -14.3m/s | -18.5°C | 88.8% | 419.6hPa | 2.5V | 00:00:00 | 02:15:02 | 00:00:00 | |
| DD1CC3-15 | 2026-09-04 05:46:13 | 52.48384 | 9.45607 | 103° | 128km/h | 7100m | -14.4m/s | -18.5°C | 85.9% | 419.7hPa | 2.5V | 00:00:00 | 00:00:00 | 00:00:00 | |
| DM0DOS-11 | 2026-09-04 05:46:12 | 52.48397 | 9.45506 | 102° | 126km/h | 7128m | -14.6m/s | -18.6°C | 92% | 418.1hPa | 2.5V | 08:13:24 | 02:15:00 | 00:00:00 | |
| DF8AY | 2026-09-04 05:46:11 | 52.48405 | 9.45455 | 104° | 126km/h | 7142m | -14.3m/s | -18.6°C | 93.5% | 417.3hPa | 2.6V | 08:14:06 | 02:14:59 | 00:00:00 | |
| DB0DAN | 2026-09-04 05:46:10 | 52.48412 | 9.45404 | 102° | 120km/h | 7156m | -14.8m/s | -18.6°C | 91.7% | 416.5hPa | 2.6V | 00:00:00 | 00:00:00 | 00:00:00 | |
| BIOWL1-15 | 2026-09-04 05:46:10 | 52.48412 | 9.45404 | 102° | 126km/h | 7156m | -14.8m/s | -18.6°C | 95.3% | 416.5hPa | 2.6V | 08:14:06 | 02:14:58 | 00:00:00 | |
| DL1ZP-14 | 2026-09-04 05:46:09 | 52.48425 | 9.45304 | 102° | 124km/h | 7185m | -15.7m/s | -18.7°C | 93.2% | 414.9hPa | 2.5V | 00:00:00 | 00:00:00 | 00:00:00 | |
| DL4BBY-15 | 2026-09-04 05:46:08 | 52.48425 | 9.45304 | 103° | 122km/h | 7185m | -15.6m/s | -19.7°C | 0% | 0hPa | 2.5V | 00:00:00 | 00:00:00 | 00:00:00 | |
| DM0DOS-11 | 2026-09-04 05:46:07 | 52.48464 | 9.45004 | 102° | 122km/h | 7274m | -13.7m/s | -19.3°C | 90.5% | 409.9hPa | 2.5V | 08:13:34 | 02:14:50 | 00:00:00 | |
| DL1XH1-15 | 2026-09-04 05:46:06 | 52.48471 | 9.44954 | 102° | 124km/h | 7287m | -14.1m/s | -19.4°C | 90.3% | 409.1hPa | 2.5V | 08:13:35 | 02:14:49 | 00:00:00 | |
| DL1XH-west | 2026-09-04 05:46:05 | 52.48445 | 9.45153 | 102° | 124km/h | 7231m | -14.4m/s | -19°C | 92.4% | 412.4hPa | 2.6V | 08:14:06 | 02:14:53 | 00:00:00 | |
| DO2JMG | 2026-09-04 05:46:04 | 52.48451 | 9.45103 | 102° | 124km/h | 7246m | -14.3m/s | -19.1°C | 92.2% | 411.5hPa | 2.6V | 08:14:57 | 02:14:52 | 00:00:00 | |
| DF8AY | 2026-09-04 05:46:00 | 52.48478 | 9.44904 | 103° | 126km/h | 7301m | -14.2m/s | -19.5°C | 91.2% | 408.4hPa | 2.5V | 08:14:06 | 02:14:48 | 00:00:00 | |
| BIOWL1-15 | 2026-09-04 05:45:59 | 52.48492 | 9.44803 | 103° | 128km/h | 7329m | -13.7m/s | -19.7°C | 91.7% | 406.9hPa | 2.6V | 08:14:06 | 02:14:46 | 00:00:00 | |
| DF5WG-10 | 2026-09-04 05:45:59 | 52.48485 | 9.44854 | 104° | 122km/h | 7316m | -13.5m/s | -19.5°C | 90.7% | 407.6hPa | 2.5V | 00:00:00 | 02:14:47 | 00:00:00 | |
| DO2SHX-10 | 2026-09-04 05:45:58 | 52.48492 | 9.44803 | 103° | 126km/h | 7329m | -13.6m/s | -19.6°C | 91.1% | 406.8hPa | 2.5V | 00:00:00 | 02:14:46 | 00:00:00 | |
| DM0DOS-11 | 2026-09-04 05:45:57 | 52.48529 | 9.44499 | 100° | 122km/h | 7412m | -14.5m/s | -20.2°C | 91.3% | 402.4hPa | 2.5V | 08:13:44 | 02:14:40 | 00:00:00 | |
| DL1XH1-15 | 2026-09-04 05:45:56 | 52.48535 | 9.44450 | 100° | 120km/h | 7426m | -13.8m/s | -20.4°C | 90.8% | 401.7hPa | 2.5V | 08:13:45 | 02:14:39 | 00:00:00 | |
| DB0DAN | 2026-09-04 05:45:55 | 52.48511 | 9.44650 | 102° | 117km/h | 7369m | -14.3m/s | -19.9°C | 88.3% | 404.75hPa | 2.6V | 00:00:00 | 00:00:00 | 00:00:00 | |
| DD8BA-10 | 2026-09-04 05:45:55 | 52.48511 | 9.44650 | 102° | 120km/h | 7369m | -14.2m/s | -19.9°C | 91.4% | 404.7hPa | 2.6V | 00:00:00 | 00:00:00 | 00:00:00 | |
| DL1XH-15 | 2026-09-04 05:45:54 | 52.48547 | 9.44354 | 101° | 117km/h | 7454m | -14.5m/s | -20.6°C | 90.5% | 400.1hPa | 2.6V | 08:13:47 | 02:14:37 | 00:00:00 | |
| DL1XH-west | 2026-09-04 05:45:54 | 52.48518 | 9.44600 | 102° | 124km/h | 7383m | -14.6m/s | -20°C | 92.3% | 404hPa | 2.6V | 08:14:06 | 02:14:42 | 00:00:00 | |
| BIOWL1-15 | 2026-09-04 05:45:49 | 52.48547 | 9.44354 | 102° | 117km/h | 7454m | -14.5m/s | -20.6°C | 91.6% | 400.1hPa | 2.6V | 08:14:06 | 02:14:37 | 00:00:00 | |
| DO2SHX-10 | 2026-09-04 05:45:49 | 52.48547 | 9.44354 | 102° | 119km/h | 7454m | -14.5m/s | -20.5°C | 90.5% | 400.0hPa | 2.5V | 00:00:00 | 02:14:37 | 00:00:00 | |
| GOEST3-10 | 2026-09-04 05:45:48 | 52.48553 | 9.44306 | 103° | 119km/h | 7468m | -14.4m/s | -20.6°C | 90.6% | 399.3hPa | 2.5V | 00:00:00 | 02:14:36 | 00:00:00 | |
| DM0DOS-11 | 2026-09-04 05:45:47 | 52.48592 | 9.44017 | 103° | 122km/h | 7553m | -14.8m/s | -21.3°C | 91.4% | 394.8hPa | 2.5V | 08:13:54 | 02:14:30 | 00:00:00 | |
| DL1XH1-15 | 2026-09-04 05:45:46 | 52.48600 | 9.43968 | 102° | 122km/h | 7567m | -14.7m/s | -21.4°C | 91.3% | 394.1hPa | 2.5V | 08:13:55 | 02:14:29 | 00:00:00 | |
| DL1XH-west | 2026-09-04 05:45:43 | 52.48585 | 9.44065 | 103° | 120km/h | 7539m | -14.6m/s | -21.2°C | 92.7% | 395.6hPa | 2.6V | 08:14:06 | 02:14:31 | 00:00:00 | |
| DL4XJ-10 | 2026-09-04 05:45:43 | 52.48585 | 9.44065 | 104° | 122km/h | 7539m | -14.6m/s | -22.1°C | 0% | 0hPa | 2.6V | 00:00:00 | 00:00:00 | 00:00:00 | |
| DB0NH | 2026-09-04 05:45:42 | 52.48592 | 9.44017 | 104° | 122km/h | 7553m | -14.8m/s | -21.2°C | 91.4% | 394.7hPa | 2.6V | 00:00:00 | 02:14:30 | 00:00:00 | |
| DB0DAN | 2026-09-04 05:45:40 | 52.48606 | 9.43918 | 101° | 117km/h | 7582m | -14.3m/s | -21.5°C | 87.7% | 393.28hPa | 2.6V | 00:00:00 | 00:00:00 | 00:00:00 | |
| DF8AY | 2026-09-04 05:45:39 | 52.48612 | 9.43869 | 100° | 120km/h | 7595m | -13.9m/s | -21.6°C | 92.2% | 392.5hPa | 2.6V | 08:14:06 | 02:14:27 | 00:00:00 | |
| DF5WG-10 | 2026-09-04 05:45:39 | 52.48612 | 9.43869 | 101° | 122km/h | 7595m | -13.8m/s | -21.5°C | 90.5% | 392.5hPa | 2.5V | 00:00:00 | 02:14:27 | 00:00:00 | |
| DL1ZP-14 | 2026-09-04 05:45:38 | 52.48622 | 9.43772 | 100° | 117km/h | 7623m | -14.5m/s | -21.8°C | 86.8% | 391.1hPa | 2.5V | 00:00:00 | 00:00:00 | 00:00:00 | |
| DO2SHX-10 | 2026-09-04 05:45:37 | 52.48622 | 9.43771 | 101° | 119km/h | 7624m | -14.4m/s | -21.7°C | 90.1% | 391.0hPa | 2.5V | 00:00:00 | 02:14:25 | 00:00:00 | |
| DL1XH1-15 | 2026-09-04 05:45:36 | 52.48656 | 9.43476 | 99° | 128km/h | 7709m | -14.4m/s | -22.4°C | 87.3% | 386.5hPa | 2.5V | 08:14:05 | 02:14:19 | 00:00:00 | |
| DL3AQ-11 | 2026-09-04 05:45:36 | 52.48634 | 9.43674 | 100° | 120km/h | 7651m | -14.3m/s | -22.0°C | 85.3% | 389.6hPa | 2.6V | 00:00:00 | 00:00:00 | 00:00:00 | |
| DD8BA-10 | 2026-09-04 05:45:35 | 52.48634 | 9.43674 | 101° | 122km/h | 7652m | -14.3m/s | -21.9°C | 88.6% | 389.6hPa | 2.6V | 00:00:00 | 00:00:00 | 00:00:00 | |
| DL1XH-15 | 2026-09-04 05:45:34 | 52.48666 | 9.43373 | 97° | 124km/h | 7737m | -14m/s | -22.6°C | 87.1% | 385.1hPa | 2.6V | 08:14:07 | 02:14:17 | 00:00:00 | |
| DL1XH-west | 2026-09-04 05:45:32 | 52.48651 | 9.43527 | 101° | 124km/h | 7695m | -15m/s | -22.3°C | 89.7% | 387.3hPa | 2.5V | 08:14:06 | 02:14:20 | 00:00:00 | |
| BIOWL1-15 | 2026-09-04 05:45:31 | 52.48666 | 9.43374 | 98° | 124km/h | 7737m | -14m/s | -22.6°C | 89.5% | 385.1hPa | 2.6V | 08:14:57 | 02:14:17 | 00:00:00 | |
| DF8AY | 2026-09-04 05:45:28 | 52.48670 | 9.43323 | 99° | 122km/h | 7751m | -14m/s | -22.7°C | 89.1% | 384.4hPa | 2.6V | 08:14:57 | 02:14:16 | 00:00:00 | |
| DO2JMG | 2026-09-04 05:45:27 | 52.48675 | 9.43273 | 99° | 124km/h | 7766m | -14.7m/s | -22.8°C | 88.6% | 383.6hPa | 2.5V | 08:14:57 | 02:14:15 | 00:00:00 | |
| DL1XH1-15 | 2026-09-04 05:45:26 | 52.48706 | 9.42974 | 99° | 126km/h | 7853m | -14.1m/s | -23.4°C | 86.3% | 379.2hPa | 2.5V | 08:14:15 | 02:14:09 | 00:00:00 | |
| HSKMA3-T | 2026-09-04 05:45:24 | 52.48695 | 9.43074 | 101° | 120km/h | 7824m | -14.7m/s | -23.2°C | 89.6% | 380.6hPa | 2.6V | 08:15:48 | 02:14:11 | 00:00:00 | |
| DL1XH-15 | 2026-09-04 05:45:24 | 52.48716 | 9.42873 | 98° | 122km/h | 7881m | -14.2m/s | -23.6°C | 86.6% | 377.7hPa | 2.5V | 08:14:17 | 02:14:07 | 00:00:00 | |
| DL1XH-west | 2026-09-04 05:45:22 | 52.48701 | 9.43024 | 101° | 124km/h | 7838m | -14.5m/s | -23.3°C | 89.7% | 380hPa | 2.6V | 08:14:57 | 02:14:10 | 00:00:00 | |
| AA1-15 | 2026-09-04 05:45:21 | 52.48707 | 9.42974 | 99° | 126km/h | 7853m | -14.1m/s | -23.4°C | 89.5% | 379.2hPa | 2.5V | 08:14:57 | 02:14:09 | 00:00:00 | |
| BIOWL1-15 | 2026-09-04 05:45:19 | 52.48716 | 9.42873 | 98° | 122km/h | 7881m | -14.2m/s | -23.6°C | 89.9% | 377.7hPa | 2.5V | 08:14:57 | 02:14:07 | 00:00:00 | |
| DF8AY | 2026-09-04 05:45:18 | 52.48721 | 9.42823 | 99° | 122km/h | 7895m | -14.4m/s | -23.7°C | 90% | 376.9hPa | 2.6V | 08:14:57 | 02:14:06 | 00:00:00 | |
| GOEST3-10 | 2026-09-04 05:45:18 | 52.48721 | 9.42823 | 99° | 122km/h | 7895m | -14.3m/s | -23.6°C | 86.7% | 376.9hPa | 2.6V | 00:00:00 | 02:14:06 | 00:00:00 | |
| DM0DOS-11 | 2026-09-04 05:45:17 | 52.48751 | 9.42523 | 99° | 124km/h | 7980m | -14.7m/s | -24.3°C | 85.7% | 372.6hPa | 2.6V | 08:14:24 | 02:14:00 | 00:00:00 | |
| DO2JMG | 2026-09-04 05:45:16 | 52.48730 | 9.42722 | 99° | 124km/h | 7924m | -14.6m/s | -23.9°C | 89.6% | 375.6hPa | 2.5V | 08:14:57 | 02:14:04 | 00:00:00 | |
| SMARD9-15 | 2026-09-04 05:45:16 | 52.48735 | 9.42672 | 98° | 120km/h | 7938m | -13.9m/s | -24.0°C | 83.1% | 374.9hPa | 2.5V | 00:00:00 | 00:00:00 | 00:00:00 | |
| DD8BA-10 | 2026-09-04 05:45:15 | 52.48735 | 9.42671 | 99° | 122km/h | 7938m | -13.9m/s | -24.0°C | 86.5% | 374.8hPa | 2.5V | 00:00:00 | 00:00:00 | 00:00:00 | |
| DL1XH-15 | 2026-09-04 05:45:14 | 52.48765 | 9.42372 | 98° | 122km/h | 8023m | -14.3m/s | -24.7°C | 85.6% | 370.4hPa | 2.5V | 08:14:27 | 02:13:57 | 00:00:00 | |
| DL1XH-west | 2026-09-04 05:45:11 | 52.48756 | 9.42472 | 99° | 124km/h | 7995m | -14m/s | -24.4°C | 89.4% | 371.9hPa | 2.6V | 08:14:57 | 02:13:59 | 00:00:00 | |
| DB0DAN | 2026-09-04 05:45:10 | 52.48760 | 9.42422 | 98° | 115km/h | 8009m | -14.6m/s | -24.6°C | 82.1% | 371.15hPa | 2.5V | 00:00:00 | 00:00:00 | 00:00:00 | |
| HSKMA3-T | 2026-09-04 05:45:08 | 52.48774 | 9.42272 | 99° | 122km/h | 8051m | -14.7m/s | -24.9°C | 89.4% | 368.9hPa | 2.5V | 08:15:48 | 02:13:55 | 00:00:00 | |
| BIOWL1-15 | 2026-09-04 05:45:08 | 52.48790 | 9.42124 | 101° | 122km/h | 8093m | -14.7m/s | -25.2°C | 89.5% | 366.8hPa | 2.6V | 08:14:57 | 02:13:52 | 00:00:00 | |
| DF8AY | 2026-09-04 05:45:08 | 52.48769 | 9.42322 | 99° | 122km/h | 8037m | -14.6m/s | -24.8°C | 89.3% | 369.6hPa | 2.5V | 08:14:57 | 02:13:56 | 00:00:00 | |
| DL4BBY-15 | 2026-09-04 05:45:08 | 52.48769 | 9.42322 | 100° | 124km/h | 8037m | -14.5m/s | -25.7°C | 0% | 0hPa | 2.5V | 00:00:00 | 00:00:00 | 00:00:00 | |
| DM0DOS-11 | 2026-09-04 05:45:07 | 52.48800 | 9.42022 | 98° | 126km/h | 8122m | -14.3m/s | -25.4°C | 86.5% | 365.3hPa | 2.5V | 08:14:34 | 02:13:50 | 00:00:00 | |
| DL1ZP-14 | 2026-09-04 05:45:07 | 52.48779 | 9.42222 | 98° | 120km/h | 8065m | -14.1m/s | -25.0°C | 82.3% | 368.1hPa | 2.6V | 00:00:00 | 00:00:00 | 00:00:00 | |
| DL1XH1-15 | 2026-09-04 05:45:06 | 52.48805 | 9.41971 | 98° | 124km/h | 8136m | -14.2m/s | -25.5°C | 86.7% | 364.6hPa | 2.5V | 08:14:35 | 02:13:49 | 00:00:00 | |
| DO2JMG | 2026-09-04 05:45:06 | 52.48779 | 9.42222 | 99° | 120km/h | 8065m | -14.1m/s | -25°C | 89.4% | 368.1hPa | 2.6V | 08:14:57 | 02:13:54 | 00:00:00 | |
| DL1XH-west | 2026-09-04 05:45:01 | 52.48805 | 9.41971 | 99° | 124km/h | 8136m | -14.2m/s | -25.5°C | 90.4% | 364.6hPa | 2.5V | 08:14:57 | 02:13:49 | 00:00:00 | |
| BIOWL1-15 | 2026-09-04 05:45:00 | 52.48820 | 9.41819 | 99° | 122km/h | 8178m | -14.5m/s | -25.9°C | 91.1% | 362.5hPa | 2.5V | 08:14:57 | 02:13:46 | 00:00:00 | |
| DF8AY | 2026-09-04 05:44:57 | 52.48825 | 9.41769 | 100° | 120km/h | 8192m | -14.4m/s | -26°C | 91.3% | 361.8hPa | 2.5V | 08:14:57 | 02:13:45 | 00:00:00 | |
| DL1XH1-15 | 2026-09-04 05:44:56 | 52.48859 | 9.41467 | 100° | 126km/h | 8277m | -15.1m/s | -26.7°C | 88.8% | 357.5hPa | 2.5V | 08:14:45 | 02:13:39 | 00:00:00 | |
| DO2JMG | 2026-09-04 05:44:56 | 52.48836 | 9.41670 | 101° | 124km/h | 8220m | -14.7m/s | -26.2°C | 92.3% | 360.3hPa | 2.6V | 08:14:57 | 02:13:43 | 00:00:00 | |
| DB0DAN | 2026-09-04 05:44:55 | 52.48836 | 9.41670 | 101° | 119km/h | 8220m | -14.7m/s | -26.2°C | 84.9% | 360.3hPa | 2.6V | 00:00:00 | 00:00:00 | 00:00:00 | |
| DO2SHX-10 | 2026-09-04 05:44:55 | 52.48836 | 9.41670 | 102° | 126km/h | 8220m | -14.7m/s | -26.2°C | 88.6% | 360.3hPa | 2.5V | 00:00:00 | 02:13:43 | 00:00:00 | |
| DL1XH-15 | 2026-09-04 05:44:54 | 52.48870 | 9.41365 | 100° | 122km/h | 8307m | -14.7m/s | -26.9°C | 88.7% | 356hPa | 2.5V | 08:14:47 | 02:13:37 | 00:00:00 | |
| AA1-15 | 2026-09-04 05:44:51 | 52.48859 | 9.41466 | 101° | 126km/h | 8277m | -15.1m/s | -26.7°C | 92.6% | 357.5hPa | 2.5V | 08:14:57 | 02:13:39 | 00:00:00 | |
| DL1XH-west | 2026-09-04 05:44:50 | 52.48865 | 9.41416 | 100° | 124km/h | 8292m | -15m/s | -26.8°C | 92.8% | 356.8hPa | 2.5V | 08:14:57 | 02:13:38 | 00:00:00 | |
| BIOWL1-15 | 2026-09-04 05:44:49 | 52.48909 | 9.41056 | 102° | 130km/h | 8394m | -15.2m/s | -27.6°C | 91.3% | 351.9hPa | 2.5V | 08:14:57 | 02:13:31 | 00:00:00 | |
| DF8AY | 2026-09-04 05:44:47 | 52.48883 | 9.41265 | 102° | 128km/h | 8336m | -14.6m/s | -27.1°C | 91.6% | 354.6hPa | 2.6V | 08:14:57 | 02:13:35 | 00:00:00 | |
| DL1XH1-15 | 2026-09-04 05:44:46 | 52.48922 | 9.40951 | 101° | 128km/h | 8423m | -14.9m/s | -27.8°C | 86.6% | 350.4hPa | 2.6V | 08:14:55 | 02:13:29 | 00:00:00 | |
| DO2JMG | 2026-09-04 05:44:44 | 52.48902 | 9.41108 | 102° | 128km/h | 8379m | -14.7m/s | -27.5°C | 91.7% | 352.5hPa | 2.5V | 08:14:57 | 02:13:32 | 00:00:00 | |
| DL3AQ-11 | 2026-09-04 05:44:43 | 52.48916 | 9.41004 | 101° | 130km/h | 8409m | -14.9m/s | -27.7°C | 83.4% | 351.1hPa | 2.5V | 00:00:00 | 00:00:00 | 00:00:00 | |
| DO9LL-15 | 2026-09-04 05:44:42 | 52.48916 | 9.41003 | 102° | 133km/h | 8409m | -14.9m/s | -27.7°C | 87.3% | 351.0hPa | 2.5V | 00:00:00 | 02:13:30 | 00:00:00 | |
| DB0DAN | 2026-09-04 05:44:40 | 52.48928 | 9.40900 | 102° | 120km/h | 8438m | -15.2m/s | -27.9°C | 82.6% | 349.7hPa | 2.5V | 00:00:00 | 00:00:00 | 00:00:00 | |
| DL1XH-west | 2026-09-04 05:44:40 | 52.48928 | 9.40900 | 102° | 126km/h | 8438m | -15.2m/s | -27.9°C | 90.6% | 349.7hPa | 2.5V | 08:14:57 | 02:13:28 | 00:00:00 | |
| DF8AY-15 | 2026-09-04 05:44:40 | 52.48928 | 9.40900 | 103° | 131km/h | 8438m | -15.1m/s | -27.8°C | 86.4% | 349.6hPa | 2.5V | 00:00:00 | 02:13:28 | 00:00:00 | |
| DF5WG-10 | 2026-09-04 05:44:39 | 52.48936 | 9.40848 | 104° | 130km/h | 8453m | -15.1m/s | -28.0°C | 86.5% | 348.9hPa | 2.5V | 00:00:00 | 02:13:27 | 00:00:00 | |
| DL4BBY-15 | 2026-09-04 05:44:38 | 52.48943 | 9.40796 | 104° | 131km/h | 8469m | -14.7m/s | -29.1°C | 0% | 0hPa | 2.5V | 00:00:00 | 00:00:00 | 00:00:00 | |
| DM0DOS-11 | 2026-09-04 05:44:37 | 52.48982 | 9.40477 | 100° | 128km/h | 8555m | -14.6m/s | -28.7°C | 88.3% | 343.9hPa | 2.5V | 08:15:04 | 02:13:20 | 00:00:00 | |
| BIOWL1-15 | 2026-09-04 05:44:36 | 52.48957 | 9.40689 | 102° | 131km/h | 8497m | -14.4m/s | -28.3°C | 89.6% | 346.8hPa | 2.6V | 08:15:48 | 02:13:24 | 00:00:00 | |
| DO2JMG | 2026-09-04 05:44:34 | 52.48970 | 9.40583 | 101° | 131km/h | 8526m | -15.1m/s | -28.5°C | 91.6% | 345.4hPa | 2.5V | 08:15:48 | 02:13:22 | 00:00:00 | |
| HSKMA3-T | 2026-09-04 05:44:34 | 52.48988 | 9.40425 | 101° | 126km/h | 8569m | -14.4m/s | -28.8°C | 92.6% | 343.3hPa | 2.5V | 08:15:48 | 02:13:19 | 00:00:00 | |
| DL1XH-west | 2026-09-04 05:44:30 | 52.48994 | 9.40374 | 102° | 128km/h | 8583m | -14.5m/s | -28.9°C | 92.7% | 342.6hPa | 2.6V | 08:15:48 | 02:13:18 | 00:00:00 | |
| DJ2DS-15 | 2026-09-04 05:44:30 | 52.48994 | 9.40374 | 102° | 131km/h | 8584m | -14.4m/s | -28.9°C | 88.3% | 342.6hPa | 2.6V | 00:00:00 | 02:13:18 | 00:00:00 | |
| DB0ND-19 | 2026-09-04 05:44:29 | 52.49008 | 9.40269 | 101° | 130km/h | 8612m | -14.2m/s | -29.1°C | 83.5% | 341.3hPa | 2.6V | 00:00:00 | 00:00:00 | 00:00:00 | |
| DO2SHX-10 | 2026-09-04 05:44:28 | 52.49008 | 9.40269 | 102° | 131km/h | 8612m | -14.2m/s | -29.0°C | 87.5% | 341.2hPa | 2.6V | 00:00:00 | 02:13:16 | 00:00:00 | |
| DM0DOS-11 | 2026-09-04 05:44:27 | 52.49047 | 9.39948 | 102° | 130km/h | 8698m | -14.8m/s | -29.8°C | 85.4% | 337.2hPa | 2.6V | 08:15:14 | 02:13:10 | 00:00:00 | |
| DL1XH1-15 | 2026-09-04 05:44:26 | 52.49054 | 9.39896 | 101° | 131km/h | 8713m | -14.7m/s | -29.9°C | 84.9% | 336.5hPa | 2.6V | 08:15:15 | 02:13:09 | 00:00:00 | |
| BIOWL1-15 | 2026-09-04 05:44:26 | 52.49021 | 9.40163 | 102° | 133km/h | 8640m | -14.7m/s | -29.3°C | 91.7% | 340hPa | 2.5V | 08:15:48 | 02:13:14 | 00:00:00 | |
| DB0DAN | 2026-09-04 05:44:25 | 52.49028 | 9.40109 | 101° | 128km/h | 8655m | -14.9m/s | -29.4°C | 82.5% | 339.22hPa | 2.5V | 00:00:00 | 00:00:00 | 00:00:00 | |
| DO2JMG | 2026-09-04 05:44:23 | 52.49041 | 9.40001 | 101° | 130km/h | 8684m | -14.2m/s | -29.7°C | 90.4% | 337.9hPa | 2.6V | 08:15:48 | 02:13:11 | 00:00:00 | |
| DL1XH-west | 2026-09-04 05:44:20 | 52.49061 | 9.39842 | 102° | 131km/h | 8728m | -14.5m/s | -30°C | 89.3% | 335.9hPa | 2.5V | 08:15:48 | 02:13:08 | 00:00:00 | |
| AA1-15 | 2026-09-04 05:44:19 | 52.49068 | 9.39790 | 103° | 130km/h | 8742m | -14.6m/s | -30.1°C | 88.8% | 335.1hPa | 2.5V | 08:15:48 | 02:13:07 | 00:00:00 | |
| EDDB2-11 | 2026-09-04 05:44:19 | 52.49076 | 9.39737 | 103° | 133km/h | 8757m | -15.3m/s | -30.2°C | 78.9% | 334.5hPa | 2.5V | 00:00:00 | 00:00:00 | 00:00:00 | |
| GOEST3-10 | 2026-09-04 05:44:18 | 52.49075 | 9.39737 | 104° | 133km/h | 8757m | -15.2m/s | -30.2°C | 82.9% | 334.5hPa | 2.5V | 00:00:00 | 02:13:06 | 00:00:00 | |
| DM0DOS-11 | 2026-09-04 05:44:17 | 52.49118 | 9.39414 | 101° | 130km/h | 8845m | -14.6m/s | -30.9°C | 83.7% | 330.3hPa | 2.5V | 08:15:24 | 02:13:00 | 00:00:00 | |
| DL1XH1-15 | 2026-09-04 05:44:16 | 52.49125 | 9.39362 | 103° | 130km/h | 8860m | -14.6m/s | -31.1°C | 83.2% | 329.7hPa | 2.5V | 08:15:25 | 02:12:59 | 00:00:00 | |
| BIOWL1-15 | 2026-09-04 05:44:15 | 52.49097 | 9.39575 | 102° | 131km/h | 8801m | -14.4m/s | -30.6°C | 88% | 332.4hPa | 2.6V | 08:15:48 | 02:13:03 | 00:00:00 | |
| DO2JMG | 2026-09-04 05:44:13 | 52.49111 | 9.39467 | 102° | 133km/h | 8831m | -14.7m/s | -30.8°C | 88.4% | 331.1hPa | 2.5V | 08:15:48 | 02:13:01 | 00:00:00 | |
| DO2SHX-10 | 2026-09-04 05:44:13 | 52.49111 | 9.39467 | 102° | 131km/h | 8831m | -14.7m/s | -30.8°C | 83.4% | 331.0hPa | 2.5V | 00:00:00 | 02:13:01 | 00:00:00 | |
| DB0NH | 2026-09-04 05:44:12 | 52.49118 | 9.39414 | 102° | 135km/h | 8845m | -14.5m/s | -30.9°C | 83.7% | 330.3hPa | 2.5V | 00:00:00 | 02:13:00 | 00:00:00 | |
| DB0DAN | 2026-09-04 05:44:10 | 52.49133 | 9.39309 | 103° | 128km/h | 8875m | -15m/s | -31.2°C | 78.9% | 329.07hPa | 2.5V | 00:00:00 | 00:00:00 | 00:00:00 | |
| DL1XH-west | 2026-09-04 05:44:10 | 52.49133 | 9.39309 | 103° | 135km/h | 8874m | -15m/s | -31.2°C | 88% | 329.1hPa | 2.5V | 08:15:48 | 02:12:58 | 00:00:00 | |
| AA1-15 | 2026-09-04 05:44:09 | 52.49140 | 9.39255 | 103° | 133km/h | 8889m | -14.7m/s | -31.3°C | 88% | 328.4hPa | 2.6V | 08:15:48 | 02:12:57 | 00:00:00 | |
| DF5WG-10 | 2026-09-04 05:44:09 | 52.49140 | 9.39255 | 103° | 133km/h | 8889m | -14.6m/s | -31.2°C | 82.9% | 328.4hPa | 2.6V | 00:00:00 | 02:12:57 | 00:00:00 | |
| DL4BBY-15 | 2026-09-04 05:44:08 | 52.49148 | 9.39201 | 103° | 135km/h | 8904m | -14.8m/s | -32.3°C | 0% | 0hPa | 2.6V | 00:00:00 | 00:00:00 | 00:00:00 | |
| DM0DOS-11 | 2026-09-04 05:44:07 | 52.49191 | 9.38879 | 103° | 135km/h | 8992m | -15.2m/s | -32.1°C | 82.5% | 323.6hPa | 2.6V | 08:15:34 | 02:12:50 | 00:00:00 | |
| DO2SHX-10 | 2026-09-04 05:44:07 | 52.49155 | 9.39148 | 103° | 133km/h | 8919m | -15.3m/s | -31.5°C | 83.8% | 327.0hPa | 2.6V | 00:00:00 | 02:12:55 | 00:00:00 | |
| DL1XH1-15 | 2026-09-04 05:44:06 | 52.49199 | 9.38825 | 102° | 137km/h | 9007m | -14.8m/s | -32.2°C | 82.2% | 322.9hPa | 2.6V | 08:15:35 | 02:12:49 | 00:00:00 | |
| BIOWL1-15 | 2026-09-04 05:44:04 | 52.49176 | 9.38986 | 102° | 130km/h | 8963m | -14.9m/s | -31.9°C | 88.4% | 325hPa | 2.5V | 08:15:48 | 02:12:52 | 00:00:00 | |
| DO2JMG | 2026-09-04 05:44:02 | 52.49191 | 9.38879 | 104° | 135km/h | 8992m | -15.2m/s | -32.1°C | 87.5% | 323.6hPa | 2.6V | 08:15:48 | 02:12:50 | 00:00:00 | |
| DL1XH-west | 2026-09-04 05:43:59 | 52.49213 | 9.38716 | 103° | 135km/h | 9036m | -14.9m/s | -32.5°C | 85.9% | 321.5hPa | 2.5V | 08:15:48 | 02:12:47 | 00:00:00 | |
| HSKMA3-T | 2026-09-04 05:43:59 | 52.49228 | 9.38606 | 102° | 135km/h | 9066m | -14.9m/s | -32.6°C | 84.4% | 320.2hPa | 2.5V | 08:15:48 | 02:12:45 | 00:00:00 | |
| AA1-15 | 2026-09-04 05:43:58 | 52.49221 | 9.38661 | 102° | 137km/h | 9051m | -15.4m/s | -32.6°C | 84.9% | 320.9hPa | 2.5V | 08:15:48 | 02:12:46 | 00:00:00 | |
| DB0ND-19 | 2026-09-04 05:43:58 | 52.49297 | 9.38056 | 100° | 133km/h | 9213m | -14.8m/s | -33.8°C | 74.0% | 313.5hPa | 2.5V | 00:00:00 | 00:00:00 | 00:00:00 | |
| DM0DOS-11 | 2026-09-04 05:43:57 | 52.49265 | 9.38334 | 101° | 135km/h | 9140m | -15.1m/s | -33.2°C | 79.6% | 316.9hPa | 2.5V | 08:15:44 | 02:12:40 | 00:00:00 | |
| SO1NDE-10 | 2026-09-04 05:43:57 | 52.49228 | 9.38606 | 102° | 144km/h | 9066m | -14.9m/s | -32.6°C | 79.2% | 320.1hPa | 2.5V | 00:00:00 | 02:12:45 | 00:00:00 | |
| DL1XH1-15 | 2026-09-04 05:43:56 | 52.49272 | 9.38279 | 102° | 137km/h | 9155m | -15.1m/s | -33.3°C | 78.9% | 316.2hPa | 2.5V | 08:15:45 | 02:12:39 | 00:00:00 | |
| DB0DAN | 2026-09-04 05:43:55 | 52.49242 | 9.38498 | 103° | 128km/h | 9096m | -15.4m/s | -32.9°C | 75.4% | 318.86hPa | 2.6V | 00:00:00 | 00:00:00 | 00:00:00 | |
| BIOWL1-15 | 2026-09-04 05:43:54 | 52.49250 | 9.38444 | 103° | 137km/h | 9111m | -15.4m/s | -33°C | 85.2% | 318.2hPa | 2.6V | 08:15:48 | 02:12:42 | 00:00:00 | |
| DF8AY | 2026-09-04 05:43:53 | 52.49257 | 9.38389 | 102° | 137km/h | 9126m | -15m/s | -33.1°C | 85.1% | 317.5hPa | 2.6V | 08:15:48 | 02:12:41 | 00:00:00 | |
| DO2JMG | 2026-09-04 05:43:51 | 52.49272 | 9.38279 | 102° | 137km/h | 9155m | -15.1m/s | -33.4°C | 84% | 316.2hPa | 2.5V | 08:15:48 | 02:12:39 | 00:00:00 | |
| DL1NUX | 2026-09-04 05:43:50 | 52.49310 | 9.37946 | 100° | 137km/h | 9243m | -14.9m/s | -34°C | 77.8% | 312.2hPa | 2.5V | 08:15:51 | 02:12:33 | 00:00:00 | |
| DL1XH-west | 2026-09-04 05:43:48 | 52.49291 | 9.38111 | 100° | 135km/h | 9199m | -14.6m/s | -33.7°C | 82.8% | 314.1hPa | 2.6V | 08:15:48 | 02:12:36 | 00:00:00 | |
| AA1-15 | 2026-09-04 05:43:47 | 52.49297 | 9.38056 | 100° | 133km/h | 9213m | -14.8m/s | -33.8°C | 82.8% | 313.5hPa | 2.5V | 08:16:39 | 02:12:35 | 00:00:00 | |
| EDDB2-11 | 2026-09-04 05:43:47 | 52.49297 | 9.38056 | 100° | 133km/h | 9213m | -14.8m/s | -33.8°C | 74.0% | 313.5hPa | 2.6V | 00:00:00 | 00:00:00 | 00:00:00 | |
| DL1XH1-15 | 2026-09-04 05:43:46 | 52.49336 | 9.37721 | 99° | 141km/h | 9302m | -14.6m/s | -34.5°C | 77.7% | 309.5hPa | 2.6V | 08:15:55 | 02:12:29 | 00:00:00 | |
| BIOWL1-15 | 2026-09-04 05:43:44 | 52.49316 | 9.37891 | 101° | 135km/h | 9257m | -15.3m/s | -34.1°C | 82.6% | 311.6hPa | 2.5V | 08:16:39 | 02:12:32 | 00:00:00 | |
| DF8AY | 2026-09-04 05:43:42 | 52.49330 | 9.37778 | 100° | 141km/h | 9287m | -15.1m/s | -34.4°C | 82.6% | 310.2hPa | 2.6V | 08:16:39 | 02:12:30 | 00:00:00 | |
| DO2JMG | 2026-09-04 05:43:41 | 52.49336 | 9.37721 | 99° | 141km/h | 9302m | -14.6m/s | -34.5°C | 82.5% | 309.5hPa | 2.6V | 08:16:39 | 02:12:29 | 00:00:00 | |
| DB0DAN | 2026-09-04 05:43:40 | 52.49342 | 9.37664 | 100° | 131km/h | 9317m | -15.1m/s | -34.6°C | 73% | 308.9hPa | 2.5V | 00:00:00 | 00:00:00 | 00:00:00 | |
| DL1NUX | 2026-09-04 05:43:40 | 52.49375 | 9.37379 | 102° | 142km/h | 9393m | -15.3m/s | -35.1°C | 76.9% | 305.6hPa | 2.5V | 08:16:01 | 02:12:23 | 00:00:00 | |
| DL1XH-west | 2026-09-04 05:43:38 | 52.49354 | 9.37550 | 100° | 141km/h | 9348m | -15.4m/s | -34.8°C | 81.6% | 307.6hPa | 2.5V | 08:16:39 | 02:12:26 | 00:00:00 | |
| AA1-15 | 2026-09-04 05:43:37 | 52.49361 | 9.37493 | 101° | 141km/h | 9363m | -15m/s | -34.9°C | 81.6% | 307hPa | 2.6V | 08:16:39 | 02:12:25 | 00:00:00 | |
| DO2SHX-10 | 2026-09-04 05:43:37 | 52.49360 | 9.37493 | 101° | 141km/h | 9363m | -14.9m/s | -34.8°C | 76.5% | 307.0hPa | 2.6V | 00:00:00 | 02:12:25 | 00:00:00 | |
| DB0UT-7 | 2026-09-04 05:43:36 | 52.49367 | 9.37436 | 102° | 150km/h | 9378m | -15.2m/s | -34.9°C | 76.7% | 306.2hPa | 2.6V | 08:16:00 | 00:00:00 | 00:00:00 | |
| DD8BA-10 | 2026-09-04 05:43:35 | 52.49375 | 9.37379 | 103° | 146km/h | 9393m | -15.3m/s | -35.0°C | 76.9% | 305.6hPa | 2.5V | 08:16:00 | 00:00:00 | 00:00:00 | |
| DM0DOS-11 | 2026-09-04 05:43:34 | 52.49397 | 9.37202 | 100° | 146km/h | 9438m | -15.1m/s | -35.4°C | 77.4% | 303.6hPa | 2.5V | 08:16:04 | 02:12:20 | 00:00:00 | |
| HSKMA3-T | 2026-09-04 05:43:33 | 52.49390 | 9.37261 | 101° | 148km/h | 9423m | -14.8m/s | -35.3°C | 81.9% | 304.3hPa | 2.5V | 08:17:30 | 02:12:21 | 00:00:00 | |
| DF8AY | 2026-09-04 05:43:31 | 52.49404 | 9.37142 | 102° | 144km/h | 9453m | -15m/s | -35.5°C | 82.8% | 303.1hPa | 2.6V | 08:16:39 | 02:12:19 | 00:00:00 | |
| DO2JMG | 2026-09-04 05:43:30 | 52.49411 | 9.37083 | 102° | 146km/h | 9468m | -15.2m/s | -35.6°C | 83.2% | 302.4hPa | 2.6V | 08:16:39 | 02:12:18 | 00:00:00 | |
| DL1XH-west | 2026-09-04 05:43:28 | 52.49427 | 9.36965 | 102° | 146km/h | 9498m | -14.8m/s | -35.8°C | 83.8% | 301.1hPa | 2.5V | 08:16:39 | 02:12:16 | 00:00:00 | |
| AA1-15 | 2026-09-04 05:43:26 | 52.49443 | 9.36848 | 104° | 148km/h | 9527m | -15.4m/s | -36°C | 84% | 299.8hPa | 2.5V | 08:16:39 | 02:12:14 | 00:00:00 | |
| DB0DAN | 2026-09-04 05:43:25 | 52.49452 | 9.36788 | 103° | 144km/h | 9542m | -15.1m/s | -36.2°C | 74.4% | 299.09hPa | 2.6V | 00:00:00 | 00:00:00 | 00:00:00 | |
| HSKMA3-T | 2026-09-04 05:43:24 | 52.49468 | 9.36666 | 102° | 150km/h | 9571m | -15m/s | -36.4°C | 83.7% | 297.9hPa | 2.5V | 08:17:30 | 02:12:11 | 00:00:00 | |
| BIOWL1-15 | 2026-09-04 05:43:22 | 52.49476 | 9.36605 | 102° | 150km/h | 9585m | -15.4m/s | -36.6°C | 82.6% | 297.3hPa | 2.5V | 08:16:39 | 02:12:10 | 00:00:00 | |
| DF8AY | 2026-09-04 05:43:21 | 52.49484 | 9.36544 | 102° | 150km/h | 9601m | -15.4m/s | -36.7°C | 81% | 296.6hPa | 2.5V | 08:16:39 | 02:12:09 | 00:00:00 | |
| DO2JMG | 2026-09-04 05:43:20 | 52.49492 | 9.36483 | 102° | 150km/h | 9617m | -15.2m/s | -36.8°C | 78.7% | 295.9hPa | 2.5V | 08:16:39 | 02:12:08 | 00:00:00 | |
| DL1XH-west | 2026-09-04 05:43:17 | 52.49517 | 9.36305 | 104° | 150km/h | 9662m | -15.3m/s | -37.1°C | 69.3% | 294hPa | 2.6V | 08:16:39 | 02:12:05 | 00:00:00 | |
| DL1XH1-15 | 2026-09-04 05:43:16 | 52.49571 | 9.35935 | 101° | 157km/h | 9754m | -15.2m/s | -37.8°C | 58.1% | 290.2hPa | 2.5V | 08:16:25 | 02:11:59 | 00:00:00 | |
| AA1-15 | 2026-09-04 05:43:15 | 52.49535 | 9.36184 | 103° | 151km/h | 9693m | -15.1m/s | -37.3°C | 65.3% | 292.8hPa | 2.5V | 08:16:39 | 02:12:03 | 00:00:00 | |
| HSKMA3-T | 2026-09-04 05:43:13 | 52.49562 | 9.35998 | 103° | 157km/h | 9739m | -15.5m/s | -37.7°C | 64.1% | 290.8hPa | 2.6V | 08:17:30 | 02:12:00 | 00:00:00 | |
| BIOWL1-15 | 2026-09-04 05:43:13 | 52.49571 | 9.35935 | 102° | 157km/h | 9754m | -15.2m/s | -37.8°C | 63.9% | 290.2hPa | 2.5V | 08:16:39 | 02:11:59 | 00:00:00 | |
| DF8AY | 2026-09-04 05:43:10 | 52.49578 | 9.35871 | 101° | 153km/h | 9770m | -15.2m/s | -38°C | 63.4% | 289.5hPa | 2.5V | 08:16:39 | 02:11:58 | 00:00:00 | |
| DB0DAN | 2026-09-04 05:43:10 | 52.49578 | 9.35871 | 101° | 146km/h | 9770m | -15.2m/s | -38°C | 53.7% | 289.51hPa | 2.5V | 00:00:00 | 00:00:00 | 00:00:00 | |
| DO2JMG | 2026-09-04 05:43:09 | 52.49586 | 9.35809 | 102° | 153km/h | 9785m | -14.8m/s | -38.1°C | 62.5% | 288.9hPa | 2.5V | 08:16:39 | 02:11:57 | 00:00:00 | |
| DF5WG-10 | 2026-09-04 05:43:09 | 52.49586 | 9.35809 | 103° | 155km/h | 9785m | -14.8m/s | -38.0°C | 57.0% | 288.9hPa | 2.6V | 00:00:00 | 02:11:57 | 00:00:00 | |
| DL4BBY-15 | 2026-09-04 05:43:08 | 52.49595 | 9.35747 | 104° | 157km/h | 9800m | -15.5m/s | -39.1°C | 0% | 0hPa | 2.6V | 00:00:00 | 00:00:00 | 00:00:00 | |
| DL1XH-15 | 2026-09-04 05:43:07 | 52.49648 | 9.35372 | 102° | 157km/h | 9892m | -15.2m/s | -38.9°C | 52.8% | 284.4hPa | 2.6V | 08:16:34 | 02:11:50 | 00:00:00 | |
| DL1XH-west | 2026-09-04 05:43:06 | 52.49612 | 9.35623 | 103° | 153km/h | 9830m | -14.8m/s | -38.4°C | 60.4% | 287hPa | 2.5V | 08:16:39 | 02:11:54 | 00:00:00 | |
| AA1-15 | 2026-09-04 05:43:05 | 52.49621 | 9.35561 | 104° | 155km/h | 9845m | -15.7m/s | -38.6°C | 60.1% | 286.4hPa | 2.5V | 08:16:39 | 02:11:53 | 00:00:00 | |
| HSKMA3-T | 2026-09-04 05:43:03 | 52.49657 | 9.35309 | 103° | 155km/h | 9908m | -15.5m/s | -39.1°C | 57.5% | 283.9hPa | 2.5V | 08:17:30 | 02:11:49 | 00:00:00 | |
| BIOWL1-15 | 2026-09-04 05:43:02 | 52.49665 | 9.35246 | 103° | 157km/h | 9924m | -15.7m/s | -39.2°C | 56.8% | 283.2hPa | 2.5V | 08:16:39 | 02:11:48 | 00:00:00 | |
| DF8AY | 2026-09-04 05:42:59 | 52.49673 | 9.35182 | 102° | 155km/h | 9940m | -16m/s | -39.3°C | 56.5% | 282.6hPa | 2.5V | 08:16:39 | 02:11:47 | 00:00:00 | |
| DO2JMG | 2026-09-04 05:42:58 | 52.49681 | 9.35119 | 102° | 153km/h | 9955m | -15.3m/s | -39.4°C | 56.1% | 281.9hPa | 2.6V | 08:16:39 | 02:11:46 | 00:00:00 | |
| DO2SHX-10 | 2026-09-04 05:42:58 | 52.49681 | 9.35119 | 103° | 153km/h | 9955m | -15.3m/s | -39.4°C | 50.7% | 281.8hPa | 2.6V | 08:16:00 | 02:11:46 | 00:00:00 | |
| DM0DOS-11 | 2026-09-04 05:42:57 | 52.49734 | 9.34744 | 103° | 159km/h | 10048m | -16.6m/s | -40.2°C | 48.8% | 278.1hPa | 2.6V | 08:16:44 | 02:11:40 | 00:00:00 | |
| GOEST3-10 | 2026-09-04 05:42:57 | 52.49690 | 9.35058 | 104° | 155km/h | 9971m | -15.6m/s | -39.5°C | 50.2% | 281.2hPa | 2.6V | 00:00:00 | 02:11:45 | 00:00:00 | |
| DL1XH1-15 | 2026-09-04 05:42:56 | 52.49743 | 9.34680 | 102° | 159km/h | 10064m | -16.3m/s | -40.4°C | 48.7% | 277.4hPa | 2.6V | 08:16:45 | 02:11:39 | 00:00:00 | |
| DL1XH-west | 2026-09-04 05:42:56 | 52.49699 | 9.34997 | 104° | 155km/h | 9986m | -16m/s | -39.7°C | 55.3% | 280.7hPa | 2.5V | 08:17:30 | 02:11:44 | 00:00:00 | |
| DB0DAN | 2026-09-04 05:42:55 | 52.49708 | 9.34934 | 103° | 150km/h | 10001m | -15.8m/s | -39.8°C | 45.7% | 280.07hPa | 2.5V | 00:00:00 | 00:00:00 | 00:00:00 | |
| AA1-15 | 2026-09-04 05:42:54 | 52.49717 | 9.34870 | 103° | 157km/h | 10017m | -15.4m/s | -39.9°C | 54.7% | 279.3hPa | 2.5V | 08:17:30 | 02:11:42 | 00:00:00 | |
| DO2SHX-10 | 2026-09-04 05:42:52 | 52.49734 | 9.34744 | 104° | 157km/h | 10048m | -16.5m/s | -40.2°C | 48.8% | 278.1hPa | 2.6V | 00:00:00 | 02:11:40 | 00:00:00 | |
| DO2LYB-13 | 2026-09-04 05:42:51 | 52.49734 | 9.34744 | 104° | 159km/h | 10048m | -16.6m/s | -40.2°C | 44.9% | 278.1hPa | 2.6V | 00:00:00 | 00:00:00 | 00:00:00 | |
| DL1NUX | 2026-09-04 05:42:50 | 52.49796 | 9.34297 | 102° | 157km/h | 10161m | -15.7m/s | -41.2°C | 47.6% | 273.5hPa | 2.6V | 08:16:51 | 02:11:33 | 00:00:00 | |
| DF8AY | 2026-09-04 05:42:49 | 52.49760 | 9.34553 | 103° | 155km/h | 10097m | -16.7m/s | -40.7°C | 54.4% | 276.2hPa | 2.5V | 08:17:30 | 02:11:37 | 00:00:00 | |
| DO2JMG | 2026-09-04 05:42:48 | 52.49769 | 9.34490 | 104° | 159km/h | 10113m | -16.8m/s | -40.8°C | 54.4% | 275.4hPa | 2.5V | 08:17:30 | 02:11:36 | 00:00:00 | |
| SO1NDE-10 | 2026-09-04 05:42:48 | 52.49769 | 9.34490 | 104° | 166km/h | 10113m | -16.7m/s | -40.8°C | 48.4% | 275.4hPa | 2.5V | 00:00:00 | 02:11:36 | 00:00:00 | |
| DM0DOS-11 | 2026-09-04 05:42:47 | 52.49824 | 9.34103 | 102° | 162km/h | 10209m | -15.9m/s | -41.7°C | 48.6% | 271.5hPa | 2.5V | 08:16:54 | 02:11:30 | 00:00:00 | |
| GOEST3-10 | 2026-09-04 05:42:47 | 52.49779 | 9.34426 | 103° | 161km/h | 10130m | -16.7m/s | -40.9°C | 48.1% | 274.8hPa | 2.5V | 08:16:00 | 02:11:35 | 00:00:00 | |
| DL1XH1-15 | 2026-09-04 05:42:46 | 52.49833 | 9.34038 | 102° | 161km/h | 10225m | -15.6m/s | -41.8°C | 48.9% | 270.9hPa | 2.6V | 08:16:55 | 02:11:29 | 00:00:00 | |
| DL1XH-west | 2026-09-04 05:42:45 | 52.49796 | 9.34297 | 103° | 157km/h | 10161m | -15.7m/s | -41.3°C | 53.6% | 273.5hPa | 2.6V | 08:17:30 | 02:11:33 | 00:00:00 | |
| AA1-15 | 2026-09-04 05:42:44 | 52.49805 | 9.34233 | 104° | 159km/h | 10177m | -16.3m/s | -41.4°C | 53.9% | 272.9hPa | 2.5V | 08:17:30 | 02:11:32 | 00:00:00 | |
| HSKMA3-T | 2026-09-04 05:42:42 | 52.49833 | 9.34038 | 102° | 161km/h | 10225m | -15.6m/s | -41.8°C | 54.8% | 270.9hPa | 2.6V | 08:17:30 | 02:11:29 | 00:00:00 | |
| DB0NH | 2026-09-04 05:42:42 | 52.49824 | 9.34103 | 103° | 166km/h | 10210m | -15.9m/s | -41.7°C | 48.6% | 271.5hPa | 2.6V | 00:00:00 | 02:11:30 | 00:00:00 | |
| DB0DAN | 2026-09-04 05:42:40 | 52.49842 | 9.33973 | 103° | 155km/h | 10241m | -16.4m/s | -42°C | 44.6% | 270.35hPa | 2.6V | 00:00:00 | 00:00:00 | 00:00:00 | |
| BIOWL1-15 | 2026-09-04 05:42:39 | 52.49851 | 9.33907 | 103° | 164km/h | 10257m | -16m/s | -42.1°C | 54.7% | 269.7hPa | 2.5V | 08:17:30 | 02:11:27 | 00:00:00 | |
| DO2JMG | 2026-09-04 05:42:38 | 52.49860 | 9.33841 | 102° | 162km/h | 10272m | -15.7m/s | -42.3°C | 54.4% | 269hPa | 2.5V | 08:17:30 | 02:11:26 | 00:00:00 | |
| DL4BBY-15 | 2026-09-04 05:42:38 | 52.49860 | 9.33841 | 103° | 166km/h | 10273m | -15.7m/s | -43.2°C | 0% | 0hPa | 2.5V | 00:00:00 | 00:00:00 | 00:00:00 | |
| DM0DOS-11 | 2026-09-04 05:42:37 | 52.49915 | 9.33439 | 103° | 168km/h | 10367m | -16.1m/s | -43.1°C | 45.3% | 265.4hPa | 2.5V | 08:17:04 | 02:11:20 | 00:00:00 | |
| DO2SHX-10 | 2026-09-04 05:42:37 | 52.49869 | 9.33775 | 103° | 166km/h | 10288m | -15.8m/s | -42.4°C | 48.0% | 268.4hPa | 2.6V | 00:00:00 | 02:11:25 | 00:00:00 | |
| DL1XH1-15 | 2026-09-04 05:42:36 | 52.49924 | 9.33372 | 102° | 168km/h | 10383m | -16.2m/s | -43.2°C | 45% | 264.7hPa | 2.6V | 08:17:05 | 02:11:19 | 00:00:00 | |
| DB0UT-7 | 2026-09-04 05:42:36 | 52.49878 | 9.33709 | 104° | 168km/h | 10303m | -16.0m/s | -42.5°C | 47.2% | 267.8hPa | 2.6V | 00:00:00 | 00:00:00 | 00:00:00 | |
| DL1XH-15 | 2026-09-04 05:42:35 | 52.49933 | 9.33304 | 101° | 166km/h | 10399m | -16.2m/s | -43.4°C | 44.9% | 264hPa | 2.6V | 08:17:06 | 02:11:18 | 00:00:00 | |
| DL1XH-west | 2026-09-04 05:42:34 | 52.49897 | 9.33574 | 102° | 166km/h | 10335m | -15.4m/s | -42.8°C | 52.2% | 266.5hPa | 2.5V | 08:17:30 | 02:11:22 | 00:00:00 | |
| AA1-15 | 2026-09-04 05:42:33 | 52.49906 | 9.33507 | 103° | 166km/h | 10350m | -16.2m/s | -42.9°C | 51.9% | 266hPa | 2.5V | 08:17:30 | 02:11:21 | 00:00:00 | |
| HSKMA3-T | 2026-09-04 05:42:32 | 52.49924 | 9.33372 | 102° | 168km/h | 10383m | -16.2m/s | -43.2°C | 51.5% | 264.7hPa | 2.6V | 08:17:30 | 02:11:19 | 00:00:00 | |
| DF8AY | 2026-09-04 05:42:28 | 52.49951 | 9.33170 | 102° | 166km/h | 10433m | -17.6m/s | -43.6°C | 50.6% | 262.9hPa | 2.5V | 08:17:30 | 02:11:16 | 00:00:00 | |
| DO2SHX-10 | 2026-09-04 05:42:28 | 52.49951 | 9.33170 | 103° | 166km/h | 10433m | -17.5m/s | -43.6°C | 43.9% | 262.8hPa | 2.5V | 00:00:00 | 02:11:16 | 00:00:00 | |
| DM0DOS-11 | 2026-09-04 05:42:27 | 52.50005 | 9.32768 | 101° | 168km/h | 10532m | -16.4m/s | -44.5°C | 44.2% | 259hPa | 2.5V | 08:17:14 | 02:11:10 | 00:00:00 | |
| DO2JMG | 2026-09-04 05:42:27 | 52.49960 | 9.33103 | 102° | 166km/h | 10450m | -17.2m/s | -43.8°C | 50.8% | 262.1hPa | 2.5V | 08:17:30 | 02:11:15 | 00:00:00 | |
| GOEST3-10 | 2026-09-04 05:42:27 | 52.49960 | 9.33103 | 103° | 166km/h | 10450m | -17.1m/s | -43.7°C | 44.2% | 262.1hPa | 2.6V | 00:00:00 | 02:11:15 | 00:00:00 | |
| DL1XH-15 | 2026-09-04 05:42:25 | 52.50022 | 9.32633 | 102° | 166km/h | 10565m | -16.9m/s | -44.8°C | 44.3% | 257.6hPa | 2.6V | 08:17:16 | 02:11:08 | 00:00:00 | |
| DL1XH-west | 2026-09-04 05:42:24 | 52.49987 | 9.32902 | 103° | 164km/h | 10499m | -16.6m/s | -44.2°C | 51% | 260.2hPa | 2.5V | 08:17:30 | 02:11:12 | 00:00:00 | |
| AA1-15 | 2026-09-04 05:42:23 | 52.49996 | 9.32835 | 103° | 166km/h | 10516m | -16.4m/s | -44.4°C | 50.9% | 259.6hPa | 2.5V | 08:17:30 | 02:11:11 | 00:00:00 | |
| DL4XJ-10 | 2026-09-04 05:42:23 | 52.49996 | 9.32835 | 103° | 168km/h | 10516m | -16.3m/s | -45.3°C | 0% | 0hPa | 2.5V | 00:00:00 | 00:00:00 | 00:00:00 | |
| DL1NUX | 2026-09-04 05:42:22 | 52.50049 | 9.32428 | 101° | 170km/h | 10616m | -16.2m/s | -45.3°C | 44.1% | 255.7hPa | 2.5V | 08:17:19 | 02:11:05 | 00:00:00 | |
| HSKMA3-T | 2026-09-04 05:42:21 | 52.50022 | 9.32633 | 102° | 166km/h | 10565m | -16.9m/s | -44.8°C | 50.9% | 257.6hPa | 2.6V | 08:17:30 | 02:11:08 | 00:00:00 | |
| BIOWL1-15 | 2026-09-04 05:42:18 | 52.50040 | 9.32497 | 102° | 170km/h | 10599m | -16.6m/s | -45.1°C | 50.8% | 256.3hPa | 2.5V | 08:17:30 | 02:11:06 | 00:00:00 | |
| DO2JMG | 2026-09-04 05:42:17 | 52.50049 | 9.32428 | 101° | 170km/h | 10616m | -16.2m/s | -45.3°C | 50.7% | 255.7hPa | 2.5V | 08:17:30 | 02:11:05 | 00:00:00 | |
| HTAHTA | 2026-09-04 05:42:17 | 52.50057 | 9.32360 | 101° | 166km/h | 10632m | -16.9m/s | -45.4°C | 39.5% | 255.2hPa | 2.6V | 00:00:00 | 00:00:00 | 00:00:00 | |
| DL1XH1-15 | 2026-09-04 05:42:16 | 52.50098 | 9.32017 | 100° | 168km/h | 10716m | -16.6m/s | -46.2°C | 40.5% | 252hPa | 2.6V | 08:17:25 | 02:10:59 | 00:00:00 | |
| DL1XH-15 | 2026-09-04 05:42:16 | 52.50106 | 9.31950 | 100° | 164km/h | 10733m | -16.6m/s | -46.3°C | 39.5% | 251.3hPa | 2.6V | 08:17:26 | 02:10:58 | 00:00:00 | |
| AA1-15 | 2026-09-04 05:42:13 | 52.50082 | 9.32156 | 102° | 170km/h | 10682m | -16.9m/s | -45.9°C | 48.9% | 253.3hPa | 2.5V | 08:17:30 | 02:11:01 | 00:00:00 | |
| HSKMA3-T | 2026-09-04 05:42:11 | 52.50106 | 9.31950 | 101° | 164km/h | 10733m | -16.6m/s | -46.4°C | 46.1% | 251.3hPa | 2.6V | 08:17:30 | 02:10:58 | 00:00:00 | |
| BIOWL1-15 | 2026-09-04 05:42:07 | 52.50149 | 9.31613 | 102° | 164km/h | 10817m | -15.7m/s | -47.1°C | 44.3% | 248.2hPa | 2.6V | 08:18:21 | 02:10:53 | 00:00:00 | |
| DO2SHX-10 | 2026-09-04 05:42:07 | 52.50132 | 9.31747 | 102° | 166km/h | 10785m | -16.7m/s | -46.7°C | 38.0% | 249.4hPa | 2.6V | 00:00:00 | 02:10:55 | 00:00:00 | |
| DO2JMG | 2026-09-04 05:42:07 | 52.50132 | 9.31747 | 101° | 168km/h | 10785m | -16.7m/s | -46.8°C | 44.4% | 249.5hPa | 2.5V | 08:17:30 | 02:10:55 | 00:00:00 | |
| DB0UT-7 | 2026-09-04 05:42:06 | 52.50140 | 9.31680 | 102° | 162km/h | 10802m | -16.1m/s | -46.9°C | 38.0% | 248.8hPa | 2.6V | 00:00:00 | 02:10:54 | 00:00:00 | |
| DL1XH-15 | 2026-09-04 05:42:05 | 52.50193 | 9.31280 | 101° | 166km/h | 10898m | -16.3m/s | -47.8°C | 37% | 245.2hPa | 2.6V | 08:17:36 | 02:10:48 | 00:00:00 | |
| DL1XH-west | 2026-09-04 05:42:02 | 52.50175 | 9.31413 | 102° | 162km/h | 10866m | -16.2m/s | -47.5°C | 43.4% | 246.4hPa | 2.5V | 08:18:21 | 02:10:50 | 00:00:00 | |
| HSKMA3-T | 2026-09-04 05:41:59 | 52.50201 | 9.31213 | 102° | 162km/h | 10914m | -16.3m/s | -47.9°C | 43.6% | 244.6hPa | 2.5V | 08:18:21 | 02:10:47 | 00:00:00 | |
| DO2SHX-10 | 2026-09-04 05:41:58 | 52.50210 | 9.31147 | 103° | 164km/h | 10930m | -16.5m/s | -48.1°C | 37.6% | 243.9hPa | 2.5V | 00:00:00 | 02:10:46 | 00:00:00 | |
| DM0DOS-11 | 2026-09-04 05:41:57 | 52.50261 | 9.30750 | 101° | 161km/h | 11029m | -16.3m/s | -49°C | 39.1% | 240.3hPa | 2.5V | 08:17:44 | 02:10:40 | 00:00:00 | |
| DO2JMG | 2026-09-04 05:41:57 | 52.50218 | 9.31081 | 102° | 166km/h | 10946m | -16.4m/s | -48.3°C | 44.2% | 243.4hPa | 2.5V | 08:18:21 | 02:10:45 | 00:00:00 | |
| DF8AY | 2026-09-04 05:41:56 | 52.50227 | 9.31015 | 101° | 162km/h | 10963m | -16.5m/s | -48.4°C | 44.4% | 242.8hPa | 2.6V | 08:18:21 | 02:10:44 | 00:00:00 | |
| DL1XH-15 | 2026-09-04 05:41:55 | 52.50279 | 9.30618 | 102° | 164km/h | 11061m | -16.5m/s | -49.2°C | 39.5% | 239.1hPa | 2.6V | 08:17:46 | 02:10:38 | 00:00:00 | |
| DB0ND-19 | 2026-09-04 05:41:54 | 52.50253 | 9.30816 | 101° | 162km/h | 11013m | -16.5m/s | -48.8°C | 34.3% | 240.9hPa | 2.5V | 00:00:00 | 00:00:00 | 00:00:00 | |
| DL1NUX | 2026-09-04 05:41:52 | 52.50306 | 9.30421 | 102° | 164km/h | 11111m | -16.8m/s | -49.7°C | 40.5% | 237.3hPa | 2.5V | 08:17:49 | 02:10:35 | 00:00:00 | |
| DL1XH-west | 2026-09-04 05:41:51 | 52.50270 | 9.30685 | 103° | 162km/h | 11045m | -16.6m/s | -49.1°C | 45.7% | 239.7hPa | 2.6V | 08:18:21 | 02:10:39 | 00:00:00 | |
| HSKMA3-T | 2026-09-04 05:41:49 | 52.50288 | 9.30552 | 102° | 162km/h | 11078m | -16.6m/s | -49.4°C | 46.4% | 238.6hPa | 2.5V | 08:18:21 | 02:10:37 | 00:00:00 | |
| DO2SHX-10 | 2026-09-04 05:41:49 | 52.50288 | 9.30552 | 102° | 162km/h | 11078m | -16.5m/s | -49.3°C | 39.8% | 238.5hPa | 2.5V | 00:00:00 | 02:10:37 | 00:00:00 | |
| DF2AP-13 | 2026-09-04 05:41:48 | 52.50296 | 9.30487 | 103° | 161km/h | 11095m | -16.9m/s | -49.5°C | 40.2% | 237.9hPa | 2.5V | 00:00:00 | 02:10:36 | 00:00:00 | |
| DM0DOS-11 | 2026-09-04 05:41:47 | 52.50349 | 9.30094 | 101° | 159km/h | 11195m | -16.9m/s | -50.5°C | 42.9% | 234.3hPa | 2.5V | 08:17:54 | 02:10:30 | 00:00:00 | |
| BIOWL1-15 | 2026-09-04 05:41:46 | 52.50323 | 9.30290 | 103° | 161km/h | 11145m | -16.5m/s | -50°C | 48.2% | 236.2hPa | 2.6V | 08:18:21 | 02:10:33 | 00:00:00 | |
| DF8AY | 2026-09-04 05:41:46 | 52.50314 | 9.30355 | 102° | 161km/h | 11128m | -16.5m/s | -49.8°C | 47.7% | 236.7hPa | 2.6V | 08:18:21 | 02:10:34 | 00:00:00 | |
| HTAHTA | 2026-09-04 05:41:46 | 52.50323 | 9.30290 | 102° | 159km/h | 11145m | -16.5m/s | -50.0°C | 36.6% | 236.2hPa | 2.5V | 00:00:00 | 00:00:00 | 00:00:00 | |
| DD8BA-10 | 2026-09-04 05:41:45 | 52.50323 | 9.30290 | 103° | 161km/h | 11145m | -16.5m/s | -49.9°C | 41.5% | 236.1hPa | 2.5V | 00:00:00 | 00:00:00 | 00:00:00 | |
| DL4XJ-10 | 2026-09-04 05:41:43 | 52.50340 | 9.30159 | 102° | 159km/h | 11178m | -16.7m/s | -51.2°C | 0% | 0hPa | 2.5V | 00:00:00 | 00:00:00 | 00:00:00 | |
| DL1NUX | 2026-09-04 05:41:42 | 52.50390 | 9.29769 | 101° | 161km/h | 11278m | -17m/s | -51.3°C | 45.4% | 231.3hPa | 2.5V | 08:17:59 | 02:10:25 | 00:00:00 | |
| DL1XH-west | 2026-09-04 05:41:41 | 52.50357 | 9.30029 | 102° | 161km/h | 11211m | -17.2m/s | -50.6°C | 50% | 233.8hPa | 2.6V | 08:18:21 | 02:10:29 | 00:00:00 | |
| DB0DAN | 2026-09-04 05:41:40 | 52.50365 | 9.29964 | 102° | 155km/h | 11228m | -17m/s | -50.8°C | 38.7% | 233.15hPa | 2.6V | 00:00:00 | 00:00:00 | 00:00:00 | |
| HSKMA3-T | 2026-09-04 05:41:39 | 52.50382 | 9.29834 | 102° | 159km/h | 11261m | -16.9m/s | -51.1°C | 51.5% | 231.9hPa | 2.5V | 08:18:21 | 02:10:26 | 00:00:00 | |
| SMARD9-15 | 2026-09-04 05:41:38 | 52.50390 | 9.29769 | 101° | 159km/h | 11278m | -17.0m/s | -51.3°C | 40.0% | 231.3hPa | 2.5V | 00:00:00 | 00:00:00 | 00:00:00 | |
| DO2SHX-10 | 2026-09-04 05:41:37 | 52.50390 | 9.29769 | 102° | 159km/h | 11279m | -16.9m/s | -51.2°C | 45.4% | 231.3hPa | 2.5V | 08:17:00 | 02:10:25 | 00:00:00 | |
| DL1XH1-15 | 2026-09-04 05:41:36 | 52.50437 | 9.29382 | 101° | 159km/h | 11380m | -17.2m/s | -52.2°C | 48.5% | 227.7hPa | 2.6V | 08:18:05 | 02:10:19 | 00:00:00 | |
| DO2JMG | 2026-09-04 05:41:35 | 52.50406 | 9.29640 | 101° | 157km/h | 11312m | -16.9m/s | -51.6°C | 53.1% | 230.1hPa | 2.6V | 08:18:21 | 02:10:23 | 00:00:00 | |
| DD8BA-10 | 2026-09-04 05:41:35 | 52.50406 | 9.29640 | 102° | 159km/h | 11312m | -16.8m/s | -51.5°C | 46.5% | 230.1hPa | 2.6V | 00:00:00 | 00:00:00 | 00:00:00 | |
| DO2SHX-10 | 2026-09-04 05:41:34 | 52.50414 | 9.29576 | 102° | 159km/h | 11329m | -17.4m/s | -51.7°C | 46.8% | 229.5hPa | 2.5V | 00:00:00 | 02:10:22 | 00:00:00 | |
| EDDB2-12 | 2026-09-04 05:41:33 | 52.50429 | 9.29446 | 100° | 157km/h | 11363m | -17.0m/s | -52.1°C | 42.3% | 228.3hPa | 2.5V | 00:00:00 | 00:00:00 | 00:00:00 | |
| DL1NUX | 2026-09-04 05:41:32 | 52.50469 | 9.29123 | 101° | 161km/h | 11448m | -17.4m/s | -52.9°C | 50.8% | 225.3hPa | 2.5V | 08:18:09 | 02:10:15 | 00:00:00 | |
| DL1XH-west | 2026-09-04 05:41:30 | 52.50445 | 9.29317 | 102° | 161km/h | 11398m | -17.2m/s | -52.4°C | 55.9% | 227.1hPa | 2.6V | 08:18:21 | 02:10:18 | 00:00:00 | |
| HSKMA3-T | 2026-09-04 05:41:27 | 52.50469 | 9.29123 | 102° | 161km/h | 11448m | -17.4m/s | -52.9°C | 57.5% | 225.3hPa | 2.5V | 08:18:21 | 02:10:15 | 00:00:00 | |
| DF5WG-10 | 2026-09-04 05:41:27 | 52.50469 | 9.29123 | 102° | 161km/h | 11448m | -17.4m/s | -52.8°C | 50.8% | 225.3hPa | 2.5V | 00:00:00 | 02:10:15 | 00:00:00 | |
| DL1XH1-15 | 2026-09-04 05:41:26 | 52.50517 | 9.28734 | 101° | 159km/h | 11550m | -16.9m/s | -53.8°C | 53.7% | 221.8hPa | 2.5V | 08:18:15 | 02:10:09 | 00:00:00 | |
| BIOWL1-15 | 2026-09-04 05:41:25 | 52.50485 | 9.28993 | 101° | 159km/h | 11483m | -17.1m/s | -53.2°C | 58.4% | 224.2hPa | 2.6V | 08:18:21 | 02:10:13 | 00:00:00 | |
| DO2JMG | 2026-09-04 05:41:24 | 52.50493 | 9.28929 | 102° | 159km/h | 11500m | -17m/s | -53.4°C | 58.8% | 223.6hPa | 2.5V | 08:18:21 | 02:10:12 | 00:00:00 | |
| DL3AQ-11 | 2026-09-04 05:41:23 | 52.50509 | 9.28799 | 100° | 159km/h | 11534m | -16.7m/s | -53.7°C | 46.9% | 222.4hPa | 2.5V | 00:00:00 | 00:00:00 | 00:00:00 | |
| DL1NUX | 2026-09-04 05:41:22 | 52.50548 | 9.28474 | 101° | 159km/h | 11618m | -17m/s | -54.5°C | 55.6% | 219.5hPa | 2.5V | 08:18:19 | 02:10:05 | 00:00:00 | |
| DL1XH-west | 2026-09-04 05:41:20 | 52.50525 | 9.28670 | 102° | 161km/h | 11567m | -17.4m/s | -54°C | 60.2% | 221.2hPa | 2.6V | 08:18:21 | 02:10:08 | 00:00:00 | |
| AA1-15 | 2026-09-04 05:41:19 | 52.50533 | 9.28604 | 101° | 161km/h | 11584m | -17m/s | -54.1°C | 60.6% | 220.6hPa | 2.6V | 08:18:21 | 02:10:07 | 00:00:00 | |
| HSKMA3-T | 2026-09-04 05:41:16 | 52.50557 | 9.28409 | 102° | 162km/h | 11635m | -17.3m/s | -54.6°C | 61.8% | 218.8hPa | 2.5V | 08:18:21 | 02:10:04 | 00:00:00 | |
| DO2SHX-10 | 2026-09-04 05:41:16 | 52.50556 | 9.28409 | 102° | 161km/h | 11635m | -17.2m/s | -54.6°C | 56.2% | 218.8hPa | 2.5V | 00:00:00 | 02:10:04 | 00:00:00 | |
| DL1XH-15 | 2026-09-04 05:41:15 | 52.50605 | 9.28016 | 102° | 162km/h | 11735m | -16.9m/s | -55.4°C | 58% | 215.5hPa | 2.5V | 08:18:26 | 02:09:58 | 00:00:00 | |
| BIOWL1-15 | 2026-09-04 05:41:14 | 52.50589 | 9.28147 | 101° | 164km/h | 11702m | -16.7m/s | -55.2°C | 63.1% | 216.6hPa | 2.5V | 08:19:12 | 02:10:00 | 00:00:00 | |
| DM0DOS-11 | 2026-09-04 05:41:14 | 52.50589 | 9.28147 | 101° | 162km/h | 11702m | -16.7m/s | -55.1°C | 57.9% | 216.6hPa | 2.5V | 08:18:24 | 02:10:00 | 00:00:00 | |
| DO2JMG | 2026-09-04 05:41:14 | 52.50572 | 9.28278 | 102° | 159km/h | 11669m | -16.9m/s | -54.9°C | 62.5% | 217.7hPa | 2.6V | 08:19:12 | 02:10:02 | 00:00:00 | |
| DO2SHX-10 | 2026-09-04 05:41:13 | 52.50581 | 9.28213 | 103° | 162km/h | 11685m | -16.9m/s | -55.0°C | 57.6% | 217.1hPa | 2.5V | 00:00:00 | 02:10:01 | 00:00:00 | |
| DL1NUX | 2026-09-04 05:41:12 | 52.50631 | 9.27820 | 102° | 162km/h | 11787m | -18.3m/s | -55.9°C | 58.6% | 213.7hPa | 2.5V | 08:18:29 | 02:09:55 | 00:00:00 | |
| GOEST3-10 | 2026-09-04 05:41:12 | 52.50589 | 9.28147 | 102° | 162km/h | 11702m | -16.6m/s | -55.1°C | 57.9% | 216.5hPa | 2.5V | 00:00:00 | 00:00:00 | 00:00:00 | |
| DL8OAI-8 | 2026-09-04 05:41:11 | 52.50589 | 9.28147 | 102° | 164km/h | 11702m | -16.7m/s | -55.2°C | 51.1% | 216.6hPa | 2.5V | 08:19:00 | 00:00:00 | 00:00:00 | |
| DB0DAN | 2026-09-04 05:41:10 | 52.50606 | 9.28016 | 102° | 153km/h | 11735m | -16.9m/s | -55.4°C | 51.1% | 215.48hPa | 2.5V | 00:00:00 | 00:00:00 | 00:00:00 | |
| DL1XH-west | 2026-09-04 05:41:09 | 52.50614 | 9.27951 | 101° | 162km/h | 11752m | -17.1m/s | -55.6°C | 63.7% | 214.9hPa | 2.6V | 08:19:12 | 02:09:57 | 00:00:00 | |
| AA1-15 | 2026-09-04 05:41:08 | 52.50622 | 9.27885 | 102° | 159km/h | 11769m | -17.3m/s | -55.7°C | 64% | 214.4hPa | 2.6V | 08:19:12 | 02:09:56 | 00:00:00 | |
| DM0DOS-11 | 2026-09-04 05:41:07 | 52.50672 | 9.27491 | 101° | 164km/h | 11876m | -18m/s | -56.6°C | 60% | 210.9hPa | 2.6V | 08:18:34 | 02:09:50 | 00:00:00 | |
| HSKMA3-T | 2026-09-04 05:41:06 | 52.50639 | 9.27755 | 101° | 162km/h | 11805m | -17.9m/s | -56°C | 64.6% | 213.2hPa | 2.5V | 08:19:12 | 02:09:54 | 00:00:00 | |
| DL1XH1-15 | 2026-09-04 05:41:06 | 52.50680 | 9.27425 | 101° | 161km/h | 11894m | -17.8m/s | -56.7°C | 60.3% | 210.2hPa | 2.6V | 08:18:35 | 02:09:49 | 00:00:00 | |
| DF8AY | 2026-09-04 05:41:04 | 52.50655 | 9.27623 | 102° | 161km/h | 11840m | -17.4m/s | -56.3°C | 65.5% | 212hPa | 2.5V | 08:19:12 | 02:09:52 | 00:00:00 | |
| BIOWL1-15 | 2026-09-04 05:41:03 | 52.50664 | 9.27558 | 102° | 162km/h | 11857m | -17.8m/s | -56.4°C | 65.8% | 211.4hPa | 2.6V | 08:19:12 | 02:09:51 | 00:00:00 | |
| DL4XJ-10 | 2026-09-04 05:41:03 | 52.50664 | 9.27558 | 103° | 162km/h | 11858m | -17.8m/s | -57.3°C | 0% | 0hPa | 2.6V | 00:00:00 | 00:00:00 | 00:00:00 | |
| DL1NUX | 2026-09-04 05:41:02 | 52.50714 | 9.27162 | 101° | 162km/h | 11965m | -17.6m/s | -57°C | 60.5% | 207.8hPa | 2.6V | 08:18:39 | 02:09:45 | 00:00:00 | |
| DL1XH-west | 2026-09-04 05:40:58 | 52.50706 | 9.27228 | 101° | 164km/h | 11948m | -17.7m/s | -56.9°C | 67% | 208.5hPa | 2.5V | 08:19:12 | 02:09:46 | 00:00:00 | |
| DL4BBY-15 | 2026-09-04 05:40:58 | 52.50706 | 9.27228 | 102° | 164km/h | 11948m | -17.7m/s | -57.8°C | 0% | 0hPa | 2.6V | 00:00:00 | 00:00:00 | 00:00:00 | |
| DF5WG-10 | 2026-09-04 05:40:57 | 52.50714 | 9.27162 | 102° | 162km/h | 11966m | -17.6m/s | -56.9°C | 60.5% | 207.8hPa | 2.6V | 00:00:00 | 02:09:45 | 00:00:00 | |
| DL1XH1-15 | 2026-09-04 05:40:56 | 52.50762 | 9.26766 | 101° | 164km/h | 12072m | -17.8m/s | -57.7°C | 60.2% | 204.4hPa | 2.6V | 08:18:45 | 02:09:39 | 00:00:00 | |
| HSKMA3-T | 2026-09-04 05:40:56 | 52.50730 | 9.27030 | 102° | 164km/h | 12001m | -17.7m/s | -57.2°C | 67.2% | 206.7hPa | 2.5V | 08:19:12 | 02:09:43 | 00:00:00 | |
| DL3AQ-11 | 2026-09-04 05:40:56 | 52.50730 | 9.27030 | 102° | 162km/h | 12001m | -17.7m/s | -57.2°C | 53.0% | 206.7hPa | 2.5V | 00:00:00 | 00:00:00 | 00:00:00 | |
| DB0DAN | 2026-09-04 05:40:55 | 52.50730 | 9.27030 | 102° | 157km/h | 12001m | -17.7m/s | -57.2°C | 53% | 206.68hPa | 2.5V | 00:00:00 | 00:00:00 | 00:00:00 | |
| DO2JMG | 2026-09-04 05:40:53 | 52.50746 | 9.26898 | 101° | 162km/h | 12036m | -17.6m/s | -57.5°C | 67% | 205.6hPa | 2.5V | 08:19:12 | 02:09:41 | 00:00:00 | |
| BIOWL1-15 | 2026-09-04 05:40:52 | 52.50754 | 9.26832 | 101° | 162km/h | 12054m | -17.8m/s | -57.6°C | 67% | 205hPa | 2.5V | 08:19:12 | 02:09:40 | 00:00:00 | |
| DO2SHX-10 | 2026-09-04 05:40:52 | 52.50754 | 9.26832 | 102° | 164km/h | 12054m | -17.7m/s | -57.5°C | 60.4% | 204.9hPa | 2.5V | 00:00:00 | 02:09:40 | 00:00:00 | |
| DL8OAI-8 | 2026-09-04 05:40:51 | 52.50754 | 9.26832 | 102° | 162km/h | 12054m | -17.8m/s | -57.6°C | 53.0% | 205.0hPa | 2.6V | 08:19:00 | 00:00:00 | 00:00:00 | |
| DJ2DS-15 | 2026-09-04 05:40:50 | 52.50770 | 9.26699 | 101° | 164km/h | 12090m | -17.2m/s | -57.8°C | 60.1% | 203.8hPa | 2.6V | 00:00:00 | 02:09:38 | 00:00:00 | |
| DO2SHX-10 | 2026-09-04 05:40:49 | 52.50778 | 9.26632 | 102° | 164km/h | 12107m | -17.6m/s | -58.0°C | 60.1% | 203.2hPa | 2.5V | 00:00:00 | 02:09:37 | 00:00:00 | |
| DF2AP-13 | 2026-09-04 05:40:48 | 52.50786 | 9.26567 | 102° | 166km/h | 12124m | -18.1m/s | -58.1°C | 60.3% | 202.7hPa | 2.5V | 00:00:00 | 02:09:36 | 00:00:00 | |
| DM0DOS-11 | 2026-09-04 05:40:47 | 52.50835 | 9.26165 | 101° | 164km/h | 12229m | -17.1m/s | -59°C | 61.6% | 199.3hPa | 2.5V | 08:18:54 | 02:09:30 | 00:00:00 | |
| DL1XH-west | 2026-09-04 05:40:47 | 52.50794 | 9.26500 | 101° | 164km/h | 12142m | -17.6m/s | -58.4°C | 66.7% | 202.1hPa | 2.5V | 08:19:12 | 02:09:35 | 00:00:00 | |
| HSKMA3-T | 2026-09-04 05:40:45 | 52.50819 | 9.26300 | 102° | 166km/h | 12194m | -17.9m/s | -58.8°C | 66.6% | 200.5hPa | 2.6V | 08:19:12 | 02:09:32 | 00:00:00 | |
| DF8AY | 2026-09-04 05:40:43 | 52.50827 | 9.26232 | 101° | 166km/h | 12212m | -17.6m/s | -58.9°C | 66.7% | 199.8hPa | 2.5V | 08:19:12 | 02:09:31 | 00:00:00 | |
| DO2JMG | 2026-09-04 05:40:42 | 52.50835 | 9.26165 | 101° | 164km/h | 12230m | -17.1m/s | -59°C | 66.8% | 199.3hPa | 2.5V | 08:19:12 | 02:09:30 | 00:00:00 | |
| DL1XH-west | 2026-09-04 05:40:37 | 52.50878 | 9.25830 | 103° | 164km/h | 12316m | -17.4m/s | -59.7°C | 65.5% | 196.5hPa | 2.6V | 08:19:12 | 02:09:25 | 00:00:00 | |
| DO2SHX-10 | 2026-09-04 05:40:37 | 52.50878 | 9.25830 | 103° | 166km/h | 12316m | -17.3m/s | -59.6°C | 60.6% | 196.5hPa | 2.6V | 00:00:00 | 02:09:25 | 00:00:00 | |
| DL1XH1-15 | 2026-09-04 05:40:36 | 52.50932 | 9.25428 | 103° | 162km/h | 12421m | -17.3m/s | -60.5°C | 55.6% | 193.3hPa | 2.6V | 08:19:05 | 02:09:19 | 00:00:00 | |
| AA1-15 | 2026-09-04 05:40:36 | 52.50887 | 9.25763 | 102° | 168km/h | 12334m | -17.8m/s | -59.8°C | 64.6% | 196.1hPa | 2.5V | 08:19:12 | 02:09:24 | 00:00:00 | |
| HSKMA3-T | 2026-09-04 05:40:34 | 52.50905 | 9.25629 | 103° | 164km/h | 12369m | -17.6m/s | -60.1°C | 62.7% | 195hPa | 2.5V | 08:19:12 | 02:09:22 | 00:00:00 | |
| DF8AY | 2026-09-04 05:40:32 | 52.50923 | 9.25495 | 102° | 166km/h | 12404m | -17.2m/s | -60.4°C | 60.7% | 193.8hPa | 2.6V | 08:19:12 | 02:09:20 | 00:00:00 | |
| BIOWL1-15 | 2026-09-04 05:40:31 | 52.50932 | 9.25428 | 103° | 162km/h | 12421m | -17.3m/s | -60.6°C | 59.6% | 193.3hPa | 2.6V | 08:19:12 | 02:09:19 | 00:00:00 | |
| EDDB2-12 | 2026-09-04 05:40:31 | 52.50942 | 9.25362 | 103° | 164km/h | 12438m | -17.7m/s | -60.7°C | 47.1% | 192.7hPa | 2.6V | 00:00:00 | 00:00:00 | 00:00:00 | |
| DJ2DS-15 | 2026-09-04 05:40:30 | 52.50942 | 9.25362 | 104° | 168km/h | 12438m | -17.7m/s | -60.6°C | 55.1% | 192.7hPa | 2.6V | 00:00:00 | 02:09:18 | 00:00:00 | |
| DL1NUX | 2026-09-04 05:40:29 | 52.51001 | 9.24961 | 104° | 166km/h | 12544m | -18m/s | -61.6°C | 51% | 189.5hPa | 2.6V | 08:19:12 | 02:09:12 | 00:00:00 | |
| DL1XH-west | 2026-09-04 05:40:27 | 52.50971 | 9.25162 | 104° | 166km/h | 12491m | -17.7m/s | -61.1°C | 56.2% | 191.1hPa | 2.5V | 08:19:12 | 02:09:15 | 00:00:00 | |
| AA1-15 | 2026-09-04 05:40:25 | 52.50991 | 9.25028 | 103° | 166km/h | 12526m | -17.7m/s | -61.4°C | 54.6% | 190.1hPa | 2.6V | 08:19:12 | 02:09:13 | 00:00:00 | |
| HSKMA3-T | 2026-09-04 05:40:24 | 52.51001 | 9.24961 | 104° | 166km/h | 12544m | -18m/s | -61.6°C | 53.9% | 189.5hPa | 2.6V | 08:19:12 | 02:09:12 | 00:00:00 | |
| DF8AY | 2026-09-04 05:40:22 | 52.51022 | 9.24826 | 104° | 170km/h | 12579m | -17.6m/s | -61.9°C | 51.9% | 188.4hPa | 2.5V | 08:20:03 | 02:09:10 | 00:00:00 | |
| BIOWL1-15 | 2026-09-04 05:40:21 | 52.51032 | 9.24759 | 104° | 168km/h | 12597m | -17.3m/s | -62°C | 50.7% | 187.9hPa | 2.5V | 08:20:03 | 02:09:09 | 00:00:00 | |
| DF8AY-15 | 2026-09-04 05:40:20 | 52.51042 | 9.24692 | 105° | 170km/h | 12614m | -17.4m/s | -62.1°C | 47.9% | 187.3hPa | 2.5V | 00:00:00 | 02:09:08 | 00:00:00 | |
| DL1NUX | 2026-09-04 05:40:19 | 52.51107 | 9.24285 | 104° | 168km/h | 12718m | -17.3m/s | -62.5°C | 42.4% | 184.2hPa | 2.5V | 08:19:22 | 02:09:02 | 00:00:00 | |
| DL1XH-west | 2026-09-04 05:40:16 | 52.51085 | 9.24421 | 105° | 170km/h | 12683m | -18.2m/s | -62.4°C | 45.7% | 185.3hPa | 2.6V | 08:20:03 | 02:09:04 | 00:00:00 | |
| HSKMA3-T | 2026-09-04 05:40:14 | 52.51118 | 9.24217 | 105° | 170km/h | 12735m | -17.9m/s | -62.6°C | 43.4% | 183.7hPa | 2.5V | 08:20:03 | 02:09:01 | 00:00:00 | |
| AA1-15 | 2026-09-04 05:40:14 | 52.51107 | 9.24285 | 104° | 168km/h | 12718m | -17.3m/s | -62.5°C | 44.3% | 184.2hPa | 2.5V | 08:20:03 | 02:09:02 | 00:00:00 | |
| BIOWL1-15 | 2026-09-04 05:40:12 | 52.51198 | 9.23745 | 106° | 170km/h | 12860m | -17.9m/s | -63.4°C | 39.3% | 180hPa | 2.5V | 08:20:03 | 02:08:54 | 00:00:00 | |
| DF8AY | 2026-09-04 05:40:11 | 52.51140 | 9.24081 | 105° | 168km/h | 12771m | -17.5m/s | -62.8°C | 41.9% | 182.6hPa | 2.6V | 08:20:03 | 02:08:59 | 00:00:00 | |
| DO2JMG | 2026-09-04 05:40:10 | 52.51152 | 9.24014 | 106° | 168km/h | 12788m | -18.2m/s | -62.9°C | 41.6% | 182.1hPa | 2.6V | 08:20:03 | 02:08:58 | 00:00:00 | |
| DL1NUX | 2026-09-04 05:40:10 | 52.51221 | 9.23609 | 105° | 170km/h | 12895m | -17.2m/s | -63.7°C | 37.9% | 179hPa | 2.6V | 08:19:32 | 02:08:52 | 00:00:00 | |
| DC6BW-12 | 2026-09-04 05:40:08 | 52.51163 | 9.23947 | 107° | 170km/h | 12806m | -18.1m/s | -63.0°C | 32.1% | 181.5hPa | 2.6V | 08:20:00 | 00:00:00 | 00:00:00 | |
| DM0DOS-11 | 2026-09-04 05:40:07 | 52.51245 | 9.23474 | 106° | 172km/h | 12930m | -18.1m/s | -63.8°C | 37.1% | 177.9hPa | 2.6V | 08:19:34 | 02:08:50 | 00:00:00 | |
| DL1XH-west | 2026-09-04 05:40:05 | 52.51210 | 9.23678 | 106° | 172km/h | 12877m | -17.7m/s | -63.6°C | 38.8% | 179.5hPa | 2.5V | 08:20:03 | 02:08:53 | 00:00:00 | |
| HSKMA3-T | 2026-09-04 05:40:04 | 52.51233 | 9.23542 | 106° | 170km/h | 12912m | -18m/s | -63.8°C | 37.6% | 178.4hPa | 2.6V | 08:20:03 | 02:08:51 | 00:00:00 | |
| AA1-15 | 2026-09-04 05:40:04 | 52.51221 | 9.23609 | 105° | 170km/h | 12895m | -17.2m/s | -63.7°C | 38.2% | 179hPa | 2.6V | 08:20:03 | 02:08:52 | 00:00:00 | |
| DF8AY | 2026-09-04 05:40:01 | 52.51258 | 9.23406 | 106° | 173km/h | 12947m | -17.6m/s | -63.8°C | 36.4% | 177.4hPa | 2.5V | 08:20:03 | 02:08:49 | 00:00:00 | |
| DO2SHX-10 | 2026-09-04 05:40:01 | 52.51258 | 9.23406 | 106° | 173km/h | 12948m | -17.5m/s | -63.8°C | 36.7% | 177.3hPa | 2.5V | 00:00:00 | 02:08:49 | 00:00:00 | |
| DF8AY-15 | 2026-09-04 05:40:00 | 52.51270 | 9.23336 | 106° | 164km/h | 12965m | -17.6m/s | -63.8°C | 36.1% | 176.8hPa | 2.5V | 00:00:00 | 02:08:48 | 00:00:00 | |
| DL1NUX | 2026-09-04 05:39:59 | 52.51343 | 9.22925 | 107° | 172km/h | 13072m | -18m/s | -64.6°C | 34.2% | 173.8hPa | 2.5V | 08:19:42 | 02:08:42 | 00:00:00 | |
| DO2JMG | 2026-09-04 05:39:59 | 52.51282 | 9.23268 | 106° | 173km/h | 12983m | -17.8m/s | -63.9°C | 35% | 176.4hPa | 2.5V | 08:20:03 | 02:08:47 | 00:00:00 | |
| BIOWL1-15 | 2026-09-04 05:39:58 | 52.51318 | 9.23061 | 106° | 172km/h | 13036m | -17.8m/s | -64.3°C | 33.2% | 174.9hPa | 2.6V | 08:20:03 | 02:08:44 | 00:00:00 | |
| DL4BBY-15 | 2026-09-04 05:39:58 | 52.51294 | 9.23199 | 107° | 153km/h | 13001m | -17.5m/s | -65.0°C | 0% | 0hPa | 2.5V | 00:00:00 | 00:00:00 | 00:00:00 | |
| DM0DOS-11 | 2026-09-04 05:39:57 | 52.51368 | 9.22790 | 107° | 168km/h | 13109m | -17.7m/s | -64.9°C | 33.7% | 172.8hPa | 2.5V | 08:19:44 | 02:08:40 | 00:00:00 | |
| DF5WG-10 | 2026-09-04 05:39:57 | 52.51306 | 9.23130 | 106° | 170km/h | 13018m | -17.8m/s | -64.1°C | 34.8% | 175.3hPa | 2.5V | 00:00:00 | 02:08:45 | 00:00:00 | |
| DL1XH1-15 | 2026-09-04 05:39:56 | 52.51380 | 9.22725 | 107° | 166km/h | 13126m | -17.4m/s | -65°C | 33.5% | 172.3hPa | 2.5V | 08:19:45 | 02:08:39 | 00:00:00 | |
| DL1XH-15 | 2026-09-04 05:39:55 | 52.51393 | 9.22659 | 108° | 168km/h | 13144m | -17.8m/s | -65.2°C | 33.4% | 171.8hPa | 2.6V | 08:19:46 | 02:08:38 | 00:00:00 | |
| DL1XH-west | 2026-09-04 05:39:55 | 52.51330 | 9.22993 | 107° | 170km/h | 13054m | -17.7m/s | -64.4°C | 32.6% | 174.3hPa | 2.6V | 08:20:03 | 02:08:43 | 00:00:00 | |
| AA1-15 | 2026-09-04 05:39:54 | 52.51343 | 9.22925 | 107° | 172km/h | 13072m | -18m/s | -64.6°C | 32.1% | 173.9hPa | 2.5V | 08:20:03 | 02:08:42 | 00:00:00 | |
| HSKMA3-T | 2026-09-04 05:39:52 | 52.51368 | 9.22790 | 107° | 168km/h | 13109m | -17.7m/s | -64.9°C | 30.7% | 172.8hPa | 2.5V | 08:20:03 | 02:08:40 | 00:00:00 | |
| DF8AY | 2026-09-04 05:39:51 | 52.51380 | 9.22725 | 108° | 166km/h | 13126m | -17.4m/s | -65.1°C | 30% | 172.3hPa | 2.5V | 08:20:03 | 02:08:39 | 00:00:00 | |
| DO2JMG | 2026-09-04 05:39:49 | 52.51406 | 9.22593 | 107° | 168km/h | 13162m | -17.7m/s | -65.4°C | 28.6% | 171.3hPa | 2.6V | 08:20:03 | 02:08:37 | 00:00:00 | |
| DF2AP-13 | 2026-09-04 05:39:48 | 52.51418 | 9.22528 | 108° | 137km/h | 13180m | -17.8m/s | -65.4°C | 33.6% | 170.8hPa | 2.6V | 00:00:00 | 02:08:36 | 00:00:00 | |
| DM0DOS-11 | 2026-09-04 05:39:47 | 52.51490 | 9.22153 | 106° | 153km/h | 13290m | -18.4m/s | -65.2°C | 28.8% | 167.8hPa | 2.6V | 08:19:54 | 02:08:30 | 00:00:00 | |
| DF5WG-10 | 2026-09-04 05:39:47 | 52.51430 | 9.22464 | 109° | 151km/h | 13198m | -18.0m/s | -65.3°C | 33.2% | 170.3hPa | 2.5V | 08:19:00 | 02:08:35 | 00:00:00 | |
| DL1XH1-15 | 2026-09-04 05:39:46 | 52.51501 | 9.22093 | 105° | 150km/h | 13308m | -17.7m/s | -65.2°C | 27.9% | 167.3hPa | 2.6V | 08:19:55 | 02:08:29 | 00:00:00 | |
| DL1XH-15 | 2026-09-04 05:39:45 | 52.51511 | 9.22034 | 105° | 146km/h | 13326m | -17.7m/s | -65.3°C | 27.1% | 166.8hPa | 2.5V | 08:19:56 | 02:08:28 | 00:00:00 | |
| BIOWL1-15 | 2026-09-04 05:39:45 | 52.51455 | 9.22338 | 107° | 159km/h | 13234m | -17.7m/s | -64.8°C | 25.5% | 169.3hPa | 2.5V | 08:20:03 | 02:08:33 | 00:00:00 | |
| DL1XH-west | 2026-09-04 05:39:44 | 52.51467 | 9.22275 | 107° | 153km/h | 13252m | -18.2m/s | -65°C | 24.8% | 168.8hPa | 2.5V | 08:20:03 | 02:08:32 | 00:00:00 | |
| HSKMA3-T | 2026-09-04 05:39:43 | 52.51490 | 9.22153 | 107° | 153km/h | 13290m | -18.4m/s | -65.2°C | 23.2% | 167.8hPa | 2.6V | 08:20:03 | 02:08:30 | 00:00:00 | |
| AA1-15 | 2026-09-04 05:39:43 | 52.51479 | 9.22214 | 108° | 153km/h | 13271m | -18.5m/s | -65.1°C | 24% | 168.3hPa | 2.6V | 08:20:03 | 02:08:31 | 00:00:00 | |
| DF8AY | 2026-09-04 05:39:40 | 52.51511 | 9.22034 | 106° | 146km/h | 13326m | -17.7m/s | -65.3°C | 21.3% | 166.8hPa | 2.5V | 08:20:03 | 02:08:28 | 00:00:00 | |
| DO2JMG | 2026-09-04 05:39:39 | 52.51521 | 9.21976 | 105° | 142km/h | 13343m | -17.6m/s | -65.3°C | 20.3% | 166.3hPa | 2.5V | 08:20:03 | 02:08:27 | 00:00:00 | |
| DO2SHX-10 | 2026-09-04 05:39:39 | 52.51521 | 9.21976 | 106° | 141km/h | 13343m | -17.6m/s | -65.3°C | 26.3% | 166.3hPa | 2.5V | 00:00:00 | 02:08:27 | 00:00:00 | |
| DD1CC8 | 2026-09-04 05:39:38 | 52.51539 | 9.21862 | 103° | 139km/h | 13378m | -17.4m/s | -65.4°C | 17.1% | 165.3hPa | 2.6V | 00:00:00 | 00:00:00 | 00:00:00 | |
| DM0DOS-11 | 2026-09-04 05:39:37 | 52.51577 | 9.21586 | 102° | 135km/h | 13469m | -18.6m/s | -64°C | 17.5% | 162.9hPa | 2.6V | 08:20:04 | 02:08:20 | 00:00:00 | |
| DF5WG-10 | 2026-09-04 05:39:37 | 52.51538 | 9.21862 | 104° | 135km/h | 13378m | -17.4m/s | -65.4°C | 24.6% | 165.2hPa | 2.6V | 00:00:00 | 02:08:25 | 00:00:00 | |
| DL1XH1-15 | 2026-09-04 05:39:36 | 52.51585 | 9.21531 | 102° | 133km/h | 13488m | -18.4m/s | -63.7°C | 16.1% | 162.4hPa | 2.6V | 08:20:05 | 02:08:19 | 00:00:00 | |
| DL3AQ-11 | 2026-09-04 05:39:36 | 52.51555 | 9.21752 | 102° | 135km/h | 13413m | -18.5m/s | -65.2°C | 15.3% | 164.4hPa | 2.5V | 00:00:00 | 00:00:00 | 00:00:00 | |
| DL1XH-15 | 2026-09-04 05:39:35 | 52.51593 | 9.21477 | 105° | 133km/h | 13508m | -19.7m/s | -63.6°C | 15.1% | 161.9hPa | 2.5V | 08:20:06 | 02:08:18 | 00:00:00 | |
| DL1XH-west | 2026-09-04 05:39:33 | 52.51570 | 9.21641 | 102° | 137km/h | 13451m | -19.1m/s | -64.1°C | 13.8% | 163.4hPa | 2.5V | 08:20:03 | 02:08:21 | 00:00:00 | |
| AA1-15 | 2026-09-04 05:39:32 | 52.51577 | 9.21586 | 102° | 135km/h | 13469m | -18.6m/s | -64°C | 12.9% | 162.9hPa | 2.6V | 08:20:54 | 02:08:20 | 00:00:00 | |
| DF8AY | 2026-09-04 05:39:30 | 52.51593 | 9.21477 | 105° | 133km/h | 13508m | -19.7m/s | -63.7°C | 11.1% | 161.9hPa | 2.5V | 08:20:54 | 02:08:18 | 00:00:00 | |
| DO2JMG | 2026-09-04 05:39:28 | 52.51611 | 9.21372 | 107° | 130km/h | 13547m | -19.2m/s | -63.8°C | 9.7% | 160.9hPa | 2.5V | 08:20:54 | 02:08:16 | 00:00:00 | |
| DL4BBY-15 | 2026-09-04 05:39:28 | 52.51611 | 9.21372 | 107° | 110km/h | 13547m | -19.2m/s | -64.7°C | 0% | 0hPa | 2.5V | 00:00:00 | 00:00:00 | 00:00:00 | |
| DM0DOS-11 | 2026-09-04 05:39:27 | 52.51672 | 9.21082 | 110° | 115km/h | 13658m | -19.4m/s | -61.1°C | 9.4% | 158hPa | 2.5V | 08:20:14 | 02:08:10 | 00:00:00 | |
| DO2SHX-10 | 2026-09-04 05:39:27 | 52.51621 | 9.21320 | 108° | 126km/h | 13566m | -19.0m/s | -63.8°C | 13.8% | 160.4hPa | 2.5V | 00:00:00 | 02:08:15 | 00:00:00 | |
| DL1XH1-15 | 2026-09-04 05:39:26 | 52.51681 | 9.21038 | 109° | 113km/h | 13678m | -19m/s | -60.9°C | 9.1% | 157.5hPa | 2.5V | 08:20:15 | 02:08:09 | 00:00:00 | |
| DL1XH-15 | 2026-09-04 05:39:25 | 52.51691 | 9.20995 | 109° | 108km/h | 13696m | -19.2m/s | -60.5°C | 8.7% | 157.1hPa | 2.6V | 08:20:16 | 02:08:08 | 00:00:00 | |
| DL1XH-west | 2026-09-04 05:39:23 | 52.51661 | 9.21127 | 111° | 117km/h | 13639m | -19.2m/s | -61.5°C | 6.3% | 158.5hPa | 2.5V | 08:20:54 | 02:08:11 | 00:00:00 | |
| AA1-15 | 2026-09-04 05:39:22 | 52.51671 | 9.21082 | 111° | 115km/h | 13659m | -19.4m/s | -61.1°C | 5.9% | 158hPa | 2.5V | 08:20:54 | 02:08:10 | 00:00:00 | |
| HSKMA3-T | 2026-09-04 05:39:21 | 52.51681 | 9.21038 | 110° | 113km/h | 13678m | -19m/s | -60.9°C | 5.7% | 157.5hPa | 2.5V | 08:20:54 | 02:08:09 | 00:00:00 | |
| DF8AY | 2026-09-04 05:39:19 | 52.51699 | 9.20953 | 108° | 106km/h | 13716m | -19.2m/s | -60.3°C | 5.2% | 156.5hPa | 2.6V | 08:20:54 | 02:08:07 | 00:00:00 | |
| DL1NUX | 2026-09-04 05:39:19 | 52.51731 | 9.20746 | 102° | 102km/h | 13810m | -19m/s | -60.1°C | 7.7% | 154.1hPa | 2.5V | 08:20:22 | 02:08:02 | 00:00:00 | |
| DO2JMG | 2026-09-04 05:39:18 | 52.51707 | 9.20911 | 106° | 102km/h | 13735m | -19.7m/s | -60.1°C | 5% | 156.1hPa | 2.6V | 08:20:54 | 02:08:06 | 00:00:00 | |
| DO2SHX-10 | 2026-09-04 05:39:18 | 52.51707 | 9.20911 | 106° | 102km/h | 13736m | -19.6m/s | -60.1°C | 8.2% | 156.0hPa | 2.6V | 00:00:00 | 02:08:06 | 00:00:00 | |
| DM0DOS-11 | 2026-09-04 05:39:17 | 52.51744 | 9.20662 | 103° | 106km/h | 13848m | -19.3m/s | -60.1°C | 7.4% | 153.2hPa | 2.6V | 08:20:24 | 02:08:00 | 00:00:00 | |
| DF5WG-10 | 2026-09-04 05:39:17 | 52.51713 | 9.20870 | 104° | 104km/h | 13755m | -18.4m/s | -60.0°C | 8.0% | 155.5hPa | 2.5V | 00:00:00 | 02:08:05 | 00:00:00 | |
| DL1XH1-15 | 2026-09-04 05:39:16 | 52.51750 | 9.20618 | 102° | 106km/h | 13868m | -19.2m/s | -60.1°C | 7.4% | 152.8hPa | 2.6V | 08:20:25 | 02:07:59 | 00:00:00 | |
| DL1XH-15 | 2026-09-04 05:39:15 | 52.51756 | 9.20576 | 103° | 106km/h | 13887m | -19.5m/s | -60.2°C | 7.4% | 152.3hPa | 2.5V | 08:20:26 | 02:07:58 | 00:00:00 | |
| DL1XH-west | 2026-09-04 05:39:12 | 52.51744 | 9.20662 | 104° | 106km/h | 13848m | -19.3m/s | -60.1°C | 4.2% | 153.2hPa | 2.6V | 08:20:54 | 02:08:00 | 00:00:00 | |
| AA1-15 | 2026-09-04 05:39:11 | 52.51750 | 9.20618 | 103° | 106km/h | 13868m | -19.2m/s | -60.1°C | 4.1% | 152.8hPa | 2.6V | 08:20:54 | 02:07:59 | 00:00:00 | |
| HSKMA3-T | 2026-09-04 05:39:10 | 52.51756 | 9.20576 | 103° | 106km/h | 13887m | -19.5m/s | -60.2°C | 4% | 152.3hPa | 2.5V | 08:20:54 | 02:07:58 | 00:00:00 | |
| DL1NUX | 2026-09-04 05:39:10 | 52.51793 | 9.20312 | 101° | 110km/h | 14000m | -17.4m/s | -59.1°C | 6.7% | 149.5hPa | 2.5V | 08:20:32 | 02:07:52 | 00:00:00 | |
| DO2JMG | 2026-09-04 05:39:08 | 52.51768 | 9.20489 | 103° | 110km/h | 13925m | -19.2m/s | -60.2°C | 3.9% | 151.3hPa | 2.5V | 08:20:54 | 02:07:56 | 00:00:00 | |
| DD1CC8 | 2026-09-04 05:39:07 | 52.51781 | 9.20400 | 102° | 110km/h | 13963m | -18.8m/s | -59.6°C | 3.4% | 150.5hPa | 2.6V | 00:00:00 | 00:00:00 | 00:00:00 | |
| DL1XH1-15 | 2026-09-04 05:39:06 | 52.51809 | 9.20181 | 100° | 108km/h | 14051m | -16.8m/s | -58.9°C | 6.5% | 148.3hPa | 2.6V | 08:20:35 | 02:07:49 | 00:00:00 | |
| DB0UT-7 | 2026-09-04 05:39:06 | 52.51781 | 9.20400 | 103° | 110km/h | 13963m | -18.8m/s | -59.6°C | 7.1% | 150.4hPa | 2.6V | 08:20:00 | 02:07:54 | 00:00:00 | |
| DL1XH-15 | 2026-09-04 05:39:05 | 52.51814 | 9.20137 | 99° | 108km/h | 14068m | -16.4m/s | -59°C | 6.5% | 147.9hPa | 2.6V | 08:20:36 | 02:07:48 | 00:00:00 | |
| BIOWL1-15 | 2026-09-04 05:39:02 | 52.51804 | 9.20224 | 101° | 108km/h | 14035m | -16.7m/s | -58.8°C | 3.2% | 148.7hPa | 2.6V | 08:20:54 | 02:07:50 | 00:00:00 | |
| HSKMA3-T | 2026-09-04 05:39:01 | 52.51818 | 9.20093 | 98° | 108km/h | 14085m | -16.5m/s | -59.1°C | 3.2% | 147.5hPa | 2.5V | 08:20:54 | 02:07:47 | 00:00:00 | |
| DL1XH-west | 2026-09-04 05:39:01 | 52.51809 | 9.20181 | 100° | 108km/h | 14051m | -16.8m/s | -58.9°C | 3.2% | 148.3hPa | 2.6V | 08:20:54 | 02:07:49 | 00:00:00 | |
| AA1-15 | 2026-09-04 05:39:00 | 52.51813 | 9.20137 | 99° | 108km/h | 14068m | -16.4m/s | -59°C | 3.2% | 147.9hPa | 2.6V | 08:20:54 | 02:07:48 | 00:00:00 | |
| DO2JMG | 2026-09-04 05:38:57 | 52.51825 | 9.20003 | 96° | 111km/h | 14117m | -16.3m/s | -59.1°C | 3.1% | 146.7hPa | 2.5V | 08:20:54 | 02:07:45 | 00:00:00 | |
| DO2SHX-10 | 2026-09-04 05:38:57 | 52.51825 | 9.20003 | 97° | 111km/h | 14117m | -16.3m/s | -59.0°C | 6.6% | 146.6hPa | 2.5V | 00:00:00 | 02:07:45 | 00:00:00 | |
| DL1XH1-15 | 2026-09-04 05:38:56 | 52.51843 | 9.19726 | 97° | 113km/h | 14215m | -16.4m/s | -59.4°C | 6.6% | 144.4hPa | 2.5V | 08:20:45 | 02:07:39 | 00:00:00 | |
| DB0DAN | 2026-09-04 05:38:55 | 52.51831 | 9.19911 | 96° | 108km/h | 14150m | -16.1m/s | -59.1°C | 3% | 145.93hPa | 2.6V | 00:00:00 | 00:00:00 | 00:00:00 | |
| DL1XH-15 | 2026-09-04 05:38:55 | 52.51847 | 9.19680 | 96° | 113km/h | 14231m | -16.5m/s | -59.3°C | 6.5% | 144hPa | 2.5V | 08:20:46 | 02:07:38 | 00:00:00 | |
| BIOWL1-15 | 2026-09-04 05:38:52 | 52.51840 | 9.19772 | 96° | 111km/h | 14198m | -15.9m/s | -59.5°C | 3% | 144.8hPa | 2.5V | 08:20:54 | 02:07:40 | 00:00:00 | |
| DL1XH-west | 2026-09-04 05:38:51 | 52.51843 | 9.19726 | 98° | 113km/h | 14215m | -16.4m/s | -59.4°C | 2.9% | 144.4hPa | 2.5V | 08:20:54 | 02:07:39 | 00:00:00 | |
| HSKMA3-T | 2026-09-04 05:38:50 | 52.51850 | 9.19633 | 98° | 115km/h | 14248m | -16.9m/s | -59.3°C | 2.8% | 143.7hPa | 2.6V | 08:20:54 | 02:07:37 | 00:00:00 | |
| AA1-15 | 2026-09-04 05:38:50 | 52.51847 | 9.19680 | 97° | 113km/h | 14231m | -16.5m/s | -59.3°C | 2.8% | 144hPa | 2.5V | 08:20:54 | 02:07:38 | 00:00:00 | |
| DJ2DS-15 | 2026-09-04 05:38:50 | 52.51847 | 9.19680 | 97° | 106km/h | 14231m | -16.5m/s | -59.2°C | 6.5% | 144.0hPa | 2.5V | 08:20:00 | 02:07:38 | 00:00:00 | |
| DL1NUX | 2026-09-04 05:38:49 | 52.51876 | 9.19405 | 101° | 110km/h | 14335m | -17.6m/s | -58.7°C | 6% | 141.8hPa | 2.6V | 08:20:52 | 02:07:32 | 00:00:00 | |
| DF8AY | 2026-09-04 05:38:47 | 52.51860 | 9.19541 | 99° | 111km/h | 14282m | -17.1m/s | -59°C | 2.7% | 143hPa | 2.5V | 08:20:54 | 02:07:35 | 00:00:00 | |
| DF5WG-10 | 2026-09-04 05:38:47 | 52.51860 | 9.19541 | 100° | 108km/h | 14282m | -17.1m/s | -59.0°C | 6.3% | 142.9hPa | 2.5V | 00:00:00 | 02:07:35 | 00:00:00 | |
| DM0DOS-11 | 2026-09-04 05:38:46 | 52.51888 | 9.19319 | 103° | 108km/h | 14371m | -18.8m/s | -58.3°C | 5.9% | 140.9hPa | 2.6V | 08:20:54 | 02:07:30 | 00:00:00 | |
| DO2JMG | 2026-09-04 05:38:46 | 52.51865 | 9.19496 | 101° | 111km/h | 14299m | -17.1m/s | -58.9°C | 2.6% | 142.5hPa | 2.5V | 08:20:54 | 02:07:34 | 00:00:00 | |
| GOEST3-10 | 2026-09-04 05:38:46 | 52.51865 | 9.19496 | 102° | 110km/h | 14299m | -17.0m/s | -58.9°C | 6.2% | 142.5hPa | 2.5V | 00:00:00 | 02:07:34 | 00:00:00 | |
| DL1XH-15 | 2026-09-04 05:38:45 | 52.51900 | 9.19234 | 102° | 102km/h | 14409m | -19.1m/s | -57.9°C | 5.6% | 140.2hPa | 2.5V | 08:20:56 | 02:07:28 | 00:00:00 | |
| BIOWL1-15 | 2026-09-04 05:38:42 | 52.51888 | 9.19319 | 104° | 108km/h | 14371m | -18.8m/s | -58.3°C | 2.4% | 140.9hPa | 2.6V | 08:20:54 | 02:07:30 | 00:00:00 | |
| DL1XH-west | 2026-09-04 05:38:41 | 52.51894 | 9.19276 | 103° | 108km/h | 14390m | -18.8m/s | -58°C | 2.3% | 140.5hPa | 2.5V | 08:21:45 | 02:07:29 | 00:00:00 | |
| AA1-15 | 2026-09-04 05:38:39 | 52.51906 | 9.19192 | 104° | 106km/h | 14428m | -20m/s | -58°C | 2.2% | 139.7hPa | 2.5V | 08:21:45 | 02:07:27 | 00:00:00 | |
| HSKMA3-T | 2026-09-04 05:38:38 | 52.51912 | 9.19150 | 103° | 104km/h | 14448m | -20.4m/s | -58°C | 2.2% | 139.3hPa | 2.5V | 08:21:45 | 02:07:26 | 00:00:00 | |
| DF8AY | 2026-09-04 05:38:37 | 52.51918 | 9.19108 | 104° | 102km/h | 14469m | -20.9m/s | -57.9°C | 2.2% | 138.8hPa | 2.6V | 08:21:45 | 02:07:25 | 00:00:00 | |
| DL1XH1-15 | 2026-09-04 05:38:36 | 52.51950 | 9.18860 | 100° | 102km/h | 14595m | -21.1m/s | -58.1°C | 5.4% | 136.1hPa | 2.6V | 08:21:05 | 02:07:19 | 00:00:00 | |
| DO2JMG | 2026-09-04 05:38:36 | 52.51925 | 9.19067 | 103° | 104km/h | 14490m | -21m/s | -57.8°C | 2.1% | 138.4hPa | 2.6V | 08:21:45 | 02:07:24 | 00:00:00 | |
| DL1XH-west | 2026-09-04 05:38:31 | 52.51951 | 9.18860 | 100° | 102km/h | 14595m | -21.1m/s | -58.1°C | 2% | 136.1hPa | 2.6V | 08:21:45 | 02:07:19 | 00:00:00 | |
| AA1-15 | 2026-09-04 05:38:29 | 52.51960 | 9.18778 | 101° | 99km/h | 14637m | -20.3m/s | -58.3°C | 2.1% | 135.2hPa | 2.5V | 08:21:45 | 02:07:17 | 00:00:00 | |
| DF8AY | 2026-09-04 05:38:27 | 52.51970 | 9.18696 | 100° | 102km/h | 14677m | -20m/s | -58°C | 1.9% | 134.3hPa | 2.5V | 08:21:45 | 02:07:15 | 00:00:00 | |
| DO2JMG | 2026-09-04 05:38:25 | 52.51978 | 9.18613 | 100° | 100km/h | 14717m | -19.8m/s | -58.1°C | 1.9% | 133.4hPa | 2.6V | 08:21:45 | 02:07:13 | 00:00:00 | |
| BIOWL1-15 | 2026-09-04 05:38:20 | 52.51999 | 9.18402 | 100° | 104km/h | 14818m | -21.5m/s | -58.1°C | 1.8% | 131.4hPa | 2.5V | 08:21:45 | 02:07:08 | 00:00:00 | |
| DF8AY-15 | 2026-09-04 05:38:20 | 52.51999 | 9.18401 | 100° | 93km/h | 14818m | -21.5m/s | -58.1°C | 5.4% | 131.3hPa | 2.5V | 00:00:00 | 02:07:08 | 00:00:00 | |
| DL1NUX | 2026-09-04 05:38:19 | 52.52034 | 9.18151 | 105° | 100km/h | 14945m | -21.5m/s | -58.2°C | 5.3% | 128.7hPa | 2.5V | 08:21:22 | 02:07:02 | 00:00:00 | |
| AA1-15 | 2026-09-04 05:38:18 | 52.52010 | 9.18317 | 103° | 106km/h | 14860m | -21.1m/s | -58.3°C | 1.7% | 130.4hPa | 2.6V | 08:21:45 | 02:07:06 | 00:00:00 | |
| DF8AY | 2026-09-04 05:38:17 | 52.52015 | 9.18275 | 103° | 104km/h | 14881m | -21.2m/s | -58.3°C | 1.7% | 130hPa | 2.6V | 08:21:45 | 02:07:05 | 00:00:00 | |
| HSKMA3-T | 2026-09-04 05:38:16 | 52.52021 | 9.18233 | 103° | 102km/h | 14902m | -20.8m/s | -58.2°C | 1.7% | 129.6hPa | 2.5V | 08:21:45 | 02:07:04 | 00:00:00 | |
| DO2JMG | 2026-09-04 05:38:14 | 52.52034 | 9.18151 | 105° | 100km/h | 14945m | -21.5m/s | -58.2°C | 1.6% | 128.7hPa | 2.5V | 08:21:45 | 02:07:02 | 00:00:00 | |
| BIOWL1-15 | 2026-09-04 05:38:10 | 52.52061 | 9.17999 | 108° | 91km/h | 15030m | -21.4m/s | -57.9°C | 1.4% | 127hPa | 2.5V | 08:21:45 | 02:06:58 | 00:00:00 | |
| AA1-15 | 2026-09-04 05:38:08 | 52.52075 | 9.17928 | 109° | 91km/h | 15073m | -22.1m/s | -58°C | 1.4% | 126.1hPa | 2.6V | 08:21:45 | 02:06:56 | 00:00:00 | |
| BIOWL1-15 | 2026-09-04 05:38:07 | 52.52128 | 9.17619 | 103° | 86km/h | 15266m | -21.9m/s | -56.7°C | 1% | 122.3hPa | 2.5V | 08:21:45 | 02:06:47 | 00:00:00 | |
| DL1XH1-15 | 2026-09-04 05:38:07 | 52.52118 | 9.17688 | 104° | 86km/h | 15223m | -21.7m/s | -56.9°C | 4.6% | 123.2hPa | 2.6V | 08:21:35 | 02:06:49 | 00:00:00 | |
| DF8AY | 2026-09-04 05:38:06 | 52.52089 | 9.17858 | 109° | 88km/h | 15116m | -21.2m/s | -57.6°C | 1.3% | 125.2hPa | 2.6V | 08:21:45 | 02:06:54 | 00:00:00 | |
| HSKMA3-T | 2026-09-04 05:38:06 | 52.52096 | 9.17823 | 106° | 88km/h | 15137m | -21.3m/s | -57.4°C | 1.2% | 124.9hPa | 2.5V | 08:21:45 | 02:06:53 | 00:00:00 | |
| DO2JMG | 2026-09-04 05:38:04 | 52.52101 | 9.17789 | 105° | 84km/h | 15158m | -21.6m/s | -57.3°C | 1.2% | 124.5hPa | 2.5V | 08:21:45 | 02:06:52 | 00:00:00 | |
| DL1XH-west | 2026-09-04 05:38:00 | 52.52123 | 9.17654 | 103° | 86km/h | 15245m | -21.5m/s | -56.8°C | 1% | 122.7hPa | 2.5V | 08:21:45 | 02:06:48 | 00:00:00 | |
| AA1-15 | 2026-09-04 05:37:57 | 52.52139 | 9.17548 | 104° | 91km/h | 15309m | -22.2m/s | -56.8°C | 1% | 121.5hPa | 2.6V | 08:21:45 | 02:06:45 | 00:00:00 | |
| DF8AY | 2026-09-04 05:37:56 | 52.52145 | 9.17511 | 104° | 91km/h | 15332m | -21.7m/s | -56.9°C | 1.1% | 121.1hPa | 2.6V | 08:21:45 | 02:06:44 | 00:00:00 | |
| HSKMA3-T | 2026-09-04 05:37:55 | 52.52150 | 9.17475 | 105° | 88km/h | 15354m | -21.7m/s | -57°C | 1% | 120.6hPa | 2.6V | 08:21:45 | 02:06:43 | 00:00:00 | |
| DB0DAN | 2026-09-04 05:37:55 | 52.52150 | 9.17475 | 105° | 84km/h | 15354m | -21.7m/s | -57°C | 1.6% | 120.63hPa | 2.6V | 00:00:00 | 00:00:00 | 00:00:00 | |
| DL1XH-15 | 2026-09-04 05:37:55 | 52.52182 | 9.17298 | 107° | 86km/h | 15465m | -22.8m/s | -57.6°C | 5% | 118.6hPa | 2.6V | 08:21:46 | 02:06:38 | 00:00:00 | |
| DD8BA-10 | 2026-09-04 05:37:55 | 52.52150 | 9.17475 | 105° | 88km/h | 15354m | -21.6m/s | -56.9°C | 4.6% | 120.6hPa | 2.5V | 00:00:00 | 00:00:00 | 00:00:00 | |
| DM0DOS-11 | 2026-09-04 05:37:54 | 52.52169 | 9.17367 | 105° | 89km/h | 15420m | -21.9m/s | -57.3°C | 4.8% | 119.4hPa | 2.5V | 08:21:44 | 02:06:40 | 00:00:00 | |
| DO2JMG | 2026-09-04 05:37:54 | 52.52156 | 9.17439 | 107° | 89km/h | 15377m | -21.9m/s | -57.1°C | 1.1% | 120.2hPa | 2.5V | 08:21:45 | 02:06:42 | 00:00:00 | |
| DL1XH-west | 2026-09-04 05:37:49 | 52.52189 | 9.17264 | 108° | 88km/h | 15487m | -22m/s | -57.6°C | 1.2% | 118.1hPa | 2.5V | 08:22:36 | 02:06:37 | 00:00:00 | |
| AA1-15 | 2026-09-04 05:37:46 | 52.52207 | 9.17163 | 106° | 82km/h | 15553m | -21.8m/s | -57.4°C | 1.1% | 116.9hPa | 2.6V | 08:22:36 | 02:06:34 | 00:00:00 | |
| BIOWL9-15 | 2026-09-04 05:37:46 | 52.52213 | 9.17131 | 107° | 82km/h | 15575m | -22.1m/s | -57.4°C | 1.6% | 116.5hPa | 2.6V | 00:00:00 | 00:00:00 | 00:00:00 | |
| DL1XH-15 | 2026-09-04 05:37:45 | 52.52246 | 9.16968 | 111° | 84km/h | 15688m | -22.6m/s | -57.5°C | 4.9% | 114.4hPa | 2.6V | 08:21:56 | 02:06:28 | 00:00:00 | |
| HSKMA3-T | 2026-09-04 05:37:44 | 52.52219 | 9.17098 | 107° | 86km/h | 15597m | -22.7m/s | -57.6°C | 1.1% | 116.1hPa | 2.6V | 08:22:36 | 02:06:32 | 00:00:00 | |
| DL1NUX | 2026-09-04 05:37:44 | 52.52254 | 9.16937 | 111° | 80km/h | 15711m | -22.4m/s | -57.3°C | 4.8% | 114hPa | 2.6V | 08:21:57 | 02:06:27 | 00:00:00 | |
| DM0DOS-11 | 2026-09-04 05:37:43 | 52.52232 | 9.17032 | 108° | 82km/h | 15642m | -21.9m/s | -57.8°C | 5% | 115.2hPa | 2.5V | 08:21:54 | 02:06:30 | 00:00:00 | |
| DO2JMG | 2026-09-04 05:37:43 | 52.52225 | 9.17065 | 108° | 84km/h | 15619m | -22.5m/s | -57.7°C | 1.1% | 115.7hPa | 2.5V | 08:22:36 | 02:06:31 | 00:00:00 | |
| BIOWL1-15 | 2026-09-04 05:37:41 | 52.52254 | 9.16937 | 111° | 80km/h | 15711m | -22.4m/s | -57.3°C | 1% | 114hPa | 2.6V | 08:22:36 | 02:06:27 | 00:00:00 | |
| DL1XH-west | 2026-09-04 05:37:38 | 52.52261 | 9.16907 | 113° | 78km/h | 15733m | -22.7m/s | -57°C | 0.9% | 113.6hPa | 2.5V | 08:22:36 | 02:06:26 | 00:00:00 | |
| DF8AY | 2026-09-04 05:37:36 | 52.52283 | 9.16819 | 111° | 73km/h | 15804m | -22.5m/s | -56.8°C | 0.8% | 112.4hPa | 2.6V | 08:22:36 | 02:06:23 | 00:00:00 | |
| DD8BA-10 | 2026-09-04 05:37:36 | 52.52283 | 9.16819 | 112° | 64km/h | 15804m | -22.4m/s | -56.7°C | 4.6% | 112.3hPa | 2.6V | 08:22:00 | 00:00:00 | 00:00:00 | |
| DO2SHX-10 | 2026-09-04 05:37:35 | 52.52283 | 9.16819 | 112° | 69km/h | 15804m | -22.4m/s | -56.7°C | 4.6% | 112.3hPa | 2.6V | 00:00:00 | 02:06:23 | 00:00:00 | |
| DL1NUX | 2026-09-04 05:37:34 | 52.52314 | 9.16667 | 104° | 58km/h | 15940m | -22.6m/s | -55.9°C | 4.3% | 110hPa | 2.6V | 08:22:07 | 02:06:17 | 00:00:00 | |
| DO2JMG | 2026-09-04 05:37:33 | 52.52296 | 9.16765 | 112° | 66km/h | 15849m | -23.5m/s | -56.2°C | 0.7% | 111.6hPa | 2.6V | 08:22:36 | 02:06:21 | 00:00:00 | |
| DL1XH-west | 2026-09-04 05:37:28 | 52.52318 | 9.16643 | 102° | 62km/h | 15963m | -23.7m/s | -56°C | 0.6% | 109.7hPa | 2.6V | 08:22:36 | 02:06:16 | 00:00:00 | |
| DK5PH-5 | 2026-09-04 05:37:28 | 52.52318 | 9.16643 | 102° | 64km/h | 15963m | -23.7m/s | -55.9°C | 4.3% | 109.7hPa | 2.6V | 00:00:00 | 02:06:16 | 00:00:00 | |
| DF5WG-10 | 2026-09-04 05:37:27 | 52.52321 | 9.16619 | 103° | 64km/h | 15987m | -24.5m/s | -56.0°C | 4.4% | 109.2hPa | 2.5V | 00:00:00 | 02:06:15 | 00:00:00 | |
| DL1XH1-15 | 2026-09-04 05:37:26 | 52.52341 | 9.16464 | 105° | 66km/h | 16128m | -23.1m/s | -55.8°C | 4.4% | 106.8hPa | 2.5V | 08:22:15 | 02:06:09 | 00:00:00 | |
| AA1-15 | 2026-09-04 05:37:25 | 52.52328 | 9.16570 | 103° | 64km/h | 16034m | -23.4m/s | -56.1°C | 0.7% | 108.4hPa | 2.5V | 08:22:36 | 02:06:13 | 00:00:00 | |
| DB0DAN | 2026-09-04 05:37:25 | 52.52328 | 9.16570 | 103° | 60km/h | 16034m | -23.4m/s | -56.1°C | 1.4% | 108.44hPa | 2.5V | 00:00:00 | 00:00:00 | 00:00:00 | |
| D01LWL | 2026-09-04 05:37:25 | 52.52331 | 9.16543 | 100° | 66km/h | 16058m | -23.5m/s | -56.0°C | 1.4% | 108.0hPa | 2.5V | 00:00:00 | 00:00:00 | 00:00:00 | |
| DL1NUX | 2026-09-04 05:37:24 | 52.52350 | 9.16411 | 104° | 64km/h | 16176m | -22.8m/s | -55.8°C | 4.3% | 106.1hPa | 2.5V | 08:22:17 | 02:06:07 | 00:00:00 | |
| DO2JMG | 2026-09-04 05:37:22 | 52.52337 | 9.16490 | 102° | 64km/h | 16105m | -22.4m/s | -55.8°C | 0.7% | 107.2hPa | 2.6V | 08:22:36 | 02:06:10 | 00:00:00 | |
| DL1XH-west | 2026-09-04 05:37:17 | 52.52359 | 9.16361 | 106° | 64km/h | 16222m | -23.7m/s | -55.8°C | 0.6% | 105.3hPa | 2.6V | 08:22:36 | 02:06:05 | 00:00:00 | |
| BIOWL1-15 | 2026-09-04 05:37:16 | 52.52363 | 9.16335 | 105° | 68km/h | 16246m | -23.6m/s | -55.6°C | 0.6% | 104.8hPa | 2.5V | 08:22:36 | 02:06:04 | 00:00:00 | |
| DL1XH-15 | 2026-09-04 05:37:15 | 52.52391 | 9.16171 | 109° | 69km/h | 16391m | -23.8m/s | -54.6°C | 3.9% | 102.5hPa | 2.5V | 08:22:26 | 02:05:58 | 00:00:00 | |
| AA1-15 | 2026-09-04 05:37:15 | 52.52367 | 9.16308 | 103° | 66km/h | 16270m | -23.6m/s | -55.6°C | 0.5% | 104.5hPa | 2.5V | 08:22:36 | 02:06:03 | 00:00:00 | |
| DF8AY | 2026-09-04 05:37:14 | 52.52371 | 9.16281 | 105° | 68km/h | 16293m | -24.6m/s | -55.6°C | 0.6% | 104.1hPa | 2.5V | 08:22:36 | 02:06:02 | 00:00:00 | |
| DO2SHX-10 | 2026-09-04 05:37:14 | 52.52371 | 9.16281 | 105° | 69km/h | 16293m | -24.6m/s | -55.5°C | 4.2% | 104.1hPa | 2.6V | 00:00:00 | 02:06:02 | 00:00:00 | |
| DM0DOS-11 | 2026-09-04 05:37:13 | 52.52381 | 9.16226 | 105° | 69km/h | 16342m | -24.1m/s | -55°C | 4% | 103.4hPa | 2.6V | 08:22:24 | 02:06:00 | 00:00:00 | |
| DO2JMG | 2026-09-04 05:37:12 | 52.52381 | 9.16226 | 105° | 69km/h | 16342m | -24.1m/s | -55°C | 0.4% | 103.4hPa | 2.6V | 08:22:36 | 02:06:00 | 00:00:00 | |
| DO2SHX-10 | 2026-09-04 05:37:11 | 52.52386 | 9.16199 | 107° | 69km/h | 16367m | -24.4m/s | -54.7°C | 3.9% | 102.9hPa | 2.6V | 00:00:00 | 02:05:59 | 00:00:00 | |
| DO2SHX-10 | 2026-09-04 05:37:08 | 52.52403 | 9.16117 | 111° | 66km/h | 16440m | -23.7m/s | -54.2°C | 3.8% | 101.7hPa | 2.6V | 00:00:00 | 02:05:56 | 00:00:00 | |
| DM0DOS-11 | 2026-09-04 05:37:07 | 52.52440 | 9.15973 | 111° | 58km/h | 16583m | -24m/s | -54.3°C | 3.7% | 99.5hPa | 2.6V | 08:22:34 | 02:05:50 | 00:00:00 | |
| DF5WG-10 | 2026-09-04 05:37:07 | 52.52409 | 9.16091 | 113° | 60km/h | 16464m | -23.7m/s | -54.0°C | 3.7% | 101.3hPa | 2.6V | 00:00:00 | 02:05:55 | 00:00:00 | |
| DL1XH1-15 | 2026-09-04 05:37:06 | 52.52445 | 9.15951 | 108° | 55km/h | 16607m | -23.7m/s | -54.3°C | 3.8% | 99.2hPa | 2.6V | 08:22:35 | 02:05:49 | 00:00:00 | |
| DL1XH-west | 2026-09-04 05:37:06 | 52.52416 | 9.16067 | 114° | 66km/h | 16488m | -24.4m/s | -54°C | 0.2% | 101hPa | 2.6V | 08:22:36 | 02:05:54 | 00:00:00 | |
| AA1-15 | 2026-09-04 05:37:04 | 52.52428 | 9.16018 | 112° | 60km/h | 16537m | -23.3m/s | -54°C | 0.2% | 100.3hPa | 2.5V | 08:22:36 | 02:05:52 | 00:00:00 | |
| DO2JMG | 2026-09-04 05:37:01 | 52.52445 | 9.15951 | 109° | 55km/h | 16607m | -23.7m/s | -54.3°C | 0.3% | 99.2hPa | 2.6V | 08:22:36 | 02:05:49 | 00:00:00 | |
| DF8AY-15 | 2026-09-04 05:37:00 | 52.52449 | 9.15930 | 108° | 57km/h | 16631m | -23.9m/s | -54.3°C | 3.7% | 98.7hPa | 2.6V | 00:00:00 | 02:05:48 | 00:00:00 | |
| DO2SHX-10 | 2026-09-04 05:36:59 | 52.52453 | 9.15910 | 108° | 51km/h | 16655m | -24.3m/s | -54.2°C | 3.7% | 98.3hPa | 2.6V | 00:00:00 | 02:05:47 | 00:00:00 | |
| DK5PH-5 | 2026-09-04 05:36:58 | 52.52457 | 9.15889 | 103° | 58km/h | 16679m | -23.8m/s | -54.3°C | 3.7% | 98.0hPa | 2.6V | 00:00:00 | 02:05:46 | 00:00:00 | |
| DF5WG-10 | 2026-09-04 05:36:57 | 52.52459 | 9.15869 | 100° | 51km/h | 16702m | -23.8m/s | -54.3°C | 3.8% | 97.6hPa | 2.6V | 00:00:00 | 02:05:45 | 00:00:00 | |
| DL1XH1-15 | 2026-09-04 05:36:56 | 52.52462 | 9.15747 | 85° | 55km/h | 16847m | -24.2m/s | -55°C | 4% | 95.5hPa | 2.6V | 08:22:45 | 02:05:39 | 00:00:00 | |
| BIOWL1-15 | 2026-09-04 05:36:55 | 52.52460 | 9.15724 | 83° | 57km/h | 16871m | -23.6m/s | -55.1°C | 0.4% | 95.1hPa | 2.5V | 08:23:27 | 02:05:38 | 00:00:00 | |
| DL1XH-west | 2026-09-04 05:36:55 | 52.52463 | 9.15830 | 97° | 47km/h | 16749m | -24.3m/s | -54.7°C | 0.3% | 97hPa | 2.6V | 08:23:27 | 02:05:43 | 00:00:00 | |
| AU51GT2 | 2026-09-04 05:36:54 | 52.52463 | 9.15789 | 87° | 47km/h | 16798m | -24.4m/s | -54.9°C | 1.1% | 96.2hPa | 2.6V | 00:00:00 | 00:00:00 | 00:00:00 | |
| DM0DOS-11 | 2026-09-04 05:36:53 | 52.52463 | 9.15769 | 86° | 49km/h | 16823m | -24.3m/s | -55°C | 3.9% | 95.8hPa | 2.6V | 08:22:44 | 02:05:40 | 00:00:00 | |
| AA1-15 | 2026-09-04 05:36:53 | 52.52463 | 9.15789 | 88° | 47km/h | 16798m | -24.4m/s | -54.9°C | 0.4% | 96.2hPa | 2.5V | 08:23:27 | 02:05:41 | 00:00:00 | |
| DO2JMG | 2026-09-04 05:36:51 | 52.52462 | 9.15747 | 86° | 55km/h | 16847m | -24.2m/s | -55°C | 0.4% | 95.5hPa | 2.6V | 08:23:27 | 02:05:39 | 00:00:00 | |
| DL8DAS-14 | 2026-09-04 05:36:49 | 52.52458 | 9.15701 | 80° | 57km/h | 16894m | -24.0m/s | -55.1°C | 1.1% | 94.7hPa | 2.5V | 00:00:00 | 00:00:00 | 00:00:00 | |
| DM0DOS-11 | 2026-09-04 05:36:47 | 52.52452 | 9.15515 | 92° | 68km/h | 17066m | -24.2m/s | -55.2°C | 4.1% | 92.2hPa | 2.5V | 08:22:54 | 02:05:30 | 00:00:00 | |
| SONDE2-11 | 2026-09-04 05:36:47 | 52.52453 | 9.15627 | 84° | 64km/h | 16967m | -24.4m/s | -55.1°C | 1.1% | 93.7hPa | 2.6V | 00:00:00 | 00:00:00 | 00:00:00 | |
| DL1XH1-15 | 2026-09-04 05:36:46 | 52.52453 | 9.15488 | 96° | 68km/h | 17090m | -24.3m/s | -55.1°C | 3.9% | 91.9hPa | 2.6V | 08:22:55 | 02:05:29 | 00:00:00 | |
| GOEST3-10 | 2026-09-04 05:36:46 | 52.52453 | 9.15627 | 85° | 68km/h | 16967m | -24.3m/s | -55.0°C | 4.0% | 93.6hPa | 2.6V | 08:22:00 | 02:05:34 | 00:00:00 | |
| DL1XH-15 | 2026-09-04 05:36:45 | 52.52455 | 9.15460 | 98° | 69km/h | 17115m | -24.9m/s | -55°C | 3.9% | 91.5hPa | 2.6V | 08:22:56 | 02:05:28 | 00:00:00 | |
| DL1XH-west | 2026-09-04 05:36:44 | 52.52451 | 9.15573 | 90° | 66km/h | 17016m | -24.6m/s | -55.3°C | 0.4% | 93hPa | 2.5V | 08:23:27 | 02:05:32 | 00:00:00 | |
| AA1-15 | 2026-09-04 05:36:43 | 52.52451 | 9.15545 | 91° | 69km/h | 17041m | -24.3m/s | -55.3°C | 0.4% | 92.6hPa | 2.5V | 08:23:27 | 02:05:31 | 00:00:00 | |
| DO2JMG | 2026-09-04 05:36:41 | 52.52453 | 9.15488 | 96° | 68km/h | 17090m | -24.3m/s | -55.1°C | 0.3% | 91.9hPa | 2.6V | 08:23:27 | 02:05:29 | 00:00:00 | |
| DB0DAN | 2026-09-04 05:36:40 | 52.52455 | 9.15460 | 99° | 68km/h | 17115m | -24.9m/s | -55°C | 1.1% | 91.54hPa | 2.6V | 00:00:00 | 00:00:00 | 00:00:00 | |
| DF8AY-15 | 2026-09-04 05:36:40 | 52.52455 | 9.15460 | 99° | 53km/h | 17115m | -24.9m/s | -55.0°C | 3.9% | 91.5hPa | 2.6V | 08:22:00 | 02:05:28 | 00:00:00 | |
| DO2SHX-10 | 2026-09-04 05:36:38 | 52.52460 | 9.15402 | 99° | 66km/h | 17165m | -24.3m/s | -54.9°C | 3.9% | 90.8hPa | 2.5V | 00:00:00 | 02:05:26 | 00:00:00 | |
| BUE01 | 2026-09-04 05:36:37 | 52.52463 | 9.15376 | 99° | 64km/h | 17189m | -23.9m/s | -54.9°C | 1.0% | 90.5hPa | 2.5V | 00:00:00 | 00:00:00 | 00:00:00 | |
| DL1XH1-15 | 2026-09-04 05:36:36 | 52.52480 | 9.15236 | 101° | 49km/h | 17336m | -24.7m/s | -54.7°C | 3.8% | 88.5hPa | 2.5V | 08:23:05 | 02:05:19 | 00:00:00 | |
| DB0UT-7 | 2026-09-04 05:36:36 | 52.52466 | 9.15350 | 102° | 47km/h | 17213m | -24.4m/s | -54.8°C | 3.9% | 90.1hPa | 2.6V | 00:00:00 | 00:00:00 | 00:00:00 | |
| DL1XH-15 | 2026-09-04 05:36:35 | 52.52483 | 9.15217 | 101° | 46km/h | 17360m | -24.5m/s | -54.8°C | 3.9% | 88.1hPa | 2.6V | 08:23:06 | 02:05:18 | 00:00:00 | |
| BIOWL1-15 | 2026-09-04 05:36:35 | 52.52474 | 9.15277 | 103° | 53km/h | 17287m | -24m/s | -54.6°C | 0.3% | 89.1hPa | 2.5V | 08:23:27 | 02:05:21 | 00:00:00 | |
| DL1XH-west | 2026-09-04 05:36:34 | 52.52471 | 9.15300 | 100° | 57km/h | 17262m | -24m/s | -54.6°C | 0.3% | 89.5hPa | 2.6V | 08:23:27 | 02:05:22 | 00:00:00 | |
| DM0DOS-11 | 2026-09-04 05:36:33 | 52.52477 | 9.15257 | 102° | 53km/h | 17311m | -25.1m/s | -54.6°C | 3.8% | 88.8hPa | 2.5V | 08:23:04 | 02:05:20 | 00:00:00 | |
| AA1-15 | 2026-09-04 05:36:32 | 52.52477 | 9.15257 | 103° | 53km/h | 17311m | -25.1m/s | -54.6°C | 0.2% | 88.8hPa | 2.5V | 08:23:27 | 02:05:20 | 00:00:00 | |
| DO2JMG | 2026-09-04 05:36:30 | 52.52483 | 9.15217 | 102° | 46km/h | 17360m | -24.5m/s | -54.8°C | 0.3% | 88.1hPa | 2.6V | 08:23:27 | 02:05:18 | 00:00:00 | |
| DJ2DS-15 | 2026-09-04 05:36:30 | 52.52482 | 9.15217 | 102° | 44km/h | 17361m | -24.4m/s | -54.7°C | 3.9% | 88.1hPa | 2.6V | 00:00:00 | 02:05:18 | 00:00:00 | |
| DO2SHX-10 | 2026-09-04 05:36:29 | 52.52486 | 9.15199 | 107° | 46km/h | 17385m | -24.4m/s | -54.8°C | 4.0% | 87.7hPa | 2.6V | 00:00:00 | 02:05:17 | 00:00:00 | |
| DL4BBY-15 | 2026-09-04 05:36:28 | 52.52489 | 9.15181 | 106° | 44km/h | 17410m | -25.4m/s | -55.7°C | 0% | 0hPa | 2.6V | 00:00:00 | 00:00:00 | 00:00:00 | |
| DM0DOS-11 | 2026-09-04 05:36:27 | 52.52507 | 9.15079 | 106° | 42km/h | 17559m | -25.7m/s | -54.5°C | 3.9% | 85.4hPa | 2.6V | 08:23:14 | 02:05:10 | 00:00:00 | |
| DL1XH1-15 | 2026-09-04 05:36:26 | 52.52510 | 9.15062 | 102° | 42km/h | 17584m | -25.3m/s | -54.7°C | 4% | 85.1hPa | 2.6V | 08:23:15 | 02:05:09 | 00:00:00 | |
| DO2SHX-10 | 2026-09-04 05:36:26 | 52.52495 | 9.15145 | 108° | 44km/h | 17460m | -24.4m/s | -54.3°C | 3.7% | 86.8hPa | 2.5V | 08:23:00 | 02:05:14 | 00:00:00 | |
| DL1XH-15 | 2026-09-04 05:36:25 | 52.52512 | 9.15046 | 102° | 40km/h | 17610m | -26.2m/s | -54.9°C | 4% | 84.8hPa | 2.5V | 08:23:16 | 02:05:08 | 00:00:00 | |
| DL1XH-west | 2026-09-04 05:36:23 | 52.52504 | 9.15095 | 105° | 40km/h | 17534m | -24.8m/s | -54.4°C | 0.2% | 85.8hPa | 2.6V | 08:23:27 | 02:05:11 | 00:00:00 | |
| BIOWL1-15 | 2026-09-04 05:36:22 | 52.52507 | 9.15079 | 106° | 42km/h | 17559m | -25.7m/s | -54.5°C | 0.3% | 85.4hPa | 2.6V | 08:23:27 | 02:05:10 | 00:00:00 | |
| DO2JMG | 2026-09-04 05:36:19 | 52.52514 | 9.15029 | 104° | 44km/h | 17636m | -26.5m/s | -54.8°C | 0.3% | 84.4hPa | 2.5V | 08:23:27 | 02:05:07 | 00:00:00 | |
| DL8DAS-14 | 2026-09-04 05:36:18 | 52.52517 | 9.15011 | 101° | 42km/h | 17662m | -25.8m/s | -54.5°C | 1.0% | 84.0hPa | 2.6V | 00:00:00 | 00:00:00 | 00:00:00 | |
| DO2SHX-10 | 2026-09-04 05:36:17 | 52.52518 | 9.14993 | 96° | 44km/h | 17687m | -24.9m/s | -54.4°C | 3.9% | 83.7hPa | 2.6V | 00:00:00 | 02:05:05 | 00:00:00 | |
| DL1XH1-15 | 2026-09-04 05:36:16 | 52.52519 | 9.14879 | 90° | 47km/h | 17838m | -25.5m/s | -54.3°C | 3.9% | 81.8hPa | 2.6V | 08:23:25 | 02:04:59 | 00:00:00 | |
| DL3AQ-11 | 2026-09-04 05:36:16 | 52.52520 | 9.14957 | 92° | 44km/h | 17737m | -25.3m/s | -54.6°C | 1.0% | 83.1hPa | 2.6V | 00:00:00 | 00:00:00 | 00:00:00 | |
| DL1XH-15 | 2026-09-04 05:36:15 | 52.52520 | 9.14858 | 95° | 49km/h | 17864m | -26.3m/s | -54.4°C | 3.9% | 81.4hPa | 2.6V | 08:23:26 | 02:04:58 | 00:00:00 | |
| DD8BA-10 | 2026-09-04 05:36:15 | 52.52519 | 9.14957 | 93° | 47km/h | 17737m | -25.3m/s | -54.5°C | 3.9% | 83.0hPa | 2.5V | 00:00:00 | 00:00:00 | 00:00:00 | |
| DO2SHX-10 | 2026-09-04 05:36:14 | 52.52520 | 9.14938 | 90° | 47km/h | 17762m | -25.2m/s | -54.6°C | 4.0% | 82.7hPa | 2.5V | 00:00:00 | 02:05:02 | 00:00:00 | |
| DM0DOS-11 | 2026-09-04 05:36:13 | 52.52520 | 9.14898 | 88° | 47km/h | 17813m | -26m/s | -54.5°C | 3.9% | 82.1hPa | 2.5V | 08:23:24 | 02:05:00 | 00:00:00 | |
| DL1XH-west | 2026-09-04 05:36:13 | 52.52520 | 9.14919 | 89° | 47km/h | 17787m | -25.3m/s | -54.5°C | 0.3% | 82.4hPa | 2.5V | 08:23:27 | 02:05:01 | 00:00:00 | |
| AA1-15 | 2026-09-04 05:36:12 | 52.52519 | 9.14898 | 88° | 47km/h | 17813m | -26m/s | -54.5°C | 0.3% | 82.1hPa | 2.5V | 08:23:27 | 02:05:00 | 00:00:00 | |
| BIOWL1-15 | 2026-09-04 05:36:11 | 52.52519 | 9.14879 | 91° | 47km/h | 17838m | -25.5m/s | -54.3°C | 0.3% | 81.8hPa | 2.6V | 08:23:27 | 02:04:59 | 00:00:00 | |
| DB0DAN | 2026-09-04 05:36:10 | 52.52520 | 9.14858 | 96° | 46km/h | 17864m | -26.3m/s | -54.4°C | 1% | 81.43hPa | 2.6V | 00:00:00 | 00:00:00 | 00:00:00 | |
| HSKMA3-T | 2026-09-04 05:36:10 | 52.52523 | 9.14819 | 101° | 44km/h | 17917m | -26.1m/s | -54°C | 0.2% | 80.8hPa | 2.5V | 08:24:18 | 02:04:56 | 00:00:00 | |
| DO2JMG | 2026-09-04 05:36:09 | 52.52521 | 9.14838 | 96° | 47km/h | 17891m | -26.2m/s | -54.4°C | 0.3% | 81.1hPa | 2.5V | 08:23:27 | 02:04:57 | 00:00:00 | |
| DO2SHX-10 | 2026-09-04 05:36:08 | 52.52523 | 9.14819 | 101° | 46km/h | 17917m | -26.0m/s | -53.9°C | 3.8% | 80.7hPa | 2.5V | 00:00:00 | 02:04:56 | 00:00:00 | |
| DL1XH1-15 | 2026-09-04 05:36:06 | 52.52548 | 9.14699 | 104° | 42km/h | 18099m | -25.8m/s | -53.5°C | 3.6% | 78.5hPa | 2.5V | 08:23:35 | 02:04:49 | 00:00:00 | |
| DF5WG-10 | 2026-09-04 05:36:06 | 52.52529 | 9.14782 | 109° | 42km/h | 17971m | -26.1m/s | -53.7°C | 3.7% | 80.1hPa | 2.6V | 00:00:00 | 02:04:54 | 00:00:00 | |
| DL1XH-15 | 2026-09-04 05:36:05 | 52.52551 | 9.14683 | 105° | 40km/h | 18125m | -26.8m/s | -53.4°C | 3.5% | 78.2hPa | 2.6V | 08:23:36 | 02:04:48 | 00:00:00 | |
| DO2SHX-10 | 2026-09-04 05:36:05 | 52.52532 | 9.14765 | 110° | 44km/h | 17997m | -25.4m/s | -53.5°C | 3.7% | 79.8hPa | 2.5V | 00:00:00 | 02:04:53 | 00:00:00 | |
| HTAHTA | 2026-09-04 05:36:04 | 52.52537 | 9.14748 | 111° | 42km/h | 18022m | -26.1m/s | -53.6°C | 0.9% | 79.5hPa | 2.5V | 00:00:00 | 00:00:00 | 00:00:00 | |
| DM0DOS-11 | 2026-09-04 05:36:03 | 52.52545 | 9.14715 | 110° | 44km/h | 18074m | -25.4m/s | -53.7°C | 3.6% | 78.8hPa | 2.5V | 08:23:34 | 02:04:50 | 00:00:00 | |
| DL1XH-west | 2026-09-04 05:36:03 | 52.52541 | 9.14732 | 113° | 44km/h | 18048m | -26.2m/s | -53.6°C | 0.1% | 79.1hPa | 2.5V | 08:24:18 | 02:04:51 | 00:00:00 | |
| BIOWL1-15 | 2026-09-04 05:36:01 | 52.52548 | 9.14699 | 105° | 42km/h | 18099m | -25.8m/s | -53.5°C | 0.1% | 78.5hPa | 2.5V | 08:24:18 | 02:04:49 | 00:00:00 | |
| DO2JMG | 2026-09-04 05:35:58 | 52.52555 | 9.14652 | 102° | 38km/h | 18179m | -26.3m/s | -53.2°C | 0% | 77.5hPa | 2.6V | 08:24:18 | 02:04:46 | 00:00:00 | |
| DL4BBY-15 | 2026-09-04 05:35:58 | 52.52555 | 9.14651 | 102° | 37km/h | 18179m | -26.3m/s | -54.1°C | 0% | 0hPa | 2.5V | 00:00:00 | 00:00:00 | 00:00:00 | |
| DL1XH1-15 | 2026-09-04 05:35:56 | 52.52571 | 9.14560 | 103° | 33km/h | 18362m | -26.6m/s | -52.6°C | 3.3% | 75.4hPa | 2.5V | 08:23:45 | 02:04:39 | 00:00:00 | |
| DB0DAN | 2026-09-04 05:35:55 | 52.52561 | 9.14610 | 109° | 31km/h | 18258m | -25.9m/s | -52.5°C | 0.8% | 76.62hPa | 2.5V | 00:00:00 | 00:00:00 | 00:00:00 | |
| DL1XH-15 | 2026-09-04 05:35:55 | 52.52573 | 9.14547 | 105° | 31km/h | 18389m | -27.8m/s | -52.7°C | 3.3% | 75.1hPa | 2.5V | 08:23:46 | 02:04:38 | 00:00:00 | |
| DD8BA-10 | 2026-09-04 05:35:55 | 52.52561 | 9.14610 | 109° | 33km/h | 18258m | -25.9m/s | -52.5°C | 3.3% | 76.6hPa | 2.5V | 00:00:00 | 00:00:00 | 00:00:00 | |
| DM0DOS-11 | 2026-09-04 05:35:54 | 52.52568 | 9.14573 | 110° | 31km/h | 18336m | -26.6m/s | -52.4°C | 3.3% | 75.7hPa | 2.5V | 08:23:44 | 02:04:40 | 00:00:00 | |
| DL1XH-west | 2026-09-04 05:35:53 | 52.52566 | 9.14585 | 110° | 29km/h | 18310m | -26m/s | -52.3°C | 0% | 76hPa | 2.6V | 08:24:18 | 02:04:41 | 00:00:00 | |
| AA1-15 | 2026-09-04 05:35:51 | 52.52571 | 9.14560 | 104° | 33km/h | 18362m | -26.6m/s | -52.6°C | 0% | 75.4hPa | 2.5V | 08:24:18 | 02:04:39 | 00:00:00 | |
| DO2JMG | 2026-09-04 05:35:48 | 52.52576 | 9.14519 | 97° | 33km/h | 18445m | -28.1m/s | -53.1°C | 0% | 74.5hPa | 2.6V | 08:24:18 | 02:04:36 | 00:00:00 | |
| DF2AP-13 | 2026-09-04 05:35:47 | 52.52577 | 9.14505 | 98° | 33km/h | 18472m | -27.5m/s | -53.1°C | 3.5% | 74.1hPa | 2.6V | 00:00:00 | 02:04:35 | 00:00:00 | |
| DL1XH1-15 | 2026-09-04 05:35:46 | 52.52580 | 9.14418 | 88° | 37km/h | 18634m | -27.6m/s | -53.8°C | 3.7% | 72.3hPa | 2.6V | 08:23:55 | 02:04:29 | 00:00:00 | |
| GOEST3-10 | 2026-09-04 05:35:46 | 52.52579 | 9.14492 | 97° | 35km/h | 18500m | -27.0m/s | -53.3°C | 3.5% | 73.7hPa | 2.5V | 00:00:00 | 02:04:34 | 00:00:00 | |
| DL1XH-15 | 2026-09-04 05:35:45 | 52.52580 | 9.14403 | 92° | 37km/h | 18662m | -27.8m/s | -53.6°C | 3.6% | 71.9hPa | 2.5V | 08:23:56 | 02:04:28 | 00:00:00 | |
| SONDE2-11 | 2026-09-04 05:35:45 | 52.52580 | 9.14463 | 89° | 33km/h | 18553m | -26.4m/s | -53.7°C | 0.9% | 73.2hPa | 2.6V | 00:00:00 | 00:00:00 | 00:00:00 | |
| DM0DOS-11 | 2026-09-04 05:35:43 | 52.52580 | 9.14433 | 89° | 37km/h | 18607m | -27.4m/s | -53.8°C | 3.7% | 72.6hPa | 2.6V | 08:23:54 | 02:04:30 | 00:00:00 | |
| DL1XH-west | 2026-09-04 05:35:43 | 52.52580 | 9.14448 | 93° | 35km/h | 18579m | -27.9m/s | -53.9°C | 0.2% | 72.9hPa | 2.6V | 08:24:18 | 02:04:31 | 00:00:00 | |
| BIOWL1-15 | 2026-09-04 05:35:40 | 52.52580 | 9.14403 | 92° | 37km/h | 18662m | -27.8m/s | -53.6°C | 0.1% | 71.9hPa | 2.5V | 08:24:18 | 02:04:28 | 00:00:00 | |
| DO2JMG | 2026-09-04 05:35:37 | 52.52581 | 9.14355 | 94° | 38km/h | 18746m | -28.1m/s | -53.6°C | 0.1% | 71hPa | 2.6V | 08:24:18 | 02:04:25 | 00:00:00 | |
| DL1XH1-15 | 2026-09-04 05:35:36 | 52.52599 | 9.14260 | 117° | 40km/h | 18913m | -27.8m/s | -53.6°C | 3.6% | 69.2hPa | 2.5V | 08:24:05 | 02:04:19 | 00:00:00 | |
| GOEST3-10 | 2026-09-04 05:35:36 | 52.52582 | 9.14339 | 101° | 40km/h | 18774m | -27.7m/s | -53.7°C | 3.7% | 70.7hPa | 2.5V | 00:00:00 | 02:04:24 | 00:00:00 | |
| DL1XH-15 | 2026-09-04 05:35:35 | 52.52604 | 9.14246 | 118° | 38km/h | 18941m | -27.3m/s | -53.7°C | 3.7% | 68.9hPa | 2.5V | 08:24:06 | 02:04:18 | 00:00:00 | |
| DD8BA-10 | 2026-09-04 05:35:35 | 52.52584 | 9.14323 | 105° | 38km/h | 18802m | -27.8m/s | -53.8°C | 3.8% | 70.4hPa | 2.5V | 00:00:00 | 00:00:00 | 00:00:00 | |
| HTAHTA | 2026-09-04 05:35:33 | 52.52590 | 9.14290 | 110° | 40km/h | 18857m | -27.5m/s | -53.4°C | 0.9% | 69.8hPa | 2.6V | 00:00:00 | 00:00:00 | 00:00:00 | |
| DL1NUX | 2026-09-04 05:35:32 | 52.52618 | 9.14209 | 120° | 31km/h | 19025m | -27.6m/s | -53.9°C | 3.7% | 68hPa | 2.6V | 08:24:09 | 02:04:15 | 00:00:00 | |
| DL1XH-west | 2026-09-04 05:35:32 | 52.52594 | 9.14275 | 117° | 42km/h | 18885m | -28m/s | -53.4°C | 0.1% | 69.5hPa | 2.6V | 08:24:18 | 02:04:20 | 00:00:00 | |
| AA1-15 | 2026-09-04 05:35:30 | 52.52603 | 9.14245 | 118° | 38km/h | 18941m | -27.3m/s | -53.7°C | 0.2% | 68.9hPa | 2.5V | 08:24:18 | 02:04:18 | 00:00:00 | |
| DF8AY | 2026-09-04 05:35:29 | 52.52608 | 9.14232 | 125° | 37km/h | 18969m | -28m/s | -53.9°C | 0.2% | 68.6hPa | 2.5V | 08:24:18 | 02:04:17 | 00:00:00 | |
| DO2JMG | 2026-09-04 05:35:27 | 52.52618 | 9.14209 | 120° | 31km/h | 19025m | -27.6m/s | -53.9°C | 0.2% | 68hPa | 2.6V | 08:24:18 | 02:04:15 | 00:00:00 | |
| DO2SHX-10 | 2026-09-04 05:35:27 | 52.52618 | 9.14208 | 121° | 31km/h | 19026m | -27.6m/s | -53.8°C | 3.7% | 68.0hPa | 2.6V | 00:00:00 | 02:04:15 | 00:00:00 | |
| DF5WG-10 | 2026-09-04 05:35:26 | 52.52621 | 9.14198 | 119° | 24km/h | 19053m | -28.5m/s | -53.8°C | 3.7% | 67.7hPa | 2.6V | 00:00:00 | 02:04:14 | 00:00:00 | |
| DL1XH-15 | 2026-09-04 05:35:25 | 52.52628 | 9.14145 | 88° | 22km/h | 19226m | -29.1m/s | -53.2°C | 3.5% | 65.9hPa | 2.6V | 08:24:16 | 02:04:08 | 00:00:00 | |
| DD8BA-10 | 2026-09-04 05:35:25 | 52.52625 | 9.14188 | 116° | 24km/h | 19082m | -29.6m/s | -53.8°C | 3.7% | 67.3hPa | 2.6V | 00:00:00 | 00:00:00 | 00:00:00 | |
| DM0DOS-11 | 2026-09-04 05:35:23 | 52.52628 | 9.14162 | 94° | 20km/h | 19167m | -29.4m/s | -53.5°C | 3.6% | 66.5hPa | 2.6V | 08:24:14 | 02:04:10 | 00:00:00 | |
| DL1XH-west | 2026-09-04 05:35:22 | 52.52628 | 9.14162 | 94° | 20km/h | 19168m | -29.4m/s | -53.5°C | 0.1% | 66.5hPa | 2.6V | 08:24:18 | 02:04:10 | 00:00:00 | |
| AA1-15 | 2026-09-04 05:35:20 | 52.52628 | 9.14145 | 89° | 22km/h | 19226m | -29.1m/s | -53.2°C | 0.1% | 65.9hPa | 2.6V | 08:24:18 | 02:04:08 | 00:00:00 | |
| DF8AY | 2026-09-04 05:35:18 | 52.52628 | 9.14126 | 99° | 22km/h | 19284m | -28.8m/s | -53.1°C | 0.1% | 65.3hPa | 2.5V | 08:24:18 | 02:04:06 | 00:00:00 | |
| DF2AP-13 | 2026-09-04 05:35:17 | 52.52629 | 9.14117 | 102° | 24km/h | 19314m | -29.0m/s | -53.1°C | 3.6% | 65.0hPa | 2.5V | 00:00:00 | 02:04:05 | 00:00:00 | |
| DL1XH1-15 | 2026-09-04 05:35:16 | 52.52644 | 9.14060 | 122° | 26km/h | 19491m | -29.3m/s | -52.9°C | 3.4% | 63.2hPa | 2.6V | 08:24:25 | 02:03:59 | 00:00:00 | |
| DO2JMG | 2026-09-04 05:35:16 | 52.52631 | 9.14107 | 106° | 24km/h | 19343m | -29.1m/s | -53.1°C | 0.1% | 64.7hPa | 2.6V | 08:25:09 | 02:04:04 | 00:00:00 | |
| DF5WG-10 | 2026-09-04 05:35:16 | 52.52630 | 9.14107 | 106° | 24km/h | 19343m | -29.0m/s | -53.1°C | 3.5% | 64.7hPa | 2.6V | 08:24:00 | 02:04:04 | 00:00:00 | |
| DD8BA-10 | 2026-09-04 05:35:15 | 52.52632 | 9.14097 | 115° | 22km/h | 19372m | -30.2m/s | -53.0°C | 3.5% | 64.4hPa | 2.6V | 00:00:00 | 00:00:00 | 00:00:00 | |
| DM0DOS-11 | 2026-09-04 05:35:13 | 52.52641 | 9.14068 | 116° | 24km/h | 19462m | -29m/s | -52.9°C | 3.5% | 63.5hPa | 2.6V | 08:24:24 | 02:04:00 | 00:00:00 | |
| DL1XH-west | 2026-09-04 05:35:12 | 52.52640 | 9.14068 | 116° | 24km/h | 19462m | -29m/s | -52.9°C | 0% | 63.5hPa | 2.6V | 08:25:09 | 02:04:00 | 00:00:00 | |
| AA1-15 | 2026-09-04 05:35:09 | 52.52648 | 9.14042 | 115° | 20km/h | 19550m | -29m/s | -53.4°C | 0.1% | 62.7hPa | 2.5V | 08:25:09 | 02:03:57 | 00:00:00 | |
| DF8AY | 2026-09-04 05:35:07 | 52.52653 | 9.14029 | 117° | 20km/h | 19608m | -29m/s | -53.7°C | 0.2% | 62.1hPa | 2.6V | 08:25:09 | 02:03:55 | 00:00:00 | |
| DL1XH1-15 | 2026-09-04 05:35:06 | 52.52657 | 9.13993 | 84° | 15km/h | 19783m | -29.9m/s | -53.4°C | 3.5% | 60.5hPa | 2.6V | 08:24:35 | 02:03:49 | 00:00:00 | |
| DO2JMG | 2026-09-04 05:35:05 | 52.52656 | 9.14016 | 114° | 15km/h | 19666m | -29.1m/s | -53.5°C | 0.1% | 61.5hPa | 2.6V | 08:25:09 | 02:03:53 | 00:00:00 | |
| DF8AY | 2026-09-04 05:35:02 | 52.52650 | 9.13969 | 55° | 22km/h | 19901m | -29.4m/s | -52.7°C | 0% | 59.4hPa | 2.5V | 08:25:09 | 02:03:45 | 00:00:00 | |
| DL1XH-west | 2026-09-04 05:35:01 | 52.52657 | 9.13993 | 84° | 15km/h | 19783m | -29.9m/s | -53.4°C | 0% | 60.5hPa | 2.6V | 08:25:09 | 02:03:49 | 00:00:00 | |
| AA1-15 | 2026-09-04 05:34:59 | 52.52655 | 9.13981 | 63° | 15km/h | 19842m | -29.4m/s | -53.4°C | 0.1% | 59.9hPa | 2.6V | 08:25:09 | 02:03:47 | 00:00:00 | |
| DD1CC8 | 2026-09-04 05:34:58 | 52.52653 | 9.13976 | 64° | 16km/h | 19871m | -30.0m/s | -53.1°C | 0.9% | 59.6hPa | 2.5V | 00:00:00 | 00:00:00 | 00:00:00 | |
| DL3AQ-11 | 2026-09-04 05:34:56 | 52.52643 | 9.13953 | 55° | 26km/h | 19961m | -30.3m/s | -52.8°C | 0.8% | 58.8hPa | 2.5V | 00:00:00 | 00:00:00 | 00:00:00 | |
| DL1XH-15 | 2026-09-04 05:34:55 | 52.52618 | 9.13900 | 55° | 37km/h | 20108m | -29.4m/s | -53.5°C | 3.6% | 57.4hPa | 2.5V | 08:24:46 | 02:03:38 | 00:00:00 | |
| DO2JMG | 2026-09-04 05:34:54 | 52.52639 | 9.13944 | 51° | 31km/h | 19991m | -29.9m/s | -53°C | 0% | 58.5hPa | 2.6V | 08:25:09 | 02:03:42 | 00:00:00 | |
| DO2SHX-10 | 2026-09-04 05:34:54 | 52.52639 | 9.13944 | 51° | 35km/h | 19991m | -29.9m/s | -52.9°C | 3.4% | 58.5hPa | 2.5V | 00:00:00 | 02:03:42 | 00:00:00 | |
| DM0DOS-11 | 2026-09-04 05:34:53 | 52.52628 | 9.13923 | 50° | 33km/h | 20049m | -29.1m/s | -53.3°C | 3.5% | 58hPa | 2.5V | 08:24:44 | 02:03:40 | 00:00:00 | |
| DL1NUX | 2026-09-04 05:34:52 | 52.52604 | 9.13863 | 68° | 35km/h | 20198m | -29.9m/s | -53.9°C | 3.8% | 56.6hPa | 2.5V | 08:24:49 | 02:03:35 | 00:00:00 | |
| DL1XH-west | 2026-09-04 05:34:51 | 52.52623 | 9.13912 | 56° | 35km/h | 20079m | -29.3m/s | -53.4°C | 0.1% | 57.7hPa | 2.5V | 08:25:09 | 02:03:39 | 00:00:00 | |
| BIOWL1-15 | 2026-09-04 05:34:49 | 52.52612 | 9.13888 | 55° | 35km/h | 20138m | -29.5m/s | -53.5°C | 0.2% | 57.2hPa | 2.6V | 08:25:09 | 02:03:37 | 00:00:00 | |
| DF8AY | 2026-09-04 05:34:46 | 52.52601 | 9.13850 | 70° | 33km/h | 20228m | -29.6m/s | -53.8°C | 0.2% | 56.4hPa | 2.5V | 08:25:09 | 02:03:34 | 00:00:00 | |
| DO2SHX-10 | 2026-09-04 05:34:46 | 52.52601 | 9.13850 | 70° | 29km/h | 20228m | -29.6m/s | -53.8°C | 3.7% | 56.3hPa | 2.5V | 00:00:00 | 02:03:34 | 00:00:00 | |
| DL1XH-15 | 2026-09-04 05:34:45 | 52.52600 | 9.13785 | 106° | 22km/h | 20404m | -29.5m/s | -54.2°C | 3.9% | 54.8hPa | 2.6V | 08:24:56 | 02:03:28 | 00:00:00 | |
| DO2JMG | 2026-09-04 05:34:44 | 52.52598 | 9.13826 | 86° | 27km/h | 20287m | -29.8m/s | -53.9°C | 0.2% | 55.6hPa | 2.6V | 08:25:09 | 02:03:32 | 00:00:00 | |
| HSKMA3-T | 2026-09-04 05:34:43 | 52.52598 | 9.13814 | 87° | 27km/h | 20316m | -29.5m/s | -53.9°C | 0.2% | 55.6hPa | 2.5V | 08:25:09 | 02:03:31 | 00:00:00 | |
| DM0DOS-11 | 2026-09-04 05:34:43 | 52.52598 | 9.13804 | 93° | 24km/h | 20346m | -28.7m/s | -54°C | 3.8% | 55.4hPa | 2.5V | 08:24:54 | 02:03:30 | 00:00:00 | |
| SONDE2-11 | 2026-09-04 05:34:43 | 52.52598 | 9.13804 | 93° | 24km/h | 20346m | -28.7m/s | -54.1°C | 0.9% | 55.4hPa | 2.5V | 00:00:00 | 00:00:00 | 00:00:00 | |
| SO1NDE-10 | 2026-09-04 05:34:42 | 52.52597 | 9.13803 | 94° | 22km/h | 20346m | -28.6m/s | -54.0°C | 3.8% | 55.3hPa | 2.5V | 08:24:00 | 02:03:30 | 00:00:00 | |
| GOEST3-10 | 2026-09-04 05:34:41 | 52.52598 | 9.13794 | 104° | 22km/h | 20375m | -29.5m/s | -54.1°C | 3.8% | 55.0hPa | 2.5V | 00:00:00 | 00:00:00 | 00:00:00 | |
| DL1NUX | 2026-09-04 05:34:40 | 52.52608 | 9.13742 | 109° | 22km/h | 20551m | -30.4m/s | -53.5°C | 3.7% | 53.6hPa | 2.5V | 08:25:01 | 02:03:23 | 00:00:00 | |
| DB0DAN | 2026-09-04 05:34:40 | 52.52600 | 9.13785 | 106° | 22km/h | 20404m | -29.5m/s | -54.2°C | 0.9% | 54.82hPa | 2.6V | 00:00:00 | 00:00:00 | 00:00:00 | |
| DL1XH-west | 2026-09-04 05:34:40 | 52.52600 | 9.13785 | 106° | 24km/h | 20404m | -29.5m/s | -54.2°C | 0.2% | 54.8hPa | 2.6V | 08:25:09 | 02:03:28 | 00:00:00 | |
| BIOWL1-15 | 2026-09-04 05:34:38 | 52.52603 | 9.13767 | 111° | 20km/h | 20462m | -29.4m/s | -54.2°C | 0.3% | 54.3hPa | 2.6V | 08:25:09 | 02:03:26 | 00:00:00 | |
| DO2SHX-10 | 2026-09-04 05:34:37 | 52.52605 | 9.13759 | 113° | 22km/h | 20492m | -29.5m/s | -53.9°C | 3.9% | 54.0hPa | 2.5V | 00:00:00 | 02:03:25 | 00:00:00 | |
| DL1XH1-15 | 2026-09-04 05:34:36 | 52.52613 | 9.13703 | 103° | 27km/h | 20673m | -30.5m/s | -53.2°C | 3.7% | 52.6hPa | 2.5V | 08:25:05 | 02:03:19 | 00:00:00 | |
| DF8AY | 2026-09-04 05:34:35 | 52.52608 | 9.13742 | 109° | 22km/h | 20551m | -30.4m/s | -53.5°C | 0.2% | 53.6hPa | 2.5V | 08:25:09 | 02:03:23 | 00:00:00 | |
| DO2JMG | 2026-09-04 05:34:33 | 52.52611 | 9.13723 | 97° | 24km/h | 20612m | -29.9m/s | -53.4°C | 0.2% | 53.1hPa | 2.6V | 08:25:09 | 02:03:21 | 00:00:00 | |
| DL1XH-west | 2026-09-04 05:34:30 | 52.52615 | 9.13691 | 105° | 31km/h | 20703m | -29.7m/s | -53.1°C | 0.1% | 52.3hPa | 2.5V | 08:25:09 | 02:03:18 | 00:00:00 | |
| BIOWL1-15 | 2026-09-04 05:34:30 | 52.52620 | 9.13666 | 109° | 31km/h | 20762m | -29.8m/s | -53.2°C | 0.1% | 51.9hPa | 2.6V | 08:25:09 | 02:03:16 | 00:00:00 | |
| AA1-15 | 2026-09-04 05:34:27 | 52.52623 | 9.13653 | 110° | 35km/h | 20793m | -30.2m/s | -53.1°C | 0.1% | 51.6hPa | 2.6V | 08:25:09 | 02:03:15 | 00:00:00 | |
| DL1XH1-15 | 2026-09-04 05:34:26 | 52.52645 | 9.13587 | 127° | 27km/h | 20972m | -29.5m/s | -53.2°C | 3.7% | 50.2hPa | 2.6V | 08:25:15 | 02:03:09 | 00:00:00 | |
| DF8AY | 2026-09-04 05:34:25 | 52.52629 | 9.13629 | 118° | 31km/h | 20853m | -29.9m/s | -53.1°C | 0.1% | 51.1hPa | 2.5V | 08:26:00 | 02:03:13 | 00:00:00 | |
| DB0DAN | 2026-09-04 05:34:25 | 52.52629 | 9.13629 | 118° | 31km/h | 20853m | -29.9m/s | -53.1°C | 0.8% | 51.12hPa | 2.5V | 00:00:00 | 00:00:00 | 00:00:00 | |
| DO2JMG | 2026-09-04 05:34:22 | 52.52640 | 9.13595 | 125° | 27km/h | 20943m | -29.3m/s | -53.2°C | 0.2% | 50.4hPa | 2.6V | 08:26:00 | 02:03:10 | 00:00:00 | |
| DL1XH-west | 2026-09-04 05:34:20 | 52.52649 | 9.13577 | 124° | 26km/h | 21002m | -29.6m/s | -53.1°C | 0.2% | 50hPa | 2.6V | 08:26:00 | 02:03:08 | 00:00:00 | |
| BIOWL1-15 | 2026-09-04 05:34:19 | 52.52660 | 9.13552 | 123° | 22km/h | 21094m | -30.2m/s | -52.6°C | 0.1% | 49.2hPa | 2.6V | 08:26:00 | 02:03:05 | 00:00:00 | |
| DO2SHX-10 | 2026-09-04 05:34:18 | 52.52656 | 9.13560 | 124° | 24km/h | 21063m | -30.0m/s | -52.6°C | 3.5% | 49.4hPa | 2.5V | 08:25:00 | 02:03:06 | 00:00:00 | |
| DF2AP-13 | 2026-09-04 05:34:17 | 52.52660 | 9.13552 | 124° | 13km/h | 21094m | -30.1m/s | -52.6°C | 3.5% | 49.2hPa | 2.6V | 00:00:00 | 02:03:05 | 00:00:00 | |
| DL1XH1-15 | 2026-09-04 05:34:16 | 52.52675 | 9.13514 | 109° | 13km/h | 21281m | -31m/s | -52.4°C | 3.4% | 47.9hPa | 2.6V | 08:25:25 | 02:02:59 | 00:00:00 | |
| AA1-15 | 2026-09-04 05:34:16 | 52.52663 | 9.13545 | 130° | 22km/h | 21124m | -31.1m/s | -52.6°C | 0.1% | 49hPa | 2.6V | 08:26:00 | 02:03:04 | 00:00:00 | |
| DF5WG-10 | 2026-09-04 05:34:16 | 52.52663 | 9.13545 | 130° | 15km/h | 21124m | -31.1m/s | -52.5°C | 3.5% | 49.0hPa | 2.6V | 00:00:00 | 02:03:04 | 00:00:00 | |
| DL1XH-15 | 2026-09-04 05:34:15 | 52.52676 | 9.13509 | 111° | 11km/h | 21312m | -31m/s | -52.3°C | 3.4% | 47.6hPa | 2.5V | 08:25:26 | 02:02:58 | 00:00:00 | |
| DF8AY | 2026-09-04 05:34:14 | 52.52669 | 9.13531 | 127° | 18km/h | 21186m | -31m/s | -52.6°C | 0% | 48.6hPa | 2.5V | 08:26:00 | 02:03:02 | 00:00:00 | |
| HSKMA3-T | 2026-09-04 05:34:13 | 52.52674 | 9.13519 | 114° | 15km/h | 21250m | -31.7m/s | -52.4°C | 0% | 48.1hPa | 2.6V | 08:26:00 | 02:03:00 | 00:00:00 | |
| DL1NUX | 2026-09-04 05:34:12 | 52.52678 | 9.13494 | 84° | 11km/h | 21405m | -31.1m/s | -52°C | 3.3% | 46.9hPa | 2.6V | 08:25:29 | 02:02:55 | 00:00:00 | |
| DO2JMG | 2026-09-04 05:34:11 | 52.52675 | 9.13514 | 110° | 13km/h | 21281m | -31m/s | -52.4°C | 0% | 47.9hPa | 2.6V | 08:26:00 | 02:02:59 | 00:00:00 | |
| DL1XH-west | 2026-09-04 05:34:09 | 52.52677 | 9.13504 | 104° | 13km/h | 21343m | -31m/s | -52.2°C | 0% | 47.4hPa | 2.6V | 08:26:00 | 02:02:57 | 00:00:00 | |
| BIOWL1-15 | 2026-09-04 05:34:07 | 52.52678 | 9.13494 | 85° | 11km/h | 21405m | -31.1m/s | -52°C | 0% | 46.9hPa | 2.6V | 08:26:00 | 02:02:55 | 00:00:00 | |
| AA1-15 | 2026-09-04 05:34:06 | 52.52678 | 9.13489 | 93° | 15km/h | 21437m | -31.7m/s | -52°C | 0% | 46.7hPa | 2.5V | 08:26:00 | 02:02:54 | 00:00:00 | |
| DF5WG-10 | 2026-09-04 05:34:06 | 52.52678 | 9.13489 | 94° | 15km/h | 21437m | -31.7m/s | -52.0°C | 3.3% | 46.7hPa | 2.5V | 00:00:00 | 02:02:54 | 00:00:00 | |
| DL1XH-15 | 2026-09-04 05:34:05 | 52.52681 | 9.13453 | 104° | 15km/h | 21625m | -30.5m/s | -52.6°C | 3.4% | 45.4hPa | 2.5V | 08:25:36 | 02:02:48 | 00:00:00 | |
| DF8AY | 2026-09-04 05:34:04 | 52.52678 | 9.13478 | 93° | 13km/h | 21500m | -31.1m/s | -52.2°C | 0% | 46.2hPa | 2.6V | 08:26:00 | 02:02:52 | 00:00:00 | |
| HSKMA3-T | 2026-09-04 05:34:02 | 52.52679 | 9.13465 | 97° | 16km/h | 21563m | -31.2m/s | -52.6°C | 0% | 45.8hPa | 2.5V | 08:26:00 | 02:02:50 | 00:00:00 | |
| DO2JMG | 2026-09-04 05:34:01 | 52.52680 | 9.13459 | 99° | 15km/h | 21594m | -31m/s | -52.7°C | 0% | 45.6hPa | 2.5V | 08:26:00 | 02:02:49 | 00:00:00 | |
| DL1XH-west | 2026-09-04 05:33:58 | 52.52682 | 9.13441 | 101° | 13km/h | 21688m | -31.2m/s | -52.5°C | 0% | 44.9hPa | 2.6V | 08:26:00 | 02:02:46 | 00:00:00 | |
| EDDB2-11 | 2026-09-04 05:33:58 | 52.52683 | 9.13436 | 102° | 13km/h | 21720m | -32.5m/s | -52.7°C | 0.8% | 44.7hPa | 2.5V | 00:00:00 | 00:00:00 | 00:00:00 | |
| DK5PH-5 | 2026-09-04 05:33:57 | 52.52683 | 9.13436 | 103° | 11km/h | 21720m | -32.5m/s | -52.7°C | 3.4% | 44.7hPa | 2.5V | 00:00:00 | 02:02:45 | 00:00:00 | |
| DO3DL | 2026-09-04 05:33:56 | 52.52683 | 9.13436 | 103° | 13km/h | 21720m | -32.5m/s | -52.7°C | 0.8% | 44.7hPa | 2.5V | 08:26:00 | 00:00:00 | 00:00:00 | |
| BIOWL1-15 | 2026-09-04 05:33:56 | 52.52683 | 9.13431 | 88° | 11km/h | 21752m | -32m/s | -52.9°C | 0% | 44.5hPa | 2.5V | 08:26:00 | 02:02:44 | 00:00:00 | |
| DB0DAN | 2026-09-04 05:33:55 | 52.52683 | 9.13427 | 78° | 9km/h | 21784m | -31.7m/s | -53°C | 0.8% | 44.29hPa | 2.5V | 00:00:00 | 00:00:00 | 00:00:00 | |
| DF8AY | 2026-09-04 05:33:53 | 52.52682 | 9.13420 | 75° | 7km/h | 21846m | -30.6m/s | -53°C | 0.1% | 43.8hPa | 2.6V | 08:26:00 | 02:02:41 | 00:00:00 | |
| HSKMA3-T | 2026-09-04 05:33:52 | 52.52681 | 9.13417 | 48° | 9km/h | 21877m | -30.7m/s | -53°C | 0.1% | 43.6hPa | 2.6V | 08:26:00 | 02:02:40 | 00:00:00 | |
| DO2JMG | 2026-09-04 05:33:50 | 52.52679 | 9.13412 | 58° | 5km/h | 21939m | -30.9m/s | -52.8°C | 0.1% | 43.2hPa | 2.5V | 08:26:00 | 02:02:38 | 00:00:00 | |
| DL1XH-west | 2026-09-04 05:33:48 | 52.52678 | 9.13409 | 86° | 4km/h | 22001m | -31.8m/s | -52.5°C | 0% | 42.8hPa | 2.6V | 08:26:00 | 02:02:36 | 00:00:00 | |
| DO2SHX-10 | 2026-09-04 05:33:48 | 52.52677 | 9.13408 | 87° | 5km/h | 22002m | -31.7m/s | -52.4°C | 3.4% | 42.7hPa | 2.6V | 00:00:00 | 02:02:36 | 00:00:00 | |
| DF2AP-13 | 2026-09-04 05:33:47 | 52.52677 | 9.13406 | 84° | 13km/h | 22034m | -32.4m/s | -52.2°C | 3.3% | 42.6hPa | 2.6V | 08:25:00 | 02:02:35 | 00:00:00 | |
| DM0DOS-11 | 2026-09-04 05:33:46 | 52.52680 | 9.13388 | 89° | 11km/h | 22232m | -33m/s | -52.8°C | 3.5% | 41.3hPa | 2.6V | 08:25:55 | 02:02:29 | 00:00:00 | |
| AA1-15 | 2026-09-04 05:33:45 | 52.52678 | 9.13402 | 118° | 5km/h | 22099m | -32.6m/s | -52.4°C | 0% | 42.2hPa | 2.6V | 08:26:00 | 02:02:33 | 00:00:00 | |
| DF8AY | 2026-09-04 05:33:44 | 52.52679 | 9.13396 | 110° | 7km/h | 22164m | -33.7m/s | -52.6°C | 0% | 41.8hPa | 2.5V | 08:26:00 | 02:02:31 | 00:00:00 | |
| HSKMA3-T | 2026-09-04 05:33:43 | 52.52680 | 9.13388 | 90° | 11km/h | 22232m | -33m/s | -52.8°C | 0% | 41.3hPa | 2.6V | 08:26:00 | 02:02:29 | 00:00:00 | |
| DO2JMG | 2026-09-04 05:33:40 | 52.52680 | 9.13384 | 87° | 9km/h | 22265m | -33.4m/s | -52.8°C | 0.1% | 41.1hPa | 2.6V | 08:26:00 | 02:02:28 | 00:00:00 | |
| DL1XH-west | 2026-09-04 05:33:37 | 52.52678 | 9.13371 | 62° | 13km/h | 22363m | -33.5m/s | -53°C | 0.1% | 40.5hPa | 2.5V | 08:26:00 | 02:02:25 | 00:00:00 | |
| DM0DOS-11 | 2026-09-04 05:33:36 | 52.52669 | 9.13337 | 67° | 13km/h | 22569m | -33.6m/s | -53°C | 3.6% | 39.2hPa | 2.5V | 08:26:05 | 02:02:19 | 00:00:00 | |
| DL3AQ-11 | 2026-09-04 05:33:36 | 52.52675 | 9.13360 | 56° | 15km/h | 22431m | -34.2m/s | -52.9°C | 0.8% | 40.0hPa | 2.5V | 00:00:00 | 00:00:00 | 00:00:00 | |
| DL1XH-15 | 2026-09-04 05:33:35 | 52.52668 | 9.13332 | 81° | 15km/h | 22602m | -33.8m/s | -53.1°C | 3.6% | 39hPa | 2.5V | 08:26:06 | 02:02:18 | 00:00:00 | |
| BIOWL1-15 | 2026-09-04 05:33:35 | 52.52675 | 9.13360 | 57° | 15km/h | 22431m | -34.2m/s | -52.9°C | 0.1% | 40hPa | 2.6V | 08:26:51 | 02:02:23 | 00:00:00 | |
| AA1-15 | 2026-09-04 05:33:34 | 52.52674 | 9.13355 | 65° | 15km/h | 22465m | -34.3m/s | -52.9°C | 0.1% | 39.8hPa | 2.6V | 08:26:51 | 02:02:22 | 00:00:00 | |
| DF8AY | 2026-09-04 05:33:32 | 52.52671 | 9.13343 | 65° | 15km/h | 22535m | -34.4m/s | -52.9°C | 0.1% | 39.4hPa | 2.5V | 08:26:51 | 02:02:20 | 00:00:00 | |
| HSKMA3-T | 2026-09-04 05:33:31 | 52.52668 | 9.13331 | 81° | 15km/h | 22602m | -33.8m/s | -53.1°C | 0.1% | 39hPa | 2.5V | 08:26:51 | 02:02:18 | 00:00:00 | |
| DO2JMG | 2026-09-04 05:33:29 | 52.52668 | 9.13325 | 84° | 16km/h | 22636m | -33.5m/s | -53°C | 0.1% | 38.8hPa | 2.6V | 08:26:51 | 02:02:17 | 00:00:00 | |
| DL1XH-west | 2026-09-04 05:33:27 | 52.52669 | 9.13312 | 111° | 16km/h | 22703m | -34.2m/s | -53°C | 0.1% | 38.4hPa | 2.6V | 08:26:51 | 02:02:15 | 00:00:00 | |
| BIOWL1-15 | 2026-09-04 05:33:26 | 52.52674 | 9.13295 | 131° | 15km/h | 22807m | -34.6m/s | -52.9°C | 0.1% | 37.8hPa | 2.6V | 08:26:51 | 02:02:12 | 00:00:00 | |
| DL1XH-15 | 2026-09-04 05:33:25 | 52.52680 | 9.13277 | 93° | 13km/h | 22944m | -34.6m/s | -52.7°C | 3.6% | 36.9hPa | 2.5V | 08:26:16 | 02:02:08 | 00:00:00 | |
| AA1-15 | 2026-09-04 05:33:23 | 52.52676 | 9.13290 | 119° | 13km/h | 22842m | -34.5m/s | -52.9°C | 0.1% | 37.6hPa | 2.6V | 08:26:51 | 02:02:11 | 00:00:00 | |
| DF8AY | 2026-09-04 05:33:22 | 52.52678 | 9.13285 | 124° | 11km/h | 22876m | -34.5m/s | -52.8°C | 0.1% | 37.4hPa | 2.6V | 08:26:51 | 02:02:10 | 00:00:00 | |
| HSKMA3-T | 2026-09-04 05:33:21 | 52.52680 | 9.13277 | 93° | 13km/h | 22944m | -34.6m/s | -52.7°C | 0.1% | 36.9hPa | 2.5V | 08:26:51 | 02:02:08 | 00:00:00 | |
| DM0DOS-11 | 2026-09-04 05:33:21 | 52.52679 | 9.13282 | 117° | 11km/h | 22910m | -34.5m/s | -52.7°C | 3.5% | 37.1hPa | 2.6V | 08:26:15 | 02:02:09 | 00:00:00 | |
| DO2JMG | 2026-09-04 05:33:18 | 52.52680 | 9.13266 | 91° | 16km/h | 23015m | -35.1m/s | -52.9°C | 0.1% | 36.6hPa | 2.5V | 08:26:51 | 02:02:06 | 00:00:00 | |
| DO2SHX-10 | 2026-09-04 05:33:17 | 52.52680 | 9.13259 | 81° | 18km/h | 23051m | -36.3m/s | -52.9°C | 3.7% | 36.3hPa | 2.6V | 00:00:00 | 02:02:05 | 00:00:00 | |
| DL1XH-west | 2026-09-04 05:33:17 | 52.52680 | 9.13259 | 81° | 18km/h | 23050m | -36.3m/s | -53°C | 0.2% | 36.4hPa | 2.6V | 08:26:51 | 02:02:05 | 00:00:00 | |
| DL1XH1-15 | 2026-09-04 05:33:16 | 52.52682 | 9.13210 | 109° | 20km/h | 23264m | -35.9m/s | -52.8°C | 3.7% | 35.2hPa | 2.6V | 08:26:25 | 02:01:59 | 00:00:00 | |
| DF5WG-10 | 2026-09-04 05:33:16 | 52.52680 | 9.13251 | 84° | 18km/h | 23086m | -35.5m/s | -52.9°C | 3.7% | 36.1hPa | 2.6V | 00:00:00 | 02:02:04 | 00:00:00 | |
| DL1XH-15 | 2026-09-04 05:33:15 | 52.52684 | 9.13203 | 118° | 16km/h | 23300m | -35.1m/s | -52.5°C | 3.6% | 35hPa | 2.6V | 08:26:26 | 02:01:58 | 00:00:00 | |
| BIOWL1-15 | 2026-09-04 05:33:13 | 52.52679 | 9.13226 | 90° | 20km/h | 23193m | -35.1m/s | -52.9°C | 0.2% | 35.5hPa | 2.5V | 08:26:51 | 02:02:01 | 00:00:00 | |
| DF8AY | 2026-09-04 05:33:11 | 52.52682 | 9.13210 | 109° | 20km/h | 23264m | -35.9m/s | -52.8°C | 0.2% | 35.2hPa | 2.6V | 08:26:51 | 02:01:59 | 00:00:00 | |
| HSKMA3-T | 2026-09-04 05:33:11 | 52.52686 | 9.13198 | 140° | 16km/h | 23335m | -34.7m/s | -52.3°C | 0.1% | 34.8hPa | 2.6V | 08:26:51 | 02:01:57 | 00:00:00 | |
| DO2JMG | 2026-09-04 05:33:08 | 52.52690 | 9.13194 | 150° | 18km/h | 23370m | -35.6m/s | -52.3°C | 0.1% | 34.6hPa | 2.5V | 08:26:51 | 02:01:56 | 00:00:00 | |
| DO2SHX-10 | 2026-09-04 05:33:07 | 52.52694 | 9.13190 | 151° | 22km/h | 23405m | -34.6m/s | -52.2°C | 3.5% | 34.4hPa | 2.5V | 00:00:00 | 02:01:55 | 00:00:00 | |
| DM0DOS-11 | 2026-09-04 05:33:06 | 52.52723 | 9.13171 | 158° | 16km/h | 23616m | -35.6m/s | -52.1°C | 3.5% | 33.3hPa | 2.5V | 08:26:35 | 02:01:49 | 00:00:00 | |
| DL1XH-west | 2026-09-04 05:33:06 | 52.52698 | 9.13186 | 157° | 20km/h | 23439m | -34.8m/s | -52.3°C | 0.1% | 34.2hPa | 2.5V | 08:26:51 | 02:01:54 | 00:00:00 | |
| DB0UT-7 | 2026-09-04 05:33:06 | 52.52698 | 9.13186 | 157° | 16km/h | 23440m | -34.8m/s | -52.3°C | 3.6% | 34.2hPa | 2.5V | 00:00:00 | 02:01:54 | 00:00:00 | |
| DL1XH-15 | 2026-09-04 05:33:05 | 52.52726 | 9.13170 | 167° | 16km/h | 23652m | -36.6m/s | -52°C | 3.5% | 33.1hPa | 2.6V | 08:26:36 | 02:01:48 | 00:00:00 | |
| BIOWL1-15 | 2026-09-04 05:33:03 | 52.52714 | 9.13177 | 165° | 20km/h | 23544m | -35.3m/s | -52.3°C | 0.1% | 33.7hPa | 2.6V | 08:26:51 | 02:01:51 | 00:00:00 | |
| AA1-15 | 2026-09-04 05:33:02 | 52.52719 | 9.13174 | 158° | 18km/h | 23580m | -35.3m/s | -52.2°C | 0.1% | 33.5hPa | 2.5V | 08:26:51 | 02:01:50 | 00:00:00 | |
| DF8AY | 2026-09-04 05:33:00 | 52.52727 | 9.13170 | 168° | 16km/h | 23652m | -36.6m/s | -52°C | 0% | 33.1hPa | 2.6V | 08:26:51 | 02:01:48 | 00:00:00 | |
| DO2JMG | 2026-09-04 05:32:58 | 52.52734 | 9.13167 | 157° | 16km/h | 23724m | -34.8m/s | -51.8°C | 0% | 32.7hPa | 2.6V | 08:26:51 | 02:01:46 | 00:00:00 | |
| DL1XH-west | 2026-09-04 05:32:56 | 52.52741 | 9.13165 | 173° | 16km/h | 23795m | -35.7m/s | -51.6°C | 0% | 32.4hPa | 2.5V | 08:26:51 | 02:01:44 | 00:00:00 | |
| EDDB2-11 | 2026-09-04 05:32:56 | 52.52745 | 9.13165 | 184° | 15km/h | 23831m | -35.4m/s | -51.4°C | 0.7% | 32.2hPa | 2.5V | 00:00:00 | 00:00:00 | 00:00:00 | |
| DL1XH-15 | 2026-09-04 05:32:55 | 52.52759 | 9.13188 | 246° | 20km/h | 24005m | -35m/s | -50.8°C | 3.3% | 31.3hPa | 2.5V | 08:26:46 | 02:01:38 | 00:00:00 | |
| BIOWL1-15 | 2026-09-04 05:32:55 | 52.52751 | 9.13170 | 226° | 16km/h | 23901m | -34m/s | -51.2°C | 0% | 31.9hPa | 2.6V | 08:26:51 | 02:01:41 | 00:00:00 | |
| AA1-15 | 2026-09-04 05:32:52 | 52.52754 | 9.13176 | 229° | 20km/h | 23935m | -34.8m/s | -51°C | 0% | 31.7hPa | 2.6V | 08:26:51 | 02:01:40 | 00:00:00 | |
| DF8AY | 2026-09-04 05:32:49 | 52.52761 | 9.13196 | 243° | 18km/h | 24040m | -35.2m/s | -50.7°C | 0% | 31.2hPa | 2.6V | 08:26:51 | 02:01:37 | 00:00:00 | |
| HSKMA3-T | 2026-09-04 05:32:49 | 52.52763 | 9.13203 | 247° | 15km/h | 24075m | -34.8m/s | -50.6°C | 0% | 31hPa | 2.6V | 08:26:51 | 02:01:36 | 00:00:00 | |
| DO2JMG | 2026-09-04 05:32:47 | 52.52764 | 9.13208 | 248° | 15km/h | 24110m | -34.8m/s | -50.6°C | 0% | 30.8hPa | 2.6V | 08:26:51 | 02:01:35 | 00:00:00 | |
| DF2AP-13 | 2026-09-04 05:32:47 | 52.52764 | 9.13208 | 249° | 15km/h | 24110m | -34.8m/s | -50.6°C | 3.2% | 30.8hPa | 2.6V | 00:00:00 | 02:01:35 | 00:00:00 | |
| DL1XH1-15 | 2026-09-04 05:32:46 | 52.52778 | 9.13231 | 236° | 13km/h | 24321m | -35.5m/s | -51.2°C | 3.4% | 29.9hPa | 2.6V | 08:26:55 | 02:01:29 | 00:00:00 | |
| DL1XH-west | 2026-09-04 05:32:46 | 52.52766 | 9.13214 | 241° | 15km/h | 24144m | -33.9m/s | -50.7°C | 0% | 30.6hPa | 2.6V | 08:26:51 | 02:01:34 | 00:00:00 | |
| AU51GT2 | 2026-09-04 05:32:45 | 52.52768 | 9.13219 | 216° | 15km/h | 24179m | -35.2m/s | -50.8°C | 0.7% | 30.5hPa | 2.6V | 00:00:00 | 00:00:00 | 00:00:00 | |
| BIOWL1-15 | 2026-09-04 05:32:42 | 52.52776 | 9.13228 | 221° | 11km/h | 24285m | -35.4m/s | -51.1°C | 0% | 30hPa | 2.6V | 08:27:42 | 02:01:30 | 00:00:00 | |
| AA1-15 | 2026-09-04 05:32:41 | 52.52778 | 9.13231 | 237° | 13km/h | 24321m | -35.5m/s | -51.2°C | 0% | 29.9hPa | 2.6V | 08:27:42 | 02:01:29 | 00:00:00 | |
| DB0DAN | 2026-09-04 05:32:40 | 52.52779 | 9.13235 | 263° | 7km/h | 24357m | -36.8m/s | -51.2°C | 0.7% | 29.69hPa | 2.6V | 00:00:00 | 00:00:00 | 00:00:00 | |
| DF8AY | 2026-09-04 05:32:39 | 52.52778 | 9.13239 | 283° | 11km/h | 24394m | -37m/s | -51.2°C | 0% | 29.6hPa | 2.6V | 08:27:42 | 02:01:27 | 00:00:00 | |
| DO2JMG | 2026-09-04 05:32:37 | 52.52776 | 9.13248 | 295° | 11km/h | 24468m | -36.3m/s | -51.1°C | 0% | 29.2hPa | 2.5V | 08:27:42 | 02:01:25 | 00:00:00 | |
| DJ2KF-10 | 2026-09-04 05:32:37 | 52.52776 | 9.13247 | 295° | 16km/h | 24468m | -36.2m/s | -51.0°C | 3.4% | 29.1hPa | 2.5V | 00:00:00 | 02:01:25 | 00:00:00 | |
| DL1XH1-15 | 2026-09-04 05:32:36 | 52.52769 | 9.13280 | 285° | 16km/h | 24692m | -37.1m/s | -50°C | 3.2% | 28.2hPa | 2.5V | 08:27:05 | 02:01:19 | 00:00:00 | |
| DO2SHX-10 | 2026-09-04 05:32:36 | 52.52775 | 9.13252 | 300° | 15km/h | 24505m | -36.9m/s | -50.9°C | 3.3% | 29.0hPa | 2.6V | 00:00:00 | 02:01:24 | 00:00:00 | |
| DL1XH-15 | 2026-09-04 05:32:35 | 52.52768 | 9.13287 | 268° | 18km/h | 24729m | -37.2m/s | -49.6°C | 3.1% | 28hPa | 2.6V | 08:27:06 | 02:01:18 | 00:00:00 | |
| DL1XH-west | 2026-09-04 05:32:35 | 52.52773 | 9.13257 | 291° | 13km/h | 24542m | -37.1m/s | -50.8°C | 0% | 28.9hPa | 2.6V | 08:27:42 | 02:01:23 | 00:00:00 | |
| BIOWL1-15 | 2026-09-04 05:32:32 | 52.52770 | 9.13274 | 286° | 15km/h | 24654m | -37.3m/s | -50.3°C | 0% | 28.4hPa | 2.5V | 08:27:42 | 02:01:20 | 00:00:00 | |
| AA1-15 | 2026-09-04 05:32:31 | 52.52769 | 9.13280 | 286° | 16km/h | 24692m | -37.1m/s | -50°C | 0% | 28.2hPa | 2.5V | 08:27:42 | 02:01:19 | 00:00:00 | |
| DF8AY | 2026-09-04 05:32:28 | 52.52769 | 9.13302 | 262° | 20km/h | 24803m | -37.1m/s | -49.5°C | 0% | 27.8hPa | 2.6V | 08:27:42 | 02:01:16 | 00:00:00 | |
| DO2JMG | 2026-09-04 05:32:27 | 52.52770 | 9.13310 | 264° | 16km/h | 24840m | -37.8m/s | -49.5°C | 0% | 27.6hPa | 2.6V | 08:27:42 | 02:01:15 | 00:00:00 | |
| DK5PH-5 | 2026-09-04 05:32:27 | 52.52770 | 9.13310 | 264° | 16km/h | 24840m | -37.8m/s | -49.4°C | 3.1% | 27.5hPa | 2.5V | 00:00:00 | 02:01:15 | 00:00:00 | |
| DO3MHA-11 | 2026-09-04 05:32:26 | 52.52770 | 9.13317 | 276° | 18km/h | 24878m | -37.1m/s | -49.4°C | 3.1% | 27.4hPa | 2.5V | 00:00:00 | 02:01:14 | 00:00:00 | |
| DL1XH-15 | 2026-09-04 05:32:25 | 52.52754 | 9.13336 | 9° | 16km/h | 25104m | -37.9m/s | -49.4°C | 3% | 26.4hPa | 2.5V | 08:27:16 | 02:01:08 | 00:00:00 | |
| DL1XH-west | 2026-09-04 05:32:24 | 52.52768 | 9.13330 | 314° | 15km/h | 24952m | -37.2m/s | -49.5°C | 0% | 27.1hPa | 2.6V | 08:27:42 | 02:01:12 | 00:00:00 | |
| AA1-15 | 2026-09-04 05:32:21 | 52.52758 | 9.13337 | 2° | 16km/h | 25066m | -38.1m/s | -49.6°C | 0% | 26.6hPa | 2.6V | 08:27:42 | 02:01:09 | 00:00:00 | |
| DF8AY | 2026-09-04 05:32:18 | 52.52747 | 9.13331 | 40° | 15km/h | 25180m | -37.5m/s | -49.6°C | 0% | 26.2hPa | 2.6V | 08:27:42 | 02:01:06 | 00:00:00 | |
| HSKMA3-T | 2026-09-04 05:32:17 | 52.52744 | 9.13327 | 53° | 16km/h | 25218m | -37.6m/s | -49.6°C | 0% | 26hPa | 2.6V | 08:27:42 | 02:01:05 | 00:00:00 | |
| DO2JMG | 2026-09-04 05:32:16 | 52.52742 | 9.13322 | 51° | 16km/h | 25255m | -38.4m/s | -49.5°C | 0% | 25.9hPa | 2.6V | 08:27:42 | 02:01:04 | 00:00:00 | |
| DO9LL-15 | 2026-09-04 05:32:16 | 52.52742 | 9.13321 | 51° | 18km/h | 25256m | -38.3m/s | -49.5°C | 3.1% | 25.8hPa | 2.6V | 00:00:00 | 02:01:04 | 00:00:00 | |
| DL1XH-15 | 2026-09-04 05:32:15 | 52.52732 | 9.13284 | 74° | 16km/h | 25482m | -37.8m/s | -48.9°C | 3% | 25hPa | 2.6V | 08:27:26 | 02:00:58 | 00:00:00 | |
| DL1XH-west | 2026-09-04 05:32:13 | 52.52736 | 9.13304 | 62° | 16km/h | 25370m | -38.6m/s | -49.2°C | 0% | 25.4hPa | 2.6V | 08:27:42 | 02:01:01 | 00:00:00 | |
| AA1-15 | 2026-09-04 05:32:10 | 52.52732 | 9.13284 | 75° | 16km/h | 25482m | -37.8m/s | -48.9°C | 0% | 25hPa | 2.6V | 08:27:42 | 02:00:58 | 00:00:00 | |
| DF8AY | 2026-09-04 05:32:07 | 52.52730 | 9.13261 | 81° | 20km/h | 25597m | -38m/s | -48.7°C | 0% | 24.5hPa | 2.6V | 08:27:42 | 02:00:55 | 00:00:00 | |
| HSKMA3-T | 2026-09-04 05:32:06 | 52.52729 | 9.13253 | 81° | 18km/h | 25635m | -38.4m/s | -48.6°C | 0% | 24.4hPa | 2.6V | 08:27:42 | 02:00:54 | 00:00:00 | |
| DM0DOS-11 | 2026-09-04 05:32:06 | 52.52728 | 9.13213 | 96° | 20km/h | 25831m | -39.2m/s | -48°C | 2.7% | 23.7hPa | 2.6V | 08:27:35 | 02:00:49 | 00:00:00 | |
| DO2JMG | 2026-09-04 05:32:05 | 52.52729 | 9.13245 | 90° | 20km/h | 25674m | -38.6m/s | -48.4°C | 0% | 24.2hPa | 2.7V | 08:27:42 | 02:00:53 | 00:00:00 | |
| DL1XH-west | 2026-09-04 05:32:03 | 52.52728 | 9.13229 | 86° | 18km/h | 25752m | -39.1m/s | -48.1°C | 0% | 24hPa | 2.6V | 08:27:42 | 02:00:51 | 00:00:00 | |
| BIOWL1-15 | 2026-09-04 05:32:00 | 52.52728 | 9.13204 | 93° | 20km/h | 25871m | -39.1m/s | -48°C | 0% | 23.5hPa | 2.6V | 08:27:42 | 02:00:48 | 00:00:00 | |
| AA1-15 | 2026-09-04 05:31:59 | 52.52729 | 9.13196 | 91° | 18km/h | 25910m | -39m/s | -48°C | 0% | 23.4hPa | 2.6V | 08:27:42 | 02:00:47 | 00:00:00 | |
| DF8AY | 2026-09-04 05:31:57 | 52.52730 | 9.13180 | 97° | 20km/h | 25989m | -40.5m/s | -48.1°C | 0% | 23.1hPa | 2.6V | 08:27:42 | 02:00:45 | 00:00:00 | |
| DK5PH-5 | 2026-09-04 05:31:57 | 52.52730 | 9.13180 | 97° | 15km/h | 25989m | -40.4m/s | -48.1°C | 2.7% | 23.1hPa | 2.6V | 00:00:00 | 02:00:45 | 00:00:00 | |
| DM0DOS-11 | 2026-09-04 05:31:56 | 52.52735 | 9.13132 | 98° | 16km/h | 26230m | -40.4m/s | -48.7°C | 2.8% | 22.3hPa | 2.6V | 08:27:45 | 02:00:39 | 00:00:00 | |
| DO2JMG | 2026-09-04 05:31:55 | 52.52732 | 9.13163 | 102° | 20km/h | 26069m | -39.8m/s | -48.1°C | 0% | 22.8hPa | 2.6V | 08:27:42 | 02:00:43 | 00:00:00 | |
| DL1XH-west | 2026-09-04 05:31:52 | 52.52734 | 9.13140 | 96° | 20km/h | 26190m | -40.1m/s | -48.7°C | 0% | 22.4hPa | 2.6V | 08:28:33 | 02:00:40 | 00:00:00 | |
| BIOWL1-15 | 2026-09-04 05:31:49 | 52.52737 | 9.13120 | 111° | 16km/h | 26310m | -40.4m/s | -48.8°C | 0% | 22hPa | 2.6V | 08:28:33 | 02:00:37 | 00:00:00 | |
| DF8AY | 2026-09-04 05:31:46 | 52.52741 | 9.13103 | 117° | 13km/h | 26428m | -38.5m/s | -48.9°C | 0% | 21.6hPa | 2.6V | 08:28:33 | 02:00:34 | 00:00:00 | |
| DO2JMG | 2026-09-04 05:31:44 | 52.52744 | 9.13096 | 134° | 11km/h | 26503m | -38m/s | -48.9°C | 0% | 21.3hPa | 2.5V | 08:28:33 | 02:00:32 | 00:00:00 | |
| DO3MHA-11 | 2026-09-04 05:31:44 | 52.52744 | 9.13096 | 134° | 13km/h | 26503m | -38.0m/s | -48.9°C | 2.9% | 21.3hPa | 2.6V | 00:00:00 | 02:00:32 | 00:00:00 | |
| DL1XH-15 | 2026-09-04 05:31:43 | 52.52754 | 9.13073 | 106° | 13km/h | 26733m | -37.7m/s | -48.9°C | 3% | 20.6hPa | 2.6V | 08:27:58 | 02:00:26 | 00:00:00 | |
| DL1XH-west | 2026-09-04 05:31:41 | 52.52750 | 9.13086 | 118° | 9km/h | 26616m | -39m/s | -48.7°C | 0% | 21hPa | 2.6V | 08:28:33 | 02:00:29 | 00:00:00 | |
| DB0DAN | 2026-09-04 05:31:40 | 52.52751 | 9.13082 | 123° | 11km/h | 26656m | -39.7m/s | -48.8°C | 0.6% | 20.83hPa | 2.6V | 00:00:00 | 00:00:00 | 00:00:00 | |
| BIOWL1-15 | 2026-09-04 05:31:39 | 52.52753 | 9.13078 | 118° | 13km/h | 26695m | -38.4m/s | -48.9°C | 0% | 20.7hPa | 2.6V | 08:28:33 | 02:00:27 | 00:00:00 | |
| AA1-15 | 2026-09-04 05:31:38 | 52.52754 | 9.13073 | 106° | 13km/h | 26733m | -37.7m/s | -48.9°C | 0% | 20.6hPa | 2.6V | 08:28:33 | 02:00:26 | 00:00:00 | |
| DO3MHA-12 | 2026-09-04 05:31:38 | 52.52754 | 9.13073 | 107° | 15km/h | 26733m | -37.7m/s | -48.9°C | 3.0% | 20.5hPa | 2.6V | 00:00:00 | 02:00:26 | 00:00:00 | |
| SMARD9-10 | 2026-09-04 05:31:37 | 52.52754 | 9.13073 | 107° | 13km/h | 26733m | -37.7m/s | -48.9°C | 0.5% | 20.6hPa | 2.6V | 00:00:00 | 00:00:00 | 00:00:00 | |
| DL1XH1-15 | 2026-09-04 05:31:36 | 52.52767 | 9.13040 | 143° | 16km/h | 27007m | -39.3m/s | -48.9°C | 3% | 19.7hPa | 2.6V | 08:28:05 | 02:00:19 | 00:00:00 | |
| DF8AY | 2026-09-04 05:31:36 | 52.52756 | 9.13064 | 115° | 13km/h | 26810m | -38.6m/s | -49°C | 0% | 20.3hPa | 2.6V | 08:28:33 | 02:00:24 | 00:00:00 | |
| DO2JMG | 2026-09-04 05:31:34 | 52.52760 | 9.13053 | 120° | 16km/h | 26889m | -39.3m/s | -48.9°C | 0% | 20.1hPa | 2.6V | 08:28:33 | 02:00:22 | 00:00:00 | |
| DO3MHA-11 | 2026-09-04 05:31:34 | 52.52760 | 9.13053 | 121° | 13km/h | 26889m | -39.3m/s | -48.9°C | 3.0% | 20.0hPa | 2.6V | 00:00:00 | 02:00:22 | 00:00:00 | |
| DL1XH-15 | 2026-09-04 05:31:33 | 52.52775 | 9.13031 | 152° | 11km/h | 27130m | -41.1m/s | -49°C | 3% | 19.4hPa | 2.6V | 08:28:08 | 02:00:16 | 00:00:00 | |
| DL1XH-west | 2026-09-04 05:31:30 | 52.52770 | 9.13037 | 138° | 15km/h | 27048m | -40.2m/s | -48.8°C | 0% | 19.6hPa | 2.6V | 08:28:33 | 02:00:18 | 00:00:00 | |
| AA1-15 | 2026-09-04 05:31:28 | 52.52775 | 9.13032 | 153° | 11km/h | 27130m | -41.1m/s | -49°C | 0% | 19.4hPa | 2.6V | 08:28:33 | 02:00:16 | 00:00:00 | |
| DO3MHA-12 | 2026-09-04 05:31:28 | 52.52775 | 9.13032 | 153° | 7km/h | 27130m | -41.1m/s | -48.9°C | 3.0% | 19.3hPa | 2.6V | 00:00:00 | 02:00:16 | 00:00:00 | |
| DO2SHX-10 | 2026-09-04 05:31:27 | 52.52777 | 9.13029 | 144° | 9km/h | 27171m | -41.0m/s | -49.0°C | 3.0% | 19.2hPa | 2.6V | 00:00:00 | 02:00:15 | 00:00:00 | |
| DO3DL | 2026-09-04 05:31:26 | 52.52777 | 9.13029 | 145° | 9km/h | 27171m | -41.0m/s | -49.0°C | 0.5% | 19.3hPa | 2.6V | 08:28:00 | 00:00:00 | 00:00:00 | |
| DB0DAN | 2026-09-04 05:31:25 | 52.52781 | 9.13026 | 159° | 7km/h | 27253m | -41.6m/s | -48.8°C | 0.6% | 19.01hPa | 2.6V | 00:00:00 | 00:00:00 | 00:00:00 | |
| DF8AY | 2026-09-04 05:31:25 | 52.52781 | 9.13026 | 159° | 9km/h | 27253m | -41.6m/s | -48.8°C | 0% | 19hPa | 2.6V | 08:28:33 | 02:00:13 | 00:00:00 | |
| DO2JMG | 2026-09-04 05:31:24 | 52.52782 | 9.13024 | 142° | 7km/h | 27294m | -40.7m/s | -48.7°C | 0% | 18.9hPa | 2.6V | 08:28:33 | 02:00:12 | 00:00:00 | |
| HSKMA3-T | 2026-09-04 05:31:23 | 52.52784 | 9.13023 | 162° | 5km/h | 27335m | -41.1m/s | -48.5°C | 0% | 18.7hPa | 2.6V | 08:28:33 | 02:00:11 | 00:00:00 | |
| EDDB2-11 | 2026-09-04 05:31:23 | 52.52785 | 9.13022 | 142° | 7km/h | 27376m | -40.9m/s | -48.3°C | 0.5% | 18.6hPa | 2.6V | 00:00:00 | 00:00:00 | 00:00:00 | |
| DL1XH-15 | 2026-09-04 05:31:22 | 52.52792 | 9.13011 | 128° | 9km/h | 27576m | -40m/s | -47.9°C | 2.9% | 18.1hPa | 2.6V | 08:28:19 | 02:00:05 | 00:00:00 | |
| DM0DOS-11 | 2026-09-04 05:31:21 | 52.52787 | 9.13020 | 153° | 5km/h | 27416m | -39.9m/s | -48.2°C | 2.9% | 18.5hPa | 2.6V | 08:28:15 | 02:00:09 | 00:00:00 | |
| DL1XH-west | 2026-09-04 05:31:20 | 52.52788 | 9.13018 | 130° | 7km/h | 27456m | -39.9m/s | -48.1°C | 0% | 18.4hPa | 2.5V | 08:28:33 | 02:00:08 | 00:00:00 | |
| BIOWL1-15 | 2026-09-04 05:31:18 | 52.52791 | 9.13014 | 110° | 9km/h | 27536m | -39.9m/s | -47.9°C | 0% | 18.2hPa | 2.6V | 08:28:33 | 02:00:06 | 00:00:00 | |
| AA1-15 | 2026-09-04 05:31:17 | 52.52792 | 9.13010 | 129° | 9km/h | 27576m | -40m/s | -47.9°C | 0% | 18.1hPa | 2.6V | 08:28:33 | 02:00:05 | 00:00:00 | |
| DF8AY | 2026-09-04 05:31:14 | 52.52795 | 9.12998 | 121° | 13km/h | 27699m | -42m/s | -47.8°C | 0% | 17.8hPa | 2.5V | 08:28:33 | 02:00:02 | 00:00:00 | |
| DO2JMG | 2026-09-04 05:31:13 | 52.52797 | 9.12994 | 118° | 13km/h | 27741m | -42.3m/s | -47.7°C | 0% | 17.6hPa | 2.5V | 08:28:33 | 02:00:01 | 00:00:00 | |
| DL1XH-west | 2026-09-04 05:31:10 | 52.52803 | 9.12980 | 121° | 13km/h | 27869m | -42m/s | -47.7°C | 0% | 17.3hPa | 2.6V | 08:28:33 | 01:59:58 | 00:00:00 | |
| DJ2DS-15 | 2026-09-04 05:31:10 | 52.52803 | 9.12980 | 121° | 13km/h | 27869m | -41.9m/s | -47.7°C | 2.9% | 17.2hPa | 2.6V | 00:00:00 | 01:59:58 | 00:00:00 | |
| DO2SHX-10 | 2026-09-04 05:31:09 | 52.52805 | 9.12975 | 131° | 13km/h | 27911m | -41.9m/s | -47.7°C | 2.9% | 17.1hPa | 2.6V | 00:00:00 | 01:59:57 | 00:00:00 | |
| MET0W-2 | 2026-09-04 05:31:08 | 52.52808 | 9.12967 | 122° | 13km/h | 27996m | -44.0m/s | -47.6°C | 0.5% | 17.0hPa | 2.6V | 00:00:00 | 00:00:00 | 00:00:00 | |
| BIOWL1-15 | 2026-09-04 05:31:07 | 52.52808 | 9.12967 | 123° | 13km/h | 27996m | -44m/s | -47.6°C | 0% | 17hPa | 2.5V | 08:28:33 | 01:59:55 | 00:00:00 | |
| DM0DOS-11 | 2026-09-04 05:31:07 | 52.52819 | 9.12939 | 127° | 11km/h | 28260m | -43.7m/s | -47.5°C | 3% | 16.3hPa | 2.6V | 08:28:35 | 01:59:49 | 00:00:00 | |
| AA1-15 | 2026-09-04 05:31:06 | 52.52810 | 9.12962 | 117° | 11km/h | 28040m | -44.1m/s | -47.6°C | 0% | 16.9hPa | 2.6V | 08:28:33 | 01:59:54 | 00:00:00 | |
| DF8AY | 2026-09-04 05:31:04 | 52.52813 | 9.12953 | 113° | 13km/h | 28129m | -44m/s | -47.5°C | 0% | 16.6hPa | 2.6V | 08:28:33 | 01:59:52 | 00:00:00 | |
| HSKMA3-T | 2026-09-04 05:31:04 | 52.52817 | 9.12944 | 132° | 13km/h | 28216m | -43.4m/s | -47.6°C | 0% | 16.4hPa | 2.5V | 08:29:24 | 01:59:50 | 00:00:00 | |
| DO2JMG | 2026-09-04 05:31:03 | 52.52815 | 9.12948 | 125° | 11km/h | 28172m | -43.8m/s | -47.5°C | 0% | 16.5hPa | 2.6V | 08:28:33 | 01:59:51 | 00:00:00 | |
| DD8BA-10 | 2026-09-04 05:31:03 | 52.52814 | 9.12948 | 126° | 11km/h | 28173m | -43.8m/s | -47.5°C | 2.9% | 16.5hPa | 2.6V | 00:00:00 | 00:00:00 | 00:00:00 | |
| DL1XH-15 | 2026-09-04 05:31:02 | 52.52824 | 9.12928 | 119° | 7km/h | 28439m | -44.3m/s | -46.8°C | 2.9% | 15.9hPa | 2.6V | 08:30:00 | 01:59:45 | 00:00:00 | |
| DL1XH-west | 2026-09-04 05:30:59 | 52.52822 | 9.12933 | 125° | 7km/h | 28349m | -45.3m/s | -47.4°C | 0% | 16.1hPa | 2.6V | 08:29:24 | 01:59:47 | 00:00:00 | |
| DO2SHX-10 | 2026-09-04 05:30:59 | 52.52822 | 9.12932 | 126° | 7km/h | 28350m | -45.2m/s | -47.3°C | 3.0% | 16.0hPa | 2.6V | 00:00:00 | 01:59:47 | 00:00:00 | |
| DO3MHA-12 | 2026-09-04 05:30:58 | 52.52823 | 9.12930 | 139° | 16km/h | 28395m | -45.4m/s | -47.1°C | 2.9% | 15.9hPa | 2.6V | 00:00:00 | 01:59:46 | 00:00:00 | |
| DK5PH-5 | 2026-09-04 05:30:57 | 52.52824 | 9.12928 | 120° | 16km/h | 28439m | -44.3m/s | -46.8°C | 2.9% | 15.8hPa | 2.6V | 00:00:00 | 01:59:45 | 00:00:00 | |
| DL1XH1-15 | 2026-09-04 05:30:56 | 52.52816 | 9.12895 | 69° | 22km/h | 28702m | -44.7m/s | -46°C | 2.7% | 15.2hPa | 2.6V | 08:28:45 | 01:59:39 | 00:00:00 | |
| BIOWL1-15 | 2026-09-04 05:30:56 | 52.52824 | 9.12924 | 76° | 11km/h | 28484m | -44.6m/s | -46.5°C | 0% | 15.7hPa | 2.5V | 08:29:24 | 01:59:44 | 00:00:00 | |
| BUE01 | 2026-09-04 05:30:56 | 52.52823 | 9.12920 | 60° | 11km/h | 28528m | -44.1m/s | -46.3°C | 0.5% | 15.6hPa | 2.6V | 00:00:00 | 00:00:00 | 00:00:00 | |
| DB0DAN | 2026-09-04 05:30:55 | 52.52823 | 9.12920 | 61° | 13km/h | 28528m | -44.1m/s | -46.3°C | 0.5% | 15.61hPa | 2.6V | 00:00:00 | 00:00:00 | 00:00:00 | |
| AA1-15 | 2026-09-04 05:30:55 | 52.52823 | 9.12920 | 61° | 13km/h | 28528m | -44.1m/s | -46.3°C | 0% | 15.6hPa | 2.6V | 08:29:24 | 01:59:43 | 00:00:00 | |
| DF8AY | 2026-09-04 05:30:54 | 52.52822 | 9.12915 | 58° | 13km/h | 28571m | -43.8m/s | -46.1°C | 0% | 15.5hPa | 2.6V | 08:29:24 | 01:59:42 | 00:00:00 | |
| DO2JMG | 2026-09-04 05:30:53 | 52.52820 | 9.12910 | 65° | 18km/h | 28614m | -43.7m/s | -46°C | 0% | 15.4hPa | 2.6V | 08:29:24 | 01:59:41 | 00:00:00 | |
| HSKMA3-T | 2026-09-04 05:30:52 | 52.52816 | 9.12895 | 70° | 22km/h | 28702m | -44.7m/s | -46°C | 0% | 15.2hPa | 2.6V | 08:29:24 | 01:59:39 | 00:00:00 | |
| DL1XH-west | 2026-09-04 05:30:48 | 52.52812 | 9.12867 | 93° | 22km/h | 28837m | -44.8m/s | -45.9°C | 0% | 14.9hPa | 2.6V | 08:29:24 | 01:59:36 | 00:00:00 | |
| DO3MHA-12 | 2026-09-04 05:30:48 | 52.52812 | 9.12867 | 93° | 20km/h | 28837m | -44.7m/s | -45.8°C | 2.7% | 14.8hPa | 2.6V | 00:00:00 | 01:59:36 | 00:00:00 | |
| DO2SHX-10 | 2026-09-04 05:30:47 | 52.52814 | 9.12858 | 110° | 22km/h | 28882m | -45.1m/s | -45.6°C | 2.7% | 14.8hPa | 2.6V | 00:00:00 | 01:59:35 | 00:00:00 | |
| DM0DOS-11 | 2026-09-04 05:30:46 | 52.52834 | 9.12818 | 132° | 18km/h | 29157m | -44.8m/s | -45°C | 2.6% | 14.2hPa | 2.6V | 08:28:55 | 01:59:29 | 00:00:00 | |
| BIOWL1-15 | 2026-09-04 05:30:46 | 52.52816 | 9.12850 | 115° | 20km/h | 28926m | -45.1m/s | -45.5°C | 0% | 14.7hPa | 2.6V | 08:29:24 | 01:59:34 | 00:00:00 | |
| AA1-15 | 2026-09-04 05:30:44 | 52.52822 | 9.12836 | 133° | 20km/h | 29019m | -46.6m/s | -44.8°C | 0% | 14.5hPa | 2.5V | 08:29:24 | 01:59:32 | 00:00:00 | |
| DF8AY | 2026-09-04 05:30:43 | 52.52826 | 9.12830 | 143° | 22km/h | 29065m | -46.9m/s | -44.7°C | 0% | 14.4hPa | 2.5V | 08:29:24 | 01:59:31 | 00:00:00 | |
| DO2JMG | 2026-09-04 05:30:42 | 52.52830 | 9.12824 | 140° | 22km/h | 29112m | -46.2m/s | -44.9°C | 0% | 14.2hPa | 2.6V | 08:29:24 | 01:59:30 | 00:00:00 | |
| HSKMA3-T | 2026-09-04 05:30:40 | 52.52837 | 9.12813 | 141° | 18km/h | 29202m | -44.7m/s | -45°C | 0% | 14.1hPa | 2.6V | 08:29:24 | 01:59:28 | 00:00:00 | |
| DL1XH-west | 2026-09-04 05:30:38 | 52.52843 | 9.12803 | 125° | 15km/h | 29293m | -46.4m/s | -45°C | 0% | 13.9hPa | 2.5V | 08:29:24 | 01:59:26 | 00:00:00 | |
| BIOWL1-15 | 2026-09-04 05:30:36 | 52.52846 | 9.12794 | 119° | 13km/h | 29384m | -46.5m/s | -44.6°C | 0% | 13.7hPa | 2.6V | 08:29:24 | 01:59:24 | 00:00:00 | |
| AA1-15 | 2026-09-04 05:30:33 | 52.52851 | 9.12781 | 126° | 11km/h | 29525m | -47.1m/s | -43.9°C | 0% | 13.4hPa | 2.6V | 08:29:24 | 01:59:21 | 00:00:00 | |
| DO2JMG | 2026-09-04 05:30:32 | 52.52852 | 9.12777 | 134° | 15km/h | 29572m | -46.3m/s | -43.8°C | 0% | 13.3hPa | 2.6V | 08:29:24 | 01:59:20 | 00:00:00 | |
| DO2SHX-10 | 2026-09-04 05:30:32 | 52.52852 | 9.12777 | 134° | 16km/h | 29572m | -46.2m/s | -43.8°C | 2.4% | 13.2hPa | 2.6V | 00:00:00 | 01:59:20 | 00:00:00 | |
| GOEST3-10 | 2026-09-04 05:30:31 | 52.52855 | 9.12773 | 138° | 20km/h | 29619m | -46.7m/s | -43.6°C | 2.4% | 13.2hPa | 2.6V | 00:00:00 | 00:00:00 | 00:00:00 | |
| DL1XH-15 | 2026-09-04 05:30:30 | 52.52881 | 9.12749 | 160° | 24km/h | 29916m | -51.7m/s | -43°C | 2.2% | 12.7hPa | 2.6V | 08:30:00 | 01:59:13 | 00:00:00 | |
| HSKMA3-T | 2026-09-04 05:30:29 | 52.52862 | 9.12764 | 145° | 20km/h | 29715m | -48.5m/s | -43.3°C | 0% | 13hPa | 2.6V | 08:29:24 | 01:59:17 | 00:00:00 | |
| DL1XH-west | 2026-09-04 05:30:28 | 52.52866 | 9.12760 | 145° | 22km/h | 29763m | -49.3m/s | -43.1°C | 0% | 13hPa | 2.6V | 08:29:24 | 01:59:16 | 00:00:00 | |
| BIOWL1-15 | 2026-09-04 05:30:26 | 52.52876 | 9.12752 | 157° | 24km/h | 29864m | -50.8m/s | -42.9°C | 0% | 12.8hPa | 2.5V | 08:29:24 | 01:59:14 | 00:00:00 | |
| AA1-15 | 2026-09-04 05:30:23 | 52.52891 | 9.12747 | 176° | 18km/h | 30019m | -51.6m/s | -43.3°C | 0% | 12.5hPa | 2.7V | 08:29:24 | 01:59:11 | 00:00:00 | |
| DF8AY | 2026-09-04 05:30:22 | 52.52896 | 9.12747 | 189° | 20km/h | 30072m | -53.3m/s | -43.4°C | 0% | 12.4hPa | 2.6V | 08:29:24 | 01:59:10 | 00:00:00 | |
| DO2JMG | 2026-09-04 05:30:21 | 52.52901 | 9.12749 | 205° | 16km/h | 30125m | -53.1m/s | -43.5°C | 0% | 12.3hPa | 2.6V | 08:29:24 | 01:59:09 | 00:00:00 | |
| HSKMA3-T | 2026-09-04 05:30:20 | 52.52908 | 9.12756 | 226° | 11km/h | 30231m | -52.5m/s | -43.7°C | 0% | 12.1hPa | 2.6V | 08:29:24 | 01:59:07 | 00:00:00 | |
| DL1XH-15 | 2026-09-04 05:30:20 | 52.52911 | 9.12767 | 353° | 5km/h | 30441m | -54m/s | -43.4°C | 2.4% | 11.7hPa | 2.6V | 08:30:00 | 01:59:03 | 00:00:00 | |
| DL1XH-west | 2026-09-04 05:30:17 | 52.52911 | 9.12763 | 255° | 5km/h | 30336m | -52.1m/s | -43.5°C | 0% | 11.9hPa | 2.6V | 08:29:24 | 01:59:05 | 00:00:00 | |
| DO2SHX-10 | 2026-09-04 05:30:17 | 52.52911 | 9.12763 | 255° | 5km/h | 30336m | -52.0m/s | -43.5°C | 2.4% | 11.9hPa | 2.6V | 00:00:00 | 01:59:05 | 00:00:00 | |
| DM0DOS-11 | 2026-09-04 05:30:16 | 52.52908 | 9.12761 | 72° | 9km/h | 30655m | -53.5m/s | -43.9°C | 2.5% | 11.3hPa | 2.6V | 08:30:00 | 01:58:59 | 00:00:00 | |
| BIOWL1-15 | 2026-09-04 05:30:15 | 52.52911 | 9.12767 | 354° | 5km/h | 30441m | -54m/s | -43.4°C | 0% | 11.7hPa | 2.6V | 08:29:24 | 01:59:03 | 00:00:00 | |
| DF8AY | 2026-09-04 05:30:12 | 52.52908 | 9.12764 | 54° | 7km/h | 30602m | -53.7m/s | -43.8°C | 0% | 11.4hPa | 2.6V | 08:29:24 | 01:59:00 | 00:00:00 | |
| DO2JMG | 2026-09-04 05:30:11 | 52.52908 | 9.12761 | 73° | 9km/h | 30655m | -53.5m/s | -43.9°C | 0% | 11.3hPa | 2.6V | 18:12:15 | 01:58:59 | 00:00:00 | |
| DB0DAN | 2026-09-04 05:30:10 | 52.52907 | 9.12758 | 78° | 7km/h | 30709m | -53.7m/s | -43.9°C | 0.4% | 11.19hPa | 2.6V | 00:00:00 | 00:00:00 | 00:00:00 | |
| DL1XH-15 | 2026-09-04 05:30:10 | 52.52912 | 9.12733 | 104° | 18km/h | 30984m | -56m/s | -43.6°C | 2.5% | 10.8hPa | 2.6V | 08:30:00 | 01:58:53 | 00:00:00 | |
| DJ2DS-15 | 2026-09-04 05:30:10 | 52.52907 | 9.12758 | 79° | 22km/h | 30709m | -53.6m/s | -43.8°C | 2.5% | 11.1hPa | 2.6V | 00:00:00 | 01:58:58 | 00:00:00 | |
| DL1NUX | 2026-09-04 05:30:09 | 52.52914 | 9.12726 | 110° | 22km/h | 31040m | -56.3m/s | -43.4°C | 2.6% | 10.7hPa | 2.6V | 08:30:00 | 01:58:52 | 00:00:00 | |
| HSKMA3-T | 2026-09-04 05:30:08 | 52.52908 | 9.12751 | 110° | 13km/h | 30818m | -56.3m/s | -43.9°C | 0% | 11.1hPa | 2.5V | 18:12:15 | 01:58:56 | 00:00:00 | |
| DJ8HS-15 | 2026-09-04 05:30:08 | 52.52908 | 9.12751 | 111° | 22km/h | 30818m | -56.3m/s | -43.9°C | 2.6% | 11.0hPa | 2.5V | 00:00:00 | 01:58:56 | 00:00:00 | |
| DM0DOS-11 | 2026-09-04 05:30:06 | 52.52917 | 9.12697 | 99° | 26km/h | 31201m | -51.8m/s | -43.4°C | 2.6% | 10.4hPa | 2.5V | 08:30:00 | 01:58:49 | 00:00:00 | |
| DL1XH-west | 2026-09-04 05:30:06 | 52.52911 | 9.12740 | 119° | 16km/h | 30929m | -56m/s | -43.8°C | 0% | 10.9hPa | 2.6V | 18:12:15 | 01:58:54 | 00:00:00 | |
| BIOWL1-15 | 2026-09-04 05:30:05 | 52.52912 | 9.12733 | 105° | 18km/h | 30985m | -56m/s | -43.6°C | 0% | 10.8hPa | 2.6V | 18:12:15 | 01:58:53 | 00:00:00 | |
| AA1-15 | 2026-09-04 05:30:01 | 52.52917 | 9.12697 | 99° | 26km/h | 31201m | -51.8m/s | -43.4°C | 0% | 10.4hPa | 2.5V | 18:12:15 | 01:58:49 | 00:00:00 | |
| DO2JMG | 2026-09-04 05:30:00 | 52.52919 | 9.12686 | 106° | 27km/h | 31251m | -49.9m/s | -43.2°C | 0% | 10.3hPa | 2.6V | 18:12:15 | 01:58:48 | 00:00:00 | |
| HSKMA3-T | 2026-09-04 05:29:59 | 52.52924 | 9.12665 | 125° | 29km/h | 31351m | -53.6m/s | -42.7°C | 0% | 10.2hPa | 2.6V | 18:12:15 | 01:58:46 | 00:00:00 | |
| DL1NUX | 2026-09-04 05:29:59 | 52.52945 | 9.12639 | 165° | 29km/h | 31560m | -54.2m/s | -41.4°C | 2.3% | 9.8hPa | 2.6V | 08:30:00 | 01:58:42 | 00:00:00 | |
| BIOWL1-15 | 2026-09-04 05:29:56 | 52.52945 | 9.12639 | 166° | 29km/h | 31560m | -54.2m/s | -41.4°C | 0% | 9.8hPa | 2.6V | 18:12:15 | 01:58:42 | 00:00:00 | |
| DL1XH-west | 2026-09-04 05:29:56 | 52.52933 | 9.12649 | 147° | 29km/h | 31455m | -52.7m/s | -41.9°C | 0% | 10hPa | 2.5V | 18:12:15 | 01:58:44 | 00:00:00 | |
| DO2JMG | 2026-09-04 05:29:50 | 52.52972 | 9.12634 | 178° | 22km/h | 31782m | -58.1m/s | -39.7°C | 0% | 9.5hPa | 2.5V | 18:12:15 | 01:58:38 | 00:00:00 | |
| HSKMA3-T | 2026-09-04 05:29:49 | 52.52985 | 9.12631 | 152° | 15km/h | 31956m | -56.4m/s | -39.5°C | 0% | 9.3hPa | 2.7V | 18:12:15 | 01:58:35 | 00:00:00 | |
| DL1XH-west | 2026-09-04 05:29:46 | 52.52988 | 9.12628 | 145° | 16km/h | 32012m | -55.9m/s | -39.4°C | 0% | 9.2hPa | 2.6V | 18:12:15 | 01:58:34 | 00:00:00 | |
| BIOWL1-15 | 2026-09-04 05:29:43 | 52.53000 | 9.12612 | 140° | 24km/h | 32173m | -50.9m/s | -39°C | 0% | 8.9hPa | 2.6V | 18:12:15 | 01:58:31 | 00:00:00 | |
| DO2JMG | 2026-09-04 05:29:40 | 52.53014 | 9.12597 | 154° | 20km/h | 32327m | -52.8m/s | -37.8°C | 0% | 8.8hPa | 2.7V | 18:12:15 | 01:58:28 | 00:00:00 | |
| AA1-15 | 2026-09-04 05:29:39 | 52.53018 | 9.12594 | 158° | 16km/h | 32381m | -54.8m/s | -37.2°C | 0% | 8.7hPa | 2.6V | 18:12:15 | 01:58:27 | 00:00:00 | |
| HSKMA3-T | 2026-09-04 05:29:36 | 52.53029 | 9.12594 | 195° | 11km/h | 32551m | -58.5m/s | -37°C | 0% | 8.5hPa | 2.6V | 18:12:15 | 01:58:24 | 00:00:00 | |
| DL1XH-west | 2026-09-04 05:29:35 | 52.53032 | 9.12595 | 197° | 13km/h | 32610m | -59m/s | -36.8°C | 0% | 8.4hPa | 2.7V | 18:12:15 | 01:58:23 | 00:00:00 | |
| BIOWL1-15 | 2026-09-04 05:29:34 | 52.53044 | 9.12594 | 164° | 20km/h | 32783m | -55.9m/s | -36.6°C | 0% | 8.2hPa | 2.6V | 18:12:15 | 01:58:20 | 00:00:00 | |
| DO2JMG | 2026-09-04 05:29:30 | 52.53054 | 9.12585 | 143° | 27km/h | 32891m | -51.2m/s | -36.9°C | 0% | 8hPa | 2.6V | 18:12:15 | 01:58:18 | 00:00:00 | |
| AA1-15 | 2026-09-04 05:29:29 | 52.53059 | 9.12578 | 138° | 26km/h | 32941m | -48.2m/s | -37.2°C | 0% | 7.9hPa | 2.7V | 18:12:15 | 01:58:17 | 00:00:00 | |
| DF8AY | 2026-09-04 05:29:28 | 52.53064 | 9.12572 | 140° | 24km/h | 32989m | -46.5m/s | -37.3°C | 0% | 7.9hPa | 2.7V | 18:12:15 | 01:58:16 | 00:00:00 | |
| HSKMA3-T | 2026-09-04 05:29:26 | 52.53071 | 9.12560 | 133° | 15km/h | 33076m | -40.3m/s | -37.7°C | 0% | 7.8hPa | 2.6V | 18:12:15 | 01:58:14 | 00:00:00 | |
| DB0DAN | 2026-09-04 05:29:25 | 52.53073 | 9.12557 | 128° | 7km/h | 33115m | -37.9m/s | -37.7°C | 0.2% | 7.7hPa | 2.6V | 00:00:00 | 00:00:00 | 00:00:00 | |
| DL1XH-west | 2026-09-04 05:29:25 | 52.53073 | 9.12557 | 128° | 7km/h | 33115m | -37.9m/s | -37.7°C | 0% | 7.7hPa | 2.6V | 18:12:15 | 01:58:13 | 00:00:00 | |
| BIOWL1-15 | 2026-09-04 05:29:22 | 52.53071 | 9.12558 | 313° | 11km/h | 33214m | -27.4m/s | -37.8°C | 0% | 7.6hPa | 2.7V | 18:12:15 | 01:58:10 | 00:00:00 | |
| DM0DOS-11 | 2026-09-04 05:29:21 | 52.53070 | 9.12561 | 311° | 11km/h | 33239m | -23m/s | -37.7°C | 1.8% | 7.5hPa | 2.6V | 08:30:00 | 01:58:09 | 00:00:00 | |
| DO2JMG | 2026-09-04 05:29:20 | 52.53068 | 9.12565 | 301° | 13km/h | 33261m | -21.5m/s | -37.7°C | 0% | 7.5hPa | 2.6V | 18:12:15 | 01:58:08 | 00:00:00 | |
| AA1-15 | 2026-09-04 05:29:19 | 52.53066 | 9.12569 | 290° | 9km/h | 33283m | -22m/s | -37.6°C | 0% | 7.5hPa | 2.6V | 18:12:15 | 01:58:07 | 00:00:00 | |
| DF8AY | 2026-09-04 05:29:18 | 52.53066 | 9.12572 | 244° | 5km/h | 33305m | -22.2m/s | -37.6°C | 0% | 7.5hPa | 2.6V | 18:12:15 | 01:58:06 | 00:00:00 | |
| DF2AP-13 | 2026-09-04 05:29:17 | 52.53068 | 9.12572 | 164° | 16km/h | 33327m | -23.4m/s | -37.4°C | 1.7% | 7.4hPa | 2.7V | 00:00:00 | 01:58:05 | 08:30:00 | |
| DO2SHX-10 | 2026-09-04 05:29:16 | 52.53071 | 9.12568 | 140° | 37km/h | 33349m | -24.8m/s | -37.3°C | 1.7% | 7.3hPa | 2.7V | 00:00:00 | 01:58:04 | 00:00:00 | |
| DM0DOS-11 | 2026-09-04 05:29:15 | 52.53095 | 9.12518 | 335° | 9km/h | 33494m | -41.8m/s | -36.3°C | 1.6% | 7.3hPa | 2.7V | 08:30:00 | 01:57:59 | 00:00:00 | |
| DL1XH-west | 2026-09-04 05:29:15 | 52.53076 | 9.12558 | 126° | 37km/h | 33372m | -27.2m/s | -37.1°C | 0% | 7.4hPa | 2.7V | 18:12:15 | 01:58:03 | 00:00:00 | |
| BIOWL1-15 | 2026-09-04 05:29:11 | 52.53095 | 9.12518 | 335° | 9km/h | 33494m | -41.8m/s | -36.3°C | 0% | 7.3hPa | 2.7V | 18:12:15 | 01:57:59 | 00:00:00 | |
| DB0DAN | 2026-09-04 05:29:10 | 52.53093 | 9.12520 | 332° | 11km/h | 33532m | -34m/s | -36.4°C | 0.2% | 7.21hPa | 2.7V | 00:00:00 | 00:00:00 | 00:00:00 | |
| DO2JMG | 2026-09-04 05:29:09 | 52.53090 | 9.12522 | 333° | 13km/h | 33561m | -25.4m/s | -36.4°C | 0% | 7.2hPa | 2.7V | 18:12:15 | 01:57:57 | 00:00:00 | |
| AA1-15 | 2026-09-04 05:29:08 | 52.53088 | 9.12524 | 333° | 13km/h | 33582m | -16.2m/s | -36.5°C | 0% | 7.1hPa | 2.6V | 18:12:15 | 01:57:56 | 00:00:00 | |
| DF8AY | 2026-09-04 05:29:07 | 52.53085 | 9.12527 | 333° | 15km/h | 33593m | -6.8m/s | -36.5°C | 0% | 7.1hPa | 2.6V | 18:12:15 | 01:57:55 | 00:00:00 | |
| DO3MHA-12 | 2026-09-04 05:29:06 | 52.53082 | 9.12529 | 332° | 20km/h | 33596m | 2.5m/s | -36.5°C | 1.7% | 7.1hPa | 2.6V | 00:00:00 | 01:57:54 | 00:00:00 | |
| DL1NUX | 2026-09-04 05:29:05 | 52.53086 | 9.12502 | 151° | 20km/h | 33554m | 6.8m/s | -36.8°C | 1.6% | 7.2hPa | 2.6V | 08:30:00 | 01:57:48 | 00:00:00 | |
| DL1XH-west | 2026-09-04 05:29:04 | 52.53077 | 9.12531 | 74° | 13km/h | 33578m | 7.3m/s | -36.6°C | 0% | 7.1hPa | 2.7V | 18:12:15 | 01:57:52 | 00:00:00 | |
| DL1ZP-14 | 2026-09-04 05:29:04 | 52.53077 | 9.12524 | 100° | 20km/h | 33572m | 6.5m/s | -36.6°C | 0.2% | 7.1hPa | 2.7V | 00:00:00 | 00:00:00 | 00:00:00 | |
| DM0DOS-11 | 2026-09-04 05:29:03 | 52.53082 | 9.12507 | 130° | 24km/h | 33560m | 5.4m/s | -36.8°C | 1.6% | 7.1hPa | 2.6V | 08:30:00 | 01:57:49 | 00:00:00 | |
| BIOWL1-15 | 2026-09-04 05:29:00 | 52.53086 | 9.12502 | 151° | 20km/h | 33554m | 6.8m/s | -36.8°C | 0% | 7.2hPa | 2.6V | 18:12:15 | 01:57:48 | 00:00:00 | |
| DO2JMG | 2026-09-04 05:28:59 | 52.53090 | 9.12500 | 185° | 18km/h | 33548m | 6.4m/s | -36.8°C | 0% | 7.2hPa | 2.7V | 18:12:15 | 01:57:47 | 00:00:00 | |
| DF8AY | 2026-09-04 05:28:57 | 52.53099 | 9.12508 | 223° | 22km/h | 33535m | 5.5m/s | -36.7°C | 0% | 7.2hPa | 2.7V | 18:12:15 | 01:57:45 | 00:00:00 | |
| HSKMA3-T | 2026-09-04 05:28:56 | 52.53109 | 9.12520 | 184° | 7km/h | 33517m | 5.9m/s | -36.7°C | 0% | 7.2hPa | 2.6V | 18:12:15 | 01:57:42 | 00:00:00 | |
| DB0DAN | 2026-09-04 05:28:55 | 52.53106 | 9.12519 | 215° | 13km/h | 33523m | 6.2m/s | -36.6°C | 0.2% | 7.19hPa | 2.6V | 00:00:00 | 00:00:00 | 00:00:00 | |
| DO2SHX-10 | 2026-09-04 05:28:55 | 52.53106 | 9.12519 | 215° | 11km/h | 33524m | 6.2m/s | -36.6°C | 1.6% | 7.1hPa | 2.7V | 00:00:00 | 01:57:43 | 00:00:00 | |
| DM0DOS-11 | 2026-09-04 05:28:54 | 52.53109 | 9.12513 | 61° | 11km/h | 33499m | 7.4m/s | -36.8°C | 1.6% | 7.2hPa | 2.7V | 08:30:00 | 01:57:39 | 00:00:00 | |
| DL1XH-west | 2026-09-04 05:28:53 | 52.53110 | 9.12520 | 121° | 5km/h | 33512m | 5.5m/s | -36.8°C | 0% | 7.2hPa | 2.7V | 18:12:15 | 01:57:41 | 00:00:00 | |
| DL1NUX | 2026-09-04 05:28:52 | 52.53107 | 9.12497 | 121° | 15km/h | 33474m | 7.5m/s | -36.9°C | 1.6% | 7.2hPa | 2.7V | 08:30:00 | 01:57:35 | 00:00:00 | |
| BIOWL1-15 | 2026-09-04 05:28:50 | 52.53108 | 9.12509 | 53° | 11km/h | 33492m | 6.6m/s | -36.8°C | 0% | 7.2hPa | 2.6V | 18:12:15 | 01:57:38 | 00:00:00 | |
| DO2JMG | 2026-09-04 05:28:48 | 52.53106 | 9.12502 | 98° | 11km/h | 33481m | 5.6m/s | -36.9°C | 0% | 7.2hPa | 2.6V | 18:12:15 | 01:57:36 | 00:00:00 | |
| AA1-15 | 2026-09-04 05:28:47 | 52.53108 | 9.12497 | 121° | 15km/h | 33474m | 7.5m/s | -36.9°C | 0% | 7.2hPa | 2.7V | 18:12:15 | 01:57:35 | 00:00:00 | |
| DF2AP-13 | 2026-09-04 05:28:47 | 52.53108 | 9.12497 | 122° | 15km/h | 33475m | 7.5m/s | -36.9°C | 1.6% | 7.2hPa | 2.7V | 00:00:00 | 01:57:35 | 00:00:00 | |
| DO3MHA-11 | 2026-09-04 05:28:46 | 52.53110 | 9.12492 | 141° | 16km/h | 33468m | 6.5m/s | -36.9°C | 1.7% | 7.2hPa | 2.7V | 00:00:00 | 01:57:34 | 08:30:00 | |
| DO3MHA-12 | 2026-09-04 05:28:44 | 52.53121 | 9.12484 | 172° | 16km/h | 33457m | 4.4m/s | -37.0°C | 1.6% | 7.2hPa | 2.6V | 00:00:00 | 01:57:32 | 00:00:00 | |
| DM0DOS-11 | 2026-09-04 05:28:43 | 52.53135 | 9.12493 | 242° | 20km/h | 33437m | 6.5m/s | -37.2°C | 1.6% | 7.3hPa | 2.7V | 08:30:00 | 01:57:29 | 00:00:00 | |
| DL1XH-west | 2026-09-04 05:28:43 | 52.53127 | 9.12484 | 191° | 22km/h | 33451m | 6m/s | -37.2°C | 0% | 7.3hPa | 2.6V | 18:12:15 | 01:57:31 | 00:00:00 | |
| DL3AQ-11 | 2026-09-04 05:28:43 | 52.53132 | 9.12487 | 216° | 20km/h | 33445m | 7.5m/s | -37.3°C | 0.2% | 7.3hPa | 2.7V | 00:00:00 | 00:00:00 | 00:00:00 | |
| DJ8HS-15 | 2026-09-04 05:28:42 | 52.53132 | 9.12487 | 217° | 13km/h | 33445m | 7.5m/s | -37.2°C | 1.6% | 7.2hPa | 2.7V | 00:00:00 | 01:57:30 | 00:00:00 | |
| DB0DAN | 2026-09-04 05:28:40 | 52.53136 | 9.12500 | 260° | 16km/h | 33432m | 5m/s | -37.2°C | 0.2% | 7.3hPa | 2.7V | 00:00:00 | 00:00:00 | 00:00:00 | |
| DL1NUX | 2026-09-04 05:28:40 | 52.53137 | 9.12490 | 97° | 24km/h | 33400m | 5.7m/s | -37.7°C | 1.7% | 7.3hPa | 2.7V | 08:30:00 | 01:57:23 | 00:00:00 | |
| BIOWL1-15 | 2026-09-04 05:28:40 | 52.53136 | 9.12500 | 260° | 16km/h | 33432m | 5m/s | -37.2°C | 0% | 7.3hPa | 2.7V | 18:12:15 | 01:57:28 | 00:00:00 | |
| DO2JMG | 2026-09-04 05:28:38 | 52.53136 | 9.12508 | 312° | 2km/h | 33420m | 7.4m/s | -37.4°C | 0% | 7.3hPa | 2.6V | 18:12:15 | 01:57:26 | 00:00:00 | |
| AA1-15 | 2026-09-04 05:28:37 | 52.53136 | 9.12506 | 89° | 11km/h | 33413m | 7.3m/s | -37.5°C | 0% | 7.3hPa | 2.6V | 18:12:15 | 01:57:25 | 00:00:00 | |
| BIOWL1-15 | 2026-09-04 05:28:33 | 52.53147 | 9.12472 | 204° | 15km/h | 33361m | 7.4m/s | -37.8°C | 0% | 7.4hPa | 2.7V | 18:12:15 | 01:57:17 | 00:00:00 | |
| DL1XH-west | 2026-09-04 05:28:33 | 52.53139 | 9.12473 | 106° | 16km/h | 33388m | 6.9m/s | -37.9°C | 0% | 7.3hPa | 2.7V | 18:12:15 | 01:57:21 | 00:00:00 | |
| HSKMA3-T | 2026-09-04 05:28:32 | 52.53140 | 9.12468 | 130° | 7km/h | 33381m | 7m/s | -37.8°C | 0% | 7.3hPa | 2.6V | 18:12:15 | 01:57:20 | 00:00:00 | |
| DO2JMG | 2026-09-04 05:28:28 | 52.53151 | 9.12473 | 192° | 15km/h | 33354m | 6.3m/s | -37.7°C | 0% | 7.3hPa | 2.7V | 18:12:15 | 01:57:16 | 00:00:00 | |
| AA1-15 | 2026-09-04 05:28:26 | 52.53157 | 9.12473 | 157° | 7km/h | 33343m | 5.5m/s | -37.7°C | 0% | 7.4hPa | 2.6V | 18:12:15 | 01:57:14 | 00:00:00 | |
| DF8AY | 2026-09-04 05:28:23 | 52.53156 | 9.12468 | 40° | 11km/h | 33322m | 6.1m/s | -37.7°C | 0% | 7.4hPa | 2.7V | 18:12:15 | 01:57:11 | 00:00:00 | |
| HSKMA3-T | 2026-09-04 05:28:22 | 52.53153 | 9.12458 | 87° | 16km/h | 33310m | 6.5m/s | -37.7°C | 0% | 7.4hPa | 2.7V | 18:12:15 | 01:57:09 | 00:00:00 | |
| BIOWL1-15 | 2026-09-04 05:28:18 | 52.53162 | 9.12438 | 155° | 26km/h | 33291m | 5.5m/s | -37.8°C | 0% | 7.5hPa | 2.6V | 18:12:15 | 01:57:06 | 00:00:00 | |
| DL1NUX | 2026-09-04 05:28:17 | 52.53181 | 9.12456 | 253° | 5km/h | 33253m | 6.4m/s | -38°C | 1.8% | 7.5hPa | 2.6V | 08:30:00 | 01:57:00 | 00:00:00 | |
| DO2JMG | 2026-09-04 05:28:17 | 52.53168 | 9.12436 | 175° | 24km/h | 33285m | 6.5m/s | -37.8°C | 0% | 7.4hPa | 2.7V | 18:12:15 | 01:57:05 | 00:00:00 | |
| AA1-15 | 2026-09-04 05:28:15 | 52.53177 | 9.12441 | 226° | 20km/h | 33270m | 6.7m/s | -37.9°C | 0% | 7.5hPa | 2.7V | 18:12:15 | 01:57:03 | 00:00:00 | |
| DL1XH-west | 2026-09-04 05:28:12 | 52.53181 | 9.12456 | 253° | 5km/h | 33253m | 6.4m/s | -38°C | 0% | 7.5hPa | 2.6V | 18:12:15 | 01:57:00 | 00:00:00 | |
| HSKMA3-T | 2026-09-04 05:28:12 | 52.53183 | 9.12452 | 114° | 16km/h | 33239m | 7.2m/s | -38.1°C | 0% | 7.5hPa | 2.7V | 18:12:15 | 01:56:58 | 00:00:00 | |
| BIOWL1-15 | 2026-09-04 05:28:07 | 52.53190 | 9.12428 | 122° | 20km/h | 33220m | 6.2m/s | -38.1°C | 0% | 7.5hPa | 2.6V | 18:12:15 | 01:56:55 | 00:00:00 | |
| DO2JMG | 2026-09-04 05:28:06 | 52.53193 | 9.12422 | 132° | 15km/h | 33213m | 7m/s | -38.1°C | 0% | 7.6hPa | 2.6V | 18:12:15 | 01:56:54 | 00:00:00 | |
| AA1-15 | 2026-09-04 05:28:05 | 52.53195 | 9.12419 | 154° | 11km/h | 33207m | 6.9m/s | -38.1°C | 0% | 7.5hPa | 2.7V | 18:12:15 | 01:56:53 | 00:00:00 | |
| DO3DL | 2026-09-04 05:28:05 | 52.53195 | 9.12419 | 154° | 11km/h | 33207m | 6.9m/s | -38.1°C | 0.2% | 7.5hPa | 2.6V | 00:00:00 | 00:00:00 | 00:00:00 | |
| DO3MHA-12 | 2026-09-04 05:28:04 | 52.53198 | 9.12418 | 172° | 16km/h | 33200m | 6.3m/s | -38.1°C | 1.8% | 7.5hPa | 2.6V | 00:00:00 | 01:56:52 | 00:00:00 | |
| DO2SHX-10 | 2026-09-04 05:28:03 | 52.53200 | 9.12417 | 173° | 13km/h | 33193m | 7.6m/s | -38.1°C | 1.8% | 7.5hPa | 2.6V | 00:00:00 | 01:56:51 | 00:00:00 | |
| DM0DOS-11 | 2026-09-04 05:28:02 | 52.53207 | 9.12416 | 182° | 15km/h | 33179m | 5.9m/s | -38.1°C | 1.9% | 7.6hPa | 2.6V | 08:30:00 | 01:56:49 | 00:00:00 | |
| DL1XH-west | 2026-09-04 05:28:01 | 52.53207 | 9.12416 | 183° | 15km/h | 33179m | 5.9m/s | -38.1°C | 0% | 7.6hPa | 2.6V | 18:12:15 | 01:56:49 | 00:00:00 | |
| HSKMA3-T | 2026-09-04 05:28:01 | 52.53215 | 9.12419 | 198° | 18km/h | 33166m | 7.7m/s | -38.1°C | 0% | 7.6hPa | 2.7V | 18:12:15 | 01:56:47 | 00:00:00 | |
| BIOWL1-15 | 2026-09-04 05:27:57 | 52.53224 | 9.12422 | 177° | 18km/h | 33153m | 5.5m/s | -38°C | 0% | 7.6hPa | 2.7V | 18:12:15 | 01:56:45 | 00:00:00 | |
| DK5PH-5 | 2026-09-04 05:27:57 | 52.53224 | 9.12422 | 178° | 18km/h | 33153m | 5.5m/s | -38.0°C | 1.8% | 7.5hPa | 2.7V | 00:00:00 | 01:56:45 | 00:00:00 | |
| DL1XH1-15 | 2026-09-04 05:27:56 | 52.53252 | 9.12388 | 168° | 18km/h | 33113m | 7.7m/s | -38°C | 1.8% | 7.7hPa | 2.7V | 08:30:00 | 01:56:39 | 00:00:00 | |
| AA1-15 | 2026-09-04 05:27:55 | 52.53233 | 9.12415 | 138° | 26km/h | 33138m | 8.1m/s | -38.1°C | 0% | 7.6hPa | 2.6V | 18:12:15 | 01:56:43 | 00:00:00 | |
| DL1XH-west | 2026-09-04 05:27:51 | 52.53252 | 9.12388 | 169° | 18km/h | 33113m | 7.7m/s | -38°C | 0% | 7.7hPa | 2.7V | 18:12:15 | 01:56:39 | 00:00:00 | |
| HSKMA3-T | 2026-09-04 05:27:49 | 52.53264 | 9.12399 | 222° | 22km/h | 33093m | 6.6m/s | -37.9°C | 0% | 7.7hPa | 2.6V | 18:12:15 | 01:56:36 | 00:00:00 | |
| BIOWL1-15 | 2026-09-04 05:27:48 | 52.53273 | 9.12408 | 193° | 18km/h | 33078m | 6.7m/s | -37.8°C | 0% | 7.7hPa | 2.7V | 18:12:15 | 01:56:34 | 00:00:00 | |
| DO2JMG | 2026-09-04 05:27:44 | 52.53281 | 9.12407 | 161° | 16km/h | 33066m | 6.5m/s | -37.8°C | 0% | 7.7hPa | 2.6V | 18:12:15 | 01:56:32 | 00:00:00 | |
| DO3MHA-12 | 2026-09-04 05:27:44 | 52.53281 | 9.12407 | 161° | 13km/h | 33066m | 6.5m/s | -37.8°C | 1.8% | 7.7hPa | 2.6V | 00:00:00 | 01:56:32 | 08:30:00 | |
| DO2LYB-13 | 2026-09-04 05:27:43 | 52.53281 | 9.12407 | 162° | 16km/h | 33066m | 6.5m/s | -37.8°C | 0.3% | 7.7hPa | 2.6V | 00:00:00 | 00:00:00 | 00:00:00 | |
| DL1NUX | 2026-09-04 05:27:42 | 52.53298 | 9.12384 | 141° | 11km/h | 33017m | 5.1m/s | -37.9°C | 1.8% | 7.8hPa | 2.6V | 08:30:00 | 01:56:25 | 00:00:00 | |
| DL1XH-west | 2026-09-04 05:27:41 | 52.53291 | 9.12400 | 144° | 11km/h | 33044m | 6.8m/s | -37.8°C | 0% | 7.7hPa | 2.7V | 18:12:15 | 01:56:29 | 00:00:00 | |
| DF8AY | 2026-09-04 05:27:40 | 52.53293 | 9.12397 | 130° | 11km/h | 33037m | 7m/s | -37.8°C | 0% | 7.7hPa | 2.7V | 18:12:15 | 01:56:28 | 00:00:00 | |
| HSKMA3-T | 2026-09-04 05:27:40 | 52.53296 | 9.12388 | 121° | 15km/h | 33022m | 6.7m/s | -37.8°C | 0% | 7.8hPa | 2.6V | 18:12:15 | 01:56:26 | 00:00:00 | |
| DO3DL | 2026-09-04 05:27:39 | 52.53295 | 9.12392 | 119° | 13km/h | 33030m | 8.1m/s | -37.8°C | 0.3% | 7.8hPa | 2.6V | 00:00:00 | 00:00:00 | 00:00:00 | |
| SMARD9-10 | 2026-09-04 05:27:38 | 52.53295 | 9.12392 | 119° | 13km/h | 33030m | 8.1m/s | -37.8°C | 0.3% | 7.8hPa | 2.6V | 00:00:00 | 00:00:00 | 00:00:00 | |
| DF7PN | 2026-09-04 05:27:37 | 52.53298 | 9.12384 | 141° | 11km/h | 33017m | 5.1m/s | -37.9°C | 0.2% | 7.8hPa | 2.6V | 00:00:00 | 00:00:00 | 00:00:00 | |
| DM0DOS-11 | 2026-09-04 05:27:36 | 52.53321 | 9.12413 | 212° | 22km/h | 32978m | 6.4m/s | -37.5°C | 1.8% | 7.8hPa | 2.6V | 08:30:00 | 01:56:19 | 00:00:00 | |
| BIOWL1-15 | 2026-09-04 05:27:36 | 52.53301 | 9.12382 | 181° | 11km/h | 33011m | 5.3m/s | -37.9°C | 0% | 7.8hPa | 2.6V | 18:12:15 | 01:56:24 | 00:00:00 | |
| DO2JMG | 2026-09-04 05:27:34 | 52.53308 | 9.12389 | 226° | 24km/h | 32996m | 8.8m/s | -37.8°C | 0% | 7.8hPa | 2.7V | 18:12:15 | 01:56:22 | 00:00:00 | |
| DL1XH-west | 2026-09-04 05:27:31 | 52.53322 | 9.12413 | 213° | 22km/h | 32978m | 6.4m/s | -37.5°C | 0% | 7.8hPa | 2.6V | 18:12:15 | 01:56:19 | 00:00:00 | |
| DF8AY | 2026-09-04 05:27:29 | 52.53330 | 9.12413 | 145° | 18km/h | 32963m | 7.1m/s | -37.5°C | 0% | 7.8hPa | 2.7V | 18:12:15 | 01:56:17 | 00:00:00 | |
| HSKMA3-T | 2026-09-04 05:27:28 | 52.53334 | 9.12407 | 128° | 24km/h | 32956m | 6.3m/s | -37.5°C | 0% | 7.8hPa | 2.7V | 18:12:15 | 01:56:16 | 00:00:00 | |
| BIOWL1-15 | 2026-09-04 05:27:27 | 52.53346 | 9.12388 | 159° | 20km/h | 32936m | 7m/s | -37.4°C | 0% | 7.8hPa | 2.6V | 18:12:15 | 01:56:13 | 00:00:00 | |
| DO2JMG | 2026-09-04 05:27:24 | 52.53351 | 9.12387 | 181° | 22km/h | 32929m | 6.6m/s | -37.3°C | 0% | 7.8hPa | 2.6V | 18:12:15 | 01:56:12 | 00:00:00 | |
| DO3MHA-12 | 2026-09-04 05:27:24 | 52.53351 | 9.12387 | 182° | 18km/h | 32929m | 6.6m/s | -37.3°C | 1.7% | 7.8hPa | 2.7V | 00:00:00 | 01:56:12 | 00:00:00 | |
| DJTTGO | 2026-09-04 05:27:23 | 52.53356 | 9.12388 | 194° | 24km/h | 32923m | 6.1m/s | -37.3°C | 0% | 0hPa | 2.7V | 00:00:00 | 00:00:00 | 00:00:00 | |
| DM0DOS-11 | 2026-09-04 05:27:22 | 52.53368 | 9.12394 | 193° | 24km/h | 32910m | 7.4m/s | -37.3°C | 1.7% | 7.9hPa | 2.7V | 08:30:00 | 01:56:09 | 00:00:00 | |
| DL1XH-west | 2026-09-04 05:27:20 | 52.53374 | 9.12395 | 184° | 20km/h | 32902m | 7.1m/s | -37.3°C | 0% | 7.9hPa | 2.6V | 18:12:15 | 01:56:08 | 00:00:00 | |
| HSKMA3-T | 2026-09-04 05:27:19 | 52.53386 | 9.12393 | 177° | 13km/h | 32883m | 7.2m/s | -37.3°C | 0% | 7.9hPa | 2.7V | 18:12:15 | 01:56:05 | 00:00:00 | |
| DF8AY | 2026-09-04 05:27:19 | 52.53383 | 9.12394 | 168° | 15km/h | 32889m | 6.1m/s | -37.3°C | 0% | 7.9hPa | 2.6V | 18:12:15 | 01:56:06 | 00:00:00 | |
| SONCRA | 2026-09-04 05:27:19 | 52.53383 | 9.12394 | 168° | 15km/h | 32889m | 6.1m/s | -37.3°C | 0.2% | 7.9hPa | 2.7V | 00:00:00 | 00:00:00 | 00:00:00 | |
| BUE01 | 2026-09-04 05:27:18 | 52.53383 | 9.12394 | 168° | 15km/h | 32889m | 6.1m/s | -37.3°C | 0.2% | 7.9hPa | 2.7V | 00:00:00 | 00:00:00 | 00:00:00 | |
| DJ2DS-15 | 2026-09-04 05:27:17 | 52.53386 | 9.12393 | 177° | 13km/h | 32883m | 7.2m/s | -37.3°C | 0.2% | 7.9hPa | 2.7V | 00:00:00 | 00:00:00 | 00:00:00 | |
| DL1XH1-15 | 2026-09-04 05:27:16 | 52.53413 | 9.12395 | 158° | 29km/h | 32842m | 7.7m/s | -37.3°C | 1.7% | 8hPa | 2.7V | 08:30:00 | 01:55:59 | 00:00:00 | |
| BIOWL1-15 | 2026-09-04 05:27:14 | 52.53397 | 9.12398 | 198° | 18km/h | 32862m | 5.5m/s | -37.3°C | 0% | 7.9hPa | 2.6V | 18:12:15 | 01:56:02 | 00:00:00 | |
| AA1-15 | 2026-09-04 05:27:13 | 52.53401 | 9.12399 | 182° | 20km/h | 32857m | 6.1m/s | -37.3°C | 0% | 8hPa | 2.6V | 18:12:15 | 01:56:01 | 00:00:00 | |
| DD1CC8 | 2026-09-04 05:27:13 | 52.53407 | 9.12398 | 168° | 22km/h | 32850m | 7.9m/s | -37.4°C | 0.2% | 8.0hPa | 2.6V | 00:00:00 | 00:00:00 | 00:00:00 | |
| DL3AQ-11 | 2026-09-04 05:27:12 | 52.53413 | 9.12395 | 158° | 27km/h | 32842m | 7.7m/s | -37.3°C | 0.2% | 8.0hPa | 2.6V | 00:00:00 | 00:00:00 | 00:00:00 | |
| DL1NUX | 2026-09-04 05:27:11 | 52.53452 | 9.12386 | 195° | 29km/h | 32808m | 5.8m/s | -37.5°C | 1.7% | 8hPa | 2.6V | 08:30:00 | 01:55:54 | 00:00:00 | |
| DL1XH-west | 2026-09-04 05:27:10 | 52.53420 | 9.12390 | 158° | 33km/h | 32835m | 6.3m/s | -37.3°C | 0% | 8hPa | 2.7V | 18:12:15 | 01:55:58 | 00:00:00 | |
| DF8AY | 2026-09-04 05:27:08 | 52.53437 | 9.12383 | 174° | 33km/h | 32821m | 7.7m/s | -37.4°C | 0% | 8hPa | 2.6V | 18:12:15 | 01:55:56 | 00:00:00 | |
| HSKMA3-T | 2026-09-04 05:27:07 | 52.53452 | 9.12386 | 195° | 29km/h | 32808m | 5.8m/s | -37.5°C | 0% | 8hPa | 2.6V | 18:12:15 | 01:55:54 | 00:00:00 | |
| BIOWL1-15 | 2026-09-04 05:27:03 | 52.53471 | 9.12391 | 170° | 22km/h | 32788m | 7.7m/s | -37.4°C | 0% | 8hPa | 2.7V | 18:12:15 | 01:55:51 | 00:00:00 | |
| DM0DOS-11 | 2026-09-04 05:27:02 | 52.53482 | 9.12384 | 157° | 26km/h | 32774m | 5.9m/s | -37.4°C | 1.7% | 8.1hPa | 2.6V | 08:30:00 | 01:55:49 | 00:00:00 | |
| AA1-15 | 2026-09-04 05:27:02 | 52.53477 | 9.12388 | 158° | 24km/h | 32781m | 6.6m/s | -37.4°C | 0% | 8hPa | 2.6V | 18:12:15 | 01:55:50 | 00:00:00 | |
| DL1XH-west | 2026-09-04 05:26:59 | 52.53495 | 9.12379 | 175° | 27km/h | 32761m | 7.8m/s | -37.3°C | 0% | 8.1hPa | 2.7V | 18:12:15 | 01:55:47 | 00:00:00 | |
| DF8AY | 2026-09-04 05:26:58 | 52.53503 | 9.12379 | 184° | 31km/h | 32754m | 6.8m/s | -37.4°C | 0% | 8.1hPa | 2.7V | 18:12:15 | 01:55:46 | 00:00:00 | |
| HSKMA3-T | 2026-09-04 05:26:56 | 52.53519 | 9.12381 | 182° | 33km/h | 32740m | 7m/s | -37.4°C | 0% | 8.1hPa | 2.6V | 18:12:15 | 01:55:44 | 00:00:00 | |
| BIOWL1-15 | 2026-09-04 05:26:52 | 52.53545 | 9.12370 | 155° | 20km/h | 32714m | 5.9m/s | -37.6°C | 0% | 8.1hPa | 2.7V | 18:12:15 | 01:55:40 | 00:00:00 | |
| AA1-15 | 2026-09-04 05:26:51 | 52.53549 | 9.12368 | 165° | 16km/h | 32708m | 7.7m/s | -37.6°C | 0% | 8.1hPa | 2.7V | 18:12:15 | 01:55:39 | 00:00:00 | |
| DL1XH-west | 2026-09-04 05:26:49 | 52.53556 | 9.12368 | 187° | 15km/h | 32693m | 6m/s | -37.6°C | 0% | 8.2hPa | 2.6V | 18:12:15 | 01:55:37 | 00:00:00 | |
| DF8AY | 2026-09-04 05:26:47 | 52.53564 | 9.12366 | 158° | 18km/h | 32681m | 7.4m/s | -37.7°C | 0% | 8.2hPa | 2.7V | 18:12:15 | 01:55:35 | 00:00:00 | |
| HSKMA3-T | 2026-09-04 05:26:47 | 52.53568 | 9.12362 | 143° | 22km/h | 32673m | 7.8m/s | -37.7°C | 0% | 8.2hPa | 2.7V | 18:12:15 | 01:55:34 | 00:00:00 | |
| GOEST3-10 | 2026-09-04 05:26:46 | 52.53568 | 9.12362 | 144° | 24km/h | 32674m | 7.8m/s | -37.7°C | 1.7% | 8.1hPa | 2.7V | 00:00:00 | 01:55:34 | 00:00:00 | |
| DL1NUX | 2026-09-04 05:26:45 | 52.53596 | 9.12334 | 177° | 15km/h | 32632m | 6m/s | -38°C | 1.7% | 8.2hPa | 2.7V | 08:30:00 | 01:55:28 | 00:00:00 | |
| DO2JMG | 2026-09-04 05:26:42 | 52.53588 | 9.12337 | 157° | 20km/h | 32645m | 7.5m/s | -37.8°C | 0% | 8.2hPa | 2.6V | 18:12:15 | 01:55:30 | 00:00:00 | |
| BIOWL1-15 | 2026-09-04 05:26:41 | 52.53593 | 9.12335 | 173° | 16km/h | 32638m | 6.7m/s | -37.9°C | 0% | 8.2hPa | 2.7V | 18:12:15 | 01:55:29 | 00:00:00 | |
| DB0DAN | 2026-09-04 05:26:40 | 52.53596 | 9.12334 | 177° | 13km/h | 32632m | 6m/s | -38°C | 0.2% | 8.23hPa | 2.7V | 00:00:00 | 00:00:00 | 00:00:00 | |
| AA1-15 | 2026-09-04 05:26:40 | 52.53596 | 9.12334 | 178° | 15km/h | 32632m | 6m/s | -38°C | 0% | 8.2hPa | 2.7V | 18:12:15 | 01:55:28 | 00:00:00 | |
| DL1XH-west | 2026-09-04 05:26:39 | 52.53600 | 9.12333 | 162° | 11km/h | 32626m | 5.7m/s | -38.1°C | 0% | 8.2hPa | 2.7V | 18:12:15 | 01:55:27 | 00:00:00 | |
| SO1NDE-10 | 2026-09-04 05:26:39 | 52.53599 | 9.12333 | 163° | 20km/h | 32626m | 5.6m/s | -38.0°C | 1.8% | 8.2hPa | 2.7V | 00:00:00 | 01:55:27 | 08:30:00 | |
| DO3DL | 2026-09-04 05:26:38 | 52.53599 | 9.12333 | 163° | 11km/h | 32626m | 5.7m/s | -38.1°C | 0.2% | 8.2hPa | 2.6V | 00:00:00 | 00:00:00 | 00:00:00 | |
| SMARD9-15 | 2026-09-04 05:26:37 | 52.53607 | 9.12318 | 119° | 22km/h | 32605m | 5.9m/s | -37.9°C | 0.3% | 8.3hPa | 2.6V | 00:00:00 | 00:00:00 | 00:00:00 | |
| DL1XH1-15 | 2026-09-04 05:26:36 | 52.53634 | 9.12294 | 172° | 31km/h | 32572m | 6.2m/s | -38.1°C | 1.8% | 8.3hPa | 2.6V | 08:30:00 | 01:55:19 | 00:00:00 | |
| DF8AY | 2026-09-04 05:26:36 | 52.53607 | 9.12318 | 120° | 22km/h | 32605m | 5.9m/s | -37.9°C | 0% | 8.3hPa | 2.6V | 18:12:15 | 01:55:24 | 00:00:00 | |
| HSKMA3-T | 2026-09-04 05:26:35 | 52.53611 | 9.12310 | 128° | 24km/h | 32599m | 5.8m/s | -37.9°C | 0% | 8.3hPa | 2.7V | 18:12:15 | 01:55:23 | 00:00:00 | |
| BIOWL1-15 | 2026-09-04 05:26:31 | 52.53634 | 9.12294 | 173° | 31km/h | 32572m | 6.2m/s | -38.1°C | 0% | 8.3hPa | 2.6V | 18:12:15 | 01:55:19 | 00:00:00 | |
| AA1-15 | 2026-09-04 05:26:29 | 52.53650 | 9.12288 | 160° | 33km/h | 32558m | 6.8m/s | -38.1°C | 0% | 8.3hPa | 2.7V | 18:12:15 | 01:55:17 | 00:00:00 | |
| DL1XH-west | 2026-09-04 05:26:28 | 52.53657 | 9.12283 | 152° | 31km/h | 32551m | 5.6m/s | -38.1°C | 0% | 8.3hPa | 2.7V | 18:12:15 | 01:55:16 | 00:00:00 | |
| DL4BBY-15 | 2026-09-04 05:26:28 | 52.53657 | 9.12283 | 153° | 16km/h | 32552m | 5.6m/s | -39.0°C | 0% | 0hPa | 2.7V | 00:00:00 | 00:00:00 | 00:00:00 | |
| DK5PH-5 | 2026-09-04 05:26:27 | 52.53663 | 9.12277 | 149° | 16km/h | 32546m | 5.1m/s | -38.0°C | 1.8% | 8.3hPa | 2.7V | 00:00:00 | 01:55:15 | 00:00:00 | |
| DL8OAI-8 | 2026-09-04 05:26:26 | 52.53663 | 9.12277 | 149° | 26km/h | 32546m | 5.2m/s | -38.1°C | 0.3% | 8.3hPa | 2.7V | 00:00:00 | 00:00:00 | 00:00:00 | |
| DB0DAN | 2026-09-04 05:26:25 | 52.53671 | 9.12270 | 166° | 11km/h | 32533m | 8.2m/s | -38.1°C | 0.2% | 8.36hPa | 2.7V | 00:00:00 | 00:00:00 | 00:00:00 | |
| DF8AY | 2026-09-04 05:26:25 | 52.53671 | 9.12270 | 166° | 13km/h | 32533m | 8.2m/s | -38.1°C | 0% | 8.4hPa | 2.7V | 18:12:15 | 01:55:13 | 00:00:00 | |
| DO3MHA-11 | 2026-09-04 05:26:25 | 52.53671 | 9.12270 | 166° | 15km/h | 32533m | 8.1m/s | -38.1°C | 1.8% | 8.3hPa | 2.7V | 00:00:00 | 01:55:13 | 00:00:00 | |
| DO3MHA-12 | 2026-09-04 05:26:24 | 52.53673 | 9.12271 | 207° | 15km/h | 32525m | 7.6m/s | -38.0°C | 1.8% | 8.3hPa | 2.7V | 00:00:00 | 01:55:12 | 00:00:00 | |
| BIOWL9-15 | 2026-09-04 05:26:23 | 52.53675 | 9.12272 | 227° | 5km/h | 32518m | 6.6m/s | -38.1°C | 0.3% | 8.4hPa | 2.7V | 00:00:00 | 00:00:00 | 00:00:00 | |
| DM0DOS-11 | 2026-09-04 05:26:22 | 52.53678 | 9.12274 | 166° | 7km/h | 32504m | 7.4m/s | -38.1°C | 1.8% | 8.4hPa | 2.7V | 08:30:00 | 01:55:09 | 00:00:00 | |
| BIOWL1-15 | 2026-09-04 05:26:21 | 52.53678 | 9.12274 | 167° | 7km/h | 32504m | 7.4m/s | -38.1°C | 0% | 8.4hPa | 2.7V | 18:12:15 | 01:55:09 | 00:00:00 | |
| DO2JMG | 2026-09-04 05:26:20 | 52.53681 | 9.12272 | 154° | 15km/h | 32497m | 6.4m/s | -38.1°C | 0% | 8.4hPa | 2.7V | 18:12:15 | 01:55:08 | 00:00:00 | |
| DL1XH-west | 2026-09-04 05:26:18 | 52.53690 | 9.12267 | 168° | 22km/h | 32485m | 7.1m/s | -38.1°C | 0% | 8.4hPa | 2.6V | 18:12:15 | 01:55:06 | 00:00:00 | |
| DL1LOL-11 | 2026-09-04 05:26:17 | 52.53690 | 9.12267 | 169° | 22km/h | 32485m | 7.1m/s | -38.1°C | 0.3% | 8.4hPa | 2.7V | 00:00:00 | 00:00:00 | 00:00:00 | |
| DM0DOS-11 | 2026-09-04 05:26:16 | 52.53719 | 9.12264 | 158° | 9km/h | 32437m | 5.9m/s | -38°C | 1.7% | 8.5hPa | 2.7V | 08:30:00 | 01:54:59 | 00:00:00 | |
| GOEST3-10 | 2026-09-04 05:26:16 | 52.53701 | 9.12267 | 188° | 16km/h | 32471m | 6.2m/s | -38.0°C | 1.8% | 8.4hPa | 2.7V | 00:00:00 | 01:55:04 | 08:30:00 | |
| DL1NUX | 2026-09-04 05:26:15 | 52.53722 | 9.12264 | 187° | 9km/h | 32430m | 7.6m/s | -38°C | 1.7% | 8.5hPa | 2.7V | 08:30:00 | 01:54:58 | 00:00:00 | |
| DF8AY | 2026-09-04 05:26:14 | 52.53711 | 9.12269 | 179° | 16km/h | 32458m | 7.5m/s | -38°C | 0% | 8.4hPa | 2.6V | 18:12:15 | 01:55:02 | 00:00:00 | |
| DO2JMG | 2026-09-04 05:26:10 | 52.53722 | 9.12264 | 188° | 9km/h | 32430m | 7.6m/s | -38.1°C | 0% | 8.5hPa | 2.7V | 18:12:15 | 01:54:58 | 00:00:00 | |
| AA1-15 | 2026-09-04 05:26:08 | 52.53728 | 9.12268 | 202° | 18km/h | 32417m | 5.6m/s | -38.1°C | 0% | 8.5hPa | 2.6V | 18:12:15 | 01:54:56 | 00:00:00 | |
| DL1XH-west | 2026-09-04 05:26:07 | 52.53733 | 9.12270 | 189° | 22km/h | 32411m | 5.8m/s | -38.1°C | 0% | 8.5hPa | 2.6V | 18:12:15 | 01:54:55 | 00:00:00 | |
| DB0NH | 2026-09-04 05:26:06 | 52.53738 | 9.12270 | 177° | 22km/h | 32405m | 7.6m/s | -38.1°C | 1.7% | 8.5hPa | 2.7V | 00:00:00 | 01:54:54 | 00:00:00 | |
| DL1NUX | 2026-09-04 05:26:05 | 52.53770 | 9.12253 | 162° | 9km/h | 32364m | 5.9m/s | -38.9°C | 1.8% | 8.6hPa | 2.7V | 08:30:00 | 01:54:48 | 00:00:00 | |
| HSKMA3-T | 2026-09-04 05:26:04 | 52.53752 | 9.12264 | 156° | 27km/h | 32390m | 6.1m/s | -38.2°C | 0% | 8.5hPa | 2.7V | 18:12:15 | 01:54:52 | 00:00:00 | |
| DF8AY | 2026-09-04 05:26:03 | 52.53758 | 9.12260 | 157° | 26km/h | 32384m | 6.5m/s | -38.3°C | 0% | 8.6hPa | 2.6V | 18:12:15 | 01:54:51 | 00:00:00 | |
| BIOWL1-15 | 2026-09-04 05:25:59 | 52.53772 | 9.12252 | 125° | 7km/h | 32358m | 6.3m/s | -39.2°C | 0% | 8.6hPa | 2.7V | 18:12:15 | 01:54:47 | 00:00:00 | |
| AA1-15 | 2026-09-04 05:25:58 | 52.53773 | 9.12248 | 99° | 11km/h | 32351m | 7.7m/s | -39.4°C | 0% | 8.6hPa | 2.7V | 18:12:15 | 01:54:46 | 00:00:00 | |
| DL4BBY-15 | 2026-09-04 05:25:58 | 52.53773 | 9.12249 | 100° | 22km/h | 32352m | 7.6m/s | -40.3°C | 0% | 0hPa | 2.6V | 00:00:00 | 00:00:00 | 00:00:00 | |
| DK5PH-5 | 2026-09-04 05:25:57 | 52.53773 | 9.12243 | 99° | 20km/h | 32344m | 6.4m/s | -39.3°C | 1.9% | 8.5hPa | 2.6V | 00:00:00 | 01:54:45 | 00:00:00 | |
| DL1XH1-15 | 2026-09-04 05:25:56 | 52.53802 | 9.12225 | 170° | 33km/h | 32306m | 5.8m/s | -39.6°C | 1.9% | 8.7hPa | 2.6V | 08:30:00 | 01:54:39 | 00:00:00 | |
| DL1XH-west | 2026-09-04 05:25:56 | 52.53774 | 9.12238 | 118° | 16km/h | 32338m | 5.2m/s | -39.5°C | 0% | 8.6hPa | 2.6V | 18:12:15 | 01:54:44 | 00:00:00 | |
| DF8AY | 2026-09-04 05:25:53 | 52.53787 | 9.12227 | 177° | 27km/h | 32319m | 7.2m/s | -39.6°C | 0% | 8.6hPa | 2.7V | 18:12:15 | 01:54:41 | 00:00:00 | |
| BIOWL1-15 | 2026-09-04 05:25:49 | 52.53818 | 9.12214 | 144° | 37km/h | 32292m | 6.7m/s | -39.7°C | 0% | 8.7hPa | 2.6V | 18:12:15 | 01:54:37 | 00:00:00 | |
| AA1-15 | 2026-09-04 05:25:48 | 52.53825 | 9.12205 | 132° | 37km/h | 32286m | 5.6m/s | -39.7°C | 0% | 8.7hPa | 2.7V | 18:12:15 | 01:54:36 | 00:00:00 | |
| DL1XH-west | 2026-09-04 05:25:45 | 52.53839 | 9.12175 | 132° | 22km/h | 32268m | 7.3m/s | -39.8°C | 0% | 8.7hPa | 2.6V | 18:12:15 | 01:54:33 | 00:00:00 | |
| BUE01 | 2026-09-04 05:25:45 | 52.53839 | 9.12175 | 132° | 22km/h | 32268m | 7.3m/s | -39.8°C | 0.3% | 8.7hPa | 2.7V | 00:00:00 | 00:00:00 | 00:00:00 | |
| HSKMA3-T | 2026-09-04 05:25:43 | 52.53850 | 9.12164 | 155° | 15km/h | 32248m | 5.6m/s | -39.8°C | 0% | 8.7hPa | 2.7V | 18:12:15 | 01:54:30 | 00:00:00 | |
| DF8AY | 2026-09-04 05:25:43 | 52.53847 | 9.12167 | 157° | 15km/h | 32254m | 6.1m/s | -39.8°C | 0% | 8.7hPa | 2.6V | 18:12:15 | 01:54:31 | 00:00:00 | |
| DM0DOS-11 | 2026-09-04 05:25:42 | 52.53853 | 9.12161 | 140° | 15km/h | 32242m | 7.3m/s | -39.8°C | 1.9% | 8.7hPa | 2.7V | 08:30:00 | 01:54:29 | 00:00:00 | |
| DJ8HS-15 | 2026-09-04 05:25:42 | 52.53850 | 9.12164 | 155° | 18km/h | 32249m | 5.6m/s | -39.8°C | 1.9% | 8.7hPa | 2.6V | 00:00:00 | 01:54:30 | 00:00:00 | |
| DB0DAN | 2026-09-04 05:25:40 | 52.53856 | 9.12156 | 125° | 18km/h | 32235m | 6.8m/s | -39.8°C | 0.3% | 8.75hPa | 2.6V | 00:00:00 | 00:00:00 | 00:00:00 | |
| BIOWL1-15 | 2026-09-04 05:25:39 | 52.53859 | 9.12149 | 122° | 22km/h | 32229m | 5.4m/s | -39.9°C | 0% | 8.8hPa | 2.6V | 18:12:15 | 01:54:27 | 00:00:00 | |
| DO2JMG | 2026-09-04 05:25:38 | 52.53862 | 9.12141 | 124° | 22km/h | 32223m | 5.2m/s | -39.9°C | 0% | 8.7hPa | 2.7V | 18:12:15 | 01:54:26 | 00:00:00 | |
| AA1-15 | 2026-09-04 05:25:37 | 52.53865 | 9.12134 | 134° | 22km/h | 32217m | 7.4m/s | -39.9°C | 0% | 8.8hPa | 2.7V | 18:12:15 | 01:54:25 | 00:00:00 | |
| SO1NDE-10 | 2026-09-04 05:25:37 | 52.53865 | 9.12134 | 134° | 15km/h | 32218m | 7.3m/s | -39.9°C | 1.9% | 8.7hPa | 2.6V | 00:00:00 | 01:54:25 | 00:00:00 | |
| DM0DOS-11 | 2026-09-04 05:25:36 | 52.53883 | 9.12106 | 96° | 20km/h | 32178m | 6.6m/s | -40.2°C | 2% | 8.8hPa | 2.6V | 08:30:00 | 01:54:19 | 00:00:00 | |
| DL1XH-west | 2026-09-04 05:25:34 | 52.53877 | 9.12122 | 154° | 16km/h | 32198m | 5.6m/s | -40.1°C | 0% | 8.8hPa | 2.7V | 18:12:15 | 01:54:22 | 00:00:00 | |
| DF8AY | 2026-09-04 05:25:33 | 52.53880 | 9.12119 | 135° | 15km/h | 32192m | 6.1m/s | -40.2°C | 0% | 8.8hPa | 2.7V | 18:12:15 | 01:54:21 | 00:00:00 | |
| HSKMA3-T | 2026-09-04 05:25:32 | 52.53882 | 9.12113 | 114° | 16km/h | 32185m | 7.7m/s | -40.2°C | 0% | 8.8hPa | 2.6V | 18:12:15 | 01:54:20 | 00:00:00 | |
| BIOWL1-15 | 2026-09-04 05:25:31 | 52.53884 | 9.12090 | 102° | 18km/h | 32167m | 4.9m/s | -40.3°C | 0% | 8.8hPa | 2.7V | 18:12:15 | 01:54:17 | 00:00:00 | |
| AA1-15 | 2026-09-04 05:25:27 | 52.53888 | 9.12080 | 159° | 13km/h | 32154m | 7.5m/s | -40.3°C | 0% | 8.8hPa | 2.7V | 18:12:15 | 01:54:15 | 00:00:00 | |
| DL1XH-west | 2026-09-04 05:25:24 | 52.53900 | 9.12079 | 169° | 15km/h | 32134m | 6.8m/s | -40.4°C | 0% | 8.9hPa | 2.6V | 18:12:15 | 01:54:12 | 00:00:00 | |
| SONDE2-11 | 2026-09-04 05:25:24 | 52.53903 | 9.12077 | 145° | 15km/h | 32128m | 6.8m/s | -40.4°C | 0.3% | 8.9hPa | 2.6V | 00:00:00 | 00:00:00 | 00:00:00 | |
| DL1NUX | 2026-09-04 05:25:23 | 52.53916 | 9.12057 | 173° | 13km/h | 32095m | 6.5m/s | -40.5°C | 2% | 8.9hPa | 2.6V | 08:30:00 | 01:54:06 | 00:00:00 | |
| DF8AY | 2026-09-04 05:25:22 | 52.53906 | 9.12073 | 127° | 16km/h | 32121m | 6m/s | -40.4°C | 0% | 8.9hPa | 2.7V | 18:12:15 | 01:54:10 | 00:00:00 | |
| BIOWL1-15 | 2026-09-04 05:25:18 | 52.53916 | 9.12058 | 174° | 13km/h | 32095m | 6.5m/s | -40.5°C | 0% | 8.9hPa | 2.6V | 18:12:15 | 01:54:06 | 00:00:00 | |
| AA1-15 | 2026-09-04 05:25:16 | 52.53922 | 9.12056 | 166° | 11km/h | 32083m | 5.8m/s | -40.4°C | 0% | 8.9hPa | 2.7V | 18:12:15 | 01:54:04 | 00:00:00 | |
| DL1NUX | 2026-09-04 05:25:14 | 52.53944 | 9.12055 | 208° | 20km/h | 32032m | 5.5m/s | -40.4°C | 2% | 9hPa | 2.6V | 08:30:00 | 01:53:56 | 00:00:00 | |
| DL1XH-west | 2026-09-04 05:25:14 | 52.53927 | 9.12049 | 131° | 9km/h | 32063m | 5.1m/s | -40.4°C | 0% | 9hPa | 2.6V | 18:12:15 | 01:54:01 | 00:00:00 | |
| DF8AY | 2026-09-04 05:25:12 | 52.53929 | 9.12047 | 155° | 9km/h | 32058m | 5.5m/s | -40.4°C | 0% | 9hPa | 2.6V | 18:12:15 | 01:54:00 | 00:00:00 | |
| HSKMA3-T | 2026-09-04 05:25:11 | 52.53932 | 9.12046 | 184° | 13km/h | 32052m | 7.4m/s | -40.5°C | 0% | 9hPa | 2.7V | 18:12:15 | 01:53:59 | 00:00:00 | |
| BIOWL1-15 | 2026-09-04 05:25:09 | 52.53949 | 9.12059 | 202° | 15km/h | 32027m | 6.4m/s | -40.4°C | 0% | 9hPa | 2.6V | 18:12:15 | 01:53:55 | 00:00:00 | |
| DO2JMG | 2026-09-04 05:25:06 | 52.53952 | 9.12060 | 186° | 9km/h | 32020m | 6.4m/s | -40.4°C | 0% | 9hPa | 2.6V | 18:12:15 | 01:53:54 | 00:00:00 | |
| AA1-15 | 2026-09-04 05:25:05 | 52.53953 | 9.12060 | 163° | 5km/h | 32014m | 4.9m/s | -40.4°C | 0% | 9hPa | 2.7V | 18:12:15 | 01:53:53 | 00:00:00 | |
| DL1XH-west | 2026-09-04 05:25:03 | 52.53956 | 9.12059 | 190° | 4km/h | 32002m | 7.3m/s | -40.5°C | 0% | 9.1hPa | 2.6V | 18:12:15 | 01:53:51 | 00:00:00 | |
| HSKMA3-T | 2026-09-04 05:25:01 | 52.53961 | 9.12059 | 154° | 9km/h | 31983m | 7m/s | -40.6°C | 0% | 9.1hPa | 2.7V | 18:12:15 | 01:53:48 | 00:00:00 | |
| DF8AY | 2026-09-04 05:25:01 | 52.53959 | 9.12060 | 178° | 7km/h | 31990m | 5.6m/s | -40.5°C | 0% | 9.1hPa | 2.7V | 18:12:15 | 01:53:49 | 00:00:00 | |
| BIOWL1-15 | 2026-09-04 05:24:58 | 52.53977 | 9.12051 | 184° | 26km/h | 31958m | 7.8m/s | -40.7°C | 0% | 9.1hPa | 2.7V | 18:12:15 | 01:53:44 | 00:00:00 | |
| DL3AQ-11 | 2026-09-04 05:24:56 | 52.53984 | 9.12053 | 196° | 31km/h | 31951m | 7.0m/s | -40.6°C | 0.3% | 9.1hPa | 2.6V | 00:00:00 | 00:00:00 | 00:00:00 | |
| DB0DAN | 2026-09-04 05:24:55 | 52.53984 | 9.12053 | 196° | 29km/h | 31950m | 7m/s | -40.6°C | 0.3% | 9.13hPa | 2.6V | 00:00:00 | 00:00:00 | 00:00:00 | |
| DO2JMG | 2026-09-04 05:24:55 | 52.53984 | 9.12053 | 196° | 31km/h | 31950m | 7m/s | -40.6°C | 0% | 9.1hPa | 2.6V | 18:12:15 | 01:53:43 | 00:00:00 | |
| AA1-15 | 2026-09-04 05:24:54 | 52.53991 | 9.12057 | 203° | 31km/h | 31944m | 5.4m/s | -40.6°C | 0% | 9.1hPa | 2.6V | 18:12:15 | 01:53:42 | 00:00:00 | |
| DO3MHA-12 | 2026-09-04 05:24:54 | 52.53991 | 9.12057 | 204° | 18km/h | 31945m | 5.3m/s | -40.5°C | 2.0% | 9.1hPa | 2.7V | 00:00:00 | 01:53:42 | 00:00:00 | |
| DM0DOS-11 | 2026-09-04 05:24:53 | 52.54008 | 9.12069 | 189° | 13km/h | 31926m | 6.9m/s | -40.5°C | 2% | 9.2hPa | 2.7V | 08:30:00 | 01:53:39 | 00:00:00 | |
| DL1NUX | 2026-09-04 05:24:53 | 52.54015 | 9.12066 | 162° | 9km/h | 31907m | 6.6m/s | -40.5°C | 2% | 9.2hPa | 2.6V | 08:30:00 | 01:53:36 | 00:00:00 | |
| DL1XH-west | 2026-09-04 05:24:53 | 52.53998 | 9.12062 | 205° | 27km/h | 31939m | 5.1m/s | -40.6°C | 0% | 9.2hPa | 2.6V | 18:12:15 | 01:53:41 | 00:00:00 | |
| DF8AY | 2026-09-04 05:24:50 | 52.54011 | 9.12069 | 163° | 9km/h | 31920m | 6.1m/s | -40.5°C | 0% | 9.2hPa | 2.7V | 18:12:15 | 01:53:38 | 00:00:00 | |
| HSKMA3-T | 2026-09-04 05:24:49 | 52.54013 | 9.12067 | 148° | 7km/h | 31913m | 5.7m/s | -40.5°C | 0% | 9.2hPa | 2.6V | 18:12:15 | 01:53:37 | 00:00:00 | |
| DD8BA-10 | 2026-09-04 05:24:49 | 52.54012 | 9.12067 | 148° | 24km/h | 31914m | 5.7m/s | -40.5°C | 1.9% | 9.2hPa | 2.6V | 00:00:00 | 00:00:00 | 00:00:00 | |
| DJ2DS-15 | 2026-09-04 05:24:48 | 52.54014 | 9.12066 | 163° | 26km/h | 31908m | 6.5m/s | -40.5°C | 2.0% | 9.1hPa | 2.6V | 00:00:00 | 01:53:36 | 00:00:00 | |
| DL8DAS-15 | 2026-09-04 05:24:47 | 52.54014 | 9.12066 | 164° | 9km/h | 31908m | 6.6m/s | -40.5°C | 0.3% | 9.2hPa | 2.6V | 00:00:00 | 00:00:00 | 00:00:00 | |
| DL1XH1-15 | 2026-09-04 05:24:46 | 52.54057 | 9.12051 | 158° | 35km/h | 31863m | 5.1m/s | -40.9°C | 2% | 9.2hPa | 2.6V | 08:30:00 | 01:53:29 | 00:00:00 | |
| BIOWL1-15 | 2026-09-04 05:24:45 | 52.54027 | 9.12066 | 179° | 26km/h | 31888m | 6m/s | -40.7°C | 0% | 9.2hPa | 2.7V | 18:12:15 | 01:53:33 | 00:00:00 | |
| DO2JMG | 2026-09-04 05:24:44 | 52.54034 | 9.12065 | 169° | 29km/h | 31882m | 6.8m/s | -40.8°C | 0% | 9.2hPa | 2.7V | 18:12:15 | 01:53:32 | 00:00:00 | |
| AA1-15 | 2026-09-04 05:24:43 | 52.54041 | 9.12061 | 161° | 33km/h | 31875m | 7.5m/s | -40.8°C | 0% | 9.2hPa | 2.6V | 18:12:15 | 01:53:31 | 00:00:00 | |
| DL1XH-west | 2026-09-04 05:24:42 | 52.54049 | 9.12056 | 157° | 35km/h | 31868m | 5.8m/s | -40.8°C | 0% | 9.2hPa | 2.6V | 18:12:15 | 01:53:30 | 00:00:00 | |
| DO3DL | 2026-09-04 05:24:42 | 52.54049 | 9.12056 | 158° | 35km/h | 31869m | 5.8m/s | -40.8°C | 0.3% | 9.2hPa | 2.7V | 00:00:00 | 00:00:00 | 00:00:00 | |
| DB0DAN | 2026-09-04 05:24:40 | 52.54065 | 9.12046 | 165° | 31km/h | 31857m | 7.1m/s | -41°C | 0.3% | 9.25hPa | 2.7V | 00:00:00 | 00:00:00 | 00:00:00 | |
| DF8AY | 2026-09-04 05:24:39 | 52.54073 | 9.12044 | 174° | 31km/h | 31850m | 7.2m/s | -41.1°C | 0% | 9.2hPa | 2.7V | 18:12:15 | 01:53:27 | 00:00:00 | |
| HSKMA3-T | 2026-09-04 05:24:38 | 52.54081 | 9.12043 | 180° | 27km/h | 31843m | 5.9m/s | -41.1°C | 0% | 9.3hPa | 2.7V | 18:12:15 | 01:53:26 | 00:00:00 | |
| BIOWL1-15 | 2026-09-04 05:24:34 | 52.54101 | 9.12032 | 127° | 24km/h | 31818m | 6.5m/s | -41.2°C | 0% | 9.3hPa | 2.7V | 18:12:15 | 01:53:22 | 00:00:00 | |
| DO3MHA-12 | 2026-09-04 05:24:34 | 52.54101 | 9.12032 | 128° | 29km/h | 31818m | 6.5m/s | -41.2°C | 2.0% | 9.3hPa | 2.6V | 00:00:00 | 01:53:22 | 00:00:00 | |
| DL1NUX | 2026-09-04 05:24:33 | 52.54135 | 9.11992 | 156° | 31km/h | 31780m | 5.3m/s | -41.5°C | 2.1% | 9.3hPa | 2.6V | 08:30:00 | 01:53:16 | 00:00:00 | |
| AA1-15 | 2026-09-04 05:24:33 | 52.54105 | 9.12024 | 126° | 27km/h | 31811m | 6.1m/s | -41.3°C | 0% | 9.3hPa | 2.7V | 18:12:15 | 01:53:21 | 00:00:00 | |
| DM0DOS-11 | 2026-09-04 05:24:31 | 52.54115 | 9.12007 | 144° | 29km/h | 31798m | 7.3m/s | -41.4°C | 2% | 9.3hPa | 2.6V | 08:30:00 | 01:53:19 | 00:00:00 | |
| DL1XH-west | 2026-09-04 05:24:31 | 52.54115 | 9.12007 | 144° | 29km/h | 31798m | 7.3m/s | -41.4°C | 0% | 9.3hPa | 2.6V | 18:12:15 | 01:53:19 | 00:00:00 | |
| DF8AY | 2026-09-04 05:24:29 | 52.54128 | 9.11997 | 159° | 29km/h | 31785m | 5.5m/s | -41.4°C | 0% | 9.3hPa | 2.7V | 18:12:15 | 01:53:17 | 00:00:00 | |
| HSKMA3-T | 2026-09-04 05:24:27 | 52.54142 | 9.11986 | 149° | 31km/h | 31773m | 7.5m/s | -41.5°C | 0% | 9.4hPa | 2.6V | 18:12:15 | 01:53:15 | 00:00:00 | |
| DK5PH-5 | 2026-09-04 05:24:27 | 52.54142 | 9.11986 | 149° | 31km/h | 31774m | 7.4m/s | -41.4°C | 2.1% | 9.3hPa | 2.7V | 00:00:00 | 01:53:15 | 00:00:00 | |
| DM0DOS-11 | 2026-09-04 05:24:26 | 52.54182 | 9.11948 | 174° | 29km/h | 31734m | 6m/s | -41.5°C | 2% | 9.4hPa | 2.7V | 08:30:00 | 01:53:09 | 00:00:00 | |
| DB0DAN | 2026-09-04 05:24:25 | 52.54155 | 9.11970 | 140° | 31km/h | 31760m | 5.5m/s | -41.4°C | 0.3% | 9.41hPa | 2.7V | 00:00:00 | 00:00:00 | 00:00:00 | |
| DO2JMG | 2026-09-04 05:24:24 | 52.54161 | 9.11962 | 143° | 31km/h | 31755m | 5.7m/s | -41.4°C | 0% | 9.4hPa | 2.6V | 18:12:15 | 01:53:12 | 00:00:00 | |
| BIOWL1-15 | 2026-09-04 05:24:23 | 52.54167 | 9.11955 | 152° | 29km/h | 31748m | 7.5m/s | -41.5°C | 0% | 9.4hPa | 2.6V | 18:12:15 | 01:53:11 | 00:00:00 | |
| AA1-15 | 2026-09-04 05:24:22 | 52.54174 | 9.11951 | 164° | 29km/h | 31741m | 7.5m/s | -41.5°C | 0% | 9.4hPa | 2.6V | 18:12:15 | 01:53:10 | 00:00:00 | |
| DL1XH-west | 2026-09-04 05:24:20 | 52.54189 | 9.11947 | 172° | 29km/h | 31729m | 5m/s | -41.6°C | 0% | 9.5hPa | 2.7V | 18:12:15 | 01:53:08 | 00:00:00 | |
| DF8AY | 2026-09-04 05:24:18 | 52.54203 | 9.11939 | 147° | 29km/h | 31717m | 7.7m/s | -41.8°C | 0% | 9.5hPa | 2.6V | 18:12:15 | 01:53:06 | 00:00:00 | |
| HSKMA3-T | 2026-09-04 05:24:17 | 52.54209 | 9.11930 | 131° | 33km/h | 31710m | 7.5m/s | -41.8°C | 0% | 9.5hPa | 2.6V | 18:12:15 | 01:53:05 | 00:00:00 | |
| DM0DOS-11 | 2026-09-04 05:24:16 | 52.54242 | 9.11879 | 155° | 27km/h | 31671m | 6.3m/s | -42.2°C | 2.1% | 9.5hPa | 2.6V | 08:30:00 | 01:52:59 | 00:00:00 | |
| DO2JMG | 2026-09-04 05:24:14 | 52.54224 | 9.11897 | 134° | 31km/h | 31690m | 7.1m/s | -41.9°C | 0% | 9.5hPa | 2.7V | 18:12:15 | 01:53:02 | 00:00:00 | |
| BIOWL1-15 | 2026-09-04 05:24:13 | 52.54230 | 9.11890 | 146° | 29km/h | 31683m | 6.6m/s | -42°C | 0% | 9.5hPa | 2.7V | 18:12:15 | 01:53:01 | 00:00:00 | |
| AA1-15 | 2026-09-04 05:24:11 | 52.54242 | 9.11879 | 155° | 27km/h | 31671m | 6.3m/s | -42.2°C | 0% | 9.5hPa | 2.6V | 18:12:15 | 01:52:59 | 00:00:00 | |
| DL1XH-west | 2026-09-04 05:24:10 | 52.54249 | 9.11874 | 151° | 27km/h | 31664m | 7.4m/s | -42.4°C | 0% | 9.5hPa | 2.6V | 18:12:15 | 01:52:58 | 00:00:00 | |
| DF8AY | 2026-09-04 05:24:09 | 52.54261 | 9.11861 | 147° | 29km/h | 31651m | 5.9m/s | -42.6°C | 0% | 9.6hPa | 2.7V | 18:12:15 | 01:52:56 | 00:00:00 | |
| HSKMA3-T | 2026-09-04 05:24:08 | 52.54267 | 9.11855 | 151° | 29km/h | 31644m | 7.1m/s | -42.7°C | 0% | 9.6hPa | 2.7V | 18:12:15 | 01:52:55 | 00:00:00 | |
| DO2JMG | 2026-09-04 05:24:03 | 52.54289 | 9.11829 | 123° | 29km/h | 31620m | 7.4m/s | -42.9°C | 0% | 9.6hPa | 2.7V | 18:12:15 | 01:52:51 | 00:00:00 | |
| BIOWL1-15 | 2026-09-04 05:24:02 | 52.54292 | 9.11817 | 108° | 35km/h | 31612m | 8.4m/s | -42.9°C | 0% | 9.6hPa | 2.7V | 18:12:15 | 01:52:50 | 00:00:00 | |
| AA1-15 | 2026-09-04 05:24:01 | 52.54294 | 9.11802 | 100° | 38km/h | 31605m | 6.2m/s | -42.9°C | 0% | 9.6hPa | 2.6V | 18:12:15 | 01:52:49 | 00:00:00 | |
| DL1XH-west | 2026-09-04 05:23:59 | 52.54298 | 9.11771 | 104° | 37km/h | 31593m | 7.2m/s | -42.9°C | 0% | 9.7hPa | 2.7V | 18:12:15 | 01:52:47 | 00:00:00 | |
| DF8AY | 2026-09-04 05:23:57 | 52.54304 | 9.11747 | 126° | 29km/h | 31579m | 6.4m/s | -42.8°C | 0% | 9.7hPa | 2.6V | 18:12:15 | 01:52:45 | 00:00:00 | |
| HSKMA3-T | 2026-09-04 05:23:56 | 52.54309 | 9.11738 | 132° | 29km/h | 31573m | 5.9m/s | -42.9°C | 0% | 9.7hPa | 2.6V | 18:12:15 | 01:52:44 | 00:00:00 | |
| BIOWL1-15 | 2026-09-04 05:23:54 | 52.54330 | 9.11693 | 129° | 37km/h | 31546m | 6.7m/s | -42.9°C | 0% | 9.7hPa | 2.7V | 18:12:15 | 01:52:40 | 00:00:00 | |
| DO2JMG | 2026-09-04 05:23:54 | 52.54325 | 9.11705 | 127° | 37km/h | 31553m | 6.3m/s | -42.8°C | 0% | 9.7hPa | 2.7V | 18:12:15 | 01:52:41 | 00:00:00 | |
| DL1ZP-14 | 2026-09-04 05:23:53 | 52.54325 | 9.11705 | 126° | 37km/h | 31553m | 6.3m/s | -42.8°C | 0.3% | 9.7hPa | 2.7V | 00:00:00 | 00:00:00 | 00:00:00 | |
| DL1NUX | 2026-09-04 05:23:52 | 52.54352 | 9.11635 | 101° | 37km/h | 31513m | 7.6m/s | -42.9°C | 2.2% | 9.8hPa | 2.7V | 08:30:00 | 01:52:35 | 00:00:00 | |
| AA1-15 | 2026-09-04 05:23:50 | 52.54342 | 9.11672 | 129° | 31km/h | 31533m | 5.9m/s | -42.9°C | 0% | 9.8hPa | 2.6V | 18:12:15 | 01:52:38 | 00:00:00 | |
| DL1XH-west | 2026-09-04 05:23:48 | 52.54350 | 9.11649 | 110° | 33km/h | 31521m | 7.2m/s | -42.9°C | 0% | 9.8hPa | 2.7V | 18:12:15 | 01:52:36 | 00:00:00 | |
| DF8AY | 2026-09-04 05:23:47 | 52.54352 | 9.11635 | 102° | 37km/h | 31513m | 7.6m/s | -42.9°C | 0% | 9.8hPa | 2.7V | 18:12:15 | 01:52:35 | 00:00:00 | |
| HSKMA3-T | 2026-09-04 05:23:46 | 52.54355 | 9.11603 | 97° | 38km/h | 31501m | 5m/s | -42.9°C | 0% | 9.8hPa | 2.6V | 18:12:15 | 01:52:33 | 00:00:00 | |
| DO2SHX-10 | 2026-09-04 05:23:46 | 52.54353 | 9.11619 | 97° | 40km/h | 31507m | 5.8m/s | -42.8°C | 2.2% | 9.7hPa | 2.7V | 00:00:00 | 01:52:34 | 08:30:00 | |
| DM0DOS-11 | 2026-09-04 05:23:45 | 52.54375 | 9.11554 | 147° | 31km/h | 31468m | 5.7m/s | -42.9°C | 2.1% | 9.8hPa | 2.7V | 08:30:00 | 01:52:28 | 00:00:00 | |
| DF2AP-13 | 2026-09-04 05:23:45 | 52.54355 | 9.11603 | 98° | 31km/h | 31501m | 4.9m/s | -42.8°C | 2.2% | 9.7hPa | 2.6V | 00:00:00 | 01:52:33 | 00:00:00 | |
| DO3MHA-12 | 2026-09-04 05:23:44 | 52.54356 | 9.11589 | 104° | 37km/h | 31496m | 5.5m/s | -42.8°C | 2.1% | 9.8hPa | 2.6V | 00:00:00 | 01:52:32 | 00:00:00 | |
| DO2SHX-10 | 2026-09-04 05:23:43 | 52.54359 | 9.11576 | 116° | 27km/h | 31489m | 7.9m/s | -42.8°C | 2.1% | 9.8hPa | 2.6V | 00:00:00 | 01:52:31 | 00:00:00 | |
| DL1NUX | 2026-09-04 05:23:42 | 52.54393 | 9.11518 | 116° | 46km/h | 31449m | 6.3m/s | -43.2°C | 2.2% | 9.8hPa | 2.6V | 08:30:00 | 01:52:25 | 00:00:00 | |
| DO2JMG | 2026-09-04 05:23:42 | 52.54363 | 9.11567 | 135° | 26km/h | 31481m | 7.1m/s | -42.9°C | 0% | 9.8hPa | 2.7V | 18:12:15 | 01:52:30 | 00:00:00 | |
| DL1XH-15 | 2026-09-04 05:23:41 | 52.54398 | 9.11500 | 109° | 47km/h | 31443m | 5.9m/s | -43.3°C | 2.2% | 9.9hPa | 2.7V | 08:30:00 | 01:52:24 | 00:00:00 | |
| BIOWL1-15 | 2026-09-04 05:23:41 | 52.54368 | 9.11560 | 148° | 27km/h | 31475m | 6.2m/s | -42.9°C | 0% | 9.8hPa | 2.7V | 18:12:15 | 01:52:29 | 00:00:00 | |
| AA1-15 | 2026-09-04 05:23:40 | 52.54375 | 9.11554 | 147° | 31km/h | 31469m | 5.7m/s | -42.9°C | 0% | 9.8hPa | 2.7V | 18:12:15 | 01:52:28 | 00:00:00 | |
| DB0DAN | 2026-09-04 05:23:40 | 52.54375 | 9.11554 | 147° | 29km/h | 31469m | 5.7m/s | -42.9°C | 0.4% | 9.84hPa | 2.7V | 00:00:00 | 00:00:00 | 00:00:00 | |
| DL1XH-west | 2026-09-04 05:23:38 | 52.54388 | 9.11533 | 127° | 42km/h | 31455m | 7.4m/s | -43.1°C | 0% | 9.8hPa | 2.6V | 18:12:15 | 01:52:26 | 00:00:00 | |
| DF8AY | 2026-09-04 05:23:37 | 52.54398 | 9.11500 | 109° | 47km/h | 31443m | 5.9m/s | -43.3°C | 0% | 9.9hPa | 2.7V | 18:12:15 | 01:52:24 | 00:00:00 | |
| HSKMA3-T | 2026-09-04 05:23:36 | 52.54402 | 9.11482 | 106° | 44km/h | 31436m | 7.2m/s | -43.4°C | 0% | 9.9hPa | 2.7V | 18:12:15 | 01:52:23 | 00:00:00 | |
| DO2JMG | 2026-09-04 05:23:32 | 52.54407 | 9.11437 | 97° | 31km/h | 31415m | 6m/s | -43.7°C | 0% | 9.9hPa | 2.7V | 18:12:15 | 01:52:20 | 00:00:00 | |
| DO2SHX-10 | 2026-09-04 05:23:32 | 52.54407 | 9.11437 | 98° | 31km/h | 31416m | 5.9m/s | -43.6°C | 2.3% | 9.9hPa | 2.7V | 00:00:00 | 01:52:20 | 00:00:00 | |
| DL1XH-15 | 2026-09-04 05:23:31 | 52.54425 | 9.11379 | 147° | 24km/h | 31375m | 5.7m/s | -43.9°C | 2.3% | 10hPa | 2.7V | 08:30:00 | 01:52:14 | 00:00:00 | |
| BIOWL1-15 | 2026-09-04 05:23:30 | 52.54410 | 9.11412 | 106° | 31km/h | 31402m | 6.1m/s | -43.8°C | 0% | 9.9hPa | 2.6V | 18:12:15 | 01:52:18 | 00:00:00 | |
| AA1-15 | 2026-09-04 05:23:29 | 52.54412 | 9.11401 | 117° | 27km/h | 31396m | 5.8m/s | -43.9°C | 0% | 9.9hPa | 2.6V | 18:12:15 | 01:52:17 | 00:00:00 | |
| DL1XH-west | 2026-09-04 05:23:27 | 52.54420 | 9.11384 | 142° | 24km/h | 31382m | 7.9m/s | -44°C | 0% | 10hPa | 2.7V | 18:12:15 | 01:52:15 | 00:00:00 | |
| DF8AY | 2026-09-04 05:23:26 | 52.54425 | 9.11379 | 147° | 24km/h | 31375m | 5.7m/s | -43.9°C | 0% | 10hPa | 2.7V | 18:12:15 | 01:52:14 | 00:00:00 | |
| HSKMA3-T | 2026-09-04 05:23:25 | 52.54430 | 9.11372 | 138° | 26km/h | 31369m | 4.8m/s | -43.9°C | 0% | 10hPa | 2.7V | 18:12:15 | 01:52:13 | 00:00:00 | |
| DB0DAN | 2026-09-04 05:23:25 | 52.54430 | 9.11372 | 138° | 24km/h | 31369m | 4.8m/s | -43.9°C | 0.4% | 9.99hPa | 2.7V | 00:00:00 | 00:00:00 | 00:00:00 | |
| DM0DOS-11 | 2026-09-04 05:23:25 | 52.54438 | 9.11303 | 76° | 40km/h | 31337m | 6.4m/s | -43.7°C | 2.3% | 10hPa | 2.7V | 08:30:00 | 01:52:08 | 00:00:00 | |
| DO2JMG | 2026-09-04 05:23:22 | 52.54440 | 9.11337 | 94° | 42km/h | 31350m | 6.4m/s | -43.8°C | 0% | 10hPa | 2.6V | 18:12:15 | 01:52:10 | 00:00:00 | |
| DO3DL | 2026-09-04 05:23:22 | 52.54440 | 9.11337 | 95° | 42km/h | 31350m | 6.4m/s | -43.8°C | 0.4% | 10.0hPa | 2.6V | 00:00:00 | 00:00:00 | 00:00:00 | |
| DL1XH-15 | 2026-09-04 05:23:21 | 52.54432 | 9.11264 | 103° | 15km/h | 31312m | 6.5m/s | -43.7°C | 2.2% | 10.1hPa | 2.6V | 08:30:00 | 01:52:04 | 00:00:00 | |
| AA1-15 | 2026-09-04 05:23:19 | 52.54436 | 9.11288 | 71° | 33km/h | 31331m | 6.7m/s | -43.7°C | 0% | 10hPa | 2.7V | 18:12:15 | 01:52:07 | 00:00:00 | |
| DL1XH-west | 2026-09-04 05:23:16 | 52.54432 | 9.11264 | 104° | 15km/h | 31312m | 6.5m/s | -43.7°C | 0% | 10.1hPa | 2.6V | 18:12:15 | 01:52:04 | 00:00:00 | |
| DF8AY | 2026-09-04 05:23:15 | 52.54434 | 9.11258 | 115° | 16km/h | 31305m | 7m/s | -43.7°C | 0% | 10.1hPa | 2.7V | 18:12:15 | 01:52:03 | 00:00:00 | |
| HSKMA3-T | 2026-09-04 05:23:14 | 52.54436 | 9.11250 | 115° | 22km/h | 31299m | 6.3m/s | -43.7°C | 0% | 10.1hPa | 2.7V | 18:12:15 | 01:52:02 | 00:00:00 | |
| DO3MHA-12 | 2026-09-04 05:23:14 | 52.54436 | 9.11250 | 116° | 22km/h | 31299m | 6.2m/s | -43.7°C | 2.3% | 10.0hPa | 2.7V | 00:00:00 | 01:52:02 | 08:30:00 | |
| DO2SHX-10 | 2026-09-04 05:23:13 | 52.54438 | 9.11242 | 110° | 24km/h | 31293m | 5.6m/s | -43.7°C | 2.3% | 10.0hPa | 2.6V | 00:00:00 | 01:52:01 | 00:00:00 | |
| DL1NUX | 2026-09-04 05:23:12 | 52.54438 | 9.11196 | 77° | 20km/h | 31254m | 6m/s | -43.9°C | 2.3% | 10.1hPa | 2.6V | 08:30:00 | 01:51:55 | 00:00:00 | |
| DO2JMG | 2026-09-04 05:23:11 | 52.54440 | 9.11223 | 96° | 20km/h | 31281m | 6.8m/s | -43.9°C | 0% | 10.1hPa | 2.6V | 18:12:15 | 01:51:59 | 00:00:00 | |
| DB0DAN | 2026-09-04 05:23:10 | 52.54440 | 9.11215 | 86° | 16km/h | 31274m | 7.3m/s | -44°C | 0.4% | 10.14hPa | 2.6V | 00:00:00 | 00:00:00 | 00:00:00 | |
| AA1-15 | 2026-09-04 05:23:08 | 52.54439 | 9.11203 | 73° | 16km/h | 31261m | 6.1m/s | -43.9°C | 0% | 10.2hPa | 2.7V | 18:12:15 | 01:51:56 | 00:00:00 | |
| DL1XH-west | 2026-09-04 05:23:06 | 52.54437 | 9.11187 | 84° | 26km/h | 31247m | 8m/s | -44°C | 0% | 10.2hPa | 2.6V | 18:12:15 | 01:51:54 | 00:00:00 | |
| DF8AY | 2026-09-04 05:23:05 | 52.54437 | 9.11176 | 90° | 29km/h | 31240m | 6.5m/s | -44°C | 0% | 10.2hPa | 2.7V | 18:12:15 | 01:51:53 | 00:00:00 | |
| HSKMA3-T | 2026-09-04 05:23:03 | 52.54437 | 9.11152 | 94° | 26km/h | 31227m | 7m/s | -44°C | 0% | 10.2hPa | 2.6V | 18:12:15 | 01:51:51 | 00:00:00 | |
| DO2JMG | 2026-09-04 05:23:01 | 52.54437 | 9.11137 | 87° | 11km/h | 31213m | 6.6m/s | -44.1°C | 0% | 10.2hPa | 2.6V | 18:12:15 | 01:51:49 | 00:00:00 | |
| DO2SHX-10 | 2026-09-04 05:23:01 | 52.54437 | 9.11137 | 87° | 11km/h | 31214m | 6.5m/s | -44.0°C | 2.4% | 10.2hPa | 2.7V | 00:00:00 | 01:51:49 | 00:00:00 | |
| DF8AY-15 | 2026-09-04 05:23:00 | 52.54437 | 9.11133 | 74° | 13km/h | 31207m | 5.7m/s | -44.0°C | 2.4% | 10.2hPa | 2.7V | 00:00:00 | 01:51:48 | 00:00:00 | |
| DL1NUX | 2026-09-04 05:22:59 | 52.54428 | 9.11108 | 46° | 7km/h | 31167m | 6.6m/s | -44.1°C | 2.4% | 10.3hPa | 2.7V | 08:30:00 | 01:51:42 | 00:00:00 | |
| BIOWL1-15 | 2026-09-04 05:22:57 | 52.54434 | 9.11119 | 62° | 15km/h | 31187m | 5.7m/s | -44.1°C | 0% | 10.3hPa | 2.6V | 18:12:15 | 01:51:45 | 00:00:00 | |
| AU51GT2 | 2026-09-04 05:22:56 | 52.54430 | 9.11111 | 47° | 9km/h | 31175m | 7.7m/s | -44.1°C | 0.4% | 10.3hPa | 2.6V | 00:00:00 | 00:00:00 | 00:00:00 | |
| DB0DAN | 2026-09-04 05:22:55 | 52.54430 | 9.11111 | 48° | 9km/h | 31174m | 7.7m/s | -44.1°C | 0.4% | 10.27hPa | 2.6V | 00:00:00 | 00:00:00 | 00:00:00 | |
| DL1XH-west | 2026-09-04 05:22:55 | 52.54430 | 9.11111 | 48° | 11km/h | 31174m | 7.7m/s | -44.1°C | 0% | 10.3hPa | 2.6V | 18:12:15 | 01:51:43 | 00:00:00 | |
| HSKMA3-T | 2026-09-04 05:22:55 | 52.54428 | 9.11105 | 84° | 7km/h | 31161m | 5.9m/s | -44.2°C | 0% | 10.3hPa | 2.7V | 18:12:15 | 01:51:41 | 00:00:00 | |
| DF8AY | 2026-09-04 05:22:54 | 52.54428 | 9.11108 | 47° | 7km/h | 31167m | 6.6m/s | -44.1°C | 0% | 10.3hPa | 2.7V | 18:12:15 | 01:51:42 | 00:00:00 | |
| DO2JMG | 2026-09-04 05:22:50 | 52.54431 | 9.11088 | 113° | 22km/h | 31140m | 6m/s | -44.2°C | 0% | 10.3hPa | 2.6V | 18:12:15 | 01:51:38 | 00:00:00 | |
| DD8BA-10 | 2026-09-04 05:22:49 | 52.54433 | 9.11080 | 112° | 11km/h | 31135m | 5.5m/s | -44.2°C | 2.4% | 10.3hPa | 2.7V | 00:00:00 | 00:00:00 | 00:00:00 | |
| DL1NUX | 2026-09-04 05:22:48 | 52.54426 | 9.11062 | 41° | 13km/h | 31093m | 6.5m/s | -44.1°C | 2.4% | 10.4hPa | 2.7V | 08:30:00 | 01:51:31 | 00:00:00 | |
| AA1-15 | 2026-09-04 05:22:46 | 52.54434 | 9.11068 | 21° | 7km/h | 31113m | 6.5m/s | -44.2°C | 0% | 10.4hPa | 2.6V | 18:12:15 | 01:51:34 | 00:00:00 | |
| DL1XH-west | 2026-09-04 05:22:45 | 52.54431 | 9.11067 | 16° | 11km/h | 31107m | 6.4m/s | -44.2°C | 0% | 10.4hPa | 2.6V | 18:12:15 | 01:51:33 | 00:00:00 | |
| DF8AY | 2026-09-04 05:22:44 | 52.54429 | 9.11065 | 28° | 13km/h | 31100m | 7.5m/s | -44.2°C | 0% | 10.4hPa | 2.7V | 18:12:15 | 01:51:32 | 00:00:00 | |
| HSKMA3-T | 2026-09-04 05:22:42 | 52.54424 | 9.11058 | 48° | 13km/h | 31087m | 5.9m/s | -44.1°C | 0% | 10.4hPa | 2.6V | 18:12:15 | 01:51:30 | 00:00:00 | |
| DO2SHX-10 | 2026-09-04 05:22:42 | 52.54424 | 9.11058 | 48° | 9km/h | 31087m | 5.8m/s | -44.0°C | 2.4% | 10.4hPa | 2.6V | 00:00:00 | 01:51:30 | 00:00:00 | |
| DL1XH-15 | 2026-09-04 05:22:41 | 52.54425 | 9.11045 | 126° | 15km/h | 31047m | 7.8m/s | -44°C | 2.4% | 10.5hPa | 2.6V | 08:30:00 | 01:51:24 | 00:00:00 | |
| DB0DAN | 2026-09-04 05:22:40 | 52.54421 | 9.11053 | 41° | 5km/h | 31073m | 7.5m/s | -44.1°C | 0.4% | 10.47hPa | 2.7V | 00:00:00 | 00:00:00 | 00:00:00 | |
| DO2JMG | 2026-09-04 05:22:40 | 52.54421 | 9.11053 | 41° | 5km/h | 31073m | 7.5m/s | -44.1°C | 0% | 10.5hPa | 2.7V | 18:12:15 | 01:51:28 | 00:00:00 | |
| DF8AY-15 | 2026-09-04 05:22:40 | 52.54421 | 9.11053 | 41° | 18km/h | 31073m | 7.4m/s | -44.0°C | 2.4% | 10.4hPa | 2.7V | 00:00:00 | 01:51:28 | 00:00:00 | |
| DD8BA-10 | 2026-09-04 05:22:39 | 52.54420 | 9.11052 | 124° | 15km/h | 31067m | 5.9m/s | -44.0°C | 2.4% | 10.4hPa | 2.6V | 00:00:00 | 00:00:00 | 00:00:00 | |
| BUE01 | 2026-09-04 05:22:38 | 52.54421 | 9.11051 | 151° | 5km/h | 31061m | 5.6m/s | -44.0°C | 0.4% | 10.5hPa | 2.6V | 00:00:00 | 00:00:00 | 00:00:00 | |
| DL1NUX | 2026-09-04 05:22:37 | 52.54425 | 9.11021 | 29° | 15km/h | 31024m | 7.6m/s | -44°C | 2.4% | 10.5hPa | 2.6V | 08:30:00 | 01:51:20 | 00:00:00 | |
| DJ8HS-15 | 2026-09-04 05:22:37 | 52.54423 | 9.11049 | 140° | 20km/h | 31055m | 6.5m/s | -43.9°C | 2.4% | 10.4hPa | 2.6V | 00:00:00 | 01:51:25 | 00:00:00 | |
| DL1XH1-15 | 2026-09-04 05:22:36 | 52.54420 | 9.11019 | 358° | 22km/h | 31017m | 7.8m/s | -43.9°C | 2.3% | 10.5hPa | 2.6V | 08:30:00 | 01:51:19 | 00:00:00 | |
| BIOWL1-15 | 2026-09-04 05:22:35 | 52.54427 | 9.11039 | 112° | 18km/h | 31041m | 5.5m/s | -44°C | 0% | 10.5hPa | 2.7V | 18:12:15 | 01:51:23 | 00:00:00 | |
| DL1XH-west | 2026-09-04 05:22:34 | 52.54428 | 9.11032 | 93° | 18km/h | 31036m | 4.3m/s | -44°C | 0% | 10.5hPa | 2.7V | 18:12:15 | 01:51:22 | 00:00:00 | |
| DF8AY | 2026-09-04 05:22:33 | 52.54427 | 9.11025 | 66° | 15km/h | 31031m | 5.3m/s | -44°C | 0% | 10.5hPa | 2.7V | 18:12:15 | 01:51:21 | 00:00:00 | |
| HSKMA3-T | 2026-09-04 05:22:31 | 52.54420 | 9.11019 | 359° | 22km/h | 31017m | 7.9m/s | -43.9°C | 0% | 10.5hPa | 2.6V | 18:12:15 | 01:51:19 | 00:00:00 | |
| DO2JMG | 2026-09-04 05:22:30 | 52.54414 | 9.11021 | 346° | 26km/h | 31010m | 6.1m/s | -43.8°C | 0% | 10.6hPa | 2.6V | 18:12:15 | 01:51:18 | 00:00:00 | |
| BIOWL1-15 | 2026-09-04 05:22:29 | 52.54396 | 9.11009 | 84° | 26km/h | 30980m | 6.2m/s | -43.9°C | 0% | 10.6hPa | 2.6V | 18:12:15 | 01:51:13 | 00:00:00 | |
| DJ2DS-15 | 2026-09-04 05:22:28 | 52.54403 | 9.11024 | 358° | 20km/h | 30999m | 6.2m/s | -43.8°C | 2.3% | 10.5hPa | 2.6V | 00:00:00 | 01:51:16 | 00:00:00 | |
| DO2SHX-10 | 2026-09-04 05:22:27 | 52.54399 | 9.11023 | 35° | 20km/h | 30993m | 6.8m/s | -43.8°C | 2.3% | 10.5hPa | 2.6V | 00:00:00 | 01:51:15 | 00:00:00 | |
| DL1XH1-15 | 2026-09-04 05:22:26 | 52.54391 | 9.10969 | 59° | 20km/h | 30952m | 6.6m/s | -44.1°C | 2.4% | 10.7hPa | 2.6V | 08:30:00 | 01:51:09 | 00:00:00 | |
| AA1-15 | 2026-09-04 05:22:24 | 52.54395 | 9.10998 | 85° | 27km/h | 30973m | 6.9m/s | -44°C | 0% | 10.6hPa | 2.6V | 18:12:15 | 01:51:12 | 00:00:00 | |
| DF8AY | 2026-09-04 05:22:23 | 52.54394 | 9.10987 | 80° | 26km/h | 30966m | 7.6m/s | -44.1°C | 0% | 10.6hPa | 2.7V | 18:12:15 | 01:51:11 | 00:00:00 | |
| DL1XH-15 | 2026-09-04 05:22:21 | 52.54380 | 9.10939 | 76° | 18km/h | 30918m | 5.4m/s | -44.1°C | 2.4% | 10.7hPa | 2.6V | 08:30:00 | 01:51:04 | 00:00:00 | |
| HSKMA3-T | 2026-09-04 05:22:21 | 52.54391 | 9.10969 | 60° | 20km/h | 30952m | 6.6m/s | -44.1°C | 0% | 10.7hPa | 2.6V | 18:12:15 | 01:51:09 | 00:00:00 | |
| DO2JMG | 2026-09-04 05:22:19 | 52.54385 | 9.10957 | 50° | 16km/h | 30938m | 7.1m/s | -44.2°C | 0% | 10.7hPa | 2.7V | 18:12:15 | 01:51:07 | 00:00:00 | |
| DD8BA-10 | 2026-09-04 05:22:19 | 52.54385 | 9.10957 | 51° | 22km/h | 30938m | 7.1m/s | -44.1°C | 2.4% | 10.6hPa | 2.7V | 00:00:00 | 00:00:00 | 00:00:00 | |
| DL1NUX | 2026-09-04 05:22:18 | 52.54372 | 9.10916 | 43° | 24km/h | 30899m | 7.9m/s | -44.1°C | 2.4% | 10.7hPa | 2.7V | 08:30:00 | 01:51:01 | 00:00:00 | |
| DO2SHX-10 | 2026-09-04 05:22:18 | 52.54383 | 9.10951 | 60° | 16km/h | 30931m | 7.0m/s | -44.1°C | 2.4% | 10.6hPa | 2.6V | 00:00:00 | 01:51:06 | 00:00:00 | |
| DJ8HS-15 | 2026-09-04 05:22:17 | 52.54381 | 9.10945 | 72° | 20km/h | 30924m | 6.6m/s | -44.1°C | 2.4% | 10.6hPa | 2.6V | 00:00:00 | 01:51:05 | 00:00:00 | |
| DL1XH1-15 | 2026-09-04 05:22:16 | 52.54362 | 9.10903 | 40° | 26km/h | 30886m | 5.5m/s | -44°C | 2.4% | 10.8hPa | 2.6V | 08:30:00 | 01:50:59 | 00:00:00 | |
| BIOWL1-15 | 2026-09-04 05:22:14 | 52.54376 | 9.10924 | 57° | 22km/h | 30906m | 7m/s | -44.1°C | 0% | 10.7hPa | 2.7V | 18:12:15 | 01:51:02 | 00:00:00 | |
| DL1XH-west | 2026-09-04 05:22:13 | 52.54372 | 9.10916 | 43° | 24km/h | 30899m | 7.9m/s | -44.1°C | 0% | 10.7hPa | 2.7V | 18:12:15 | 01:51:01 | 00:00:00 | |
| DM0DOS-11 | 2026-09-04 05:22:12 | 52.54358 | 9.10896 | 48° | 26km/h | 30879m | 7.6m/s | -44°C | 2.4% | 10.8hPa | 2.6V | 08:30:00 | 01:50:58 | 00:00:00 | |
| HSKMA3-T | 2026-09-04 05:22:11 | 52.54358 | 9.10895 | 49° | 26km/h | 30879m | 7.6m/s | -44°C | 0% | 10.8hPa | 2.6V | 18:12:15 | 01:50:58 | 00:00:00 | |
| DL1XH-15 | 2026-09-04 05:22:11 | 52.54347 | 9.10869 | 35° | 15km/h | 30853m | 7.7m/s | -43.9°C | 2.3% | 10.8hPa | 2.7V | 08:30:00 | 01:50:54 | 00:00:00 | |
| DO2JMG | 2026-09-04 05:22:08 | 52.54352 | 9.10880 | 63° | 20km/h | 30866m | 5.7m/s | -44°C | 0% | 10.8hPa | 2.7V | 18:12:15 | 01:50:56 | 00:00:00 | |
| SONCRA | 2026-09-04 05:22:08 | 52.54350 | 9.10874 | 54° | 15km/h | 30860m | 6.4m/s | -44.0°C | 0.4% | 10.8hPa | 2.7V | 00:00:00 | 00:00:00 | 00:00:00 | |
| SO1NDE-10 | 2026-09-04 05:22:07 | 52.54349 | 9.10873 | 55° | 15km/h | 30861m | 6.3m/s | -44.0°C | 2.4% | 10.7hPa | 2.7V | 00:00:00 | 01:50:55 | 08:30:00 | |
| DL1NUX | 2026-09-04 05:22:06 | 52.54330 | 9.10857 | 46° | 15km/h | 30820m | 6.3m/s | -43.8°C | 2.4% | 10.9hPa | 2.7V | 08:30:00 | 01:50:49 | 00:00:00 | |
| DB0UT-7 | 2026-09-04 05:22:06 | 52.54347 | 9.10869 | 36° | 15km/h | 30854m | 7.6m/s | -43.8°C | 2.3% | 10.8hPa | 2.6V | 00:00:00 | 01:50:54 | 00:00:00 | |
| DM0DOS-11 | 2026-09-04 05:22:05 | 52.54327 | 9.10852 | 44° | 16km/h | 30814m | 5.9m/s | -43.8°C | 2.4% | 10.9hPa | 2.6V | 08:30:00 | 01:50:48 | 00:00:00 | |
| BIOWL1-15 | 2026-09-04 05:22:04 | 52.54340 | 9.10865 | 10° | 16km/h | 30840m | 6m/s | -43.9°C | 0% | 10.8hPa | 2.6V | 18:12:15 | 01:50:52 | 00:00:00 | |
| AA1-15 | 2026-09-04 05:22:03 | 52.54336 | 9.10864 | 18° | 15km/h | 30834m | 6.5m/s | -43.8°C | 0% | 10.8hPa | 2.6V | 18:12:15 | 01:50:51 | 00:00:00 | |
| DL3AQ-11 | 2026-09-04 05:22:03 | 52.54333 | 9.10861 | 34° | 13km/h | 30827m | 7.5m/s | -43.8°C | 0.4% | 10.8hPa | 2.7V | 00:00:00 | 00:00:00 | 00:00:00 | |
| DJ2KF-10 | 2026-09-04 05:22:02 | 52.54333 | 9.10861 | 35° | 15km/h | 30827m | 7.4m/s | -43.8°C | 2.4% | 10.8hPa | 2.7V | 00:00:00 | 01:50:50 | 08:30:00 | |
| DL1XH-15 | 2026-09-04 05:22:01 | 52.54308 | 9.10838 | 19° | 20km/h | 30788m | 5m/s | -44°C | 2.4% | 10.9hPa | 2.6V | 08:30:00 | 01:50:44 | 00:00:00 | |
| HSKMA3-T | 2026-09-04 05:22:00 | 52.54324 | 9.10848 | 33° | 18km/h | 30807m | 7.8m/s | -43.8°C | 0% | 10.9hPa | 2.6V | 18:12:15 | 01:50:47 | 00:00:00 | |
| DO2JMG | 2026-09-04 05:21:58 | 52.54319 | 9.10844 | 21° | 22km/h | 30799m | 7.2m/s | -43.8°C | 0% | 10.9hPa | 2.7V | 18:12:15 | 01:50:46 | 00:00:00 | |
| DL4BBY-15 | 2026-09-04 05:21:58 | 52.54319 | 9.10844 | 22° | 13km/h | 30799m | 7.1m/s | -44.7°C | 0% | 0hPa | 2.7V | 00:00:00 | 00:00:00 | 00:00:00 | |
| DO2SHX-10 | 2026-09-04 05:21:57 | 52.54314 | 9.10841 | 17° | 20km/h | 30793m | 5.7m/s | -43.9°C | 2.4% | 10.9hPa | 2.7V | 00:00:00 | 01:50:45 | 00:00:00 | |
| DL1XH1-15 | 2026-09-04 05:21:56 | 52.54295 | 9.10822 | 11° | 9km/h | 30755m | 7.7m/s | -44°C | 2.4% | 11hPa | 2.7V | 08:30:00 | 01:50:39 | 00:00:00 | |
| BIOWL1-15 | 2026-09-04 05:21:53 | 52.54299 | 9.10827 | 56° | 13km/h | 30768m | 6m/s | -44°C | 0% | 10.9hPa | 2.7V | 18:12:15 | 01:50:41 | 00:00:00 | |
| DM0DOS-11 | 2026-09-04 05:21:52 | 52.54292 | 9.10822 | 342° | 13km/h | 30747m | 6.9m/s | -44°C | 2.4% | 11hPa | 2.6V | 08:30:00 | 01:50:38 | 00:00:00 | |
| DL1XH-west | 2026-09-04 05:21:52 | 52.54297 | 9.10823 | 45° | 9km/h | 30762m | 6m/s | -44.1°C | 0% | 11hPa | 2.7V | 18:12:15 | 01:50:40 | 00:00:00 | |
| HSKMA3-T | 2026-09-04 05:21:49 | 52.54289 | 9.10824 | 335° | 16km/h | 30741m | 6.2m/s | -43.9°C | 0% | 11hPa | 2.6V | 18:12:15 | 01:50:37 | 00:00:00 | |
| DO2JMG | 2026-09-04 05:21:48 | 52.54285 | 9.10827 | 337° | 15km/h | 30735m | 6.3m/s | -43.9°C | 0% | 11hPa | 2.6V | 18:12:15 | 01:50:36 | 00:00:00 | |
| DJ2DS-15 | 2026-09-04 05:21:48 | 52.54285 | 9.10827 | 337° | 13km/h | 30735m | 6.2m/s | -43.8°C | 2.3% | 11.0hPa | 2.6V | 00:00:00 | 01:50:36 | 00:00:00 | |
| DO3DL | 2026-09-04 05:21:47 | 52.54285 | 9.10827 | 338° | 15km/h | 30735m | 6.3m/s | -43.9°C | 0.4% | 11.0hPa | 2.7V | 00:00:00 | 00:00:00 | 00:00:00 | |
| DL1XH1-15 | 2026-09-04 05:21:46 | 52.54262 | 9.10827 | 343° | 13km/h | 30691m | 5.5m/s | -43.9°C | 2.4% | 11.1hPa | 2.7V | 08:30:00 | 01:50:29 | 00:00:00 | |
| S3001 | 2026-09-04 05:21:45 | 52.54273 | 9.10826 | 13° | 13km/h | 30710m | 6.6m/s | -43.9°C | 0.4% | 11.1hPa | 2.7V | 00:00:00 | 00:00:00 | 00:00:00 | |
| BIOWL9-15 | 2026-09-04 05:21:44 | 52.54270 | 9.10825 | 2° | 15km/h | 30703m | 7.4m/s | -43.9°C | 0.4% | 11.1hPa | 2.7V | 00:00:00 | 00:00:00 | 00:00:00 | |
| DB0ND-19 | 2026-09-04 05:21:43 | 52.54266 | 9.10826 | 351° | 16km/h | 30697m | 6.0m/s | 0°C | -1.0% | -1.0hPa | 2.7V | 00:00:00 | 00:00:00 | 00:00:00 | |
| DM0DOS-11 | 2026-09-04 05:21:42 | 52.54259 | 9.10828 | 335° | 7km/h | 30685m | 6.5m/s | -43.9°C | 2.4% | 11.1hPa | 2.7V | 08:30:00 | 01:50:28 | 00:00:00 | |
| BIOWL1-15 | 2026-09-04 05:21:42 | 52.54266 | 9.10826 | 352° | 16km/h | 30696m | 6m/s | -43.9°C | 0% | 11.1hPa | 2.6V | 18:12:15 | 01:50:30 | 00:00:00 | |
| DL1XH-west | 2026-09-04 05:21:41 | 52.54262 | 9.10827 | 343° | 13km/h | 30691m | 5.5m/s | -43.9°C | 0% | 11.1hPa | 2.7V | 18:12:15 | 01:50:29 | 00:00:00 | |
| HSKMA3-T | 2026-09-04 05:21:39 | 52.54260 | 9.10831 | 201° | 7km/h | 30671m | 6.1m/s | -43.9°C | 0% | 11.1hPa | 2.6V | 18:12:15 | 01:50:26 | 00:00:00 | |
| DO2SHX-10 | 2026-09-04 05:21:39 | 52.54258 | 9.10830 | 272° | 7km/h | 30678m | 7.6m/s | -43.9°C | 2.4% | 11.1hPa | 2.7V | 00:00:00 | 01:50:27 | 00:00:00 | |
| DD1CC3-15 | 2026-09-04 05:21:38 | 52.54259 | 9.10830 | 273° | 2km/h | 30678m | 7.6m/s | -43.9°C | 0.5% | 11.1hPa | 2.7V | 00:00:00 | 00:00:00 | 00:00:00 | |
| DJ8HS-15 | 2026-09-04 05:21:37 | 52.54261 | 9.10832 | 214° | 15km/h | 30665m | 5.4m/s | -43.8°C | 2.4% | 11.0hPa | 2.7V | 00:00:00 | 01:50:25 | 00:00:00 | |
| DO2JMG | 2026-09-04 05:21:37 | 52.54261 | 9.10832 | 214° | 11km/h | 30665m | 5.5m/s | -43.9°C | 0% | 11.1hPa | 2.7V | 18:12:15 | 01:50:25 | 00:00:00 | |
| DL1XH1-15 | 2026-09-04 05:21:36 | 52.54255 | 9.10863 | 336° | 11km/h | 30628m | 7.3m/s | -43.9°C | 2.4% | 11.2hPa | 2.7V | 08:30:00 | 01:50:19 | 00:00:00 | |
| DL3AQ-11 | 2026-09-04 05:21:36 | 52.54264 | 9.10841 | 266° | 13km/h | 30653m | 7.6m/s | -43.9°C | 0.4% | 11.1hPa | 2.6V | 00:00:00 | 00:00:00 | 00:00:00 | |
| HTAHTA | 2026-09-04 05:21:35 | 52.54264 | 9.10841 | 266° | 13km/h | 30653m | 7.6m/s | -43.9°C | 0.4% | 11.1hPa | 2.6V | 00:00:00 | 00:00:00 | 00:00:00 | |
| DO3MHA-12 | 2026-09-04 05:21:34 | 52.54263 | 9.10847 | 293° | 11km/h | 30646m | 6.4m/s | -43.8°C | 2.4% | 11.1hPa | 2.6V | 00:00:00 | 01:50:22 | 00:00:00 | |
| DO2SHX-10 | 2026-09-04 05:21:33 | 52.54261 | 9.10854 | 307° | 16km/h | 30640m | 5.2m/s | -43.8°C | 2.4% | 11.1hPa | 2.6V | 00:00:00 | 01:50:21 | 00:00:00 | |
| DM0DOS-11 | 2026-09-04 05:21:32 | 52.54253 | 9.10863 | 26° | 7km/h | 30621m | 6.7m/s | -43.9°C | 2.4% | 11.2hPa | 2.6V | 08:30:00 | 01:50:18 | 00:00:00 | |
| DL1NUX | 2026-09-04 05:21:32 | 52.54250 | 9.10855 | 69° | 5km/h | 30603m | 6.3m/s | -43.8°C | 2.3% | 11.2hPa | 2.6V | 08:30:00 | 01:50:15 | 00:00:00 | |
| DL1XH-west | 2026-09-04 05:21:31 | 52.54255 | 9.10863 | 336° | 11km/h | 30628m | 7.3m/s | -43.9°C | 0% | 11.2hPa | 2.7V | 18:12:15 | 01:50:19 | 00:00:00 | |
| AA1-15 | 2026-09-04 05:21:30 | 52.54253 | 9.10863 | 26° | 7km/h | 30621m | 6.7m/s | -43.9°C | 0% | 11.2hPa | 2.6V | 18:12:15 | 01:50:18 | 00:00:00 | |
| HSKMA3-T | 2026-09-04 05:21:29 | 52.54251 | 9.10858 | 75° | 9km/h | 30609m | 5.4m/s | -43.9°C | 0% | 11.2hPa | 2.6V | 18:12:15 | 01:50:16 | 00:00:00 | |
| DO2JMG | 2026-09-04 05:21:28 | 52.54250 | 9.10855 | 70° | 5km/h | 30603m | 6.3m/s | -43.8°C | 0% | 11.2hPa | 2.6V | 18:12:15 | 01:50:15 | 00:00:00 | |
| DL1XH1-15 | 2026-09-04 05:21:28 | 52.54255 | 9.10868 | 245° | 20km/h | 30566m | 5.6m/s | -43.6°C | 2.3% | 11.3hPa | 2.6V | 08:30:00 | 01:50:09 | 00:00:00 | |
| DL4BBY-15 | 2026-09-04 05:21:28 | 52.54251 | 9.10858 | 76° | 13km/h | 30610m | 5.4m/s | -44.8°C | 0% | 0hPa | 2.6V | 00:00:00 | 00:00:00 | 00:00:00 | |
| DO2SHX-10 | 2026-09-04 05:21:27 | 52.54250 | 9.10855 | 70° | 4km/h | 30603m | 6.3m/s | -43.8°C | 2.3% | 11.2hPa | 2.6V | 00:00:00 | 01:50:15 | 08:30:00 | |
| DO3DL | 2026-09-04 05:21:26 | 52.54250 | 9.10855 | 71° | 5km/h | 30603m | 6.3m/s | -43.8°C | 0.4% | 11.2hPa | 2.7V | 00:00:00 | 00:00:00 | 00:00:00 | |
| DB0DAN | 2026-09-04 05:21:25 | 52.54250 | 9.10854 | 255° | 4km/h | 30591m | 5.6m/s | -43.8°C | 0.4% | 11.25hPa | 2.7V | 00:00:00 | 00:00:00 | 00:00:00 | |
| DO3MHA-11 | 2026-09-04 05:21:24 | 52.54250 | 9.10856 | 232° | 16km/h | 30585m | 7.1m/s | -43.7°C | 2.3% | 11.2hPa | 2.7V | 00:00:00 | 01:50:12 | 00:00:00 | |
| DL3AQ-11 | 2026-09-04 05:21:23 | 52.54253 | 9.10862 | 233° | 13km/h | 30571m | 5.1m/s | -43.6°C | 0.4% | 11.3hPa | 2.7V | 00:00:00 | 00:00:00 | 00:00:00 | |
| DM0DOS-11 | 2026-09-04 05:21:22 | 52.54257 | 9.10876 | 255° | 24km/h | 30559m | 8m/s | -43.6°C | 2.3% | 11.3hPa | 2.7V | 08:30:00 | 01:50:08 | 00:00:00 | |
| D01LWL | 2026-09-04 05:21:22 | 52.54253 | 9.10862 | 233° | 13km/h | 30571m | 5.1m/s | -43.6°C | 0.4% | 11.3hPa | 2.7V | 00:00:00 | 00:00:00 | 00:00:00 | |
| DL1XH-15 | 2026-09-04 05:21:21 | 52.54258 | 9.10910 | 262° | 7km/h | 30534m | 7.7m/s | -43.6°C | 2.4% | 11.3hPa | 2.7V | 08:30:00 | 01:50:04 | 00:00:00 | |
| DL1XH-west | 2026-09-04 05:21:21 | 52.54255 | 9.10868 | 246° | 20km/h | 30566m | 5.6m/s | -43.6°C | 0% | 11.3hPa | 2.6V | 18:12:15 | 01:50:09 | 00:00:00 | |
| AA1-15 | 2026-09-04 05:21:20 | 52.54257 | 9.10876 | 256° | 24km/h | 30559m | 8m/s | -43.6°C | 0% | 11.3hPa | 2.7V | 18:12:15 | 01:50:08 | 00:00:00 | |
| HSKMA3-T | 2026-09-04 05:21:17 | 52.54258 | 9.10905 | 271° | 16km/h | 30541m | 5.7m/s | -43.6°C | 0% | 11.3hPa | 2.6V | 18:12:15 | 01:50:05 | 00:00:00 | |
| DO2JMG | 2026-09-04 05:21:16 | 52.54258 | 9.10910 | 262° | 7km/h | 30534m | 7.7m/s | -43.6°C | 0% | 11.3hPa | 2.7V | 18:12:15 | 01:50:04 | 00:00:00 | |
| GOEST3-10 | 2026-09-04 05:21:16 | 52.54258 | 9.10910 | 263° | 5km/h | 30534m | 7.6m/s | -43.6°C | 2.4% | 11.3hPa | 2.7V | 00:00:00 | 01:50:04 | 00:00:00 | |
| DO2SHX-10 | 2026-09-04 05:21:15 | 52.54259 | 9.10910 | 120° | 7km/h | 30527m | 6.1m/s | -43.6°C | 2.3% | 11.3hPa | 2.6V | 00:00:00 | 01:50:03 | 00:00:00 | |
| DO3MHA-11 | 2026-09-04 05:21:14 | 52.54259 | 9.10908 | 104° | 16km/h | 30522m | 4.5m/s | -43.6°C | 2.3% | 11.3hPa | 2.6V | 00:00:00 | 01:50:02 | 08:30:00 | |
| DO3DL | 2026-09-04 05:21:13 | 52.54259 | 9.10908 | 105° | 9km/h | 30522m | 4.6m/s | -43.6°C | 0.4% | 11.4hPa | 2.7V | 00:00:00 | 00:00:00 | 00:00:00 | |
| DM0DOS-11 | 2026-09-04 05:21:12 | 52.54259 | 9.10911 | 270° | 18km/h | 30498m | 5.6m/s | -43.5°C | 2.3% | 11.4hPa | 2.7V | 08:30:00 | 01:49:58 | 00:00:00 | |
| DO2SHX-10 | 2026-09-04 05:21:12 | 52.54260 | 9.10903 | 57° | 9km/h | 30512m | 6.7m/s | -43.6°C | 2.3% | 11.3hPa | 2.7V | 00:00:00 | 01:50:00 | 00:00:00 | |
| DO2KSM | 2026-09-04 05:21:11 | 52.54259 | 9.10903 | 0° | 0km/h | 30512m | 6.8m/s | -43.7°C | 0.4% | 11.4hPa | 2.7V | 00:00:00 | 00:00:00 | 00:00:00 | |
| DL1XH-15 | 2026-09-04 05:21:11 | 52.54265 | 9.10948 | 233° | 20km/h | 30474m | 6.1m/s | -43.6°C | 2.4% | 11.5hPa | 2.6V | 08:30:00 | 01:49:54 | 00:00:00 | |
| DB0DAN | 2026-09-04 05:21:10 | 52.54259 | 9.10911 | 271° | 18km/h | 30499m | 5.6m/s | -43.5°C | 0.4% | 11.42hPa | 2.7V | 00:00:00 | 00:00:00 | 00:00:00 | |
| AA1-15 | 2026-09-04 05:21:10 | 52.54259 | 9.10911 | 271° | 18km/h | 30499m | 5.6m/s | -43.5°C | 0% | 11.4hPa | 2.7V | 18:12:15 | 01:49:58 | 00:00:00 | |
| DF8AY | 2026-09-04 05:21:09 | 52.54259 | 9.10920 | 265° | 24km/h | 30493m | 5.9m/s | -43.5°C | 0% | 11.4hPa | 2.7V | 18:12:15 | 01:49:57 | 00:00:00 | |
| HSKMA3-T | 2026-09-04 05:21:08 | 52.54263 | 9.10940 | 245° | 24km/h | 30480m | 6.4m/s | -43.5°C | 0% | 11.5hPa | 2.6V | 18:12:15 | 01:49:55 | 00:00:00 | |
| DO2JMG | 2026-09-04 05:21:06 | 52.54265 | 9.10948 | 234° | 20km/h | 30474m | 6.1m/s | -43.6°C | 0% | 11.5hPa | 2.6V | 18:12:15 | 01:49:54 | 00:00:00 | |
| SONCRA | 2026-09-04 05:21:06 | 52.54268 | 9.10954 | 229° | 16km/h | 30468m | 5.4m/s | -43.6°C | 0.4% | 11.5hPa | 2.6V | 00:00:00 | 00:00:00 | 00:00:00 | |
| BUE01 | 2026-09-04 05:21:05 | 52.54268 | 9.10954 | 229° | 16km/h | 30468m | 5.4m/s | -43.6°C | 0.4% | 11.5hPa | 2.6V | 00:00:00 | 00:00:00 | 00:00:00 | |
| DO3MHA-11 | 2026-09-04 05:21:04 | 52.54271 | 9.10958 | 238° | 15km/h | 30463m | 6.2m/s | -43.6°C | 2.4% | 11.4hPa | 2.6V | 00:00:00 | 01:49:52 | 00:00:00 | |
| DO2SHX-10 | 2026-09-04 05:21:03 | 52.54271 | 9.10963 | 260° | 11km/h | 30456m | 7.6m/s | -43.5°C | 2.3% | 11.4hPa | 2.6V | 00:00:00 | 01:49:51 | 00:00:00 | |
| EDDB2-11 | 2026-09-04 05:21:02 | 52.54272 | 9.10967 | 269° | 9km/h | 30449m | 6.0m/s | -43.6°C | 0.4% | 11.5hPa | 2.6V | 00:00:00 | 00:00:00 | 00:00:00 | |
| DL1XH-15 | 2026-09-04 05:21:01 | 52.54285 | 9.10992 | 240° | 20km/h | 30411m | 7.2m/s | -43.5°C | 2.3% | 11.5hPa | 2.6V | 08:30:00 | 01:49:44 | 00:00:00 | |
| DL1XH-west | 2026-09-04 05:20:59 | 52.54275 | 9.10978 | 211° | 13km/h | 30430m | 6.4m/s | -43.5°C | 0% | 11.5hPa | 2.7V | 18:12:15 | 01:49:47 | 00:00:00 | |
| DF8AY | 2026-09-04 05:20:58 | 52.54279 | 9.10981 | 215° | 16km/h | 30424m | 5.2m/s | -43.6°C | 0% | 11.5hPa | 2.7V | 18:12:15 | 01:49:46 | 00:00:00 | |
| HSKMA3-T | 2026-09-04 05:20:56 | 52.54285 | 9.10992 | 240° | 22km/h | 30411m | 7.2m/s | -43.5°C | 0% | 11.6hPa | 2.6V | 18:12:15 | 01:49:44 | 00:00:00 | |
| DO2JMG | 2026-09-04 05:20:55 | 52.54287 | 9.11000 | 244° | 22km/h | 30404m | 5.7m/s | -43.5°C | 0% | 11.6hPa | 2.7V | 18:12:15 | 01:49:43 | 00:00:00 | |
| DB0DAN | 2026-09-04 05:20:55 | 52.54287 | 9.11000 | 244° | 22km/h | 30404m | 5.7m/s | -43.5°C | 0.4% | 11.57hPa | 2.7V | 00:00:00 | 00:00:00 | 00:00:00 | |
| DO2SHX-10 | 2026-09-04 05:20:54 | 52.54290 | 9.11008 | 240° | 18km/h | 30399m | 5.1m/s | -43.4°C | 2.3% | 11.5hPa | 2.7V | 00:00:00 | 01:49:42 | 00:00:00 | |
| DJ2KF-10 | 2026-09-04 05:20:53 | 52.54293 | 9.11014 | 230° | 26km/h | 30393m | 7.4m/s | -43.4°C | 2.3% | 11.6hPa | 2.7V | 00:00:00 | 01:49:41 | 00:00:00 | |
| DM0DOS-11 | 2026-09-04 05:20:52 | 52.54301 | 9.11023 | 205° | 5km/h | 30373m | 6.9m/s | -43.6°C | 2.3% | 11.6hPa | 2.7V | 08:30:00 | 01:49:38 | 00:00:00 | |
| DL1XH-15 | 2026-09-04 05:20:51 | 52.54303 | 9.11028 | 202° | 7km/h | 30349m | 7.1m/s | -43.6°C | 2.3% | 11.7hPa | 2.6V | 08:30:00 | 01:49:34 | 00:00:00 | |
| DL1XH-west | 2026-09-04 05:20:49 | 52.54302 | 9.11024 | 259° | 4km/h | 30366m | 7m/s | -43.6°C | 0% | 11.7hPa | 2.7V | 18:12:15 | 01:49:37 | 00:00:00 | |
| BIOWL1-15 | 2026-09-04 05:20:48 | 52.54310 | 9.11033 | 206° | 22km/h | 30337m | 4.8m/s | -43.7°C | 0% | 11.7hPa | 2.7V | 18:12:15 | 01:49:32 | 00:00:00 | |
| AA1-15 | 2026-09-04 05:20:48 | 52.54302 | 9.11026 | 275° | 4km/h | 30360m | 5.4m/s | -43.5°C | 0% | 11.7hPa | 2.7V | 18:12:15 | 01:49:36 | 00:00:00 | |
| HSKMA3-T | 2026-09-04 05:20:47 | 52.54303 | 9.11028 | 203° | 7km/h | 30349m | 7.1m/s | -43.6°C | 0% | 11.7hPa | 2.6V | 18:12:15 | 01:49:34 | 00:00:00 | |
| DL1ZP-14 | 2026-09-04 05:20:47 | 52.54303 | 9.11028 | 202° | 7km/h | 30349m | 7.1m/s | -43.6°C | 0.4% | 11.7hPa | 2.6V | 00:00:00 | 00:00:00 | 00:00:00 | |
| DL1XH1-15 | 2026-09-04 05:20:46 | 52.54325 | 9.11056 | 240° | 33km/h | 30319m | 6.9m/s | -43.6°C | 2.4% | 11.7hPa | 2.6V | 08:30:00 | 01:49:29 | 00:00:00 | |
| DO2JMG | 2026-09-04 05:20:45 | 52.54306 | 9.11030 | 197° | 15km/h | 30342m | 6m/s | -43.6°C | 0% | 11.7hPa | 2.6V | 18:12:15 | 01:49:33 | 00:00:00 | |
| DO2SHX-10 | 2026-09-04 05:20:45 | 52.54306 | 9.11030 | 198° | 22km/h | 30343m | 6.0m/s | -43.6°C | 2.3% | 11.6hPa | 2.7V | 00:00:00 | 01:49:33 | 00:00:00 | |
| DO3MHA-11 | 2026-09-04 05:20:44 | 52.54310 | 9.11032 | 206° | 27km/h | 30337m | 4.7m/s | -43.6°C | 2.3% | 11.7hPa | 2.7V | 00:00:00 | 01:49:32 | 00:00:00 | |
| DL3AQ-11 | 2026-09-04 05:20:43 | 52.54321 | 9.11046 | 227° | 29km/h | 30326m | 7.3m/s | -43.6°C | 0.4% | 11.7hPa | 2.7V | 00:00:00 | 00:00:00 | 00:00:00 | |
| DO2SHX-10 | 2026-09-04 05:20:42 | 52.54321 | 9.11046 | 228° | 31km/h | 30326m | 7.3m/s | -43.6°C | 2.3% | 11.7hPa | 2.7V | 00:00:00 | 01:49:30 | 00:00:00 | |
| DL1XH-15 | 2026-09-04 05:20:41 | 52.54337 | 9.11091 | 139° | 13km/h | 30290m | 6.3m/s | -43.8°C | 2.3% | 11.8hPa | 2.6V | 08:30:00 | 01:49:24 | 00:00:00 | |
| DB0DAN | 2026-09-04 05:20:40 | 52.54329 | 9.11068 | 249° | 31km/h | 30313m | 5m/s | -43.7°C | 0.4% | 11.72hPa | 2.6V | 00:00:00 | 00:00:00 | 00:00:00 | |
| DL1XH-west | 2026-09-04 05:20:38 | 52.54333 | 9.11088 | 243° | 18km/h | 30303m | 5.9m/s | -43.8°C | 0% | 11.8hPa | 2.7V | 18:12:15 | 01:49:26 | 00:00:00 | |
| AA1-15 | 2026-09-04 05:20:37 | 52.54335 | 9.11092 | 205° | 9km/h | 30297m | 7.3m/s | -43.8°C | 0% | 11.8hPa | 2.7V | 18:12:15 | 01:49:25 | 00:00:00 | |
| BIOWL1-15 | 2026-09-04 05:20:35 | 52.54340 | 9.11086 | 124° | 18km/h | 30284m | 5.1m/s | -43.8°C | 0% | 11.8hPa | 2.6V | 18:12:15 | 01:49:23 | 00:00:00 | |
| SONCRA | 2026-09-04 05:20:35 | 52.54342 | 9.11080 | 123° | 16km/h | 30279m | 5.5m/s | -43.8°C | 0.4% | 11.8hPa | 2.6V | 00:00:00 | 00:00:00 | 00:00:00 | |
| DO3MHA-11 | 2026-09-04 05:20:34 | 52.54342 | 9.11080 | 124° | 13km/h | 30279m | 5.5m/s | -43.8°C | 2.3% | 11.8hPa | 2.6V | 00:00:00 | 01:49:22 | 00:00:00 | |
| HTAHTA | 2026-09-04 05:20:33 | 52.54350 | 9.11077 | 218° | 16km/h | 30261m | 6.1m/s | -43.7°C | 0.4% | 11.9hPa | 2.6V | 00:00:00 | 00:00:00 | 00:00:00 | |
| DL3AQ-11 | 2026-09-04 05:20:32 | 52.54350 | 9.11077 | 218° | 16km/h | 30261m | 6.1m/s | -43.7°C | 0.4% | 11.9hPa | 2.6V | 00:00:00 | 00:00:00 | 00:00:00 | |
| DL1XH-15 | 2026-09-04 05:20:31 | 52.54378 | 9.11105 | 193° | 24km/h | 30232m | 4.6m/s | -43.9°C | 2.4% | 11.9hPa | 2.6V | 08:30:00 | 01:49:14 | 00:00:00 | |
| DL1XH-west | 2026-09-04 05:20:27 | 52.54372 | 9.11102 | 200° | 29km/h | 30237m | 4.2m/s | -43.9°C | 0% | 11.9hPa | 2.7V | 18:12:15 | 01:49:15 | 00:00:00 | |
| BIOWL1-15 | 2026-09-04 05:20:26 | 52.54391 | 9.11105 | 150° | 11km/h | 30208m | 4.8m/s | -43.9°C | 0% | 11.9hPa | 2.7V | 18:12:15 | 01:49:10 | 00:00:00 | |
| AA1-15 | 2026-09-04 05:20:26 | 52.54378 | 9.11105 | 193° | 24km/h | 30232m | 4.6m/s | -43.9°C | 0% | 11.9hPa | 2.6V | 18:12:15 | 01:49:14 | 00:00:00 | |
| DO2JMG | 2026-09-04 05:20:24 | 52.54387 | 9.11107 | 179° | 11km/h | 30220m | 7.1m/s | -43.9°C | 0% | 11.9hPa | 2.6V | 18:12:15 | 01:49:12 | 00:00:00 | |
| DO2SHX-10 | 2026-09-04 05:20:23 | 52.54389 | 9.11106 | 158° | 13km/h | 30214m | 5.5m/s | -43.9°C | 2.4% | 11.9hPa | 2.7V | 00:00:00 | 01:49:11 | 00:00:00 | |
| DF7PN | 2026-09-04 05:20:22 | 52.54391 | 9.11105 | 150° | 11km/h | 30208m | 4.8m/s | -43.9°C | 0.4% | 11.9hPa | 2.7V | 00:00:00 | 00:00:00 | 00:00:00 | |
| DL1XH-15 | 2026-09-04 05:20:21 | 52.54433 | 9.11097 | 185° | 37km/h | 30168m | 5.8m/s | -43.9°C | 2.4% | 12hPa | 2.7V | 08:30:00 | 01:49:04 | 00:00:00 | |
| DL1XH-west | 2026-09-04 05:20:17 | 52.54424 | 9.11096 | 183° | 35km/h | 30175m | 6.9m/s | -43.9°C | 0% | 12hPa | 2.7V | 18:12:15 | 01:49:05 | 00:00:00 | |
| DL1XH1-15 | 2026-09-04 05:20:16 | 52.54477 | 9.11094 | 161° | 24km/h | 30139m | 7.5m/s | -43.7°C | 2.4% | 12hPa | 2.7V | 08:30:00 | 01:48:59 | 00:00:00 | |
| AA1-15 | 2026-09-04 05:20:15 | 52.54442 | 9.11099 | 185° | 38km/h | 30163m | 5.9m/s | -43.9°C | 0% | 12hPa | 2.6V | 18:12:15 | 01:49:03 | 00:00:00 | |
| BIOWL1-15 | 2026-09-04 05:20:14 | 52.54452 | 9.11099 | 181° | 40km/h | 30156m | 7.3m/s | -43.8°C | 0% | 12hPa | 2.6V | 18:12:15 | 01:49:02 | 00:00:00 | |
| DO2JMG | 2026-09-04 05:20:13 | 52.54462 | 9.11099 | 175° | 38km/h | 30150m | 5.2m/s | -43.8°C | 0% | 12hPa | 2.6V | 18:12:15 | 01:49:01 | 00:00:00 | |
| DC6BW-12 | 2026-09-04 05:20:12 | 52.54462 | 9.11099 | 176° | 38km/h | 30151m | 5.2m/s | -43.8°C | 0.5% | 12.0hPa | 2.7V | 00:00:00 | 00:00:00 | 00:00:00 | |
| DL1XH-15 | 2026-09-04 05:20:11 | 52.54495 | 9.11076 | 157° | 26km/h | 30108m | 7.3m/s | -43.6°C | 2.4% | 12.1hPa | 2.7V | 08:30:00 | 01:48:54 | 00:00:00 | |
| DB0DAN | 2026-09-04 05:20:10 | 52.54482 | 9.11091 | 149° | 15km/h | 30131m | 7.9m/s | -43.7°C | 0.4% | 12.07hPa | 2.7V | 00:00:00 | 00:00:00 | 00:00:00 | |
| DL1XH-west | 2026-09-04 05:20:06 | 52.54495 | 9.11076 | 158° | 26km/h | 30108m | 7.3m/s | -43.6°C | 0% | 12.1hPa | 2.7V | 18:12:15 | 01:48:54 | 00:00:00 | |
| DF8AY | 2026-09-04 05:20:05 | 52.54502 | 9.11072 | 165° | 37km/h | 30101m | 6.3m/s | -43.6°C | 0% | 12.1hPa | 2.7V | 18:12:15 | 01:48:53 | 00:00:00 | |
| AA1-15 | 2026-09-04 05:20:04 | 52.54512 | 9.11068 | 169° | 44km/h | 30094m | 6.4m/s | -43.6°C | 0% | 12.1hPa | 2.6V | 18:12:15 | 01:48:52 | 00:00:00 | |
| BIOWL1-15 | 2026-09-04 05:20:03 | 52.54523 | 9.11065 | 171° | 46km/h | 30088m | 6m/s | -43.6°C | 0% | 12.2hPa | 2.6V | 18:12:15 | 01:48:51 | 00:00:00 | |
| DL3AQ-11 | 2026-09-04 05:20:03 | 52.54534 | 9.11062 | 172° | 40km/h | 30082m | 6.3m/s | -43.6°C | 0.4% | 12.2hPa | 2.7V | 00:00:00 | 00:00:00 | 00:00:00 | |
| DO2SHX-10 | 2026-09-04 05:20:02 | 52.54534 | 9.11062 | 173° | 33km/h | 30083m | 6.3m/s | -43.5°C | 2.4% | 12.1hPa | 2.7V | 00:00:00 | 01:48:50 | 00:00:00 | |
| DL1XH-15 | 2026-09-04 05:20:01 | 52.54572 | 9.11035 | 143° | 29km/h | 30045m | 5.3m/s | -43.6°C | 2.3% | 12.2hPa | 2.7V | 08:30:00 | 01:48:44 | 00:00:00 | |
| DL1XH-west | 2026-09-04 05:19:56 | 52.54571 | 9.11035 | 143° | 29km/h | 30045m | 5.3m/s | -43.6°C | 0% | 12.2hPa | 2.7V | 18:12:15 | 01:48:44 | 00:00:00 | |
| DB0DAN | 2026-09-04 05:19:55 | 52.54577 | 9.11028 | 148° | 27km/h | 30039m | 6m/s | -43.6°C | 0.4% | 12.25hPa | 2.7V | 00:00:00 | 00:00:00 | 00:00:00 | |
| DF8AY | 2026-09-04 05:19:54 | 52.54584 | 9.11022 | 154° | 27km/h | 30032m | 7.6m/s | -43.6°C | 0% | 12.2hPa | 2.6V | 18:12:15 | 01:48:42 | 00:00:00 | |
| BIOWL1-15 | 2026-09-04 05:19:54 | 52.54598 | 9.11014 | 164° | 37km/h | 30020m | 5.6m/s | -43.6°C | 0% | 12.3hPa | 2.6V | 18:12:15 | 01:48:40 | 00:00:00 | |
| DO2JMG | 2026-09-04 05:19:53 | 52.54590 | 9.11018 | 162° | 31km/h | 30026m | 5.4m/s | -43.6°C | 0% | 12.2hPa | 2.6V | 18:12:15 | 01:48:41 | 00:00:00 | |
| DO2SHX-10 | 2026-09-04 05:19:52 | 52.54598 | 9.11014 | 165° | 42km/h | 30021m | 5.5m/s | -43.6°C | 2.3% | 12.2hPa | 2.6V | 00:00:00 | 01:48:40 | 00:00:00 | |
| DL1XH-15 | 2026-09-04 05:19:51 | 52.54653 | 9.10979 | 139° | 22km/h | 29983m | 6m/s | -43.4°C | 2.3% | 12.3hPa | 2.6V | 08:30:00 | 01:48:34 | 00:00:00 | |
| DM0DOS-11 | 2026-09-04 05:19:51 | 52.54619 | 9.11004 | 162° | 47km/h | 30007m | 6m/s | -43.5°C | 2.4% | 12.3hPa | 2.7V | 08:30:00 | 01:48:38 | 00:00:00 | |
| DL1XH-west | 2026-09-04 05:19:45 | 52.54657 | 9.10973 | 129° | 18km/h | 29978m | 5m/s | -43.4°C | 0% | 12.3hPa | 2.7V | 18:12:15 | 01:48:33 | 00:00:00 | |
| HSKMA3-T | 2026-09-04 05:19:44 | 52.54663 | 9.10961 | 136° | 22km/h | 29966m | 6.9m/s | -43.3°C | 0% | 12.4hPa | 2.7V | 18:12:15 | 01:48:31 | 00:00:00 | |
| DF8AY | 2026-09-04 05:19:44 | 52.54659 | 9.10967 | 127° | 18km/h | 29973m | 5.6m/s | -43.4°C | 0% | 12.4hPa | 2.7V | 18:12:15 | 01:48:32 | 00:00:00 | |
| DO2JMG | 2026-09-04 05:19:42 | 52.54668 | 9.10955 | 149° | 27km/h | 29960m | 6.1m/s | -43.3°C | 0% | 12.4hPa | 2.6V | 18:12:15 | 01:48:30 | 00:00:00 | |
| DM0DOS-11 | 2026-09-04 05:19:41 | 52.54683 | 9.10944 | 163° | 38km/h | 29947m | 6.2m/s | -43.3°C | 2.3% | 12.4hPa | 2.6V | 08:30:00 | 01:48:28 | 00:00:00 | |
| DL1XH-west | 2026-09-04 05:19:35 | 52.54722 | 9.10929 | 152° | 29km/h | 29917m | 7.2m/s | -43.2°C | 0% | 12.5hPa | 2.6V | 18:12:15 | 01:48:23 | 00:00:00 | |
| DF8AY | 2026-09-04 05:19:33 | 52.54734 | 9.10913 | 132° | 29km/h | 29904m | 5.2m/s | -43.3°C | 0% | 12.5hPa | 2.7V | 18:12:15 | 01:48:21 | 00:00:00 | |
| AA1-15 | 2026-09-04 05:19:32 | 52.54738 | 9.10905 | 127° | 26km/h | 29898m | 7.2m/s | -43.3°C | 0% | 12.5hPa | 2.7V | 18:12:15 | 01:48:20 | 00:00:00 | |
| BIOWL1-15 | 2026-09-04 05:19:31 | 52.54747 | 9.10884 | 132° | 20km/h | 29879m | 5.9m/s | -43.4°C | 0% | 12.6hPa | 2.6V | 18:12:15 | 01:48:17 | 00:00:00 | |
| DM0DOS-11 | 2026-09-04 05:19:31 | 52.54744 | 9.10890 | 123° | 18km/h | 29884m | 5.7m/s | -43.3°C | 2.3% | 12.5hPa | 2.6V | 08:30:00 | 01:48:18 | 00:00:00 | |
| DO2JMG | 2026-09-04 05:19:31 | 52.54741 | 9.10897 | 123° | 20km/h | 29891m | 7.1m/s | -43.2°C | 0% | 12.5hPa | 2.6V | 18:12:15 | 01:48:19 | 00:00:00 | |
| DO2SHX-10 | 2026-09-04 05:19:31 | 52.54741 | 9.10897 | 123° | 20km/h | 29891m | 7.1m/s | -43.2°C | 2.3% | 12.5hPa | 2.6V | 00:00:00 | 01:48:19 | 00:00:00 | |
| DC6BW-12 | 2026-09-04 05:19:30 | 52.54741 | 9.10897 | 124° | 20km/h | 29891m | 7.1m/s | -43.2°C | 0.4% | 12.5hPa | 2.6V | 00:00:00 | 00:00:00 | 00:00:00 | |
| DD8BA-10 | 2026-09-04 05:19:29 | 52.54747 | 9.10884 | 133° | 24km/h | 29879m | 5.8m/s | -43.3°C | 2.3% | 12.5hPa | 2.6V | 00:00:00 | 00:00:00 | 08:30:00 | |
| DJ2DS-15 | 2026-09-04 05:19:28 | 52.54751 | 9.10878 | 140° | 22km/h | 29872m | 7.5m/s | -43.4°C | 2.3% | 12.5hPa | 2.7V | 00:00:00 | 01:48:16 | 00:00:00 | |
| DD1CC8 | 2026-09-04 05:19:27 | 52.54756 | 9.10872 | 145° | 26km/h | 29865m | 6.0m/s | -43.4°C | 0.4% | 12.6hPa | 2.7V | 00:00:00 | 00:00:00 | 00:00:00 | |
| DL1XH1-15 | 2026-09-04 05:19:26 | 52.54784 | 9.10840 | 128° | 26km/h | 29828m | 7.1m/s | -43.6°C | 2.3% | 12.6hPa | 2.7V | 08:30:00 | 01:48:09 | 00:00:00 | |
| DL1XH-west | 2026-09-04 05:19:25 | 52.54767 | 9.10861 | 153° | 24km/h | 29853m | 7m/s | -43.4°C | 0% | 12.6hPa | 2.6V | 18:12:15 | 01:48:13 | 00:00:00 | |
| DF8AY | 2026-09-04 05:19:24 | 52.54776 | 9.10852 | 145° | 18km/h | 29841m | 5.5m/s | -43.6°C | 0% | 12.6hPa | 2.6V | 18:12:15 | 01:48:11 | 00:00:00 | |
| AA1-15 | 2026-09-04 05:19:22 | 52.54780 | 9.10847 | 136° | 20km/h | 29835m | 6.3m/s | -43.6°C | 0% | 12.6hPa | 2.7V | 18:12:15 | 01:48:10 | 00:00:00 | |
| BIOWL1-15 | 2026-09-04 05:19:21 | 52.54784 | 9.10840 | 129° | 26km/h | 29828m | 7.1m/s | -43.6°C | 0% | 12.7hPa | 2.7V | 18:12:15 | 01:48:09 | 00:00:00 | |
| DO2JMG | 2026-09-04 05:19:20 | 52.54788 | 9.10831 | 123° | 29km/h | 29822m | 5.6m/s | -43.6°C | 0% | 12.7hPa | 2.6V | 18:12:15 | 01:48:08 | 00:00:00 | |
| DF8AY-15 | 2026-09-04 05:19:20 | 52.54788 | 9.10831 | 124° | 18km/h | 29822m | 5.6m/s | -43.6°C | 2.3% | 12.6hPa | 2.6V | 00:00:00 | 01:48:08 | 00:00:00 | |
| DO2SHX-10 | 2026-09-04 05:19:19 | 52.54792 | 9.10821 | 119° | 24km/h | 29817m | 4.8m/s | -43.6°C | 2.3% | 12.6hPa | 2.6V | 00:00:00 | 01:48:07 | 00:00:00 | |
| D01LWL | 2026-09-04 05:19:18 | 52.54795 | 9.10812 | 114° | 24km/h | 29811m | 5.9m/s | -43.7°C | 0.4% | 12.7hPa | 2.6V | 00:00:00 | 00:00:00 | 00:00:00 | |
| DL4XJ-10 | 2026-09-04 05:19:17 | 52.54797 | 9.10803 | 111° | 18km/h | 29805m | 7.4m/s | -44.7°C | 0% | 0hPa | 2.6V | 00:00:00 | 00:00:00 | 00:00:00 | |
| DL1XH1-15 | 2026-09-04 05:19:16 | 52.54818 | 9.10780 | 155° | 29km/h | 29767m | 4.8m/s | -44°C | 2.4% | 12.8hPa | 2.6V | 08:30:00 | 01:47:59 | 00:00:00 | |
| DL1XH-west | 2026-09-04 05:19:15 | 52.54799 | 9.10794 | 135° | 9km/h | 29792m | 5.6m/s | -43.8°C | 0% | 12.7hPa | 2.6V | 18:12:15 | 01:48:03 | 00:00:00 | |
| AA1-15 | 2026-09-04 05:19:12 | 52.54811 | 9.10785 | 157° | 27km/h | 29773m | 6.1m/s | -44°C | 0% | 12.8hPa | 2.7V | 18:12:15 | 01:48:00 | 00:00:00 | |
| DM0DOS-11 | 2026-09-04 05:19:11 | 52.54824 | 9.10775 | 154° | 27km/h | 29762m | 5.9m/s | -44°C | 2.4% | 12.7hPa | 2.6V | 08:30:00 | 01:47:58 | 00:00:00 | |
| DB0DAN | 2026-09-04 05:19:10 | 52.54824 | 9.10775 | 155° | 26km/h | 29762m | 5.9m/s | -44°C | 0.4% | 12.75hPa | 2.6V | 00:00:00 | 00:00:00 | 00:00:00 | |
| DO2JMG | 2026-09-04 05:19:10 | 52.54824 | 9.10775 | 155° | 27km/h | 29762m | 5.9m/s | -44°C | 0% | 12.8hPa | 2.6V | 18:12:15 | 01:47:58 | 00:00:00 | |
| DO9LL-15 | 2026-09-04 05:19:10 | 52.54824 | 9.10775 | 155° | 18km/h | 29762m | 5.9m/s | -44.0°C | 2.4% | 12.7hPa | 2.6V | 00:00:00 | 01:47:58 | 08:30:00 | |
| DD8BA-10 | 2026-09-04 05:19:09 | 52.54830 | 9.10771 | 154° | 18km/h | 29756m | 6.9m/s | -43.9°C | 2.4% | 12.7hPa | 2.6V | 00:00:00 | 00:00:00 | 00:00:00 | |
| DJ2DS-15 | 2026-09-04 05:19:08 | 52.54834 | 9.10767 | 143° | 18km/h | 29749m | 6.0m/s | -44.0°C | 2.3% | 12.8hPa | 2.6V | 00:00:00 | 01:47:56 | 00:00:00 | |
| DO2SHX-10 | 2026-09-04 05:19:07 | 52.54836 | 9.10762 | 123° | 16km/h | 29743m | 5.8m/s | -44.0°C | 2.3% | 12.8hPa | 2.6V | 00:00:00 | 01:47:55 | 00:00:00 | |
| DL1XH1-15 | 2026-09-04 05:19:06 | 52.54840 | 9.10716 | 85° | 15km/h | 29703m | 6.5m/s | -44.1°C | 2.4% | 12.9hPa | 2.6V | 08:30:00 | 01:47:49 | 00:00:00 | |
| DL1XH-west | 2026-09-04 05:19:04 | 52.54840 | 9.10741 | 98° | 24km/h | 29723m | 5.8m/s | -44.1°C | 0% | 12.8hPa | 2.6V | 18:12:15 | 01:47:52 | 00:00:00 | |
| DF8AY | 2026-09-04 05:19:02 | 52.54840 | 9.10723 | 88° | 18km/h | 29711m | 7.5m/s | -44.1°C | 0% | 12.9hPa | 2.7V | 18:12:15 | 01:47:50 | 00:00:00 | |
| DL1XH-15 | 2026-09-04 05:19:01 | 52.54851 | 9.10686 | 137° | 22km/h | 29672m | 5.6m/s | -44.4°C | 2.4% | 12.9hPa | 2.7V | 08:30:00 | 01:47:44 | 00:00:00 | |
| DM0DOS-11 | 2026-09-04 05:19:01 | 52.54840 | 9.10711 | 96° | 13km/h | 29698m | 4.7m/s | -44.2°C | 2.4% | 12.9hPa | 2.6V | 08:30:00 | 01:47:48 | 00:00:00 | |
| AA1-15 | 2026-09-04 05:19:01 | 52.54840 | 9.10716 | 86° | 15km/h | 29703m | 6.5m/s | -44.2°C | 0% | 12.9hPa | 2.6V | 18:12:15 | 01:47:49 | 00:00:00 | |
| BIOWL1-15 | 2026-09-04 05:19:00 | 52.54840 | 9.10711 | 97° | 13km/h | 29698m | 4.7m/s | -44.2°C | 0% | 12.9hPa | 2.6V | 18:12:15 | 01:47:48 | 00:00:00 | |
| DO2JMG | 2026-09-04 05:18:59 | 52.54841 | 9.10705 | 115° | 15km/h | 29692m | 6.7m/s | -44.2°C | 0% | 12.9hPa | 2.6V | 18:12:15 | 01:47:47 | 00:00:00 | |
| EDDB2-11 | 2026-09-04 05:18:58 | 52.54847 | 9.10693 | 133° | 22km/h | 29678m | 6.4m/s | -44.3°C | 0.4% | 12.9hPa | 2.6V | 00:00:00 | 00:00:00 | 00:00:00 | |
| DD1CC8 | 2026-09-04 05:18:56 | 52.54851 | 9.10686 | 137° | 20km/h | 29672m | 5.6m/s | -44.4°C | 0.4% | 12.9hPa | 2.6V | 00:00:00 | 00:00:00 | 00:00:00 | |
| DL1XH1-15 | 2026-09-04 05:18:56 | 52.54864 | 9.10662 | 114° | 20km/h | 29639m | 7m/s | -44.4°C | 2.4% | 13hPa | 2.7V | 08:30:00 | 01:47:39 | 00:00:00 | |
| DB0DAN | 2026-09-04 05:18:55 | 52.54854 | 9.10681 | 139° | 16km/h | 29665m | 7.7m/s | -44.4°C | 0.4% | 12.97hPa | 2.6V | 00:00:00 | 00:00:00 | 00:00:00 | |
| DL1XH-west | 2026-09-04 05:18:53 | 52.54859 | 9.10673 | 131° | 13km/h | 29652m | 5.1m/s | -44.4°C | 0% | 13hPa | 2.6V | 18:12:15 | 01:47:41 | 00:00:00 | |
| DO3MHA-11 | 2026-09-04 05:18:53 | 52.54859 | 9.10673 | 131° | 18km/h | 29652m | 5.0m/s | -44.3°C | 2.4% | 13.0hPa | 2.7V | 00:00:00 | 01:47:41 | 00:00:00 | |
| DO2SHX-10 | 2026-09-04 05:18:52 | 52.54862 | 9.10668 | 124° | 18km/h | 29646m | 7.3m/s | -44.4°C | 2.4% | 12.9hPa | 2.7V | 00:00:00 | 01:47:40 | 00:00:00 | |
| DM0DOS-11 | 2026-09-04 05:18:51 | 52.54865 | 9.10654 | 102° | 20km/h | 29632m | 5.9m/s | -44.4°C | 2.4% | 13hPa | 2.6V | 08:30:00 | 01:47:38 | 00:00:00 | |
| DF8AY | 2026-09-04 05:18:51 | 52.54864 | 9.10662 | 115° | 20km/h | 29639m | 7m/s | -44.4°C | 0% | 13hPa | 2.7V | 18:12:15 | 01:47:39 | 00:00:00 | |
| BIOWL1-15 | 2026-09-04 05:18:50 | 52.54865 | 9.10654 | 103° | 22km/h | 29632m | 5.9m/s | -44.4°C | 0% | 13hPa | 2.6V | 18:12:15 | 01:47:38 | 00:00:00 | |
| HSKMA3-T | 2026-09-04 05:18:49 | 52.54866 | 9.10646 | 91° | 20km/h | 29626m | 7m/s | -44.5°C | 0% | 13hPa | 2.6V | 18:12:15 | 01:47:37 | 00:00:00 | |
| DO2JMG | 2026-09-04 05:18:48 | 52.54865 | 9.10638 | 78° | 18km/h | 29619m | 7.4m/s | -44.5°C | 0% | 13.1hPa | 2.7V | 18:12:15 | 01:47:36 | 00:00:00 | |
| D01LWL | 2026-09-04 05:18:47 | 52.54863 | 9.10623 | 82° | 16km/h | 29607m | 5.5m/s | -44.6°C | 0.5% | 13.0hPa | 2.7V | 00:00:00 | 00:00:00 | 00:00:00 | |
| DL1XH1-15 | 2026-09-04 05:18:46 | 52.54875 | 9.10590 | 149° | 15km/h | 29574m | 7.8m/s | -44.7°C | 2.4% | 13.1hPa | 2.7V | 08:30:00 | 01:47:29 | 00:00:00 | |
| DO1YAY-16 | 2026-09-04 05:18:46 | 52.54863 | 9.10623 | 82° | 16km/h | 29607m | 5.5m/s | -44.6°C | 0.5% | 13.0hPa | 2.7V | 00:00:00 | 00:00:00 | 00:00:00 | |
| DL1XH-west | 2026-09-04 05:18:43 | 52.54868 | 9.10601 | 129° | 22km/h | 29587m | 6m/s | -44.6°C | 0% | 13.1hPa | 2.7V | 18:12:15 | 01:47:31 | 00:00:00 | |
| DO3MHA-11 | 2026-09-04 05:18:43 | 52.54868 | 9.10601 | 130° | 15km/h | 29587m | 5.9m/s | -44.6°C | 2.4% | 13.1hPa | 2.6V | 00:00:00 | 01:47:31 | 00:00:00 | |
| BIOWL7-15 | 2026-09-04 05:18:42 | 52.54868 | 9.10601 | 130° | 22km/h | 29587m | 6.0m/s | -44.6°C | 0.4% | 13.1hPa | 2.6V | 00:00:00 | 00:00:00 | 00:00:00 | |
| DM0DOS-11 | 2026-09-04 05:18:41 | 52.54878 | 9.10588 | 167° | 11km/h | 29567m | 6.4m/s | -44.6°C | 2.4% | 13.2hPa | 2.6V | 08:30:00 | 01:47:28 | 00:00:00 | |
| DF8AY | 2026-09-04 05:18:41 | 52.54875 | 9.10590 | 149° | 15km/h | 29574m | 7.8m/s | -44.7°C | 0% | 13.2hPa | 2.7V | 18:12:15 | 01:47:29 | 00:00:00 | |
| DB0DAN | 2026-09-04 05:18:40 | 52.54878 | 9.10588 | 167° | 9km/h | 29567m | 6.4m/s | -44.6°C | 0.4% | 13.16hPa | 2.6V | 00:00:00 | 00:00:00 | 00:00:00 | |
| AA1-15 | 2026-09-04 05:18:39 | 52.54880 | 9.10587 | 176° | 9km/h | 29560m | 6m/s | -44.6°C | 0% | 13.2hPa | 2.6V | 18:12:15 | 01:47:27 | 00:00:00 | |
| DO2JMG | 2026-09-04 05:18:38 | 52.54882 | 9.10587 | 167° | 9km/h | 29554m | 6.6m/s | -44.6°C | 0% | 13.2hPa | 2.6V | 18:12:15 | 01:47:26 | 00:00:00 | |
| DD8BA-10 | 2026-09-04 05:18:38 | 52.54882 | 9.10587 | 167° | 18km/h | 29555m | 6.6m/s | -44.6°C | 2.4% | 13.2hPa | 2.6V | 00:00:00 | 00:00:00 | 00:00:00 | |
| DL4XJ-10 | 2026-09-04 05:18:37 | 52.54885 | 9.10585 | 155° | 20km/h | 29548m | 7.1m/s | -45.6°C | 0% | 0hPa | 2.6V | 00:00:00 | 00:00:00 | 00:00:00 | |
| DL1XH1-15 | 2026-09-04 05:18:36 | 52.54899 | 9.10550 | 104° | 20km/h | 29508m | 6.5m/s | -44.9°C | 2.4% | 13.3hPa | 2.6V | 08:30:00 | 01:47:19 | 00:00:00 | |
| DL1XH-west | 2026-09-04 05:18:32 | 52.54898 | 9.10558 | 100° | 18km/h | 29514m | 5.6m/s | -44.9°C | 0% | 13.2hPa | 2.7V | 18:12:15 | 01:47:20 | 00:00:00 | |
| DO3MHA-11 | 2026-09-04 05:18:32 | 52.54898 | 9.10558 | 101° | 18km/h | 29515m | 5.6m/s | -44.9°C | 2.4% | 13.2hPa | 2.7V | 00:00:00 | 01:47:20 | 00:00:00 | |
| DM0DOS-11 | 2026-09-04 05:18:31 | 52.54901 | 9.10541 | 113° | 24km/h | 29501m | 8m/s | -44.9°C | 2.5% | 13.3hPa | 2.6V | 08:30:00 | 01:47:18 | 00:00:00 | |
| DL1XH-15 | 2026-09-04 05:18:31 | 52.54913 | 9.10513 | 146° | 15km/h | 29475m | 6.8m/s | -45°C | 2.4% | 13.3hPa | 2.6V | 08:30:00 | 01:47:14 | 00:00:00 | |
| DF8AY | 2026-09-04 05:18:30 | 52.54901 | 9.10541 | 114° | 24km/h | 29501m | 8m/s | -45°C | 0% | 13.3hPa | 2.6V | 18:12:15 | 01:47:18 | 00:00:00 | |
| BIOWL1-15 | 2026-09-04 05:18:28 | 52.54907 | 9.10524 | 127° | 24km/h | 29488m | 5.1m/s | -45°C | 0% | 13.3hPa | 2.7V | 18:12:15 | 01:47:16 | 00:00:00 | |
| DO2JMG | 2026-09-04 05:18:27 | 52.54910 | 9.10517 | 132° | 18km/h | 29482m | 7.4m/s | -45°C | 0% | 13.3hPa | 2.7V | 18:12:15 | 01:47:15 | 00:00:00 | |
| EDDB2-11 | 2026-09-04 05:18:27 | 52.54913 | 9.10513 | 146° | 13km/h | 29475m | 6.8m/s | -45.0°C | 0.4% | 13.4hPa | 2.7V | 00:00:00 | 00:00:00 | 00:00:00 | |
| DL1XH1-15 | 2026-09-04 05:18:26 | 52.54936 | 9.10501 | 150° | 24km/h | 29442m | 6m/s | -45.4°C | 2.4% | 13.4hPa | 2.7V | 08:30:00 | 01:47:09 | 00:00:00 | |
| GOEST3-10 | 2026-09-04 05:18:26 | 52.54913 | 9.10513 | 147° | 18km/h | 29475m | 6.7m/s | -44.9°C | 2.4% | 13.3hPa | 2.7V | 00:00:00 | 01:47:14 | 00:00:00 | |
| DD1CC8 | 2026-09-04 05:18:25 | 52.54920 | 9.10509 | 170° | 16km/h | 29463m | 6.6m/s | -45.1°C | 0.5% | 13.4hPa | 2.7V | 00:00:00 | 00:00:00 | 00:00:00 | |
| DJ8HS-15 | 2026-09-04 05:18:24 | 52.54920 | 9.10509 | 171° | 26km/h | 29463m | 6.6m/s | -45.1°C | 2.4% | 13.3hPa | 2.7V | 00:00:00 | 01:47:12 | 00:00:00 | |
| DL1NUX | 2026-09-04 05:18:22 | 52.54950 | 9.10473 | 114° | 24km/h | 29416m | 6.3m/s | -45.8°C | 2.6% | 13.4hPa | 2.7V | 08:30:00 | 01:47:05 | 00:00:00 | |
| DL1XH-west | 2026-09-04 05:18:22 | 52.54931 | 9.10505 | 159° | 24km/h | 29449m | 6.1m/s | -45.3°C | 0% | 13.4hPa | 2.7V | 18:12:15 | 01:47:10 | 00:00:00 | |
| DO3MHA-11 | 2026-09-04 05:18:22 | 52.54931 | 9.10505 | 159° | 24km/h | 29449m | 6.1m/s | -45.3°C | 2.4% | 13.3hPa | 2.6V | 00:00:00 | 01:47:10 | 00:00:00 | |
| DL1XH-15 | 2026-09-04 05:18:21 | 52.54953 | 9.10464 | 120° | 27km/h | 29410m | 6.9m/s | -45.8°C | 2.6% | 13.5hPa | 2.6V | 08:30:00 | 01:47:04 | 00:00:00 | |
| DM0DOS-11 | 2026-09-04 05:18:21 | 52.54941 | 9.10495 | 141° | 22km/h | 29435m | 7.7m/s | -45.5°C | 2.4% | 13.4hPa | 2.6V | 08:30:00 | 01:47:08 | 00:00:00 | |
| DF8AY | 2026-09-04 05:18:20 | 52.54941 | 9.10495 | 142° | 22km/h | 29435m | 7.7m/s | -45.5°C | 0% | 13.4hPa | 2.6V | 18:12:15 | 01:47:08 | 00:00:00 | |
| AA1-15 | 2026-09-04 05:18:18 | 52.54948 | 9.10481 | 115° | 22km/h | 29422m | 5.5m/s | -45.7°C | 0% | 13.5hPa | 2.7V | 18:12:15 | 01:47:06 | 00:00:00 | |
| DO2JMG | 2026-09-04 05:18:17 | 52.54950 | 9.10473 | 114° | 24km/h | 29416m | 6.3m/s | -45.8°C | 0% | 13.4hPa | 2.7V | 18:12:15 | 01:47:05 | 00:00:00 | |
| DL4XJ-10 | 2026-09-04 05:18:17 | 52.54950 | 9.10473 | 115° | 29km/h | 29417m | 6.3m/s | -46.7°C | 0% | 0hPa | 2.7V | 00:00:00 | 00:00:00 | 00:00:00 | |
| DL1XH1-15 | 2026-09-04 05:18:16 | 52.54977 | 9.10428 | 158° | 18km/h | 29378m | 7.3m/s | -45.9°C | 2.6% | 13.5hPa | 2.7V | 08:30:00 | 01:46:59 | 00:00:00 | |
| DL1XH-west | 2026-09-04 05:18:12 | 52.54972 | 9.10432 | 149° | 22km/h | 29385m | 7.2m/s | -45.8°C | 0% | 13.5hPa | 2.7V | 18:12:15 | 01:47:00 | 00:00:00 | |
| DO3MHA-11 | 2026-09-04 05:18:12 | 52.54972 | 9.10432 | 149° | 27km/h | 29385m | 7.1m/s | -45.8°C | 2.6% | 13.5hPa | 2.7V | 00:00:00 | 01:47:00 | 00:00:00 | |
| DL1XH-15 | 2026-09-04 05:18:11 | 52.55008 | 9.10415 | 155° | 37km/h | 29346m | 5.3m/s | -46°C | 2.7% | 13.6hPa | 2.7V | 08:30:00 | 01:46:54 | 00:00:00 | |
| DM0DOS-11 | 2026-09-04 05:18:11 | 52.54981 | 9.10426 | 170° | 18km/h | 29371m | 5.9m/s | -45.9°C | 2.6% | 13.6hPa | 2.6V | 08:30:00 | 01:46:58 | 00:00:00 | |
| DB0DAN | 2026-09-04 05:18:10 | 52.54981 | 9.10426 | 171° | 16km/h | 29371m | 5.9m/s | -45.9°C | 0.5% | 13.56hPa | 2.6V | 00:00:00 | 00:00:00 | 00:00:00 | |
| DF8AY | 2026-09-04 05:18:09 | 52.54986 | 9.10425 | 175° | 22km/h | 29365m | 6.4m/s | -45.9°C | 0% | 13.6hPa | 2.6V | 18:12:15 | 01:46:57 | 00:00:00 | |
| AA1-15 | 2026-09-04 05:18:08 | 52.54992 | 9.10423 | 170° | 27km/h | 29358m | 7.1m/s | -45.9°C | 0% | 13.6hPa | 2.6V | 18:12:15 | 01:46:56 | 00:00:00 | |
| BIOWL1-15 | 2026-09-04 05:18:07 | 52.54999 | 9.10420 | 163° | 33km/h | 29352m | 6.1m/s | -46°C | 0% | 13.6hPa | 2.7V | 18:12:15 | 01:46:55 | 00:00:00 | |
| DL1XH-west | 2026-09-04 05:18:02 | 52.55032 | 9.10380 | 122° | 29km/h | 29320m | 6m/s | -45.9°C | 0% | 13.7hPa | 2.7V | 18:12:15 | 01:46:50 | 00:00:00 | |
| DO3MHA-11 | 2026-09-04 05:18:02 | 52.55032 | 9.10380 | 123° | 29km/h | 29320m | 6.0m/s | -45.8°C | 2.5% | 13.6hPa | 2.7V | 00:00:00 | 01:46:50 | 08:30:00 | |
| DL1XH-15 | 2026-09-04 05:18:01 | 52.55067 | 9.10336 | 164° | 22km/h | 29279m | 6.9m/s | -45.8°C | 2.6% | 13.7hPa | 2.7V | 08:30:00 | 01:46:44 | 00:00:00 | |
| DM0DOS-11 | 2026-09-04 05:18:01 | 52.55042 | 9.10360 | 134° | 33km/h | 29306m | 7.2m/s | -45.9°C | 2.5% | 13.7hPa | 2.6V | 08:30:00 | 01:46:48 | 00:00:00 | |
| DF8AY | 2026-09-04 05:17:59 | 52.55048 | 9.10351 | 145° | 33km/h | 29299m | 6m/s | -45.9°C | 0% | 13.7hPa | 2.6V | 18:12:15 | 01:46:47 | 00:00:00 | |
| DO2JMG | 2026-09-04 05:17:57 | 52.55061 | 9.10339 | 159° | 26km/h | 29287m | 7.9m/s | -45.9°C | 0% | 13.8hPa | 2.7V | 18:12:15 | 01:46:45 | 00:00:00 | |
| BIOWL1-15 | 2026-09-04 05:17:56 | 52.55067 | 9.10336 | 165° | 22km/h | 29279m | 6.9m/s | -45.8°C | 0% | 13.7hPa | 2.7V | 18:12:15 | 01:46:44 | 00:00:00 | |
| EDDB2-11 | 2026-09-04 05:17:56 | 52.55072 | 9.10334 | 164° | 22km/h | 29273m | 5.3m/s | -45.8°C | 0.5% | 13.8hPa | 2.6V | 00:00:00 | 00:00:00 | 00:00:00 | |
| DB0DAN | 2026-09-04 05:17:55 | 52.55072 | 9.10334 | 164° | 22km/h | 29273m | 5.3m/s | -45.8°C | 0.5% | 13.76hPa | 2.6V | 00:00:00 | 00:00:00 | 00:00:00 | |
| DL1XH-west | 2026-09-04 05:17:52 | 52.55093 | 9.10316 | 140° | 38km/h | 29254m | 6.2m/s | -45.8°C | 0% | 13.8hPa | 2.7V | 18:12:15 | 01:46:40 | 00:00:00 | |
| DO2SHX-10 | 2026-09-04 05:17:52 | 52.55092 | 9.10316 | 140° | 40km/h | 29254m | 6.2m/s | -45.8°C | 2.6% | 13.7hPa | 2.6V | 00:00:00 | 01:46:40 | 00:00:00 | |
| DM0DOS-11 | 2026-09-04 05:17:51 | 52.55106 | 9.10290 | 123° | 40km/h | 29240m | 7.8m/s | -45.9°C | 2.6% | 13.8hPa | 2.6V | 08:30:00 | 01:46:38 | 00:00:00 | |
| DL1XH-15 | 2026-09-04 05:17:51 | 52.55125 | 9.10236 | 130° | 38km/h | 29214m | 7.5m/s | -46°C | 2.6% | 13.9hPa | 2.6V | 08:30:00 | 01:46:34 | 00:00:00 | |
| DF8AY | 2026-09-04 05:17:49 | 52.55111 | 9.10276 | 117° | 38km/h | 29233m | 6.7m/s | -45.9°C | 0% | 13.8hPa | 2.6V | 18:12:15 | 01:46:37 | 00:00:00 | |
| AA1-15 | 2026-09-04 05:17:47 | 52.55120 | 9.10248 | 122° | 37km/h | 29221m | 6.4m/s | -46°C | 0% | 13.9hPa | 2.7V | 18:12:15 | 01:46:35 | 00:00:00 | |
| DO2JMG | 2026-09-04 05:17:46 | 52.55125 | 9.10236 | 131° | 38km/h | 29214m | 7.6m/s | -46°C | 0% | 13.9hPa | 2.6V | 18:12:15 | 01:46:34 | 00:00:00 | |
| BIOWL1-15 | 2026-09-04 05:17:45 | 52.55132 | 9.10225 | 140° | 37km/h | 29207m | 5.7m/s | -45.9°C | 0% | 13.9hPa | 2.6V | 18:12:15 | 01:46:33 | 00:00:00 | |
| D01LWL | 2026-09-04 05:17:45 | 52.55139 | 9.10217 | 145° | 31km/h | 29202m | 5.0m/s | -45.9°C | 0.5% | 13.9hPa | 2.7V | 00:00:00 | 00:00:00 | 00:00:00 | |
| DL1XH-west | 2026-09-04 05:17:41 | 52.55153 | 9.10198 | 126° | 18km/h | 29182m | 5.5m/s | -45.8°C | 0% | 14hPa | 2.7V | 18:12:15 | 01:46:29 | 00:00:00 | |
| DB0DAN | 2026-09-04 05:17:40 | 52.55155 | 9.10191 | 117° | 22km/h | 29176m | 5.6m/s | -45.8°C | 0.5% | 13.97hPa | 2.6V | 00:00:00 | 00:00:00 | 00:00:00 | |
| DF8AY | 2026-09-04 05:17:39 | 52.55162 | 9.10170 | 116° | 35km/h | 29163m | 6.7m/s | -45.6°C | 0% | 14hPa | 2.6V | 18:12:15 | 01:46:26 | 00:00:00 | |
| AA1-15 | 2026-09-04 05:17:36 | 52.55170 | 9.10142 | 112° | 38km/h | 29150m | 6.9m/s | -45.6°C | 0% | 14hPa | 2.7V | 18:12:15 | 01:46:24 | 00:00:00 | |
| DO2JMG | 2026-09-04 05:17:35 | 52.55173 | 9.10127 | 109° | 35km/h | 29143m | 7.1m/s | -45.6°C | 0% | 14hPa | 2.6V | 18:12:15 | 01:46:23 | 00:00:00 | |
| BIOWL1-15 | 2026-09-04 05:17:34 | 52.55181 | 9.10093 | 118° | 27km/h | 29125m | 5.9m/s | -45.7°C | 0% | 14.1hPa | 2.7V | 18:12:15 | 01:46:20 | 00:00:00 | |
| DO2SHX-10 | 2026-09-04 05:17:34 | 52.55175 | 9.10114 | 108° | 27km/h | 29136m | 5.8m/s | -45.5°C | 2.5% | 14.0hPa | 2.7V | 00:00:00 | 01:46:22 | 00:00:00 | |
| DO3MHA-11 | 2026-09-04 05:17:32 | 52.55180 | 9.10093 | 119° | 31km/h | 29126m | 5.9m/s | -45.6°C | 2.5% | 14.0hPa | 2.7V | 00:00:00 | 01:46:20 | 00:00:00 | |
| DL1XH-15 | 2026-09-04 05:17:31 | 52.55201 | 9.10031 | 85° | 27km/h | 29085m | 7.9m/s | -45.6°C | 2.5% | 14.2hPa | 2.7V | 08:30:00 | 01:46:14 | 00:00:00 | |
| DL1XH-west | 2026-09-04 05:17:31 | 52.55184 | 9.10083 | 126° | 29km/h | 29118m | 8.1m/s | -45.6°C | 0% | 14.1hPa | 2.6V | 18:12:15 | 01:46:19 | 00:00:00 | |
| DF8AY | 2026-09-04 05:17:28 | 52.55198 | 9.10053 | 118° | 29km/h | 29100m | 5.5m/s | -45.6°C | 0% | 14.2hPa | 2.7V | 18:12:15 | 01:46:16 | 00:00:00 | |
| DJ2DS-15 | 2026-09-04 05:17:28 | 52.55198 | 9.10053 | 119° | 33km/h | 29100m | 5.5m/s | -45.6°C | 2.5% | 14.1hPa | 2.7V | 00:00:00 | 01:46:16 | 00:00:00 | |
| DL1XH1-15 | 2026-09-04 05:17:26 | 52.55195 | 9.09964 | 102° | 38km/h | 29052m | 6.2m/s | -46.1°C | 2.6% | 14.2hPa | 2.7V | 08:30:00 | 01:46:09 | 00:00:00 | |
| AA1-15 | 2026-09-04 05:17:26 | 52.55201 | 9.10031 | 86° | 27km/h | 29085m | 7.9m/s | -45.7°C | 0% | 14.2hPa | 2.7V | 18:12:15 | 01:46:14 | 00:00:00 | |
| DB0DAN | 2026-09-04 05:17:25 | 52.55200 | 9.10019 | 71° | 29km/h | 29078m | 6.9m/s | -45.7°C | 0.5% | 14.17hPa | 2.6V | 00:00:00 | 00:00:00 | 00:00:00 | |
| DO2JMG | 2026-09-04 05:17:25 | 52.55200 | 9.10019 | 71° | 29km/h | 29078m | 6.9m/s | -45.7°C | 0% | 14.2hPa | 2.6V | 18:12:15 | 01:46:13 | 00:00:00 | |
| BIOWL1-15 | 2026-09-04 05:17:24 | 52.55197 | 9.10007 | 70° | 33km/h | 29072m | 5.8m/s | -45.7°C | 0% | 14.2hPa | 2.6V | 18:12:15 | 01:46:12 | 00:00:00 | |
| DJ8HS-15 | 2026-09-04 05:17:24 | 52.55197 | 9.10007 | 71° | 33km/h | 29072m | 5.8m/s | -45.7°C | 2.5% | 14.2hPa | 2.7V | 00:00:00 | 01:46:12 | 00:00:00 | |
| DL3AQ-11 | 2026-09-04 05:17:23 | 52.55194 | 9.09979 | 90° | 35km/h | 29059m | 7.1m/s | -45.9°C | 0.5% | 14.2hPa | 2.7V | 00:00:00 | 00:00:00 | 00:00:00 | |
| DO2SHX-10 | 2026-09-04 05:17:22 | 52.55194 | 9.09979 | 91° | 37km/h | 29059m | 7.1m/s | -45.8°C | 2.5% | 14.2hPa | 2.7V | 00:00:00 | 01:46:10 | 00:00:00 | |
| DL1XH-15 | 2026-09-04 05:17:21 | 52.55207 | 9.09901 | 99° | 27km/h | 29020m | 6m/s | -46.6°C | 2.7% | 14.3hPa | 2.7V | 08:30:00 | 01:46:04 | 00:00:00 | |
| DL1XH-west | 2026-09-04 05:17:20 | 52.55198 | 9.09949 | 110° | 37km/h | 29046m | 5.9m/s | -46.2°C | 0% | 14.3hPa | 2.6V | 18:12:15 | 01:46:08 | 00:00:00 | |
| DF8AY | 2026-09-04 05:17:18 | 52.55204 | 9.09923 | 108° | 29km/h | 29033m | 6.8m/s | -46.5°C | 0% | 14.3hPa | 2.6V | 18:12:15 | 01:46:06 | 00:00:00 | |
| DL4XJ-10 | 2026-09-04 05:17:17 | 52.55205 | 9.09912 | 104° | 16km/h | 29026m | 5.7m/s | -47.5°C | 0% | 0hPa | 2.7V | 00:00:00 | 00:00:00 | 00:00:00 | |
| DL1XH1-15 | 2026-09-04 05:17:16 | 52.55201 | 9.09835 | 57° | 37km/h | 28986m | 6.9m/s | -46.7°C | 2.7% | 14.4hPa | 2.7V | 08:30:00 | 01:45:59 | 00:00:00 | |
| AA1-15 | 2026-09-04 05:17:15 | 52.55208 | 9.09889 | 97° | 31km/h | 29014m | 7.5m/s | -46.7°C | 0% | 14.3hPa | 2.7V | 18:12:15 | 01:46:03 | 00:00:00 | |
| BIOWL1-15 | 2026-09-04 05:17:14 | 52.55208 | 9.09876 | 88° | 33km/h | 29007m | 6m/s | -46.7°C | 0% | 14.3hPa | 2.6V | 18:12:15 | 01:46:02 | 00:00:00 | |
| D01LWL | 2026-09-04 05:17:14 | 52.55207 | 9.09862 | 77° | 33km/h | 29001m | 5.7m/s | -46.7°C | 0.5% | 14.4hPa | 2.7V | 00:00:00 | 00:00:00 | 00:00:00 | |
| DO1YAY-16 | 2026-09-04 05:17:13 | 52.55205 | 9.09848 | 67° | 35km/h | 28994m | 8.4m/s | -46.7°C | 0.5% | 14.3hPa | 2.7V | 00:00:00 | 00:00:00 | 00:00:00 | |
| DL3AQ-11 | 2026-09-04 05:17:12 | 52.55200 | 9.09835 | 57° | 37km/h | 28986m | 6.9m/s | -46.7°C | 0.5% | 14.4hPa | 2.7V | 00:00:00 | 00:00:00 | 00:00:00 | |
| DL1XH-15 | 2026-09-04 05:17:11 | 52.55190 | 9.09768 | 102° | 29km/h | 28956m | 5.3m/s | -46.7°C | 2.7% | 14.4hPa | 2.7V | 08:30:00 | 01:45:54 | 00:00:00 | |
| DL1XH-west | 2026-09-04 05:17:09 | 52.55191 | 9.09809 | 67° | 37km/h | 28975m | 6.5m/s | -46.7°C | 0% | 14.4hPa | 2.6V | 18:12:15 | 01:45:57 | 00:00:00 | |
| DF8AY | 2026-09-04 05:17:08 | 52.55189 | 9.09795 | 80° | 35km/h | 28968m | 6.8m/s | -46.7°C | 0% | 14.4hPa | 2.6V | 18:12:15 | 01:45:56 | 00:00:00 | |
| DJ2DS-15 | 2026-09-04 05:17:08 | 52.55189 | 9.09795 | 80° | 24km/h | 28968m | 6.7m/s | -46.7°C | 2.7% | 14.4hPa | 2.7V | 00:00:00 | 01:45:56 | 00:00:00 | |
| DO2SHX-10 | 2026-09-04 05:17:07 | 52.55188 | 9.09781 | 94° | 29km/h | 28962m | 5.4m/s | -46.6°C | 2.7% | 14.4hPa | 2.7V | 00:00:00 | 01:45:55 | 00:00:00 | |
| DL1XH1-15 | 2026-09-04 05:17:06 | 52.55195 | 9.09726 | 99° | 20km/h | 28925m | 7.2m/s | -46.8°C | 2.8% | 14.5hPa | 2.7V | 08:30:00 | 01:45:49 | 00:00:00 | |
| BIOWL1-15 | 2026-09-04 05:17:05 | 52.55194 | 9.09740 | 102° | 16km/h | 28937m | 5.7m/s | -46.7°C | 0% | 14.5hPa | 2.6V | 18:12:15 | 01:45:51 | 00:00:00 | |
| DO2JMG | 2026-09-04 05:17:04 | 52.55193 | 9.09748 | 104° | 20km/h | 28943m | 6.9m/s | -46.7°C | 0% | 14.5hPa | 2.6V | 18:12:15 | 01:45:52 | 00:00:00 | |
| DJ8HS-15 | 2026-09-04 05:17:04 | 52.55192 | 9.09748 | 104° | 22km/h | 28943m | 6.9m/s | -46.7°C | 2.7% | 14.4hPa | 2.6V | 00:00:00 | 01:45:52 | 00:00:00 | |
| DO2KSM | 2026-09-04 05:17:03 | 52.55192 | 9.09748 | 105° | 20km/h | 28943m | 6.9m/s | -46.7°C | 0.5% | 14.5hPa | 2.6V | 00:00:00 | 00:00:00 | 00:00:00 | |
| DM0DOS-11 | 2026-09-04 05:17:02 | 52.55196 | 9.09717 | 98° | 24km/h | 28918m | 6.4m/s | -46.8°C | 2.7% | 14.5hPa | 2.6V | 08:30:00 | 01:45:48 | 00:00:00 | |
| DL1XH-15 | 2026-09-04 05:17:02 | 52.55193 | 9.09679 | 54° | 22km/h | 28893m | 7.5m/s | -46.8°C | 2.7% | 14.6hPa | 2.7V | 08:30:00 | 01:45:44 | 00:00:00 | |
| DL1XH-west | 2026-09-04 05:16:59 | 52.55197 | 9.09707 | 95° | 26km/h | 28912m | 5.6m/s | -46.7°C | 0% | 14.6hPa | 2.6V | 18:12:15 | 01:45:47 | 00:00:00 | |
| DF8AY | 2026-09-04 05:16:57 | 52.55196 | 9.09687 | 72° | 24km/h | 28901m | 7.2m/s | -46.8°C | 0% | 14.6hPa | 2.6V | 18:12:15 | 01:45:45 | 00:00:00 | |
| BUE01 | 2026-09-04 05:16:57 | 52.55196 | 9.09687 | 72° | 22km/h | 28901m | 7.2m/s | -46.8°C | 0.5% | 14.6hPa | 2.7V | 00:00:00 | 00:00:00 | 00:00:00 | |
| DO3DL | 2026-09-04 05:16:56 | 52.55195 | 9.09687 | 73° | 24km/h | 28901m | 7.2m/s | -46.8°C | 0.5% | 14.6hPa | 2.7V | 00:00:00 | 00:00:00 | 00:00:00 | |
| DB0DAN | 2026-09-04 05:16:55 | 52.55189 | 9.09672 | 45° | 22km/h | 28886m | 6m/s | -46.8°C | 0.5% | 14.62hPa | 2.7V | 00:00:00 | 00:00:00 | 00:00:00 | |
| AA1-15 | 2026-09-04 05:16:54 | 52.55185 | 9.09665 | 50° | 24km/h | 28880m | 5.7m/s | -46.9°C | 0% | 14.6hPa | 2.6V | 18:12:15 | 01:45:42 | 00:00:00 | |
| BIOWL1-15 | 2026-09-04 05:16:53 | 52.55182 | 9.09657 | 62° | 24km/h | 28874m | 7.4m/s | -46.9°C | 0% | 14.6hPa | 2.6V | 18:12:15 | 01:45:41 | 00:00:00 | |
| DF8AY-15 | 2026-09-04 05:16:53 | 52.55182 | 9.09656 | 62° | 20km/h | 28874m | 7.3m/s | -46.8°C | 2.7% | 14.6hPa | 2.6V | 00:00:00 | 01:45:41 | 00:00:00 | |
| DO2SHX-10 | 2026-09-04 05:16:52 | 52.55180 | 9.09647 | 77° | 26km/h | 28867m | 6.4m/s | -46.8°C | 2.6% | 14.6hPa | 2.6V | 00:00:00 | 01:45:40 | 08:30:00 | |
| DL1XH-15 | 2026-09-04 05:16:51 | 52.55177 | 9.09593 | 86° | 20km/h | 28828m | 7m/s | -46.8°C | 2.8% | 14.7hPa | 2.6V | 08:30:00 | 01:45:34 | 00:00:00 | |
| DM0DOS-11 | 2026-09-04 05:16:51 | 52.55178 | 9.09626 | 88° | 24km/h | 28855m | 6.7m/s | -46.8°C | 2.7% | 14.7hPa | 2.7V | 08:30:00 | 01:45:38 | 00:00:00 | |
| DL1XH-west | 2026-09-04 05:16:49 | 52.55178 | 9.09616 | 87° | 20km/h | 28847m | 7.4m/s | -46.8°C | 0% | 14.7hPa | 2.7V | 18:12:15 | 01:45:37 | 00:00:00 | |
| DO2SHX-10 | 2026-09-04 05:16:49 | 52.55178 | 9.09616 | 87° | 18km/h | 28848m | 7.4m/s | -46.7°C | 2.7% | 14.6hPa | 2.6V | 00:00:00 | 01:45:37 | 00:00:00 | |
| DL1NUX | 2026-09-04 05:16:47 | 52.55168 | 9.09565 | 26° | 20km/h | 28804m | 8.2m/s | -46.9°C | 2.7% | 14.8hPa | 2.6V | 08:30:00 | 01:45:30 | 00:00:00 | |
| DF8AY | 2026-09-04 05:16:46 | 52.55177 | 9.09593 | 87° | 20km/h | 28828m | 7m/s | -46.8°C | 0% | 14.7hPa | 2.6V | 18:12:15 | 01:45:34 | 00:00:00 | |
| DF7PN | 2026-09-04 05:16:45 | 52.55175 | 9.09577 | 64° | 20km/h | 28817m | 4.5m/s | -46.8°C | 0.5% | 14.8hPa | 2.6V | 00:00:00 | 00:00:00 | 00:00:00 | |
| AA1-15 | 2026-09-04 05:16:43 | 52.55172 | 9.09570 | 45° | 20km/h | 28811m | 6.6m/s | -46.9°C | 0% | 14.8hPa | 2.6V | 18:12:15 | 01:45:31 | 00:00:00 | |
| BIOWL1-15 | 2026-09-04 05:16:42 | 52.55154 | 9.09557 | 37° | 16km/h | 28784m | 6.7m/s | -46.9°C | 0% | 14.8hPa | 2.6V | 18:12:15 | 01:45:27 | 00:00:00 | |
| DO3MHA-12 | 2026-09-04 05:16:42 | 52.55168 | 9.09565 | 27° | 18km/h | 28804m | 8.2m/s | -46.9°C | 2.7% | 14.8hPa | 2.6V | 00:00:00 | 01:45:30 | 00:00:00 | |
| DL1XH-15 | 2026-09-04 05:16:41 | 52.55152 | 9.09536 | 101° | 20km/h | 28764m | 7.5m/s | -46.9°C | 2.7% | 14.9hPa | 2.7V | 08:30:00 | 01:45:24 | 00:00:00 | |
| DM0DOS-11 | 2026-09-04 05:16:41 | 52.55158 | 9.09560 | 16° | 18km/h | 28790m | 5.3m/s | -46.9°C | 2.7% | 14.8hPa | 2.7V | 08:30:00 | 01:45:28 | 00:00:00 | |
| DL1XH-west | 2026-09-04 05:16:38 | 52.55152 | 9.09551 | 70° | 16km/h | 28777m | 7m/s | -46.9°C | 0% | 14.9hPa | 2.6V | 18:12:15 | 01:45:26 | 00:00:00 | |
| DF8AY | 2026-09-04 05:16:35 | 52.55153 | 9.09528 | 104° | 20km/h | 28757m | 6.8m/s | -46.9°C | 0% | 14.9hPa | 2.7V | 18:12:15 | 01:45:23 | 00:00:00 | |
| BIOWL1-15 | 2026-09-04 05:16:34 | 52.55154 | 9.09506 | 86° | 18km/h | 28738m | 6.2m/s | -46.8°C | 0% | 14.9hPa | 2.6V | 18:12:15 | 01:45:20 | 00:00:00 | |
| DO2JMG | 2026-09-04 05:16:33 | 52.55155 | 9.09513 | 93° | 16km/h | 28744m | 6m/s | -46.8°C | 0% | 14.9hPa | 2.6V | 18:12:15 | 01:45:21 | 00:00:00 | |
| DO3MHA-12 | 2026-09-04 05:16:32 | 52.55154 | 9.09506 | 87° | 13km/h | 28738m | 6.1m/s | -46.8°C | 2.7% | 14.9hPa | 2.7V | 00:00:00 | 01:45:20 | 00:00:00 | |
| DM0DOS-11 | 2026-09-04 05:16:31 | 52.55153 | 9.09491 | 68° | 18km/h | 28725m | 5.3m/s | -46.8°C | 2.7% | 15hPa | 2.7V | 08:30:00 | 01:45:18 | 00:00:00 | |
| DL1XH-15 | 2026-09-04 05:16:31 | 52.55143 | 9.09483 | 326° | 13km/h | 28701m | 5.7m/s | -47°C | 2.7% | 15hPa | 2.6V | 08:30:00 | 01:45:14 | 00:00:00 | |
| DL1XH-west | 2026-09-04 05:16:28 | 52.55148 | 9.09482 | 27° | 11km/h | 28714m | 6.7m/s | -46.8°C | 0% | 15hPa | 2.6V | 18:12:15 | 01:45:16 | 00:00:00 | |
| DF8AY | 2026-09-04 05:16:25 | 52.55141 | 9.09485 | 335° | 9km/h | 28695m | 4.9m/s | -47°C | 0% | 15.1hPa | 2.7V | 18:12:15 | 01:45:13 | 00:00:00 | |
| DB0DAN | 2026-09-04 05:16:25 | 52.55141 | 9.09485 | 335° | 7km/h | 28695m | 4.9m/s | -47°C | 0.5% | 15.05hPa | 2.7V | 00:00:00 | 00:00:00 | 00:00:00 | |
| DO2JMG | 2026-09-04 05:16:22 | 52.55139 | 9.09475 | 109° | 22km/h | 28676m | 6.6m/s | -47°C | 0% | 15.1hPa | 2.6V | 18:12:15 | 01:45:10 | 00:00:00 | |
| DO3MHA-12 | 2026-09-04 05:16:22 | 52.55139 | 9.09475 | 109° | 18km/h | 28676m | 6.5m/s | -47.0°C | 2.7% | 15.0hPa | 2.6V | 00:00:00 | 01:45:10 | 00:00:00 | |
| DM0DOS-11 | 2026-09-04 05:16:21 | 52.55146 | 9.09457 | 130° | 29km/h | 28661m | 7.5m/s | -47°C | 2.7% | 15.1hPa | 2.6V | 08:30:00 | 01:45:08 | 00:00:00 | |
| DL1XH-west | 2026-09-04 05:16:17 | 52.55160 | 9.09431 | 123° | 26km/h | 28643m | 7m/s | -47°C | 0% | 15.2hPa | 2.6V | 18:12:15 | 01:45:05 | 00:00:00 | |
| DL1XH1-15 | 2026-09-04 05:16:16 | 52.55162 | 9.09429 | 248° | 11km/h | 28607m | 2.6m/s | -47.3°C | 2.6% | 15.2hPa | 2.6V | 08:30:00 | 01:44:59 | 00:00:00 | |
| DF8AY | 2026-09-04 05:16:15 | 52.55163 | 9.09419 | 94° | 7km/h | 28631m | 5.7m/s | -47.1°C | 0% | 15.2hPa | 2.7V | 18:12:15 | 01:45:03 | 00:00:00 | |
| AA1-15 | 2026-09-04 05:16:12 | 52.55162 | 9.09424 | 269° | 13km/h | 28611m | 4.6m/s | -47.2°C | 0% | 15.2hPa | 2.6V | 18:12:15 | 01:45:00 | 00:00:00 | |
| BIOWL1-15 | 2026-09-04 05:16:11 | 52.55162 | 9.09429 | 249° | 11km/h | 28607m | 2.6m/s | -47.3°C | 0% | 15.2hPa | 2.6V | 18:12:15 | 01:44:59 | 00:00:00 | |
| DB0DAN | 2026-09-04 05:16:10 | 52.55164 | 9.09431 | 201° | 5km/h | 28603m | 5.5m/s | -47.4°C | 0.5% | 15.27hPa | 2.7V | 00:00:00 | 00:00:00 | 00:00:00 | |
| DL1XH-west | 2026-09-04 05:16:07 | 52.55172 | 9.09411 | 118° | 37km/h | 28581m | 7.3m/s | -47.4°C | 0% | 15.3hPa | 2.6V | 18:12:15 | 01:44:55 | 00:00:00 | |
| DL1XH1-15 | 2026-09-04 05:16:06 | 52.55201 | 9.09346 | 132° | 11km/h | 28545m | 6.2m/s | -47.5°C | 2.7% | 15.4hPa | 2.6V | 08:30:00 | 01:44:49 | 00:00:00 | |
| DF8AY | 2026-09-04 05:16:05 | 52.55183 | 9.09383 | 128° | 42km/h | 28568m | 5.8m/s | -47.4°C | 0% | 15.4hPa | 2.6V | 18:12:15 | 01:44:53 | 00:00:00 | |
| AA1-15 | 2026-09-04 05:16:02 | 52.55199 | 9.09352 | 129° | 22km/h | 28551m | 6.9m/s | -47.4°C | 0% | 15.4hPa | 2.6V | 18:12:15 | 01:44:50 | 00:00:00 | |
| DO3MHA-12 | 2026-09-04 05:16:02 | 52.55199 | 9.09352 | 129° | 15km/h | 28552m | 6.9m/s | -47.4°C | 2.8% | 15.3hPa | 2.6V | 00:00:00 | 01:44:50 | 00:00:00 | |
| DM0DOS-11 | 2026-09-04 05:16:01 | 52.55203 | 9.09345 | 198° | 5km/h | 28538m | 6.1m/s | -47.6°C | 2.7% | 15.4hPa | 2.6V | 08:30:00 | 01:44:48 | 00:00:00 | |
| DO2JMG | 2026-09-04 05:16:01 | 52.55202 | 9.09347 | 132° | 11km/h | 28545m | 6.2m/s | -47.5°C | 0% | 15.4hPa | 2.6V | 18:12:15 | 01:44:49 | 00:00:00 | |
| BIOWL1-15 | 2026-09-04 05:16:00 | 52.55203 | 9.09345 | 198° | 5km/h | 28539m | 6.1m/s | -47.6°C | 0% | 15.4hPa | 2.6V | 18:12:15 | 01:44:48 | 00:00:00 | |
| DO2SHX-10 | 2026-09-04 05:16:00 | 52.55203 | 9.09345 | 199° | 11km/h | 28539m | 6.1m/s | -47.6°C | 2.7% | 15.4hPa | 2.6V | 00:00:00 | 01:44:48 | 00:00:00 | |
| SO1NDE-10 | 2026-09-04 05:15:59 | 52.55204 | 9.09347 | 242° | 13km/h | 28532m | 8.3m/s | -47.6°C | 2.8% | 15.4hPa | 2.6V | 00:00:00 | 01:44:47 | 00:00:00 | |
| SP3BTT-10 | 2026-09-04 05:15:58 | 52.55206 | 9.09352 | 245° | 11km/h | 28524m | 5.8m/s | -47.6°C | 2.8% | 15.4hPa | 2.6V | 00:00:00 | 00:00:00 | 00:00:00 | |
| DO2SHX-10 | 2026-09-04 05:15:57 | 52.55208 | 9.09357 | 236° | 11km/h | 28520m | 3.6m/s | -47.6°C | 2.8% | 15.4hPa | 2.6V | 00:00:00 | 01:44:45 | 08:30:00 | |
| DL1XH1-15 | 2026-09-04 05:15:56 | 52.55223 | 9.09311 | 118° | 38km/h | 28482m | 6.3m/s | -48.1°C | 2.9% | 15.5hPa | 2.6V | 08:30:00 | 01:44:39 | 00:00:00 | |
| DL1XH-west | 2026-09-04 05:15:56 | 52.55209 | 9.09360 | 197° | 7km/h | 28515m | 4.7m/s | -47.8°C | 0% | 15.4hPa | 2.6V | 18:12:15 | 01:44:44 | 00:00:00 | |
| DB0DAN | 2026-09-04 05:15:55 | 52.55211 | 9.09358 | 129° | 11km/h | 28509m | 7.6m/s | -47.9°C | 0.5% | 15.49hPa | 2.6V | 00:00:00 | 00:00:00 | 00:00:00 | |
| DF8AY | 2026-09-04 05:15:54 | 52.55213 | 9.09352 | 111° | 26km/h | 28502m | 7.4m/s | -48°C | 0% | 15.5hPa | 2.6V | 18:12:15 | 01:44:42 | 00:00:00 | |
| BIOWL1-15 | 2026-09-04 05:15:52 | 52.55228 | 9.09298 | 129° | 33km/h | 28476m | 5.3m/s | -48.2°C | 0% | 15.6hPa | 2.6V | 18:12:15 | 01:44:38 | 00:00:00 | |
| DO3MHA-12 | 2026-09-04 05:15:52 | 52.55219 | 9.09325 | 113° | 20km/h | 28489m | 6.2m/s | -48.0°C | 2.8% | 15.5hPa | 2.6V | 00:00:00 | 01:44:40 | 00:00:00 | |
| DM0DOS-11 | 2026-09-04 05:15:51 | 52.55228 | 9.09298 | 128° | 33km/h | 28476m | 5.3m/s | -48.1°C | 2.9% | 15.6hPa | 2.6V | 08:30:00 | 01:44:38 | 00:00:00 | |
| DO2JMG | 2026-09-04 05:15:51 | 52.55223 | 9.09311 | 119° | 38km/h | 28482m | 6.4m/s | -48.1°C | 0% | 15.6hPa | 2.6V | 18:12:15 | 01:44:39 | 00:00:00 | |
| DD1CC8 | 2026-09-04 05:15:49 | 52.55233 | 9.09290 | 138° | 26km/h | 28471m | 5.0m/s | -48.1°C | 0.6% | 15.6hPa | 2.6V | 00:00:00 | 00:00:00 | 00:00:00 | |
| DL1NUX | 2026-09-04 05:15:48 | 52.55247 | 9.09272 | 155° | 11km/h | 28433m | 6.3m/s | -48.3°C | 2.9% | 15.7hPa | 2.6V | 08:30:00 | 01:44:31 | 00:00:00 | |
| DL1XH-west | 2026-09-04 05:15:46 | 52.55243 | 9.09277 | 132° | 7km/h | 28452m | 6.9m/s | -48.2°C | 0% | 15.6hPa | 2.6V | 18:12:15 | 01:44:34 | 00:00:00 | |
| SMARD9-15 | 2026-09-04 05:15:45 | 52.55245 | 9.09274 | 156° | 5km/h | 28440m | 6.6m/s | -48.2°C | 0.5% | 15.6hPa | 2.6V | 00:00:00 | 00:00:00 | 00:00:00 | |
| DF8AY | 2026-09-04 05:15:43 | 52.55247 | 9.09272 | 155° | 11km/h | 28434m | 6.3m/s | -48.3°C | 0% | 15.7hPa | 2.6V | 18:12:15 | 01:44:31 | 00:00:00 | |
| DO3MHA-12 | 2026-09-04 05:15:42 | 52.55250 | 9.09269 | 139° | 16km/h | 28428m | 4.7m/s | -48.3°C | 2.9% | 15.6hPa | 2.7V | 00:00:00 | 01:44:30 | 00:00:00 | |
| DM0DOS-11 | 2026-09-04 05:15:41 | 52.55255 | 9.09255 | 106° | 24km/h | 28416m | 7.8m/s | -48.4°C | 2.9% | 15.7hPa | 2.6V | 08:30:00 | 01:44:28 | 00:00:00 | |
| AA1-15 | 2026-09-04 05:15:41 | 52.55253 | 9.09263 | 120° | 20km/h | 28423m | 5.7m/s | -48.4°C | 0% | 15.7hPa | 2.6V | 18:12:15 | 01:44:29 | 00:00:00 | |
| DB0DAN | 2026-09-04 05:15:40 | 52.55255 | 9.09255 | 107° | 22km/h | 28416m | 7.8m/s | -48.4°C | 0.6% | 15.72hPa | 2.6V | 00:00:00 | 00:00:00 | 00:00:00 | |
| BIOWL1-15 | 2026-09-04 05:15:40 | 52.55255 | 9.09255 | 107° | 24km/h | 28416m | 7.8m/s | -48.4°C | 0% | 15.7hPa | 2.6V | 18:12:15 | 01:44:28 | 00:00:00 | |
| GOEST3-10 | 2026-09-04 05:15:40 | 52.55255 | 9.09255 | 107° | 20km/h | 28416m | 7.8m/s | -48.4°C | 2.9% | 15.7hPa | 2.7V | 00:00:00 | 00:00:00 | 00:00:00 | |
| DO2KSM | 2026-09-04 05:15:39 | 52.55255 | 9.09255 | 108° | 24km/h | 28416m | 7.8m/s | -48.4°C | 0.6% | 15.7hPa | 2.7V | 00:00:00 | 00:00:00 | 00:00:00 | |
| DL1NUX | 2026-09-04 05:15:38 | 52.55259 | 9.09216 | 282° | 5km/h | 28371m | 6.9m/s | -48.4°C | 2.9% | 15.8hPa | 2.7V | 08:30:00 | 01:44:21 | 00:00:00 | |
| DL1XH-west | 2026-09-04 05:15:36 | 52.55258 | 9.09218 | 106° | 11km/h | 28391m | 6.7m/s | -48.4°C | 0% | 15.8hPa | 2.6V | 18:12:15 | 01:44:24 | 00:00:00 | |
| DF8AY | 2026-09-04 05:15:32 | 52.55258 | 9.09219 | 294° | 7km/h | 28365m | 5.2m/s | -48.4°C | 0% | 15.8hPa | 2.7V | 18:12:15 | 01:44:20 | 00:00:00 | |
| DO2SHX-10 | 2026-09-04 05:15:32 | 52.55258 | 9.09219 | 294° | 7km/h | 28365m | 5.1m/s | -48.4°C | 3.0% | 15.8hPa | 2.6V | 00:00:00 | 01:44:20 | 00:00:00 | |
| DM0DOS-11 | 2026-09-04 05:15:31 | 52.55258 | 9.09224 | 255° | 7km/h | 28355m | 5.4m/s | -48.4°C | 2.9% | 15.9hPa | 2.6V | 08:30:00 | 01:44:18 | 00:00:00 | |
| AA1-15 | 2026-09-04 05:15:31 | 52.55258 | 9.09222 | 282° | 7km/h | 28360m | 4.3m/s | -48.4°C | 0% | 15.9hPa | 2.7V | 18:12:15 | 01:44:19 | 00:00:00 | |
| BIOWL1-15 | 2026-09-04 05:15:31 | 52.55259 | 9.09227 | 225° | 7km/h | 28349m | 6.7m/s | -48.3°C | 0% | 15.9hPa | 2.6V | 18:12:15 | 01:44:17 | 00:00:00 | |
| DO2JMG | 2026-09-04 05:15:30 | 52.55258 | 9.09224 | 256° | 7km/h | 28355m | 5.4m/s | -48.4°C | 0% | 15.9hPa | 2.6V | 18:12:15 | 01:44:18 | 00:00:00 | |
| GOEST3-10 | 2026-09-04 05:15:30 | 52.55258 | 9.09224 | 256° | 15km/h | 28355m | 5.4m/s | -48.3°C | 2.9% | 15.8hPa | 2.6V | 00:00:00 | 00:00:00 | 00:00:00 | |
| DO2SHX-10 | 2026-09-04 05:15:29 | 52.55259 | 9.09227 | 225° | 11km/h | 28349m | 6.7m/s | -48.2°C | 2.9% | 15.8hPa | 2.6V | 00:00:00 | 01:44:17 | 08:30:00 | |
| DL1NUX | 2026-09-04 05:15:28 | 52.55270 | 9.09190 | 99° | 29km/h | 28313m | 4.1m/s | -48.4°C | 2.9% | 16hPa | 2.6V | 08:30:00 | 01:44:11 | 00:00:00 | |
| DL4BBY-15 | 2026-09-04 05:15:28 | 52.55261 | 9.09228 | 184° | 18km/h | 28343m | 5.6m/s | -49.2°C | 0% | 0hPa | 2.7V | 00:00:00 | 00:00:00 | 00:00:00 | |
| SO1NDE-10 | 2026-09-04 05:15:27 | 52.55263 | 9.09227 | 145° | 18km/h | 28338m | 5.3m/s | -48.2°C | 2.9% | 15.9hPa | 2.7V | 00:00:00 | 01:44:15 | 00:00:00 | |
| DL1XH1-15 | 2026-09-04 05:15:26 | 52.55275 | 9.09171 | 130° | 22km/h | 28301m | 6.6m/s | -48.5°C | 2.9% | 16hPa | 2.7V | 08:30:00 | 01:44:09 | 00:00:00 | |
| DL1XH-west | 2026-09-04 05:15:25 | 52.55268 | 9.09213 | 103° | 24km/h | 28324m | 8m/s | -48.4°C | 0% | 15.9hPa | 2.6V | 18:12:15 | 01:44:13 | 00:00:00 | |
| DF8AY | 2026-09-04 05:15:22 | 52.55272 | 9.09179 | 109° | 26km/h | 28307m | 6.2m/s | -48.4°C | 0% | 16hPa | 2.7V | 18:12:15 | 01:44:10 | 00:00:00 | |
| AA1-15 | 2026-09-04 05:15:21 | 52.55275 | 9.09171 | 131° | 22km/h | 28301m | 6.6m/s | -48.5°C | 0% | 16hPa | 2.7V | 18:12:15 | 01:44:09 | 00:00:00 | |
| DO2JMG | 2026-09-04 05:15:20 | 52.55278 | 9.09166 | 160° | 18km/h | 28295m | 5.8m/s | -48.5°C | 0% | 16hPa | 2.7V | 18:12:15 | 01:44:08 | 00:00:00 | |
| BIOWL1-15 | 2026-09-04 05:15:19 | 52.55283 | 9.09165 | 186° | 16km/h | 28289m | 5.7m/s | -48.5°C | 0% | 16hPa | 2.6V | 18:12:15 | 01:44:07 | 00:00:00 | |
| GOEST3-10 | 2026-09-04 05:15:19 | 52.55282 | 9.09165 | 186° | 11km/h | 28289m | 5.7m/s | -48.5°C | 2.9% | 16.0hPa | 2.7V | 00:00:00 | 00:00:00 | 00:00:00 | |
| DL4XJ-10 | 2026-09-04 05:15:18 | 52.55286 | 9.09167 | 200° | 13km/h | 28283m | 6.8m/s | -49.4°C | 0% | 0hPa | 2.7V | 00:00:00 | 00:00:00 | 00:00:00 | |
| DO2SHX-10 | 2026-09-04 05:15:17 | 52.55289 | 9.09169 | 207° | 7km/h | 28276m | 6.4m/s | -48.4°C | 2.9% | 16.0hPa | 2.7V | 00:00:00 | 01:44:05 | 00:00:00 | |
| DL1XH1-15 | 2026-09-04 05:15:16 | 52.55303 | 9.09152 | 129° | 22km/h | 28240m | 5.8m/s | -48.3°C | 2.9% | 16.1hPa | 2.7V | 08:30:00 | 01:43:59 | 00:00:00 | |
| DL1XH-west | 2026-09-04 05:15:15 | 52.55292 | 9.09169 | 138° | 5km/h | 28264m | 5m/s | -48.4°C | 0% | 16.1hPa | 2.7V | 18:12:15 | 01:44:03 | 00:00:00 | |
| DF8AY | 2026-09-04 05:15:12 | 52.55299 | 9.09158 | 137° | 18km/h | 28246m | 6m/s | -48.3°C | 0% | 16.1hPa | 2.6V | 18:12:15 | 01:44:00 | 00:00:00 | |
| AA1-15 | 2026-09-04 05:15:11 | 52.55303 | 9.09152 | 129° | 22km/h | 28240m | 5.8m/s | -48.3°C | 0% | 16.2hPa | 2.7V | 18:12:15 | 01:43:59 | 00:00:00 | |
| HSKMA3-T | 2026-09-04 05:15:11 | 52.55306 | 9.09144 | 120° | 26km/h | 28234m | 7.6m/s | -48.3°C | 0% | 16.2hPa | 2.7V | 18:12:15 | 01:43:58 | 00:00:00 | |
| DB0DAN | 2026-09-04 05:15:10 | 52.55306 | 9.09144 | 120° | 24km/h | 28234m | 7.6m/s | -48.3°C | 0.5% | 16.17hPa | 2.7V | 00:00:00 | 00:00:00 | 00:00:00 | |
| DO2JMG | 2026-09-04 05:15:09 | 52.55309 | 9.09135 | 114° | 27km/h | 28227m | 6.2m/s | -48.3°C | 0% | 16.2hPa | 2.6V | 18:12:15 | 01:43:57 | 00:00:00 | |
| BIOWL1-15 | 2026-09-04 05:15:08 | 52.55312 | 9.09125 | 119° | 26km/h | 28221m | 4.6m/s | -48.3°C | 0% | 16.2hPa | 2.6V | 18:12:15 | 01:43:56 | 00:00:00 | |
| DO2SHX-10 | 2026-09-04 05:15:08 | 52.55312 | 9.09125 | 119° | 24km/h | 28222m | 4.5m/s | -48.3°C | 2.8% | 16.1hPa | 2.7V | 00:00:00 | 01:43:56 | 00:00:00 | |
| DJ2DS-15 | 2026-09-04 05:15:07 | 52.55315 | 9.09117 | 132° | 20km/h | 28217m | 5.9m/s | -48.3°C | 2.8% | 16.2hPa | 2.7V | 00:00:00 | 01:43:55 | 00:00:00 | |
| DL1XH1-15 | 2026-09-04 05:15:06 | 52.55336 | 9.09105 | 121° | 11km/h | 28178m | 4.5m/s | -48.3°C | 2.9% | 16.3hPa | 2.7V | 08:30:00 | 01:43:49 | 00:00:00 | |
| DL1XH-west | 2026-09-04 05:15:04 | 52.55329 | 9.09109 | 184° | 16km/h | 28197m | 6m/s | -48.2°C | 0% | 16.2hPa | 2.7V | 18:12:15 | 01:43:52 | 00:00:00 | |
| DL3OBA | 2026-09-04 05:15:04 | 52.55329 | 9.09109 | 185° | 16km/h | 28197m | 6.0m/s | -48.2°C | 0.5% | 16.3hPa | 2.7V | 00:00:00 | 00:00:00 | 00:00:00 | |
| GOEST3-10 | 2026-09-04 05:15:03 | 52.55332 | 9.09109 | 182° | 18km/h | 28191m | 7.1m/s | -48.2°C | 2.9% | 16.2hPa | 2.7V | 00:00:00 | 01:43:51 | 00:00:00 | |
| DO3MHA-12 | 2026-09-04 05:15:02 | 52.55334 | 9.09108 | 148° | 24km/h | 28184m | 5.8m/s | -48.2°C | 2.9% | 16.2hPa | 2.7V | 00:00:00 | 01:43:50 | 00:00:00 | |
| DL1XH-15 | 2026-09-04 05:15:01 | 52.55357 | 9.09066 | 134° | 37km/h | 28148m | 6m/s | -48.4°C | 3% | 16.4hPa | 2.7V | 08:30:00 | 01:43:44 | 00:00:00 | |
| DF8AY | 2026-09-04 05:15:01 | 52.55336 | 9.09105 | 121° | 11km/h | 28178m | 4.5m/s | -48.3°C | 0% | 16.3hPa | 2.7V | 18:12:15 | 01:43:49 | 00:00:00 | |
| AA1-15 | 2026-09-04 05:15:00 | 52.55338 | 9.09100 | 120° | 16km/h | 28174m | 5.6m/s | -48.3°C | 0% | 16.3hPa | 2.6V | 18:12:15 | 01:43:48 | 00:00:00 | |
| HSKMA3-T | 2026-09-04 05:14:59 | 52.55341 | 9.09094 | 127° | 22km/h | 28167m | 7.4m/s | -48.4°C | 0% | 16.3hPa | 2.6V | 18:12:15 | 01:43:47 | 00:00:00 | |
| BIOWL1-15 | 2026-09-04 05:14:59 | 52.55351 | 9.09076 | 136° | 35km/h | 28154m | 6.2m/s | -48.4°C | 0% | 16.4hPa | 2.6V | 18:12:15 | 01:43:45 | 00:00:00 | |
| DO2JMG | 2026-09-04 05:14:58 | 52.55345 | 9.09086 | 133° | 29km/h | 28160m | 6.4m/s | -48.4°C | 0% | 16.4hPa | 2.6V | 18:12:15 | 01:43:46 | 00:00:00 | |
| DL4XJ-10 | 2026-09-04 05:14:58 | 52.55345 | 9.09086 | 134° | 20km/h | 28160m | 6.4m/s | -49.3°C | 0% | 0hPa | 2.6V | 00:00:00 | 00:00:00 | 00:00:00 | |
| SO1NDE-10 | 2026-09-04 05:14:57 | 52.55351 | 9.09076 | 137° | 18km/h | 28154m | 6.2m/s | -48.4°C | 2.9% | 16.3hPa | 2.6V | 00:00:00 | 01:43:45 | 00:00:00 | |
| DL1XH1-15 | 2026-09-04 05:14:56 | 52.55376 | 9.09024 | 145° | 15km/h | 28117m | 7.5m/s | -48.3°C | 2.8% | 16.4hPa | 2.6V | 08:30:00 | 01:43:39 | 00:00:00 | |
| DL3AQ-11 | 2026-09-04 05:14:56 | 52.55363 | 9.09055 | 128° | 33km/h | 28142m | 6.3m/s | -48.4°C | 0.6% | 16.4hPa | 2.7V | 00:00:00 | 00:00:00 | 00:00:00 | |
| DB0DAN | 2026-09-04 05:14:55 | 52.55363 | 9.09055 | 128° | 33km/h | 28142m | 6.3m/s | -48.4°C | 0.6% | 16.38hPa | 2.7V | 00:00:00 | 00:00:00 | 00:00:00 | |
| DL1XH-west | 2026-09-04 05:14:54 | 52.55367 | 9.09044 | 121° | 29km/h | 28135m | 6.9m/s | -48.4°C | 0% | 16.4hPa | 2.6V | 18:12:15 | 01:43:42 | 00:00:00 | |
| BUE01 | 2026-09-04 05:14:53 | 52.55373 | 9.09029 | 126° | 15km/h | 28124m | 5.6m/s | -48.4°C | 0.6% | 16.4hPa | 2.6V | 00:00:00 | 00:00:00 | 00:00:00 | |
| DL1NUX | 2026-09-04 05:14:52 | 52.55389 | 9.09011 | 124° | 20km/h | 28092m | 7m/s | -48.4°C | 2.9% | 16.5hPa | 2.6V | 08:30:00 | 01:43:35 | 00:00:00 | |
| DF8AY | 2026-09-04 05:14:51 | 52.55376 | 9.09024 | 146° | 15km/h | 28117m | 7.5m/s | -48.3°C | 0% | 16.4hPa | 2.6V | 18:12:15 | 01:43:39 | 00:00:00 | |
| DO3MHA-11 | 2026-09-04 05:14:51 | 52.55375 | 9.09024 | 146° | 20km/h | 28117m | 7.4m/s | -48.3°C | 2.8% | 16.4hPa | 2.7V | 00:00:00 | 01:43:39 | 00:00:00 | |
| DM0DOS-11 | 2026-09-04 05:14:50 | 52.55395 | 9.08994 | 123° | 27km/h | 28078m | 7.3m/s | -48.4°C | 2.9% | 16.6hPa | 2.7V | 08:30:00 | 01:43:33 | 00:00:00 | |
| AA1-15 | 2026-09-04 05:14:50 | 52.55379 | 9.09022 | 161° | 15km/h | 28110m | 5.9m/s | -48.3°C | 0% | 16.5hPa | 2.7V | 18:12:15 | 01:43:38 | 00:00:00 | |
| HSKMA3-T | 2026-09-04 05:14:49 | 52.55382 | 9.09019 | 155° | 15km/h | 28105m | 4.8m/s | -48.4°C | 0% | 16.5hPa | 2.7V | 18:12:15 | 01:43:37 | 00:00:00 | |
| DO2JMG | 2026-09-04 05:14:48 | 52.55386 | 9.09016 | 142° | 16km/h | 28099m | 7.2m/s | -48.4°C | 0% | 16.5hPa | 2.6V | 18:12:15 | 01:43:36 | 00:00:00 | |
| BIOWL1-15 | 2026-09-04 05:14:47 | 52.55389 | 9.09011 | 124° | 20km/h | 28092m | 7m/s | -48.4°C | 0% | 16.5hPa | 2.6V | 18:12:15 | 01:43:35 | 00:00:00 | |
| DJ2DS-15 | 2026-09-04 05:14:47 | 52.55388 | 9.09011 | 125° | 16km/h | 28092m | 7.0m/s | -48.4°C | 2.9% | 16.5hPa | 2.6V | 00:00:00 | 01:43:35 | 08:30:00 | |
| DL1XH1-15 | 2026-09-04 05:14:46 | 52.55409 | 9.08959 | 108° | 18km/h | 28054m | 6.9m/s | -48.4°C | 2.9% | 16.6hPa | 2.6V | 08:30:00 | 01:43:29 | 00:00:00 | |
| DL1XH-west | 2026-09-04 05:14:43 | 52.55403 | 9.08976 | 126° | 26km/h | 28066m | 4.6m/s | -48.4°C | 0% | 16.6hPa | 2.7V | 18:12:15 | 01:43:31 | 00:00:00 | |
| DF8AY | 2026-09-04 05:14:41 | 52.55409 | 9.08959 | 108° | 18km/h | 28054m | 6.9m/s | -48.4°C | 0% | 16.6hPa | 2.6V | 18:12:15 | 01:43:29 | 00:00:00 | |
| DO2SHX-10 | 2026-09-04 05:14:41 | 52.55409 | 9.08959 | 109° | 15km/h | 28054m | 6.9m/s | -48.3°C | 2.9% | 16.6hPa | 2.6V | 00:00:00 | 01:43:29 | 00:00:00 | |
| DM0DOS-11 | 2026-09-04 05:14:40 | 52.55416 | 9.08938 | 116° | 9km/h | 28017m | 7.1m/s | -48.5°C | 2.9% | 16.7hPa | 2.6V | 08:30:00 | 01:43:23 | 00:00:00 | |
| DB0DAN | 2026-09-04 05:14:40 | 52.55410 | 9.08953 | 99° | 13km/h | 28048m | 5.7m/s | -48.4°C | 0.6% | 16.62hPa | 2.6V | 00:00:00 | 00:00:00 | 00:00:00 | |
| AA1-15 | 2026-09-04 05:14:39 | 52.55411 | 9.08948 | 105° | 9km/h | 28042m | 5.7m/s | -48.4°C | 0% | 16.6hPa | 2.7V | 18:12:15 | 01:43:27 | 00:00:00 | |
| DO2JMG | 2026-09-04 05:14:38 | 52.55412 | 9.08945 | 130° | 9km/h | 28036m | 7m/s | -48.5°C | 0% | 16.7hPa | 2.7V | 18:12:15 | 01:43:26 | 00:00:00 | |
| BIOWL1-15 | 2026-09-04 05:14:37 | 52.55413 | 9.08942 | 149° | 9km/h | 28029m | 6.3m/s | -48.5°C | 0% | 16.7hPa | 2.6V | 18:12:15 | 01:43:25 | 00:00:00 | |
| DL1XH-west | 2026-09-04 05:14:32 | 52.55418 | 9.08922 | 105° | 16km/h | 27998m | 6.8m/s | -48.5°C | 0% | 16.8hPa | 2.7V | 18:12:15 | 01:43:20 | 00:00:00 | |
| DO2SHX-10 | 2026-09-04 05:14:32 | 52.55418 | 9.08922 | 105° | 20km/h | 27998m | 6.8m/s | -48.5°C | 2.9% | 16.7hPa | 2.6V | 00:00:00 | 01:43:20 | 00:00:00 | |
| DL1XH-15 | 2026-09-04 05:14:31 | 52.55426 | 9.08880 | 101° | 15km/h | 27959m | 6.2m/s | -48.6°C | 2.9% | 16.8hPa | 2.6V | 08:30:00 | 01:43:14 | 00:00:00 | |
| DF8AY | 2026-09-04 05:14:30 | 52.55422 | 9.08908 | 119° | 20km/h | 27985m | 5m/s | -48.5°C | 0% | 16.8hPa | 2.6V | 18:12:15 | 01:43:18 | 00:00:00 | |
| AA1-15 | 2026-09-04 05:14:28 | 52.55425 | 9.08893 | 99° | 18km/h | 27972m | 7.7m/s | -48.6°C | 0% | 16.8hPa | 2.7V | 18:12:15 | 01:43:16 | 00:00:00 | |
| DO2JMG | 2026-09-04 05:14:27 | 52.55426 | 9.08886 | 95° | 16km/h | 27965m | 6m/s | -48.5°C | 0% | 16.8hPa | 2.7V | 18:12:15 | 01:43:15 | 00:00:00 | |
| BIOWL1-15 | 2026-09-04 05:14:26 | 52.55426 | 9.08880 | 101° | 15km/h | 27959m | 6.2m/s | -48.6°C | 0% | 16.8hPa | 2.6V | 18:12:15 | 01:43:14 | 00:00:00 | |
| DB0DAN | 2026-09-04 05:14:25 | 52.55428 | 9.08874 | 115° | 15km/h | 27953m | 7.2m/s | -48.6°C | 0.6% | 16.89hPa | 2.6V | 00:00:00 | 00:00:00 | 00:00:00 | |
| DL1NUX | 2026-09-04 05:14:23 | 52.55428 | 9.08840 | 96° | 15km/h | 27908m | 5.5m/s | -48.5°C | 3% | 17hPa | 2.6V | 08:30:00 | 01:43:06 | 00:00:00 | |
| DL1XH-west | 2026-09-04 05:14:22 | 52.55430 | 9.08860 | 80° | 11km/h | 27934m | 7.7m/s | -48.5°C | 0% | 16.9hPa | 2.6V | 18:12:15 | 01:43:10 | 00:00:00 | |
| DF8AY | 2026-09-04 05:14:20 | 52.55429 | 9.08851 | 73° | 13km/h | 27921m | 5.7m/s | -48.5°C | 0% | 17hPa | 2.6V | 18:12:15 | 01:43:08 | 00:00:00 | |
| AA1-15 | 2026-09-04 05:14:18 | 52.55428 | 9.08840 | 96° | 15km/h | 27908m | 5.5m/s | -48.5°C | 0% | 17hPa | 2.6V | 18:12:15 | 01:43:06 | 00:00:00 | |
| DO2JMG | 2026-09-04 05:14:16 | 52.55428 | 9.08829 | 74° | 15km/h | 27896m | 7.7m/s | -48.5°C | 0% | 17hPa | 2.6V | 18:12:15 | 01:43:04 | 00:00:00 | |
| BIOWL1-15 | 2026-09-04 05:14:15 | 52.55427 | 9.08823 | 61° | 15km/h | 27889m | 6.2m/s | -48.5°C | 0% | 17hPa | 2.6V | 18:12:15 | 01:43:03 | 00:00:00 | |
| DO2SHX-10 | 2026-09-04 05:14:14 | 52.55425 | 9.08818 | 62° | 15km/h | 27883m | 5.1m/s | -48.5°C | 2.9% | 17.0hPa | 2.6V | 00:00:00 | 01:43:02 | 00:00:00 | |
| DO3DL | 2026-09-04 05:14:13 | 52.55425 | 9.08818 | 63° | 15km/h | 27883m | 5.2m/s | -48.5°C | 0.6% | 17.1hPa | 2.7V | 00:00:00 | 00:00:00 | 00:00:00 | |
| DO3MHA-12 | 2026-09-04 05:14:12 | 52.55423 | 9.08807 | 88° | 9km/h | 27870m | 6.1m/s | -48.5°C | 2.9% | 17.0hPa | 2.7V | 00:00:00 | 01:43:00 | 00:00:00 | |
| DL1XH-15 | 2026-09-04 05:14:11 | 52.55420 | 9.08782 | 141° | 7km/h | 27833m | 7.1m/s | -48.5°C | 3% | 17.2hPa | 2.6V | 08:30:00 | 01:42:54 | 00:00:00 | |
| DL1XH-west | 2026-09-04 05:14:11 | 52.55423 | 9.08801 | 86° | 15km/h | 27865m | 5.2m/s | -48.5°C | 0% | 17.1hPa | 2.6V | 18:12:15 | 01:42:59 | 00:00:00 | |
| DB0DAN | 2026-09-04 05:14:10 | 52.55422 | 9.08796 | 75° | 13km/h | 27858m | 7.2m/s | -48.5°C | 0.6% | 17.13hPa | 2.6V | 00:00:00 | 00:00:00 | 00:00:00 | |
| DF8AY | 2026-09-04 05:14:09 | 52.55421 | 9.08791 | 60° | 11km/h | 27851m | 6.6m/s | -48.5°C | 0% | 17.1hPa | 2.6V | 18:12:15 | 01:42:57 | 00:00:00 | |
| AA1-15 | 2026-09-04 05:14:07 | 52.55419 | 9.08784 | 93° | 7km/h | 27840m | 6.7m/s | -48.5°C | 0% | 17.2hPa | 2.7V | 18:12:15 | 01:42:55 | 00:00:00 | |
| DO2JMG | 2026-09-04 05:14:05 | 52.55422 | 9.08780 | 162° | 9km/h | 27826m | 5.5m/s | -48.5°C | 0% | 17.2hPa | 2.6V | 18:12:15 | 01:42:53 | 00:00:00 | |
| BIOWL1-15 | 2026-09-04 05:14:04 | 52.55424 | 9.08779 | 165° | 7km/h | 27821m | 5.9m/s | -48.5°C | 0% | 17.2hPa | 2.6V | 18:12:15 | 01:42:52 | 00:00:00 | |
| DJ2DS-15 | 2026-09-04 05:14:04 | 52.55425 | 9.08778 | 138° | 4km/h | 27814m | 6.8m/s | -48.5°C | 0.6% | 17.2hPa | 2.7V | 00:00:00 | 00:00:00 | 00:00:00 | |
| DL3AQ-11 | 2026-09-04 05:14:03 | 52.55426 | 9.08776 | 96° | 7km/h | 27808m | 5.6m/s | -48.5°C | 0.6% | 17.2hPa | 2.7V | 00:00:00 | 00:00:00 | 00:00:00 | |
| DO3MHA-12 | 2026-09-04 05:14:02 | 52.55426 | 9.08776 | 97° | 15km/h | 27808m | 5.5m/s | -48.4°C | 3.0% | 17.2hPa | 2.7V | 00:00:00 | 01:42:50 | 00:00:00 | |
| DL1XH-15 | 2026-09-04 05:14:01 | 52.55428 | 9.08731 | 74° | 18km/h | 27769m | 6.5m/s | -48.4°C | 2.8% | 17.4hPa | 2.7V | 08:30:00 | 01:42:44 | 00:00:00 | |
| DL1XH-west | 2026-09-04 05:14:00 | 52.55427 | 9.08765 | 102° | 18km/h | 27795m | 7.7m/s | -48.4°C | 0% | 17.3hPa | 2.6V | 18:12:15 | 01:42:48 | 00:00:00 | |
| DF8AY | 2026-09-04 05:13:59 | 52.55428 | 9.08757 | 101° | 22km/h | 27788m | 6.1m/s | -48.4°C | 0% | 17.3hPa | 2.6V | 18:12:15 | 01:42:47 | 00:00:00 | |
| S3001 | 2026-09-04 05:13:59 | 52.55429 | 9.08748 | 96° | 22km/h | 27783m | 4.9m/s | -48.4°C | 0.6% | 17.3hPa | 2.7V | 00:00:00 | 00:00:00 | 00:00:00 | |
| DB0ND-19 | 2026-09-04 05:13:58 | 52.55429 | 9.08716 | 204° | 4km/h | 27738m | 6.5m/s | 0°C | -1.0% | -1.0hPa | 2.7V | 00:00:00 | 00:00:00 | 00:00:00 | |
| DL4XJ-10 | 2026-09-04 05:13:57 | 52.55429 | 9.08739 | 86° | 11km/h | 27777m | 7.4m/s | -49.3°C | 0% | 0hPa | 2.7V | 00:00:00 | 00:00:00 | 00:00:00 | |
| DL1XH1-15 | 2026-09-04 05:13:56 | 52.55429 | 9.08716 | 204° | 4km/h | 27738m | 6.5m/s | -48.4°C | 2.9% | 17.5hPa | 2.7V | 08:30:00 | 01:42:39 | 00:00:00 | |
| AA1-15 | 2026-09-04 05:13:56 | 52.55428 | 9.08731 | 75° | 18km/h | 27769m | 6.5m/s | -48.4°C | 0% | 17.4hPa | 2.7V | 18:12:15 | 01:42:44 | 00:00:00 | |
| DO2JMG | 2026-09-04 05:13:55 | 52.55427 | 9.08725 | 72° | 13km/h | 27764m | 5.4m/s | -48.4°C | 0% | 17.4hPa | 2.7V | 18:12:15 | 01:42:43 | 00:00:00 | |
| DB0DAN | 2026-09-04 05:13:55 | 52.55427 | 9.08725 | 71° | 13km/h | 27764m | 5.4m/s | -48.4°C | 0.6% | 17.38hPa | 2.7V | 00:00:00 | 00:00:00 | 00:00:00 | |
| DO2SHX-10 | 2026-09-04 05:13:55 | 52.55427 | 9.08725 | 72° | 9km/h | 27764m | 5.4m/s | -48.3°C | 2.8% | 17.3hPa | 2.7V | 00:00:00 | 01:42:43 | 00:00:00 | |
| DC6BW-12 | 2026-09-04 05:13:54 | 52.55427 | 9.08725 | 72° | 13km/h | 27764m | 5.4m/s | -48.4°C | 0.6% | 17.4hPa | 2.7V | 00:00:00 | 00:00:00 | 00:00:00 | |
| DO3DL | 2026-09-04 05:13:53 | 52.55426 | 9.08720 | 87° | 9km/h | 27758m | 7.4m/s | -48.4°C | 0.6% | 17.4hPa | 2.7V | 00:00:00 | 00:00:00 | 00:00:00 | |
| DO3MHA-12 | 2026-09-04 05:13:52 | 52.55428 | 9.08716 | 173° | 11km/h | 27744m | 5.4m/s | -48.4°C | 2.9% | 17.4hPa | 2.7V | 00:00:00 | 01:42:40 | 00:00:00 | |
| DL1XH-15 | 2026-09-04 05:13:51 | 52.55433 | 9.08702 | 116° | 22km/h | 27707m | 5.8m/s | -48.5°C | 2.9% | 17.5hPa | 2.7V | 08:30:00 | 01:42:34 | 00:00:00 | |
| DL1XH-west | 2026-09-04 05:13:49 | 52.55429 | 9.08716 | 95° | 4km/h | 27726m | 4.7m/s | -48.4°C | 0% | 17.5hPa | 2.6V | 18:12:15 | 01:42:37 | 00:00:00 | |
| DF8AY | 2026-09-04 05:13:48 | 52.55430 | 9.08714 | 108° | 9km/h | 27721m | 5.9m/s | -48.4°C | 0% | 17.5hPa | 2.6V | 18:12:15 | 01:42:36 | 00:00:00 | |
| DL1NUX | 2026-09-04 05:13:47 | 52.55439 | 9.08675 | 110° | 13km/h | 27681m | 6.3m/s | -48.5°C | 2.9% | 17.6hPa | 2.6V | 08:30:00 | 01:42:30 | 00:00:00 | |
| DJ2DS-15 | 2026-09-04 05:13:47 | 52.55431 | 9.08708 | 117° | 13km/h | 27714m | 7.9m/s | -48.4°C | 2.9% | 17.5hPa | 2.6V | 00:00:00 | 01:42:35 | 00:00:00 | |
| DL1XH1-15 | 2026-09-04 05:13:46 | 52.55441 | 9.08670 | 126° | 13km/h | 27675m | 7.2m/s | -48.5°C | 2.9% | 17.6hPa | 2.6V | 08:30:00 | 01:42:29 | 00:00:00 | |
| AA1-15 | 2026-09-04 05:13:45 | 52.55436 | 9.08694 | 114° | 22km/h | 27701m | 6.1m/s | -48.5°C | 0% | 17.6hPa | 2.7V | 18:12:15 | 01:42:33 | 00:00:00 | |
| DO2JMG | 2026-09-04 05:13:44 | 52.55437 | 9.08686 | 108° | 18km/h | 27694m | 7.4m/s | -48.5°C | 0% | 17.6hPa | 2.6V | 18:12:15 | 01:42:32 | 00:00:00 | |
| BIOWL1-15 | 2026-09-04 05:13:43 | 52.55438 | 9.08680 | 105° | 15km/h | 27687m | 5.5m/s | -48.5°C | 0% | 17.6hPa | 2.6V | 18:12:15 | 01:42:31 | 00:00:00 | |
| DO2SHX-10 | 2026-09-04 05:13:43 | 52.55438 | 9.08680 | 106° | 13km/h | 27688m | 5.4m/s | -48.5°C | 2.9% | 17.6hPa | 2.6V | 00:00:00 | 01:42:31 | 00:00:00 | |
| DO3MHA-12 | 2026-09-04 05:13:42 | 52.55440 | 9.08674 | 111° | 9km/h | 27682m | 6.2m/s | -48.5°C | 2.9% | 17.5hPa | 2.6V | 00:00:00 | 01:42:30 | 00:00:00 | |
| DL1XH-15 | 2026-09-04 05:13:41 | 52.55445 | 9.08671 | 243° | 4km/h | 27644m | 5m/s | -48.5°C | 2.9% | 17.7hPa | 2.6V | 08:30:00 | 01:42:24 | 00:00:00 | |
| DB0DAN | 2026-09-04 05:13:40 | 52.55443 | 9.08667 | 144° | 7km/h | 27669m | 5.1m/s | -48.5°C | 0.6% | 17.64hPa | 2.7V | 00:00:00 | 00:00:00 | 00:00:00 | |
| DL1XH-west | 2026-09-04 05:13:39 | 52.55444 | 9.08666 | 182° | 4km/h | 27663m | 5.6m/s | -48.5°C | 0% | 17.6hPa | 2.6V | 18:12:15 | 01:42:27 | 00:00:00 | |
| DF8AY | 2026-09-04 05:13:38 | 52.55445 | 9.08667 | 266° | 4km/h | 27656m | 7.9m/s | -48.5°C | 0% | 17.7hPa | 2.6V | 18:12:15 | 01:42:26 | 00:00:00 | |
| EDDB2-12 | 2026-09-04 05:13:37 | 52.55445 | 9.08671 | 243° | 4km/h | 27644m | 5.0m/s | -48.5°C | 0.6% | 17.7hPa | 2.6V | 00:00:00 | 00:00:00 | 00:00:00 | |
| DL1XH1-15 | 2026-09-04 05:13:36 | 52.55456 | 9.08658 | 119° | 15km/h | 27611m | 6.1m/s | -48.5°C | 2.9% | 17.8hPa | 2.6V | 08:30:00 | 01:42:19 | 00:00:00 | |
| AA1-15 | 2026-09-04 05:13:34 | 52.55448 | 9.08670 | 151° | 13km/h | 27631m | 6.7m/s | -48.5°C | 0% | 17.8hPa | 2.7V | 18:12:15 | 01:42:22 | 00:00:00 | |
| DO2JMG | 2026-09-04 05:13:33 | 52.55451 | 9.08667 | 140° | 16km/h | 27624m | 5.9m/s | -48.5°C | 0% | 17.8hPa | 2.7V | 18:12:15 | 01:42:21 | 00:00:00 | |
| DO3MHA-12 | 2026-09-04 05:13:32 | 52.55453 | 9.08662 | 131° | 11km/h | 27618m | 7.3m/s | -48.5°C | 2.9% | 17.7hPa | 2.6V | 00:00:00 | 01:42:20 | 00:00:00 | |
| DL1XH-15 | 2026-09-04 05:13:31 | 52.55464 | 9.08640 | 234° | 2km/h | 27581m | 7.4m/s | -48.5°C | 2.9% | 17.9hPa | 2.6V | 08:30:00 | 01:42:14 | 00:00:00 | |
| DL1XH-west | 2026-09-04 05:13:29 | 52.55459 | 9.08647 | 121° | 15km/h | 27599m | 6.6m/s | -48.5°C | 0% | 17.8hPa | 2.7V | 18:12:15 | 01:42:17 | 00:00:00 | |
| DF8AY | 2026-09-04 05:13:28 | 52.55461 | 9.08643 | 133° | 13km/h | 27593m | 6m/s | -48.5°C | 0% | 17.9hPa | 2.7V | 18:12:15 | 01:42:16 | 00:00:00 | |
| DJ2DS-15 | 2026-09-04 05:13:28 | 52.55463 | 9.08640 | 151° | 5km/h | 27587m | 5.5m/s | -48.5°C | 0.6% | 17.9hPa | 2.6V | 00:00:00 | 00:00:00 | 00:00:00 | |
| DO2SHX-10 | 2026-09-04 05:13:27 | 52.55463 | 9.08640 | 152° | 5km/h | 27588m | 5.4m/s | -48.4°C | 2.9% | 17.8hPa | 2.6V | 00:00:00 | 01:42:15 | 00:00:00 | |
| DL1XH1-15 | 2026-09-04 05:13:26 | 52.55461 | 9.08650 | 123° | 5km/h | 27548m | 5.7m/s | -48.8°C | 3% | 18hPa | 2.6V | 08:30:00 | 01:42:09 | 00:00:00 | |
| DB0DAN | 2026-09-04 05:13:25 | 52.55463 | 9.08642 | 299° | 7km/h | 27574m | 7.1m/s | -48.6°C | 0.6% | 17.89hPa | 2.6V | 00:00:00 | 00:00:00 | 00:00:00 | |
| AA1-15 | 2026-09-04 05:13:24 | 52.55462 | 9.08645 | 305° | 11km/h | 27567m | 5.6m/s | -48.6°C | 0% | 17.9hPa | 2.7V | 18:12:15 | 01:42:12 | 00:00:00 | |
| HSKMA3-T | 2026-09-04 05:13:23 | 52.55461 | 9.08649 | 297° | 7km/h | 27561m | 6.1m/s | -48.7°C | 0% | 17.9hPa | 2.7V | 18:12:15 | 01:42:11 | 00:00:00 | |
| DO2JMG | 2026-09-04 05:13:22 | 52.55461 | 9.08651 | 264° | 2km/h | 27555m | 6.9m/s | -48.7°C | 0% | 17.9hPa | 2.6V | 18:12:15 | 01:42:10 | 00:00:00 | |
| DO3MHA-12 | 2026-09-04 05:13:22 | 52.55460 | 9.08651 | 264° | 9km/h | 27555m | 6.8m/s | -48.7°C | 3.0% | 17.9hPa | 2.6V | 00:00:00 | 01:42:10 | 00:00:00 | |
| DL1NUX | 2026-09-04 05:13:21 | 52.55464 | 9.08625 | 123° | 13km/h | 27518m | 7.6m/s | -48.8°C | 2.9% | 18hPa | 2.6V | 08:30:00 | 01:42:04 | 00:00:00 | |
| BIOWL1-15 | 2026-09-04 05:13:21 | 52.55462 | 9.08642 | 92° | 13km/h | 27536m | 7.3m/s | -48.8°C | 0% | 18hPa | 2.6V | 18:12:15 | 01:42:07 | 00:00:00 | |
| DM0DOS-11 | 2026-09-04 05:13:21 | 52.55466 | 9.08622 | 147° | 9km/h | 27511m | 5.8m/s | -48.8°C | 2.9% | 18.1hPa | 2.6V | 08:30:00 | 01:42:03 | 00:00:00 | |
| DL1XH-west | 2026-09-04 05:13:18 | 52.55462 | 9.08636 | 93° | 15km/h | 27530m | 5.3m/s | -48.8°C | 0% | 18hPa | 2.7V | 18:12:15 | 01:42:06 | 00:00:00 | |
| DF8AY | 2026-09-04 05:13:17 | 52.55463 | 9.08630 | 103° | 15km/h | 27524m | 5.1m/s | -48.8°C | 0% | 18hPa | 2.7V | 18:12:15 | 01:42:05 | 00:00:00 | |
| AA1-15 | 2026-09-04 05:13:13 | 52.55468 | 9.08622 | 285° | 4km/h | 27500m | 7.5m/s | -48.8°C | 0% | 18.1hPa | 2.7V | 18:12:15 | 01:42:01 | 00:00:00 | |
| DO2JMG | 2026-09-04 05:13:12 | 52.55467 | 9.08624 | 320° | 9km/h | 27493m | 6.5m/s | -48.8°C | 0% | 18.1hPa | 2.7V | 18:12:15 | 01:42:00 | 00:00:00 | |
| DO3MHA-12 | 2026-09-04 05:13:12 | 52.55467 | 9.08623 | 320° | 9km/h | 27493m | 6.5m/s | -48.7°C | 3.0% | 18.1hPa | 2.7V | 00:00:00 | 01:42:00 | 08:30:00 | |
| DL1XH-15 | 2026-09-04 05:13:11 | 52.55460 | 9.08625 | 66° | 9km/h | 27455m | 6.1m/s | -48.9°C | 2.9% | 18.2hPa | 2.6V | 08:30:00 | 01:41:54 | 00:00:00 | |
| DB0DAN | 2026-09-04 05:13:10 | 52.55463 | 9.08629 | 322° | 7km/h | 27481m | 6.7m/s | -48.9°C | 0.6% | 18.18hPa | 2.6V | 00:00:00 | 00:00:00 | 00:00:00 | |
| DM0DOS-11 | 2026-09-04 05:13:10 | 52.55459 | 9.08621 | 88° | 9km/h | 27450m | 4.8m/s | -49°C | 2.9% | 18.2hPa | 2.6V | 08:30:00 | 01:41:53 | 00:00:00 | |
| BIOWL1-15 | 2026-09-04 05:13:09 | 52.55462 | 9.08630 | 334° | 4km/h | 27474m | 6.1m/s | -48.9°C | 0% | 18.2hPa | 2.6V | 18:12:15 | 01:41:57 | 00:00:00 | |
| DL1XH-west | 2026-09-04 05:13:08 | 52.55461 | 9.08630 | 50° | 4km/h | 27468m | 5.5m/s | -48.9°C | 0% | 18.2hPa | 2.6V | 18:12:15 | 01:41:56 | 00:00:00 | |
| DF8AY | 2026-09-04 05:13:06 | 52.55459 | 9.08625 | 66° | 9km/h | 27455m | 6.1m/s | -48.9°C | 0% | 18.2hPa | 2.6V | 18:12:15 | 01:41:54 | 00:00:00 | |
| DO2JMG | 2026-09-04 05:13:02 | 52.55465 | 9.08614 | 176° | 15km/h | 27431m | 5.5m/s | -49.1°C | 0% | 18.3hPa | 2.7V | 18:12:15 | 01:41:50 | 00:00:00 | |
| DF8AY | 2026-09-04 05:13:01 | 52.55468 | 9.08618 | 116° | 5km/h | 27389m | 6.4m/s | -49.3°C | 0% | 18.4hPa | 2.6V | 18:12:15 | 01:41:43 | 00:00:00 | |
| DL1NUX | 2026-09-04 05:13:01 | 52.55468 | 9.08619 | 35° | 4km/h | 27395m | 6.3m/s | -49.3°C | 3.1% | 18.4hPa | 2.7V | 08:30:00 | 01:41:44 | 00:00:00 | |
| DL1ZP-14 | 2026-09-04 05:13:01 | 52.55471 | 9.08619 | 330° | 5km/h | 27407m | 5.2m/s | -49.2°C | 0.6% | 18.4hPa | 2.6V | 00:00:00 | 00:00:00 | 00:00:00 | |
| DM0DOS-11 | 2026-09-04 05:13:00 | 52.55468 | 9.08618 | 116° | 5km/h | 27389m | 6.4m/s | -49.3°C | 3.1% | 18.4hPa | 2.6V | 08:30:00 | 01:41:43 | 00:00:00 | |
| BIOWL1-15 | 2026-09-04 05:12:58 | 52.55471 | 9.08619 | 331° | 7km/h | 27407m | 5.2m/s | -49.2°C | 0% | 18.4hPa | 2.6V | 18:12:15 | 01:41:46 | 00:00:00 | |
| S3001 | 2026-09-04 05:12:57 | 52.55468 | 9.08619 | 35° | 2km/h | 27396m | 6.3m/s | -49.3°C | 0.6% | 18.4hPa | 2.7V | 00:00:00 | 00:00:00 | 00:00:00 | |
| DL1XH1-15 | 2026-09-04 05:12:56 | 52.55474 | 9.08600 | 113° | 15km/h | 27364m | 5.8m/s | -49.5°C | 3% | 18.5hPa | 2.7V | 08:30:00 | 01:41:39 | 00:00:00 | |
| DB0ND-19 | 2026-09-04 05:12:56 | 52.55468 | 9.08618 | 116° | 5km/h | 27389m | 6.4m/s | 0°C | -1.0% | -1.0hPa | 2.6V | 00:00:00 | 00:00:00 | 00:00:00 | |
| DB0DAN | 2026-09-04 05:12:55 | 52.55468 | 9.08618 | 116° | 5km/h | 27389m | 6.4m/s | -49.3°C | 0.6% | 18.43hPa | 2.6V | 00:00:00 | 00:00:00 | 00:00:00 | |
| AA1-15 | 2026-09-04 05:12:52 | 52.55472 | 9.08605 | 112° | 13km/h | 27371m | 7m/s | -49.5°C | 0% | 18.4hPa | 2.6V | 18:12:15 | 01:41:40 | 00:00:00 | |
| DJ2DS-15 | 2026-09-04 05:12:52 | 52.55474 | 9.08600 | 113° | 13km/h | 27365m | 5.9m/s | -49.5°C | 0.6% | 18.5hPa | 2.7V | 00:00:00 | 00:00:00 | 00:00:00 | |
| DO3MHA-11 | 2026-09-04 05:12:51 | 52.55474 | 9.08600 | 114° | 11km/h | 27365m | 5.8m/s | -49.4°C | 3.0% | 18.4hPa | 2.7V | 00:00:00 | 01:41:39 | 00:00:00 | |
| DM0DOS-11 | 2026-09-04 05:12:50 | 52.55490 | 9.08583 | 214° | 5km/h | 27328m | 7m/s | -49.6°C | 3.1% | 18.6hPa | 2.7V | 08:30:00 | 01:41:33 | 00:00:00 | |
| DL1XH-west | 2026-09-04 05:12:48 | 52.55482 | 9.08586 | 153° | 18km/h | 27347m | 5.5m/s | -49.5°C | 0% | 18.5hPa | 2.6V | 18:12:15 | 01:41:36 | 00:00:00 | |
| GOEST3-10 | 2026-09-04 05:12:48 | 52.55482 | 9.08586 | 153° | 11km/h | 27347m | 5.4m/s | -49.4°C | 3.0% | 18.5hPa | 2.6V | 00:00:00 | 01:41:36 | 00:00:00 | |
| DJ2DS-15 | 2026-09-04 05:12:47 | 52.55486 | 9.08584 | 165° | 11km/h | 27342m | 4.7m/s | -49.5°C | 3.0% | 18.5hPa | 2.6V | 00:00:00 | 01:41:35 | 00:00:00 | |
| DL1XH1-15 | 2026-09-04 05:12:46 | 52.55495 | 9.08589 | 174° | 9km/h | 27303m | 5.6m/s | -49.6°C | 3.2% | 18.6hPa | 2.6V | 08:30:00 | 01:41:29 | 00:00:00 | |
| DF8AY | 2026-09-04 05:12:45 | 52.55491 | 9.08583 | 215° | 5km/h | 27329m | 7m/s | -49.6°C | 0% | 18.6hPa | 2.7V | 18:12:15 | 01:41:33 | 00:00:00 | |
| DO2JMG | 2026-09-04 05:12:41 | 52.55496 | 9.08589 | 175° | 9km/h | 27304m | 5.6m/s | -49.6°C | 0% | 18.6hPa | 2.6V | 18:12:15 | 01:41:29 | 00:00:00 | |
| DL1XH-west | 2026-09-04 05:12:37 | 52.55503 | 9.08579 | 129° | 16km/h | 27280m | 5.3m/s | -49.6°C | 0% | 18.7hPa | 2.6V | 18:12:15 | 01:41:25 | 00:00:00 | |
| DL4XJ-10 | 2026-09-04 05:12:37 | 52.55503 | 9.08578 | 130° | 9km/h | 27281m | 5.3m/s | -50.6°C | 0% | 0hPa | 2.6V | 00:00:00 | 00:00:00 | 00:00:00 | |
| DL1XH1-15 | 2026-09-04 05:12:36 | 52.55523 | 9.08556 | 261° | 2km/h | 27244m | 5.5m/s | -49.7°C | 3.1% | 18.8hPa | 2.6V | 08:30:00 | 01:41:19 | 00:00:00 | |
| DF8AY | 2026-09-04 05:12:34 | 52.55515 | 9.08562 | 149° | 22km/h | 27262m | 4.8m/s | -49.6°C | 0% | 18.8hPa | 2.7V | 18:12:15 | 01:41:22 | 00:00:00 | |
| AA1-15 | 2026-09-04 05:12:31 | 52.55523 | 9.08556 | 261° | 2km/h | 27244m | 5.5m/s | -49.7°C | 0% | 18.8hPa | 2.6V | 18:12:15 | 01:41:19 | 00:00:00 | |
| DO2JMG | 2026-09-04 05:12:30 | 52.55522 | 9.08557 | 294° | 5km/h | 27238m | 5.4m/s | -49.7°C | 0% | 18.9hPa | 2.6V | 18:12:15 | 01:41:18 | 00:00:00 | |
| DL1XH-west | 2026-09-04 05:12:27 | 52.55524 | 9.08565 | 212° | 7km/h | 27220m | 5.4m/s | -49.6°C | 0% | 18.9hPa | 2.7V | 18:12:15 | 01:41:15 | 00:00:00 | |
| DJ2DS-15 | 2026-09-04 05:12:27 | 52.55523 | 9.08565 | 213° | 13km/h | 27221m | 5.3m/s | -49.5°C | 3.2% | 18.9hPa | 2.6V | 00:00:00 | 01:41:15 | 00:00:00 | |
| DL1XH1-15 | 2026-09-04 05:12:26 | 52.55536 | 9.08547 | 140° | 20km/h | 27184m | 5.9m/s | -49.5°C | 3.1% | 19hPa | 2.6V | 08:30:00 | 01:41:09 | 00:00:00 | |
| DB0DAN | 2026-09-04 05:12:25 | 52.55527 | 9.08565 | 141° | 5km/h | 27209m | 7.4m/s | -49.6°C | 0.7% | 18.94hPa | 2.6V | 00:00:00 | 00:00:00 | 00:00:00 | |
| DF8AY | 2026-09-04 05:12:23 | 52.55529 | 9.08558 | 124° | 15km/h | 27197m | 5.4m/s | -49.6°C | 0% | 19hPa | 2.7V | 18:12:15 | 01:41:11 | 00:00:00 | |
| AA1-15 | 2026-09-04 05:12:20 | 52.55539 | 9.08542 | 140° | 18km/h | 27178m | 5.1m/s | -49.5°C | 0% | 19hPa | 2.6V | 18:12:15 | 01:41:08 | 00:00:00 | |
| DO2JMG | 2026-09-04 05:12:19 | 52.55542 | 9.08538 | 133° | 15km/h | 27172m | 6.8m/s | -49.5°C | 0% | 19hPa | 2.6V | 18:12:15 | 01:41:07 | 00:00:00 | |
| BIOWL1-15 | 2026-09-04 05:12:17 | 52.55544 | 9.08530 | 84° | 7km/h | 27159m | 6.3m/s | -49.4°C | 0% | 19.1hPa | 2.7V | 18:12:15 | 01:41:05 | 00:00:00 | |
| DL1XH-west | 2026-09-04 05:12:16 | 52.55544 | 9.08527 | 91° | 7km/h | 27152m | 6.5m/s | -49.4°C | 0% | 19.1hPa | 2.6V | 18:12:15 | 01:41:04 | 00:00:00 | |
| DD8BA-10 | 2026-09-04 05:12:16 | 52.55544 | 9.08527 | 91° | 13km/h | 27152m | 6.5m/s | -49.3°C | 3.2% | 19.1hPa | 2.6V | 00:00:00 | 00:00:00 | 00:00:00 | |
| DO3DL | 2026-09-04 05:12:15 | 52.55544 | 9.08527 | 92° | 7km/h | 27152m | 6.5m/s | -49.4°C | 0.7% | 19.1hPa | 2.6V | 00:00:00 | 00:00:00 | 00:00:00 | |
| DL1NUX | 2026-09-04 05:12:14 | 52.55551 | 9.08494 | 121° | 13km/h | 27110m | 7m/s | -49.2°C | 3.1% | 19.2hPa | 2.6V | 08:30:00 | 01:40:57 | 00:00:00 | |
| DF8AY | 2026-09-04 05:12:13 | 52.55547 | 9.08517 | 116° | 13km/h | 27135m | 5.2m/s | -49.3°C | 0% | 19.2hPa | 2.6V | 18:12:15 | 01:41:01 | 00:00:00 | |
| HSKMA3-T | 2026-09-04 05:12:11 | 52.55550 | 9.08499 | 104° | 15km/h | 27117m | 5.8m/s | -49.2°C | 0% | 19.2hPa | 2.6V | 18:12:15 | 01:40:58 | 00:00:00 | |
| DL1XH-15 | 2026-09-04 05:12:11 | 52.55560 | 9.08484 | 142° | 13km/h | 27092m | 6.5m/s | -49.1°C | 3% | 19.3hPa | 2.7V | 08:30:00 | 01:40:54 | 00:00:00 | |
| DB0DAN | 2026-09-04 05:12:10 | 52.55550 | 9.08499 | 104° | 15km/h | 27117m | 5.8m/s | -49.2°C | 0.6% | 19.23hPa | 2.6V | 00:00:00 | 00:00:00 | 00:00:00 | |
| AA1-15 | 2026-09-04 05:12:09 | 52.55551 | 9.08494 | 121° | 13km/h | 27110m | 7m/s | -49.2°C | 0% | 19.2hPa | 2.6V | 18:12:15 | 01:40:57 | 00:00:00 | |
| DO2JMG | 2026-09-04 05:12:08 | 52.55554 | 9.08490 | 144° | 15km/h | 27103m | 6.6m/s | -49.2°C | 0% | 19.3hPa | 2.6V | 18:12:15 | 01:40:56 | 00:00:00 | |
| DL1XH-west | 2026-09-04 05:12:06 | 52.55560 | 9.08484 | 143° | 13km/h | 27092m | 6.6m/s | -49.1°C | 0% | 19.3hPa | 2.7V | 18:12:15 | 01:40:54 | 00:00:00 | |
| DF8AY | 2026-09-04 05:12:03 | 52.55563 | 9.08470 | 96° | 13km/h | 27072m | 5.6m/s | -49°C | 0% | 19.3hPa | 2.6V | 18:12:15 | 01:40:51 | 00:00:00 | |
| HSKMA3-T | 2026-09-04 05:12:01 | 52.55566 | 9.08457 | 107° | 9km/h | 27054m | 5.2m/s | -49°C | 0% | 19.4hPa | 2.7V | 18:12:15 | 01:40:48 | 00:00:00 | |
| DL1XH-15 | 2026-09-04 05:12:01 | 52.55563 | 9.08437 | 83° | 15km/h | 27030m | 4.8m/s | -49.1°C | 3% | 19.5hPa | 2.7V | 08:30:00 | 01:40:44 | 00:00:00 | |
| AA1-15 | 2026-09-04 05:11:59 | 52.55566 | 9.08453 | 88° | 11km/h | 27048m | 6.4m/s | -49°C | 0% | 19.4hPa | 2.6V | 18:12:15 | 01:40:47 | 00:00:00 | |
| DO2JMG | 2026-09-04 05:11:58 | 52.55565 | 9.08448 | 73° | 13km/h | 27041m | 7m/s | -49°C | 0% | 19.4hPa | 2.6V | 18:12:15 | 01:40:46 | 00:00:00 | |
| BIOWL1-15 | 2026-09-04 05:11:56 | 52.55563 | 9.08437 | 84° | 15km/h | 27030m | 4.8m/s | -49.1°C | 0% | 19.5hPa | 2.7V | 18:12:15 | 01:40:44 | 00:00:00 | |
| DB0DAN | 2026-09-04 05:11:55 | 52.55564 | 9.08431 | 102° | 13km/h | 27024m | 6.8m/s | -49.1°C | 0.6% | 19.51hPa | 2.7V | 00:00:00 | 00:00:00 | 00:00:00 | |
| DL1XH-west | 2026-09-04 05:11:55 | 52.55564 | 9.08431 | 102° | 15km/h | 27024m | 6.8m/s | -49.1°C | 0% | 19.5hPa | 2.7V | 18:12:15 | 01:40:43 | 00:00:00 | |
| DF8AY | 2026-09-04 05:11:52 | 52.55572 | 9.08415 | 138° | 20km/h | 27006m | 4.2m/s | -49.1°C | 0% | 19.5hPa | 2.6V | 18:12:15 | 01:40:40 | 00:00:00 | |
| AA1-15 | 2026-09-04 05:11:49 | 52.55576 | 9.08394 | 70° | 20km/h | 26989m | 6.7m/s | -49°C | 0% | 19.6hPa | 2.7V | 18:12:15 | 01:40:37 | 00:00:00 | |
| DO2JMG | 2026-09-04 05:11:47 | 52.55570 | 9.08382 | 35° | 18km/h | 26975m | 7m/s | -49°C | 0% | 19.6hPa | 2.6V | 18:12:15 | 01:40:35 | 00:00:00 | |
| BIOWL1-15 | 2026-09-04 05:11:46 | 52.55566 | 9.08379 | 18° | 15km/h | 26968m | 6.4m/s | -49°C | 0% | 19.6hPa | 2.6V | 18:12:15 | 01:40:34 | 00:00:00 | |
| DL1XH-west | 2026-09-04 05:11:45 | 52.55563 | 9.08378 | 5° | 13km/h | 26962m | 5.3m/s | -49°C | 0% | 19.7hPa | 2.7V | 18:12:15 | 01:40:33 | 00:00:00 | |
| DF8AY | 2026-09-04 05:11:41 | 52.55553 | 9.08369 | 77° | 11km/h | 26939m | 5.4m/s | -49°C | 0% | 19.8hPa | 2.6V | 18:12:15 | 01:40:29 | 00:00:00 | |
| DB0DAN | 2026-09-04 05:11:40 | 52.55553 | 9.08364 | 109° | 11km/h | 26933m | 7.2m/s | -48.9°C | 0.6% | 19.79hPa | 2.6V | 00:00:00 | 00:00:00 | 00:00:00 | |
| HSKMA3-T | 2026-09-04 05:11:39 | 52.55555 | 9.08360 | 134° | 16km/h | 26925m | 7.3m/s | -48.9°C | 0% | 19.8hPa | 2.7V | 18:12:15 | 01:40:27 | 00:00:00 | |
| AA1-15 | 2026-09-04 05:11:38 | 52.55558 | 9.08355 | 138° | 18km/h | 26919m | 5.4m/s | -48.8°C | 0% | 19.8hPa | 2.7V | 18:12:15 | 01:40:26 | 00:00:00 | |
| GOEST3-10 | 2026-09-04 05:11:38 | 52.55558 | 9.08355 | 138° | 15km/h | 26919m | 5.4m/s | -48.8°C | 3.0% | 19.8hPa | 2.7V | 00:00:00 | 01:40:26 | 00:00:00 | |
| DL1NUX | 2026-09-04 05:11:37 | 52.55555 | 9.08328 | 12° | 13km/h | 26882m | 6.1m/s | -48.8°C | 3% | 19.9hPa | 2.6V | 08:30:00 | 01:40:20 | 00:00:00 | |
| BIOWL1-15 | 2026-09-04 05:11:37 | 52.55562 | 9.08338 | 67° | 15km/h | 26901m | 5.6m/s | -48.8°C | 0% | 19.9hPa | 2.6V | 18:12:15 | 01:40:23 | 00:00:00 | |
| DO2JMG | 2026-09-04 05:11:36 | 52.55563 | 9.08344 | 101° | 15km/h | 26907m | 6.6m/s | -48.8°C | 0% | 19.8hPa | 2.6V | 18:12:15 | 01:40:24 | 00:00:00 | |
| DL1XH-west | 2026-09-04 05:11:34 | 52.55560 | 9.08333 | 47° | 15km/h | 26895m | 6m/s | -48.8°C | 0% | 19.9hPa | 2.7V | 18:12:15 | 01:40:22 | 00:00:00 | |
| DF7PN | 2026-09-04 05:11:34 | 52.55560 | 9.08333 | 46° | 13km/h | 26895m | 6.0m/s | -48.8°C | 0.6% | 19.9hPa | 2.6V | 00:00:00 | 00:00:00 | 00:00:00 | |
| GOEST3-10 | 2026-09-04 05:11:33 | 52.55558 | 9.08330 | 28° | 15km/h | 26889m | 6.8m/s | -48.7°C | 3.0% | 19.8hPa | 2.6V | 00:00:00 | 00:00:00 | 00:00:00 | |
| DO2SHX-10 | 2026-09-04 05:11:32 | 52.55555 | 9.08328 | 13° | 15km/h | 26882m | 6.1m/s | -48.8°C | 3.0% | 19.9hPa | 2.6V | 00:00:00 | 01:40:20 | 00:00:00 | |
| DL1XH-15 | 2026-09-04 05:11:31 | 52.55540 | 9.08317 | 158° | 5km/h | 26846m | 7.7m/s | -48.9°C | 3% | 20hPa | 2.6V | 08:30:00 | 01:40:14 | 00:00:00 | |
| DF8AY | 2026-09-04 05:11:30 | 52.55548 | 9.08326 | 16° | 16km/h | 26870m | 7.4m/s | -48.8°C | 0% | 20hPa | 2.6V | 18:12:15 | 01:40:18 | 00:00:00 | |
| HSKMA3-T | 2026-09-04 05:11:29 | 52.55544 | 9.08323 | 27° | 15km/h | 26864m | 5.7m/s | -48.8°C | 0% | 20hPa | 2.6V | 18:12:15 | 01:40:17 | 00:00:00 | |
| AA1-15 | 2026-09-04 05:11:27 | 52.55540 | 9.08318 | 65° | 5km/h | 26853m | 6.2m/s | -48.9°C | 0% | 20hPa | 2.6V | 18:12:15 | 01:40:15 | 00:00:00 | |
| DO2JMG | 2026-09-04 05:11:25 | 52.55542 | 9.08316 | 172° | 11km/h | 26839m | 6.5m/s | -48.8°C | 0% | 20.1hPa | 2.6V | 18:12:15 | 01:40:13 | 00:00:00 | |
| BIOWL1-15 | 2026-09-04 05:11:24 | 52.55545 | 9.08315 | 164° | 13km/h | 26833m | 6.1m/s | -48.8°C | 0% | 20.1hPa | 2.6V | 18:12:15 | 01:40:12 | 00:00:00 | |
| DL1XH-west | 2026-09-04 05:11:23 | 52.55548 | 9.08313 | 142° | 13km/h | 26826m | 6.7m/s | -48.8°C | 0% | 20.1hPa | 2.7V | 18:12:15 | 01:40:11 | 00:00:00 | |
| BIOWL9-15 | 2026-09-04 05:11:23 | 52.55550 | 9.08309 | 115° | 11km/h | 26821m | 4.9m/s | -48.8°C | 0.6% | 20.1hPa | 2.7V | 00:00:00 | 00:00:00 | 00:00:00 | |
| DO3MHA-12 | 2026-09-04 05:11:22 | 52.55550 | 9.08309 | 116° | 9km/h | 26821m | 4.8m/s | 0°C | 0% | 0hPa | 2.7V | 00:00:00 | 01:40:10 | 00:00:00 | |
| DL1XH-15 | 2026-09-04 05:11:21 | 52.55550 | 9.08290 | 83° | 9km/h | 26786m | 7.1m/s | -48.8°C | 3% | 20.2hPa | 2.7V | 08:30:00 | 01:40:04 | 00:00:00 | |
| DO9LL-15 | 2026-09-04 05:11:21 | 52.55551 | 9.08304 | 100° | 9km/h | 26816m | 4.6m/s | -48.8°C | 2.9% | 20.1hPa | 2.7V | 00:00:00 | 01:40:09 | 00:00:00 | |
| DM0DOS-11 | 2026-09-04 05:11:20 | 52.55550 | 9.08285 | 89° | 13km/h | 26779m | 6.1m/s | -48.8°C | 3.1% | 20.2hPa | 2.6V | 08:30:00 | 01:40:03 | 00:00:00 | |
| DF8AY | 2026-09-04 05:11:20 | 52.55551 | 9.08300 | 92° | 9km/h | 26810m | 6.4m/s | -48.9°C | 0% | 20.1hPa | 2.6V | 18:12:15 | 01:40:08 | 00:00:00 | |
| HSKMA3-T | 2026-09-04 05:11:20 | 52.55551 | 9.08297 | 93° | 5km/h | 26804m | 6.7m/s | -48.9°C | 0% | 20.2hPa | 2.6V | 18:12:15 | 01:40:07 | 00:00:00 | |
| AA1-15 | 2026-09-04 05:11:17 | 52.55551 | 9.08293 | 83° | 5km/h | 26792m | 5m/s | -48.8°C | 0% | 20.2hPa | 2.7V | 18:12:15 | 01:40:05 | 00:00:00 | |
| DL1XH1-15 | 2026-09-04 05:11:16 | 52.55555 | 9.08267 | 125° | 11km/h | 26755m | 4.9m/s | -48.9°C | 3% | 20.3hPa | 2.7V | 08:30:00 | 01:39:59 | 00:00:00 | |
| DO2JMG | 2026-09-04 05:11:15 | 52.55550 | 9.08285 | 89° | 13km/h | 26779m | 6.1m/s | -48.8°C | 0% | 20.2hPa | 2.6V | 18:12:15 | 01:40:03 | 00:00:00 | |
| BIOWL1-15 | 2026-09-04 05:11:13 | 52.55552 | 9.08275 | 115° | 11km/h | 26767m | 7.1m/s | -48.8°C | 0% | 20.3hPa | 2.6V | 18:12:15 | 01:40:01 | 00:00:00 | |
| DL1XH-west | 2026-09-04 05:11:12 | 52.55553 | 9.08271 | 130° | 11km/h | 26761m | 6m/s | -48.8°C | 0% | 20.3hPa | 2.7V | 18:12:15 | 01:40:00 | 00:00:00 | |
| DO3MHA-12 | 2026-09-04 05:11:12 | 52.55553 | 9.08271 | 131° | 13km/h | 26761m | 5.9m/s | 0°C | 0% | 0hPa | 2.6V | 00:00:00 | 01:40:00 | 00:00:00 | |
| DL1LOL-11 | 2026-09-04 05:11:11 | 52.55553 | 9.08271 | 131° | 11km/h | 26761m | 6.0m/s | -48.8°C | 0.6% | 20.3hPa | 2.6V | 00:00:00 | 00:00:00 | 00:00:00 | |
| DB0DAN | 2026-09-04 05:11:10 | 52.55556 | 9.08263 | 113° | 13km/h | 26749m | 7.3m/s | -48.9°C | 0.6% | 20.35hPa | 2.6V | 00:00:00 | 00:00:00 | 00:00:00 | |
| DF8AY | 2026-09-04 05:11:09 | 52.55557 | 9.08257 | 99° | 16km/h | 26742m | 7.1m/s | -48.8°C | 0% | 20.4hPa | 2.6V | 18:12:15 | 01:39:57 | 00:00:00 | |
| HSKMA3-T | 2026-09-04 05:11:08 | 52.55558 | 9.08250 | 94° | 16km/h | 26736m | 5.4m/s | -48.8°C | 0% | 20.4hPa | 2.6V | 18:12:15 | 01:39:56 | 00:00:00 | |
| GOEST3-10 | 2026-09-04 05:11:08 | 52.55558 | 9.08250 | 95° | 11km/h | 26736m | 5.3m/s | -48.7°C | 3.0% | 20.3hPa | 2.6V | 00:00:00 | 01:39:56 | 08:30:00 | |
| DM0DOS-11 | 2026-09-04 05:11:07 | 52.55560 | 9.08237 | 110° | 9km/h | 26717m | 4.7m/s | -48.7°C | 2.9% | 20.5hPa | 2.7V | 08:30:00 | 01:39:53 | 00:00:00 | |
| DJ2DS-15 | 2026-09-04 05:11:07 | 52.55558 | 9.08245 | 99° | 7km/h | 26730m | 7.1m/s | -48.7°C | 3.0% | 20.3hPa | 2.6V | 00:00:00 | 01:39:55 | 00:00:00 | |
| DL1XH1-15 | 2026-09-04 05:11:06 | 52.55563 | 9.08219 | 121° | 11km/h | 26690m | 7.5m/s | -48.7°C | 3% | 20.5hPa | 2.6V | 08:30:00 | 01:39:49 | 00:00:00 | |
| AA1-15 | 2026-09-04 05:11:06 | 52.55559 | 9.08240 | 108° | 9km/h | 26723m | 6.4m/s | -48.7°C | 0% | 20.4hPa | 2.6V | 18:12:15 | 01:39:54 | 00:00:00 | |
| DO2JMG | 2026-09-04 05:11:05 | 52.55559 | 9.08237 | 110° | 9km/h | 26717m | 4.7m/s | -48.7°C | 0% | 20.5hPa | 2.7V | 18:12:15 | 01:39:53 | 00:00:00 | |
| BIOWL1-15 | 2026-09-04 05:11:02 | 52.55561 | 9.08223 | 107° | 13km/h | 26697m | 6.4m/s | -48.7°C | 0% | 20.5hPa | 2.6V | 18:12:15 | 01:39:50 | 00:00:00 | |
| DL1XH-west | 2026-09-04 05:11:01 | 52.55562 | 9.08219 | 122° | 11km/h | 26690m | 7.5m/s | -48.7°C | 0% | 20.5hPa | 2.6V | 18:12:15 | 01:39:49 | 00:00:00 | |
| DF8AY | 2026-09-04 05:10:58 | 52.55566 | 9.08210 | 101° | 7km/h | 26674m | 7m/s | -48.6°C | 0% | 20.6hPa | 2.7V | 18:12:15 | 01:39:46 | 00:00:00 | |
| DL8DAS-14 | 2026-09-04 05:10:58 | 52.55566 | 9.08207 | 80° | 9km/h | 26668m | 6.6m/s | -48.6°C | 0.6% | 20.6hPa | 2.6V | 00:00:00 | 00:00:00 | 00:00:00 | |
| DM0DOS-11 | 2026-09-04 05:10:57 | 52.55565 | 9.08201 | 83° | 5km/h | 26655m | 7.4m/s | -48.6°C | 3% | 20.6hPa | 2.6V | 08:30:00 | 01:39:43 | 00:00:00 | |
| DL1NUX | 2026-09-04 05:10:56 | 52.55565 | 9.08195 | 66° | 5km/h | 26629m | 6.5m/s | -48.5°C | 3% | 20.7hPa | 2.6V | 08:30:00 | 01:39:39 | 00:00:00 | |
| AA1-15 | 2026-09-04 05:10:56 | 52.55566 | 9.08203 | 73° | 9km/h | 26661m | 4.8m/s | -48.6°C | 0% | 20.6hPa | 2.6V | 18:12:15 | 01:39:44 | 00:00:00 | |
| DL3AQ-11 | 2026-09-04 05:10:56 | 52.55565 | 9.08201 | 83° | 4km/h | 26656m | 7.4m/s | -48.6°C | 0.6% | 20.6hPa | 2.6V | 00:00:00 | 00:00:00 | 00:00:00 | |
| DB0DAN | 2026-09-04 05:10:55 | 52.55565 | 9.08201 | 83° | 5km/h | 26655m | 7.4m/s | -48.6°C | 0.6% | 20.65hPa | 2.6V | 00:00:00 | 00:00:00 | 00:00:00 | |
| DO2JMG | 2026-09-04 05:10:54 | 52.55565 | 9.08199 | 122° | 2km/h | 26648m | 6.4m/s | -48.6°C | 0% | 20.7hPa | 2.7V | 18:12:15 | 01:39:42 | 00:00:00 | |
| S3001 | 2026-09-04 05:10:53 | 52.55566 | 9.08197 | 76° | 2km/h | 26637m | 7.3m/s | -48.5°C | 0.6% | 20.7hPa | 2.6V | 00:00:00 | 00:00:00 | 00:00:00 | |
| BIOWL9-15 | 2026-09-04 05:10:52 | 52.55565 | 9.08195 | 66° | 4km/h | 26630m | 6.6m/s | -48.5°C | 0.6% | 20.7hPa | 2.6V | 00:00:00 | 00:00:00 | 00:00:00 | |
| DL1XH-15 | 2026-09-04 05:10:51 | 52.55565 | 9.08191 | 50° | 2km/h | 26599m | 7.1m/s | -48.4°C | 2.9% | 20.8hPa | 2.6V | 08:30:00 | 01:39:34 | 00:00:00 | |
| BIOWL1-15 | 2026-09-04 05:10:51 | 52.55565 | 9.08195 | 67° | 5km/h | 26629m | 6.6m/s | -48.5°C | 0% | 20.7hPa | 2.6V | 18:12:15 | 01:39:39 | 00:00:00 | |
| DL1XH-west | 2026-09-04 05:10:50 | 52.55565 | 9.08193 | 66° | 5km/h | 26624m | 5.5m/s | -48.4°C | 0% | 20.7hPa | 2.6V | 18:12:15 | 01:39:38 | 00:00:00 | |
| DF8AY | 2026-09-04 05:10:48 | 52.55565 | 9.08192 | 187° | 2km/h | 26610m | 5.9m/s | -48.4°C | 0% | 20.8hPa | 2.7V | 18:12:15 | 01:39:36 | 00:00:00 | |
| AA1-15 | 2026-09-04 05:10:46 | 52.55565 | 9.08191 | 50° | 2km/h | 26599m | 7.1m/s | -48.4°C | 0% | 20.8hPa | 2.6V | 18:12:15 | 01:39:34 | 00:00:00 | |
| BUE01 | 2026-09-04 05:10:44 | 52.55564 | 9.08187 | 73° | 7km/h | 26587m | 5.6m/s | -48.4°C | 0.6% | 20.9hPa | 2.7V | 00:00:00 | 00:00:00 | 00:00:00 | |
| DO2JMG | 2026-09-04 05:10:43 | 52.55564 | 9.08184 | 101° | 7km/h | 26580m | 6.7m/s | -48.4°C | 0% | 20.9hPa | 2.7V | 18:12:15 | 01:39:31 | 00:00:00 | |
| BIOWL1-15 | 2026-09-04 05:10:41 | 52.55565 | 9.08178 | 119° | 9km/h | 26569m | 4.6m/s | -48.4°C | 0% | 20.9hPa | 2.7V | 18:12:15 | 01:39:29 | 00:00:00 | |
| DB0DAN | 2026-09-04 05:10:40 | 52.55566 | 9.08175 | 98° | 7km/h | 26563m | 6.9m/s | -48.4°C | 0.6% | 20.93hPa | 2.6V | 00:00:00 | 00:00:00 | 00:00:00 | |
| DL1XH-west | 2026-09-04 05:10:40 | 52.55566 | 9.08175 | 98° | 9km/h | 26563m | 6.9m/s | -48.4°C | 0% | 20.9hPa | 2.6V | 18:12:15 | 01:39:28 | 00:00:00 | |
| DF8AY | 2026-09-04 05:10:37 | 52.55566 | 9.08167 | 129° | 4km/h | 26544m | 7.6m/s | -48.4°C | 0% | 21hPa | 2.7V | 18:12:15 | 01:39:25 | 00:00:00 | |
| AA1-15 | 2026-09-04 05:10:36 | 52.55567 | 9.08167 | 165° | 5km/h | 26537m | 5.8m/s | -48.5°C | 0% | 21hPa | 2.7V | 18:12:15 | 01:39:24 | 00:00:00 | |
| DB0UT-7 | 2026-09-04 05:10:36 | 52.55567 | 9.08167 | 165° | 9km/h | 26538m | 5.8m/s | -48.4°C | 3.0% | 21.0hPa | 2.7V | 00:00:00 | 00:00:00 | 00:00:00 | |
| DL1NUX | 2026-09-04 05:10:35 | 52.55571 | 9.08146 | 118° | 13km/h | 26500m | 6.3m/s | -48.7°C | 2.9% | 21.1hPa | 2.7V | 08:30:00 | 01:39:18 | 00:00:00 | |
| BIOWL1-15 | 2026-09-04 05:10:33 | 52.55570 | 9.08151 | 106° | 13km/h | 26507m | 7.4m/s | -48.7°C | 0% | 21.1hPa | 2.7V | 18:12:15 | 01:39:19 | 00:00:00 | |
| DO2JMG | 2026-09-04 05:10:32 | 52.55570 | 9.08156 | 92° | 13km/h | 26513m | 4.9m/s | -48.7°C | 0% | 21.1hPa | 2.7V | 18:12:15 | 01:39:20 | 00:00:00 | |
| DL3AQ-11 | 2026-09-04 05:10:32 | 52.55570 | 9.08151 | 106° | 11km/h | 26507m | 7.4m/s | -48.7°C | 0.6% | 21.1hPa | 2.6V | 00:00:00 | 00:00:00 | 00:00:00 | |
| DL1XH-15 | 2026-09-04 05:10:31 | 52.55574 | 9.08130 | 92° | 7km/h | 26475m | 5.5m/s | -48.7°C | 3% | 21.2hPa | 2.6V | 08:30:00 | 01:39:14 | 00:00:00 | |
| DL1XH-west | 2026-09-04 05:10:29 | 52.55573 | 9.08142 | 117° | 11km/h | 26494m | 5m/s | -48.7°C | 0% | 21.2hPa | 2.6V | 18:12:15 | 01:39:17 | 00:00:00 | |
| DF8AY | 2026-09-04 05:10:27 | 52.55574 | 9.08134 | 88° | 9km/h | 26481m | 6.7m/s | -48.7°C | 0% | 21.2hPa | 2.6V | 18:12:15 | 01:39:15 | 00:00:00 | |
| DK9SH | 2026-09-04 05:10:27 | 52.55573 | 9.08134 | 88° | 9km/h | 26481m | 6.7m/s | -48.7°C | 0.6% | 21.2hPa | 2.7V | 00:00:00 | 00:00:00 | 00:00:00 | |
| DO2KSM | 2026-09-04 05:10:26 | 52.55573 | 9.08134 | 88° | 9km/h | 26481m | 6.7m/s | -48.7°C | 0.6% | 21.2hPa | 2.7V | 00:00:00 | 00:00:00 | 00:00:00 | |
| DB0DAN | 2026-09-04 05:10:25 | 52.55574 | 9.08127 | 122° | 5km/h | 26469m | 7m/s | -48.7°C | 0.6% | 21.23hPa | 2.7V | 00:00:00 | 00:00:00 | 00:00:00 | |
| AA1-15 | 2026-09-04 05:10:25 | 52.55574 | 9.08127 | 122° | 7km/h | 26469m | 7m/s | -48.7°C | 0% | 21.2hPa | 2.7V | 18:12:15 | 01:39:13 | 00:00:00 | |
| DO2JMG | 2026-09-04 05:10:22 | 52.55578 | 9.08120 | 105° | 9km/h | 26451m | 6.8m/s | -48.7°C | 0% | 21.3hPa | 2.6V | 18:12:15 | 01:39:10 | 00:00:00 | |
| S3001 | 2026-09-04 05:10:22 | 52.55578 | 9.08117 | 83° | 11km/h | 26445m | 6.6m/s | -48.8°C | 0.6% | 21.3hPa | 2.6V | 00:00:00 | 00:00:00 | 00:00:00 | |
| DL1XH-15 | 2026-09-04 05:10:21 | 52.55581 | 9.08097 | 110° | 5km/h | 26414m | 7.3m/s | -48.8°C | 2.9% | 21.4hPa | 2.6V | 08:30:00 | 01:39:04 | 00:00:00 | |
| BIOWL1-15 | 2026-09-04 05:10:20 | 52.55578 | 9.08112 | 85° | 13km/h | 26439m | 5.3m/s | -48.8°C | 0% | 21.4hPa | 2.6V | 18:12:15 | 01:39:08 | 00:00:00 | |
| DL1XH-west | 2026-09-04 05:10:19 | 52.55578 | 9.08107 | 98° | 13km/h | 26433m | 7m/s | -48.8°C | 0% | 21.4hPa | 2.7V | 18:12:15 | 01:39:07 | 00:00:00 | |
| DF8AY | 2026-09-04 05:10:16 | 52.55581 | 9.08097 | 110° | 5km/h | 26414m | 7.3m/s | -48.8°C | 0% | 21.4hPa | 2.6V | 18:12:15 | 01:39:04 | 00:00:00 | |
| AA1-15 | 2026-09-04 05:10:15 | 52.55581 | 9.08095 | 51° | 4km/h | 26407m | 7.1m/s | -48.9°C | 0% | 21.4hPa | 2.6V | 18:12:15 | 01:39:03 | 00:00:00 | |
| DO2JMG | 2026-09-04 05:10:12 | 52.55580 | 9.08094 | 87° | 2km/h | 26387m | 4.9m/s | -48.9°C | 0% | 21.5hPa | 2.6V | 18:12:15 | 01:39:00 | 00:00:00 | |
| DO2SHX-10 | 2026-09-04 05:10:12 | 52.55580 | 9.08094 | 87° | 11km/h | 26388m | 4.8m/s | -48.9°C | 3.0% | 21.5hPa | 2.6V | 00:00:00 | 01:39:00 | 00:00:00 | |
| DL1XH-15 | 2026-09-04 05:10:11 | 52.55577 | 9.08060 | 107° | 22km/h | 26352m | 7.3m/s | -48.9°C | 3% | 21.6hPa | 2.6V | 08:30:00 | 01:38:54 | 00:00:00 | |
| DL1XH-west | 2026-09-04 05:10:09 | 52.55577 | 9.08084 | 66° | 16km/h | 26370m | 6.5m/s | -48.9°C | 0% | 21.6hPa | 2.6V | 18:12:15 | 01:38:57 | 00:00:00 | |
| DD1CC8 | 2026-09-04 05:10:08 | 52.55576 | 9.08069 | 91° | 20km/h | 26359m | 5.4m/s | -48.9°C | 0.6% | 21.6hPa | 2.6V | 00:00:00 | 00:00:00 | 00:00:00 | |
| DM0DOS-11 | 2026-09-04 05:10:07 | 52.55579 | 9.08052 | 121° | 20km/h | 26346m | 5.7m/s | -48.9°C | 3.1% | 21.6hPa | 2.6V | 08:30:00 | 01:38:53 | 00:00:00 | |
| DF8AY | 2026-09-04 05:10:06 | 52.55577 | 9.08060 | 108° | 22km/h | 26352m | 7.3m/s | -48.9°C | 0% | 21.6hPa | 2.6V | 18:12:15 | 01:38:54 | 00:00:00 | |
| AA1-15 | 2026-09-04 05:10:05 | 52.55579 | 9.08052 | 121° | 20km/h | 26346m | 5.7m/s | -48.9°C | 0% | 21.6hPa | 2.6V | 18:12:15 | 01:38:53 | 00:00:00 | |
| DO2SHX-10 | 2026-09-04 05:10:05 | 52.55579 | 9.08052 | 122° | 20km/h | 26346m | 5.6m/s | -48.8°C | 3.1% | 21.6hPa | 2.7V | 00:00:00 | 01:38:53 | 00:00:00 | |
| GOEST3-10 | 2026-09-04 05:10:03 | 52.55584 | 9.08040 | 121° | 13km/h | 26335m | 6.6m/s | -48.8°C | 3.0% | 21.6hPa | 2.7V | 00:00:00 | 00:00:00 | 00:00:00 | |
| DK5PH-5 | 2026-09-04 05:10:02 | 52.55585 | 9.08035 | 100° | 20km/h | 26329m | 5.5m/s | -48.8°C | 3.0% | 21.6hPa | 2.7V | 00:00:00 | 01:38:50 | 00:00:00 | |
| DL1XH-15 | 2026-09-04 05:10:01 | 52.55584 | 9.07999 | 71° | 18km/h | 26295m | 7.6m/s | -48.9°C | 3% | 21.8hPa | 2.7V | 08:30:00 | 01:38:44 | 00:00:00 | |
| DO2JMG | 2026-09-04 05:10:01 | 52.55585 | 9.08030 | 83° | 13km/h | 26323m | 5.1m/s | -48.8°C | 0% | 21.7hPa | 2.6V | 18:12:15 | 01:38:49 | 00:00:00 | |
| BIOWL1-15 | 2026-09-04 05:09:59 | 52.55585 | 9.08019 | 92° | 15km/h | 26311m | 6.7m/s | -48.9°C | 0% | 21.8hPa | 2.6V | 18:12:15 | 01:38:47 | 00:00:00 | |
| DL1XH-west | 2026-09-04 05:09:58 | 52.55585 | 9.08013 | 89° | 16km/h | 26305m | 4.4m/s | -48.9°C | 0% | 21.8hPa | 2.6V | 18:12:15 | 01:38:46 | 00:00:00 | |
| DL4BBY-15 | 2026-09-04 05:09:58 | 52.55585 | 9.08013 | 90° | 20km/h | 26306m | 4.4m/s | -49.8°C | 0% | 0hPa | 2.7V | 00:00:00 | 00:00:00 | 00:00:00 | |
| DM0DOS-11 | 2026-09-04 05:09:57 | 52.55582 | 9.07992 | 71° | 18km/h | 26288m | 5.5m/s | -48.9°C | 3% | 21.8hPa | 2.7V | 08:30:00 | 01:38:43 | 00:00:00 | |
| DO2SHX-10 | 2026-09-04 05:09:57 | 52.55584 | 9.08006 | 82° | 18km/h | 26301m | 4.2m/s | -48.9°C | 3.1% | 21.8hPa | 2.6V | 00:00:00 | 01:38:45 | 00:00:00 | |
| DL1XH1-15 | 2026-09-04 05:09:56 | 52.55584 | 9.07966 | 115° | 16km/h | 26265m | 5.5m/s | -48.9°C | 3% | 21.9hPa | 2.6V | 08:30:00 | 01:38:39 | 00:00:00 | |
| DF8AY | 2026-09-04 05:09:56 | 52.55583 | 9.07999 | 72° | 18km/h | 26295m | 7.6m/s | -48.9°C | 0% | 21.8hPa | 2.7V | 18:12:15 | 01:38:44 | 00:00:00 | |
| AA1-15 | 2026-09-04 05:09:55 | 52.55582 | 9.07992 | 71° | 18km/h | 26288m | 5.6m/s | -48.9°C | 0% | 21.8hPa | 2.7V | 18:12:15 | 01:38:43 | 00:00:00 | |
| DB0DAN | 2026-09-04 05:09:55 | 52.55582 | 9.07992 | 71° | 18km/h | 26288m | 5.6m/s | -48.9°C | 0.6% | 21.83hPa | 2.7V | 00:00:00 | 00:00:00 | 00:00:00 | |
| SONDE2-11 | 2026-09-04 05:09:52 | 52.55582 | 9.07972 | 115° | 15km/h | 26271m | 5.6m/s | -48.9°C | 0.6% | 21.9hPa | 2.6V | 00:00:00 | 00:00:00 | 00:00:00 | |
| DL1XH-15 | 2026-09-04 05:09:51 | 52.55589 | 9.07923 | 99° | 22km/h | 26235m | 5.5m/s | -48.8°C | 3.1% | 22hPa | 2.6V | 08:30:00 | 01:38:34 | 00:00:00 | |
| DO2JMG | 2026-09-04 05:09:51 | 52.55584 | 9.07966 | 116° | 16km/h | 26265m | 5.5m/s | -48.9°C | 0% | 21.9hPa | 2.6V | 18:12:15 | 01:38:39 | 00:00:00 | |
| BIOWL1-15 | 2026-09-04 05:09:50 | 52.55587 | 9.07942 | 97° | 24km/h | 26248m | 5.5m/s | -48.9°C | 0% | 22hPa | 2.6V | 18:12:15 | 01:38:36 | 00:00:00 | |
| DF5WG-10 | 2026-09-04 05:09:50 | 52.55586 | 9.07959 | 105° | 22km/h | 26259m | 6.5m/s | -48.8°C | 3.0% | 21.9hPa | 2.7V | 00:00:00 | 01:38:38 | 08:30:00 | |
| DO3MHA-11 | 2026-09-04 05:09:49 | 52.55586 | 9.07951 | 98° | 20km/h | 26253m | 5.3m/s | -48.8°C | 3.0% | 21.9hPa | 2.7V | 00:00:00 | 01:38:37 | 00:00:00 | |
| DM0DOS-11 | 2026-09-04 05:09:48 | 52.55590 | 9.07913 | 90° | 22km/h | 26230m | 5.2m/s | -48.8°C | 3.1% | 22hPa | 2.7V | 08:30:00 | 01:38:33 | 00:00:00 | |
| DL1XH-west | 2026-09-04 05:09:47 | 52.55588 | 9.07932 | 100° | 24km/h | 26241m | 7.2m/s | -48.8°C | 0% | 22hPa | 2.6V | 18:12:15 | 01:38:35 | 00:00:00 | |
| DF8AY | 2026-09-04 05:09:45 | 52.55590 | 9.07914 | 91° | 22km/h | 26230m | 5.2m/s | -48.8°C | 0% | 22hPa | 2.7V | 18:12:15 | 01:38:33 | 00:00:00 | |
| AA1-15 | 2026-09-04 05:09:44 | 52.55589 | 9.07905 | 76° | 22km/h | 26223m | 7m/s | -48.8°C | 0% | 22.1hPa | 2.7V | 18:12:15 | 01:38:32 | 00:00:00 | |
| DO2JMG | 2026-09-04 05:09:41 | 52.55581 | 9.07884 | 52° | 16km/h | 26205m | 5.3m/s | -48.7°C | 0% | 22.1hPa | 2.6V | 18:12:15 | 01:38:29 | 00:00:00 | |
| BIOWL1-15 | 2026-09-04 05:09:40 | 52.55581 | 9.07868 | 121° | 18km/h | 26188m | 4.9m/s | -48.8°C | 0% | 22.1hPa | 2.6V | 18:12:15 | 01:38:26 | 00:00:00 | |
| DB0DAN | 2026-09-04 05:09:40 | 52.55579 | 9.07879 | 74° | 11km/h | 26199m | 6.8m/s | -48.7°C | 0.6% | 22.14hPa | 2.6V | 00:00:00 | 00:00:00 | 00:00:00 | |
| DO2SHX-10 | 2026-09-04 05:09:40 | 52.55579 | 9.07873 | 110° | 18km/h | 26193m | 5.4m/s | -48.7°C | 3.1% | 22.1hPa | 2.6V | 00:00:00 | 01:38:27 | 00:00:00 | |
| DO3MHA-11 | 2026-09-04 05:09:39 | 52.55579 | 9.07873 | 110° | 22km/h | 26193m | 5.4m/s | -48.7°C | 3.1% | 22.1hPa | 2.6V | 00:00:00 | 01:38:27 | 00:00:00 | |
| DM0DOS-11 | 2026-09-04 05:09:38 | 52.55587 | 9.07839 | 99° | 33km/h | 26170m | 5.4m/s | -48.7°C | 3% | 22.2hPa | 2.6V | 08:30:00 | 01:38:23 | 00:00:00 | |
| DD1CC8 | 2026-09-04 05:09:37 | 52.55585 | 9.07851 | 106° | 27km/h | 26176m | 6.4m/s | -48.7°C | 0.7% | 22.2hPa | 2.5V | 00:00:00 | 00:00:00 | 00:00:00 | |
| DL1XH1-15 | 2026-09-04 05:09:36 | 52.55590 | 9.07794 | 89° | 15km/h | 26147m | 5.2m/s | -48.6°C | 3% | 22.3hPa | 2.5V | 08:30:00 | 01:38:19 | 00:00:00 | |
| DL1XH-west | 2026-09-04 05:09:36 | 52.55585 | 9.07851 | 106° | 27km/h | 26176m | 6.4m/s | -48.7°C | 0% | 22.2hPa | 2.6V | 18:12:15 | 01:38:24 | 00:00:00 | |
| AA1-15 | 2026-09-04 05:09:34 | 52.55588 | 9.07825 | 97° | 33km/h | 26164m | 5.1m/s | -48.7°C | 0% | 22.3hPa | 2.7V | 18:12:15 | 01:38:22 | 00:00:00 | |
| DO2SHX-10 | 2026-09-04 05:09:33 | 52.55589 | 9.07812 | 97° | 22km/h | 26159m | 5.9m/s | -48.6°C | 3.0% | 22.2hPa | 2.7V | 00:00:00 | 01:38:21 | 00:00:00 | |
| DK5PH-5 | 2026-09-04 05:09:32 | 52.55590 | 9.07802 | 98° | 16km/h | 26153m | 6.3m/s | -48.6°C | 3.0% | 22.2hPa | 2.7V | 00:00:00 | 01:38:20 | 00:00:00 | |
| DL1XH-15 | 2026-09-04 05:09:31 | 52.55580 | 9.07771 | 60° | 13km/h | 26119m | 4.7m/s | -48.5°C | 3% | 22.4hPa | 2.7V | 08:30:00 | 01:38:14 | 00:00:00 | |
| DO2JMG | 2026-09-04 05:09:31 | 52.55590 | 9.07794 | 90° | 15km/h | 26147m | 5.2m/s | -48.6°C | 0% | 22.3hPa | 2.5V | 18:12:15 | 01:38:19 | 00:00:00 | |
| BIOWL1-15 | 2026-09-04 05:09:27 | 52.55582 | 9.07775 | 42° | 16km/h | 26123m | 4.4m/s | -48.6°C | 0% | 22.4hPa | 2.7V | 18:12:15 | 01:38:15 | 00:00:00 | |
| DO2SHX-10 | 2026-09-04 05:09:27 | 52.55582 | 9.07775 | 42° | 13km/h | 26124m | 4.4m/s | -48.5°C | 3.0% | 22.4hPa | 2.7V | 00:00:00 | 01:38:15 | 00:00:00 | |
| DL1XH1-15 | 2026-09-04 05:09:26 | 52.55591 | 9.07734 | 112° | 29km/h | 26089m | 5.5m/s | -48.4°C | 2.9% | 22.5hPa | 2.7V | 08:30:00 | 01:38:09 | 00:00:00 | |
| DB0DAN | 2026-09-04 05:09:25 | 52.55579 | 9.07766 | 92° | 11km/h | 26113m | 7.1m/s | -48.6°C | 0.6% | 22.43hPa | 2.6V | 00:00:00 | 00:00:00 | 00:00:00 | |
| DL1XH-west | 2026-09-04 05:09:25 | 52.55579 | 9.07766 | 92° | 11km/h | 26113m | 7.1m/s | -48.6°C | 0% | 22.4hPa | 2.6V | 18:12:15 | 01:38:13 | 00:00:00 | |
| DF8AY | 2026-09-04 05:09:24 | 52.55580 | 9.07761 | 124° | 18km/h | 26106m | 6m/s | -48.5°C | 0% | 22.5hPa | 2.6V | 18:12:15 | 01:38:12 | 00:00:00 | |
| AA1-15 | 2026-09-04 05:09:23 | 52.55583 | 9.07753 | 129° | 26km/h | 26101m | 5.2m/s | -48.5°C | 0% | 22.5hPa | 2.6V | 18:12:15 | 01:38:11 | 00:00:00 | |
| DL3AQ-11 | 2026-09-04 05:09:23 | 52.55593 | 9.07713 | 88° | 20km/h | 26080m | 5.1m/s | -48.3°C | 0.6% | 22.5hPa | 2.7V | 00:00:00 | 00:00:00 | 00:00:00 | |
| DL1XH-15 | 2026-09-04 05:09:21 | 52.55591 | 9.07701 | 4° | 4km/h | 26061m | 5.5m/s | -48.2°C | 3% | 22.6hPa | 2.7V | 08:30:00 | 01:38:04 | 00:00:00 | |
| DO2JMG | 2026-09-04 05:09:20 | 52.55593 | 9.07723 | 101° | 27km/h | 26084m | 4.7m/s | -48.3°C | 0% | 22.5hPa | 2.7V | 18:12:15 | 01:38:08 | 00:00:00 | |
| BIOWL1-15 | 2026-09-04 05:09:17 | 52.55592 | 9.07702 | 52° | 7km/h | 26067m | 6.8m/s | -48.3°C | 0% | 22.6hPa | 2.6V | 18:12:15 | 01:38:05 | 00:00:00 | |
| DL1XH-west | 2026-09-04 05:09:14 | 52.55588 | 9.07700 | 37° | 5km/h | 26049m | 6.9m/s | -48.1°C | 0% | 22.7hPa | 2.6V | 18:12:15 | 01:38:02 | 00:00:00 | |
| AA1-15 | 2026-09-04 05:09:13 | 52.55587 | 9.07697 | 78° | 11km/h | 26043m | 5.6m/s | -48.1°C | 0% | 22.7hPa | 2.6V | 18:12:15 | 01:38:01 | 00:00:00 | |
| DO2SHX-10 | 2026-09-04 05:09:12 | 52.55587 | 9.07692 | 95° | 16km/h | 26038m | 5.1m/s | -48.0°C | 2.9% | 22.6hPa | 2.6V | 00:00:00 | 01:38:00 | 00:00:00 | |
| DL1XH-15 | 2026-09-04 05:09:11 | 52.55593 | 9.07652 | 84° | 22km/h | 26004m | 6.2m/s | -48.2°C | 2.8% | 22.8hPa | 2.6V | 08:30:00 | 01:37:54 | 00:00:00 | |
| DB0DAN | 2026-09-04 05:09:10 | 52.55589 | 9.07680 | 113° | 16km/h | 26026m | 6.5m/s | -48.1°C | 0.6% | 22.74hPa | 2.6V | 00:00:00 | 00:00:00 | 00:00:00 | |
| DO2JMG | 2026-09-04 05:09:09 | 52.55591 | 9.07673 | 113° | 16km/h | 26020m | 5m/s | -48.1°C | 0% | 22.8hPa | 2.7V | 18:12:15 | 01:37:57 | 00:00:00 | |
| DO2SHX-10 | 2026-09-04 05:09:09 | 52.55591 | 9.07673 | 113° | 16km/h | 26021m | 5.0m/s | -48.0°C | 2.8% | 22.7hPa | 2.6V | 00:00:00 | 01:37:57 | 00:00:00 | |
| EDDB2-11 | 2026-09-04 05:09:08 | 52.55592 | 9.07667 | 104° | 15km/h | 26016m | 4.5m/s | -48.1°C | 0.6% | 22.7hPa | 2.6V | 00:00:00 | 00:00:00 | 00:00:00 | |
| DM0DOS-11 | 2026-09-04 05:09:07 | 52.55592 | 9.07643 | 82° | 24km/h | 25998m | 5.7m/s | -48.2°C | 2.9% | 22.8hPa | 2.6V | 08:30:00 | 01:37:53 | 00:00:00 | |
| DL1XH1-15 | 2026-09-04 05:09:06 | 52.55595 | 9.07617 | 133° | 9km/h | 25975m | 4.6m/s | -48.3°C | 3% | 22.9hPa | 2.6V | 08:30:00 | 01:37:49 | 00:00:00 | |
| BIOWL1-15 | 2026-09-04 05:09:06 | 52.55593 | 9.07652 | 84° | 22km/h | 26004m | 6.2m/s | -48.2°C | 0% | 22.8hPa | 2.6V | 18:12:15 | 01:37:54 | 00:00:00 | |
| DL1XH-west | 2026-09-04 05:09:04 | 52.55591 | 9.07634 | 88° | 20km/h | 25993m | 5m/s | -48.3°C | 0% | 22.9hPa | 2.6V | 18:12:15 | 01:37:52 | 00:00:00 | |
| DF8AY | 2026-09-04 05:09:03 | 52.55592 | 9.07626 | 100° | 16km/h | 25987m | 6.7m/s | -48.3°C | 0% | 22.9hPa | 2.7V | 18:12:15 | 01:37:51 | 00:00:00 | |
| AA1-15 | 2026-09-04 05:09:02 | 52.55593 | 9.07621 | 121° | 13km/h | 25981m | 5.9m/s | -48.3°C | 0% | 22.9hPa | 2.6V | 18:12:15 | 01:37:50 | 00:00:00 | |
| DO2JMG | 2026-09-04 05:08:59 | 52.55596 | 9.07611 | 88° | 7km/h | 25963m | 6.7m/s | -48.2°C | 0% | 22.9hPa | 2.6V | 18:12:15 | 01:37:47 | 00:00:00 | |
| DF7PN | 2026-09-04 05:08:59 | 52.55596 | 9.07608 | 73° | 9km/h | 25957m | 6.0m/s | -48.2°C | 0.6% | 23.0hPa | 2.6V | 00:00:00 | 00:00:00 | 00:00:00 | |
| DD1CC3-15 | 2026-09-04 05:08:58 | 52.55596 | 9.07608 | 75° | 9km/h | 25957m | 6.0m/s | -48.2°C | 0.6% | 23.0hPa | 2.6V | 00:00:00 | 00:00:00 | 00:00:00 | |
| DM0DOS-11 | 2026-09-04 05:08:57 | 52.55593 | 9.07594 | 70° | 15km/h | 25939m | 4.3m/s | -48.3°C | 2.9% | 23.1hPa | 2.6V | 08:30:00 | 01:37:43 | 00:00:00 | |
| DO2SHX-10 | 2026-09-04 05:08:57 | 52.55595 | 9.07603 | 76° | 13km/h | 25951m | 7.0m/s | -48.2°C | 3.0% | 23.0hPa | 2.6V | 00:00:00 | 01:37:45 | 08:30:00 | |
| DL1XH1-15 | 2026-09-04 05:08:56 | 52.55586 | 9.07562 | 74° | 20km/h | 25916m | 5.9m/s | -48.3°C | 2.9% | 23.1hPa | 2.7V | 08:30:00 | 01:37:39 | 00:00:00 | |
| DO1YAY-16 | 2026-09-04 05:08:56 | 52.55594 | 9.07599 | 74° | 11km/h | 25944m | 5.8m/s | -48.3°C | 0.6% | 23.0hPa | 2.6V | 00:00:00 | 00:00:00 | 00:00:00 | |
| DB0DAN | 2026-09-04 05:08:55 | 52.55593 | 9.07594 | 70° | 15km/h | 25939m | 4.3m/s | -48.3°C | 0.6% | 23.06hPa | 2.6V | 00:00:00 | 00:00:00 | 00:00:00 | |
| BIOWL1-15 | 2026-09-04 05:08:55 | 52.55593 | 9.07594 | 70° | 15km/h | 25939m | 4.3m/s | -48.3°C | 0% | 23.1hPa | 2.6V | 18:12:15 | 01:37:43 | 00:00:00 | |
| DL1XH-west | 2026-09-04 05:08:53 | 52.55590 | 9.07580 | 67° | 24km/h | 25927m | 6.4m/s | -48.3°C | 0% | 23.1hPa | 2.6V | 18:12:15 | 01:37:41 | 00:00:00 | |
| AA1-15 | 2026-09-04 05:08:52 | 52.55587 | 9.07571 | 69° | 24km/h | 25921m | 4.5m/s | -48.3°C | 0% | 23.1hPa | 2.6V | 18:12:15 | 01:37:40 | 00:00:00 | |
| HSKMA3-T | 2026-09-04 05:08:52 | 52.55586 | 9.07562 | 75° | 20km/h | 25916m | 5.9m/s | -48.3°C | 0% | 23.1hPa | 2.7V | 18:12:15 | 01:37:39 | 00:00:00 | |
| DL8OAI-8 | 2026-09-04 05:08:51 | 52.55586 | 9.07562 | 76° | 20km/h | 25917m | 5.9m/s | -48.3°C | 0.7% | 23.1hPa | 2.7V | 00:00:00 | 00:00:00 | 00:00:00 | |
| DM0DOS-11 | 2026-09-04 05:08:50 | 52.55584 | 9.07535 | 80° | 11km/h | 25880m | 6.2m/s | -48.2°C | 2.9% | 23.2hPa | 2.7V | 08:30:00 | 01:37:33 | 00:00:00 | |
| DO2JMG | 2026-09-04 05:08:48 | 52.55585 | 9.07547 | 96° | 9km/h | 25898m | 5.9m/s | -48.3°C | 0% | 23.2hPa | 2.6V | 18:12:15 | 01:37:36 | 00:00:00 | |
| BIOWL9-15 | 2026-09-04 05:08:48 | 52.55585 | 9.07543 | 79° | 9km/h | 25892m | 6.7m/s | -48.2°C | 0.6% | 23.2hPa | 2.6V | 00:00:00 | 00:00:00 | 00:00:00 | |
| DO9LL-15 | 2026-09-04 05:08:47 | 52.55585 | 9.07543 | 80° | 18km/h | 25892m | 6.7m/s | -48.2°C | 2.8% | 23.2hPa | 2.6V | 00:00:00 | 01:37:35 | 00:00:00 | |
| DL1XH1-15 | 2026-09-04 05:08:46 | 52.55582 | 9.07508 | 81° | 27km/h | 25856m | 7.1m/s | -48.3°C | 3% | 23.4hPa | 2.6V | 08:30:00 | 01:37:29 | 00:00:00 | |
| BIOWL1-15 | 2026-09-04 05:08:46 | 52.55584 | 9.07530 | 87° | 11km/h | 25874m | 6.2m/s | -48.2°C | 0% | 23.3hPa | 2.7V | 18:12:15 | 01:37:32 | 00:00:00 | |
| DL1XH-west | 2026-09-04 05:08:43 | 52.55584 | 9.07525 | 88° | 15km/h | 25868m | 5.1m/s | -48.2°C | 0% | 23.3hPa | 2.6V | 18:12:15 | 01:37:31 | 00:00:00 | |
| DF8AY | 2026-09-04 05:08:42 | 52.55583 | 9.07518 | 84° | 20km/h | 25863m | 6.1m/s | -48.2°C | 0% | 23.3hPa | 2.6V | 18:12:15 | 01:37:30 | 00:00:00 | |
| HSKMA3-T | 2026-09-04 05:08:42 | 52.55581 | 9.07496 | 82° | 31km/h | 25850m | 5.1m/s | -48.3°C | 0% | 23.4hPa | 2.7V | 18:12:15 | 01:37:28 | 00:00:00 | |
| AA1-15 | 2026-09-04 05:08:41 | 52.55582 | 9.07508 | 81° | 27km/h | 25856m | 7.1m/s | -48.3°C | 0% | 23.4hPa | 2.6V | 18:12:15 | 01:37:29 | 00:00:00 | |
| DB0DAN | 2026-09-04 05:08:40 | 52.55581 | 9.07496 | 82° | 29km/h | 25850m | 5.1m/s | -48.3°C | 0.6% | 23.37hPa | 2.7V | 00:00:00 | 00:00:00 | 00:00:00 | |
| DO2JMG | 2026-09-04 05:08:38 | 52.55580 | 9.07473 | 91° | 26km/h | 25840m | 6.7m/s | -48.3°C | 0% | 23.4hPa | 2.6V | 18:12:15 | 01:37:26 | 00:00:00 | |
| GOEST3-10 | 2026-09-04 05:08:37 | 52.55581 | 9.07464 | 103° | 11km/h | 25834m | 6.0m/s | -48.2°C | 2.9% | 23.4hPa | 2.6V | 00:00:00 | 01:37:25 | 00:00:00 | |
| DL1XH1-15 | 2026-09-04 05:08:36 | 52.55583 | 9.07438 | 96° | 13km/h | 25798m | 6.7m/s | -48.3°C | 2.9% | 23.5hPa | 2.6V | 08:30:00 | 01:37:19 | 00:00:00 | |
| DL1XH-west | 2026-09-04 05:08:33 | 52.55583 | 9.07447 | 81° | 11km/h | 25810m | 5.5m/s | -48.4°C | 0% | 23.5hPa | 2.7V | 18:12:15 | 01:37:21 | 00:00:00 | |
| DF8AY | 2026-09-04 05:08:32 | 52.55583 | 9.07443 | 86° | 11km/h | 25804m | 5.3m/s | -48.3°C | 0% | 23.5hPa | 2.7V | 18:12:15 | 01:37:20 | 00:00:00 | |
| AA1-15 | 2026-09-04 05:08:31 | 52.55583 | 9.07438 | 96° | 13km/h | 25798m | 6.7m/s | -48.3°C | 0% | 23.5hPa | 2.6V | 18:12:15 | 01:37:19 | 00:00:00 | |
| HSKMA3-T | 2026-09-04 05:08:30 | 52.55584 | 9.07432 | 98° | 16km/h | 25792m | 4.9m/s | -48.4°C | 0% | 23.6hPa | 2.6V | 18:12:15 | 01:37:18 | 00:00:00 | |
| DM0DOS-11 | 2026-09-04 05:08:30 | 52.55579 | 9.07381 | 79° | 29km/h | 25762m | 6.9m/s | -48.4°C | 2.8% | 23.7hPa | 2.6V | 08:30:00 | 01:37:13 | 00:00:00 | |
| DO2JMG | 2026-09-04 05:08:27 | 52.55582 | 9.07405 | 75° | 29km/h | 25774m | 6.7m/s | -48.4°C | 0% | 23.6hPa | 2.7V | 18:12:15 | 01:37:15 | 00:00:00 | |
| AU51GT2 | 2026-09-04 05:08:27 | 52.55580 | 9.07393 | 74° | 31km/h | 25768m | 5.7m/s | -48.4°C | 0.6% | 23.6hPa | 2.7V | 00:00:00 | 00:00:00 | 00:00:00 | |
| DL1XH1-15 | 2026-09-04 05:08:26 | 52.55575 | 9.07345 | 66° | 18km/h | 25739m | 6.7m/s | -48.5°C | 2.9% | 23.8hPa | 2.7V | 08:30:00 | 01:37:09 | 00:00:00 | |
| DB0DAN | 2026-09-04 05:08:25 | 52.55579 | 9.07381 | 79° | 27km/h | 25762m | 6.9m/s | -48.4°C | 0.6% | 23.67hPa | 2.6V | 00:00:00 | 00:00:00 | 00:00:00 | |
| DL1XH-west | 2026-09-04 05:08:22 | 52.55576 | 9.07353 | 78° | 18km/h | 25745m | 6.2m/s | -48.5°C | 0% | 23.8hPa | 2.7V | 18:12:15 | 01:37:10 | 00:00:00 | |
| HSKMA3-T | 2026-09-04 05:08:20 | 52.55570 | 9.07334 | 53° | 15km/h | 25726m | 6.2m/s | -48.5°C | 0% | 23.8hPa | 2.6V | 18:12:15 | 01:37:07 | 00:00:00 | |
| AA1-15 | 2026-09-04 05:08:20 | 52.55573 | 9.07339 | 55° | 18km/h | 25732m | 5.8m/s | -48.5°C | 0% | 23.8hPa | 2.6V | 18:12:15 | 01:37:08 | 00:00:00 | |
| DO2JMG | 2026-09-04 05:08:17 | 52.55568 | 9.07325 | 79° | 11km/h | 25714m | 5.2m/s | -48.6°C | 0% | 23.9hPa | 2.6V | 18:12:15 | 01:37:05 | 00:00:00 | |
| DO9LL-15 | 2026-09-04 05:08:17 | 52.55568 | 9.07325 | 80° | 16km/h | 25714m | 5.2m/s | -48.5°C | 3.0% | 23.8hPa | 2.6V | 00:00:00 | 01:37:05 | 08:30:00 | |
| DL1XH1-15 | 2026-09-04 05:08:16 | 52.55562 | 9.07267 | 86° | 29km/h | 25679m | 7m/s | -48.9°C | 2.9% | 24hPa | 2.6V | 08:30:00 | 01:36:59 | 00:00:00 | |
| BIOWL1-15 | 2026-09-04 05:08:12 | 52.55563 | 9.07280 | 81° | 31km/h | 25686m | 5.3m/s | -48.9°C | 0% | 24hPa | 2.6V | 18:12:15 | 01:37:00 | 00:00:00 | |
| DL1NUX | 2026-09-04 05:08:11 | 52.55561 | 9.07229 | 63° | 15km/h | 25650m | 5.2m/s | -49.1°C | 3% | 24.1hPa | 2.6V | 08:30:00 | 01:36:54 | 00:00:00 | |
| DL1XH-west | 2026-09-04 05:08:11 | 52.55562 | 9.07267 | 86° | 29km/h | 25679m | 7m/s | -48.9°C | 0% | 24hPa | 2.6V | 18:12:15 | 01:36:59 | 00:00:00 | |
| DB0DAN | 2026-09-04 05:08:10 | 52.55562 | 9.07257 | 92° | 22km/h | 25673m | 5.7m/s | -49°C | 0.6% | 24hPa | 2.6V | 00:00:00 | 00:00:00 | 00:00:00 | |
| AA1-15 | 2026-09-04 05:08:10 | 52.55562 | 9.07257 | 92° | 24km/h | 25673m | 5.7m/s | -49°C | 0% | 24hPa | 2.6V | 18:12:15 | 01:36:58 | 00:00:00 | |
| HSKMA3-T | 2026-09-04 05:08:09 | 52.55563 | 9.07241 | 88° | 16km/h | 25663m | 6.6m/s | -49°C | 0% | 24.1hPa | 2.7V | 18:12:15 | 01:36:56 | 00:00:00 | |
| DO2JMG | 2026-09-04 05:08:07 | 52.55562 | 9.07234 | 73° | 15km/h | 25656m | 6.2m/s | -49.1°C | 0% | 24.1hPa | 2.6V | 18:12:15 | 01:36:55 | 00:00:00 | |
| DO2SHX-10 | 2026-09-04 05:08:07 | 52.55562 | 9.07234 | 74° | 13km/h | 25657m | 6.2m/s | -49.0°C | 2.9% | 24.0hPa | 2.6V | 00:00:00 | 01:36:55 | 00:00:00 | |
| DL1XH1-15 | 2026-09-04 05:08:06 | 52.55563 | 9.07208 | 114° | 15km/h | 25621m | 6.6m/s | -49.2°C | 3% | 24.2hPa | 2.6V | 08:30:00 | 01:36:49 | 00:00:00 | |
| BIOWL1-15 | 2026-09-04 05:08:02 | 52.55561 | 9.07213 | 127° | 13km/h | 25627m | 5.5m/s | -49.2°C | 0% | 24.2hPa | 2.6V | 18:12:15 | 01:36:50 | 00:00:00 | |
| DF8AY | 2026-09-04 05:08:01 | 52.55563 | 9.07208 | 115° | 15km/h | 25621m | 6.6m/s | -49.2°C | 0% | 24.2hPa | 2.6V | 18:12:15 | 01:36:49 | 00:00:00 | |
| DO2SHX-10 | 2026-09-04 05:08:01 | 52.55563 | 9.07208 | 115° | 16km/h | 25621m | 6.6m/s | -49.1°C | 3.0% | 24.2hPa | 2.6V | 00:00:00 | 01:36:49 | 08:30:00 | |
| DM0DOS-11 | 2026-09-04 05:08:00 | 52.55566 | 9.07153 | 81° | 16km/h | 25580m | 7.1m/s | -49.5°C | 3.1% | 24.4hPa | 2.6V | 08:30:00 | 01:36:42 | 00:00:00 | |
| DL1XH-west | 2026-09-04 05:08:00 | 52.55564 | 9.07202 | 96° | 16km/h | 25614m | 5.9m/s | -49.2°C | 0% | 24.2hPa | 2.6V | 18:12:15 | 01:36:48 | 00:00:00 | |
| AA1-15 | 2026-09-04 05:07:59 | 52.55564 | 9.07194 | 88° | 20km/h | 25609m | 5m/s | -49.3°C | 0% | 24.2hPa | 2.6V | 18:12:15 | 01:36:47 | 00:00:00 | |
| HSKMA3-T | 2026-09-04 05:07:58 | 52.55564 | 9.07177 | 97° | 22km/h | 25597m | 7.1m/s | -49.4°C | 0% | 24.3hPa | 2.7V | 18:12:15 | 01:36:45 | 00:00:00 | |
| DO2JMG | 2026-09-04 05:07:56 | 52.55565 | 9.07168 | 99° | 22km/h | 25591m | 5.5m/s | -49.4°C | 0% | 24.3hPa | 2.7V | 18:12:15 | 01:36:44 | 00:00:00 | |
| AU51GT2 | 2026-09-04 05:07:56 | 52.55566 | 9.07160 | 94° | 18km/h | 25586m | 5.0m/s | -49.5°C | 0.6% | 24.3hPa | 2.6V | 00:00:00 | 00:00:00 | 00:00:00 | |
| DB0DAN | 2026-09-04 05:07:55 | 52.55566 | 9.07160 | 95° | 18km/h | 25586m | 5m/s | -49.5°C | 0.6% | 24.34hPa | 2.6V | 00:00:00 | 00:00:00 | 00:00:00 | |
| BIOWL1-15 | 2026-09-04 05:07:51 | 52.55564 | 9.07138 | 103° | 7km/h | 25561m | 7m/s | -49.5°C | 0% | 24.4hPa | 2.7V | 18:12:15 | 01:36:39 | 00:00:00 | |
| AA1-15 | 2026-09-04 05:07:49 | 52.55566 | 9.07135 | 154° | 9km/h | 25551m | 3.7m/s | -49.6°C | 0% | 24.5hPa | 2.6V | 18:12:15 | 01:36:37 | 00:00:00 | |
| HSKMA3-T | 2026-09-04 05:07:47 | 52.55569 | 9.07130 | 107° | 9km/h | 25539m | 6.7m/s | -49.7°C | 0% | 24.5hPa | 2.6V | 18:12:15 | 01:36:35 | 00:00:00 | |
| DO2JMG | 2026-09-04 05:07:46 | 52.55570 | 9.07125 | 94° | 13km/h | 25533m | 6.3m/s | -49.8°C | 0% | 24.5hPa | 2.7V | 18:12:15 | 01:36:34 | 00:00:00 | |
| DJ2DS-15 | 2026-09-04 05:07:46 | 52.55570 | 9.07125 | 94° | 18km/h | 25533m | 6.2m/s | -49.7°C | 3.1% | 24.5hPa | 2.7V | 00:00:00 | 01:36:34 | 00:00:00 | |
| DD8BA-10 | 2026-09-04 05:07:45 | 52.55570 | 9.07120 | 95° | 18km/h | 25527m | 6.7m/s | -49.7°C | 3.1% | 24.5hPa | 2.6V | 00:00:00 | 00:00:00 | 00:00:00 | |
| DO2SHX-10 | 2026-09-04 05:07:43 | 52.55570 | 9.07107 | 89° | 18km/h | 25515m | 4.8m/s | 0°C | 0% | 0hPa | 2.6V | 00:00:00 | 01:36:31 | 00:00:00 | |
| DO3DL | 2026-09-04 05:07:42 | 52.55570 | 9.07100 | 82° | 20km/h | 25509m | 7.1m/s | -50.0°C | 0.7% | 24.6hPa | 2.6V | 00:00:00 | 00:00:00 | 00:00:00 | |
| DL1XH-15 | 2026-09-04 05:07:41 | 52.55567 | 9.07054 | 113° | 11km/h | 25472m | 6m/s | -49.9°C | 3.1% | 24.8hPa | 2.6V | 08:30:00 | 01:36:24 | 00:00:00 | |
| DB0DAN | 2026-09-04 05:07:40 | 52.55567 | 9.07082 | 73° | 24km/h | 25497m | 5.6m/s | -49.9°C | 0.7% | 24.66hPa | 2.6V | 00:00:00 | 00:00:00 | 00:00:00 | |
| BIOWL1-15 | 2026-09-04 05:07:40 | 52.55567 | 9.07082 | 73° | 24km/h | 25497m | 5.6m/s | -49.9°C | 0% | 24.7hPa | 2.6V | 18:12:15 | 01:36:28 | 00:00:00 | |
| DL1XH-west | 2026-09-04 05:07:38 | 52.55565 | 9.07065 | 94° | 16km/h | 25484m | 7.2m/s | -49.9°C | 0% | 24.7hPa | 2.7V | 18:12:15 | 01:36:26 | 00:00:00 | |
| HSKMA3-T | 2026-09-04 05:07:36 | 52.55567 | 9.07054 | 113° | 11km/h | 25472m | 6m/s | -49.9°C | 0% | 24.8hPa | 2.6V | 18:12:15 | 01:36:24 | 00:00:00 | |
| DO2JMG | 2026-09-04 05:07:35 | 52.55567 | 9.07050 | 97° | 9km/h | 25465m | 7m/s | -49.9°C | 0% | 24.8hPa | 2.6V | 18:12:15 | 01:36:23 | 00:00:00 | |
| BIOWL1-15 | 2026-09-04 05:07:32 | 52.55562 | 9.07026 | 66° | 20km/h | 25435m | 4.6m/s | -49.9°C | 0% | 24.9hPa | 2.6V | 18:12:15 | 01:36:18 | 00:00:00 | |
| DL1XH-15 | 2026-09-04 05:07:31 | 52.55548 | 9.06987 | 61° | 26km/h | 25411m | 6.6m/s | -50°C | 3.2% | 25hPa | 2.6V | 08:30:00 | 01:36:14 | 00:00:00 | |
| DO2SHX-10 | 2026-09-04 05:07:31 | 52.55564 | 9.07033 | 70° | 20km/h | 25441m | 5.7m/s | -49.9°C | 3.1% | 24.8hPa | 2.6V | 00:00:00 | 01:36:19 | 00:00:00 | |
| DL1NUX | 2026-09-04 05:07:30 | 52.55546 | 9.06979 | 67° | 18km/h | 25405m | 6.3m/s | -50.1°C | 3.2% | 25hPa | 2.6V | 08:30:00 | 01:36:13 | 00:00:00 | |
| DF8AY | 2026-09-04 05:07:29 | 52.55559 | 9.07018 | 61° | 26km/h | 25429m | 7.5m/s | -50°C | 0% | 24.9hPa | 2.6V | 18:12:15 | 01:36:17 | 00:00:00 | |
| AA1-15 | 2026-09-04 05:07:28 | 52.55556 | 9.07008 | 58° | 31km/h | 25422m | 6m/s | -50°C | 0% | 25hPa | 2.7V | 18:12:15 | 01:36:16 | 00:00:00 | |
| DL1XH-west | 2026-09-04 05:07:27 | 52.55552 | 9.06997 | 59° | 29km/h | 25417m | 4.7m/s | -50°C | 0% | 25hPa | 2.7V | 18:12:15 | 01:36:15 | 00:00:00 | |
| DL1XH1-15 | 2026-09-04 05:07:26 | 52.55539 | 9.06958 | 52° | 13km/h | 25379m | 6m/s | -50.1°C | 3.2% | 25.1hPa | 2.7V | 08:30:00 | 01:36:09 | 00:00:00 | |
| DB0DAN | 2026-09-04 05:07:25 | 52.55546 | 9.06979 | 67° | 18km/h | 25405m | 6.3m/s | -50.1°C | 0.7% | 25.03hPa | 2.6V | 00:00:00 | 00:00:00 | 00:00:00 | |
| DO2JMG | 2026-09-04 05:07:25 | 52.55546 | 9.06979 | 67° | 18km/h | 25405m | 6.3m/s | -50.1°C | 0% | 25hPa | 2.6V | 18:12:15 | 01:36:13 | 00:00:00 | |
| AU51GT2 | 2026-09-04 05:07:25 | 52.55544 | 9.06973 | 68° | 15km/h | 25399m | 5.4m/s | -50.1°C | 0.7% | 25.1hPa | 2.6V | 00:00:00 | 00:00:00 | 00:00:00 | |
| D01LWL | 2026-09-04 05:07:24 | 52.55543 | 9.06967 | 61° | 13km/h | 25393m | 7.1m/s | -50.1°C | 0.7% | 25.1hPa | 2.6V | 00:00:00 | 00:00:00 | 00:00:00 | |
| DL3AQ-11 | 2026-09-04 05:07:23 | 52.55541 | 9.06963 | 54° | 13km/h | 25386m | 6.8m/s | -50.1°C | 0.7% | 25.1hPa | 2.6V | 00:00:00 | 00:00:00 | 00:00:00 | |
| DO2SHX-10 | 2026-09-04 05:07:22 | 52.55541 | 9.06962 | 55° | 13km/h | 25386m | 6.8m/s | -50.1°C | 3.2% | 25.0hPa | 2.6V | 00:00:00 | 01:36:10 | 00:00:00 | |
| DL1XH-15 | 2026-09-04 05:07:21 | 52.55531 | 9.06930 | 61° | 26km/h | 25350m | 6.4m/s | -50.2°C | 3.2% | 25.2hPa | 2.6V | 08:30:00 | 01:36:04 | 00:00:00 | |
| DL1NUX | 2026-09-04 05:07:20 | 52.55528 | 9.06921 | 62° | 27km/h | 25344m | 6m/s | -50.3°C | 3.2% | 25.2hPa | 2.7V | 08:30:00 | 01:36:03 | 00:00:00 | |
| BIOWL1-15 | 2026-09-04 05:07:19 | 52.55536 | 9.06950 | 72° | 11km/h | 25366m | 5.2m/s | -50.2°C | 0% | 25.2hPa | 2.6V | 18:12:15 | 01:36:07 | 00:00:00 | |
| AA1-15 | 2026-09-04 05:07:18 | 52.55535 | 9.06945 | 69° | 15km/h | 25362m | 4.3m/s | -50.2°C | 0% | 25.2hPa | 2.6V | 18:12:15 | 01:36:06 | 00:00:00 | |
| DL1XH-west | 2026-09-04 05:07:17 | 52.55534 | 9.06939 | 64° | 20km/h | 25356m | 6.3m/s | -50.2°C | 0% | 25.2hPa | 2.6V | 18:12:15 | 01:36:05 | 00:00:00 | |
| DO2JMG | 2026-09-04 05:07:15 | 52.55528 | 9.06921 | 63° | 27km/h | 25344m | 6m/s | -50.3°C | 0% | 25.2hPa | 2.7V | 18:12:15 | 01:36:03 | 00:00:00 | |
| DD8BA-10 | 2026-09-04 05:07:15 | 52.55528 | 9.06921 | 63° | 16km/h | 25344m | 5.9m/s | -50.2°C | 3.2% | 25.2hPa | 2.6V | 00:00:00 | 00:00:00 | 00:00:00 | |
| DO3DL | 2026-09-04 05:07:14 | 52.55528 | 9.06921 | 64° | 27km/h | 25344m | 6.0m/s | -50.3°C | 0.7% | 25.2hPa | 2.6V | 00:00:00 | 00:00:00 | 00:00:00 | |
| DO2SHX-10 | 2026-09-04 05:07:13 | 52.55523 | 9.06901 | 71° | 15km/h | 25331m | 6.4m/s | -50.3°C | 3.2% | 25.3hPa | 2.6V | 00:00:00 | 01:36:01 | 00:00:00 | |
| GOEST3-10 | 2026-09-04 05:07:12 | 52.55521 | 9.06895 | 70° | 13km/h | 25326m | 5.5m/s | -50.3°C | 3.2% | 25.3hPa | 2.6V | 00:00:00 | 00:00:00 | 00:00:00 | |
| DL1XH-15 | 2026-09-04 05:07:11 | 52.55507 | 9.06882 | 26° | 7km/h | 25288m | 6.3m/s | -50.3°C | 3.2% | 25.5hPa | 2.6V | 08:30:00 | 01:35:54 | 00:00:00 | |
| DB0DAN | 2026-09-04 05:07:10 | 52.55518 | 9.06887 | 30° | 11km/h | 25312m | 7.3m/s | -50.3°C | 0.7% | 25.41hPa | 2.7V | 00:00:00 | 00:00:00 | 00:00:00 | |
| DL1NUX | 2026-09-04 05:07:10 | 52.55505 | 9.06880 | 60° | 7km/h | 25283m | 5.4m/s | -50.3°C | 3.1% | 25.5hPa | 2.6V | 08:30:00 | 01:35:53 | 00:00:00 | |
| DF2AP-13 | 2026-09-04 05:07:10 | 52.55518 | 9.06887 | 30° | 11km/h | 25313m | 7.2m/s | -50.2°C | 3.2% | 25.4hPa | 2.6V | 00:00:00 | 01:35:58 | 00:00:00 | |
| DM0DOS-11 | 2026-09-04 05:07:09 | 52.55504 | 9.06876 | 64° | 13km/h | 25276m | 6.2m/s | -50.4°C | 3.2% | 25.5hPa | 2.6V | 08:30:00 | 01:35:52 | 00:00:00 | |
| BIOWL1-15 | 2026-09-04 05:07:08 | 52.55511 | 9.06884 | 11° | 13km/h | 25301m | 5.2m/s | -50.2°C | 0% | 25.4hPa | 2.6V | 18:12:15 | 01:35:56 | 00:00:00 | |
| AA1-15 | 2026-09-04 05:07:07 | 52.55508 | 9.06883 | 11° | 11km/h | 25295m | 6.7m/s | -50.2°C | 0% | 25.5hPa | 2.6V | 18:12:15 | 01:35:55 | 00:00:00 | |
| DL1XH-west | 2026-09-04 05:07:06 | 52.55506 | 9.06882 | 27° | 7km/h | 25288m | 6.3m/s | -50.3°C | 0% | 25.5hPa | 2.6V | 18:12:15 | 01:35:54 | 00:00:00 | |
| DO2JMG | 2026-09-04 05:07:04 | 52.55504 | 9.06876 | 65° | 13km/h | 25276m | 6.2m/s | -50.4°C | 0% | 25.5hPa | 2.6V | 18:12:15 | 01:35:52 | 00:00:00 | |
| DO2SHX-10 | 2026-09-04 05:07:04 | 52.55504 | 9.06876 | 65° | 16km/h | 25277m | 6.2m/s | -50.3°C | 3.2% | 25.5hPa | 2.7V | 00:00:00 | 01:35:52 | 00:00:00 | |
| DK5PH-5 | 2026-09-04 05:07:02 | 52.55499 | 9.06864 | 57° | 11km/h | 25265m | 4.9m/s | -50.3°C | 3.2% | 25.5hPa | 2.7V | 00:00:00 | 01:35:50 | 00:00:00 | |
| DL1XH-15 | 2026-09-04 05:07:01 | 52.55488 | 9.06851 | 330° | 9km/h | 25229m | 6.8m/s | -50.3°C | 3.3% | 25.7hPa | 2.7V | 08:30:00 | 01:35:44 | 00:00:00 | |
| DO2SHX-10 | 2026-09-04 05:07:01 | 52.55497 | 9.06857 | 53° | 13km/h | 25260m | 4.3m/s | -50.3°C | 3.2% | 25.6hPa | 2.6V | 00:00:00 | 01:35:49 | 00:00:00 | |
| DF5WG-10 | 2026-09-04 05:07:00 | 52.55494 | 9.06851 | 53° | 9km/h | 25255m | 6.4m/s | -50.4°C | 3.2% | 25.6hPa | 2.6V | 00:00:00 | 01:35:48 | 00:00:00 | |
| DL1NUX | 2026-09-04 05:06:59 | 52.55483 | 9.06854 | 332° | 9km/h | 25217m | 6.2m/s | -50.3°C | 3.2% | 25.8hPa | 2.6V | 08:30:00 | 01:35:42 | 00:00:00 | |
| BIOWL1-15 | 2026-09-04 05:06:58 | 52.55491 | 9.06848 | 337° | 4km/h | 25242m | 5.2m/s | -50.4°C | 0% | 25.7hPa | 2.6V | 18:12:15 | 01:35:46 | 00:00:00 | |
| AA1-15 | 2026-09-04 05:06:56 | 52.55488 | 9.06851 | 331° | 9km/h | 25229m | 6.8m/s | -50.3°C | 0% | 25.7hPa | 2.7V | 18:12:15 | 01:35:44 | 00:00:00 | |
| DL3AQ-11 | 2026-09-04 05:06:56 | 52.55486 | 9.06853 | 336° | 11km/h | 25223m | 5.4m/s | -50.3°C | 0.7% | 25.8hPa | 2.7V | 00:00:00 | 00:00:00 | 00:00:00 | |
| DB0DAN | 2026-09-04 05:06:55 | 52.55486 | 9.06853 | 337° | 11km/h | 25223m | 5.4m/s | -50.3°C | 0.7% | 25.75hPa | 2.7V | 00:00:00 | 00:00:00 | 00:00:00 | |
| DL1XH-west | 2026-09-04 05:06:55 | 52.55486 | 9.06853 | 337° | 11km/h | 25223m | 5.4m/s | -50.3°C | 0% | 25.8hPa | 2.7V | 18:12:15 | 01:35:43 | 00:00:00 | |
| HSKMA3-T | 2026-09-04 05:06:54 | 52.55481 | 9.06856 | 322° | 7km/h | 25211m | 6.6m/s | -50.3°C | 0% | 25.8hPa | 2.6V | 18:12:15 | 01:35:41 | 00:00:00 | |
| DO2JMG | 2026-09-04 05:06:54 | 52.55483 | 9.06854 | 333° | 9km/h | 25217m | 6.2m/s | -50.3°C | 0% | 25.8hPa | 2.6V | 18:12:15 | 01:35:42 | 00:00:00 | |
| EDDB2-12 | 2026-09-04 05:06:54 | 52.55481 | 9.06856 | 321° | 7km/h | 25211m | 6.6m/s | -50.3°C | 0.7% | 25.8hPa | 2.6V | 00:00:00 | 00:00:00 | 00:00:00 | |
| DO2SHX-10 | 2026-09-04 05:06:52 | 52.55480 | 9.06858 | 332° | 9km/h | 25205m | 5.5m/s | -50.3°C | 3.2% | 25.8hPa | 2.6V | 00:00:00 | 01:35:40 | 00:00:00 | |
| DL1XH-15 | 2026-09-04 05:06:51 | 52.55466 | 9.06856 | 275° | 5km/h | 25167m | 5.4m/s | -50.6°C | 3.2% | 25.9hPa | 2.6V | 08:30:00 | 01:35:34 | 00:00:00 | |
| DF8AY | 2026-09-04 05:06:47 | 52.55467 | 9.06854 | 353° | 5km/h | 25173m | 7.3m/s | -50.6°C | 0% | 25.9hPa | 2.6V | 18:12:15 | 01:35:35 | 00:00:00 | |
| GOEST3-10 | 2026-09-04 05:06:47 | 52.55467 | 9.06854 | 353° | 7km/h | 25174m | 7.2m/s | -50.5°C | 3.3% | 25.9hPa | 2.6V | 00:00:00 | 01:35:35 | 00:00:00 | |
| DL1XH1-15 | 2026-09-04 05:06:46 | 52.55467 | 9.06877 | 256° | 16km/h | 25137m | 7.5m/s | -50.5°C | 3.3% | 26.1hPa | 2.6V | 08:30:00 | 01:35:29 | 00:00:00 | |
| DL1XH-west | 2026-09-04 05:06:45 | 52.55466 | 9.06859 | 265° | 7km/h | 25161m | 6.3m/s | -50.6°C | 0% | 26hPa | 2.7V | 18:12:15 | 01:35:33 | 00:00:00 | |
| S3001 | 2026-09-04 05:06:44 | 52.55466 | 9.06862 | 274° | 7km/h | 25155m | 6.9m/s | -50.6°C | 0.7% | 26.0hPa | 2.7V | 00:00:00 | 00:00:00 | 00:00:00 | |
| DO2JMG | 2026-09-04 05:06:43 | 52.55466 | 9.06865 | 269° | 11km/h | 25149m | 5.2m/s | -50.6°C | 0% | 26hPa | 2.7V | 18:12:15 | 01:35:31 | 00:00:00 | |
| HSKMA3-T | 2026-09-04 05:06:42 | 52.55466 | 9.06870 | 263° | 13km/h | 25143m | 5.5m/s | -50.6°C | 0.1% | 26.1hPa | 2.6V | 18:12:15 | 01:35:30 | 00:00:00 | |
| BIOWL1-15 | 2026-09-04 05:06:37 | 52.55468 | 9.06899 | 304° | 7km/h | 25112m | 5.3m/s | -50.4°C | 0% | 26.2hPa | 2.6V | 18:12:15 | 01:35:25 | 00:00:00 | |
| DO2SHX-10 | 2026-09-04 05:06:37 | 52.55468 | 9.06899 | 305° | 7km/h | 25112m | 5.3m/s | -50.3°C | 3.3% | 26.1hPa | 2.6V | 00:00:00 | 01:35:25 | 00:00:00 | |
| DL1XH1-15 | 2026-09-04 05:06:36 | 52.55471 | 9.06920 | 236° | 13km/h | 25077m | 6.7m/s | -50.2°C | 3.2% | 26.3hPa | 2.6V | 08:30:00 | 01:35:19 | 00:00:00 | |
| AA1-15 | 2026-09-04 05:06:35 | 52.55466 | 9.06904 | 292° | 7km/h | 25100m | 6.5m/s | -50.3°C | 0% | 26.2hPa | 2.6V | 18:12:15 | 01:35:23 | 00:00:00 | |
| DL1XH-west | 2026-09-04 05:06:34 | 52.55466 | 9.06907 | 255° | 9km/h | 25094m | 6.2m/s | -50.3°C | 0% | 26.3hPa | 2.7V | 18:12:15 | 01:35:22 | 00:00:00 | |
| HSKMA3-T | 2026-09-04 05:06:32 | 52.55471 | 9.06920 | 237° | 13km/h | 25077m | 6.7m/s | -50.2°C | 0% | 26.3hPa | 2.6V | 18:12:15 | 01:35:19 | 00:00:00 | |
| DO2JMG | 2026-09-04 05:06:32 | 52.55469 | 9.06916 | 235° | 15km/h | 25083m | 5.9m/s | -50.2°C | 0% | 26.3hPa | 2.6V | 18:12:15 | 01:35:20 | 00:00:00 | |
| DL3AQ-11 | 2026-09-04 05:06:32 | 52.55471 | 9.06920 | 236° | 13km/h | 25077m | 6.7m/s | -50.2°C | 0.7% | 26.3hPa | 2.6V | 00:00:00 | 00:00:00 | 00:00:00 | |
| DL1XH-15 | 2026-09-04 05:06:31 | 52.55476 | 9.06955 | 265° | 26km/h | 25044m | 5.8m/s | -50.2°C | 3.2% | 26.4hPa | 2.6V | 08:30:00 | 01:35:14 | 00:00:00 | |
| DF8AY | 2026-09-04 05:06:27 | 52.55475 | 9.06945 | 263° | 24km/h | 25051m | 7.2m/s | -50.1°C | 0% | 26.4hPa | 2.6V | 18:12:15 | 01:35:15 | 00:00:00 | |
| GOEST3-10 | 2026-09-04 05:06:27 | 52.55475 | 9.06945 | 264° | 22km/h | 25051m | 7.2m/s | -50.1°C | 3.2% | 26.4hPa | 2.7V | 00:00:00 | 01:35:15 | 00:00:00 | |
| DO3DL | 2026-09-04 05:06:26 | 52.55475 | 9.06945 | 264° | 24km/h | 25051m | 7.2m/s | -50.1°C | 0.7% | 26.4hPa | 2.7V | 00:00:00 | 00:00:00 | 00:00:00 | |
| BIOWL1-15 | 2026-09-04 05:06:26 | 52.55475 | 9.06955 | 266° | 26km/h | 25044m | 5.8m/s | -50.2°C | 0% | 26.4hPa | 2.6V | 18:12:15 | 01:35:14 | 00:00:00 | |
| DB0DAN | 2026-09-04 05:06:25 | 52.55476 | 9.06966 | 269° | 22km/h | 25038m | 6.7m/s | -50.3°C | 0.7% | 26.47hPa | 2.7V | 00:00:00 | 00:00:00 | 00:00:00 | |
| DD8BA-10 | 2026-09-04 05:06:25 | 52.55476 | 9.06966 | 270° | 18km/h | 25038m | 6.7m/s | -50.2°C | 3.2% | 26.4hPa | 2.7V | 00:00:00 | 00:00:00 | 00:00:00 | |
| DM0DOS-11 | 2026-09-04 05:06:24 | 52.55476 | 9.06981 | 263° | 15km/h | 25026m | 4.5m/s | -50.2°C | 3.3% | 26.5hPa | 2.6V | 08:30:00 | 01:35:11 | 00:00:00 | |
| AA1-15 | 2026-09-04 05:06:24 | 52.55476 | 9.06974 | 272° | 18km/h | 25031m | 6.8m/s | -50.3°C | 0% | 26.5hPa | 2.6V | 18:12:15 | 01:35:12 | 00:00:00 | |
| DL1XH-west | 2026-09-04 05:06:23 | 52.55476 | 9.06981 | 263° | 15km/h | 25026m | 4.5m/s | -50.3°C | 0.1% | 26.5hPa | 2.6V | 18:12:15 | 01:35:11 | 00:00:00 | |
| DO2JMG | 2026-09-04 05:06:21 | 52.55478 | 9.06993 | 239° | 16km/h | 25014m | 7.1m/s | -50.3°C | 0% | 26.6hPa | 2.6V | 18:12:15 | 01:35:09 | 00:00:00 | |
| HSKMA3-T | 2026-09-04 05:06:21 | 52.55481 | 9.06998 | 229° | 18km/h | 25008m | 5.1m/s | -50.3°C | 0% | 26.6hPa | 2.7V | 18:12:15 | 01:35:08 | 00:00:00 | |
| DL1NUX | 2026-09-04 05:06:20 | 52.55499 | 9.07022 | 220° | 26km/h | 24976m | 6.4m/s | -50.3°C | 3.2% | 26.8hPa | 2.6V | 08:30:00 | 01:35:03 | 00:00:00 | |
| DF5WG-10 | 2026-09-04 05:06:20 | 52.55481 | 9.06998 | 229° | 22km/h | 25008m | 5.1m/s | -50.2°C | 3.2% | 26.6hPa | 2.7V | 00:00:00 | 01:35:08 | 00:00:00 | |
| DO2SHX-10 | 2026-09-04 05:06:19 | 52.55484 | 9.07003 | 222° | 20km/h | 25002m | 6.2m/s | -50.3°C | 3.2% | 26.6hPa | 2.7V | 00:00:00 | 01:35:07 | 00:00:00 | |
| DM0DOS-11 | 2026-09-04 05:06:18 | 52.55508 | 9.07037 | 227° | 26km/h | 24965m | 6.6m/s | -50.2°C | 3.2% | 26.8hPa | 2.7V | 08:30:00 | 01:35:01 | 00:00:00 | |
| DF8AY | 2026-09-04 05:06:17 | 52.55490 | 9.07011 | 214° | 16km/h | 24989m | 5.3m/s | -50.3°C | 0% | 26.7hPa | 2.6V | 18:12:15 | 01:35:05 | 00:00:00 | |
| BIOWL1-15 | 2026-09-04 05:06:16 | 52.55494 | 9.07016 | 216° | 22km/h | 24983m | 7.1m/s | -50.3°C | 0% | 26.7hPa | 2.6V | 18:12:15 | 01:35:04 | 00:00:00 | |
| DL1XH-west | 2026-09-04 05:06:13 | 52.55508 | 9.07037 | 228° | 26km/h | 24965m | 6.6m/s | -50.3°C | 0% | 26.8hPa | 2.7V | 18:12:15 | 01:35:01 | 00:00:00 | |
| HSKMA3-T | 2026-09-04 05:06:11 | 52.55521 | 9.07069 | 242° | 24km/h | 24939m | 5.5m/s | -50.1°C | 0% | 26.9hPa | 2.6V | 18:12:15 | 01:34:57 | 00:00:00 | |
| DL1XH-15 | 2026-09-04 05:06:11 | 52.55527 | 9.07089 | 240° | 11km/h | 24921m | 6m/s | -50.1°C | 3.2% | 27hPa | 2.6V | 08:30:00 | 01:34:54 | 00:00:00 | |
| DO2JMG | 2026-09-04 05:06:11 | 52.55515 | 9.07053 | 240° | 22km/h | 24952m | 5.6m/s | -50.2°C | 0% | 26.8hPa | 2.6V | 18:12:15 | 01:34:59 | 00:00:00 | |
| DB0DAN | 2026-09-04 05:06:10 | 52.55518 | 9.07061 | 241° | 22km/h | 24945m | 7.5m/s | -50.2°C | 0.7% | 26.89hPa | 2.6V | 00:00:00 | 00:00:00 | 00:00:00 | |
| DF8AY | 2026-09-04 05:06:06 | 52.55527 | 9.07089 | 241° | 11km/h | 24921m | 6m/s | -50.1°C | 0% | 27hPa | 2.6V | 18:12:15 | 01:34:54 | 00:00:00 | |
| BIOWL1-15 | 2026-09-04 05:06:05 | 52.55529 | 9.07093 | 225° | 13km/h | 24916m | 4.7m/s | -50.1°C | 0% | 27hPa | 2.6V | 18:12:15 | 01:34:53 | 00:00:00 | |
| DL1XH-west | 2026-09-04 05:06:02 | 52.55539 | 9.07105 | 213° | 20km/h | 24897m | 5m/s | -50.1°C | 0% | 27.1hPa | 2.7V | 18:12:15 | 01:34:50 | 00:00:00 | |
| DO2JMG | 2026-09-04 05:06:00 | 52.55547 | 9.07113 | 214° | 16km/h | 24884m | 5.7m/s | -50.1°C | 0% | 27.1hPa | 2.6V | 18:12:15 | 01:34:48 | 00:00:00 | |
| DF5WG-10 | 2026-09-04 05:06:00 | 52.55547 | 9.07113 | 214° | 15km/h | 24885m | 5.7m/s | -50.1°C | 3.2% | 27.1hPa | 2.7V | 00:00:00 | 01:34:48 | 00:00:00 | |
| DL1NUX | 2026-09-04 05:05:59 | 52.55559 | 9.07144 | 276° | 11km/h | 24848m | 6.6m/s | -50°C | 3.1% | 27.3hPa | 2.7V | 08:30:00 | 01:34:42 | 00:00:00 | |
| HSKMA3-T | 2026-09-04 05:05:58 | 52.55553 | 9.07122 | 226° | 18km/h | 24873m | 6.9m/s | -50.1°C | 0% | 27.2hPa | 2.6V | 18:12:15 | 01:34:46 | 00:00:00 | |
| DM0DOS-11 | 2026-09-04 05:05:58 | 52.55559 | 9.07149 | 274° | 11km/h | 24842m | 6.9m/s | -50.1°C | 3.1% | 27.3hPa | 2.6V | 08:30:00 | 01:34:41 | 00:00:00 | |
| DO2SHX-10 | 2026-09-04 05:05:58 | 52.55553 | 9.07122 | 227° | 18km/h | 24873m | 6.8m/s | -50.0°C | 3.1% | 27.1hPa | 2.6V | 00:00:00 | 01:34:46 | 00:00:00 | |
| GOEST3-10 | 2026-09-04 05:05:57 | 52.55556 | 9.07128 | 236° | 13km/h | 24867m | 4.9m/s | -50.0°C | 3.1% | 27.2hPa | 2.6V | 00:00:00 | 01:34:45 | 00:00:00 | |
| DL1XH1-15 | 2026-09-04 05:05:56 | 52.55560 | 9.07157 | 231° | 9km/h | 24830m | 4m/s | -50.1°C | 3.2% | 27.4hPa | 2.6V | 08:30:00 | 01:34:39 | 00:00:00 | |
| DF8AY | 2026-09-04 05:05:56 | 52.55558 | 9.07134 | 247° | 15km/h | 24862m | 5.4m/s | -50°C | 0% | 27.2hPa | 2.6V | 18:12:15 | 01:34:44 | 00:00:00 | |
| BIOWL1-15 | 2026-09-04 05:05:55 | 52.55559 | 9.07140 | 262° | 11km/h | 24856m | 7.4m/s | -50°C | 0% | 27.2hPa | 2.7V | 18:12:15 | 01:34:43 | 00:00:00 | |
| DB0DAN | 2026-09-04 05:05:55 | 52.55559 | 9.07140 | 262° | 11km/h | 24855m | 7.4m/s | -50°C | 0.7% | 27.23hPa | 2.7V | 00:00:00 | 00:00:00 | 00:00:00 | |
| DL1XH-west | 2026-09-04 05:05:52 | 52.55559 | 9.07153 | 255° | 11km/h | 24835m | 6.2m/s | -50.1°C | 0% | 27.3hPa | 2.6V | 18:12:15 | 01:34:40 | 00:00:00 | |
| AA1-15 | 2026-09-04 05:05:51 | 52.55560 | 9.07157 | 232° | 9km/h | 24830m | 4m/s | -50.1°C | 0% | 27.4hPa | 2.6V | 18:12:15 | 01:34:39 | 00:00:00 | |
| DO2JMG | 2026-09-04 05:05:49 | 52.55564 | 9.07160 | 179° | 9km/h | 24819m | 7.1m/s | -50.2°C | 0% | 27.4hPa | 2.6V | 18:12:15 | 01:34:37 | 00:00:00 | |
| HSKMA3-T | 2026-09-04 05:05:48 | 52.55570 | 9.07159 | 185° | 15km/h | 24806m | 6.7m/s | -50.3°C | 0% | 27.5hPa | 2.7V | 18:12:15 | 01:34:35 | 00:00:00 | |
| DM0DOS-11 | 2026-09-04 05:05:48 | 52.55584 | 9.07169 | 220° | 7km/h | 24781m | 6.7m/s | -50.4°C | 3.2% | 27.6hPa | 2.6V | 08:30:00 | 01:34:31 | 00:00:00 | |
| DF8AY | 2026-09-04 05:05:45 | 52.55579 | 9.07164 | 206° | 18km/h | 24794m | 5m/s | -50.3°C | 0% | 27.5hPa | 2.6V | 18:12:15 | 01:34:33 | 00:00:00 | |
| BIOWL1-15 | 2026-09-04 05:05:44 | 52.55582 | 9.07167 | 210° | 13km/h | 24788m | 6.9m/s | -50.4°C | 0% | 27.5hPa | 2.6V | 18:12:15 | 01:34:32 | 00:00:00 | |
| DO2SHX-10 | 2026-09-04 05:05:43 | 52.55584 | 9.07169 | 221° | 7km/h | 24782m | 6.6m/s | -50.4°C | 3.2% | 27.5hPa | 2.7V | 00:00:00 | 01:34:31 | 00:00:00 | |
| S3001 | 2026-09-04 05:05:42 | 52.55585 | 9.07177 | 289° | 7km/h | 24763m | 5.9m/s | -50.7°C | 0.7% | 27.6hPa | 2.7V | 00:00:00 | 00:00:00 | 00:00:00 | |
| DL1XH-15 | 2026-09-04 05:05:41 | 52.55579 | 9.07181 | 11° | 5km/h | 24740m | 4.8m/s | -50.6°C | 3.4% | 27.8hPa | 2.7V | 08:30:00 | 01:34:24 | 00:00:00 | |
| DL1XH-west | 2026-09-04 05:05:41 | 52.55585 | 9.07174 | 275° | 7km/h | 24770m | 7.2m/s | -50.6°C | 0% | 27.6hPa | 2.7V | 18:12:15 | 01:34:29 | 00:00:00 | |
| DB0DAN | 2026-09-04 05:05:40 | 52.55585 | 9.07177 | 289° | 7km/h | 24763m | 5.9m/s | -50.7°C | 0.7% | 27.63hPa | 2.6V | 00:00:00 | 00:00:00 | 00:00:00 | |
| AA1-15 | 2026-09-04 05:05:40 | 52.55585 | 9.07177 | 289° | 9km/h | 24763m | 5.9m/s | -50.7°C | 0% | 27.6hPa | 2.6V | 18:12:15 | 01:34:28 | 00:00:00 | |
| DO2JMG | 2026-09-04 05:05:39 | 52.55584 | 9.07180 | 310° | 7km/h | 24758m | 5.1m/s | -50.7°C | 0% | 27.6hPa | 2.6V | 18:12:15 | 01:34:27 | 00:00:00 | |
| DM0DOS-11 | 2026-09-04 05:05:38 | 52.55580 | 9.07185 | 215° | 9km/h | 24721m | 5.7m/s | -50.6°C | 3.3% | 27.8hPa | 2.6V | 08:30:00 | 01:34:21 | 00:00:00 | |
| HSKMA3-T | 2026-09-04 05:05:37 | 52.55579 | 9.07181 | 11° | 5km/h | 24740m | 4.8m/s | -50.7°C | 0.1% | 27.8hPa | 2.7V | 18:12:15 | 01:34:24 | 00:00:00 | |
| DF8AY | 2026-09-04 05:05:34 | 52.55578 | 9.07182 | 234° | 5km/h | 24727m | 6.1m/s | -50.7°C | 0.1% | 27.8hPa | 2.6V | 18:12:15 | 01:34:22 | 00:00:00 | |
| BIOWL1-15 | 2026-09-04 05:05:33 | 52.55580 | 9.07184 | 215° | 9km/h | 24721m | 5.7m/s | -50.6°C | 0.1% | 27.8hPa | 2.6V | 18:12:15 | 01:34:21 | 00:00:00 | |
| DK5PH-5 | 2026-09-04 05:05:32 | 52.55582 | 9.07186 | 201° | 9km/h | 24716m | 6.1m/s | -50.6°C | 3.3% | 27.8hPa | 2.6V | 00:00:00 | 01:34:20 | 00:00:00 | |
| DL1XH-15 | 2026-09-04 05:05:31 | 52.55583 | 9.07188 | 326° | 7km/h | 24681m | 5m/s | -50.6°C | 3.2% | 28hPa | 2.6V | 08:30:00 | 01:34:14 | 00:00:00 | |
| DL1XH-west | 2026-09-04 05:05:30 | 52.55585 | 9.07186 | 137° | 4km/h | 24704m | 4.6m/s | -50.6°C | 0% | 27.9hPa | 2.7V | 18:12:15 | 01:34:18 | 00:00:00 | |
| DF8AY | 2026-09-04 05:05:29 | 52.55579 | 9.07189 | 9° | 9km/h | 24669m | 6.2m/s | -50.7°C | 0% | 28hPa | 2.7V | 18:12:15 | 01:34:12 | 00:00:00 | |
| DO2JMG | 2026-09-04 05:05:29 | 52.55586 | 9.07185 | 111° | 2km/h | 24699m | 5.7m/s | -50.6°C | 0% | 27.9hPa | 2.7V | 18:12:15 | 01:34:17 | 00:00:00 | |
| DL4BBY-15 | 2026-09-04 05:05:28 | 52.55585 | 9.07185 | 322° | 11km/h | 24693m | 6.4m/s | -51.5°C | 0% | 0hPa | 2.6V | 00:00:00 | 00:00:00 | 00:00:00 | |
| DO3DL | 2026-09-04 05:05:27 | 52.55585 | 9.07186 | 318° | 5km/h | 24687m | 5.9m/s | -50.6°C | 0.7% | 28.0hPa | 2.6V | 00:00:00 | 00:00:00 | 00:00:00 | |
| DL1XH1-15 | 2026-09-04 05:05:26 | 52.55575 | 9.07189 | 274° | 5km/h | 24651m | 6.4m/s | -50.7°C | 3.3% | 28.1hPa | 2.6V | 08:30:00 | 01:34:09 | 00:00:00 | |
| HSKMA3-T | 2026-09-04 05:05:25 | 52.55581 | 9.07189 | 350° | 9km/h | 24675m | 6.5m/s | -50.7°C | 0% | 28hPa | 2.6V | 18:12:15 | 01:34:13 | 00:00:00 | |
| DB0DAN | 2026-09-04 05:05:25 | 52.55581 | 9.07189 | 350° | 9km/h | 24675m | 6.5m/s | -50.7°C | 0.7% | 28.03hPa | 2.6V | 00:00:00 | 00:00:00 | 00:00:00 | |
| BIOWL1-15 | 2026-09-04 05:05:24 | 52.55576 | 9.07188 | 353° | 4km/h | 24658m | 6.9m/s | -50.7°C | 0% | 28.1hPa | 2.6V | 18:12:15 | 01:34:10 | 00:00:00 | |
| SMARD9-15 | 2026-09-04 05:05:23 | 52.55577 | 9.07189 | 18° | 5km/h | 24664m | 4.8m/s | -50.7°C | 0.7% | 28.1hPa | 2.6V | 00:00:00 | 00:00:00 | 00:00:00 | |
| DO2SHX-10 | 2026-09-04 05:05:22 | 52.55575 | 9.07188 | 354° | 5km/h | 24658m | 6.9m/s | -50.7°C | 3.2% | 28.0hPa | 2.6V | 00:00:00 | 01:34:10 | 00:00:00 | |
| DL1XH-15 | 2026-09-04 05:05:21 | 52.55571 | 9.07202 | 328° | 11km/h | 24622m | 5.5m/s | -50.8°C | 3.3% | 28.2hPa | 2.6V | 08:30:00 | 01:34:04 | 00:00:00 | |
| AA1-15 | 2026-09-04 05:05:19 | 52.55575 | 9.07195 | 275° | 7km/h | 24640m | 5.4m/s | -50.7°C | 0% | 28.2hPa | 2.7V | 18:12:15 | 01:34:07 | 00:00:00 | |
| DO2JMG | 2026-09-04 05:05:18 | 52.55574 | 9.07198 | 308° | 7km/h | 24634m | 6.7m/s | -50.8°C | 0% | 28.2hPa | 2.7V | 18:12:15 | 01:34:06 | 00:00:00 | |
| GOEST3-10 | 2026-09-04 05:05:17 | 52.55573 | 9.07200 | 329° | 11km/h | 24628m | 5.7m/s | -50.7°C | 3.3% | 28.2hPa | 2.6V | 00:00:00 | 01:34:05 | 00:00:00 | |
| DL1XH1-15 | 2026-09-04 05:05:16 | 52.55560 | 9.07219 | 334° | 11km/h | 24593m | 6.2m/s | -50.8°C | 3.4% | 28.4hPa | 2.6V | 08:30:00 | 01:33:59 | 00:00:00 | |
| HSKMA3-T | 2026-09-04 05:05:16 | 52.55568 | 9.07205 | 317° | 13km/h | 24616m | 6.8m/s | -50.8°C | 0.1% | 28.3hPa | 2.7V | 18:12:15 | 01:34:03 | 00:00:00 | |
| BIOWL1-15 | 2026-09-04 05:05:14 | 52.55563 | 9.07216 | 322° | 11km/h | 24599m | 6.2m/s | -50.8°C | 0.1% | 28.4hPa | 2.6V | 18:12:15 | 01:34:00 | 00:00:00 | |
| DF8AY | 2026-09-04 05:05:13 | 52.55564 | 9.07213 | 306° | 11km/h | 24604m | 4.6m/s | -50.8°C | 0% | 28.3hPa | 2.5V | 18:12:15 | 01:34:01 | 00:00:00 | |
| DO2SHX-10 | 2026-09-04 05:05:13 | 52.55564 | 9.07213 | 306° | 11km/h | 24605m | 4.6m/s | -50.8°C | 3.3% | 28.3hPa | 2.5V | 00:00:00 | 01:34:01 | 08:30:00 | |
| GOEST3-10 | 2026-09-04 05:05:12 | 52.55562 | 9.07216 | 322° | 11km/h | 24599m | 6.2m/s | -50.8°C | 3.3% | 28.3hPa | 2.7V | 00:00:00 | 00:00:00 | 00:00:00 | |
| DL1LOL-11 | 2026-09-04 05:05:11 | 52.55562 | 9.07216 | 323° | 11km/h | 24599m | 6.2m/s | -50.8°C | 0.8% | 28.4hPa | 2.7V | 00:00:00 | 00:00:00 | 00:00:00 | |
| DB0DAN | 2026-09-04 05:05:10 | 52.55558 | 9.07221 | 331° | 11km/h | 24587m | 5.5m/s | -50.8°C | 0.8% | 28.41hPa | 2.7V | 00:00:00 | 00:00:00 | 00:00:00 | |
| DL1XH-west | 2026-09-04 05:05:09 | 52.55556 | 9.07223 | 310° | 11km/h | 24581m | 6.8m/s | -50.9°C | 0.1% | 28.4hPa | 2.6V | 18:12:15 | 01:33:57 | 00:00:00 | |
| AA1-15 | 2026-09-04 05:05:08 | 52.55554 | 9.07228 | 288° | 13km/h | 24575m | 5.8m/s | -50.9°C | 0% | 28.4hPa | 2.6V | 18:12:15 | 01:33:56 | 00:00:00 | |
| DO2JMG | 2026-09-04 05:05:07 | 52.55554 | 9.07234 | 275° | 15km/h | 24569m | 4.7m/s | -50.8°C | 0% | 28.5hPa | 2.6V | 18:12:15 | 01:33:55 | 00:00:00 | |
| DO2SHX-10 | 2026-09-04 05:05:07 | 52.55554 | 9.07234 | 275° | 15km/h | 24570m | 4.6m/s | -50.8°C | 3.3% | 28.4hPa | 2.6V | 00:00:00 | 01:33:55 | 00:00:00 | |
| DL1XH1-15 | 2026-09-04 05:05:06 | 52.55552 | 9.07268 | 262° | 18km/h | 24534m | 5.9m/s | -50.9°C | 3.3% | 28.6hPa | 2.6V | 08:30:00 | 01:33:49 | 00:00:00 | |
| HSKMA3-T | 2026-09-04 05:05:05 | 52.55553 | 9.07250 | 281° | 11km/h | 24552m | 5m/s | -50.9°C | 0% | 28.6hPa | 2.7V | 18:12:15 | 01:33:52 | 00:00:00 | |
| DF8AY | 2026-09-04 05:05:03 | 52.55552 | 9.07255 | 275° | 13km/h | 24547m | 5.4m/s | -50.9°C | 0% | 28.6hPa | 2.7V | 18:12:15 | 01:33:51 | 00:00:00 | |
| BIOWL1-15 | 2026-09-04 05:05:03 | 52.55552 | 9.07268 | 262° | 18km/h | 24534m | 5.9m/s | -50.9°C | 0% | 28.6hPa | 2.6V | 18:12:15 | 01:33:49 | 00:00:00 | |
| SONCRA | 2026-09-04 05:05:03 | 52.55552 | 9.07261 | 267° | 15km/h | 24541m | 6.8m/s | -50.9°C | 0.7% | 28.6hPa | 2.6V | 00:00:00 | 00:00:00 | 00:00:00 | |
| DK5PH-5 | 2026-09-04 05:05:02 | 52.55552 | 9.07261 | 268° | 15km/h | 24541m | 6.8m/s | -50.8°C | 3.3% | 28.6hPa | 2.6V | 00:00:00 | 01:33:50 | 00:00:00 | |
| DL1XH-15 | 2026-09-04 05:05:01 | 52.55554 | 9.07299 | 263° | 11km/h | 24505m | 5.7m/s | -50.9°C | 3.4% | 28.8hPa | 2.6V | 08:30:00 | 01:33:44 | 00:00:00 | |
| DL1XH-west | 2026-09-04 05:04:58 | 52.55554 | 9.07290 | 267° | 13km/h | 24517m | 6.5m/s | -50.9°C | 0% | 28.7hPa | 2.7V | 18:12:15 | 01:33:46 | 00:00:00 | |
| DO2JMG | 2026-09-04 05:04:57 | 52.55554 | 9.07294 | 268° | 9km/h | 24511m | 5.4m/s | -50.9°C | 0.1% | 28.7hPa | 2.7V | 18:12:15 | 01:33:45 | 00:00:00 | |
| GOEST3-10 | 2026-09-04 05:04:57 | 52.55554 | 9.07294 | 268° | 15km/h | 24511m | 5.4m/s | -50.9°C | 3.4% | 28.7hPa | 2.6V | 00:00:00 | 01:33:45 | 00:00:00 | |
| DL1XH1-15 | 2026-09-04 05:04:56 | 52.55557 | 9.07330 | 272° | 15km/h | 24476m | 5.5m/s | -50.9°C | 3.4% | 28.9hPa | 2.6V | 08:30:00 | 01:33:39 | 00:00:00 | |
| DF8AY | 2026-09-04 05:04:53 | 52.55557 | 9.07317 | 260° | 16km/h | 24489m | 4.3m/s | -50.8°C | 0.1% | 28.8hPa | 2.6V | 18:12:15 | 01:33:41 | 00:00:00 | |
| DO2SHX-10 | 2026-09-04 05:04:52 | 52.55557 | 9.07324 | 266° | 16km/h | 24483m | 7.2m/s | -50.8°C | 3.3% | 28.8hPa | 2.6V | 00:00:00 | 01:33:40 | 00:00:00 | |
| DL1XH-15 | 2026-09-04 05:04:51 | 52.55560 | 9.07366 | 243° | 13km/h | 24447m | 6.7m/s | -51°C | 3.3% | 29hPa | 2.6V | 08:30:00 | 01:33:34 | 00:00:00 | |
| BIOWL1-15 | 2026-09-04 05:04:50 | 52.55557 | 9.07337 | 273° | 16km/h | 24471m | 4.9m/s | -51°C | 0.1% | 28.9hPa | 2.5V | 18:12:15 | 01:33:38 | 00:00:00 | |
| DL1XH-west | 2026-09-04 05:04:47 | 52.55559 | 9.07360 | 254° | 16km/h | 24453m | 6m/s | -51°C | 0.1% | 29hPa | 2.7V | 18:12:15 | 01:33:35 | 00:00:00 | |
| DO2JMG | 2026-09-04 05:04:46 | 52.55560 | 9.07366 | 243° | 13km/h | 24447m | 6.7m/s | -51°C | 0.1% | 29hPa | 2.6V | 18:12:15 | 01:33:34 | 00:00:00 | |
| DL8DAS-14 | 2026-09-04 05:04:45 | 52.55562 | 9.07370 | 226° | 11km/h | 24441m | 5.9m/s | -50.9°C | 0.7% | 29.0hPa | 2.6V | 00:00:00 | 00:00:00 | 00:00:00 | |
| DF8AY | 2026-09-04 05:04:42 | 52.55570 | 9.07382 | 227° | 15km/h | 24423m | 4.8m/s | -50.9°C | 0.1% | 29.1hPa | 2.6V | 18:12:15 | 01:33:30 | 00:00:00 | |
| GOEST3-10 | 2026-09-04 05:04:42 | 52.55570 | 9.07382 | 227° | 11km/h | 24423m | 4.8m/s | -50.8°C | 3.3% | 29.1hPa | 2.6V | 00:00:00 | 00:00:00 | 00:00:00 | |
| DL1XH-15 | 2026-09-04 05:04:41 | 52.55574 | 9.07409 | 255° | 18km/h | 24387m | 5.3m/s | -50.8°C | 3.4% | 29.3hPa | 2.6V | 08:30:00 | 01:33:24 | 00:00:00 | |
| DB0DAN | 2026-09-04 05:04:40 | 52.55573 | 9.07390 | 252° | 7km/h | 24411m | 6.6m/s | -50.8°C | 0.8% | 29.17hPa | 2.6V | 00:00:00 | 00:00:00 | 00:00:00 | |
| BIOWL1-15 | 2026-09-04 05:04:39 | 52.55574 | 9.07393 | 272° | 9km/h | 24405m | 5.2m/s | -50.8°C | 0.1% | 29.2hPa | 2.6V | 18:12:15 | 01:33:27 | 00:00:00 | |
| AA1-15 | 2026-09-04 05:04:37 | 52.55574 | 9.07402 | 264° | 15km/h | 24393m | 6.8m/s | -50.8°C | 0.1% | 29.3hPa | 2.6V | 18:12:15 | 01:33:25 | 00:00:00 | |
| DL1XH-west | 2026-09-04 05:04:36 | 52.55575 | 9.07409 | 255° | 18km/h | 24387m | 5.3m/s | -50.8°C | 0.1% | 29.3hPa | 2.6V | 18:12:15 | 01:33:24 | 00:00:00 | |
| DB0UT-7 | 2026-09-04 05:04:36 | 52.55575 | 9.07409 | 256° | 13km/h | 24388m | 5.3m/s | -50.7°C | 3.4% | 29.2hPa | 2.6V | 00:00:00 | 00:00:00 | 00:00:00 | |
| DM0DOS-11 | 2026-09-04 05:04:35 | 52.55577 | 9.07430 | 265° | 13km/h | 24372m | 6.5m/s | -50.8°C | 3.4% | 29.4hPa | 2.7V | 08:30:00 | 01:33:21 | 00:00:00 | |
| DF8AY | 2026-09-04 05:04:32 | 52.55578 | 9.07435 | 281° | 7km/h | 24365m | 5.7m/s | -50.8°C | 0.1% | 29.4hPa | 2.7V | 18:12:15 | 01:33:20 | 00:00:00 | |
| SONCRA | 2026-09-04 05:04:32 | 52.55577 | 9.07437 | 287° | 4km/h | 24360m | 5.9m/s | -50.8°C | 0.8% | 29.4hPa | 2.7V | 00:00:00 | 00:00:00 | 00:00:00 | |
| DL1XH-15 | 2026-09-04 05:04:31 | 52.55584 | 9.07451 | 234° | 9km/h | 24330m | 6.5m/s | -50.7°C | 3.3% | 29.5hPa | 2.7V | 08:30:00 | 01:33:14 | 00:00:00 | |
| BIOWL1-15 | 2026-09-04 05:04:29 | 52.55578 | 9.07441 | 228° | 9km/h | 24347m | 6.2m/s | -50.7°C | 0.1% | 29.5hPa | 2.6V | 18:12:15 | 01:33:17 | 00:00:00 | |
| AA1-15 | 2026-09-04 05:04:27 | 52.55582 | 9.07448 | 226° | 11km/h | 24336m | 5.7m/s | -50.7°C | 0.1% | 29.5hPa | 2.6V | 18:12:15 | 01:33:15 | 00:00:00 | |
| DL1XH-west | 2026-09-04 05:04:26 | 52.55584 | 9.07451 | 235° | 9km/h | 24330m | 6.5m/s | -50.7°C | 0% | 29.6hPa | 2.7V | 18:12:15 | 01:33:14 | 00:00:00 | |
| DB0DAN | 2026-09-04 05:04:25 | 52.55585 | 9.07455 | 249° | 9km/h | 24325m | 4.8m/s | -50.6°C | 0.7% | 29.58hPa | 2.7V | 00:00:00 | 00:00:00 | 00:00:00 | |
| DO2JMG | 2026-09-04 05:04:25 | 52.55585 | 9.07455 | 249° | 9km/h | 24324m | 4.8m/s | -50.6°C | 0% | 29.6hPa | 2.7V | 18:12:15 | 01:33:13 | 00:00:00 | |
| DF8AY | 2026-09-04 05:04:21 | 52.55591 | 9.07480 | 240° | 20km/h | 24301m | 5.1m/s | -50.8°C | 0.1% | 29.7hPa | 2.6V | 18:12:15 | 01:33:09 | 00:00:00 | |
| BIOWL1-15 | 2026-09-04 05:04:18 | 52.55597 | 9.07493 | 212° | 7km/h | 24284m | 4.7m/s | -50.8°C | 0.1% | 29.8hPa | 2.7V | 18:12:15 | 01:33:06 | 00:00:00 | |
| DL1XH-west | 2026-09-04 05:04:16 | 52.55601 | 9.07497 | 230° | 9km/h | 24272m | 6.4m/s | -50.7°C | 0.1% | 29.8hPa | 2.6V | 18:12:15 | 01:33:04 | 00:00:00 | |
| DO2JMG | 2026-09-04 05:04:15 | 52.55602 | 9.07501 | 247° | 9km/h | 24266m | 5.3m/s | -50.7°C | 0.1% | 29.8hPa | 2.6V | 18:12:15 | 01:33:03 | 00:00:00 | |
| DF8AY | 2026-09-04 05:04:11 | 52.55602 | 9.07516 | 268° | 13km/h | 24242m | 6.8m/s | -50.6°C | 0.1% | 30hPa | 2.6V | 18:12:15 | 01:32:59 | 00:00:00 | |
| DB0DAN | 2026-09-04 05:04:10 | 52.55602 | 9.07522 | 256° | 15km/h | 24236m | 5.5m/s | -50.6°C | 0.8% | 30hPa | 2.6V | 00:00:00 | 00:00:00 | 00:00:00 | |
| BIOWL1-15 | 2026-09-04 05:04:07 | 52.55605 | 9.07539 | 249° | 13km/h | 24218m | 5.8m/s | -50.5°C | 0% | 30.1hPa | 2.7V | 18:12:15 | 01:32:55 | 00:00:00 | |
| AA1-15 | 2026-09-04 05:04:06 | 52.55606 | 9.07544 | 235° | 15km/h | 24212m | 4.5m/s | -50.4°C | 0.1% | 30.1hPa | 2.6V | 18:12:15 | 01:32:54 | 00:00:00 | |
| DL1XH-west | 2026-09-04 05:04:05 | 52.55609 | 9.07549 | 230° | 18km/h | 24206m | 7.8m/s | -50.5°C | 0% | 30.1hPa | 2.6V | 18:12:15 | 01:32:53 | 00:00:00 | |
| DJ2DS-15 | 2026-09-04 05:04:05 | 52.55609 | 9.07549 | 231° | 16km/h | 24207m | 7.7m/s | -50.4°C | 3.3% | 30.1hPa | 2.6V | 00:00:00 | 01:32:53 | 00:00:00 | |
| SMARD9-10 | 2026-09-04 05:04:04 | 52.55609 | 9.07549 | 231° | 18km/h | 24207m | 7.8m/s | -50.4°C | 0.7% | 30.1hPa | 2.6V | 00:00:00 | 00:00:00 | 00:00:00 | |
| DL3AQ-11 | 2026-09-04 05:04:03 | 52.55616 | 9.07569 | 255° | 16km/h | 24189m | 7.6m/s | -50.4°C | 0.7% | 30.2hPa | 2.6V | 00:00:00 | 00:00:00 | 00:00:00 | |
| DK5PH-5 | 2026-09-04 05:04:02 | 52.55616 | 9.07569 | 256° | 20km/h | 24189m | 7.6m/s | -50.4°C | 3.2% | 30.1hPa | 2.6V | 00:00:00 | 01:32:50 | 08:30:00 | |
| DL1XH-15 | 2026-09-04 05:04:01 | 52.55626 | 9.07603 | 230° | 11km/h | 24154m | 7m/s | -50.4°C | 3.3% | 30.3hPa | 2.6V | 08:30:00 | 01:32:44 | 00:00:00 | |
| DF8AY | 2026-09-04 05:04:00 | 52.55618 | 9.07583 | 256° | 16km/h | 24177m | 5.4m/s | -50.5°C | 0% | 30.3hPa | 2.6V | 18:12:15 | 01:32:48 | 00:00:00 | |
| BIOWL1-15 | 2026-09-04 05:03:59 | 52.55623 | 9.07599 | 231° | 13km/h | 24160m | 5.9m/s | -50.4°C | 0.1% | 30.4hPa | 2.6V | 18:12:15 | 01:32:45 | 00:00:00 | |
| EDDB2-11 | 2026-09-04 05:03:58 | 52.55623 | 9.07599 | 230° | 13km/h | 24160m | 5.9m/s | -50.4°C | 0.8% | 30.4hPa | 2.5V | 00:00:00 | 00:00:00 | 00:00:00 | |
| GOEST3-10 | 2026-09-04 05:03:57 | 52.55623 | 9.07599 | 231° | 15km/h | 24160m | 5.9m/s | -50.4°C | 3.3% | 30.3hPa | 2.5V | 00:00:00 | 01:32:45 | 00:00:00 | |
| DL1XH1-15 | 2026-09-04 05:03:56 | 52.55640 | 9.07628 | 233° | 18km/h | 24123m | 6.8m/s | -50.3°C | 3.2% | 30.5hPa | 2.5V | 08:30:00 | 01:32:39 | 00:00:00 | |
| DL1XH-west | 2026-09-04 05:03:55 | 52.55628 | 9.07607 | 227° | 13km/h | 24147m | 6.2m/s | -50.3°C | 0% | 30.4hPa | 2.6V | 18:12:15 | 01:32:43 | 00:00:00 | |
| DB0DAN | 2026-09-04 05:03:55 | 52.55628 | 9.07607 | 227° | 13km/h | 24147m | 6.2m/s | -50.3°C | 0.7% | 30.4hPa | 2.6V | 00:00:00 | 00:00:00 | 00:00:00 | |
| DO2JMG | 2026-09-04 05:03:54 | 52.55630 | 9.07611 | 221° | 16km/h | 24140m | 7.1m/s | -50.4°C | 0.1% | 30.4hPa | 2.7V | 18:12:15 | 01:32:42 | 00:00:00 | |
| DL3AQ-11 | 2026-09-04 05:03:52 | 52.55640 | 9.07628 | 233° | 16km/h | 24124m | 6.8m/s | -50.3°C | 0.7% | 30.5hPa | 2.7V | 00:00:00 | 00:00:00 | 00:00:00 | |
| DL1XH-15 | 2026-09-04 05:03:51 | 52.55653 | 9.07658 | 227° | 26km/h | 24095m | 6.1m/s | -50.5°C | 3.2% | 30.6hPa | 2.7V | 08:30:00 | 01:32:34 | 00:00:00 | |
| DF8AY | 2026-09-04 05:03:50 | 52.55642 | 9.07634 | 241° | 15km/h | 24117m | 5.9m/s | -50.3°C | 0% | 30.5hPa | 2.6V | 18:12:15 | 01:32:38 | 00:00:00 | |
| BIOWL1-15 | 2026-09-04 05:03:49 | 52.55649 | 9.07651 | 232° | 20km/h | 24101m | 6.8m/s | -50.5°C | 0% | 30.6hPa | 2.7V | 18:12:15 | 01:32:35 | 00:00:00 | |
| DO2SHX-10 | 2026-09-04 05:03:48 | 52.55646 | 9.07645 | 239° | 20km/h | 24107m | 4.9m/s | -50.3°C | 3.2% | 30.5hPa | 2.6V | 00:00:00 | 01:32:36 | 00:00:00 | |
| GOEST3-10 | 2026-09-04 05:03:47 | 52.55649 | 9.07651 | 232° | 26km/h | 24101m | 6.7m/s | -50.4°C | 3.2% | 30.6hPa | 2.6V | 00:00:00 | 01:32:35 | 00:00:00 | |
| DL1XH1-15 | 2026-09-04 05:03:46 | 52.55674 | 9.07698 | 221° | 27km/h | 24066m | 6.4m/s | -50.4°C | 3.2% | 30.8hPa | 2.6V | 08:30:00 | 01:32:29 | 00:00:00 | |
| AA1-15 | 2026-09-04 05:03:45 | 52.55657 | 9.07666 | 228° | 27km/h | 24089m | 5.1m/s | -50.4°C | 0% | 30.7hPa | 2.6V | 18:12:15 | 01:32:33 | 00:00:00 | |
| DD8BA-10 | 2026-09-04 05:03:45 | 52.55657 | 9.07666 | 228° | 26km/h | 24090m | 5.1m/s | -50.4°C | 3.2% | 30.6hPa | 2.6V | 00:00:00 | 00:00:00 | 00:00:00 | |
| DM0DOS-11 | 2026-09-04 05:03:44 | 52.55666 | 9.07683 | 231° | 26km/h | 24077m | 5.8m/s | -50.4°C | 3.3% | 30.8hPa | 2.6V | 08:30:00 | 01:32:31 | 00:00:00 | |
| DL1XH-west | 2026-09-04 05:03:44 | 52.55662 | 9.07675 | 230° | 27km/h | 24083m | 6.7m/s | -50.4°C | 0% | 30.7hPa | 2.6V | 18:12:15 | 01:32:32 | 00:00:00 | |
| DO2JMG | 2026-09-04 05:03:43 | 52.55666 | 9.07683 | 232° | 26km/h | 24077m | 5.8m/s | -50.4°C | 0.1% | 30.8hPa | 2.6V | 18:12:15 | 01:32:31 | 00:00:00 | |
| DO2SHX-10 | 2026-09-04 05:03:42 | 52.55670 | 9.07691 | 228° | 27km/h | 24072m | 4.5m/s | -50.3°C | 3.2% | 30.7hPa | 2.6V | 00:00:00 | 01:32:30 | 00:00:00 | |
| DL1XH-15 | 2026-09-04 05:03:41 | 52.55701 | 9.07725 | 202° | 20km/h | 24037m | 5m/s | -50.4°C | 3.2% | 30.9hPa | 2.6V | 08:30:00 | 01:32:24 | 00:00:00 | |
| DF8AY | 2026-09-04 05:03:39 | 52.55686 | 9.07711 | 210° | 27km/h | 24055m | 5m/s | -50.4°C | 0% | 30.8hPa | 2.7V | 18:12:15 | 01:32:27 | 00:00:00 | |
| BIOWL1-15 | 2026-09-04 05:03:37 | 52.55697 | 9.07721 | 206° | 22km/h | 24043m | 5.8m/s | -50.4°C | 0% | 30.9hPa | 2.6V | 18:12:15 | 01:32:25 | 00:00:00 | |
| GOEST3-10 | 2026-09-04 05:03:37 | 52.55697 | 9.07721 | 206° | 24km/h | 24043m | 5.8m/s | -50.3°C | 3.2% | 30.8hPa | 2.6V | 00:00:00 | 01:32:25 | 08:30:00 | |
| DL3AQ-11 | 2026-09-04 05:03:36 | 52.55706 | 9.07728 | 199° | 20km/h | 24032m | 6.0m/s | -50.4°C | 0.7% | 30.9hPa | 2.7V | 00:00:00 | 00:00:00 | 00:00:00 | |
| DD8BA-10 | 2026-09-04 05:03:35 | 52.55706 | 9.07728 | 200° | 26km/h | 24032m | 5.9m/s | -50.3°C | 3.2% | 30.9hPa | 2.7V | 00:00:00 | 00:00:00 | 00:00:00 | |
| DM0DOS-11 | 2026-09-04 05:03:34 | 52.55719 | 9.07735 | 202° | 29km/h | 24021m | 4.5m/s | -50.4°C | 3.2% | 31hPa | 2.7V | 08:30:00 | 01:32:21 | 00:00:00 | |
| AA1-15 | 2026-09-04 05:03:34 | 52.55712 | 9.07731 | 200° | 26km/h | 24026m | 6.1m/s | -50.4°C | 0% | 31hPa | 2.7V | 18:12:15 | 01:32:22 | 00:00:00 | |
| DL1XH-west | 2026-09-04 05:03:33 | 52.55719 | 9.07735 | 202° | 29km/h | 24021m | 4.6m/s | -50.4°C | 0% | 31hPa | 2.7V | 18:12:15 | 01:32:21 | 00:00:00 | |
| DO2JMG | 2026-09-04 05:03:32 | 52.55725 | 9.07740 | 206° | 29km/h | 24016m | 4.6m/s | -50.4°C | 0% | 31hPa | 2.6V | 18:12:15 | 01:32:20 | 00:00:00 | |
| DK5PH-5 | 2026-09-04 05:03:32 | 52.55725 | 9.07740 | 206° | 26km/h | 24016m | 4.5m/s | -50.4°C | 3.1% | 30.9hPa | 2.6V | 00:00:00 | 01:32:20 | 00:00:00 | |
| DL1XH-15 | 2026-09-04 05:03:31 | 52.55759 | 9.07757 | 178° | 31km/h | 23981m | 6.1m/s | -50.6°C | 3.2% | 31.2hPa | 2.6V | 08:30:00 | 01:32:14 | 00:00:00 | |
| DF8AY | 2026-09-04 05:03:29 | 52.55741 | 9.07754 | 202° | 18km/h | 23999m | 4.9m/s | -50.5°C | 0% | 31.1hPa | 2.7V | 18:12:15 | 01:32:17 | 00:00:00 | |
| HSKMA3-T | 2026-09-04 05:03:28 | 52.55746 | 9.07756 | 192° | 20km/h | 23994m | 5m/s | -50.5°C | 0% | 31.1hPa | 2.7V | 18:12:15 | 01:32:16 | 00:00:00 | |
| BIOWL1-15 | 2026-09-04 05:03:28 | 52.55759 | 9.07757 | 178° | 31km/h | 23981m | 6.1m/s | -50.6°C | 0% | 31.2hPa | 2.6V | 18:12:15 | 01:32:14 | 00:00:00 | |
| DL4XJ-10 | 2026-09-04 05:03:28 | 52.55746 | 9.07756 | 192° | 22km/h | 23994m | 4.9m/s | -51.4°C | 0% | 0hPa | 2.6V | 00:00:00 | 00:00:00 | 00:00:00 | |
| EDDB2-11 | 2026-09-04 05:03:27 | 52.55759 | 9.07757 | 178° | 31km/h | 23982m | 6.1m/s | -50.6°C | 0.7% | 31.2hPa | 2.6V | 00:00:00 | 00:00:00 | 00:00:00 | |
| DF8AY-15 | 2026-09-04 05:03:26 | 52.55759 | 9.07757 | 179° | 26km/h | 23982m | 6.1m/s | -50.5°C | 3.2% | 31.1hPa | 2.6V | 00:00:00 | 01:32:14 | 08:30:00 | |
| DJ2DS-15 | 2026-09-04 05:03:25 | 52.55767 | 9.07756 | 177° | 26km/h | 23976m | 5.3m/s | -50.6°C | 3.3% | 31.2hPa | 2.7V | 00:00:00 | 01:32:13 | 00:00:00 | |
| DM0DOS-11 | 2026-09-04 05:03:24 | 52.55785 | 9.07755 | 177° | 35km/h | 23963m | 5.4m/s | -50.7°C | 3.3% | 31.3hPa | 2.7V | 08:30:00 | 01:32:11 | 00:00:00 | |
| AA1-15 | 2026-09-04 05:03:24 | 52.55776 | 9.07756 | 176° | 37km/h | 23969m | 6.6m/s | -50.7°C | 0.1% | 31.2hPa | 2.7V | 18:12:15 | 01:32:12 | 00:00:00 | |
| DO2JMG | 2026-09-04 05:03:22 | 52.55794 | 9.07754 | 180° | 31km/h | 23958m | 5m/s | -50.7°C | 0.1% | 31.3hPa | 2.6V | 18:12:15 | 01:32:10 | 00:00:00 | |
| GOEST3-10 | 2026-09-04 05:03:22 | 52.55793 | 9.07754 | 180° | 29km/h | 23958m | 4.9m/s | -50.7°C | 3.3% | 31.2hPa | 2.6V | 00:00:00 | 00:00:00 | 00:00:00 | |
| DL1XH-15 | 2026-09-04 05:03:21 | 52.55833 | 9.07761 | 185° | 13km/h | 23925m | 5.4m/s | -51°C | 3.3% | 31.5hPa | 2.7V | 08:30:00 | 01:32:04 | 00:00:00 | |
| HSKMA3-T | 2026-09-04 05:03:20 | 52.55824 | 9.07759 | 189° | 22km/h | 23938m | 4.7m/s | -51°C | 0% | 31.4hPa | 2.6V | 18:12:15 | 01:32:06 | 00:00:00 | |
| DF8AY | 2026-09-04 05:03:19 | 52.55817 | 9.07758 | 189° | 29km/h | 23942m | 3.6m/s | -50.9°C | 0% | 31.4hPa | 2.6V | 18:12:15 | 01:32:07 | 00:00:00 | |
| BIOWL1-15 | 2026-09-04 05:03:17 | 52.55836 | 9.07761 | 193° | 13km/h | 23920m | 5.4m/s | -51°C | 0.1% | 31.5hPa | 2.6V | 18:12:15 | 01:32:03 | 00:00:00 | |
| AA1-15 | 2026-09-04 05:03:14 | 52.55839 | 9.07763 | 196° | 16km/h | 23914m | 6.9m/s | -51°C | 0.1% | 31.5hPa | 2.5V | 18:12:15 | 01:32:02 | 00:00:00 | |
| DL1XH-west | 2026-09-04 05:03:12 | 52.55849 | 9.07766 | 182° | 20km/h | 23902m | 6.2m/s | -51.1°C | 0% | 31.6hPa | 2.6V | 18:12:15 | 01:32:00 | 00:00:00 | |
| DO2JMG | 2026-09-04 05:03:11 | 52.55854 | 9.07765 | 175° | 24km/h | 23896m | 6.6m/s | -51.1°C | 0.1% | 31.6hPa | 2.6V | 18:12:15 | 01:31:59 | 00:00:00 | |
| DB0DAN | 2026-09-04 05:03:10 | 52.55861 | 9.07764 | 170° | 26km/h | 23890m | 5m/s | -51.1°C | 0.8% | 31.61hPa | 2.7V | 00:00:00 | 00:00:00 | 00:00:00 | |
| DF8AY | 2026-09-04 05:03:09 | 52.55868 | 9.07762 | 172° | 31km/h | 23884m | 7.2m/s | -51.1°C | 0.1% | 31.6hPa | 2.7V | 18:12:15 | 01:31:57 | 00:00:00 | |
| HSKMA3-T | 2026-09-04 05:03:08 | 52.55876 | 9.07760 | 173° | 31km/h | 23878m | 5m/s | -51.1°C | 0.1% | 31.7hPa | 2.7V | 18:12:15 | 01:31:56 | 00:00:00 | |
| DL4XJ-10 | 2026-09-04 05:03:08 | 52.55875 | 9.07760 | 173° | 20km/h | 23878m | 5.0m/s | -52.0°C | 0% | 0hPa | 2.6V | 00:00:00 | 00:00:00 | 00:00:00 | |
| GOEST3-10 | 2026-09-04 05:03:07 | 52.55883 | 9.07758 | 170° | 20km/h | 23873m | 4.6m/s | -51.1°C | 3.3% | 31.7hPa | 2.6V | 00:00:00 | 01:31:55 | 00:00:00 | |
| DL1XH1-15 | 2026-09-04 05:03:06 | 52.55910 | 9.07750 | 208° | 18km/h | 23840m | 5m/s | -51.3°C | 3.4% | 31.9hPa | 2.6V | 08:30:00 | 01:31:49 | 00:00:00 | |
| BIOWL1-15 | 2026-09-04 05:03:05 | 52.55896 | 9.07752 | 155° | 20km/h | 23861m | 5.5m/s | -51.2°C | 0.1% | 31.8hPa | 2.6V | 18:12:15 | 01:31:53 | 00:00:00 | |
| AA1-15 | 2026-09-04 05:03:03 | 52.55903 | 9.07747 | 171° | 13km/h | 23851m | 5.2m/s | -51.3°C | 0.2% | 31.8hPa | 2.6V | 18:12:15 | 01:31:51 | 00:00:00 | |
| DL1XH-west | 2026-09-04 05:03:01 | 52.55910 | 9.07750 | 208° | 18km/h | 23840m | 5m/s | -51.3°C | 0.1% | 31.9hPa | 2.6V | 18:12:15 | 01:31:49 | 00:00:00 | |
| DF8AY | 2026-09-04 05:02:58 | 52.55923 | 9.07761 | 194° | 18km/h | 23823m | 5.6m/s | -51.3°C | 0% | 32hPa | 2.7V | 18:12:15 | 01:31:46 | 00:00:00 | |
| HSKMA3-T | 2026-09-04 05:02:57 | 52.55928 | 9.07762 | 184° | 20km/h | 23817m | 5.3m/s | -51.3°C | 0% | 32hPa | 2.6V | 18:12:15 | 01:31:45 | 00:00:00 | |
| DO2SHX-10 | 2026-09-04 05:02:57 | 52.55928 | 9.07762 | 185° | 24km/h | 23818m | 5.3m/s | -51.2°C | 3.3% | 31.9hPa | 2.6V | 00:00:00 | 01:31:45 | 08:30:00 | |
| DL1XH1-15 | 2026-09-04 05:02:56 | 52.55960 | 9.07762 | 162° | 13km/h | 23784m | 5.4m/s | -51.2°C | 3.3% | 32.2hPa | 2.6V | 08:30:00 | 01:31:39 | 00:00:00 | |
| DL3AQ-11 | 2026-09-04 05:02:56 | 52.55940 | 9.07763 | 182° | 24km/h | 23806m | 5.7m/s | -51.2°C | 0.7% | 32.1hPa | 2.6V | 00:00:00 | 00:00:00 | 00:00:00 | |
| DB0DAN | 2026-09-04 05:02:55 | 52.55940 | 9.07763 | 183° | 24km/h | 23806m | 5.7m/s | -51.2°C | 0.7% | 32.06hPa | 2.6V | 00:00:00 | 00:00:00 | 00:00:00 | |
| BIOWL1-15 | 2026-09-04 05:02:55 | 52.55940 | 9.07763 | 183° | 26km/h | 23806m | 5.7m/s | -51.2°C | 0% | 32.1hPa | 2.6V | 18:12:15 | 01:31:43 | 00:00:00 | |
| AA1-15 | 2026-09-04 05:02:53 | 52.55952 | 9.07763 | 179° | 20km/h | 23796m | 5.2m/s | -51.2°C | 0% | 32.1hPa | 2.7V | 18:12:15 | 01:31:41 | 00:00:00 | |
| DD1CC8 | 2026-09-04 05:02:53 | 52.55956 | 9.07763 | 171° | 15km/h | 23790m | 6.7m/s | -51.2°C | 0.7% | 32.1hPa | 2.7V | 00:00:00 | 00:00:00 | 00:00:00 | |
| GOEST3-10 | 2026-09-04 05:02:52 | 52.55956 | 9.07763 | 172° | 16km/h | 23790m | 6.7m/s | -51.2°C | 3.2% | 32.1hPa | 2.7V | 00:00:00 | 00:00:00 | 08:30:00 | |
| DL1XH-15 | 2026-09-04 05:02:51 | 52.55984 | 9.07760 | 180° | 26km/h | 23756m | 5.9m/s | -51.4°C | 3.3% | 32.3hPa | 2.7V | 08:30:00 | 01:31:34 | 00:00:00 | |
| DL1XH-west | 2026-09-04 05:02:50 | 52.55963 | 9.07760 | 166° | 13km/h | 23779m | 5m/s | -51.3°C | 0.1% | 32.2hPa | 2.6V | 18:12:15 | 01:31:38 | 00:00:00 | |
| DF8AY | 2026-09-04 05:02:48 | 52.55971 | 9.07759 | 183° | 22km/h | 23767m | 5.5m/s | -51.4°C | 0.1% | 32.3hPa | 2.6V | 18:12:15 | 01:31:36 | 00:00:00 | |
| HSKMA3-T | 2026-09-04 05:02:48 | 52.55977 | 9.07760 | 184° | 26km/h | 23762m | 4.7m/s | -51.4°C | 0% | 32.2hPa | 2.7V | 18:12:15 | 01:31:35 | 00:00:00 | |
| BIOWL1-15 | 2026-09-04 05:02:44 | 52.55997 | 9.07758 | 165° | 26km/h | 23745m | 4.9m/s | -51.4°C | 0.1% | 32.4hPa | 2.6V | 18:12:15 | 01:31:32 | 00:00:00 | |
| DF8AY | 2026-09-04 05:02:42 | 52.56033 | 9.07738 | 128° | 15km/h | 23707m | 5.5m/s | -51.8°C | 0.2% | 32.5hPa | 2.5V | 18:12:15 | 01:31:25 | 00:00:00 | |
| AA1-15 | 2026-09-04 05:02:42 | 52.56009 | 9.07752 | 165° | 26km/h | 23735m | 6.1m/s | -51.5°C | 0.1% | 32.4hPa | 2.6V | 18:12:15 | 01:31:30 | 00:00:00 | |
| GOEST3-10 | 2026-09-04 05:02:42 | 52.56009 | 9.07752 | 165° | 22km/h | 23735m | 6.0m/s | -51.5°C | 3.3% | 32.4hPa | 2.6V | 00:00:00 | 00:00:00 | 00:00:00 | |
| DL1XH-15 | 2026-09-04 05:02:41 | 52.56035 | 9.07733 | 126° | 16km/h | 23702m | 5.3m/s | -51.9°C | 3.5% | 32.6hPa | 2.6V | 08:30:00 | 01:31:24 | 00:00:00 | |
| DO2JMG | 2026-09-04 05:02:40 | 52.56021 | 9.07747 | 168° | 22km/h | 23725m | 4.2m/s | -51.6°C | 0% | 32.4hPa | 2.7V | 18:12:15 | 01:31:28 | 00:00:00 | |
| DB0DAN | 2026-09-04 05:02:40 | 52.56021 | 9.07747 | 168° | 22km/h | 23725m | 4.2m/s | -51.6°C | 0.8% | 32.42hPa | 2.7V | 00:00:00 | 00:00:00 | 00:00:00 | |
| DL1XH-west | 2026-09-04 05:02:39 | 52.56026 | 9.07745 | 161° | 18km/h | 23720m | 5.9m/s | -51.7°C | 0.1% | 32.5hPa | 2.7V | 18:12:15 | 01:31:27 | 00:00:00 | |
| HSKMA3-T | 2026-09-04 05:02:37 | 52.56035 | 9.07733 | 126° | 16km/h | 23702m | 5.3m/s | -51.9°C | 0.2% | 32.6hPa | 2.6V | 18:12:15 | 01:31:24 | 00:00:00 | |
| GOEST3-10 | 2026-09-04 05:02:37 | 52.56033 | 9.07738 | 128° | 20km/h | 23707m | 5.5m/s | -51.7°C | 3.4% | 32.5hPa | 2.5V | 00:00:00 | 01:31:25 | 00:00:00 | |
| DM0DOS-11 | 2026-09-04 05:02:36 | 52.56048 | 9.07720 | 163° | 27km/h | 23684m | 4.4m/s | -52°C | 3.5% | 32.6hPa | 2.7V | 08:30:00 | 01:31:21 | 00:00:00 | |
| DL1XH1-15 | 2026-09-04 05:02:36 | 52.56063 | 9.07713 | 158° | 35km/h | 23674m | 6.8m/s | -52°C | 3.4% | 32.7hPa | 2.7V | 08:30:00 | 01:31:19 | 00:00:00 | |
| BIOWL1-15 | 2026-09-04 05:02:35 | 52.56048 | 9.07720 | 164° | 27km/h | 23684m | 4.4m/s | -52°C | 0.2% | 32.6hPa | 2.7V | 18:12:15 | 01:31:21 | 00:00:00 | |
| AA1-15 | 2026-09-04 05:02:32 | 52.56056 | 9.07717 | 164° | 33km/h | 23680m | 4.4m/s | -52°C | 0.2% | 32.7hPa | 2.7V | 18:12:15 | 01:31:20 | 00:00:00 | |
| DL1XH-west | 2026-09-04 05:02:29 | 52.56079 | 9.07698 | 145° | 37km/h | 23663m | 5.1m/s | -52.1°C | 0.1% | 32.8hPa | 2.6V | 18:12:15 | 01:31:17 | 00:00:00 | |
| DF8AY | 2026-09-04 05:02:27 | 52.56092 | 9.07683 | 145° | 29km/h | 23651m | 6.5m/s | -52.2°C | 0.1% | 32.9hPa | 2.7V | 18:12:15 | 01:31:15 | 00:00:00 | |
| GOEST3-10 | 2026-09-04 05:02:27 | 52.56092 | 9.07682 | 146° | 18km/h | 23652m | 6.4m/s | -52.1°C | 3.4% | 32.8hPa | 2.6V | 00:00:00 | 01:31:15 | 00:00:00 | |
| DM0DOS-11 | 2026-09-04 05:02:26 | 52.56107 | 9.07665 | 121° | 15km/h | 23628m | 6.2m/s | -52.3°C | 3.4% | 32.9hPa | 2.6V | 08:30:00 | 01:31:11 | 00:00:00 | |
| HSKMA3-T | 2026-09-04 05:02:25 | 52.56101 | 9.07673 | 149° | 16km/h | 23640m | 5.1m/s | -52.3°C | 0.1% | 32.9hPa | 2.6V | 18:12:15 | 01:31:13 | 00:00:00 | |
| BIOWL1-15 | 2026-09-04 05:02:23 | 52.56107 | 9.07665 | 121° | 15km/h | 23628m | 6.2m/s | -52.3°C | 0.1% | 32.9hPa | 2.6V | 18:12:15 | 01:31:11 | 00:00:00 | |
| DD1CC8 | 2026-09-04 05:02:22 | 52.56110 | 9.07653 | 116° | 15km/h | 23618m | 4.5m/s | -52.4°C | 0.9% | 33.0hPa | 2.7V | 00:00:00 | 00:00:00 | 00:00:00 | |
| DL1XH-15 | 2026-09-04 05:02:21 | 52.56123 | 9.07627 | 123° | 22km/h | 23590m | 6m/s | -52.6°C | 3.6% | 33.1hPa | 2.7V | 08:30:00 | 01:31:04 | 00:00:00 | |
| AA1-15 | 2026-09-04 05:02:21 | 52.56110 | 9.07653 | 116° | 16km/h | 23618m | 4.5m/s | -52.4°C | 0.2% | 33hPa | 2.7V | 18:12:15 | 01:31:09 | 00:00:00 | |
| DO2JMG | 2026-09-04 05:02:19 | 52.56115 | 9.07643 | 136° | 15km/h | 23607m | 5.7m/s | -52.5°C | 0.3% | 33.1hPa | 2.6V | 18:12:15 | 01:31:07 | 00:00:00 | |
| DL1XH-west | 2026-09-04 05:02:18 | 52.56117 | 9.07639 | 137° | 15km/h | 23602m | 4.9m/s | -52.5°C | 0.3% | 33.1hPa | 2.6V | 18:12:15 | 01:31:06 | 00:00:00 | |
| DF8AY | 2026-09-04 05:02:16 | 52.56123 | 9.07627 | 124° | 22km/h | 23590m | 6m/s | -52.6°C | 0.2% | 33.2hPa | 2.7V | 18:12:15 | 01:31:04 | 00:00:00 | |
| HSKMA3-T | 2026-09-04 05:02:14 | 52.56129 | 9.07610 | 118° | 20km/h | 23578m | 6.2m/s | -52.6°C | 0.3% | 33.2hPa | 2.6V | 18:12:15 | 01:31:02 | 00:00:00 | |
| BIOWL1-15 | 2026-09-04 05:02:12 | 52.56133 | 9.07598 | 121° | 15km/h | 23568m | 3.5m/s | -52.5°C | 0.3% | 33.2hPa | 2.6V | 18:12:15 | 01:31:00 | 00:00:00 | |
| DO2SHX-10 | 2026-09-04 05:02:12 | 52.56133 | 9.07598 | 122° | 15km/h | 23568m | 3.5m/s | -52.5°C | 3.6% | 33.2hPa | 2.6V | 00:00:00 | 01:31:00 | 00:00:00 | |
| DL1XH-15 | 2026-09-04 05:02:11 | 52.56150 | 9.07571 | 157° | 16km/h | 23535m | 4.1m/s | -52.7°C | 3.6% | 33.4hPa | 2.6V | 08:30:00 | 01:30:54 | 00:00:00 | |
| DB0DAN | 2026-09-04 05:02:10 | 52.56138 | 9.07587 | 127° | 16km/h | 23558m | 6.6m/s | -52.6°C | 0.9% | 33.31hPa | 2.7V | 00:00:00 | 00:00:00 | 00:00:00 | |
| AA1-15 | 2026-09-04 05:02:10 | 52.56138 | 9.07587 | 127° | 18km/h | 23558m | 6.6m/s | -52.6°C | 0.2% | 33.3hPa | 2.7V | 18:12:15 | 01:30:58 | 00:00:00 | |
| DL1XH-west | 2026-09-04 05:02:08 | 52.56143 | 9.07577 | 140° | 15km/h | 23546m | 6.4m/s | -52.7°C | 0.3% | 33.4hPa | 2.6V | 18:12:15 | 01:30:56 | 00:00:00 | |
| GOEST3-10 | 2026-09-04 05:02:07 | 52.56146 | 9.07573 | 150° | 20km/h | 23540m | 6.5m/s | -52.7°C | 3.7% | 33.3hPa | 2.6V | 00:00:00 | 01:30:55 | 08:30:00 | |
| DB0NH | 2026-09-04 05:02:06 | 52.56150 | 9.07571 | 158° | 27km/h | 23535m | 4.1m/s | -52.7°C | 3.6% | 33.4hPa | 2.6V | 00:00:00 | 01:30:54 | 08:30:00 | |
| DM0DOS-11 | 2026-09-04 05:02:05 | 52.56165 | 9.07560 | 159° | 26km/h | 23517m | 5.5m/s | -52.6°C | 3.5% | 33.5hPa | 2.7V | 08:30:00 | 01:30:51 | 00:00:00 | |
| DF8AY | 2026-09-04 05:02:05 | 52.56154 | 9.07568 | 157° | 20km/h | 23529m | 7m/s | -52.7°C | 0.2% | 33.4hPa | 2.6V | 18:12:15 | 01:30:53 | 00:00:00 | |
| BIOWL1-15 | 2026-09-04 05:02:04 | 52.56171 | 9.07557 | 162° | 24km/h | 23511m | 6.5m/s | -52.6°C | 0.2% | 33.6hPa | 2.7V | 18:12:15 | 01:30:50 | 00:00:00 | |
| HSKMA3-T | 2026-09-04 05:02:03 | 52.56165 | 9.07560 | 160° | 26km/h | 23517m | 5.5m/s | -52.6°C | 0.1% | 33.5hPa | 2.7V | 18:12:15 | 01:30:51 | 00:00:00 | |
| DJ2DS-15 | 2026-09-04 05:02:03 | 52.56171 | 9.07557 | 161° | 24km/h | 23511m | 6.5m/s | -52.6°C | 0.8% | 33.6hPa | 2.7V | 00:00:00 | 00:00:00 | 00:00:00 | |
| DK5PH-5 | 2026-09-04 05:02:02 | 52.56171 | 9.07557 | 162° | 27km/h | 23511m | 6.5m/s | -52.5°C | 3.5% | 33.5hPa | 2.7V | 00:00:00 | 01:30:50 | 00:00:00 | |
| DL1XH-15 | 2026-09-04 05:02:01 | 52.56211 | 9.07533 | 163° | 24km/h | 23475m | 5.2m/s | -52.7°C | 3.6% | 33.7hPa | 2.7V | 08:30:00 | 01:30:44 | 00:00:00 | |
| AA1-15 | 2026-09-04 05:01:59 | 52.56190 | 9.07545 | 158° | 31km/h | 23493m | 6.7m/s | -52.6°C | 0.1% | 33.6hPa | 2.6V | 18:12:15 | 01:30:47 | 00:00:00 | |
| DO2JMG | 2026-09-04 05:01:58 | 52.56198 | 9.07541 | 159° | 31km/h | 23487m | 5.5m/s | -52.6°C | 0.2% | 33.7hPa | 2.6V | 18:12:15 | 01:30:46 | 00:00:00 | |
| DL1XH-west | 2026-09-04 05:01:57 | 52.56205 | 9.07537 | 161° | 27km/h | 23481m | 6.7m/s | -52.7°C | 0.3% | 33.7hPa | 2.6V | 18:12:15 | 01:30:45 | 00:00:00 | |
| DF8AY | 2026-09-04 05:01:55 | 52.56217 | 9.07530 | 162° | 26km/h | 23471m | 3.7m/s | -52.7°C | 0.3% | 33.8hPa | 2.7V | 18:12:15 | 01:30:43 | 00:00:00 | |
| DB0DAN | 2026-09-04 05:01:55 | 52.56217 | 9.07530 | 162° | 24km/h | 23471m | 3.7m/s | -52.7°C | 0.9% | 33.75hPa | 2.7V | 00:00:00 | 00:00:00 | 00:00:00 | |
| HSKMA3-T | 2026-09-04 05:01:54 | 52.56230 | 9.07521 | 150° | 31km/h | 23459m | 6.1m/s | -52.8°C | 0.2% | 33.9hPa | 2.5V | 18:12:15 | 01:30:41 | 00:00:00 | |
| DL4XJ-10 | 2026-09-04 05:01:53 | 52.56229 | 9.07521 | 150° | 22km/h | 23459m | 6.0m/s | -53.7°C | 0% | 0hPa | 2.6V | 00:00:00 | 00:00:00 | 00:00:00 | |
| GOEST3-10 | 2026-09-04 05:01:52 | 52.56236 | 9.07514 | 143° | 29km/h | 23454m | 4.8m/s | -52.8°C | 3.6% | 33.8hPa | 2.6V | 00:00:00 | 00:00:00 | 00:00:00 | |
| DL1XH-15 | 2026-09-04 05:01:51 | 52.56271 | 9.07468 | 155° | 29km/h | 23419m | 6m/s | -52.8°C | 3.5% | 34hPa | 2.6V | 08:30:00 | 01:30:34 | 00:00:00 | |
| BIOWL1-15 | 2026-09-04 05:01:51 | 52.56242 | 9.07506 | 139° | 29km/h | 23447m | 7.6m/s | -52.9°C | 0.2% | 33.9hPa | 2.6V | 18:12:15 | 01:30:39 | 00:00:00 | |
| AA1-15 | 2026-09-04 05:01:49 | 52.56253 | 9.07490 | 137° | 27km/h | 23436m | 4.9m/s | -52.8°C | 0.2% | 34hPa | 2.7V | 18:12:15 | 01:30:37 | 00:00:00 | |
| DO2JMG | 2026-09-04 05:01:48 | 52.56258 | 9.07481 | 140° | 31km/h | 23430m | 7.3m/s | -52.8°C | 0.2% | 34hPa | 2.6V | 18:12:15 | 01:30:36 | 00:00:00 | |
| DL1XH-west | 2026-09-04 05:01:46 | 52.56271 | 9.07468 | 155° | 29km/h | 23419m | 6m/s | -52.8°C | 0.1% | 34hPa | 2.6V | 18:12:15 | 01:30:34 | 00:00:00 | |
| DF8AY | 2026-09-04 05:01:45 | 52.56278 | 9.07464 | 164° | 26km/h | 23412m | 6.8m/s | -52.9°C | 0.2% | 34.1hPa | 2.7V | 18:12:15 | 01:30:33 | 00:00:00 | |
| DJ2DS-15 | 2026-09-04 05:01:45 | 52.56277 | 9.07464 | 165° | 24km/h | 23413m | 6.8m/s | -52.8°C | 3.5% | 34.0hPa | 2.7V | 00:00:00 | 01:30:33 | 00:00:00 | |
| DL1NUX | 2026-09-04 05:01:44 | 52.56311 | 9.07436 | 114° | 22km/h | 23377m | 6m/s | -53.4°C | 3.6% | 34.3hPa | 2.7V | 08:30:00 | 01:30:27 | 00:00:00 | |
| HSKMA3-T | 2026-09-04 05:01:43 | 52.56290 | 9.07459 | 166° | 27km/h | 23401m | 6.7m/s | -53°C | 0.1% | 34.1hPa | 2.6V | 18:12:15 | 01:30:31 | 00:00:00 | |
| BIOWL1-15 | 2026-09-04 05:01:43 | 52.56303 | 9.07450 | 145° | 26km/h | 23389m | 3.7m/s | -53.1°C | 0.3% | 34.2hPa | 2.6V | 18:12:15 | 01:30:29 | 00:00:00 | |
| EDDB2-12 | 2026-09-04 05:01:43 | 52.56290 | 9.07459 | 165° | 27km/h | 23401m | 6.7m/s | -53.0°C | 0.8% | 34.1hPa | 2.7V | 00:00:00 | 00:00:00 | 00:00:00 | |
| GOEST3-10 | 2026-09-04 05:01:42 | 52.56297 | 9.07455 | 158° | 26km/h | 23395m | 6.2m/s | -53.0°C | 3.5% | 34.1hPa | 2.7V | 00:00:00 | 00:00:00 | 00:00:00 | |
| DB0DAN | 2026-09-04 05:01:40 | 52.56308 | 9.07444 | 135° | 22km/h | 23384m | 7.1m/s | -53.2°C | 0.9% | 34.23hPa | 2.7V | 00:00:00 | 00:00:00 | 00:00:00 | |
| AA1-15 | 2026-09-04 05:01:38 | 52.56313 | 9.07427 | 105° | 26km/h | 23372m | 4.8m/s | -53.4°C | 0.3% | 34.3hPa | 2.7V | 18:12:15 | 01:30:26 | 00:00:00 | |
| DO2JMG | 2026-09-04 05:01:37 | 52.56315 | 9.07416 | 105° | 29km/h | 23366m | 7.8m/s | -53.5°C | 0.2% | 34.3hPa | 2.6V | 18:12:15 | 01:30:25 | 00:00:00 | |
| GOEST3-10 | 2026-09-04 05:01:37 | 52.56315 | 9.07416 | 106° | 26km/h | 23366m | 7.7m/s | -53.4°C | 3.6% | 34.3hPa | 2.6V | 00:00:00 | 01:30:25 | 00:00:00 | |
| DL1XH1-15 | 2026-09-04 05:01:36 | 52.56330 | 9.07362 | 139° | 22km/h | 23331m | 7m/s | -53.8°C | 3.8% | 34.5hPa | 2.6V | 08:30:00 | 01:30:19 | 00:00:00 | |
| DB0UT-7 | 2026-09-04 05:01:36 | 52.56317 | 9.07403 | 106° | 16km/h | 23360m | 4.3m/s | -53.5°C | 3.7% | 34.3hPa | 2.6V | 00:00:00 | 00:00:00 | 00:00:00 | |
| DM0DOS-11 | 2026-09-04 05:01:35 | 52.56323 | 9.07374 | 122° | 18km/h | 23343m | 4.8m/s | -53.7°C | 3.7% | 34.4hPa | 2.7V | 08:30:00 | 01:30:21 | 00:00:00 | |
| DL1XH-west | 2026-09-04 05:01:35 | 52.56319 | 9.07392 | 107° | 27km/h | 23355m | 4.2m/s | -53.5°C | 0.2% | 34.4hPa | 2.6V | 18:12:15 | 01:30:23 | 00:00:00 | |
| DF8AY | 2026-09-04 05:01:34 | 52.56321 | 9.07381 | 109° | 24km/h | 23349m | 7.6m/s | -53.6°C | 0.3% | 34.4hPa | 2.6V | 18:12:15 | 01:30:22 | 00:00:00 | |
| BIOWL1-15 | 2026-09-04 05:01:33 | 52.56330 | 9.07362 | 140° | 22km/h | 23331m | 7.1m/s | -53.8°C | 0.4% | 34.5hPa | 2.6V | 18:12:15 | 01:30:19 | 00:00:00 | |
| HSKMA3-T | 2026-09-04 05:01:33 | 52.56326 | 9.07368 | 133° | 20km/h | 23338m | 6.1m/s | -53.7°C | 0.3% | 34.5hPa | 2.7V | 18:12:15 | 01:30:20 | 00:00:00 | |
| DK5PH-5 | 2026-09-04 05:01:32 | 52.56326 | 9.07368 | 134° | 15km/h | 23338m | 6.1m/s | -53.7°C | 3.7% | 34.4hPa | 2.7V | 00:00:00 | 01:30:20 | 00:00:00 | |
| DL1XH-15 | 2026-09-04 05:01:31 | 52.56344 | 9.07334 | 105° | 18km/h | 23303m | 6.8m/s | -54°C | 3.9% | 34.7hPa | 2.7V | 08:30:00 | 01:30:14 | 00:00:00 | |
| AA1-15 | 2026-09-04 05:01:27 | 52.56343 | 9.07341 | 110° | 15km/h | 23308m | 3.7m/s | -54°C | 0.4% | 34.6hPa | 2.6V | 18:12:15 | 01:30:15 | 00:00:00 | |
| DJ2DS-15 | 2026-09-04 05:01:27 | 52.56344 | 9.07334 | 105° | 18km/h | 23303m | 6.8m/s | -54.0°C | 1.0% | 34.7hPa | 2.6V | 00:00:00 | 00:00:00 | 00:00:00 | |
| DL1XH1-15 | 2026-09-04 05:01:26 | 52.56345 | 9.07295 | 91° | 18km/h | 23274m | 6.3m/s | -53.9°C | 3.8% | 34.8hPa | 2.6V | 08:30:00 | 01:30:09 | 00:00:00 | |
| DO2JMG | 2026-09-04 05:01:26 | 52.56344 | 9.07334 | 106° | 18km/h | 23303m | 6.8m/s | -54°C | 0.4% | 34.7hPa | 2.7V | 18:12:15 | 01:30:14 | 00:00:00 | |
| DB0DAN | 2026-09-04 05:01:25 | 52.56345 | 9.07326 | 100° | 20km/h | 23297m | 5.5m/s | -54°C | 0.9% | 34.7hPa | 2.7V | 00:00:00 | 00:00:00 | 00:00:00 | |
| DL1XH-west | 2026-09-04 05:01:25 | 52.56345 | 9.07326 | 100° | 20km/h | 23297m | 5.5m/s | -54°C | 0.4% | 34.7hPa | 2.7V | 18:12:15 | 01:30:13 | 00:00:00 | |
| DL4XJ-10 | 2026-09-04 05:01:25 | 52.56345 | 9.07326 | 101° | 15km/h | 23297m | 5.5m/s | -54.9°C | 0% | 0hPa | 2.5V | 00:00:00 | 00:00:00 | 00:00:00 | |
| DM0DOS-11 | 2026-09-04 05:01:24 | 52.56346 | 9.07310 | 84° | 18km/h | 23285m | 6.7m/s | -54°C | 3.9% | 34.8hPa | 2.5V | 08:30:00 | 01:30:11 | 00:00:00 | |
| DF8AY | 2026-09-04 05:01:24 | 52.56346 | 9.07318 | 92° | 20km/h | 23291m | 5.7m/s | -54°C | 0.4% | 34.7hPa | 2.6V | 18:12:15 | 01:30:12 | 00:00:00 | |
| HSKMA3-T | 2026-09-04 05:01:22 | 52.56345 | 9.07302 | 85° | 18km/h | 23279m | 4.5m/s | -53.9°C | 0.4% | 34.8hPa | 2.6V | 18:12:15 | 01:30:10 | 00:00:00 | |
| BIOWL1-15 | 2026-09-04 05:01:22 | 52.56346 | 9.07287 | 100° | 18km/h | 23268m | 6.2m/s | -53.9°C | 0.4% | 34.8hPa | 2.6V | 18:12:15 | 01:30:08 | 00:00:00 | |
| GOEST3-10 | 2026-09-04 05:01:22 | 52.56345 | 9.07302 | 85° | 18km/h | 23280m | 4.5m/s | -53.9°C | 3.9% | 34.7hPa | 2.6V | 00:00:00 | 00:00:00 | 08:30:00 | |
| DL1XH-15 | 2026-09-04 05:01:21 | 52.56348 | 9.07262 | 99° | 13km/h | 23245m | 5.1m/s | -54°C | 3.8% | 34.9hPa | 2.5V | 08:30:00 | 01:30:04 | 00:00:00 | |
| DO2JMG | 2026-09-04 05:01:16 | 52.56349 | 9.07262 | 99° | 13km/h | 23245m | 5.1m/s | -54°C | 0.4% | 34.9hPa | 2.5V | 18:12:15 | 01:30:04 | 00:00:00 | |
| DD8BA-10 | 2026-09-04 05:01:15 | 52.56349 | 9.07257 | 105° | 11km/h | 23239m | 6.9m/s | -53.9°C | 3.7% | 35.0hPa | 2.6V | 00:00:00 | 00:00:00 | 00:00:00 | |
| DM0DOS-11 | 2026-09-04 05:01:14 | 52.56350 | 9.07246 | 89° | 11km/h | 23228m | 5.4m/s | -54°C | 3.7% | 35.1hPa | 2.6V | 08:30:00 | 01:30:01 | 00:00:00 | |
| DL1XH-west | 2026-09-04 05:01:14 | 52.56350 | 9.07251 | 102° | 15km/h | 23233m | 4.6m/s | -54°C | 0.4% | 35.1hPa | 2.6V | 18:12:15 | 01:30:02 | 00:00:00 | |
| HSKMA3-T | 2026-09-04 05:01:12 | 52.56350 | 9.07242 | 64° | 9km/h | 23221m | 7.6m/s | -54°C | 0.3% | 35.1hPa | 2.7V | 18:12:15 | 01:30:00 | 00:00:00 | |
| BIOWL1-15 | 2026-09-04 05:01:11 | 52.56347 | 9.07231 | 85° | 11km/h | 23205m | 7.3m/s | -54°C | 0.4% | 35.2hPa | 2.6V | 18:12:15 | 01:29:57 | 00:00:00 | |
| DB0DAN | 2026-09-04 05:01:10 | 52.56347 | 9.07235 | 64° | 9km/h | 23211m | 5.1m/s | -54.1°C | 0.9% | 35.16hPa | 2.6V | 00:00:00 | 00:00:00 | 00:00:00 | |
| DO2JMG | 2026-09-04 05:01:06 | 52.56348 | 9.07216 | 106° | 9km/h | 23187m | 6m/s | -54°C | 0.3% | 35.3hPa | 2.7V | 18:12:15 | 01:29:54 | 00:00:00 | |
| DB0UT-7 | 2026-09-04 05:01:06 | 52.56348 | 9.07216 | 107° | 13km/h | 23187m | 5.9m/s | -53.9°C | 3.8% | 35.2hPa | 2.6V | 00:00:00 | 01:29:54 | 00:00:00 | |
| DD8BA-10 | 2026-09-04 05:01:05 | 52.56349 | 9.07212 | 120° | 11km/h | 23182m | 4.0m/s | -53.9°C | 3.9% | 35.3hPa | 2.6V | 00:00:00 | 00:00:00 | 00:00:00 | |
| DM0DOS-11 | 2026-09-04 05:01:04 | 52.56353 | 9.07205 | 142° | 15km/h | 23170m | 6.1m/s | -53.8°C | 3.8% | 35.4hPa | 2.6V | 08:30:00 | 01:29:51 | 00:00:00 | |
| DF8AY | 2026-09-04 05:01:03 | 52.56353 | 9.07205 | 143° | 15km/h | 23170m | 6.1m/s | -53.8°C | 0.3% | 35.4hPa | 2.6V | 18:12:15 | 01:29:51 | 00:00:00 | |
| HSKMA3-T | 2026-09-04 05:01:02 | 52.56358 | 9.07200 | 157° | 9km/h | 23158m | 6.5m/s | -53.8°C | 0.4% | 35.5hPa | 2.7V | 18:12:15 | 01:29:49 | 00:00:00 | |
| DK5PH-5 | 2026-09-04 05:01:02 | 52.56356 | 9.07202 | 151° | 15km/h | 23164m | 5.4m/s | -53.8°C | 3.7% | 35.4hPa | 2.6V | 00:00:00 | 01:29:50 | 00:00:00 | |
| DL1XH-15 | 2026-09-04 05:01:01 | 52.56367 | 9.07191 | 134° | 13km/h | 23132m | 4.8m/s | -53.8°C | 3.8% | 35.6hPa | 2.7V | 08:30:00 | 01:29:44 | 00:00:00 | |
| BIOWL1-15 | 2026-09-04 05:00:59 | 52.56361 | 9.07198 | 154° | 7km/h | 23148m | 4.9m/s | -53.9°C | 0.5% | 35.5hPa | 2.6V | 18:12:15 | 01:29:47 | 00:00:00 | |
| DF5WG-10 | 2026-09-04 05:00:59 | 52.56361 | 9.07198 | 155° | 13km/h | 23148m | 4.9m/s | -53.8°C | 3.9% | 35.5hPa | 2.5V | 00:00:00 | 01:29:47 | 00:00:00 | |
| DM0DOS-11 | 2026-09-04 05:00:58 | 52.56372 | 9.07181 | 131° | 9km/h | 23115m | 5.4m/s | -53.8°C | 3.8% | 35.7hPa | 2.5V | 08:30:00 | 01:29:41 | 00:00:00 | |
| DL4BBY-15 | 2026-09-04 05:00:58 | 52.56363 | 9.07197 | 147° | 16km/h | 23143m | 6.0m/s | -54.8°C | 0% | 0hPa | 2.6V | 00:00:00 | 00:00:00 | 00:00:00 | |
| GOEST3-10 | 2026-09-04 05:00:57 | 52.56365 | 9.07194 | 141° | 11km/h | 23137m | 5.3m/s | -53.8°C | 3.8% | 35.5hPa | 2.6V | 00:00:00 | 01:29:45 | 00:00:00 | |
| DL1XH1-15 | 2026-09-04 05:00:56 | 52.56378 | 9.07174 | 149° | 18km/h | 23103m | 6m/s | -53.8°C | 3.8% | 35.8hPa | 2.6V | 08:30:00 | 01:29:39 | 00:00:00 | |
| DO2JMG | 2026-09-04 05:00:55 | 52.56369 | 9.07187 | 129° | 11km/h | 23126m | 6.4m/s | -53.8°C | 0.4% | 35.6hPa | 2.7V | 18:12:15 | 01:29:43 | 00:00:00 | |
| DF8AY | 2026-09-04 05:00:53 | 52.56372 | 9.07181 | 131° | 9km/h | 23115m | 5.4m/s | -53.8°C | 0.4% | 35.7hPa | 2.5V | 18:12:15 | 01:29:41 | 00:00:00 | |
| DL1XH-west | 2026-09-04 05:00:52 | 52.56374 | 9.07178 | 142° | 13km/h | 23109m | 6.3m/s | -53.8°C | 0.4% | 35.7hPa | 2.6V | 18:12:15 | 01:29:40 | 00:00:00 | |
| GOEST3-10 | 2026-09-04 05:00:52 | 52.56374 | 9.07178 | 142° | 16km/h | 23109m | 6.3m/s | -53.7°C | 3.8% | 35.7hPa | 2.6V | 00:00:00 | 00:00:00 | 00:00:00 | |
| DL1XH-15 | 2026-09-04 05:00:51 | 52.56396 | 9.07162 | 167° | 16km/h | 23075m | 7.1m/s | -53.8°C | 3.8% | 35.9hPa | 2.5V | 08:30:00 | 01:29:34 | 00:00:00 | |
| HSKMA3-T | 2026-09-04 05:00:51 | 52.56382 | 9.07171 | 153° | 18km/h | 23098m | 4.2m/s | -53.8°C | 0.4% | 35.8hPa | 2.6V | 18:12:15 | 01:29:38 | 00:00:00 | |
| BIOWL1-15 | 2026-09-04 05:00:50 | 52.56389 | 9.07165 | 159° | 13km/h | 23086m | 6.1m/s | -53.8°C | 0.4% | 35.9hPa | 2.7V | 18:12:15 | 01:29:36 | 00:00:00 | |
| DF5WG-10 | 2026-09-04 05:00:49 | 52.56386 | 9.07167 | 155° | 15km/h | 23093m | 6.0m/s | -53.8°C | 3.8% | 35.8hPa | 2.7V | 00:00:00 | 01:29:37 | 08:30:00 | |
| DM0DOS-11 | 2026-09-04 05:00:48 | 52.56406 | 9.07155 | 143° | 13km/h | 23060m | 6.9m/s | -53.7°C | 3.7% | 36hPa | 2.6V | 08:30:00 | 01:29:31 | 00:00:00 | |
| GOEST3-10 | 2026-09-04 05:00:47 | 52.56392 | 9.07163 | 166° | 15km/h | 23081m | 4.7m/s | -53.8°C | 3.9% | 35.8hPa | 2.7V | 00:00:00 | 01:29:35 | 00:00:00 | |
| DL1XH1-15 | 2026-09-04 05:00:46 | 52.56412 | 9.07148 | 145° | 15km/h | 23050m | 5m/s | -53.7°C | 3.8% | 36.1hPa | 2.7V | 08:30:00 | 01:29:29 | 00:00:00 | |
| DO2JMG | 2026-09-04 05:00:45 | 52.56400 | 9.07160 | 162° | 16km/h | 23069m | 4.6m/s | -53.7°C | 0.3% | 36hPa | 2.6V | 18:12:15 | 01:29:33 | 00:00:00 | |
| AA1-15 | 2026-09-04 05:00:44 | 52.56403 | 9.07158 | 152° | 15km/h | 23065m | 3.6m/s | -53.7°C | 0.3% | 36hPa | 2.6V | 18:12:15 | 01:29:32 | 00:00:00 | |
| DL1XH-west | 2026-09-04 05:00:42 | 52.56409 | 9.07151 | 139° | 13km/h | 23054m | 4.2m/s | -53.7°C | 0.3% | 36hPa | 2.7V | 18:12:15 | 01:29:30 | 00:00:00 | |
| DF7PN | 2026-09-04 05:00:42 | 52.56412 | 9.07148 | 145° | 15km/h | 23050m | 5.0m/s | -53.7°C | 0.9% | 36.1hPa | 2.6V | 00:00:00 | 00:00:00 | 00:00:00 | |
| DL1XH-15 | 2026-09-04 05:00:41 | 52.56434 | 9.07128 | 147° | 20km/h | 23020m | 5.3m/s | -53.6°C | 3.7% | 36.2hPa | 2.6V | 08:30:00 | 01:29:24 | 00:00:00 | |
| DB0DAN | 2026-09-04 05:00:40 | 52.56415 | 9.07144 | 151° | 18km/h | 23044m | 7.1m/s | -53.7°C | 0.9% | 36.11hPa | 2.7V | 00:00:00 | 00:00:00 | 00:00:00 | |
| HSKMA3-T | 2026-09-04 05:00:40 | 52.56420 | 9.07140 | 155° | 22km/h | 23038m | 5.2m/s | -53.6°C | 0.3% | 36.2hPa | 2.6V | 18:12:15 | 01:29:27 | 00:00:00 | |
| BIOWL1-15 | 2026-09-04 05:00:38 | 52.56425 | 9.07136 | 153° | 22km/h | 23032m | 6.5m/s | -53.6°C | 0.3% | 36.2hPa | 2.6V | 18:12:15 | 01:29:26 | 00:00:00 | |
| GOEST3-10 | 2026-09-04 05:00:37 | 52.56429 | 9.07132 | 150° | 22km/h | 23026m | 5.8m/s | -53.6°C | 3.7% | 36.1hPa | 2.6V | 00:00:00 | 01:29:25 | 08:30:00 | |
| DL1XH1-15 | 2026-09-04 05:00:36 | 52.56453 | 9.07102 | 114° | 15km/h | 22991m | 4.5m/s | -53.6°C | 3.7% | 36.4hPa | 2.6V | 08:30:00 | 01:29:19 | 00:00:00 | |
| AA1-15 | 2026-09-04 05:00:34 | 52.56443 | 9.07118 | 145° | 22km/h | 23008m | 5m/s | -53.6°C | 0.3% | 36.3hPa | 2.7V | 18:12:15 | 01:29:22 | 00:00:00 | |
| DM0DOS-11 | 2026-09-04 05:00:33 | 52.56447 | 9.07113 | 138° | 20km/h | 23003m | 4.9m/s | -53.6°C | 3.7% | 36.3hPa | 2.7V | 08:30:00 | 01:29:21 | 00:00:00 | |
| DO2SHX-10 | 2026-09-04 05:00:33 | 52.56447 | 9.07112 | 139° | 16km/h | 23003m | 4.9m/s | -53.6°C | 3.7% | 36.3hPa | 2.7V | 00:00:00 | 01:29:21 | 00:00:00 | |
| DL3AQ-11 | 2026-09-04 05:00:32 | 52.56452 | 9.07102 | 114° | 15km/h | 22991m | 4.5m/s | -53.6°C | 0.9% | 36.4hPa | 2.7V | 00:00:00 | 00:00:00 | 00:00:00 | |
| DL1XH-15 | 2026-09-04 05:00:31 | 52.56468 | 9.07067 | 140° | 24km/h | 22963m | 5.4m/s | -53.8°C | 3.7% | 36.6hPa | 2.7V | 08:30:00 | 01:29:14 | 00:00:00 | |
| DL1XH-west | 2026-09-04 05:00:31 | 52.56452 | 9.07102 | 115° | 15km/h | 22991m | 4.5m/s | -53.6°C | 0.3% | 36.4hPa | 2.6V | 18:12:15 | 01:29:19 | 00:00:00 | |
| HSKMA3-T | 2026-09-04 05:00:28 | 52.56460 | 9.07081 | 129° | 24km/h | 22975m | 5.1m/s | -53.7°C | 0.2% | 36.5hPa | 2.7V | 18:12:15 | 01:29:16 | 00:00:00 | |
| DL4BBY-15 | 2026-09-04 05:00:28 | 52.56460 | 9.07081 | 130° | 24km/h | 22976m | 5.1m/s | -54.6°C | 0% | 0hPa | 2.7V | 00:00:00 | 00:00:00 | 00:00:00 | |
| GOEST3-10 | 2026-09-04 05:00:27 | 52.56464 | 9.07074 | 134° | 29km/h | 22969m | 6.2m/s | -53.7°C | 3.7% | 36.5hPa | 2.7V | 00:00:00 | 01:29:15 | 00:00:00 | |
| DL1XH1-15 | 2026-09-04 05:00:26 | 52.56501 | 9.07032 | 140° | 29km/h | 22934m | 5.7m/s | -53.9°C | 3.8% | 36.7hPa | 2.7V | 08:30:00 | 01:29:09 | 00:00:00 | |
| DB0DAN | 2026-09-04 05:00:25 | 52.56473 | 9.07061 | 146° | 27km/h | 22958m | 4.3m/s | -53.9°C | 0.9% | 36.59hPa | 2.6V | 00:00:00 | 00:00:00 | 00:00:00 | |
| AA1-15 | 2026-09-04 05:00:24 | 52.56480 | 9.07054 | 149° | 31km/h | 22953m | 6.8m/s | -53.9°C | 0.3% | 36.6hPa | 2.6V | 18:12:15 | 01:29:12 | 00:00:00 | |
| DL1XH-west | 2026-09-04 05:00:21 | 52.56501 | 9.07032 | 141° | 29km/h | 22934m | 5.7m/s | -53.9°C | 0.4% | 36.7hPa | 2.7V | 18:12:15 | 01:29:09 | 00:00:00 | |
| HSKMA3-T | 2026-09-04 05:00:18 | 52.56513 | 9.07005 | 118° | 29km/h | 22918m | 5.9m/s | -53.9°C | 0.4% | 36.8hPa | 2.6V | 18:12:15 | 01:29:06 | 00:00:00 | |
| DO2SHX-10 | 2026-09-04 05:00:18 | 52.56513 | 9.07005 | 119° | 27km/h | 22919m | 5.9m/s | -53.9°C | 3.9% | 36.8hPa | 2.7V | 00:00:00 | 01:29:06 | 00:00:00 | |
| GOEST3-10 | 2026-09-04 05:00:17 | 52.56517 | 9.06994 | 111° | 24km/h | 22913m | 4.8m/s | -53.9°C | 3.9% | 36.8hPa | 2.7V | 00:00:00 | 01:29:05 | 00:00:00 | |
| DL1XH1-15 | 2026-09-04 05:00:16 | 52.56524 | 9.06939 | 124° | 20km/h | 22880m | 4m/s | -54°C | 3.8% | 37hPa | 2.7V | 08:30:00 | 01:28:59 | 00:00:00 | |
| DO2JMG | 2026-09-04 05:00:15 | 52.56520 | 9.06963 | 92° | 22km/h | 22896m | 4.7m/s | -54°C | 0.4% | 36.9hPa | 2.6V | 18:12:15 | 01:29:02 | 00:00:00 | |
| DL1XH-west | 2026-09-04 05:00:11 | 52.56524 | 9.06939 | 125° | 20km/h | 22880m | 4m/s | -54.1°C | 0.4% | 37hPa | 2.7V | 18:12:15 | 01:28:59 | 00:00:00 | |
| DB0DAN | 2026-09-04 05:00:10 | 52.56527 | 9.06933 | 132° | 18km/h | 22875m | 5.2m/s | -54°C | 0.9% | 37.07hPa | 2.7V | 00:00:00 | 00:00:00 | 00:00:00 | |
| HSKMA3-T | 2026-09-04 05:00:09 | 52.56533 | 9.06923 | 136° | 15km/h | 22863m | 5.5m/s | -54°C | 0.4% | 37.1hPa | 2.6V | 18:12:15 | 01:28:56 | 00:00:00 | |
| BIOWL1-15 | 2026-09-04 05:00:07 | 52.56535 | 9.06919 | 130° | 15km/h | 22858m | 4.7m/s | -54°C | 0.3% | 37.2hPa | 2.6V | 18:12:15 | 01:28:55 | 00:00:00 | |
| DO2JMG | 2026-09-04 05:00:04 | 52.56542 | 9.06899 | 112° | 24km/h | 22841m | 5.5m/s | -54°C | 0.4% | 37.3hPa | 2.7V | 18:12:15 | 01:28:52 | 00:00:00 | |
| DF8AY | 2026-09-04 05:00:01 | 52.56543 | 9.06874 | 69° | 18km/h | 22823m | 4.7m/s | -54°C | 0.5% | 37.4hPa | 2.6V | 18:12:15 | 01:28:49 | 00:00:00 | |
| DL1XH-west | 2026-09-04 05:00:00 | 52.56541 | 9.06867 | 68° | 20km/h | 22819m | 4.9m/s | -54°C | 0.4% | 37.4hPa | 2.6V | 18:12:15 | 01:28:48 | 00:00:00 | |
| HSKMA3-T | 2026-09-04 04:59:58 | 52.56537 | 9.06842 | 75° | 18km/h | 22800m | 5m/s | -53.9°C | 0.4% | 37.5hPa | 2.7V | 18:12:15 | 01:28:45 | 00:00:00 | |
| DM0DOS-11 | 2026-09-04 04:59:58 | 52.56531 | 9.06824 | 65° | 9km/h | 22775m | 6.9m/s | -53.9°C | 3.8% | 37.6hPa | 2.6V | 08:30:00 | 01:28:41 | 00:00:00 | |
| DL4BBY-15 | 2026-09-04 04:59:58 | 52.56538 | 9.06850 | 80° | 16km/h | 22804m | 4.9m/s | -54.8°C | 0% | 0hPa | 2.7V | 00:00:00 | 00:00:00 | 00:00:00 | |
| GOEST3-10 | 2026-09-04 04:59:57 | 52.56537 | 9.06842 | 76° | 13km/h | 22800m | 5.0m/s | -53.8°C | 3.9% | 37.5hPa | 2.7V | 00:00:00 | 01:28:45 | 00:00:00 | |
| DL1XH1-15 | 2026-09-04 04:59:56 | 52.56529 | 9.06818 | 38° | 9km/h | 22763m | 7.4m/s | -53.8°C | 3.7% | 37.7hPa | 2.7V | 08:30:00 | 01:28:39 | 00:00:00 | |
| BIOWL1-15 | 2026-09-04 04:59:56 | 52.56536 | 9.06836 | 64° | 15km/h | 22793m | 7.5m/s | -53.9°C | 0.4% | 37.5hPa | 2.7V | 18:12:15 | 01:28:44 | 00:00:00 | |
| DB0DAN | 2026-09-04 04:59:55 | 52.56534 | 9.06831 | 50° | 11km/h | 22787m | 4.8m/s | -53.9°C | 1% | 37.56hPa | 2.5V | 00:00:00 | 00:00:00 | 00:00:00 | |
| DO2JMG | 2026-09-04 04:59:54 | 52.56532 | 9.06828 | 54° | 11km/h | 22781m | 6.2m/s | -53.9°C | 0.4% | 37.6hPa | 2.6V | 18:12:15 | 01:28:42 | 00:00:00 | |
| AA1-15 | 2026-09-04 04:59:53 | 52.56531 | 9.06824 | 65° | 9km/h | 22775m | 6.9m/s | -53.9°C | 0.4% | 37.6hPa | 2.6V | 18:12:15 | 01:28:41 | 00:00:00 | |
| DL1XH-west | 2026-09-04 04:59:50 | 52.56526 | 9.06815 | 33° | 15km/h | 22757m | 5.1m/s | -53.8°C | 0.4% | 37.8hPa | 2.7V | 18:12:15 | 01:28:38 | 00:00:00 | |
| EDDB2-11 | 2026-09-04 04:59:50 | 52.56523 | 9.06811 | 41° | 16km/h | 22752m | 4.7m/s | -53.8°C | 0.9% | 37.8hPa | 2.7V | 00:00:00 | 00:00:00 | 00:00:00 | |
| DF5WG-10 | 2026-09-04 04:59:49 | 52.56523 | 9.06811 | 42° | 18km/h | 22752m | 4.6m/s | -53.8°C | 3.8% | 37.7hPa | 2.7V | 00:00:00 | 01:28:37 | 00:00:00 | |
| DM0DOS-11 | 2026-09-04 04:59:48 | 52.56501 | 9.06769 | 48° | 18km/h | 22717m | 6.6m/s | -53.7°C | 3.9% | 38hPa | 2.7V | 08:30:00 | 01:28:31 | 00:00:00 | |
| DO2SHX-10 | 2026-09-04 04:59:48 | 52.56520 | 9.06806 | 51° | 16km/h | 22746m | 7.1m/s | -53.7°C | 3.8% | 37.8hPa | 2.5V | 00:00:00 | 01:28:36 | 00:00:00 | |
| HSKMA3-T | 2026-09-04 04:59:48 | 52.56516 | 9.06798 | 57° | 24km/h | 22740m | 5m/s | -53.8°C | 0.4% | 37.9hPa | 2.6V | 18:12:15 | 01:28:35 | 00:00:00 | |
| GOEST3-10 | 2026-09-04 04:59:47 | 52.56516 | 9.06798 | 58° | 24km/h | 22740m | 5.0m/s | -53.7°C | 3.8% | 37.8hPa | 2.6V | 00:00:00 | 01:28:35 | 00:00:00 | |
| DO3MHA-11 | 2026-09-04 04:59:46 | 52.56513 | 9.06790 | 54° | 16km/h | 22735m | 5.8m/s | -53.7°C | 3.8% | 37.8hPa | 2.6V | 00:00:00 | 01:28:34 | 00:00:00 | |
| DL1NUX | 2026-09-04 04:59:45 | 52.56494 | 9.06760 | 4° | 11km/h | 22700m | 7.1m/s | -53.8°C | 3.9% | 38.1hPa | 2.6V | 08:30:00 | 01:28:28 | 00:00:00 | |
| BIOWL1-15 | 2026-09-04 04:59:45 | 52.56509 | 9.06782 | 47° | 26km/h | 22728m | 6.1m/s | -53.7°C | 0.4% | 37.9hPa | 2.6V | 18:12:15 | 01:28:33 | 00:00:00 | |
| DO2JMG | 2026-09-04 04:59:44 | 52.56505 | 9.06775 | 45° | 22km/h | 22723m | 4.6m/s | -53.7°C | 0.4% | 38hPa | 2.7V | 18:12:15 | 01:28:32 | 00:00:00 | |
| AA1-15 | 2026-09-04 04:59:43 | 52.56501 | 9.06769 | 49° | 18km/h | 22717m | 6.6m/s | -53.7°C | 0.4% | 38hPa | 2.7V | 18:12:15 | 01:28:31 | 00:00:00 | |
| DO3MHA-12 | 2026-09-04 04:59:43 | 52.56501 | 9.06769 | 49° | 15km/h | 22718m | 6.5m/s | 0°C | 0% | 0hPa | 2.7V | 00:00:00 | 01:28:31 | 00:00:00 | |
| SMARD9-15 | 2026-09-04 04:59:42 | 52.56497 | 9.06761 | 26° | 9km/h | 22706m | 4.8m/s | -53.7°C | 1.0% | 38.0hPa | 2.7V | 00:00:00 | 00:00:00 | 00:00:00 | |
| DL1XH-15 | 2026-09-04 04:59:41 | 52.56484 | 9.06753 | 68° | 15km/h | 22677m | 5.1m/s | -53.8°C | 3.8% | 38.2hPa | 2.7V | 08:30:00 | 01:28:24 | 00:00:00 | |
| DF8AY | 2026-09-04 04:59:40 | 52.56494 | 9.06760 | 5° | 11km/h | 22700m | 7.1m/s | -53.8°C | 0.4% | 38.1hPa | 2.6V | 18:12:15 | 01:28:28 | 00:00:00 | |
| DB0DAN | 2026-09-04 04:59:40 | 52.56494 | 9.06760 | 4° | 11km/h | 22700m | 7.1m/s | -53.8°C | 0.9% | 38.08hPa | 2.6V | 00:00:00 | 00:00:00 | 00:00:00 | |
| DL1XH-west | 2026-09-04 04:59:39 | 52.56491 | 9.06760 | 360° | 13km/h | 22694m | 4.1m/s | -53.8°C | 0.4% | 38.1hPa | 2.6V | 18:12:15 | 01:28:27 | 00:00:00 | |
| EDDB2-12 | 2026-09-04 04:59:39 | 52.56488 | 9.06759 | 15° | 9km/h | 22690m | 4.1m/s | -53.8°C | 0.9% | 38.1hPa | 2.6V | 00:00:00 | 00:00:00 | 00:00:00 | |
| DM0DOS-11 | 2026-09-04 04:59:38 | 52.56479 | 9.06732 | 64° | 20km/h | 22661m | 3.8m/s | -53.7°C | 3.8% | 38.3hPa | 2.6V | 08:30:00 | 01:28:21 | 00:00:00 | |
| HSKMA3-T | 2026-09-04 04:59:37 | 52.56484 | 9.06753 | 69° | 15km/h | 22677m | 5.1m/s | -53.8°C | 0.4% | 38.2hPa | 2.7V | 18:12:15 | 01:28:24 | 00:00:00 | |
| DL1XH1-15 | 2026-09-04 04:59:36 | 52.56475 | 9.06717 | 77° | 18km/h | 22649m | 5.8m/s | -53.7°C | 3.8% | 38.4hPa | 2.7V | 08:30:00 | 01:28:19 | 00:00:00 | |
| BIOWL1-15 | 2026-09-04 04:59:36 | 52.56481 | 9.06740 | 62° | 20km/h | 22666m | 6.5m/s | -53.7°C | 0.4% | 38.3hPa | 2.5V | 18:12:15 | 01:28:22 | 00:00:00 | |
| DO2JMG | 2026-09-04 04:59:33 | 52.56478 | 9.06732 | 64° | 20km/h | 22661m | 3.8m/s | -53.7°C | 0.4% | 38.4hPa | 2.6V | 18:12:15 | 01:28:21 | 00:00:00 | |
| DO2SHX-10 | 2026-09-04 04:59:33 | 52.56478 | 9.06732 | 65° | 18km/h | 22661m | 3.8m/s | -53.7°C | 3.8% | 38.3hPa | 2.6V | 00:00:00 | 01:28:21 | 00:00:00 | |
| DL1NUX | 2026-09-04 04:59:32 | 52.56469 | 9.06702 | 358° | 5km/h | 22628m | 5.3m/s | -53.7°C | 3.7% | 38.5hPa | 2.6V | 08:30:00 | 01:28:15 | 00:00:00 | |
| SONDE2-11 | 2026-09-04 04:59:32 | 52.56475 | 9.06717 | 77° | 16km/h | 22649m | 5.8m/s | -53.7°C | 0.9% | 38.4hPa | 2.7V | 00:00:00 | 00:00:00 | 00:00:00 | |
| DL1XH-15 | 2026-09-04 04:59:31 | 52.56468 | 9.06703 | 325° | 4km/h | 22622m | 6.6m/s | -53.6°C | 3.8% | 38.5hPa | 2.7V | 08:30:00 | 01:28:14 | 00:00:00 | |
| DF8AY | 2026-09-04 04:59:30 | 52.56474 | 9.06711 | 72° | 15km/h | 22644m | 4.3m/s | -53.7°C | 0.3% | 38.4hPa | 2.7V | 18:12:15 | 01:28:18 | 00:00:00 | |
| DL1XH-west | 2026-09-04 04:59:29 | 52.56473 | 9.06706 | 53° | 13km/h | 22638m | 6.9m/s | -53.7°C | 0.3% | 38.5hPa | 2.6V | 18:12:15 | 01:28:17 | 00:00:00 | |
| DF5WG-10 | 2026-09-04 04:59:29 | 52.56473 | 9.06706 | 53° | 7km/h | 22639m | 6.8m/s | -53.6°C | 3.7% | 38.4hPa | 2.6V | 00:00:00 | 01:28:17 | 00:00:00 | |
| DM0DOS-11 | 2026-09-04 04:59:28 | 52.56466 | 9.06705 | 7° | 5km/h | 22604m | 5.1m/s | -53.5°C | 3.7% | 38.7hPa | 2.6V | 08:30:00 | 01:28:11 | 00:00:00 | |
| DL4BBY-15 | 2026-09-04 04:59:28 | 52.56471 | 9.06703 | 23° | 11km/h | 22633m | 4.6m/s | -54.6°C | 0% | 0hPa | 2.7V | 00:00:00 | 00:00:00 | 00:00:00 | |
| GOEST3-10 | 2026-09-04 04:59:27 | 52.56469 | 9.06702 | 359° | 5km/h | 22628m | 5.2m/s | -53.6°C | 3.7% | 38.5hPa | 2.7V | 00:00:00 | 01:28:15 | 00:00:00 | |
| DL1XH1-15 | 2026-09-04 04:59:26 | 52.56463 | 9.06701 | 71° | 9km/h | 22594m | 6.3m/s | -53.5°C | 3.8% | 38.7hPa | 2.7V | 08:30:00 | 01:28:09 | 00:00:00 | |
| HSKMA3-T | 2026-09-04 04:59:25 | 52.56467 | 9.06704 | 304° | 4km/h | 22616m | 5.4m/s | -53.6°C | 0.3% | 38.6hPa | 2.7V | 18:12:15 | 01:28:13 | 00:00:00 | |
| DB0DAN | 2026-09-04 04:59:25 | 52.56467 | 9.06704 | 304° | 4km/h | 22616m | 5.4m/s | -53.6°C | 0.9% | 38.61hPa | 2.7V | 00:00:00 | 00:00:00 | 00:00:00 | |
| DO2JMG | 2026-09-04 04:59:23 | 52.56465 | 9.06705 | 8° | 5km/h | 22604m | 5.1m/s | -53.5°C | 0.3% | 38.7hPa | 2.6V | 18:12:15 | 01:28:11 | 00:00:00 | |
| AA1-15 | 2026-09-04 04:59:22 | 52.56464 | 9.06704 | 42° | 7km/h | 22599m | 4.7m/s | -53.5°C | 0.3% | 38.7hPa | 2.6V | 18:12:15 | 01:28:10 | 00:00:00 | |
| GOEST3-10 | 2026-09-04 04:59:22 | 52.56464 | 9.06703 | 43° | 13km/h | 22600m | 4.6m/s | -53.5°C | 3.7% | 38.6hPa | 2.6V | 00:00:00 | 00:00:00 | 00:00:00 | |
| DL1XH-15 | 2026-09-04 04:59:21 | 52.56465 | 9.06676 | 62° | 7km/h | 22566m | 5.7m/s | -53.4°C | 3.7% | 38.9hPa | 2.6V | 08:30:00 | 01:28:04 | 00:00:00 | |
| DL1XH-west | 2026-09-04 04:59:19 | 52.56464 | 9.06690 | 108° | 16km/h | 22582m | 4.8m/s | -53.4°C | 0.4% | 38.8hPa | 2.7V | 18:12:15 | 01:28:07 | 00:00:00 | |
| DF5WG-10 | 2026-09-04 04:59:19 | 52.56464 | 9.06690 | 109° | 7km/h | 22583m | 4.8m/s | -53.3°C | 3.8% | 38.8hPa | 2.7V | 00:00:00 | 01:28:07 | 08:30:00 | |
| DM0DOS-11 | 2026-09-04 04:59:18 | 52.56464 | 9.06675 | 221° | 4km/h | 22549m | 6.3m/s | -53.6°C | 3.7% | 39hPa | 2.7V | 08:30:00 | 01:28:01 | 00:00:00 | |
| DO2SHX-10 | 2026-09-04 04:59:18 | 52.56465 | 9.06684 | 108° | 15km/h | 22578m | 5.2m/s | -53.4°C | 3.8% | 38.8hPa | 2.5V | 00:00:00 | 01:28:06 | 00:00:00 | |
| GOEST3-10 | 2026-09-04 04:59:17 | 52.56465 | 9.06679 | 96° | 5km/h | 22572m | 6.2m/s | -53.4°C | 3.8% | 38.8hPa | 2.5V | 00:00:00 | 01:28:05 | 00:00:00 | |
| DL1XH1-15 | 2026-09-04 04:59:16 | 52.56466 | 9.06675 | 171° | 5km/h | 22538m | 5.9m/s | -53.6°C | 3.7% | 39.1hPa | 2.5V | 08:30:00 | 01:27:59 | 00:00:00 | |
| HSKMA3-T | 2026-09-04 04:59:15 | 52.56464 | 9.06674 | 319° | 2km/h | 22556m | 5.5m/s | -53.5°C | 0.3% | 39hPa | 2.7V | 18:12:15 | 01:28:02 | 00:00:00 | |
| DO2JMG | 2026-09-04 04:59:13 | 52.56464 | 9.06675 | 222° | 4km/h | 22550m | 6.3m/s | -53.6°C | 0.3% | 39hPa | 2.7V | 18:12:15 | 01:28:01 | 00:00:00 | |
| BIOWL1-15 | 2026-09-04 04:59:12 | 52.56465 | 9.06675 | 192° | 5km/h | 22544m | 5.5m/s | -53.6°C | 0.4% | 39hPa | 2.7V | 18:12:15 | 01:28:00 | 00:00:00 | |
| GOEST3-10 | 2026-09-04 04:59:12 | 52.56464 | 9.06675 | 192° | 7km/h | 22544m | 5.4m/s | -53.6°C | 3.7% | 39.0hPa | 2.6V | 00:00:00 | 00:00:00 | 00:00:00 | |
| DB0DAN | 2026-09-04 04:59:10 | 52.56467 | 9.06674 | 130° | 5km/h | 22532m | 5.9m/s | -53.6°C | 0.9% | 39.07hPa | 2.6V | 00:00:00 | 00:00:00 | 00:00:00 | |
| DL1XH-west | 2026-09-04 04:59:09 | 52.56468 | 9.06672 | 110° | 9km/h | 22527m | 4.7m/s | -53.6°C | 0.3% | 39.1hPa | 2.6V | 18:12:15 | 01:27:57 | 00:00:00 | |
| DF8AY | 2026-09-04 04:59:08 | 52.56469 | 9.06668 | 114° | 13km/h | 22522m | 5.1m/s | -53.6°C | 0.3% | 39.1hPa | 2.6V | 18:12:15 | 01:27:56 | 00:00:00 | |
| EDDB2-12 | 2026-09-04 04:59:08 | 52.56471 | 9.06662 | 121° | 16km/h | 22516m | 6.4m/s | -53.6°C | 0.9% | 39.2hPa | 2.6V | 00:00:00 | 00:00:00 | 00:00:00 | |
| D01LWL | 2026-09-04 04:59:07 | 52.56474 | 9.06655 | 125° | 22km/h | 22510m | 5.6m/s | -53.7°C | 1.0% | 39.2hPa | 2.6V | 00:00:00 | 00:00:00 | 00:00:00 | |
| DL1XH1-15 | 2026-09-04 04:59:06 | 52.56483 | 9.06620 | 100° | 15km/h | 22484m | 6.6m/s | -53.6°C | 3.8% | 39.4hPa | 2.6V | 08:30:00 | 01:27:49 | 00:00:00 | |
| HSKMA3-T | 2026-09-04 04:59:03 | 52.56482 | 9.06632 | 109° | 18km/h | 22495m | 5.8m/s | -53.7°C | 0.3% | 39.3hPa | 2.6V | 18:12:15 | 01:27:51 | 00:00:00 | |
| DO2JMG | 2026-09-04 04:59:02 | 52.56483 | 9.06626 | 102° | 15km/h | 22490m | 4.2m/s | -53.6°C | 0.3% | 39.4hPa | 2.6V | 18:12:15 | 01:27:50 | 00:00:00 | |
| AA1-15 | 2026-09-04 04:59:01 | 52.56484 | 9.06620 | 101° | 15km/h | 22484m | 6.6m/s | -53.6°C | 0.4% | 39.4hPa | 2.6V | 18:12:15 | 01:27:49 | 00:00:00 | |
| DL1XH-west | 2026-09-04 04:58:58 | 52.56483 | 9.06603 | 67° | 13km/h | 22467m | 5.6m/s | -53.5°C | 0.4% | 39.5hPa | 2.7V | 18:12:15 | 01:27:46 | 00:00:00 | |
| BIOWL9-15 | 2026-09-04 04:58:58 | 52.56482 | 9.06598 | 72° | 11km/h | 22462m | 4.4m/s | -53.6°C | 1.0% | 39.6hPa | 2.7V | 00:00:00 | 00:00:00 | 00:00:00 | |
| GOEST3-10 | 2026-09-04 04:58:57 | 52.56482 | 9.06598 | 73° | 13km/h | 22462m | 4.3m/s | -53.5°C | 3.9% | 39.5hPa | 2.7V | 00:00:00 | 01:27:45 | 00:00:00 | |
| DL1XH1-15 | 2026-09-04 04:58:56 | 52.56487 | 9.06569 | 95° | 11km/h | 22429m | 4m/s | -53.6°C | 3.8% | 39.7hPa | 2.7V | 08:30:00 | 01:27:39 | 00:00:00 | |
| DB0DAN | 2026-09-04 04:58:55 | 52.56483 | 9.06588 | 111° | 13km/h | 22450m | 6.1m/s | -53.6°C | 0.9% | 39.61hPa | 2.6V | 00:00:00 | 00:00:00 | 00:00:00 | |
| HSKMA3-T | 2026-09-04 04:58:54 | 52.56486 | 9.06578 | 115° | 13km/h | 22441m | 6.8m/s | -53.6°C | 0.4% | 39.6hPa | 2.7V | 18:12:15 | 01:27:41 | 00:00:00 | |
| BIOWL1-15 | 2026-09-04 04:58:51 | 52.56487 | 9.06569 | 95° | 11km/h | 22429m | 4m/s | -53.6°C | 0.3% | 39.7hPa | 2.7V | 18:12:15 | 01:27:39 | 00:00:00 | |
| AA1-15 | 2026-09-04 04:58:51 | 52.56488 | 9.06565 | 102° | 13km/h | 22424m | 7.3m/s | -53.6°C | 0.4% | 39.8hPa | 2.6V | 18:12:15 | 01:27:38 | 00:00:00 | |
| SP3BTT-10 | 2026-09-04 04:58:50 | 52.56488 | 9.06565 | 102° | 9km/h | 22424m | 7.3m/s | 0°C | 0% | 0hPa | 2.5V | 00:00:00 | 00:00:00 | 00:00:00 | |
| DM0DOS-11 | 2026-09-04 04:58:49 | 52.56479 | 9.06535 | 58° | 9km/h | 22384m | 4.4m/s | -53.6°C | 3.8% | 40hPa | 2.5V | 08:30:00 | 01:27:31 | 00:00:00 | |
| DL1XH-west | 2026-09-04 04:58:47 | 52.56487 | 9.06550 | 57° | 13km/h | 22406m | 6.9m/s | -53.6°C | 0.4% | 39.9hPa | 2.6V | 18:12:15 | 01:27:35 | 00:00:00 | |
| GOEST3-10 | 2026-09-04 04:58:47 | 52.56486 | 9.06550 | 57° | 11km/h | 22406m | 6.9m/s | -53.6°C | 3.8% | 39.8hPa | 2.6V | 00:00:00 | 01:27:35 | 00:00:00 | |
| DL1XH1-15 | 2026-09-04 04:58:46 | 52.56476 | 9.06529 | 46° | 7km/h | 22372m | 4.8m/s | -53.6°C | 3.9% | 40.1hPa | 2.6V | 08:30:00 | 01:27:29 | 00:00:00 | |
| HSKMA3-T | 2026-09-04 04:58:44 | 52.56478 | 9.06531 | 47° | 9km/h | 22378m | 6.7m/s | -53.6°C | 0.4% | 40.1hPa | 2.6V | 18:12:15 | 01:27:30 | 00:00:00 | |
| BIOWL1-15 | 2026-09-04 04:58:41 | 52.56476 | 9.06529 | 47° | 7km/h | 22372m | 4.8m/s | -53.6°C | 0.4% | 40.1hPa | 2.6V | 18:12:15 | 01:27:29 | 00:00:00 | |
| DO2JMG | 2026-09-04 04:58:40 | 52.56475 | 9.06526 | 76° | 5km/h | 22367m | 5m/s | -53.6°C | 0.3% | 40.1hPa | 2.6V | 18:12:15 | 01:27:28 | 00:00:00 | |
| DB0DAN | 2026-09-04 04:58:40 | 52.56475 | 9.06526 | 76° | 5km/h | 22367m | 5m/s | -53.6°C | 0.9% | 40.15hPa | 2.6V | 00:00:00 | 00:00:00 | 00:00:00 | |
| AA1-15 | 2026-09-04 04:58:39 | 52.56476 | 9.06524 | 119° | 7km/h | 22361m | 7.2m/s | -53.5°C | 0.4% | 40.2hPa | 2.7V | 18:12:15 | 01:27:27 | 00:00:00 | |
| DF8AY | 2026-09-04 04:58:37 | 52.56478 | 9.06520 | 139° | 5km/h | 22351m | 5.5m/s | -53.5°C | 0.4% | 40.3hPa | 2.7V | 18:12:15 | 01:27:25 | 00:00:00 | |
| DL1XH-west | 2026-09-04 04:58:36 | 52.56479 | 9.06518 | 111° | 4km/h | 22345m | 6.6m/s | -53.4°C | 0.3% | 40.3hPa | 2.5V | 18:12:15 | 01:27:24 | 00:00:00 | |
| HSKMA3-T | 2026-09-04 04:58:32 | 52.56478 | 9.06504 | 67° | 13km/h | 22321m | 5m/s | -53.4°C | 0.4% | 40.4hPa | 2.7V | 18:12:15 | 01:27:20 | 00:00:00 | |
| BIOWL1-15 | 2026-09-04 04:58:32 | 52.56473 | 9.06495 | 40° | 15km/h | 22310m | 4.4m/s | -53.3°C | 0.4% | 40.5hPa | 2.7V | 18:12:15 | 01:27:18 | 00:00:00 | |
| DL3AQ-11 | 2026-09-04 04:58:32 | 52.56476 | 9.06499 | 49° | 15km/h | 22315m | 6.8m/s | -53.4°C | 0.9% | 40.5hPa | 2.6V | 00:00:00 | 00:00:00 | 00:00:00 | |
| DL1NUX | 2026-09-04 04:58:31 | 52.56469 | 9.06483 | 93° | 5km/h | 22288m | 5.9m/s | -53.3°C | 3.8% | 40.6hPa | 2.6V | 08:30:00 | 01:27:14 | 00:00:00 | |
| DO2JMG | 2026-09-04 04:58:29 | 52.56471 | 9.06491 | 43° | 11km/h | 22305m | 5.4m/s | -53.3°C | 0.4% | 40.5hPa | 2.5V | 18:12:15 | 01:27:17 | 00:00:00 | |
| DF5WG-10 | 2026-09-04 04:58:29 | 52.56471 | 9.06491 | 44° | 11km/h | 22305m | 5.4m/s | -53.3°C | 3.8% | 40.5hPa | 2.7V | 00:00:00 | 01:27:17 | 00:00:00 | |
| DM0DOS-11 | 2026-09-04 04:58:28 | 52.56470 | 9.06473 | 108° | 13km/h | 22271m | 7.2m/s | -53.2°C | 3.8% | 40.7hPa | 2.7V | 08:30:00 | 01:27:11 | 00:00:00 | |
| AA1-15 | 2026-09-04 04:58:28 | 52.56469 | 9.06488 | 63° | 7km/h | 22299m | 6.7m/s | -53.3°C | 0.4% | 40.6hPa | 2.6V | 18:12:15 | 01:27:16 | 00:00:00 | |
| DL1XH-west | 2026-09-04 04:58:26 | 52.56469 | 9.06483 | 94° | 5km/h | 22289m | 5.9m/s | -53.3°C | 0.4% | 40.6hPa | 2.6V | 18:12:15 | 01:27:14 | 00:00:00 | |
| DB0DAN | 2026-09-04 04:58:25 | 52.56469 | 9.06480 | 88° | 5km/h | 22282m | 5.9m/s | -53.3°C | 0.9% | 40.68hPa | 2.7V | 00:00:00 | 00:00:00 | 00:00:00 | |
| HSKMA3-T | 2026-09-04 04:58:22 | 52.56471 | 9.06467 | 106° | 15km/h | 22265m | 5.2m/s | -53.2°C | 0.4% | 40.8hPa | 2.5V | 18:12:15 | 01:27:10 | 00:00:00 | |
| DO2SHX-10 | 2026-09-04 04:58:22 | 52.56471 | 9.06467 | 107° | 15km/h | 22265m | 5.2m/s | -53.2°C | 3.8% | 40.7hPa | 2.7V | 00:00:00 | 01:27:10 | 00:00:00 | |
| DL1NUX | 2026-09-04 04:58:21 | 52.56467 | 9.06434 | 96° | 7km/h | 22232m | 4.9m/s | -53.1°C | 3.7% | 41hPa | 2.7V | 08:30:00 | 01:27:04 | 00:00:00 | |
| BIOWL1-15 | 2026-09-04 04:58:20 | 52.56471 | 9.06455 | 74° | 16km/h | 22254m | 6.5m/s | -53.2°C | 0.3% | 40.8hPa | 2.6V | 18:12:15 | 01:27:08 | 00:00:00 | |
| DO2JMG | 2026-09-04 04:58:19 | 52.56470 | 9.06449 | 63° | 15km/h | 22249m | 4.5m/s | -53.2°C | 0.3% | 40.9hPa | 2.6V | 18:12:15 | 01:27:07 | 00:00:00 | |
| AA1-15 | 2026-09-04 04:58:17 | 52.56467 | 9.06438 | 79° | 11km/h | 22238m | 6.5m/s | -53.2°C | 0.3% | 41hPa | 2.7V | 18:12:15 | 01:27:05 | 00:00:00 | |
| DL1XH-west | 2026-09-04 04:58:15 | 52.56467 | 9.06432 | 92° | 4km/h | 22227m | 6.4m/s | -53.1°C | 0.3% | 41hPa | 2.6V | 18:12:15 | 01:27:03 | 00:00:00 | |
| HSKMA3-T | 2026-09-04 04:58:12 | 52.56470 | 9.06426 | 133° | 11km/h | 22203m | 5.7m/s | -52.9°C | 0.4% | 41.2hPa | 2.7V | 18:12:15 | 01:26:59 | 00:00:00 | |
| BIOWL1-15 | 2026-09-04 04:58:11 | 52.56473 | 9.06418 | 101° | 13km/h | 22192m | 5.8m/s | -52.8°C | 0.4% | 41.3hPa | 2.7V | 18:12:15 | 01:26:57 | 00:00:00 | |
| DB0DAN | 2026-09-04 04:58:10 | 52.56472 | 9.06422 | 118° | 11km/h | 22197m | 6.2m/s | -52.9°C | 1% | 41.25hPa | 2.7V | 00:00:00 | 00:00:00 | 00:00:00 | |
| DF2AP-13 | 2026-09-04 04:58:10 | 52.56471 | 9.06422 | 119° | 7km/h | 22198m | 6.1m/s | -52.8°C | 3.8% | 41.2hPa | 2.7V | 00:00:00 | 01:26:58 | 00:00:00 | |
| SMARD9-15 | 2026-09-04 04:58:09 | 52.56473 | 9.06412 | 93° | 13km/h | 22187m | 4.0m/s | -52.8°C | 0.9% | 41.3hPa | 2.7V | 00:00:00 | 00:00:00 | 00:00:00 | |
| DM0DOS-11 | 2026-09-04 04:58:08 | 52.56478 | 9.06389 | 109° | 5km/h | 22160m | 6.5m/s | -52.9°C | 3.6% | 41.5hPa | 2.7V | 08:30:00 | 01:26:51 | 00:00:00 | |
| DO2JMG | 2026-09-04 04:58:08 | 52.56473 | 9.06412 | 94° | 13km/h | 22186m | 4m/s | -52.8°C | 0.4% | 41.3hPa | 2.5V | 18:12:15 | 01:26:56 | 00:00:00 | |
| AA1-15 | 2026-09-04 04:58:06 | 52.56474 | 9.06401 | 108° | 15km/h | 22176m | 6.5m/s | -52.8°C | 0.3% | 41.4hPa | 2.6V | 18:12:15 | 01:26:54 | 00:00:00 | |
| DL1XH-west | 2026-09-04 04:58:05 | 52.56475 | 9.06396 | 117° | 13km/h | 22171m | 4.8m/s | -52.9°C | 0.3% | 41.4hPa | 2.6V | 18:12:15 | 01:26:53 | 00:00:00 | |
| HSKMA3-T | 2026-09-04 04:58:01 | 52.56477 | 9.06387 | 344° | 5km/h | 22148m | 5.5m/s | -52.9°C | 0.3% | 41.5hPa | 2.5V | 18:12:15 | 01:26:49 | 00:00:00 | |
| DF8AY | 2026-09-04 04:57:59 | 52.56477 | 9.06395 | 121° | 5km/h | 22110m | 5.4m/s | -52.8°C | 0.3% | 41.8hPa | 2.5V | 18:12:15 | 01:26:42 | 00:00:00 | |
| BIOWL1-15 | 2026-09-04 04:57:58 | 52.56475 | 9.06393 | 240° | 7km/h | 22131m | 4.6m/s | -52.8°C | 0.3% | 41.7hPa | 2.6V | 18:12:15 | 01:26:46 | 00:00:00 | |
| DO2JMG | 2026-09-04 04:57:57 | 52.56476 | 9.06395 | 230° | 5km/h | 22126m | 3.9m/s | -52.8°C | 0.3% | 41.7hPa | 2.7V | 18:12:15 | 01:26:45 | 00:00:00 | |
| AA1-15 | 2026-09-04 04:57:56 | 52.56477 | 9.06396 | 245° | 2km/h | 22121m | 6.8m/s | -52.8°C | 0.3% | 41.7hPa | 2.7V | 18:12:15 | 01:26:44 | 00:00:00 | |
| BIOWL9-15 | 2026-09-04 04:57:56 | 52.56477 | 9.06396 | 116° | 0km/h | 22115m | 4.7m/s | -52.8°C | 0.9% | 41.8hPa | 2.7V | 00:00:00 | 00:00:00 | 00:00:00 | |
| DB0DAN | 2026-09-04 04:57:55 | 52.56477 | 9.06396 | 117° | 2km/h | 22115m | 4.7m/s | -52.8°C | 0.9% | 41.75hPa | 2.7V | 00:00:00 | 00:00:00 | 00:00:00 | |
| DL1XH-west | 2026-09-04 04:57:55 | 52.56477 | 9.06396 | 117° | 2km/h | 22115m | 4.7m/s | -52.8°C | 0.2% | 41.8hPa | 2.7V | 18:12:15 | 01:26:43 | 00:00:00 | |
| DL3AQ-11 | 2026-09-04 04:57:52 | 52.56481 | 9.06386 | 105° | 7km/h | 22092m | 6.7m/s | -52.8°C | 0.9% | 41.9hPa | 2.7V | 00:00:00 | 00:00:00 | 00:00:00 | |
| DJ2DS-15 | 2026-09-04 04:57:50 | 52.56481 | 9.06383 | 82° | 7km/h | 22086m | 6.1m/s | -52.8°C | 0.9% | 42.0hPa | 2.7V | 00:00:00 | 00:00:00 | 00:00:00 | |
| HSKMA3-T | 2026-09-04 04:57:50 | 52.56481 | 9.06383 | 83° | 7km/h | 22086m | 6.1m/s | -52.8°C | 0.2% | 42hPa | 2.7V | 18:12:15 | 01:26:38 | 00:00:00 | |
| DF5WG-10 | 2026-09-04 04:57:49 | 52.56480 | 9.06380 | 72° | 5km/h | 22081m | 4.4m/s | -52.7°C | 3.5% | 41.9hPa | 2.7V | 00:00:00 | 01:26:37 | 08:30:00 | |
| DM0DOS-11 | 2026-09-04 04:57:48 | 52.56482 | 9.06376 | 158° | 5km/h | 22046m | 6.3m/s | -52.8°C | 3.6% | 42.2hPa | 2.7V | 08:30:00 | 01:26:31 | 00:00:00 | |
| BIOWL1-15 | 2026-09-04 04:57:48 | 52.56480 | 9.06378 | 92° | 5km/h | 22075m | 6.7m/s | -52.8°C | 0.2% | 42hPa | 2.7V | 18:12:15 | 01:26:36 | 00:00:00 | |
| DO2JMG | 2026-09-04 04:57:46 | 52.56481 | 9.06376 | 167° | 2km/h | 22063m | 6.3m/s | -52.8°C | 0.2% | 42.1hPa | 2.6V | 18:12:15 | 01:26:34 | 00:00:00 | |
| DL1XH-west | 2026-09-04 04:57:45 | 52.56481 | 9.06376 | 265° | 2km/h | 22057m | 5.5m/s | -52.8°C | 0.2% | 42.1hPa | 2.6V | 18:12:15 | 01:26:33 | 00:00:00 | |
| DF8AY | 2026-09-04 04:57:43 | 52.56482 | 9.06376 | 158° | 5km/h | 22046m | 6.3m/s | -52.8°C | 0.2% | 42.2hPa | 2.7V | 18:12:15 | 01:26:31 | 00:00:00 | |
| HSKMA3-T | 2026-09-04 04:57:41 | 52.56487 | 9.06367 | 112° | 13km/h | 22029m | 6.5m/s | -52.9°C | 0.3% | 42.3hPa | 2.6V | 18:12:15 | 01:26:28 | 00:00:00 | |
| DB0DAN | 2026-09-04 04:57:40 | 52.56487 | 9.06367 | 112° | 11km/h | 22029m | 6.5m/s | -52.9°C | 0.9% | 42.31hPa | 2.6V | 00:00:00 | 00:00:00 | 00:00:00 | |
| DL1NUX | 2026-09-04 04:57:40 | 52.56489 | 9.06345 | 101° | 7km/h | 22002m | 5.2m/s | -53.4°C | 3.7% | 42.5hPa | 2.7V | 08:30:00 | 01:26:23 | 00:00:00 | |
| DF2AP-13 | 2026-09-04 04:57:40 | 52.56487 | 9.06367 | 113° | 11km/h | 22029m | 6.5m/s | -52.9°C | 3.6% | 42.3hPa | 2.6V | 00:00:00 | 01:26:28 | 08:30:00 | |
| SO1NDE-10 | 2026-09-04 04:57:39 | 52.56488 | 9.06362 | 92° | 15km/h | 22023m | 4.9m/s | -52.9°C | 3.6% | 42.3hPa | 2.6V | 00:00:00 | 01:26:27 | 08:30:00 | |
| DM0DOS-11 | 2026-09-04 04:57:38 | 52.56488 | 9.06341 | 23° | 4km/h | 21990m | 4.7m/s | -53.5°C | 3.7% | 42.6hPa | 2.6V | 08:30:00 | 01:26:21 | 00:00:00 | |
| BIOWL1-15 | 2026-09-04 04:57:37 | 52.56488 | 9.06352 | 96° | 11km/h | 22013m | 6.2m/s | -53.2°C | 0.2% | 42.5hPa | 2.6V | 18:12:15 | 01:26:25 | 00:00:00 | |
| SP3BTT-10 | 2026-09-04 04:57:37 | 52.56488 | 9.06352 | 96° | 11km/h | 22013m | 6.1m/s | 0°C | 0% | 0hPa | 2.6V | 00:00:00 | 00:00:00 | 00:00:00 | |
| DL1XH1-15 | 2026-09-04 04:57:36 | 52.56488 | 9.06341 | 156° | 2km/h | 21979m | 6.6m/s | -53.5°C | 3.6% | 42.6hPa | 2.6V | 08:30:00 | 01:26:19 | 00:00:00 | |
| DO2JMG | 2026-09-04 04:57:36 | 52.56488 | 9.06348 | 106° | 9km/h | 22007m | 5.5m/s | -53.3°C | 0.3% | 42.5hPa | 2.7V | 18:12:15 | 01:26:24 | 00:00:00 | |
| AA1-15 | 2026-09-04 04:57:35 | 52.56489 | 9.06345 | 101° | 7km/h | 22002m | 5.3m/s | -53.4°C | 0.3% | 42.5hPa | 2.7V | 18:12:15 | 01:26:23 | 00:00:00 | |
| DL1XH-west | 2026-09-04 04:57:34 | 52.56489 | 9.06343 | 70° | 4km/h | 21996m | 7m/s | -53.5°C | 0.4% | 42.5hPa | 2.7V | 18:12:15 | 01:26:22 | 00:00:00 | |
| DF8AY | 2026-09-04 04:57:33 | 52.56488 | 9.06342 | 23° | 4km/h | 21990m | 4.7m/s | -53.5°C | 0.3% | 42.6hPa | 2.6V | 18:12:15 | 01:26:21 | 00:00:00 | |
| DO2SHX-10 | 2026-09-04 04:57:33 | 52.56488 | 9.06342 | 24° | 2km/h | 21990m | 4.6m/s | -53.5°C | 3.7% | 42.5hPa | 2.6V | 00:00:00 | 01:26:21 | 08:30:00 | |
| DD8BA-10 | 2026-09-04 04:57:32 | 52.56488 | 9.06341 | 14° | 11km/h | 21986m | 4.5m/s | -53.5°C | 3.7% | 42.6hPa | 2.5V | 00:00:00 | 00:00:00 | 00:00:00 | |
| DL1XH-15 | 2026-09-04 04:57:31 | 52.56497 | 9.06322 | 94° | 15km/h | 21952m | 5.7m/s | -53.5°C | 3.7% | 42.8hPa | 2.5V | 08:30:00 | 01:26:14 | 00:00:00 | |
| HSKMA3-T | 2026-09-04 04:57:30 | 52.56489 | 9.06340 | 154° | 9km/h | 21973m | 5.6m/s | -53.5°C | 0.3% | 42.7hPa | 2.6V | 18:12:15 | 01:26:18 | 00:00:00 | |
| DO2SHX-10 | 2026-09-04 04:57:30 | 52.56489 | 9.06340 | 155° | 13km/h | 21974m | 5.5m/s | -53.4°C | 3.7% | 42.6hPa | 2.7V | 00:00:00 | 01:26:18 | 00:00:00 | |
| DL1ZP-14 | 2026-09-04 04:57:29 | 52.56494 | 9.06333 | 131° | 15km/h | 21964m | 4.9m/s | -53.5°C | 1.0% | 42.8hPa | 2.7V | 00:00:00 | 00:00:00 | 00:00:00 | |
| DM0DOS-11 | 2026-09-04 04:57:28 | 52.56497 | 9.06306 | 94° | 7km/h | 21934m | 6.2m/s | -53.6°C | 3.8% | 43hPa | 2.6V | 08:30:00 | 01:26:11 | 00:00:00 | |
| BIOWL1-15 | 2026-09-04 04:57:28 | 52.56497 | 9.06322 | 95° | 15km/h | 21952m | 5.7m/s | -53.5°C | 0.3% | 42.8hPa | 2.5V | 18:12:15 | 01:26:14 | 00:00:00 | |
| DO2JMG | 2026-09-04 04:57:25 | 52.56497 | 9.06316 | 87° | 15km/h | 21947m | 4.9m/s | -53.5°C | 0.4% | 42.9hPa | 2.6V | 18:12:15 | 01:26:13 | 00:00:00 | |
| DL1XH-west | 2026-09-04 04:57:24 | 52.56497 | 9.06310 | 90° | 11km/h | 21941m | 7m/s | -53.6°C | 0.3% | 42.9hPa | 2.6V | 18:12:15 | 01:26:12 | 00:00:00 | |
| DF8AY | 2026-09-04 04:57:23 | 52.56497 | 9.06306 | 95° | 7km/h | 21934m | 6.2m/s | -53.7°C | 0.4% | 43hPa | 2.6V | 18:12:15 | 01:26:11 | 00:00:00 | |
| DL3AQ-11 | 2026-09-04 04:57:23 | 52.56497 | 9.06303 | 79° | 5km/h | 21928m | 6.2m/s | -53.7°C | 1.0% | 43.0hPa | 2.7V | 00:00:00 | 00:00:00 | 00:00:00 | |
| DD8BA-10 | 2026-09-04 04:57:22 | 52.56497 | 9.06303 | 80° | 9km/h | 21929m | 6.1m/s | -53.7°C | 3.8% | 42.9hPa | 2.7V | 00:00:00 | 00:00:00 | 00:00:00 | |
| DL1XH-15 | 2026-09-04 04:57:21 | 52.56501 | 9.06295 | 138° | 11km/h | 21896m | 6.6m/s | -53.7°C | 3.9% | 43.2hPa | 2.6V | 08:30:00 | 01:26:04 | 00:00:00 | |
| HSKMA3-T | 2026-09-04 04:57:21 | 52.56496 | 9.06300 | 47° | 4km/h | 21917m | 3.4m/s | -53.8°C | 0.5% | 43hPa | 2.7V | 18:12:15 | 01:26:08 | 00:00:00 | |
| DF5WG-10 | 2026-09-04 04:57:19 | 52.56496 | 9.06299 | 132° | 15km/h | 21914m | 4.3m/s | -53.7°C | 3.9% | 43.0hPa | 2.5V | 00:00:00 | 01:26:07 | 00:00:00 | |
| DL1NUX | 2026-09-04 04:57:18 | 52.56506 | 9.06278 | 109° | 22km/h | 21879m | 6.8m/s | -53.7°C | 3.9% | 43.3hPa | 2.6V | 08:30:00 | 01:26:01 | 00:00:00 | |
| BIOWL1-15 | 2026-09-04 04:57:16 | 52.56501 | 9.06295 | 139° | 11km/h | 21896m | 6.6m/s | -53.7°C | 0.4% | 43.2hPa | 2.6V | 18:12:15 | 01:26:04 | 00:00:00 | |
| DO2JMG | 2026-09-04 04:57:14 | 52.56504 | 9.06285 | 110° | 18km/h | 21885m | 4.7m/s | -53.7°C | 0.5% | 43.3hPa | 2.7V | 18:12:15 | 01:26:02 | 00:00:00 | |
| DL1XH-west | 2026-09-04 04:57:13 | 52.56506 | 9.06278 | 109° | 22km/h | 21879m | 6.8m/s | -53.7°C | 0.4% | 43.3hPa | 2.6V | 18:12:15 | 01:26:01 | 00:00:00 | |
| DF8AY | 2026-09-04 04:57:12 | 52.56507 | 9.06269 | 104° | 24km/h | 21873m | 5.2m/s | -53.6°C | 0.5% | 43.4hPa | 2.5V | 18:12:15 | 01:26:00 | 00:00:00 | |
| DL3AQ-11 | 2026-09-04 04:57:12 | 52.56508 | 9.06260 | 93° | 22km/h | 21868m | 6.5m/s | -53.6°C | 1.0% | 43.4hPa | 2.7V | 00:00:00 | 00:00:00 | 00:00:00 | |
| DL1XH-15 | 2026-09-04 04:57:11 | 52.56507 | 9.06230 | 106° | 7km/h | 21840m | 4.5m/s | -53.5°C | 3.8% | 43.6hPa | 2.7V | 08:30:00 | 01:25:54 | 00:00:00 | |
| DB0DAN | 2026-09-04 04:57:10 | 52.56508 | 9.06251 | 80° | 20km/h | 21862m | 5.3m/s | -53.5°C | 1% | 43.45hPa | 2.6V | 00:00:00 | 00:00:00 | 00:00:00 | |
| HSKMA3-T | 2026-09-04 04:57:10 | 52.56507 | 9.06243 | 76° | 16km/h | 21857m | 4.4m/s | -53.5°C | 0.4% | 43.5hPa | 2.6V | 18:12:15 | 01:25:57 | 00:00:00 | |
| DO2SHX-10 | 2026-09-04 04:57:09 | 52.56507 | 9.06243 | 76° | 13km/h | 21857m | 4.4m/s | -53.5°C | 3.9% | 43.4hPa | 2.6V | 00:00:00 | 01:25:57 | 00:00:00 | |
| DL1NUX | 2026-09-04 04:57:08 | 52.56506 | 9.06222 | 93° | 7km/h | 21823m | 5.3m/s | -53.3°C | 3.8% | 43.7hPa | 2.6V | 08:30:00 | 01:25:51 | 00:00:00 | |
| BIOWL1-15 | 2026-09-04 04:57:05 | 52.56507 | 9.06227 | 83° | 5km/h | 21834m | 7.4m/s | -53.4°C | 0.4% | 43.6hPa | 2.5V | 18:12:15 | 01:25:53 | 00:00:00 | |
| DL1XH-west | 2026-09-04 04:57:03 | 52.56506 | 9.06222 | 93° | 7km/h | 21823m | 5.3m/s | -53.3°C | 0.4% | 43.7hPa | 2.6V | 18:12:15 | 01:25:51 | 00:00:00 | |
| DO2SHX-10 | 2026-09-04 04:57:03 | 52.56506 | 9.06222 | 94° | 9km/h | 21823m | 5.2m/s | -53.3°C | 3.8% | 43.7hPa | 2.6V | 00:00:00 | 01:25:51 | 00:00:00 | |
| DD8BA-10 | 2026-09-04 04:57:02 | 52.56507 | 9.06219 | 111° | 18km/h | 21817m | 6.9m/s | -53.2°C | 3.8% | 43.7hPa | 2.6V | 00:00:00 | 00:00:00 | 00:00:00 | |
| DL1XH-15 | 2026-09-04 04:57:01 | 52.56506 | 9.06171 | 90° | 20km/h | 21782m | 4.7m/s | -53.1°C | 3.8% | 44hPa | 2.6V | 08:30:00 | 01:25:44 | 00:00:00 | |
| DF8AY | 2026-09-04 04:57:01 | 52.56508 | 9.06214 | 105° | 15km/h | 21811m | 4.7m/s | -53.3°C | 0.4% | 43.8hPa | 2.7V | 18:12:15 | 01:25:49 | 00:00:00 | |
| HSKMA3-T | 2026-09-04 04:56:59 | 52.56508 | 9.06199 | 82° | 22km/h | 21798m | 5.6m/s | -53.2°C | 0.4% | 43.9hPa | 2.7V | 18:12:15 | 01:25:47 | 00:00:00 | |
| DF5WG-10 | 2026-09-04 04:56:59 | 52.56508 | 9.06199 | 83° | 16km/h | 21799m | 5.6m/s | -53.1°C | 3.8% | 43.8hPa | 2.7V | 00:00:00 | 01:25:47 | 00:00:00 | |
| DL1NUX | 2026-09-04 04:56:58 | 52.56505 | 9.06149 | 77° | 13km/h | 21765m | 4.8m/s | -53°C | 3.7% | 44.1hPa | 2.7V | 08:30:00 | 01:25:41 | 00:00:00 | |
| BIOWL1-15 | 2026-09-04 04:56:57 | 52.56506 | 9.06162 | 86° | 18km/h | 21776m | 5.8m/s | -53.1°C | 0.4% | 44hPa | 2.6V | 18:12:15 | 01:25:43 | 00:00:00 | |
| DL1XH1-15 | 2026-09-04 04:56:57 | 52.56505 | 9.06140 | 103° | 7km/h | 21752m | 5.2m/s | -53°C | 3.7% | 44.2hPa | 2.6V | 08:30:00 | 01:25:39 | 00:00:00 | |
| DL3AQ-11 | 2026-09-04 04:56:56 | 52.56506 | 9.06162 | 85° | 18km/h | 21776m | 5.8m/s | -53.1°C | 1.0% | 44.0hPa | 2.6V | 00:00:00 | 00:00:00 | 00:00:00 | |
| DB0DAN | 2026-09-04 04:56:55 | 52.56506 | 9.06162 | 86° | 18km/h | 21776m | 5.8m/s | -53.1°C | 1% | 44.03hPa | 2.6V | 00:00:00 | 00:00:00 | 00:00:00 | |
| AA1-15 | 2026-09-04 04:56:53 | 52.56505 | 9.06149 | 77° | 13km/h | 21765m | 4.8m/s | -53°C | 0.3% | 44.1hPa | 2.7V | 18:12:15 | 01:25:41 | 00:00:00 | |
| DL1XH-west | 2026-09-04 04:56:52 | 52.56504 | 9.06144 | 90° | 11km/h | 21758m | 7.2m/s | -53°C | 0.4% | 44.1hPa | 2.7V | 18:12:15 | 01:25:40 | 00:00:00 | |
| DF8AY | 2026-09-04 04:56:51 | 52.56505 | 9.06140 | 104° | 9km/h | 21752m | 5.2m/s | -53°C | 0.4% | 44.2hPa | 2.6V | 18:12:15 | 01:25:39 | 00:00:00 | |
| HSKMA3-T | 2026-09-04 04:56:50 | 52.56505 | 9.06134 | 75° | 9km/h | 21741m | 6.1m/s | -52.9°C | 0.4% | 44.2hPa | 2.6V | 18:12:15 | 01:25:37 | 00:00:00 | |
| DO2SHX-10 | 2026-09-04 04:56:49 | 52.56505 | 9.06134 | 75° | 11km/h | 21741m | 6.0m/s | -52.9°C | 3.7% | 44.2hPa | 2.6V | 00:00:00 | 01:25:37 | 00:00:00 | |
| DL1NUX | 2026-09-04 04:56:48 | 52.56503 | 9.06095 | 78° | 24km/h | 21707m | 4.6m/s | -52.8°C | 3.7% | 44.5hPa | 2.6V | 08:30:00 | 01:25:31 | 00:00:00 | |
| GOEST3-10 | 2026-09-04 04:56:47 | 52.56503 | 9.06125 | 88° | 18km/h | 21731m | 6.4m/s | -52.8°C | 3.7% | 44.3hPa | 2.6V | 00:00:00 | 01:25:35 | 00:00:00 | |
| DL1XH1-15 | 2026-09-04 04:56:46 | 52.56501 | 9.06077 | 88° | 20km/h | 21696m | 6.4m/s | -52.7°C | 3.7% | 44.6hPa | 2.6V | 08:30:00 | 01:25:29 | 00:00:00 | |
| BIOWL1-15 | 2026-09-04 04:56:45 | 52.56504 | 9.06112 | 90° | 18km/h | 21719m | 5.2m/s | -52.8°C | 0.3% | 44.4hPa | 2.7V | 18:12:15 | 01:25:33 | 00:00:00 | |
| HTAHTA | 2026-09-04 04:56:45 | 52.56504 | 9.06104 | 82° | 20km/h | 21713m | 6.6m/s | -52.8°C | 1.0% | 44.4hPa | 2.6V | 00:00:00 | 00:00:00 | 00:00:00 | |
| AA1-15 | 2026-09-04 04:56:43 | 52.56503 | 9.06095 | 78° | 24km/h | 21707m | 4.6m/s | -52.8°C | 0.3% | 44.5hPa | 2.6V | 18:12:15 | 01:25:31 | 00:00:00 | |
| DL1XH-west | 2026-09-04 04:56:42 | 52.56502 | 9.06085 | 82° | 22km/h | 21702m | 5.3m/s | -52.7°C | 0.3% | 44.5hPa | 2.6V | 18:12:15 | 01:25:30 | 00:00:00 | |
| DF8AY | 2026-09-04 04:56:41 | 52.56501 | 9.06077 | 88° | 20km/h | 21696m | 6.4m/s | -52.7°C | 0.3% | 44.6hPa | 2.6V | 18:12:15 | 01:25:29 | 00:00:00 | |
| HSKMA3-T | 2026-09-04 04:56:40 | 52.56501 | 9.06061 | 87° | 20km/h | 21685m | 6.6m/s | -52.7°C | 0.3% | 44.6hPa | 2.7V | 18:12:15 | 01:25:27 | 00:00:00 | |
| DO2SHX-10 | 2026-09-04 04:56:40 | 52.56501 | 9.06069 | 92° | 18km/h | 21691m | 4.8m/s | -52.6°C | 3.7% | 44.6hPa | 2.5V | 00:00:00 | 01:25:28 | 00:00:00 | |
| DF5WG-10 | 2026-09-04 04:56:39 | 52.56501 | 9.06061 | 87° | 15km/h | 21685m | 6.6m/s | -52.6°C | 3.6% | 44.6hPa | 2.5V | 00:00:00 | 01:25:27 | 00:00:00 | |
| SO1NDE-10 | 2026-09-04 04:56:38 | 52.56500 | 9.06053 | 81° | 18km/h | 21679m | 4.9m/s | -52.6°C | 3.7% | 44.6hPa | 2.5V | 00:00:00 | 01:25:26 | 00:00:00 | |
| DO2SHX-10 | 2026-09-04 04:56:37 | 52.56500 | 9.06046 | 81° | 13km/h | 21675m | 4.3m/s | -52.6°C | 3.6% | 44.7hPa | 2.5V | 00:00:00 | 01:25:25 | 08:30:00 | |
| DL1XH1-15 | 2026-09-04 04:56:36 | 52.56498 | 9.06012 | 78° | 18km/h | 21640m | 5.5m/s | -52.5°C | 3.6% | 44.9hPa | 2.7V | 08:30:00 | 01:25:19 | 00:00:00 | |
| BIOWL1-15 | 2026-09-04 04:56:36 | 52.56500 | 9.06032 | 90° | 13km/h | 21657m | 6.2m/s | -52.5°C | 0.3% | 44.8hPa | 2.6V | 18:12:15 | 01:25:22 | 00:00:00 | |
| DL1XH-west | 2026-09-04 04:56:32 | 52.56499 | 9.06019 | 77° | 18km/h | 21646m | 4.6m/s | -52.5°C | 0.3% | 44.9hPa | 2.7V | 18:12:15 | 01:25:20 | 00:00:00 | |
| DF8AY | 2026-09-04 04:56:30 | 52.56497 | 9.06005 | 75° | 16km/h | 21635m | 5.7m/s | -52.5°C | 0.3% | 45hPa | 2.5V | 18:12:15 | 01:25:18 | 00:00:00 | |
| HSKMA3-T | 2026-09-04 04:56:29 | 52.56493 | 9.05992 | 62° | 20km/h | 21623m | 6.6m/s | -52.6°C | 0.3% | 45.1hPa | 2.6V | 18:12:15 | 01:25:16 | 00:00:00 | |
| DL1NUX | 2026-09-04 04:56:28 | 52.56485 | 9.05954 | 88° | 18km/h | 21597m | 3.8m/s | -52.6°C | 3.6% | 45.2hPa | 2.5V | 08:30:00 | 01:25:11 | 00:00:00 | |
| BIOWL1-15 | 2026-09-04 04:56:28 | 52.56486 | 9.05961 | 85° | 18km/h | 21601m | 5m/s | -52.6°C | 0.3% | 45.2hPa | 2.7V | 18:12:15 | 01:25:12 | 00:00:00 | |
| DL4BBY-15 | 2026-09-04 04:56:28 | 52.56493 | 9.05992 | 63° | 18km/h | 21624m | 6.6m/s | -53.5°C | 0% | 0hPa | 2.6V | 00:00:00 | 00:00:00 | 00:00:00 | |
| GOEST3-10 | 2026-09-04 04:56:27 | 52.56491 | 9.05984 | 61° | 20km/h | 21618m | 4.8m/s | -52.5°C | 3.6% | 45.1hPa | 2.6V | 00:00:00 | 01:25:15 | 00:00:00 | |
| DL1XH1-15 | 2026-09-04 04:56:26 | 52.56484 | 9.05936 | 81° | 24km/h | 21587m | 5.6m/s | -52.7°C | 3.7% | 45.3hPa | 2.6V | 08:30:00 | 01:25:09 | 00:00:00 | |
| DB0DAN | 2026-09-04 04:56:25 | 52.56487 | 9.05969 | 72° | 18km/h | 21607m | 6.4m/s | -52.6°C | 0.9% | 45.17hPa | 2.7V | 00:00:00 | 00:00:00 | 00:00:00 | |
| AA1-15 | 2026-09-04 04:56:22 | 52.56485 | 9.05945 | 84° | 20km/h | 21592m | 5.9m/s | -52.6°C | 0.3% | 45.3hPa | 2.6V | 18:12:15 | 01:25:10 | 00:00:00 | |
| DO2JMG | 2026-09-04 04:56:21 | 52.56484 | 9.05936 | 82° | 24km/h | 21587m | 5.6m/s | -52.7°C | 0.3% | 45.3hPa | 2.6V | 18:12:15 | 01:25:09 | 00:00:00 | |
| DF8AY | 2026-09-04 04:56:20 | 52.56484 | 9.05927 | 84° | 24km/h | 21581m | 4.8m/s | -52.7°C | 0.3% | 45.4hPa | 2.6V | 18:12:15 | 01:25:08 | 00:00:00 | |
| DO2SHX-10 | 2026-09-04 04:56:19 | 52.56483 | 9.05917 | 90° | 22km/h | 21576m | 6.6m/s | -52.7°C | 3.7% | 45.4hPa | 2.7V | 00:00:00 | 01:25:07 | 00:00:00 | |
| DL1NUX | 2026-09-04 04:56:18 | 52.56476 | 9.05876 | 76° | 13km/h | 21542m | 6.4m/s | -52.5°C | 3.7% | 45.7hPa | 2.6V | 08:30:00 | 01:25:01 | 00:00:00 | |
| HSKMA3-T | 2026-09-04 04:56:17 | 52.56483 | 9.05899 | 81° | 18km/h | 21564m | 5.9m/s | -52.7°C | 0.4% | 45.5hPa | 2.7V | 18:12:15 | 01:25:05 | 00:00:00 | |
| BIOWL1-15 | 2026-09-04 04:56:14 | 52.56477 | 9.05881 | 61° | 13km/h | 21548m | 6.2m/s | -52.6°C | 0.4% | 45.6hPa | 2.6V | 18:12:15 | 01:25:02 | 00:00:00 | |
| AA1-15 | 2026-09-04 04:56:12 | 52.56475 | 9.05870 | 81° | 16km/h | 21537m | 4m/s | -52.5°C | 0.3% | 45.7hPa | 2.7V | 18:12:15 | 01:25:00 | 00:00:00 | |
| DD8BA-10 | 2026-09-04 04:56:12 | 52.56475 | 9.05869 | 81° | 18km/h | 21537m | 3.9m/s | -52.4°C | 3.6% | 45.6hPa | 2.6V | 00:00:00 | 00:00:00 | 00:00:00 | |
| DL1XH-15 | 2026-09-04 04:56:11 | 52.56471 | 9.05821 | 79° | 16km/h | 21503m | 6.2m/s | -52.2°C | 3.6% | 45.9hPa | 2.6V | 08:30:00 | 01:24:54 | 00:00:00 | |
| DL1XH-west | 2026-09-04 04:56:11 | 52.56474 | 9.05863 | 75° | 18km/h | 21531m | 7.2m/s | -52.4°C | 0.3% | 45.7hPa | 2.7V | 18:12:15 | 01:24:59 | 00:00:00 | |
| DB0DAN | 2026-09-04 04:56:10 | 52.56473 | 9.05855 | 73° | 20km/h | 21525m | 4.7m/s | -52.4°C | 0.9% | 45.79hPa | 2.7V | 00:00:00 | 00:00:00 | 00:00:00 | |
| DO2JMG | 2026-09-04 04:56:10 | 52.56473 | 9.05855 | 74° | 20km/h | 21525m | 4.7m/s | -52.4°C | 0.3% | 45.8hPa | 2.7V | 18:12:15 | 01:24:58 | 00:00:00 | |
| DF8AY | 2026-09-04 04:56:09 | 52.56472 | 9.05846 | 82° | 22km/h | 21520m | 4.7m/s | -52.4°C | 0.3% | 45.8hPa | 2.5V | 18:12:15 | 01:24:57 | 00:00:00 | |
| HSKMA3-T | 2026-09-04 04:56:07 | 52.56471 | 9.05821 | 80° | 16km/h | 21503m | 6.2m/s | -52.2°C | 0.3% | 45.9hPa | 2.6V | 18:12:15 | 01:24:54 | 00:00:00 | |
| BIOWL1-15 | 2026-09-04 04:56:03 | 52.56466 | 9.05805 | 63° | 13km/h | 21486m | 7.2m/s | -52.1°C | 0.2% | 46.1hPa | 2.7V | 18:12:15 | 01:24:51 | 00:00:00 | |
| AA1-15 | 2026-09-04 04:56:02 | 52.56465 | 9.05801 | 71° | 11km/h | 21480m | 5.5m/s | -52.1°C | 0.2% | 46.1hPa | 2.5V | 18:12:15 | 01:24:50 | 00:00:00 | |
| DD8BA-10 | 2026-09-04 04:56:02 | 52.56465 | 9.05801 | 71° | 16km/h | 21480m | 5.5m/s | -52.0°C | 3.5% | 46.0hPa | 2.6V | 00:00:00 | 00:00:00 | 00:00:00 | |
| DL1XH-15 | 2026-09-04 04:56:01 | 52.56459 | 9.05764 | 84° | 18km/h | 21445m | 4.5m/s | -52°C | 3.5% | 46.3hPa | 2.6V | 08:30:00 | 01:24:44 | 00:00:00 | |
| DL1XH-west | 2026-09-04 04:56:00 | 52.56462 | 9.05792 | 59° | 15km/h | 21468m | 6.2m/s | -52°C | 0.2% | 46.2hPa | 2.6V | 18:12:15 | 01:24:48 | 00:00:00 | |
| DF5WG-10 | 2026-09-04 04:55:59 | 52.56461 | 9.05786 | 68° | 15km/h | 21462m | 4.8m/s | -52.0°C | 3.6% | 46.2hPa | 2.6V | 00:00:00 | 01:24:47 | 00:00:00 | |
| DM0DOS-11 | 2026-09-04 04:55:58 | 52.56455 | 9.05745 | 63° | 13km/h | 21429m | 4.9m/s | -52.2°C | 3.5% | 46.5hPa | 2.6V | 08:30:00 | 01:24:41 | 00:00:00 | |
| DF8AY | 2026-09-04 04:55:58 | 52.56459 | 9.05779 | 80° | 18km/h | 21456m | 7.2m/s | -52.1°C | 0.3% | 46.3hPa | 2.7V | 18:12:15 | 01:24:46 | 00:00:00 | |
| DL4BBY-15 | 2026-09-04 04:55:58 | 52.56460 | 9.05779 | 80° | 16km/h | 21457m | 7.1m/s | -53.0°C | 0% | 0hPa | 2.7V | 00:00:00 | 00:00:00 | 00:00:00 | |
| GOEST3-10 | 2026-09-04 04:55:57 | 52.56459 | 9.05771 | 89° | 16km/h | 21450m | 5.3m/s | -52.0°C | 3.6% | 46.3hPa | 2.7V | 00:00:00 | 01:24:45 | 00:00:00 | |
| DL1XH1-15 | 2026-09-04 04:55:56 | 52.56453 | 9.05737 | 65° | 9km/h | 21417m | 4.7m/s | -52.2°C | 3.5% | 46.6hPa | 2.7V | 08:30:00 | 01:24:39 | 00:00:00 | |
| HSKMA3-T | 2026-09-04 04:55:55 | 52.56458 | 9.05757 | 73° | 16km/h | 21439m | 7m/s | -52.1°C | 0.2% | 46.4hPa | 2.5V | 18:12:15 | 01:24:43 | 00:00:00 | |
| DB0DAN | 2026-09-04 04:55:55 | 52.56458 | 9.05757 | 73° | 16km/h | 21439m | 7m/s | -52.1°C | 0.9% | 46.39hPa | 2.5V | 00:00:00 | 00:00:00 | 00:00:00 | |
| AA1-15 | 2026-09-04 04:55:52 | 52.56453 | 9.05741 | 67° | 11km/h | 21423m | 6.7m/s | -52.2°C | 0.2% | 46.5hPa | 2.6V | 18:12:15 | 01:24:40 | 00:00:00 | |
| DL3AQ-11 | 2026-09-04 04:55:52 | 52.56452 | 9.05737 | 65° | 9km/h | 21418m | 4.7m/s | -52.2°C | 0.9% | 46.6hPa | 2.6V | 00:00:00 | 00:00:00 | 00:00:00 | |
| DL1XH-15 | 2026-09-04 04:55:51 | 52.56450 | 9.05718 | 114° | 15km/h | 21388m | 5.1m/s | -52.2°C | 3.4% | 46.8hPa | 2.6V | 08:30:00 | 01:24:34 | 00:00:00 | |
| DL1XH-west | 2026-09-04 04:55:49 | 52.56450 | 9.05731 | 49° | 9km/h | 21406m | 5.3m/s | -52.2°C | 0.2% | 46.6hPa | 2.7V | 18:12:15 | 01:24:37 | 00:00:00 | |
| DF8AY | 2026-09-04 04:55:47 | 52.56449 | 9.05723 | 101° | 11km/h | 21394m | 6.6m/s | -52.2°C | 0.2% | 46.7hPa | 2.6V | 18:12:15 | 01:24:35 | 00:00:00 | |
| GOEST3-10 | 2026-09-04 04:55:47 | 52.56449 | 9.05723 | 101° | 16km/h | 21394m | 6.5m/s | -52.1°C | 3.4% | 46.7hPa | 2.6V | 00:00:00 | 01:24:35 | 00:00:00 | |
| DL1XH1-15 | 2026-09-04 04:55:46 | 52.56459 | 9.05684 | 120° | 20km/h | 21360m | 5.6m/s | -52.2°C | 3.5% | 47hPa | 2.6V | 08:30:00 | 01:24:29 | 00:00:00 | |
| HSKMA3-T | 2026-09-04 04:55:45 | 52.56451 | 9.05712 | 114° | 16km/h | 21383m | 5.5m/s | -52.2°C | 0.2% | 46.8hPa | 2.6V | 18:12:15 | 01:24:33 | 00:00:00 | |
| AA1-15 | 2026-09-04 04:55:42 | 52.56456 | 9.05691 | 116° | 20km/h | 21366m | 6.8m/s | -52.3°C | 0.2% | 46.9hPa | 2.7V | 18:12:15 | 01:24:30 | 00:00:00 | |
| DD8BA-10 | 2026-09-04 04:55:42 | 52.56456 | 9.05691 | 116° | 16km/h | 21366m | 6.7m/s | -52.2°C | 3.5% | 46.9hPa | 2.6V | 00:00:00 | 00:00:00 | 00:00:00 | |
| DB0DAN | 2026-09-04 04:55:40 | 52.56461 | 9.05677 | 116° | 18km/h | 21354m | 5.6m/s | -52.3°C | 0.9% | 47.02hPa | 2.6V | 00:00:00 | 00:00:00 | 00:00:00 | |
| DL1XH-west | 2026-09-04 04:55:38 | 52.56464 | 9.05665 | 106° | 13km/h | 21343m | 4.7m/s | -52.4°C | 0.3% | 47.1hPa | 2.6V | 18:12:15 | 01:24:26 | 00:00:00 | |
| SO1NDE-10 | 2026-09-04 04:55:38 | 52.56464 | 9.05664 | 106° | 22km/h | 21343m | 4.7m/s | -52.3°C | 3.6% | 47.0hPa | 2.6V | 00:00:00 | 01:24:26 | 00:00:00 | |
| DO2SHX-10 | 2026-09-04 04:55:37 | 52.56465 | 9.05660 | 118° | 15km/h | 21338m | 5.0m/s | -52.4°C | 3.6% | 47.1hPa | 2.6V | 00:00:00 | 01:24:25 | 00:00:00 | |
| DL1XH1-15 | 2026-09-04 04:55:36 | 52.56482 | 9.05632 | 134° | 22km/h | 21305m | 6.7m/s | -52.5°C | 3.6% | 47.4hPa | 2.6V | 08:30:00 | 01:24:19 | 00:00:00 | |
| DF8AY | 2026-09-04 04:55:36 | 52.56467 | 9.05655 | 132° | 15km/h | 21332m | 7m/s | -52.5°C | 0.3% | 47.1hPa | 2.7V | 18:12:15 | 01:24:24 | 00:00:00 | |
| HSKMA3-T | 2026-09-04 04:55:34 | 52.56472 | 9.05647 | 142° | 15km/h | 21321m | 5.7m/s | -52.6°C | 0.3% | 47.2hPa | 2.5V | 18:12:15 | 01:24:22 | 00:00:00 | |
| BIOWL1-15 | 2026-09-04 04:55:31 | 52.56481 | 9.05632 | 134° | 22km/h | 21305m | 6.7m/s | -52.5°C | 0.3% | 47.4hPa | 2.6V | 18:12:15 | 01:24:19 | 00:00:00 | |
| DO2SHX-10 | 2026-09-04 04:55:31 | 52.56481 | 9.05632 | 135° | 26km/h | 21306m | 6.7m/s | -52.5°C | 3.6% | 47.3hPa | 2.7V | 00:00:00 | 01:24:19 | 00:00:00 | |
| EDDB2-12 | 2026-09-04 04:55:30 | 52.56486 | 9.05625 | 134° | 26km/h | 21299m | 5.9m/s | -52.5°C | 0.9% | 47.4hPa | 2.7V | 00:00:00 | 00:00:00 | 00:00:00 | |
| DF5WG-10 | 2026-09-04 04:55:29 | 52.56490 | 9.05617 | 130° | 26km/h | 21293m | 5.6m/s | -52.5°C | 3.6% | 47.4hPa | 2.7V | 00:00:00 | 01:24:17 | 00:00:00 | |
| DM0DOS-11 | 2026-09-04 04:55:28 | 52.56513 | 9.05565 | 120° | 22km/h | 21258m | 6.1m/s | -52.7°C | 3.6% | 47.7hPa | 2.7V | 08:30:00 | 01:24:11 | 00:00:00 | |
| DO2JMG | 2026-09-04 04:55:28 | 52.56494 | 9.05608 | 126° | 26km/h | 21287m | 6.3m/s | -52.5°C | 0.3% | 47.5hPa | 2.7V | 18:12:15 | 01:24:16 | 00:00:00 | |
| DL1XH-west | 2026-09-04 04:55:27 | 52.56498 | 9.05600 | 124° | 26km/h | 21282m | 4.4m/s | -52.6°C | 0.3% | 47.6hPa | 2.5V | 18:12:15 | 01:24:15 | 00:00:00 | |
| DF8AY | 2026-09-04 04:55:26 | 52.56502 | 9.05591 | 126° | 26km/h | 21276m | 6.7m/s | -52.6°C | 0.3% | 47.6hPa | 2.6V | 18:12:15 | 01:24:14 | 00:00:00 | |
| DB0DAN | 2026-09-04 04:55:25 | 52.56506 | 9.05582 | 128° | 26km/h | 21270m | 6.3m/s | -52.7°C | 0.9% | 47.61hPa | 2.6V | 00:00:00 | 00:00:00 | 00:00:00 | |
| HSKMA3-T | 2026-09-04 04:55:24 | 52.56513 | 9.05565 | 121° | 22km/h | 21258m | 6.1m/s | -52.7°C | 0.2% | 47.7hPa | 2.7V | 18:12:15 | 01:24:11 | 00:00:00 | |
| BIOWL1-15 | 2026-09-04 04:55:23 | 52.56519 | 9.05549 | 121° | 24km/h | 21248m | 5.6m/s | -52.7°C | 0.3% | 47.8hPa | 2.7V | 18:12:15 | 01:24:09 | 00:00:00 | |
| DL3AQ-11 | 2026-09-04 04:55:23 | 52.56516 | 9.05557 | 118° | 20km/h | 21253m | 4.4m/s | -52.7°C | 0.9% | 47.7hPa | 2.7V | 00:00:00 | 00:00:00 | 00:00:00 | |
| DO2SHX-10 | 2026-09-04 04:55:22 | 52.56516 | 9.05557 | 119° | 24km/h | 21253m | 4.3m/s | -52.6°C | 3.6% | 47.7hPa | 2.7V | 00:00:00 | 01:24:10 | 00:00:00 | |
| DL1XH-15 | 2026-09-04 04:55:21 | 52.56535 | 9.05506 | 104° | 20km/h | 21219m | 4.7m/s | -52.7°C | 3.6% | 48hPa | 2.7V | 08:30:00 | 01:24:04 | 00:00:00 | |
| AA1-15 | 2026-09-04 04:55:20 | 52.56522 | 9.05540 | 126° | 27km/h | 21242m | 6.8m/s | -52.7°C | 0.3% | 47.8hPa | 2.5V | 18:12:15 | 01:24:08 | 00:00:00 | |
| DO2SHX-10 | 2026-09-04 04:55:19 | 52.56526 | 9.05531 | 128° | 26km/h | 21236m | 3.7m/s | -52.6°C | 3.6% | 47.8hPa | 2.5V | 00:00:00 | 01:24:07 | 00:00:00 | |
| DM0DOS-11 | 2026-09-04 04:55:18 | 52.56538 | 9.05479 | 89° | 22km/h | 21202m | 6.2m/s | -52.7°C | 3.5% | 48.1hPa | 2.5V | 08:30:00 | 01:24:01 | 00:00:00 | |
| DL1NUX | 2026-09-04 04:55:17 | 52.56537 | 9.05470 | 81° | 22km/h | 21196m | 6m/s | -52.7°C | 3.5% | 48.2hPa | 2.6V | 08:30:00 | 01:24:00 | 00:00:00 | |
| DO2JMG | 2026-09-04 04:55:17 | 52.56533 | 9.05514 | 114° | 22km/h | 21225m | 6.5m/s | -52.7°C | 0.3% | 47.9hPa | 2.6V | 18:12:15 | 01:24:05 | 00:00:00 | |
| DL1XH-west | 2026-09-04 04:55:16 | 52.56535 | 9.05506 | 104° | 20km/h | 21219m | 4.7m/s | -52.7°C | 0.3% | 48hPa | 2.7V | 18:12:15 | 01:24:04 | 00:00:00 | |
| HSKMA3-T | 2026-09-04 04:55:14 | 52.56538 | 9.05479 | 89° | 22km/h | 21202m | 6.2m/s | -52.7°C | 0.2% | 48.1hPa | 2.5V | 18:12:15 | 01:24:01 | 00:00:00 | |
| BUE01 | 2026-09-04 04:55:13 | 52.56537 | 9.05470 | 81° | 20km/h | 21196m | 6.0m/s | -52.7°C | 0.9% | 48.2hPa | 2.6V | 00:00:00 | 00:00:00 | 00:00:00 | |
| DL3AQ-11 | 2026-09-04 04:55:12 | 52.56537 | 9.05461 | 85° | 20km/h | 21191m | 4.4m/s | -52.7°C | 0.9% | 48.2hPa | 2.6V | 00:00:00 | 00:00:00 | 00:00:00 | |
| DL1XH-15 | 2026-09-04 04:55:11 | 52.56542 | 9.05419 | 102° | 20km/h | 21163m | 4.5m/s | -52.7°C | 3.6% | 48.4hPa | 2.6V | 08:30:00 | 01:23:54 | 00:00:00 | |
| BIOWL1-15 | 2026-09-04 04:55:10 | 52.56537 | 9.05452 | 95° | 22km/h | 21185m | 7.2m/s | -52.7°C | 0.3% | 48.3hPa | 2.6V | 18:12:15 | 01:23:58 | 00:00:00 | |
| AA1-15 | 2026-09-04 04:55:09 | 52.56538 | 9.05443 | 107° | 22km/h | 21179m | 5.2m/s | -52.7°C | 0.3% | 48.3hPa | 2.7V | 18:12:15 | 01:23:57 | 00:00:00 | |
| DF5WG-10 | 2026-09-04 04:55:09 | 52.56538 | 9.05443 | 107° | 24km/h | 21179m | 5.1m/s | -52.7°C | 3.6% | 48.3hPa | 2.6V | 00:00:00 | 01:23:57 | 00:00:00 | |
| DM0DOS-11 | 2026-09-04 04:55:08 | 52.56545 | 9.05390 | 94° | 26km/h | 21145m | 5m/s | -52.8°C | 3.7% | 48.6hPa | 2.6V | 08:30:00 | 01:23:51 | 00:00:00 | |
| DL1NUX | 2026-09-04 04:55:08 | 52.56545 | 9.05380 | 89° | 26km/h | 21140m | 6.1m/s | -52.8°C | 3.7% | 48.6hPa | 2.7V | 08:30:00 | 01:23:50 | 00:00:00 | |
| SO1NDE-10 | 2026-09-04 04:55:07 | 52.56541 | 9.05427 | 107° | 26km/h | 21168m | 6.2m/s | -52.7°C | 3.7% | 48.3hPa | 2.7V | 00:00:00 | 01:23:55 | 00:00:00 | |
| DL1XH1-15 | 2026-09-04 04:55:06 | 52.56545 | 9.05369 | 88° | 26km/h | 21135m | 3.7m/s | -52.8°C | 3.7% | 48.6hPa | 2.7V | 08:30:00 | 01:23:49 | 00:00:00 | |
| DO2JMG | 2026-09-04 04:55:06 | 52.56542 | 9.05419 | 102° | 20km/h | 21163m | 4.5m/s | -52.7°C | 0.3% | 48.4hPa | 2.6V | 18:12:15 | 01:23:54 | 00:00:00 | |
| DL1XH-west | 2026-09-04 04:55:05 | 52.56543 | 9.05411 | 102° | 24km/h | 21157m | 6.7m/s | -52.7°C | 0.3% | 48.4hPa | 2.6V | 18:12:15 | 01:23:53 | 00:00:00 | |
| HSKMA3-T | 2026-09-04 04:55:02 | 52.56545 | 9.05380 | 90° | 26km/h | 21140m | 6.1m/s | -52.8°C | 0.4% | 48.6hPa | 2.7V | 18:12:15 | 01:23:50 | 00:00:00 | |
| DL1XH-15 | 2026-09-04 04:55:02 | 52.56554 | 9.05318 | 124° | 22km/h | 21110m | 6.1m/s | -52.8°C | 3.6% | 48.8hPa | 2.6V | 08:30:00 | 01:23:44 | 00:00:00 | |
| AA1-15 | 2026-09-04 04:54:59 | 52.56546 | 9.05348 | 101° | 27km/h | 21125m | 6.2m/s | -52.8°C | 0.3% | 48.7hPa | 2.5V | 18:12:15 | 01:23:47 | 00:00:00 | |
| DF5WG-10 | 2026-09-04 04:54:59 | 52.56546 | 9.05347 | 102° | 24km/h | 21126m | 6.2m/s | -52.7°C | 3.7% | 48.6hPa | 2.7V | 00:00:00 | 01:23:47 | 00:00:00 | |
| DM0DOS-11 | 2026-09-04 04:54:58 | 52.56561 | 9.05299 | 106° | 16km/h | 21093m | 4.9m/s | -52.8°C | 3.5% | 48.9hPa | 2.7V | 08:30:00 | 01:23:41 | 00:00:00 | |
| DL4BBY-15 | 2026-09-04 04:54:58 | 52.56548 | 9.05337 | 113° | 29km/h | 21120m | 5.0m/s | -53.7°C | 0% | 0hPa | 2.6V | 00:00:00 | 00:00:00 | 00:00:00 | |
| DL1NUX | 2026-09-04 04:54:57 | 52.56562 | 9.05292 | 103° | 22km/h | 21088m | 6.1m/s | -52.8°C | 3.5% | 49hPa | 2.6V | 08:30:00 | 01:23:40 | 00:00:00 | |
| DL1XH1-15 | 2026-09-04 04:54:56 | 52.56563 | 9.05282 | 98° | 27km/h | 21082m | 5m/s | -52.8°C | 3.5% | 49hPa | 2.6V | 08:30:00 | 01:23:39 | 00:00:00 | |
| DL3AQ-11 | 2026-09-04 04:54:56 | 52.56557 | 9.05311 | 123° | 16km/h | 21104m | 5.7m/s | -52.8°C | 0.9% | 48.9hPa | 2.7V | 00:00:00 | 00:00:00 | 00:00:00 | |
| DB0DAN | 2026-09-04 04:54:55 | 52.56557 | 9.05311 | 123° | 16km/h | 21103m | 5.7m/s | -52.8°C | 0.9% | 48.88hPa | 2.7V | 00:00:00 | 00:00:00 | 00:00:00 | |
| DO2JMG | 2026-09-04 04:54:55 | 52.56557 | 9.05311 | 123° | 18km/h | 21103m | 5.7m/s | -52.8°C | 0.2% | 48.9hPa | 2.7V | 18:12:15 | 01:23:43 | 00:00:00 | |
| DL1XH-west | 2026-09-04 04:54:54 | 52.56559 | 9.05306 | 115° | 15km/h | 21098m | 4.9m/s | -52.8°C | 0.2% | 48.9hPa | 2.7V | 18:12:15 | 01:23:42 | 00:00:00 | |
| HSKMA3-T | 2026-09-04 04:54:52 | 52.56562 | 9.05292 | 104° | 22km/h | 21088m | 6.1m/s | -52.8°C | 0.2% | 49hPa | 2.6V | 18:12:15 | 01:23:40 | 00:00:00 | |
| DO2SHX-10 | 2026-09-04 04:54:52 | 52.56562 | 9.05292 | 104° | 26km/h | 21088m | 6.0m/s | -52.8°C | 3.5% | 48.9hPa | 2.7V | 00:00:00 | 01:23:40 | 00:00:00 | |
| DL1XH-15 | 2026-09-04 04:54:51 | 52.56565 | 9.05219 | 106° | 31km/h | 21056m | 6.2m/s | -53°C | 3.7% | 49.2hPa | 2.7V | 08:30:00 | 01:23:34 | 00:00:00 | |
| AA1-15 | 2026-09-04 04:54:49 | 52.56564 | 9.05257 | 88° | 31km/h | 21072m | 6.1m/s | -52.9°C | 0.2% | 49.1hPa | 2.6V | 18:12:15 | 01:23:37 | 00:00:00 | |
| BIOWL1-15 | 2026-09-04 04:54:48 | 52.56564 | 9.05245 | 89° | 31km/h | 21067m | 4.3m/s | -52.9°C | 0.3% | 49.2hPa | 2.7V | 18:12:15 | 01:23:36 | 00:00:00 | |
| DL1NUX | 2026-09-04 04:54:47 | 52.56581 | 9.05178 | 126° | 26km/h | 21035m | 4.5m/s | -53.2°C | 3.8% | 49.4hPa | 2.6V | 08:30:00 | 01:23:30 | 00:00:00 | |
| GOEST3-10 | 2026-09-04 04:54:47 | 52.56564 | 9.05232 | 96° | 31km/h | 21062m | 4.6m/s | -52.9°C | 3.6% | 49.1hPa | 2.7V | 00:00:00 | 01:23:35 | 00:00:00 | |
| DL1XH1-15 | 2026-09-04 04:54:46 | 52.56585 | 9.05169 | 126° | 26km/h | 21030m | 4.8m/s | -53.2°C | 3.8% | 49.5hPa | 2.7V | 08:30:00 | 01:23:29 | 00:00:00 | |
| DO2JMG | 2026-09-04 04:54:44 | 52.56573 | 9.05196 | 125° | 31km/h | 21046m | 5.1m/s | -53.1°C | 0.4% | 49.3hPa | 2.6V | 18:12:15 | 01:23:32 | 00:00:00 | |
| DL1XH-west | 2026-09-04 04:54:43 | 52.56577 | 9.05187 | 126° | 27km/h | 21040m | 6.1m/s | -53.2°C | 0.4% | 49.3hPa | 2.6V | 18:12:15 | 01:23:31 | 00:00:00 | |
| HSKMA3-T | 2026-09-04 04:54:43 | 52.56581 | 9.05178 | 126° | 26km/h | 21035m | 4.5m/s | -53.2°C | 0.4% | 49.4hPa | 2.6V | 18:12:15 | 01:23:30 | 00:00:00 | |
| DL3AQ-11 | 2026-09-04 04:54:43 | 52.56581 | 9.05178 | 126° | 24km/h | 21035m | 4.5m/s | -53.2°C | 1.0% | 49.4hPa | 2.7V | 00:00:00 | 00:00:00 | 00:00:00 | |
| DD8BA-10 | 2026-09-04 04:54:42 | 52.56581 | 9.05178 | 127° | 31km/h | 21035m | 4.5m/s | -53.2°C | 3.8% | 49.3hPa | 2.7V | 00:00:00 | 00:00:00 | 00:00:00 | |
| DO3DL | 2026-09-04 04:54:41 | 52.56581 | 9.05178 | 127° | 26km/h | 21035m | 4.5m/s | -53.2°C | 1.0% | 49.4hPa | 2.7V | 00:00:00 | 00:00:00 | 00:00:00 | |
| DB0DAN | 2026-09-04 04:54:40 | 52.56589 | 9.05160 | 126° | 27km/h | 21024m | 6.4m/s | -53.2°C | 1% | 49.45hPa | 2.7V | 00:00:00 | 00:00:00 | 00:00:00 | |
| AA1-15 | 2026-09-04 04:54:39 | 52.56593 | 9.05150 | 123° | 31km/h | 21019m | 5.1m/s | -53.2°C | 0.3% | 49.5hPa | 2.7V | 18:12:15 | 01:23:27 | 00:00:00 | |
| BIOWL1-15 | 2026-09-04 04:54:38 | 52.56597 | 9.05139 | 117° | 31km/h | 21013m | 6m/s | -53.2°C | 0.4% | 49.6hPa | 2.5V | 18:12:15 | 01:23:26 | 00:00:00 | |
| DO3MHA-11 | 2026-09-04 04:54:38 | 52.56597 | 9.05139 | 117° | 33km/h | 21014m | 5.9m/s | 0°C | 0% | 0hPa | 2.7V | 00:00:00 | 01:23:26 | 00:00:00 | |
| DL1NUX | 2026-09-04 04:54:37 | 52.56617 | 9.05064 | 111° | 33km/h | 20982m | 6.9m/s | -53.2°C | 3.7% | 49.8hPa | 2.7V | 08:30:00 | 01:23:20 | 00:00:00 | |
| SO1NDE-10 | 2026-09-04 04:54:37 | 52.56600 | 9.05127 | 110° | 35km/h | 21008m | 5.2m/s | -53.2°C | 3.7% | 49.5hPa | 2.6V | 00:00:00 | 01:23:25 | 00:00:00 | |
| DL1XH1-15 | 2026-09-04 04:54:36 | 52.56620 | 9.05051 | 108° | 33km/h | 20977m | 4m/s | -53.2°C | 3.7% | 49.9hPa | 2.5V | 08:30:00 | 01:23:19 | 00:00:00 | |
| DF8AY | 2026-09-04 04:54:34 | 52.56610 | 9.05089 | 118° | 35km/h | 20992m | 5.3m/s | -53.2°C | 0.3% | 49.7hPa | 2.7V | 18:12:15 | 01:23:22 | 00:00:00 | |
| DO2JMG | 2026-09-04 04:54:34 | 52.56614 | 9.05077 | 116° | 35km/h | 20988m | 3.5m/s | -53.2°C | 0.3% | 49.8hPa | 2.7V | 18:12:15 | 01:23:21 | 00:00:00 | |
| DL1XH-west | 2026-09-04 04:54:33 | 52.56617 | 9.05064 | 111° | 33km/h | 20982m | 6.9m/s | -53.3°C | 0.3% | 49.8hPa | 2.7V | 18:12:15 | 01:23:20 | 00:00:00 | |
| DD8BA-10 | 2026-09-04 04:54:33 | 52.56617 | 9.05064 | 112° | 35km/h | 20983m | 6.9m/s | -53.2°C | 3.7% | 49.7hPa | 2.7V | 00:00:00 | 00:00:00 | 00:00:00 | |
| DK5PH-5 | 2026-09-04 04:54:32 | 52.56617 | 9.05064 | 112° | 35km/h | 20983m | 6.9m/s | -53.2°C | 3.7% | 49.7hPa | 2.7V | 00:00:00 | 01:23:20 | 00:00:00 | |
| DL1XH-15 | 2026-09-04 04:54:31 | 52.56637 | 9.04985 | 107° | 33km/h | 20949m | 5.1m/s | -53.2°C | 3.8% | 50.1hPa | 2.7V | 08:30:00 | 01:23:14 | 00:00:00 | |
| HSKMA3-T | 2026-09-04 04:54:31 | 52.56620 | 9.05051 | 109° | 33km/h | 20977m | 4m/s | -53.2°C | 0.3% | 49.9hPa | 2.5V | 18:12:15 | 01:23:19 | 00:00:00 | |
| AA1-15 | 2026-09-04 04:54:28 | 52.56630 | 9.05011 | 116° | 37km/h | 20960m | 4.1m/s | -53.3°C | 0.3% | 50hPa | 2.6V | 18:12:15 | 01:23:16 | 00:00:00 | |
| DL4BBY-15 | 2026-09-04 04:54:28 | 52.56630 | 9.05011 | 116° | 37km/h | 20961m | 4.0m/s | -54.2°C | 0% | 0hPa | 2.6V | 00:00:00 | 00:00:00 | 00:00:00 | |
| DL1NUX | 2026-09-04 04:54:27 | 52.56646 | 9.04934 | 100° | 31km/h | 20926m | 6.8m/s | -53.2°C | 3.7% | 50.2hPa | 2.6V | 08:30:00 | 01:23:10 | 00:00:00 | |
| BIOWL1-15 | 2026-09-04 04:54:27 | 52.56634 | 9.04998 | 112° | 35km/h | 20955m | 6.9m/s | -53.3°C | 0.3% | 50hPa | 2.7V | 18:12:15 | 01:23:15 | 00:00:00 | |
| DL1XH1-15 | 2026-09-04 04:54:27 | 52.56647 | 9.04921 | 96° | 31km/h | 20921m | 4.4m/s | -53.2°C | 3.8% | 50.3hPa | 2.6V | 08:30:00 | 01:23:09 | 00:00:00 | |
| DF8AY | 2026-09-04 04:54:24 | 52.56644 | 9.04947 | 106° | 33km/h | 20932m | 3.9m/s | -53.2°C | 0.4% | 50.2hPa | 2.6V | 18:12:15 | 01:23:11 | 00:00:00 | |
| DO2JMG | 2026-09-04 04:54:22 | 52.56646 | 9.04934 | 101° | 31km/h | 20926m | 6.8m/s | -53.2°C | 0.3% | 50.2hPa | 2.6V | 18:12:15 | 01:23:10 | 00:00:00 | |
| HSKMA3-T | 2026-09-04 04:54:21 | 52.56648 | 9.04908 | 99° | 33km/h | 20916m | 4.8m/s | -53.2°C | 0.3% | 50.3hPa | 2.7V | 18:12:15 | 01:23:08 | 00:00:00 | |
| DL1XH-west | 2026-09-04 04:54:21 | 52.56647 | 9.04921 | 96° | 31km/h | 20921m | 4.4m/s | -53.2°C | 0.4% | 50.3hPa | 2.6V | 18:12:15 | 01:23:09 | 00:00:00 | |
| BIOWL1-15 | 2026-09-04 04:54:19 | 52.56654 | 9.04863 | 103° | 38km/h | 20898m | 6.5m/s | -53.2°C | 0.4% | 50.4hPa | 2.6V | 18:12:15 | 01:23:05 | 00:00:00 | |
| AA1-15 | 2026-09-04 04:54:18 | 52.56652 | 9.04879 | 104° | 38km/h | 20904m | 5.1m/s | -53.2°C | 0.4% | 50.4hPa | 2.7V | 18:12:15 | 01:23:06 | 00:00:00 | |
| GOEST3-10 | 2026-09-04 04:54:17 | 52.56654 | 9.04863 | 104° | 37km/h | 20899m | 6.4m/s | -53.1°C | 3.7% | 50.4hPa | 2.7V | 00:00:00 | 01:23:05 | 00:00:00 | |
| DL1NUX | 2026-09-04 04:54:17 | 52.56663 | 9.04790 | 92° | 33km/h | 20871m | 6.4m/s | -53.1°C | 3.7% | 50.7hPa | 2.7V | 08:30:00 | 01:23:00 | 00:00:00 | |
| DL1XH1-15 | 2026-09-04 04:54:16 | 52.56662 | 9.04777 | 83° | 33km/h | 20865m | 5.7m/s | -53.1°C | 3.7% | 50.7hPa | 2.7V | 08:30:00 | 01:22:59 | 00:00:00 | |
| DF8AY | 2026-09-04 04:54:13 | 52.56662 | 9.04805 | 99° | 35km/h | 20877m | 4.5m/s | -53.1°C | 0.4% | 50.7hPa | 2.7V | 18:12:15 | 01:23:01 | 00:00:00 | |
| DL1XH-west | 2026-09-04 04:54:11 | 52.56662 | 9.04777 | 83° | 33km/h | 20865m | 5.7m/s | -53.1°C | 0.3% | 50.7hPa | 2.7V | 18:12:15 | 01:22:59 | 00:00:00 | |
| DB0DAN | 2026-09-04 04:54:10 | 52.56661 | 9.04763 | 80° | 33km/h | 20860m | 4.7m/s | -53.1°C | 1% | 50.78hPa | 2.6V | 00:00:00 | 00:00:00 | 00:00:00 | |
| HSKMA3-T | 2026-09-04 04:54:09 | 52.56660 | 9.04749 | 83° | 37km/h | 20854m | 6.5m/s | -53.1°C | 0.3% | 50.8hPa | 2.6V | 18:12:15 | 01:22:57 | 00:00:00 | |
| DF5WG-10 | 2026-09-04 04:54:09 | 52.56660 | 9.04749 | 83° | 38km/h | 20855m | 6.4m/s | -53.1°C | 3.7% | 50.7hPa | 2.6V | 00:00:00 | 01:22:57 | 00:00:00 | |
| EDDB2-11 | 2026-09-04 04:54:08 | 52.56659 | 9.04734 | 87° | 38km/h | 20849m | 5.6m/s | -53.1°C | 0.9% | 50.9hPa | 2.6V | 00:00:00 | 00:00:00 | 00:00:00 | |
| DO2SHX-10 | 2026-09-04 04:54:07 | 52.56659 | 9.04718 | 92° | 38km/h | 20844m | 3.9m/s | -53.0°C | 3.7% | 50.8hPa | 2.6V | 00:00:00 | 01:22:55 | 00:00:00 | |
| BIOWL1-15 | 2026-09-04 04:54:07 | 52.56659 | 9.04718 | 92° | 40km/h | 20844m | 3.9m/s | -53.1°C | 0.4% | 50.9hPa | 2.6V | 18:12:15 | 01:22:55 | 00:00:00 | |
| DL1XH1-15 | 2026-09-04 04:54:06 | 52.56659 | 9.04625 | 91° | 38km/h | 20813m | 6m/s | -53°C | 3.7% | 51.1hPa | 2.6V | 08:30:00 | 01:22:49 | 00:00:00 | |
| DF8AY | 2026-09-04 04:54:03 | 52.56660 | 9.04655 | 86° | 35km/h | 20823m | 4.4m/s | -53°C | 0.4% | 51hPa | 2.6V | 18:12:15 | 01:22:51 | 00:00:00 | |
| DO2JMG | 2026-09-04 04:54:01 | 52.56659 | 9.04625 | 92° | 38km/h | 20813m | 6m/s | -53°C | 0.3% | 51.1hPa | 2.6V | 18:12:15 | 01:22:49 | 00:00:00 | |
| DL1XH-west | 2026-09-04 04:54:00 | 52.56659 | 9.04608 | 92° | 40km/h | 20808m | 4.3m/s | -53°C | 0.3% | 51.2hPa | 2.6V | 18:12:15 | 01:22:48 | 00:00:00 | |
| HSKMA3-T | 2026-09-04 04:53:58 | 52.56659 | 9.04574 | 85° | 40km/h | 20798m | 5.9m/s | -53.1°C | 0.3% | 51.2hPa | 2.7V | 18:12:15 | 01:22:46 | 00:00:00 | |
| BIOWL1-15 | 2026-09-04 04:53:57 | 52.56658 | 9.04559 | 83° | 37km/h | 20793m | 4.6m/s | -53.1°C | 0.4% | 51.3hPa | 2.7V | 18:12:15 | 01:22:45 | 00:00:00 | |
| DL1XH1-15 | 2026-09-04 04:53:56 | 52.56659 | 9.04487 | 85° | 24km/h | 20761m | 4.8m/s | -53.1°C | 3.7% | 51.5hPa | 2.7V | 08:30:00 | 01:22:39 | 00:00:00 | |
| DF8AY | 2026-09-04 04:53:53 | 52.56658 | 9.04507 | 99° | 26km/h | 20772m | 4.5m/s | -53.2°C | 0.4% | 51.5hPa | 2.6V | 18:12:15 | 01:22:41 | 00:00:00 | |
| DL3AQ-11 | 2026-09-04 04:53:52 | 52.56658 | 9.04476 | 82° | 26km/h | 20757m | 4.2m/s | -53.1°C | 0.9% | 51.6hPa | 2.6V | 00:00:00 | 00:00:00 | 00:00:00 | |
| DL1XH-15 | 2026-09-04 04:53:51 | 52.56658 | 9.04428 | 92° | 27km/h | 20738m | 4.8m/s | -53.1°C | 3.6% | 51.7hPa | 2.6V | 08:30:00 | 01:22:34 | 00:00:00 | |
| DL1XH-west | 2026-09-04 04:53:50 | 52.56658 | 9.04476 | 83° | 27km/h | 20757m | 4.2m/s | -53.1°C | 0.3% | 51.6hPa | 2.7V | 18:12:15 | 01:22:38 | 00:00:00 | |
| DO2SHX-10 | 2026-09-04 04:53:49 | 52.56658 | 9.04464 | 86° | 31km/h | 20752m | 5.5m/s | -53.0°C | 3.6% | 51.6hPa | 2.7V | 00:00:00 | 01:22:37 | 00:00:00 | |
| DM0DOS-11 | 2026-09-04 04:53:48 | 52.56656 | 9.04400 | 68° | 22km/h | 20723m | 4.8m/s | -53°C | 3.5% | 51.9hPa | 2.7V | 08:30:00 | 01:22:31 | 00:00:00 | |
| AA1-15 | 2026-09-04 04:53:47 | 52.56658 | 9.04439 | 93° | 29km/h | 20743m | 4m/s | -53°C | 0.4% | 51.7hPa | 2.6V | 18:12:15 | 01:22:35 | 00:00:00 | |
| DL1XH1-15 | 2026-09-04 04:53:47 | 52.56652 | 9.04380 | 80° | 26km/h | 20713m | 5.6m/s | -53°C | 3.5% | 51.9hPa | 2.6V | 08:30:00 | 01:22:29 | 00:00:00 | |
| BIOWL1-15 | 2026-09-04 04:53:46 | 52.56658 | 9.04428 | 93° | 27km/h | 20738m | 4.8m/s | -53.1°C | 0.3% | 51.7hPa | 2.6V | 18:12:15 | 01:22:34 | 00:00:00 | |
| DF8AY | 2026-09-04 04:53:42 | 52.56654 | 9.04391 | 72° | 24km/h | 20718m | 4.8m/s | -53°C | 0.2% | 51.9hPa | 2.6V | 18:12:15 | 01:22:30 | 00:00:00 | |
| DD8BA-10 | 2026-09-04 04:53:42 | 52.56654 | 9.04390 | 72° | 24km/h | 20718m | 4.8m/s | -53.0°C | 3.5% | 51.8hPa | 2.7V | 00:00:00 | 00:00:00 | 00:00:00 | |
| DL1XH-15 | 2026-09-04 04:53:41 | 52.56652 | 9.04330 | 88° | 22km/h | 20687m | 5.1m/s | -53.2°C | 3.7% | 52.1hPa | 2.7V | 08:30:00 | 01:22:24 | 00:00:00 | |
| DO2JMG | 2026-09-04 04:53:40 | 52.56652 | 9.04369 | 88° | 27km/h | 20707m | 5.6m/s | -53.1°C | 0.2% | 51.9hPa | 2.6V | 18:12:15 | 01:22:28 | 00:00:00 | |
| DL1XH-west | 2026-09-04 04:53:39 | 52.56652 | 9.04358 | 92° | 26km/h | 20703m | 3.8m/s | -53.1°C | 0.3% | 52hPa | 2.6V | 18:12:15 | 01:22:27 | 00:00:00 | |
| HSKMA3-T | 2026-09-04 04:53:37 | 52.56652 | 9.04339 | 89° | 22km/h | 20692m | 4.4m/s | -53.2°C | 0.3% | 52.1hPa | 2.7V | 18:12:15 | 01:22:25 | 00:00:00 | |
| AA1-15 | 2026-09-04 04:53:36 | 52.56652 | 9.04330 | 88° | 22km/h | 20687m | 5.1m/s | -53.2°C | 0.4% | 52.1hPa | 2.7V | 18:12:15 | 01:22:24 | 00:00:00 | |
| DF8AY | 2026-09-04 04:53:32 | 52.56648 | 9.04293 | 69° | 20km/h | 20665m | 3.8m/s | -53.3°C | 0.4% | 52.3hPa | 2.6V | 18:12:15 | 01:22:20 | 00:00:00 | |
| DD8BA-10 | 2026-09-04 04:53:32 | 52.56648 | 9.04293 | 69° | 20km/h | 20666m | 3.7m/s | -53.2°C | 3.8% | 52.3hPa | 2.6V | 00:00:00 | 00:00:00 | 00:00:00 | |
| DL1XH-15 | 2026-09-04 04:53:31 | 52.56638 | 9.04242 | 56° | 18km/h | 20635m | 4.6m/s | -53.4°C | 3.6% | 52.6hPa | 2.6V | 08:30:00 | 01:22:14 | 00:00:00 | |
| DO2JMG | 2026-09-04 04:53:29 | 52.56643 | 9.04267 | 76° | 24km/h | 20650m | 5m/s | -53.3°C | 0.4% | 52.5hPa | 2.7V | 18:12:15 | 01:22:17 | 00:00:00 | |
| DL1XH-west | 2026-09-04 04:53:28 | 52.56642 | 9.04258 | 75° | 24km/h | 20646m | 4.6m/s | -53.3°C | 0.3% | 52.5hPa | 2.6V | 18:12:15 | 01:22:16 | 00:00:00 | |
| BIOWL1-15 | 2026-09-04 04:53:26 | 52.56638 | 9.04242 | 57° | 18km/h | 20635m | 4.6m/s | -53.4°C | 0.3% | 52.6hPa | 2.6V | 18:12:15 | 01:22:14 | 00:00:00 | |
| DB0DAN | 2026-09-04 04:53:25 | 52.56635 | 9.04236 | 55° | 16km/h | 20630m | 4.4m/s | -53.5°C | 1% | 52.59hPa | 2.6V | 00:00:00 | 00:00:00 | 00:00:00 | |
| DF8AY | 2026-09-04 04:53:22 | 52.56629 | 9.04212 | 70° | 13km/h | 20610m | 5.5m/s | -53.6°C | 0.3% | 52.8hPa | 2.6V | 18:12:15 | 01:22:09 | 00:00:00 | |
| DO2JMG | 2026-09-04 04:53:18 | 52.56626 | 9.04199 | 89° | 11km/h | 20594m | 5.8m/s | -53.6°C | 0.4% | 52.9hPa | 2.6V | 18:12:15 | 01:22:06 | 00:00:00 | |
| DL1XH-west | 2026-09-04 04:53:17 | 52.56627 | 9.04194 | 107° | 15km/h | 20589m | 5.5m/s | -53.6°C | 0.4% | 53hPa | 2.7V | 18:12:15 | 01:22:05 | 00:00:00 | |
| HSKMA3-T | 2026-09-04 04:53:16 | 52.56628 | 9.04188 | 114° | 16km/h | 20584m | 4.4m/s | -53.6°C | 0.4% | 53hPa | 2.7V | 18:12:15 | 01:22:04 | 00:00:00 | |
| BIOWL1-15 | 2026-09-04 04:53:15 | 52.56630 | 9.04181 | 111° | 16km/h | 20579m | 5.6m/s | -53.6°C | 0.4% | 53hPa | 2.7V | 18:12:15 | 01:22:03 | 00:00:00 | |
| DF8AY | 2026-09-04 04:53:11 | 52.56636 | 9.04159 | 125° | 16km/h | 20558m | 5.9m/s | -53.6°C | 0.2% | 53.2hPa | 2.6V | 18:12:15 | 01:21:59 | 00:00:00 | |
| DO2JMG | 2026-09-04 04:53:08 | 52.56641 | 9.04144 | 98° | 13km/h | 20542m | 4.6m/s | -53.6°C | 0.3% | 53.3hPa | 2.7V | 18:12:15 | 01:21:56 | 00:00:00 | |
| BIOWL1-15 | 2026-09-04 04:53:07 | 52.56642 | 9.04119 | 96° | 27km/h | 20526m | 5m/s | -53.7°C | 0.3% | 53.5hPa | 2.6V | 18:12:15 | 01:21:53 | 00:00:00 | |
| DL1XH-west | 2026-09-04 04:53:07 | 52.56641 | 9.04138 | 95° | 18km/h | 20537m | 5.6m/s | -53.7°C | 0.4% | 53.4hPa | 2.6V | 18:12:15 | 01:21:55 | 00:00:00 | |
| HSKMA3-T | 2026-09-04 04:53:06 | 52.56642 | 9.04129 | 96° | 24km/h | 20531m | 6.1m/s | -53.7°C | 0.3% | 53.4hPa | 2.6V | 18:12:15 | 01:21:54 | 00:00:00 | |
| AA1-15 | 2026-09-04 04:53:04 | 52.56643 | 9.04108 | 95° | 27km/h | 20520m | 6m/s | -53.8°C | 0.3% | 53.5hPa | 2.6V | 18:12:15 | 01:21:52 | 00:00:00 | |
| DF8AY | 2026-09-04 04:53:01 | 52.56649 | 9.04069 | 123° | 24km/h | 20499m | 5.6m/s | -54°C | 0.4% | 53.7hPa | 2.5V | 18:12:15 | 01:21:48 | 00:00:00 | |
| DL1XH-15 | 2026-09-04 04:53:01 | 52.56662 | 9.04049 | 144° | 15km/h | 20478m | 5.2m/s | -54.2°C | 3.9% | 53.9hPa | 2.7V | 08:30:00 | 01:21:44 | 00:00:00 | |
| DO2SHX-10 | 2026-09-04 04:53:01 | 52.56646 | 9.04078 | 112° | 24km/h | 20505m | 6.2m/s | -53.9°C | 3.8% | 53.6hPa | 2.7V | 00:00:00 | 01:21:49 | 08:30:00 | |
| DL8OAI-8 | 2026-09-04 04:53:00 | 52.56646 | 9.04078 | 113° | 24km/h | 20505m | 6.3m/s | -54.0°C | 1.0% | 53.7hPa | 2.6V | 00:00:00 | 00:00:00 | 00:00:00 | |
| DF5WG-10 | 2026-09-04 04:52:59 | 52.56653 | 9.04062 | 134° | 22km/h | 20494m | 4.0m/s | -54.0°C | 3.9% | 53.7hPa | 2.6V | 00:00:00 | 01:21:47 | 00:00:00 | |
| DO2SHX-10 | 2026-09-04 04:52:58 | 52.56656 | 9.04056 | 142° | 16km/h | 20489m | 6.4m/s | -54.1°C | 3.9% | 53.8hPa | 2.6V | 00:00:00 | 01:21:46 | 00:00:00 | |
| DL1NUX | 2026-09-04 04:52:57 | 52.56671 | 9.04019 | 93° | 26km/h | 20458m | 5.7m/s | -54.4°C | 4% | 54.1hPa | 2.6V | 08:30:00 | 01:21:40 | 00:00:00 | |
| DO2JMG | 2026-09-04 04:52:57 | 52.56659 | 9.04053 | 146° | 15km/h | 20483m | 4.8m/s | -54.2°C | 0.5% | 53.8hPa | 2.6V | 18:12:15 | 01:21:45 | 00:00:00 | |
| DL1XH-west | 2026-09-04 04:52:56 | 52.56662 | 9.04049 | 145° | 15km/h | 20478m | 5.2m/s | -54.2°C | 0.4% | 53.9hPa | 2.7V | 18:12:15 | 01:21:44 | 00:00:00 | |
| HSKMA3-T | 2026-09-04 04:52:55 | 52.56665 | 9.04045 | 134° | 18km/h | 20473m | 5.7m/s | -54.3°C | 0.4% | 54hPa | 2.7V | 18:12:15 | 01:21:43 | 00:00:00 | |
| DB0DAN | 2026-09-04 04:52:55 | 52.56665 | 9.04045 | 134° | 16km/h | 20473m | 5.7m/s | -54.3°C | 1% | 53.95hPa | 2.7V | 00:00:00 | 00:00:00 | 00:00:00 | |
| AA1-15 | 2026-09-04 04:52:53 | 52.56670 | 9.04030 | 104° | 24km/h | 20463m | 4.9m/s | -54.4°C | 0.5% | 54hPa | 2.6V | 18:12:15 | 01:21:41 | 00:00:00 | |
| DO2SHX-10 | 2026-09-04 04:52:52 | 52.56671 | 9.04019 | 94° | 29km/h | 20458m | 5.6m/s | -54.4°C | 4.0% | 54.0hPa | 2.6V | 00:00:00 | 01:21:40 | 00:00:00 | |
| DL1XH-15 | 2026-09-04 04:52:51 | 52.56676 | 9.03945 | 101° | 26km/h | 20427m | 5.7m/s | -54.4°C | 3.9% | 54.3hPa | 2.6V | 08:30:00 | 01:21:34 | 00:00:00 | |
| DF8AY | 2026-09-04 04:52:50 | 52.56671 | 9.03995 | 92° | 31km/h | 20448m | 5.6m/s | -54.5°C | 0.5% | 54.1hPa | 2.6V | 18:12:15 | 01:21:38 | 00:00:00 | |
| DO2SHX-10 | 2026-09-04 04:52:49 | 52.56672 | 9.03982 | 98° | 31km/h | 20442m | 5.6m/s | -54.4°C | 4.0% | 54.1hPa | 2.6V | 00:00:00 | 01:21:37 | 00:00:00 | |
| DM0DOS-11 | 2026-09-04 04:52:48 | 52.56680 | 9.03916 | 105° | 26km/h | 20412m | 5.3m/s | -54.4°C | 3.9% | 54.4hPa | 2.6V | 08:30:00 | 01:21:31 | 00:00:00 | |
| DO2JMG | 2026-09-04 04:52:47 | 52.56675 | 9.03956 | 101° | 29km/h | 20433m | 5.4m/s | -54.5°C | 0.5% | 54.3hPa | 2.7V | 18:12:15 | 01:21:35 | 00:00:00 | |
| DL1XH1-15 | 2026-09-04 04:52:46 | 52.56683 | 9.03894 | 94° | 26km/h | 20401m | 6m/s | -54.4°C | 4% | 54.5hPa | 2.7V | 08:30:00 | 01:21:29 | 00:00:00 | |
| DL1XH-west | 2026-09-04 04:52:46 | 52.56676 | 9.03945 | 102° | 26km/h | 20427m | 5.7m/s | -54.4°C | 0.5% | 54.3hPa | 2.6V | 18:12:15 | 01:21:34 | 00:00:00 | |
| BIOWL1-15 | 2026-09-04 04:52:45 | 52.56677 | 9.03935 | 103° | 24km/h | 20422m | 4.5m/s | -54.4°C | 0.4% | 54.3hPa | 2.6V | 18:12:15 | 01:21:33 | 00:00:00 | |
| AA1-15 | 2026-09-04 04:52:43 | 52.56680 | 9.03915 | 106° | 26km/h | 20412m | 5.4m/s | -54.4°C | 0.4% | 54.4hPa | 2.6V | 18:12:15 | 01:21:31 | 00:00:00 | |
| DJ8HS-15 | 2026-09-04 04:52:43 | 52.56680 | 9.03915 | 106° | 27km/h | 20412m | 5.3m/s | -54.3°C | 3.9% | 54.4hPa | 2.6V | 00:00:00 | 01:21:31 | 00:00:00 | |
| DD8BA-10 | 2026-09-04 04:52:42 | 52.56682 | 9.03905 | 103° | 29km/h | 20407m | 4.7m/s | -54.3°C | 3.9% | 54.4hPa | 2.6V | 00:00:00 | 00:00:00 | 00:00:00 | |
| DL1XH-15 | 2026-09-04 04:52:41 | 52.56675 | 9.03836 | 76° | 35km/h | 20375m | 3.8m/s | -54.2°C | 3.9% | 54.7hPa | 2.6V | 08:30:00 | 01:21:24 | 00:00:00 | |
| DB0DAN | 2026-09-04 04:52:40 | 52.56683 | 9.03884 | 83° | 24km/h | 20395m | 5.8m/s | -54.3°C | 1% | 54.6hPa | 2.7V | 00:00:00 | 00:00:00 | 00:00:00 | |
| DF8AY | 2026-09-04 04:52:39 | 52.56682 | 9.03874 | 73° | 27km/h | 20391m | 4.2m/s | -54.3°C | 0.4% | 54.6hPa | 2.6V | 18:12:15 | 01:21:27 | 00:00:00 | |
| DO2JMG | 2026-09-04 04:52:37 | 52.56677 | 9.03850 | 75° | 35km/h | 20380m | 5.3m/s | -54.2°C | 0.5% | 54.7hPa | 2.6V | 18:12:15 | 01:21:25 | 00:00:00 | |
| DO2SHX-10 | 2026-09-04 04:52:37 | 52.56677 | 9.03849 | 75° | 33km/h | 20380m | 5.3m/s | -54.1°C | 3.9% | 54.6hPa | 2.6V | 00:00:00 | 01:21:25 | 00:00:00 | |
| DL1XH1-15 | 2026-09-04 04:52:36 | 52.56664 | 9.03784 | 67° | 24km/h | 20349m | 4.9m/s | -54.1°C | 3.9% | 55hPa | 2.6V | 08:30:00 | 01:21:19 | 00:00:00 | |
| DL1XH-west | 2026-09-04 04:52:35 | 52.56673 | 9.03822 | 76° | 31km/h | 20371m | 4.9m/s | -54.1°C | 0.5% | 54.8hPa | 2.7V | 18:12:15 | 01:21:23 | 00:00:00 | |
| HSKMA3-T | 2026-09-04 04:52:35 | 52.56671 | 9.03811 | 73° | 27km/h | 20365m | 6.2m/s | -54.1°C | 0.4% | 54.8hPa | 2.7V | 18:12:15 | 01:21:22 | 00:00:00 | |
| AA1-15 | 2026-09-04 04:52:33 | 52.56667 | 9.03792 | 66° | 22km/h | 20354m | 4.7m/s | -54.1°C | 0.4% | 54.9hPa | 2.5V | 18:12:15 | 01:21:20 | 00:00:00 | |
| DD8BA-10 | 2026-09-04 04:52:33 | 52.56667 | 9.03792 | 66° | 29km/h | 20355m | 4.6m/s | -54.0°C | 3.9% | 54.8hPa | 2.7V | 00:00:00 | 00:00:00 | 00:00:00 | |
| DK5PH-5 | 2026-09-04 04:52:32 | 52.56667 | 9.03792 | 66° | 33km/h | 20355m | 4.6m/s | -54.0°C | 3.9% | 54.8hPa | 2.7V | 00:00:00 | 01:21:20 | 00:00:00 | |
| DL1XH-15 | 2026-09-04 04:52:31 | 52.56653 | 9.03724 | 68° | 29km/h | 20322m | 5.2m/s | -54°C | 3.9% | 55.2hPa | 2.7V | 08:30:00 | 01:21:14 | 00:00:00 | |
| DO2SHX-10 | 2026-09-04 04:52:31 | 52.56664 | 9.03784 | 68° | 27km/h | 20350m | 4.9m/s | -54.0°C | 3.9% | 54.9hPa | 2.6V | 00:00:00 | 01:21:19 | 00:00:00 | |
| DO3DL | 2026-09-04 04:52:30 | 52.56664 | 9.03784 | 69° | 24km/h | 20350m | 4.9m/s | -54.1°C | 1.0% | 55.0hPa | 2.6V | 00:00:00 | 00:00:00 | 00:00:00 | |
| DF5WG-10 | 2026-09-04 04:52:29 | 52.56660 | 9.03762 | 76° | 31km/h | 20339m | 4.7m/s | -53.9°C | 3.8% | 55.0hPa | 2.6V | 00:00:00 | 01:21:17 | 00:00:00 | |
| DM0DOS-11 | 2026-09-04 04:52:28 | 52.56645 | 9.03691 | 71° | 31km/h | 20307m | 6.1m/s | -54.1°C | 3.9% | 55.3hPa | 2.6V | 08:30:00 | 01:21:11 | 00:00:00 | |
| DF8AY | 2026-09-04 04:52:28 | 52.56658 | 9.03749 | 75° | 33km/h | 20334m | 4.7m/s | -54°C | 0.3% | 55.1hPa | 2.7V | 18:12:15 | 01:21:16 | 00:00:00 | |
| DO2JMG | 2026-09-04 04:52:26 | 52.56653 | 9.03724 | 69° | 29km/h | 20322m | 5.2m/s | -54°C | 0.4% | 55.2hPa | 2.7V | 18:12:15 | 01:21:14 | 00:00:00 | |
| DL1XH-west | 2026-09-04 04:52:24 | 52.56648 | 9.03703 | 68° | 29km/h | 20312m | 5.1m/s | -54.1°C | 0.5% | 55.3hPa | 2.6V | 18:12:15 | 01:21:12 | 00:00:00 | |
| BIOWL1-15 | 2026-09-04 04:52:23 | 52.56645 | 9.03691 | 71° | 31km/h | 20307m | 6.1m/s | -54.1°C | 0.4% | 55.3hPa | 2.6V | 18:12:15 | 01:21:11 | 00:00:00 | |
| DJ8HS-15 | 2026-09-04 04:52:23 | 52.56645 | 9.03691 | 72° | 35km/h | 20307m | 6.0m/s | -54.0°C | 3.9% | 55.3hPa | 2.6V | 00:00:00 | 01:21:11 | 00:00:00 | |
| DD8BA-10 | 2026-09-04 04:52:22 | 52.56642 | 9.03679 | 69° | 33km/h | 20302m | 4.4m/s | -54.0°C | 4.0% | 55.3hPa | 2.6V | 00:00:00 | 00:00:00 | 08:30:00 | |
| DL1XH-15 | 2026-09-04 04:52:21 | 52.56612 | 9.03610 | 55° | 37km/h | 20269m | 4.5m/s | -54°C | 3.8% | 55.7hPa | 2.6V | 08:30:00 | 01:21:04 | 00:00:00 | |
| AA1-15 | 2026-09-04 04:52:21 | 52.56639 | 9.03666 | 62° | 33km/h | 20297m | 4.5m/s | -54.1°C | 0.5% | 55.4hPa | 2.7V | 18:12:15 | 01:21:09 | 00:00:00 | |
| DD1CC1-15 | 2026-09-04 04:52:20 | 52.56639 | 9.03666 | 63° | 33km/h | 20297m | 4.5m/s | -54.1°C | 1.0% | 55.4hPa | 2.7V | 00:00:00 | 00:00:00 | 00:00:00 | |
| DO2SHX-10 | 2026-09-04 04:52:19 | 52.56629 | 9.03644 | 48° | 35km/h | 20286m | 5.5m/s | -54.0°C | 3.9% | 55.5hPa | 2.7V | 00:00:00 | 01:21:07 | 00:00:00 | |
| DM0DOS-11 | 2026-09-04 04:52:18 | 52.56599 | 9.03576 | 58° | 29km/h | 20253m | 4.2m/s | -54°C | 3.7% | 55.8hPa | 2.7V | 08:30:00 | 01:21:01 | 00:00:00 | |
| DF8AY | 2026-09-04 04:52:17 | 52.56617 | 9.03623 | 51° | 37km/h | 20274m | 6.1m/s | -54°C | 0.4% | 55.6hPa | 2.6V | 18:12:15 | 01:21:05 | 00:00:00 | |
| GOEST3-10 | 2026-09-04 04:52:17 | 52.56617 | 9.03623 | 52° | 33km/h | 20274m | 6.0m/s | -54.0°C | 3.8% | 55.6hPa | 2.6V | 00:00:00 | 01:21:05 | 00:00:00 | |
| DL1XH1-15 | 2026-09-04 04:52:16 | 52.56591 | 9.03554 | 60° | 33km/h | 20242m | 4.2m/s | -54°C | 3.9% | 55.9hPa | 2.6V | 08:30:00 | 01:20:59 | 00:00:00 | |
| DO2JMG | 2026-09-04 04:52:16 | 52.56612 | 9.03610 | 56° | 37km/h | 20269m | 4.5m/s | -54°C | 0.3% | 55.7hPa | 2.6V | 18:12:15 | 01:21:04 | 00:00:00 | |
| BIOWL1-15 | 2026-09-04 04:52:13 | 52.56599 | 9.03576 | 59° | 29km/h | 20253m | 4.2m/s | -54°C | 0.3% | 55.8hPa | 2.7V | 18:12:15 | 01:21:01 | 00:00:00 | |
| AA1-15 | 2026-09-04 04:52:11 | 52.56591 | 9.03554 | 61° | 33km/h | 20242m | 4.2m/s | -54°C | 0.4% | 55.9hPa | 2.6V | 18:12:15 | 01:20:59 | 00:00:00 | |
| DF2AP-13 | 2026-09-04 04:52:10 | 52.56587 | 9.03542 | 57° | 35km/h | 20238m | 4.4m/s | -54.0°C | 3.9% | 55.9hPa | 2.6V | 00:00:00 | 01:20:58 | 00:00:00 | |
| DF5WG-10 | 2026-09-04 04:52:09 | 52.56582 | 9.03532 | 52° | 35km/h | 20233m | 6.5m/s | -54.0°C | 4.0% | 55.9hPa | 2.6V | 00:00:00 | 01:20:57 | 00:00:00 | |
| DM0DOS-11 | 2026-09-04 04:52:08 | 52.56540 | 9.03479 | 28° | 37km/h | 20199m | 4.8m/s | -53.9°C | 3.9% | 56.3hPa | 2.6V | 08:30:00 | 01:20:51 | 00:00:00 | |
| DL1NUX | 2026-09-04 04:52:07 | 52.56532 | 9.03471 | 34° | 35km/h | 20194m | 6.1m/s | -53.9°C | 3.9% | 56.3hPa | 2.6V | 08:30:00 | 01:20:50 | 00:00:00 | |
| DF8AY | 2026-09-04 04:52:06 | 52.56564 | 9.03504 | 38° | 38km/h | 20215m | 4.3m/s | -54°C | 0.6% | 56.1hPa | 2.7V | 18:12:15 | 01:20:54 | 00:00:00 | |
| DO2JMG | 2026-09-04 04:52:05 | 52.56556 | 9.03495 | 33° | 40km/h | 20211m | 4.2m/s | -54°C | 0.5% | 56.2hPa | 2.7V | 18:12:15 | 01:20:53 | 00:00:00 | |
| DL1XH-west | 2026-09-04 04:52:03 | 52.56539 | 9.03479 | 29° | 37km/h | 20199m | 4.8m/s | -53.9°C | 0.4% | 56.3hPa | 2.6V | 18:12:15 | 01:20:51 | 00:00:00 | |
| DL3AQ-11 | 2026-09-04 04:52:03 | 52.56525 | 9.03463 | 44° | 33km/h | 20188m | 5.7m/s | -53.8°C | 1.0% | 56.4hPa | 2.6V | 00:00:00 | 00:00:00 | 00:00:00 | |
| DL1XH-15 | 2026-09-04 04:52:01 | 52.56493 | 9.03410 | 42° | 44km/h | 20162m | 6m/s | -53.7°C | 3.8% | 56.6hPa | 2.6V | 08:30:00 | 01:20:44 | 00:00:00 | |
| AA1-15 | 2026-09-04 04:52:01 | 52.56525 | 9.03463 | 44° | 33km/h | 20188m | 5.7m/s | -53.8°C | 0.5% | 56.4hPa | 2.6V | 18:12:15 | 01:20:49 | 00:00:00 | |
| DD1CC8 | 2026-09-04 04:52:00 | 52.56520 | 9.03453 | 48° | 33km/h | 20183m | 4.3m/s | -53.7°C | 1.0% | 56.4hPa | 2.7V | 00:00:00 | 00:00:00 | 00:00:00 | |
| DF5WG-10 | 2026-09-04 04:51:59 | 52.56514 | 9.03442 | 47° | 37km/h | 20178m | 6.1m/s | -53.7°C | 3.9% | 56.4hPa | 2.7V | 00:00:00 | 01:20:47 | 00:00:00 | |
| DM0DOS-11 | 2026-09-04 04:51:58 | 52.56467 | 9.03379 | 24° | 38km/h | 20146m | 5.5m/s | -53.7°C | 3.8% | 56.8hPa | 2.7V | 08:30:00 | 01:20:41 | 00:00:00 | |
| DL4BBY-15 | 2026-09-04 04:51:58 | 52.56508 | 9.03432 | 44° | 29km/h | 20173m | 5.1m/s | -54.6°C | 0% | 0hPa | 2.7V | 00:00:00 | 00:00:00 | 00:00:00 | |
| DL1NUX | 2026-09-04 04:51:57 | 52.56459 | 9.03374 | 19° | 35km/h | 20141m | 4.4m/s | -53.7°C | 3.8% | 56.8hPa | 2.7V | 08:30:00 | 01:20:40 | 00:00:00 | |
| DF8AY | 2026-09-04 04:51:56 | 52.56493 | 9.03410 | 43° | 44km/h | 20162m | 6m/s | -53.7°C | 0.4% | 56.6hPa | 2.6V | 18:12:15 | 01:20:44 | 00:00:00 | |
| DO2JMG | 2026-09-04 04:51:54 | 52.56476 | 9.03387 | 33° | 42km/h | 20151m | 5.4m/s | -53.6°C | 0.3% | 56.7hPa | 2.6V | 18:12:15 | 01:20:42 | 00:00:00 | |
| DL1XH-west | 2026-09-04 04:51:52 | 52.56458 | 9.03374 | 20° | 35km/h | 20141m | 4.4m/s | -53.7°C | 0.4% | 56.8hPa | 2.7V | 18:12:15 | 01:20:40 | 00:00:00 | |
| DL3AQ-11 | 2026-09-04 04:51:52 | 52.56445 | 9.03364 | 31° | 26km/h | 20131m | 6.2m/s | -53.7°C | 1.0% | 56.9hPa | 2.7V | 00:00:00 | 00:00:00 | 00:00:00 | |
| DL1XH-15 | 2026-09-04 04:51:51 | 52.56427 | 9.03334 | 45° | 27km/h | 20110m | 5.5m/s | -53.6°C | 3.9% | 57.1hPa | 2.7V | 08:30:00 | 01:20:34 | 00:00:00 | |
| AA1-15 | 2026-09-04 04:51:50 | 52.56445 | 9.03364 | 32° | 26km/h | 20130m | 6.2m/s | -53.7°C | 0.4% | 56.9hPa | 2.6V | 18:12:15 | 01:20:38 | 00:00:00 | |
| DJ2DS-15 | 2026-09-04 04:51:50 | 52.56445 | 9.03364 | 31° | 26km/h | 20131m | 6.2m/s | -53.7°C | 1.0% | 56.9hPa | 2.5V | 00:00:00 | 00:00:00 | 00:00:00 | |
| DM0DOS-11 | 2026-09-04 04:51:48 | 52.56410 | 9.03308 | 44° | 35km/h | 20094m | 5.7m/s | -53.6°C | 3.9% | 57.2hPa | 2.5V | 08:30:00 | 01:20:31 | 00:00:00 | |
| DL1NUX | 2026-09-04 04:51:47 | 52.56404 | 9.03297 | 48° | 35km/h | 20089m | 4.7m/s | -53.5°C | 3.9% | 57.3hPa | 2.6V | 08:30:00 | 01:20:30 | 00:00:00 | |
| DF8AY | 2026-09-04 04:51:45 | 52.56422 | 9.03326 | 41° | 29km/h | 20104m | 5.2m/s | -53.6°C | 0.4% | 57.1hPa | 2.7V | 18:12:15 | 01:20:33 | 00:00:00 | |
| DO2JMG | 2026-09-04 04:51:43 | 52.56410 | 9.03308 | 45° | 35km/h | 20094m | 5.7m/s | -53.6°C | 0.5% | 57.2hPa | 2.5V | 18:12:15 | 01:20:31 | 00:00:00 | |
| DL1XH-west | 2026-09-04 04:51:42 | 52.56404 | 9.03297 | 49° | 35km/h | 20089m | 4.7m/s | -53.5°C | 0.5% | 57.3hPa | 2.6V | 18:12:15 | 01:20:30 | 00:00:00 | |
| HSKMA3-T | 2026-09-04 04:51:41 | 52.56398 | 9.03287 | 49° | 31km/h | 20085m | 3.6m/s | -53.5°C | 0.5% | 57.3hPa | 2.6V | 18:12:15 | 01:20:29 | 00:00:00 | |
| AA1-15 | 2026-09-04 04:51:40 | 52.56388 | 9.03273 | 29° | 22km/h | 20074m | 7.1m/s | -53.4°C | 0.5% | 57.4hPa | 2.7V | 18:12:15 | 01:20:27 | 00:00:00 | |
| DB0DAN | 2026-09-04 04:51:40 | 52.56393 | 9.03278 | 43° | 26km/h | 20080m | 5.3m/s | -53.5°C | 1% | 57.34hPa | 2.6V | 00:00:00 | 00:00:00 | 00:00:00 | |
| DM0DOS-11 | 2026-09-04 04:51:39 | 52.56364 | 9.03254 | 25° | 22km/h | 20036m | 8.1m/s | -53.2°C | 3.6% | 57.7hPa | 2.6V | 08:30:00 | 01:20:21 | 00:00:00 | |
| DD1CC1-15 | 2026-09-04 04:51:38 | 52.56388 | 9.03273 | 30° | 22km/h | 20074m | 7.1m/s | -53.4°C | 1.0% | 57.4hPa | 2.7V | 00:00:00 | 00:00:00 | 00:00:00 | |
| DL1NUX | 2026-09-04 04:51:37 | 52.56359 | 9.03250 | 20° | 24km/h | 20028m | 6.7m/s | -53.3°C | 3.6% | 57.8hPa | 2.7V | 08:30:00 | 01:20:20 | 00:00:00 | |
| DO2SHX-10 | 2026-09-04 04:51:37 | 52.56380 | 9.03268 | 12° | 15km/h | 20060m | 7.1m/s | -53.3°C | 3.8% | 57.4hPa | 2.7V | 00:00:00 | 01:20:25 | 00:00:00 | |
| DL1XH1-15 | 2026-09-04 04:51:36 | 52.56353 | 9.03246 | 25° | 27km/h | 20021m | 6.9m/s | -53.3°C | 3.6% | 57.8hPa | 2.7V | 08:30:00 | 01:20:19 | 00:00:00 | |
| DF8AY | 2026-09-04 04:51:35 | 52.56373 | 9.03263 | 38° | 16km/h | 20047m | 4.6m/s | -53.2°C | 0.3% | 57.6hPa | 2.5V | 18:12:15 | 01:20:23 | 00:00:00 | |
| BIOWL1-15 | 2026-09-04 04:51:34 | 52.56359 | 9.03250 | 20° | 24km/h | 20028m | 6.7m/s | -53.3°C | 0.3% | 57.8hPa | 2.7V | 18:12:15 | 01:20:20 | 00:00:00 | |
| DO2JMG | 2026-09-04 04:51:33 | 52.56365 | 9.03254 | 26° | 22km/h | 20036m | 8.1m/s | -53.2°C | 0.2% | 57.7hPa | 2.6V | 18:12:15 | 01:20:21 | 00:00:00 | |
| DL1XH-west | 2026-09-04 04:51:31 | 52.56353 | 9.03246 | 26° | 27km/h | 20022m | 6.9m/s | -53.3°C | 0.3% | 57.8hPa | 2.7V | 18:12:15 | 01:20:19 | 00:00:00 | |
| DO2SHX-10 | 2026-09-04 04:51:31 | 52.56353 | 9.03245 | 26° | 27km/h | 20022m | 6.8m/s | -53.3°C | 3.6% | 57.8hPa | 2.7V | 00:00:00 | 01:20:19 | 00:00:00 | |
| DO3DL | 2026-09-04 04:51:30 | 52.56353 | 9.03245 | 27° | 27km/h | 20022m | 6.9m/s | -53.3°C | 1.0% | 57.8hPa | 2.7V | 00:00:00 | 00:00:00 | 00:00:00 | |
| DF5WG-10 | 2026-09-04 04:51:29 | 52.56341 | 9.03233 | 35° | 18km/h | 20010m | 5.5m/s | -53.2°C | 3.6% | 57.9hPa | 2.7V | 00:00:00 | 01:20:17 | 00:00:00 | |
| DM0DOS-11 | 2026-09-04 04:51:28 | 52.56326 | 9.03198 | 104° | 16km/h | 19975m | 3.9m/s | -53.2°C | 3.7% | 58.3hPa | 2.7V | 08:30:00 | 01:20:11 | 00:00:00 | |
| AA1-15 | 2026-09-04 04:51:28 | 52.56335 | 9.03227 | 33° | 26km/h | 20003m | 6.9m/s | -53.3°C | 0.2% | 58hPa | 2.6V | 18:12:15 | 01:20:16 | 00:00:00 | |
| DL4BBY-15 | 2026-09-04 04:51:28 | 52.56336 | 9.03227 | 33° | 15km/h | 20003m | 6.8m/s | -54.2°C | 0% | 0hPa | 2.6V | 00:00:00 | 00:00:00 | 00:00:00 | |
| DL1NUX | 2026-09-04 04:51:27 | 52.56326 | 9.03191 | 102° | 15km/h | 19970m | 5m/s | -53.2°C | 3.6% | 58.3hPa | 2.6V | 08:30:00 | 01:20:10 | 00:00:00 | |
| GOEST3-10 | 2026-09-04 04:51:27 | 52.56330 | 9.03222 | 36° | 16km/h | 19998m | 4.9m/s | -53.2°C | 3.6% | 58.0hPa | 2.6V | 00:00:00 | 01:20:15 | 00:00:00 | |
| DL1XH1-15 | 2026-09-04 04:51:26 | 52.56327 | 9.03186 | 80° | 11km/h | 19965m | 5.3m/s | -53.2°C | 3.6% | 58.4hPa | 2.6V | 08:30:00 | 01:20:09 | 00:00:00 | |
| DF8AY | 2026-09-04 04:51:25 | 52.56325 | 9.03212 | 71° | 15km/h | 19986m | 7.2m/s | -53.2°C | 0.3% | 58.2hPa | 2.7V | 18:12:15 | 01:20:13 | 00:00:00 | |
| DL4XJ-10 | 2026-09-04 04:51:25 | 52.56325 | 9.03212 | 72° | 15km/h | 19986m | 7.1m/s | -54.1°C | 0% | 0hPa | 2.6V | 00:00:00 | 00:00:00 | 00:00:00 | |
| DJ2DS-15 | 2026-09-04 04:51:24 | 52.56325 | 9.03205 | 94° | 15km/h | 19980m | 5.4m/s | -53.1°C | 3.7% | 58.2hPa | 2.6V | 00:00:00 | 01:20:12 | 00:00:00 | |
| DL3AQ-11 | 2026-09-04 04:51:23 | 52.56326 | 9.03192 | 102° | 13km/h | 19970m | 5.0m/s | -53.2°C | 1.0% | 58.3hPa | 2.6V | 00:00:00 | 00:00:00 | 00:00:00 | |
| DO2SHX-10 | 2026-09-04 04:51:22 | 52.56326 | 9.03192 | 103° | 13km/h | 19971m | 4.9m/s | -53.1°C | 3.6% | 58.3hPa | 2.6V | 00:00:00 | 01:20:10 | 00:00:00 | |
| DO2JMG | 2026-09-04 04:51:22 | 52.56326 | 9.03192 | 103° | 15km/h | 19970m | 5m/s | -53.2°C | 0.3% | 58.3hPa | 2.6V | 18:12:15 | 01:20:10 | 00:00:00 | |
| DL1XH-15 | 2026-09-04 04:51:21 | 52.56313 | 9.03165 | 47° | 15km/h | 19941m | 4.8m/s | -53.6°C | 3.7% | 58.6hPa | 2.7V | 08:30:00 | 01:20:04 | 00:00:00 | |
| BIOWL1-15 | 2026-09-04 04:51:21 | 52.56327 | 9.03186 | 81° | 11km/h | 19965m | 5.3m/s | -53.2°C | 0.2% | 58.4hPa | 2.6V | 18:12:15 | 01:20:09 | 00:00:00 | |
| DL1XH-west | 2026-09-04 04:51:20 | 52.56325 | 9.03182 | 48° | 11km/h | 19961m | 4.1m/s | -53.2°C | 0.2% | 58.4hPa | 2.6V | 18:12:15 | 01:20:08 | 00:00:00 | |
| AA1-15 | 2026-09-04 04:51:18 | 52.56319 | 9.03174 | 38° | 18km/h | 19951m | 5.2m/s | -53.4°C | 0.2% | 58.5hPa | 2.7V | 18:12:15 | 01:20:06 | 00:00:00 | |
| DL1NUX | 2026-09-04 04:51:17 | 52.56306 | 9.03149 | 77° | 11km/h | 19922m | 4.6m/s | -53.9°C | 3.8% | 58.7hPa | 2.6V | 08:30:00 | 01:20:00 | 00:00:00 | |
| GOEST3-10 | 2026-09-04 04:51:17 | 52.56316 | 9.03170 | 44° | 13km/h | 19946m | 5.0m/s | -53.4°C | 3.6% | 58.5hPa | 2.7V | 00:00:00 | 01:20:05 | 00:00:00 | |
| DL1XH1-15 | 2026-09-04 04:51:16 | 52.56306 | 9.03144 | 103° | 13km/h | 19917m | 6.4m/s | -53.9°C | 3.8% | 58.8hPa | 2.7V | 08:30:00 | 01:19:59 | 00:00:00 | |
| DF8AY | 2026-09-04 04:51:14 | 52.56309 | 9.03157 | 46° | 11km/h | 19931m | 5m/s | -53.8°C | 0.3% | 58.7hPa | 2.6V | 18:12:15 | 01:20:02 | 00:00:00 | |
| BIOWL1-15 | 2026-09-04 04:51:13 | 52.56306 | 9.03144 | 103° | 13km/h | 19917m | 6.4m/s | -53.9°C | 0.4% | 58.8hPa | 2.7V | 18:12:15 | 01:19:59 | 00:00:00 | |
| DO2JMG | 2026-09-04 04:51:12 | 52.56306 | 9.03149 | 77° | 11km/h | 19922m | 4.6m/s | -53.9°C | 0.3% | 58.7hPa | 2.6V | 18:12:15 | 01:20:00 | 00:00:00 | |
| DD8BA-10 | 2026-09-04 04:51:12 | 52.56306 | 9.03149 | 78° | 13km/h | 19923m | 4.6m/s | -53.8°C | 3.8% | 58.7hPa | 2.6V | 00:00:00 | 00:00:00 | 00:00:00 | |
| DL1XH-15 | 2026-09-04 04:51:11 | 52.56316 | 9.03119 | 107° | 11km/h | 19892m | 4.6m/s | -54°C | 3.9% | 59hPa | 2.6V | 08:30:00 | 01:19:54 | 00:00:00 | |
| DL1XH-west | 2026-09-04 04:51:11 | 52.56308 | 9.03139 | 123° | 16km/h | 19911m | 4.8m/s | -53.9°C | 0.3% | 58.9hPa | 2.7V | 18:12:15 | 01:19:58 | 00:00:00 | |
| HSKMA3-T | 2026-09-04 04:51:10 | 52.56310 | 9.03133 | 131° | 16km/h | 19907m | 4.4m/s | -53.9°C | 0.4% | 58.9hPa | 2.7V | 18:12:15 | 01:19:57 | 00:00:00 | |
| DB0DAN | 2026-09-04 04:51:10 | 52.56308 | 9.03139 | 123° | 16km/h | 19911m | 4.8m/s | -53.9°C | 1% | 58.86hPa | 2.7V | 00:00:00 | 00:00:00 | 00:00:00 | |
| AA1-15 | 2026-09-04 04:51:08 | 52.56313 | 9.03128 | 130° | 15km/h | 19902m | 5.4m/s | -54°C | 0.4% | 59hPa | 2.6V | 18:12:15 | 01:19:56 | 00:00:00 | |
| DL1NUX | 2026-09-04 04:51:07 | 52.56316 | 9.03100 | 72° | 9km/h | 19871m | 5.3m/s | -54°C | 3.9% | 59.2hPa | 2.7V | 08:30:00 | 01:19:50 | 00:00:00 | |
| SO1NDE-10 | 2026-09-04 04:51:07 | 52.56314 | 9.03124 | 118° | 15km/h | 19897m | 4.3m/s | -53.9°C | 3.8% | 58.9hPa | 2.6V | 00:00:00 | 01:19:55 | 00:00:00 | |
| DL1XH1-15 | 2026-09-04 04:51:06 | 52.56315 | 9.03096 | 91° | 11km/h | 19867m | 4.8m/s | -54°C | 3.8% | 59.3hPa | 2.6V | 08:30:00 | 01:19:49 | 00:00:00 | |
| DF8AY | 2026-09-04 04:51:03 | 52.56316 | 9.03104 | 77° | 11km/h | 19877m | 6m/s | -54°C | 0.4% | 59.2hPa | 2.7V | 18:12:15 | 01:19:51 | 00:00:00 | |
| Es werden nur die letzten 3500 von 6721 Frames angezeigt. GPX/KML und Diagramme bleiben verfügbar. | |||||||||||||||